<?xml version="1.0" encoding="UTF-8" standalone="no" ?>
<gpx xmlns="http://www.topografix.com/GPX/1/1" xmlns:xsi="http://www.w3.org/2001/XMLSchema-instance" xsi:schemaLocation="http://www.topografix.com/GPX/1/1 http://www.topografix.com/GPX/1/1/gpx.xsd" version="1.1" creator="VisuGPX - https://www.visugpx.com">
  <metadata>
    <name>Glaris-Engelberg(tout)</name>
  </metadata>
  <trk>
    <name><![CDATA[Glaris-Engelberg(tout)_6]]></name>
    <extensions>
      <line xmlns="http://www.topografix.com/GPX/gpx_style/0/2">
        <color>FF00FF</color>
        <width>4</width>
      </line>
    </extensions>
    <trkseg>
      <trkpt lat="46.97087" lon="8.78782">
        <ele>646</ele>
        <time>2021-08-06T08:25:04.294Z</time>
      </trkpt>
      <trkpt lat="46.97087" lon="8.78782">
        <ele>646</ele>
        <time>2021-08-06T08:25:05.295Z</time>
      </trkpt>
      <trkpt lat="46.97087" lon="8.78782">
        <ele>646</ele>
        <time>2021-08-06T08:25:06.295Z</time>
      </trkpt>
      <trkpt lat="46.97087" lon="8.78782">
        <ele>646</ele>
        <time>2021-08-06T08:25:07.295Z</time>
      </trkpt>
      <trkpt lat="46.97087" lon="8.78782">
        <ele>646</ele>
        <time>2021-08-06T08:25:08.295Z</time>
      </trkpt>
      <trkpt lat="46.97087" lon="8.78782">
        <ele>647</ele>
        <time>2021-08-06T08:25:09.295Z</time>
      </trkpt>
      <trkpt lat="46.97087" lon="8.78782">
        <ele>647</ele>
        <time>2021-08-06T08:25:10.295Z</time>
      </trkpt>
      <trkpt lat="46.97087" lon="8.78782">
        <ele>646</ele>
        <time>2021-08-06T08:25:11.294Z</time>
      </trkpt>
      <trkpt lat="46.97087" lon="8.78783">
        <ele>646</ele>
        <time>2021-08-06T08:25:12.294Z</time>
      </trkpt>
      <trkpt lat="46.97087" lon="8.78783">
        <ele>646</ele>
        <time>2021-08-06T08:25:13.294Z</time>
      </trkpt>
      <trkpt lat="46.97087" lon="8.78784">
        <ele>646</ele>
        <time>2021-08-06T08:25:14.295Z</time>
      </trkpt>
      <trkpt lat="46.97087" lon="8.78785">
        <ele>647</ele>
        <time>2021-08-06T08:25:15.294Z</time>
      </trkpt>
      <trkpt lat="46.97087" lon="8.78785">
        <ele>647</ele>
        <time>2021-08-06T08:25:16.294Z</time>
      </trkpt>
      <trkpt lat="46.97087" lon="8.78785">
        <ele>647</ele>
        <time>2021-08-06T08:25:17.294Z</time>
      </trkpt>
      <trkpt lat="46.97088" lon="8.78785">
        <ele>647</ele>
        <time>2021-08-06T08:25:18.294Z</time>
      </trkpt>
      <trkpt lat="46.97088" lon="8.78784">
        <ele>647</ele>
        <time>2021-08-06T08:25:19.294Z</time>
      </trkpt>
      <trkpt lat="46.97088" lon="8.78785">
        <ele>648</ele>
        <time>2021-08-06T08:25:20.295Z</time>
      </trkpt>
      <trkpt lat="46.97088" lon="8.78785">
        <ele>648</ele>
        <time>2021-08-06T08:25:21.294Z</time>
      </trkpt>
      <trkpt lat="46.97088" lon="8.78785">
        <ele>648</ele>
        <time>2021-08-06T08:25:22.295Z</time>
      </trkpt>
      <trkpt lat="46.97088" lon="8.78785">
        <ele>648</ele>
        <time>2021-08-06T08:25:23.294Z</time>
      </trkpt>
      <trkpt lat="46.97088" lon="8.78785">
        <ele>648</ele>
        <time>2021-08-06T08:25:24.294Z</time>
      </trkpt>
      <trkpt lat="46.97087" lon="8.78785">
        <ele>648</ele>
        <time>2021-08-06T08:25:25.294Z</time>
      </trkpt>
      <trkpt lat="46.97087" lon="8.78785">
        <ele>648</ele>
        <time>2021-08-06T08:25:26.295Z</time>
      </trkpt>
      <trkpt lat="46.97087" lon="8.78785">
        <ele>648</ele>
        <time>2021-08-06T08:25:27.294Z</time>
      </trkpt>
      <trkpt lat="46.97086" lon="8.78784">
        <ele>648</ele>
        <time>2021-08-06T08:25:28.295Z</time>
      </trkpt>
      <trkpt lat="46.97085" lon="8.78783">
        <ele>648</ele>
        <time>2021-08-06T08:25:29.294Z</time>
      </trkpt>
      <trkpt lat="46.97085" lon="8.78783">
        <ele>648</ele>
        <time>2021-08-06T08:25:30.294Z</time>
      </trkpt>
      <trkpt lat="46.97085" lon="8.78784">
        <ele>648</ele>
        <time>2021-08-06T08:25:31.295Z</time>
      </trkpt>
      <trkpt lat="46.97086" lon="8.78785">
        <ele>647</ele>
        <time>2021-08-06T08:25:32.295Z</time>
      </trkpt>
      <trkpt lat="46.97086" lon="8.78785">
        <ele>647</ele>
        <time>2021-08-06T08:25:33.295Z</time>
      </trkpt>
      <trkpt lat="46.97086" lon="8.78785">
        <ele>647</ele>
        <time>2021-08-06T08:25:34.294Z</time>
      </trkpt>
      <trkpt lat="46.97087" lon="8.78785">
        <ele>647</ele>
        <time>2021-08-06T08:25:35.294Z</time>
      </trkpt>
      <trkpt lat="46.97087" lon="8.78786">
        <ele>647</ele>
        <time>2021-08-06T08:25:36.295Z</time>
      </trkpt>
      <trkpt lat="46.97088" lon="8.78786">
        <ele>648</ele>
        <time>2021-08-06T08:25:37.295Z</time>
      </trkpt>
      <trkpt lat="46.97088" lon="8.78786">
        <ele>648</ele>
        <time>2021-08-06T08:25:38.294Z</time>
      </trkpt>
      <trkpt lat="46.97087" lon="8.78786">
        <ele>649</ele>
        <time>2021-08-06T08:25:39.295Z</time>
      </trkpt>
      <trkpt lat="46.97087" lon="8.78786">
        <ele>649</ele>
        <time>2021-08-06T08:25:40.295Z</time>
      </trkpt>
      <trkpt lat="46.97087" lon="8.78787">
        <ele>650</ele>
        <time>2021-08-06T08:25:41.295Z</time>
      </trkpt>
      <trkpt lat="46.97088" lon="8.78787">
        <ele>650</ele>
        <time>2021-08-06T08:25:42.294Z</time>
      </trkpt>
      <trkpt lat="46.97088" lon="8.78788">
        <ele>650</ele>
        <time>2021-08-06T08:25:43.294Z</time>
      </trkpt>
      <trkpt lat="46.97089" lon="8.78788">
        <ele>650</ele>
        <time>2021-08-06T08:25:44.295Z</time>
      </trkpt>
      <trkpt lat="46.97089" lon="8.78787">
        <ele>650</ele>
        <time>2021-08-06T08:25:45.295Z</time>
      </trkpt>
      <trkpt lat="46.97086" lon="8.78784">
        <ele>643</ele>
        <time>2021-08-06T08:25:46.294Z</time>
      </trkpt>
      <trkpt lat="46.97087" lon="8.78785">
        <ele>643</ele>
        <time>2021-08-06T08:25:47.294Z</time>
      </trkpt>
      <trkpt lat="46.97086" lon="8.78783">
        <ele>642</ele>
        <time>2021-08-06T08:25:48.295Z</time>
      </trkpt>
      <trkpt lat="46.9709" lon="8.78785">
        <ele>646</ele>
        <time>2021-08-06T08:25:49.296Z</time>
      </trkpt>
      <trkpt lat="46.9709" lon="8.78785">
        <ele>646</ele>
        <time>2021-08-06T08:25:50.295Z</time>
      </trkpt>
      <trkpt lat="46.97089" lon="8.78784">
        <ele>646</ele>
        <time>2021-08-06T08:25:51.295Z</time>
      </trkpt>
      <trkpt lat="46.97089" lon="8.78784">
        <ele>647</ele>
        <time>2021-08-06T08:25:52.295Z</time>
      </trkpt>
      <trkpt lat="46.97089" lon="8.78785">
        <ele>647</ele>
        <time>2021-08-06T08:25:53.296Z</time>
      </trkpt>
      <trkpt lat="46.97089" lon="8.78786">
        <ele>643</ele>
        <time>2021-08-06T08:25:54.295Z</time>
      </trkpt>
      <trkpt lat="46.9709" lon="8.78787">
        <ele>643</ele>
        <time>2021-08-06T08:25:55.296Z</time>
      </trkpt>
      <trkpt lat="46.9709" lon="8.78788">
        <ele>643</ele>
        <time>2021-08-06T08:25:56.295Z</time>
      </trkpt>
      <trkpt lat="46.97086" lon="8.78785">
        <ele>645</ele>
        <time>2021-08-06T08:25:57.296Z</time>
      </trkpt>
      <trkpt lat="46.97086" lon="8.78785">
        <ele>645</ele>
        <time>2021-08-06T08:25:58.296Z</time>
      </trkpt>
      <trkpt lat="46.97087" lon="8.78786">
        <ele>645</ele>
        <time>2021-08-06T08:25:59.296Z</time>
      </trkpt>
      <trkpt lat="46.97087" lon="8.78786">
        <ele>645</ele>
        <time>2021-08-06T08:26:00.297Z</time>
      </trkpt>
      <trkpt lat="46.97087" lon="8.78787">
        <ele>645</ele>
        <time>2021-08-06T08:26:01.297Z</time>
      </trkpt>
      <trkpt lat="46.97086" lon="8.78785">
        <ele>645</ele>
        <time>2021-08-06T08:26:02.298Z</time>
      </trkpt>
      <trkpt lat="46.97085" lon="8.78784">
        <ele>645</ele>
        <time>2021-08-06T08:26:03.298Z</time>
      </trkpt>
      <trkpt lat="46.97085" lon="8.78786">
        <ele>646</ele>
        <time>2021-08-06T08:26:04.298Z</time>
      </trkpt>
      <trkpt lat="46.97086" lon="8.78787">
        <ele>646</ele>
        <time>2021-08-06T08:26:05.297Z</time>
      </trkpt>
      <trkpt lat="46.97087" lon="8.78787">
        <ele>645</ele>
        <time>2021-08-06T08:26:06.297Z</time>
      </trkpt>
      <trkpt lat="46.97087" lon="8.78787">
        <ele>645</ele>
        <time>2021-08-06T08:26:07.298Z</time>
      </trkpt>
      <trkpt lat="46.97088" lon="8.78786">
        <ele>645</ele>
        <time>2021-08-06T08:26:08.298Z</time>
      </trkpt>
      <trkpt lat="46.97088" lon="8.78786">
        <ele>645</ele>
        <time>2021-08-06T08:26:09.297Z</time>
      </trkpt>
      <trkpt lat="46.97089" lon="8.78786">
        <ele>645</ele>
        <time>2021-08-06T08:26:10.298Z</time>
      </trkpt>
      <trkpt lat="46.97088" lon="8.78782">
        <ele>646</ele>
        <time>2021-08-06T08:26:11.298Z</time>
      </trkpt>
      <trkpt lat="46.97087" lon="8.78781">
        <ele>646</ele>
        <time>2021-08-06T08:26:12.297Z</time>
      </trkpt>
      <trkpt lat="46.97087" lon="8.78782">
        <ele>648</ele>
        <time>2021-08-06T08:26:13.298Z</time>
      </trkpt>
      <trkpt lat="46.97087" lon="8.78782">
        <ele>648</ele>
        <time>2021-08-06T08:26:14.299Z</time>
      </trkpt>
      <trkpt lat="46.97087" lon="8.78782">
        <ele>649</ele>
        <time>2021-08-06T08:26:15.299Z</time>
      </trkpt>
      <trkpt lat="46.97088" lon="8.78783">
        <ele>649</ele>
        <time>2021-08-06T08:26:16.299Z</time>
      </trkpt>
      <trkpt lat="46.97088" lon="8.78784">
        <ele>648</ele>
        <time>2021-08-06T08:26:17.298Z</time>
      </trkpt>
      <trkpt lat="46.97088" lon="8.78784">
        <ele>649</ele>
        <time>2021-08-06T08:26:18.299Z</time>
      </trkpt>
      <trkpt lat="46.97088" lon="8.78784">
        <ele>649</ele>
        <time>2021-08-06T08:26:19.299Z</time>
      </trkpt>
      <trkpt lat="46.97089" lon="8.78784">
        <ele>649</ele>
        <time>2021-08-06T08:26:20.299Z</time>
      </trkpt>
      <trkpt lat="46.97089" lon="8.78783">
        <ele>649</ele>
        <time>2021-08-06T08:26:21.299Z</time>
      </trkpt>
      <trkpt lat="46.97089" lon="8.78781">
        <ele>650</ele>
        <time>2021-08-06T08:26:22.299Z</time>
      </trkpt>
      <trkpt lat="46.97089" lon="8.78781">
        <ele>650</ele>
        <time>2021-08-06T08:26:23.298Z</time>
      </trkpt>
      <trkpt lat="46.97088" lon="8.7878">
        <ele>649</ele>
        <time>2021-08-06T08:26:24.298Z</time>
      </trkpt>
      <trkpt lat="46.97087" lon="8.7878">
        <ele>649</ele>
        <time>2021-08-06T08:26:25.298Z</time>
      </trkpt>
      <trkpt lat="46.97087" lon="8.7878">
        <ele>649</ele>
        <time>2021-08-06T08:26:26.298Z</time>
      </trkpt>
      <trkpt lat="46.97086" lon="8.7878">
        <ele>649</ele>
        <time>2021-08-06T08:26:27.298Z</time>
      </trkpt>
      <trkpt lat="46.97085" lon="8.7878">
        <ele>649</ele>
        <time>2021-08-06T08:26:28.298Z</time>
      </trkpt>
      <trkpt lat="46.97085" lon="8.7878">
        <ele>649</ele>
        <time>2021-08-06T08:26:29.299Z</time>
      </trkpt>
      <trkpt lat="46.97085" lon="8.78781">
        <ele>649</ele>
        <time>2021-08-06T08:26:30.298Z</time>
      </trkpt>
      <trkpt lat="46.97086" lon="8.78782">
        <ele>648</ele>
        <time>2021-08-06T08:26:31.298Z</time>
      </trkpt>
      <trkpt lat="46.97087" lon="8.78782">
        <ele>648</ele>
        <time>2021-08-06T08:26:32.298Z</time>
      </trkpt>
      <trkpt lat="46.97087" lon="8.78783">
        <ele>648</ele>
        <time>2021-08-06T08:26:33.298Z</time>
      </trkpt>
      <trkpt lat="46.97088" lon="8.78783">
        <ele>648</ele>
        <time>2021-08-06T08:26:34.299Z</time>
      </trkpt>
      <trkpt lat="46.97089" lon="8.78783">
        <ele>647</ele>
        <time>2021-08-06T08:26:35.298Z</time>
      </trkpt>
      <trkpt lat="46.9709" lon="8.78783">
        <ele>647</ele>
        <time>2021-08-06T08:26:36.298Z</time>
      </trkpt>
      <trkpt lat="46.97091" lon="8.78783">
        <ele>646</ele>
        <time>2021-08-06T08:26:37.298Z</time>
      </trkpt>
      <trkpt lat="46.97093" lon="8.78783">
        <ele>646</ele>
        <time>2021-08-06T08:26:38.299Z</time>
      </trkpt>
      <trkpt lat="46.97094" lon="8.78782">
        <ele>646</ele>
        <time>2021-08-06T08:26:39.298Z</time>
      </trkpt>
      <trkpt lat="46.97095" lon="8.78781">
        <ele>645</ele>
        <time>2021-08-06T08:26:40.298Z</time>
      </trkpt>
      <trkpt lat="46.97096" lon="8.78781">
        <ele>645</ele>
        <time>2021-08-06T08:26:41.298Z</time>
      </trkpt>
      <trkpt lat="46.97097" lon="8.7878">
        <ele>644</ele>
        <time>2021-08-06T08:26:42.299Z</time>
      </trkpt>
      <trkpt lat="46.97097" lon="8.7878">
        <ele>644</ele>
        <time>2021-08-06T08:26:43.298Z</time>
      </trkpt>
      <trkpt lat="46.97097" lon="8.78778">
        <ele>644</ele>
        <time>2021-08-06T08:26:44.298Z</time>
      </trkpt>
      <trkpt lat="46.97097" lon="8.78776">
        <ele>643</ele>
        <time>2021-08-06T08:26:45.300Z</time>
      </trkpt>
      <trkpt lat="46.97097" lon="8.78776">
        <ele>643</ele>
        <time>2021-08-06T08:26:46.300Z</time>
      </trkpt>
      <trkpt lat="46.97098" lon="8.78776">
        <ele>643</ele>
        <time>2021-08-06T08:26:47.299Z</time>
      </trkpt>
      <trkpt lat="46.97098" lon="8.78776">
        <ele>643</ele>
        <time>2021-08-06T08:26:48.299Z</time>
      </trkpt>
      <trkpt lat="46.97098" lon="8.78777">
        <ele>644</ele>
        <time>2021-08-06T08:26:49.301Z</time>
      </trkpt>
      <trkpt lat="46.97099" lon="8.78776">
        <ele>644</ele>
        <time>2021-08-06T08:26:50.300Z</time>
      </trkpt>
      <trkpt lat="46.971" lon="8.78776">
        <ele>644</ele>
        <time>2021-08-06T08:26:51.301Z</time>
      </trkpt>
      <trkpt lat="46.971" lon="8.78775">
        <ele>644</ele>
        <time>2021-08-06T08:26:52.301Z</time>
      </trkpt>
      <trkpt lat="46.97102" lon="8.78775">
        <ele>644</ele>
        <time>2021-08-06T08:26:53.301Z</time>
      </trkpt>
      <trkpt lat="46.97103" lon="8.78775">
        <ele>644</ele>
        <time>2021-08-06T08:26:54.301Z</time>
      </trkpt>
      <trkpt lat="46.97104" lon="8.78774">
        <ele>645</ele>
        <time>2021-08-06T08:26:55.300Z</time>
      </trkpt>
      <trkpt lat="46.97105" lon="8.78773">
        <ele>645</ele>
        <time>2021-08-06T08:26:56.301Z</time>
      </trkpt>
      <trkpt lat="46.97105" lon="8.78772">
        <ele>645</ele>
        <time>2021-08-06T08:26:57.300Z</time>
      </trkpt>
      <trkpt lat="46.97104" lon="8.78771">
        <ele>645</ele>
        <time>2021-08-06T08:26:58.301Z</time>
      </trkpt>
      <trkpt lat="46.97106" lon="8.7877">
        <ele>649</ele>
        <time>2021-08-06T08:26:59.301Z</time>
      </trkpt>
      <trkpt lat="46.97107" lon="8.7877">
        <ele>649</ele>
        <time>2021-08-06T08:27:00.301Z</time>
      </trkpt>
      <trkpt lat="46.97108" lon="8.78769">
        <ele>649</ele>
        <time>2021-08-06T08:27:01.302Z</time>
      </trkpt>
      <trkpt lat="46.97109" lon="8.78768">
        <ele>650</ele>
        <time>2021-08-06T08:27:02.301Z</time>
      </trkpt>
      <trkpt lat="46.9711" lon="8.78766">
        <ele>650</ele>
        <time>2021-08-06T08:27:03.301Z</time>
      </trkpt>
      <trkpt lat="46.9711" lon="8.78765">
        <ele>650</ele>
        <time>2021-08-06T08:27:04.302Z</time>
      </trkpt>
      <trkpt lat="46.97111" lon="8.78764">
        <ele>650</ele>
        <time>2021-08-06T08:27:05.302Z</time>
      </trkpt>
      <trkpt lat="46.97112" lon="8.78762">
        <ele>650</ele>
        <time>2021-08-06T08:27:06.302Z</time>
      </trkpt>
      <trkpt lat="46.97112" lon="8.78761">
        <ele>650</ele>
        <time>2021-08-06T08:27:07.301Z</time>
      </trkpt>
      <trkpt lat="46.97113" lon="8.78759">
        <ele>650</ele>
        <time>2021-08-06T08:27:08.302Z</time>
      </trkpt>
      <trkpt lat="46.97113" lon="8.78758">
        <ele>650</ele>
        <time>2021-08-06T08:27:09.301Z</time>
      </trkpt>
      <trkpt lat="46.97114" lon="8.78756">
        <ele>649</ele>
        <time>2021-08-06T08:27:10.302Z</time>
      </trkpt>
      <trkpt lat="46.97114" lon="8.78755">
        <ele>649</ele>
        <time>2021-08-06T08:27:11.301Z</time>
      </trkpt>
      <trkpt lat="46.97115" lon="8.78754">
        <ele>648</ele>
        <time>2021-08-06T08:27:12.301Z</time>
      </trkpt>
      <trkpt lat="46.97115" lon="8.78752">
        <ele>648</ele>
        <time>2021-08-06T08:27:13.301Z</time>
      </trkpt>
      <trkpt lat="46.97115" lon="8.78751">
        <ele>648</ele>
        <time>2021-08-06T08:27:14.301Z</time>
      </trkpt>
      <trkpt lat="46.97116" lon="8.7875">
        <ele>647</ele>
        <time>2021-08-06T08:27:15.302Z</time>
      </trkpt>
      <trkpt lat="46.97116" lon="8.78748">
        <ele>647</ele>
        <time>2021-08-06T08:27:16.301Z</time>
      </trkpt>
      <trkpt lat="46.97116" lon="8.78747">
        <ele>647</ele>
        <time>2021-08-06T08:27:17.301Z</time>
      </trkpt>
      <trkpt lat="46.97117" lon="8.78745">
        <ele>646</ele>
        <time>2021-08-06T08:27:18.302Z</time>
      </trkpt>
      <trkpt lat="46.97117" lon="8.78744">
        <ele>646</ele>
        <time>2021-08-06T08:27:19.302Z</time>
      </trkpt>
      <trkpt lat="46.97118" lon="8.78743">
        <ele>646</ele>
        <time>2021-08-06T08:27:20.302Z</time>
      </trkpt>
      <trkpt lat="46.97119" lon="8.78741">
        <ele>646</ele>
        <time>2021-08-06T08:27:21.302Z</time>
      </trkpt>
      <trkpt lat="46.9712" lon="8.7874">
        <ele>646</ele>
        <time>2021-08-06T08:27:22.301Z</time>
      </trkpt>
      <trkpt lat="46.97121" lon="8.78738">
        <ele>647</ele>
        <time>2021-08-06T08:27:23.302Z</time>
      </trkpt>
      <trkpt lat="46.97121" lon="8.78736">
        <ele>647</ele>
        <time>2021-08-06T08:27:24.302Z</time>
      </trkpt>
      <trkpt lat="46.97122" lon="8.78735">
        <ele>648</ele>
        <time>2021-08-06T08:27:25.301Z</time>
      </trkpt>
      <trkpt lat="46.97123" lon="8.78733">
        <ele>648</ele>
        <time>2021-08-06T08:27:26.301Z</time>
      </trkpt>
      <trkpt lat="46.97123" lon="8.78732">
        <ele>647</ele>
        <time>2021-08-06T08:27:27.301Z</time>
      </trkpt>
      <trkpt lat="46.97123" lon="8.7873">
        <ele>647</ele>
        <time>2021-08-06T08:27:28.301Z</time>
      </trkpt>
      <trkpt lat="46.97124" lon="8.78729">
        <ele>647</ele>
        <time>2021-08-06T08:27:29.302Z</time>
      </trkpt>
      <trkpt lat="46.97124" lon="8.78728">
        <ele>647</ele>
        <time>2021-08-06T08:27:30.301Z</time>
      </trkpt>
      <trkpt lat="46.97124" lon="8.78726">
        <ele>647</ele>
        <time>2021-08-06T08:27:31.302Z</time>
      </trkpt>
      <trkpt lat="46.97124" lon="8.78725">
        <ele>646</ele>
        <time>2021-08-06T08:27:32.302Z</time>
      </trkpt>
      <trkpt lat="46.97124" lon="8.78723">
        <ele>646</ele>
        <time>2021-08-06T08:27:33.301Z</time>
      </trkpt>
      <trkpt lat="46.97124" lon="8.78722">
        <ele>646</ele>
        <time>2021-08-06T08:27:34.302Z</time>
      </trkpt>
      <trkpt lat="46.97124" lon="8.7872">
        <ele>646</ele>
        <time>2021-08-06T08:27:35.302Z</time>
      </trkpt>
      <trkpt lat="46.97124" lon="8.78719">
        <ele>646</ele>
        <time>2021-08-06T08:27:36.302Z</time>
      </trkpt>
      <trkpt lat="46.97124" lon="8.78718">
        <ele>646</ele>
        <time>2021-08-06T08:27:37.301Z</time>
      </trkpt>
      <trkpt lat="46.97124" lon="8.78716">
        <ele>646</ele>
        <time>2021-08-06T08:27:38.302Z</time>
      </trkpt>
      <trkpt lat="46.97124" lon="8.78714">
        <ele>647</ele>
        <time>2021-08-06T08:27:39.302Z</time>
      </trkpt>
      <trkpt lat="46.97124" lon="8.78713">
        <ele>647</ele>
        <time>2021-08-06T08:27:40.301Z</time>
      </trkpt>
      <trkpt lat="46.97124" lon="8.78711">
        <ele>647</ele>
        <time>2021-08-06T08:27:41.302Z</time>
      </trkpt>
      <trkpt lat="46.97125" lon="8.7871">
        <ele>647</ele>
        <time>2021-08-06T08:27:42.301Z</time>
      </trkpt>
      <trkpt lat="46.97125" lon="8.78709">
        <ele>647</ele>
        <time>2021-08-06T08:27:43.302Z</time>
      </trkpt>
      <trkpt lat="46.97126" lon="8.78707">
        <ele>647</ele>
        <time>2021-08-06T08:27:44.301Z</time>
      </trkpt>
      <trkpt lat="46.97127" lon="8.78706">
        <ele>647</ele>
        <time>2021-08-06T08:27:45.302Z</time>
      </trkpt>
      <trkpt lat="46.97127" lon="8.78704">
        <ele>646</ele>
        <time>2021-08-06T08:27:46.302Z</time>
      </trkpt>
      <trkpt lat="46.97127" lon="8.78703">
        <ele>646</ele>
        <time>2021-08-06T08:27:47.301Z</time>
      </trkpt>
      <trkpt lat="46.97127" lon="8.78701">
        <ele>646</ele>
        <time>2021-08-06T08:27:48.301Z</time>
      </trkpt>
      <trkpt lat="46.97127" lon="8.787">
        <ele>646</ele>
        <time>2021-08-06T08:27:49.302Z</time>
      </trkpt>
      <trkpt lat="46.97127" lon="8.78698">
        <ele>646</ele>
        <time>2021-08-06T08:27:50.302Z</time>
      </trkpt>
      <trkpt lat="46.97128" lon="8.78696">
        <ele>646</ele>
        <time>2021-08-06T08:27:51.302Z</time>
      </trkpt>
      <trkpt lat="46.97128" lon="8.78694">
        <ele>646</ele>
        <time>2021-08-06T08:27:52.302Z</time>
      </trkpt>
      <trkpt lat="46.97129" lon="8.78693">
        <ele>646</ele>
        <time>2021-08-06T08:27:53.302Z</time>
      </trkpt>
      <trkpt lat="46.9713" lon="8.78691">
        <ele>646</ele>
        <time>2021-08-06T08:27:54.301Z</time>
      </trkpt>
      <trkpt lat="46.97131" lon="8.78689">
        <ele>646</ele>
        <time>2021-08-06T08:27:55.301Z</time>
      </trkpt>
      <trkpt lat="46.97131" lon="8.78688">
        <ele>646</ele>
        <time>2021-08-06T08:27:56.302Z</time>
      </trkpt>
      <trkpt lat="46.97131" lon="8.78686">
        <ele>646</ele>
        <time>2021-08-06T08:27:57.302Z</time>
      </trkpt>
      <trkpt lat="46.97131" lon="8.78685">
        <ele>646</ele>
        <time>2021-08-06T08:27:58.302Z</time>
      </trkpt>
      <trkpt lat="46.97131" lon="8.78683">
        <ele>645</ele>
        <time>2021-08-06T08:27:59.302Z</time>
      </trkpt>
      <trkpt lat="46.97131" lon="8.78681">
        <ele>645</ele>
        <time>2021-08-06T08:28:00.302Z</time>
      </trkpt>
      <trkpt lat="46.97132" lon="8.78679">
        <ele>645</ele>
        <time>2021-08-06T08:28:01.302Z</time>
      </trkpt>
      <trkpt lat="46.97133" lon="8.78677">
        <ele>645</ele>
        <time>2021-08-06T08:28:02.302Z</time>
      </trkpt>
      <trkpt lat="46.97134" lon="8.78676">
        <ele>646</ele>
        <time>2021-08-06T08:28:03.301Z</time>
      </trkpt>
      <trkpt lat="46.97134" lon="8.78674">
        <ele>646</ele>
        <time>2021-08-06T08:28:04.302Z</time>
      </trkpt>
      <trkpt lat="46.97135" lon="8.78673">
        <ele>646</ele>
        <time>2021-08-06T08:28:05.302Z</time>
      </trkpt>
      <trkpt lat="46.97135" lon="8.78671">
        <ele>647</ele>
        <time>2021-08-06T08:28:06.302Z</time>
      </trkpt>
      <trkpt lat="46.97136" lon="8.7867">
        <ele>647</ele>
        <time>2021-08-06T08:28:07.302Z</time>
      </trkpt>
      <trkpt lat="46.97136" lon="8.78668">
        <ele>648</ele>
        <time>2021-08-06T08:28:08.301Z</time>
      </trkpt>
      <trkpt lat="46.97137" lon="8.78666">
        <ele>648</ele>
        <time>2021-08-06T08:28:09.302Z</time>
      </trkpt>
      <trkpt lat="46.97138" lon="8.78665">
        <ele>648</ele>
        <time>2021-08-06T08:28:10.302Z</time>
      </trkpt>
      <trkpt lat="46.97138" lon="8.78663">
        <ele>647</ele>
        <time>2021-08-06T08:28:11.302Z</time>
      </trkpt>
      <trkpt lat="46.97138" lon="8.78662">
        <ele>647</ele>
        <time>2021-08-06T08:28:12.302Z</time>
      </trkpt>
      <trkpt lat="46.97138" lon="8.7866">
        <ele>647</ele>
        <time>2021-08-06T08:28:13.302Z</time>
      </trkpt>
      <trkpt lat="46.97138" lon="8.78658">
        <ele>647</ele>
        <time>2021-08-06T08:28:14.301Z</time>
      </trkpt>
      <trkpt lat="46.97138" lon="8.78656">
        <ele>647</ele>
        <time>2021-08-06T08:28:15.302Z</time>
      </trkpt>
      <trkpt lat="46.97139" lon="8.78654">
        <ele>647</ele>
        <time>2021-08-06T08:28:16.301Z</time>
      </trkpt>
      <trkpt lat="46.97139" lon="8.78653">
        <ele>647</ele>
        <time>2021-08-06T08:28:17.302Z</time>
      </trkpt>
      <trkpt lat="46.9714" lon="8.78651">
        <ele>646</ele>
        <time>2021-08-06T08:28:18.302Z</time>
      </trkpt>
      <trkpt lat="46.97141" lon="8.7865">
        <ele>646</ele>
        <time>2021-08-06T08:28:19.301Z</time>
      </trkpt>
      <trkpt lat="46.97141" lon="8.78648">
        <ele>646</ele>
        <time>2021-08-06T08:28:20.302Z</time>
      </trkpt>
      <trkpt lat="46.97141" lon="8.78647">
        <ele>646</ele>
        <time>2021-08-06T08:28:21.301Z</time>
      </trkpt>
      <trkpt lat="46.97141" lon="8.78646">
        <ele>645</ele>
        <time>2021-08-06T08:28:22.302Z</time>
      </trkpt>
      <trkpt lat="46.97141" lon="8.78644">
        <ele>645</ele>
        <time>2021-08-06T08:28:23.302Z</time>
      </trkpt>
      <trkpt lat="46.97141" lon="8.78642">
        <ele>645</ele>
        <time>2021-08-06T08:28:24.301Z</time>
      </trkpt>
      <trkpt lat="46.97141" lon="8.78641">
        <ele>644</ele>
        <time>2021-08-06T08:28:25.302Z</time>
      </trkpt>
      <trkpt lat="46.97142" lon="8.7864">
        <ele>644</ele>
        <time>2021-08-06T08:28:26.302Z</time>
      </trkpt>
      <trkpt lat="46.97142" lon="8.78638">
        <ele>643</ele>
        <time>2021-08-06T08:28:27.302Z</time>
      </trkpt>
      <trkpt lat="46.97142" lon="8.78637">
        <ele>643</ele>
        <time>2021-08-06T08:28:28.302Z</time>
      </trkpt>
      <trkpt lat="46.97142" lon="8.78635">
        <ele>643</ele>
        <time>2021-08-06T08:28:29.301Z</time>
      </trkpt>
      <trkpt lat="46.97142" lon="8.78634">
        <ele>643</ele>
        <time>2021-08-06T08:28:30.301Z</time>
      </trkpt>
      <trkpt lat="46.97143" lon="8.78633">
        <ele>643</ele>
        <time>2021-08-06T08:28:31.302Z</time>
      </trkpt>
      <trkpt lat="46.97143" lon="8.78632">
        <ele>643</ele>
        <time>2021-08-06T08:28:32.301Z</time>
      </trkpt>
      <trkpt lat="46.97144" lon="8.7863">
        <ele>643</ele>
        <time>2021-08-06T08:28:33.301Z</time>
      </trkpt>
      <trkpt lat="46.97145" lon="8.78629">
        <ele>643</ele>
        <time>2021-08-06T08:28:34.301Z</time>
      </trkpt>
      <trkpt lat="46.97145" lon="8.78627">
        <ele>643</ele>
        <time>2021-08-06T08:28:35.301Z</time>
      </trkpt>
      <trkpt lat="46.97145" lon="8.78626">
        <ele>643</ele>
        <time>2021-08-06T08:28:36.301Z</time>
      </trkpt>
      <trkpt lat="46.97145" lon="8.78625">
        <ele>643</ele>
        <time>2021-08-06T08:28:37.302Z</time>
      </trkpt>
      <trkpt lat="46.97145" lon="8.78624">
        <ele>643</ele>
        <time>2021-08-06T08:28:38.301Z</time>
      </trkpt>
      <trkpt lat="46.97145" lon="8.78622">
        <ele>644</ele>
        <time>2021-08-06T08:28:39.301Z</time>
      </trkpt>
      <trkpt lat="46.97145" lon="8.78621">
        <ele>644</ele>
        <time>2021-08-06T08:28:40.301Z</time>
      </trkpt>
      <trkpt lat="46.97146" lon="8.7862">
        <ele>645</ele>
        <time>2021-08-06T08:28:41.302Z</time>
      </trkpt>
      <trkpt lat="46.97146" lon="8.78618">
        <ele>645</ele>
        <time>2021-08-06T08:28:42.302Z</time>
      </trkpt>
      <trkpt lat="46.97147" lon="8.78617">
        <ele>646</ele>
        <time>2021-08-06T08:28:43.301Z</time>
      </trkpt>
      <trkpt lat="46.97148" lon="8.78615">
        <ele>646</ele>
        <time>2021-08-06T08:28:44.301Z</time>
      </trkpt>
      <trkpt lat="46.97148" lon="8.78614">
        <ele>646</ele>
        <time>2021-08-06T08:28:45.302Z</time>
      </trkpt>
      <trkpt lat="46.97149" lon="8.78612">
        <ele>647</ele>
        <time>2021-08-06T08:28:46.302Z</time>
      </trkpt>
      <trkpt lat="46.97149" lon="8.78611">
        <ele>647</ele>
        <time>2021-08-06T08:28:47.301Z</time>
      </trkpt>
      <trkpt lat="46.9715" lon="8.78609">
        <ele>647</ele>
        <time>2021-08-06T08:28:48.301Z</time>
      </trkpt>
      <trkpt lat="46.9715" lon="8.78607">
        <ele>648</ele>
        <time>2021-08-06T08:28:49.302Z</time>
      </trkpt>
      <trkpt lat="46.9715" lon="8.78605">
        <ele>648</ele>
        <time>2021-08-06T08:28:50.301Z</time>
      </trkpt>
      <trkpt lat="46.97151" lon="8.78603">
        <ele>648</ele>
        <time>2021-08-06T08:28:51.302Z</time>
      </trkpt>
      <trkpt lat="46.97152" lon="8.78601">
        <ele>649</ele>
        <time>2021-08-06T08:28:52.302Z</time>
      </trkpt>
      <trkpt lat="46.97153" lon="8.786">
        <ele>649</ele>
        <time>2021-08-06T08:28:53.302Z</time>
      </trkpt>
      <trkpt lat="46.97153" lon="8.78597">
        <ele>650</ele>
        <time>2021-08-06T08:28:54.301Z</time>
      </trkpt>
      <trkpt lat="46.97153" lon="8.78595">
        <ele>650</ele>
        <time>2021-08-06T08:28:55.301Z</time>
      </trkpt>
      <trkpt lat="46.97153" lon="8.78593">
        <ele>651</ele>
        <time>2021-08-06T08:28:56.302Z</time>
      </trkpt>
      <trkpt lat="46.97154" lon="8.78591">
        <ele>651</ele>
        <time>2021-08-06T08:28:57.302Z</time>
      </trkpt>
      <trkpt lat="46.97155" lon="8.7859">
        <ele>651</ele>
        <time>2021-08-06T08:28:58.301Z</time>
      </trkpt>
      <trkpt lat="46.97155" lon="8.78589">
        <ele>651</ele>
        <time>2021-08-06T08:28:59.301Z</time>
      </trkpt>
      <trkpt lat="46.97155" lon="8.78588">
        <ele>652</ele>
        <time>2021-08-06T08:29:00.302Z</time>
      </trkpt>
      <trkpt lat="46.97156" lon="8.78586">
        <ele>652</ele>
        <time>2021-08-06T08:29:01.302Z</time>
      </trkpt>
      <trkpt lat="46.97156" lon="8.78585">
        <ele>652</ele>
        <time>2021-08-06T08:29:02.302Z</time>
      </trkpt>
      <trkpt lat="46.97157" lon="8.78584">
        <ele>652</ele>
        <time>2021-08-06T08:29:03.301Z</time>
      </trkpt>
      <trkpt lat="46.97158" lon="8.78582">
        <ele>653</ele>
        <time>2021-08-06T08:29:04.302Z</time>
      </trkpt>
      <trkpt lat="46.97158" lon="8.78581">
        <ele>653</ele>
        <time>2021-08-06T08:29:05.301Z</time>
      </trkpt>
      <trkpt lat="46.97159" lon="8.78579">
        <ele>653</ele>
        <time>2021-08-06T08:29:06.302Z</time>
      </trkpt>
      <trkpt lat="46.97159" lon="8.78578">
        <ele>653</ele>
        <time>2021-08-06T08:29:07.302Z</time>
      </trkpt>
      <trkpt lat="46.97159" lon="8.78576">
        <ele>653</ele>
        <time>2021-08-06T08:29:08.302Z</time>
      </trkpt>
      <trkpt lat="46.97159" lon="8.78575">
        <ele>653</ele>
        <time>2021-08-06T08:29:09.301Z</time>
      </trkpt>
      <trkpt lat="46.97159" lon="8.78573">
        <ele>653</ele>
        <time>2021-08-06T08:29:10.301Z</time>
      </trkpt>
      <trkpt lat="46.97159" lon="8.78572">
        <ele>652</ele>
        <time>2021-08-06T08:29:11.301Z</time>
      </trkpt>
      <trkpt lat="46.97159" lon="8.7857">
        <ele>652</ele>
        <time>2021-08-06T08:29:12.302Z</time>
      </trkpt>
      <trkpt lat="46.97159" lon="8.78569">
        <ele>651</ele>
        <time>2021-08-06T08:29:13.302Z</time>
      </trkpt>
      <trkpt lat="46.97159" lon="8.78568">
        <ele>651</ele>
        <time>2021-08-06T08:29:14.302Z</time>
      </trkpt>
      <trkpt lat="46.9716" lon="8.78566">
        <ele>651</ele>
        <time>2021-08-06T08:29:15.301Z</time>
      </trkpt>
      <trkpt lat="46.97161" lon="8.78565">
        <ele>651</ele>
        <time>2021-08-06T08:29:16.301Z</time>
      </trkpt>
      <trkpt lat="46.97161" lon="8.78563">
        <ele>652</ele>
        <time>2021-08-06T08:29:17.302Z</time>
      </trkpt>
      <trkpt lat="46.97162" lon="8.78562">
        <ele>652</ele>
        <time>2021-08-06T08:29:18.301Z</time>
      </trkpt>
      <trkpt lat="46.97162" lon="8.78561">
        <ele>652</ele>
        <time>2021-08-06T08:29:19.302Z</time>
      </trkpt>
      <trkpt lat="46.97162" lon="8.7856">
        <ele>652</ele>
        <time>2021-08-06T08:29:20.301Z</time>
      </trkpt>
      <trkpt lat="46.97163" lon="8.78559">
        <ele>652</ele>
        <time>2021-08-06T08:29:21.301Z</time>
      </trkpt>
      <trkpt lat="46.97163" lon="8.78557">
        <ele>652</ele>
        <time>2021-08-06T08:29:22.302Z</time>
      </trkpt>
      <trkpt lat="46.97163" lon="8.78556">
        <ele>653</ele>
        <time>2021-08-06T08:29:23.301Z</time>
      </trkpt>
      <trkpt lat="46.97163" lon="8.78554">
        <ele>653</ele>
        <time>2021-08-06T08:29:24.302Z</time>
      </trkpt>
      <trkpt lat="46.97162" lon="8.78552">
        <ele>653</ele>
        <time>2021-08-06T08:29:25.301Z</time>
      </trkpt>
      <trkpt lat="46.97162" lon="8.78551">
        <ele>653</ele>
        <time>2021-08-06T08:29:26.302Z</time>
      </trkpt>
      <trkpt lat="46.97162" lon="8.78549">
        <ele>652</ele>
        <time>2021-08-06T08:29:27.301Z</time>
      </trkpt>
      <trkpt lat="46.97162" lon="8.78548">
        <ele>652</ele>
        <time>2021-08-06T08:29:28.302Z</time>
      </trkpt>
      <trkpt lat="46.97162" lon="8.78547">
        <ele>652</ele>
        <time>2021-08-06T08:29:29.301Z</time>
      </trkpt>
      <trkpt lat="46.97162" lon="8.78546">
        <ele>652</ele>
        <time>2021-08-06T08:29:30.302Z</time>
      </trkpt>
      <trkpt lat="46.97162" lon="8.78544">
        <ele>652</ele>
        <time>2021-08-06T08:29:31.301Z</time>
      </trkpt>
      <trkpt lat="46.97162" lon="8.78542">
        <ele>652</ele>
        <time>2021-08-06T08:29:32.301Z</time>
      </trkpt>
      <trkpt lat="46.97163" lon="8.7854">
        <ele>652</ele>
        <time>2021-08-06T08:29:33.302Z</time>
      </trkpt>
      <trkpt lat="46.97163" lon="8.78539">
        <ele>652</ele>
        <time>2021-08-06T08:29:34.301Z</time>
      </trkpt>
      <trkpt lat="46.97162" lon="8.78537">
        <ele>652</ele>
        <time>2021-08-06T08:29:35.302Z</time>
      </trkpt>
      <trkpt lat="46.97162" lon="8.78535">
        <ele>652</ele>
        <time>2021-08-06T08:29:36.302Z</time>
      </trkpt>
      <trkpt lat="46.97163" lon="8.78533">
        <ele>651</ele>
        <time>2021-08-06T08:29:37.301Z</time>
      </trkpt>
      <trkpt lat="46.97163" lon="8.78532">
        <ele>651</ele>
        <time>2021-08-06T08:29:38.301Z</time>
      </trkpt>
      <trkpt lat="46.97163" lon="8.78532">
        <ele>650</ele>
        <time>2021-08-06T08:29:39.301Z</time>
      </trkpt>
      <trkpt lat="46.97164" lon="8.78531">
        <ele>649</ele>
        <time>2021-08-06T08:29:40.301Z</time>
      </trkpt>
      <trkpt lat="46.97164" lon="8.7853">
        <ele>649</ele>
        <time>2021-08-06T08:29:41.301Z</time>
      </trkpt>
      <trkpt lat="46.97165" lon="8.78529">
        <ele>648</ele>
        <time>2021-08-06T08:29:42.301Z</time>
      </trkpt>
      <trkpt lat="46.97166" lon="8.78528">
        <ele>648</ele>
        <time>2021-08-06T08:29:43.301Z</time>
      </trkpt>
      <trkpt lat="46.97167" lon="8.78527">
        <ele>647</ele>
        <time>2021-08-06T08:29:44.301Z</time>
      </trkpt>
      <trkpt lat="46.97168" lon="8.78526">
        <ele>647</ele>
        <time>2021-08-06T08:29:45.301Z</time>
      </trkpt>
      <trkpt lat="46.97168" lon="8.78525">
        <ele>646</ele>
        <time>2021-08-06T08:29:46.302Z</time>
      </trkpt>
      <trkpt lat="46.97168" lon="8.78524">
        <ele>645</ele>
        <time>2021-08-06T08:29:47.301Z</time>
      </trkpt>
      <trkpt lat="46.97168" lon="8.78523">
        <ele>645</ele>
        <time>2021-08-06T08:29:48.302Z</time>
      </trkpt>
      <trkpt lat="46.97169" lon="8.78522">
        <ele>644</ele>
        <time>2021-08-06T08:29:49.301Z</time>
      </trkpt>
      <trkpt lat="46.97168" lon="8.78522">
        <ele>644</ele>
        <time>2021-08-06T08:29:50.302Z</time>
      </trkpt>
      <trkpt lat="46.97167" lon="8.78522">
        <ele>643</ele>
        <time>2021-08-06T08:29:51.301Z</time>
      </trkpt>
      <trkpt lat="46.97166" lon="8.78522">
        <ele>643</ele>
        <time>2021-08-06T08:29:52.302Z</time>
      </trkpt>
      <trkpt lat="46.97163" lon="8.78522">
        <ele>644</ele>
        <time>2021-08-06T08:29:53.302Z</time>
      </trkpt>
      <trkpt lat="46.97161" lon="8.78523">
        <ele>646</ele>
        <time>2021-08-06T08:29:54.302Z</time>
      </trkpt>
      <trkpt lat="46.97161" lon="8.78522">
        <ele>648</ele>
        <time>2021-08-06T08:29:55.303Z</time>
      </trkpt>
      <trkpt lat="46.97161" lon="8.78521">
        <ele>648</ele>
        <time>2021-08-06T08:29:56.303Z</time>
      </trkpt>
      <trkpt lat="46.97161" lon="8.7852">
        <ele>648</ele>
        <time>2021-08-06T08:29:57.302Z</time>
      </trkpt>
      <trkpt lat="46.97161" lon="8.78519">
        <ele>648</ele>
        <time>2021-08-06T08:29:58.303Z</time>
      </trkpt>
      <trkpt lat="46.97161" lon="8.78517">
        <ele>648</ele>
        <time>2021-08-06T08:29:59.303Z</time>
      </trkpt>
      <trkpt lat="46.97161" lon="8.78516">
        <ele>648</ele>
        <time>2021-08-06T08:30:00.302Z</time>
      </trkpt>
      <trkpt lat="46.97161" lon="8.78515">
        <ele>648</ele>
        <time>2021-08-06T08:30:01.302Z</time>
      </trkpt>
      <trkpt lat="46.9716" lon="8.78513">
        <ele>648</ele>
        <time>2021-08-06T08:30:02.302Z</time>
      </trkpt>
      <trkpt lat="46.9716" lon="8.78512">
        <ele>648</ele>
        <time>2021-08-06T08:30:03.303Z</time>
      </trkpt>
      <trkpt lat="46.97161" lon="8.7851">
        <ele>648</ele>
        <time>2021-08-06T08:30:04.302Z</time>
      </trkpt>
      <trkpt lat="46.97161" lon="8.78508">
        <ele>648</ele>
        <time>2021-08-06T08:30:05.303Z</time>
      </trkpt>
      <trkpt lat="46.97162" lon="8.78507">
        <ele>648</ele>
        <time>2021-08-06T08:30:06.303Z</time>
      </trkpt>
      <trkpt lat="46.97163" lon="8.78506">
        <ele>648</ele>
        <time>2021-08-06T08:30:07.303Z</time>
      </trkpt>
      <trkpt lat="46.97163" lon="8.78504">
        <ele>648</ele>
        <time>2021-08-06T08:30:08.303Z</time>
      </trkpt>
      <trkpt lat="46.97164" lon="8.78502">
        <ele>648</ele>
        <time>2021-08-06T08:30:09.303Z</time>
      </trkpt>
      <trkpt lat="46.97165" lon="8.78501">
        <ele>648</ele>
        <time>2021-08-06T08:30:10.302Z</time>
      </trkpt>
      <trkpt lat="46.97165" lon="8.78499">
        <ele>649</ele>
        <time>2021-08-06T08:30:11.302Z</time>
      </trkpt>
      <trkpt lat="46.97166" lon="8.78498">
        <ele>649</ele>
        <time>2021-08-06T08:30:12.302Z</time>
      </trkpt>
      <trkpt lat="46.97167" lon="8.78497">
        <ele>649</ele>
        <time>2021-08-06T08:30:13.302Z</time>
      </trkpt>
      <trkpt lat="46.97168" lon="8.78496">
        <ele>649</ele>
        <time>2021-08-06T08:30:14.303Z</time>
      </trkpt>
      <trkpt lat="46.97169" lon="8.78495">
        <ele>649</ele>
        <time>2021-08-06T08:30:15.302Z</time>
      </trkpt>
      <trkpt lat="46.9717" lon="8.78494">
        <ele>649</ele>
        <time>2021-08-06T08:30:16.303Z</time>
      </trkpt>
      <trkpt lat="46.97172" lon="8.78493">
        <ele>648</ele>
        <time>2021-08-06T08:30:17.303Z</time>
      </trkpt>
      <trkpt lat="46.97173" lon="8.78491">
        <ele>648</ele>
        <time>2021-08-06T08:30:18.302Z</time>
      </trkpt>
      <trkpt lat="46.97174" lon="8.7849">
        <ele>648</ele>
        <time>2021-08-06T08:30:19.303Z</time>
      </trkpt>
      <trkpt lat="46.97176" lon="8.78488">
        <ele>648</ele>
        <time>2021-08-06T08:30:20.302Z</time>
      </trkpt>
      <trkpt lat="46.97176" lon="8.78486">
        <ele>648</ele>
        <time>2021-08-06T08:30:21.302Z</time>
      </trkpt>
      <trkpt lat="46.97177" lon="8.78484">
        <ele>648</ele>
        <time>2021-08-06T08:30:22.303Z</time>
      </trkpt>
      <trkpt lat="46.97178" lon="8.78483">
        <ele>648</ele>
        <time>2021-08-06T08:30:23.302Z</time>
      </trkpt>
      <trkpt lat="46.97178" lon="8.78482">
        <ele>648</ele>
        <time>2021-08-06T08:30:24.302Z</time>
      </trkpt>
      <trkpt lat="46.97178" lon="8.7848">
        <ele>647</ele>
        <time>2021-08-06T08:30:25.303Z</time>
      </trkpt>
      <trkpt lat="46.97178" lon="8.78479">
        <ele>647</ele>
        <time>2021-08-06T08:30:26.303Z</time>
      </trkpt>
      <trkpt lat="46.97179" lon="8.78477">
        <ele>647</ele>
        <time>2021-08-06T08:30:27.303Z</time>
      </trkpt>
      <trkpt lat="46.97179" lon="8.78476">
        <ele>647</ele>
        <time>2021-08-06T08:30:28.302Z</time>
      </trkpt>
      <trkpt lat="46.9718" lon="8.78475">
        <ele>648</ele>
        <time>2021-08-06T08:30:29.302Z</time>
      </trkpt>
      <trkpt lat="46.9718" lon="8.78474">
        <ele>648</ele>
        <time>2021-08-06T08:30:30.303Z</time>
      </trkpt>
      <trkpt lat="46.9718" lon="8.78472">
        <ele>648</ele>
        <time>2021-08-06T08:30:31.303Z</time>
      </trkpt>
      <trkpt lat="46.9718" lon="8.78471">
        <ele>648</ele>
        <time>2021-08-06T08:30:32.303Z</time>
      </trkpt>
      <trkpt lat="46.97181" lon="8.7847">
        <ele>648</ele>
        <time>2021-08-06T08:30:33.303Z</time>
      </trkpt>
      <trkpt lat="46.97181" lon="8.78469">
        <ele>648</ele>
        <time>2021-08-06T08:30:34.302Z</time>
      </trkpt>
      <trkpt lat="46.97182" lon="8.78466">
        <ele>647</ele>
        <time>2021-08-06T08:30:35.302Z</time>
      </trkpt>
      <trkpt lat="46.97182" lon="8.78464">
        <ele>647</ele>
        <time>2021-08-06T08:30:36.302Z</time>
      </trkpt>
      <trkpt lat="46.97183" lon="8.78462">
        <ele>647</ele>
        <time>2021-08-06T08:30:37.302Z</time>
      </trkpt>
      <trkpt lat="46.97183" lon="8.78461">
        <ele>647</ele>
        <time>2021-08-06T08:30:38.302Z</time>
      </trkpt>
      <trkpt lat="46.97184" lon="8.78459">
        <ele>646</ele>
        <time>2021-08-06T08:30:39.302Z</time>
      </trkpt>
      <trkpt lat="46.97184" lon="8.78458">
        <ele>646</ele>
        <time>2021-08-06T08:30:40.303Z</time>
      </trkpt>
      <trkpt lat="46.97185" lon="8.78457">
        <ele>645</ele>
        <time>2021-08-06T08:30:41.303Z</time>
      </trkpt>
      <trkpt lat="46.97185" lon="8.78456">
        <ele>645</ele>
        <time>2021-08-06T08:30:42.302Z</time>
      </trkpt>
      <trkpt lat="46.97185" lon="8.78455">
        <ele>645</ele>
        <time>2021-08-06T08:30:43.302Z</time>
      </trkpt>
      <trkpt lat="46.97186" lon="8.78454">
        <ele>645</ele>
        <time>2021-08-06T08:30:44.302Z</time>
      </trkpt>
      <trkpt lat="46.97186" lon="8.78452">
        <ele>644</ele>
        <time>2021-08-06T08:30:45.303Z</time>
      </trkpt>
      <trkpt lat="46.97186" lon="8.7845">
        <ele>644</ele>
        <time>2021-08-06T08:30:46.303Z</time>
      </trkpt>
      <trkpt lat="46.97187" lon="8.78449">
        <ele>644</ele>
        <time>2021-08-06T08:30:47.303Z</time>
      </trkpt>
      <trkpt lat="46.97188" lon="8.78447">
        <ele>644</ele>
        <time>2021-08-06T08:30:48.303Z</time>
      </trkpt>
      <trkpt lat="46.97189" lon="8.78445">
        <ele>644</ele>
        <time>2021-08-06T08:30:49.302Z</time>
      </trkpt>
      <trkpt lat="46.9719" lon="8.78444">
        <ele>644</ele>
        <time>2021-08-06T08:30:50.303Z</time>
      </trkpt>
      <trkpt lat="46.9719" lon="8.78442">
        <ele>644</ele>
        <time>2021-08-06T08:30:51.302Z</time>
      </trkpt>
      <trkpt lat="46.97191" lon="8.78441">
        <ele>644</ele>
        <time>2021-08-06T08:30:52.303Z</time>
      </trkpt>
      <trkpt lat="46.97191" lon="8.78439">
        <ele>644</ele>
        <time>2021-08-06T08:30:53.303Z</time>
      </trkpt>
      <trkpt lat="46.97191" lon="8.78438">
        <ele>644</ele>
        <time>2021-08-06T08:30:54.303Z</time>
      </trkpt>
      <trkpt lat="46.97192" lon="8.78436">
        <ele>644</ele>
        <time>2021-08-06T08:30:55.303Z</time>
      </trkpt>
      <trkpt lat="46.97192" lon="8.78435">
        <ele>644</ele>
        <time>2021-08-06T08:30:56.303Z</time>
      </trkpt>
      <trkpt lat="46.97192" lon="8.78433">
        <ele>644</ele>
        <time>2021-08-06T08:30:57.302Z</time>
      </trkpt>
      <trkpt lat="46.97192" lon="8.78431">
        <ele>643</ele>
        <time>2021-08-06T08:30:58.302Z</time>
      </trkpt>
      <trkpt lat="46.97193" lon="8.7843">
        <ele>643</ele>
        <time>2021-08-06T08:30:59.302Z</time>
      </trkpt>
      <trkpt lat="46.97193" lon="8.78428">
        <ele>643</ele>
        <time>2021-08-06T08:31:00.302Z</time>
      </trkpt>
      <trkpt lat="46.97193" lon="8.78426">
        <ele>643</ele>
        <time>2021-08-06T08:31:01.302Z</time>
      </trkpt>
      <trkpt lat="46.97195" lon="8.78424">
        <ele>644</ele>
        <time>2021-08-06T08:31:02.303Z</time>
      </trkpt>
      <trkpt lat="46.97195" lon="8.78422">
        <ele>645</ele>
        <time>2021-08-06T08:31:03.302Z</time>
      </trkpt>
      <trkpt lat="46.97196" lon="8.7842">
        <ele>646</ele>
        <time>2021-08-06T08:31:04.303Z</time>
      </trkpt>
      <trkpt lat="46.97196" lon="8.78419">
        <ele>646</ele>
        <time>2021-08-06T08:31:05.302Z</time>
      </trkpt>
      <trkpt lat="46.97197" lon="8.78417">
        <ele>647</ele>
        <time>2021-08-06T08:31:06.302Z</time>
      </trkpt>
      <trkpt lat="46.97197" lon="8.78415">
        <ele>647</ele>
        <time>2021-08-06T08:31:07.303Z</time>
      </trkpt>
      <trkpt lat="46.97197" lon="8.78414">
        <ele>647</ele>
        <time>2021-08-06T08:31:08.302Z</time>
      </trkpt>
      <trkpt lat="46.97198" lon="8.78412">
        <ele>647</ele>
        <time>2021-08-06T08:31:09.302Z</time>
      </trkpt>
      <trkpt lat="46.97198" lon="8.78411">
        <ele>647</ele>
        <time>2021-08-06T08:31:10.302Z</time>
      </trkpt>
      <trkpt lat="46.97199" lon="8.78409">
        <ele>646</ele>
        <time>2021-08-06T08:31:11.302Z</time>
      </trkpt>
      <trkpt lat="46.97199" lon="8.78408">
        <ele>646</ele>
        <time>2021-08-06T08:31:12.302Z</time>
      </trkpt>
      <trkpt lat="46.97199" lon="8.78406">
        <ele>647</ele>
        <time>2021-08-06T08:31:13.302Z</time>
      </trkpt>
      <trkpt lat="46.972" lon="8.78404">
        <ele>647</ele>
        <time>2021-08-06T08:31:14.302Z</time>
      </trkpt>
      <trkpt lat="46.972" lon="8.78402">
        <ele>647</ele>
        <time>2021-08-06T08:31:15.302Z</time>
      </trkpt>
      <trkpt lat="46.97201" lon="8.784">
        <ele>647</ele>
        <time>2021-08-06T08:31:16.302Z</time>
      </trkpt>
      <trkpt lat="46.97201" lon="8.78398">
        <ele>648</ele>
        <time>2021-08-06T08:31:17.302Z</time>
      </trkpt>
      <trkpt lat="46.97202" lon="8.78396">
        <ele>648</ele>
        <time>2021-08-06T08:31:18.302Z</time>
      </trkpt>
      <trkpt lat="46.97203" lon="8.78395">
        <ele>649</ele>
        <time>2021-08-06T08:31:19.302Z</time>
      </trkpt>
      <trkpt lat="46.97203" lon="8.78393">
        <ele>649</ele>
        <time>2021-08-06T08:31:20.302Z</time>
      </trkpt>
      <trkpt lat="46.97203" lon="8.78392">
        <ele>649</ele>
        <time>2021-08-06T08:31:21.302Z</time>
      </trkpt>
      <trkpt lat="46.97203" lon="8.7839">
        <ele>650</ele>
        <time>2021-08-06T08:31:22.302Z</time>
      </trkpt>
      <trkpt lat="46.97203" lon="8.78389">
        <ele>650</ele>
        <time>2021-08-06T08:31:23.303Z</time>
      </trkpt>
      <trkpt lat="46.97203" lon="8.78387">
        <ele>650</ele>
        <time>2021-08-06T08:31:24.302Z</time>
      </trkpt>
      <trkpt lat="46.97203" lon="8.78386">
        <ele>651</ele>
        <time>2021-08-06T08:31:25.303Z</time>
      </trkpt>
      <trkpt lat="46.97204" lon="8.78385">
        <ele>652</ele>
        <time>2021-08-06T08:31:26.303Z</time>
      </trkpt>
      <trkpt lat="46.97204" lon="8.78383">
        <ele>652</ele>
        <time>2021-08-06T08:31:27.303Z</time>
      </trkpt>
      <trkpt lat="46.97205" lon="8.78382">
        <ele>652</ele>
        <time>2021-08-06T08:31:28.303Z</time>
      </trkpt>
      <trkpt lat="46.97206" lon="8.7838">
        <ele>653</ele>
        <time>2021-08-06T08:31:29.303Z</time>
      </trkpt>
      <trkpt lat="46.97208" lon="8.78378">
        <ele>652</ele>
        <time>2021-08-06T08:31:30.303Z</time>
      </trkpt>
      <trkpt lat="46.97209" lon="8.78376">
        <ele>652</ele>
        <time>2021-08-06T08:31:31.303Z</time>
      </trkpt>
      <trkpt lat="46.97209" lon="8.78374">
        <ele>652</ele>
        <time>2021-08-06T08:31:32.303Z</time>
      </trkpt>
      <trkpt lat="46.97209" lon="8.78372">
        <ele>652</ele>
        <time>2021-08-06T08:31:33.302Z</time>
      </trkpt>
      <trkpt lat="46.97209" lon="8.78371">
        <ele>652</ele>
        <time>2021-08-06T08:31:34.302Z</time>
      </trkpt>
      <trkpt lat="46.97209" lon="8.78369">
        <ele>652</ele>
        <time>2021-08-06T08:31:35.303Z</time>
      </trkpt>
      <trkpt lat="46.97209" lon="8.78367">
        <ele>652</ele>
        <time>2021-08-06T08:31:36.303Z</time>
      </trkpt>
      <trkpt lat="46.97209" lon="8.78366">
        <ele>652</ele>
        <time>2021-08-06T08:31:37.303Z</time>
      </trkpt>
      <trkpt lat="46.9721" lon="8.78365">
        <ele>651</ele>
        <time>2021-08-06T08:31:38.303Z</time>
      </trkpt>
      <trkpt lat="46.9721" lon="8.78363">
        <ele>651</ele>
        <time>2021-08-06T08:31:39.303Z</time>
      </trkpt>
      <trkpt lat="46.9721" lon="8.78362">
        <ele>650</ele>
        <time>2021-08-06T08:31:40.302Z</time>
      </trkpt>
      <trkpt lat="46.97209" lon="8.7836">
        <ele>650</ele>
        <time>2021-08-06T08:31:41.302Z</time>
      </trkpt>
      <trkpt lat="46.9721" lon="8.78359">
        <ele>649</ele>
        <time>2021-08-06T08:31:42.302Z</time>
      </trkpt>
      <trkpt lat="46.9721" lon="8.78358">
        <ele>648</ele>
        <time>2021-08-06T08:31:43.302Z</time>
      </trkpt>
      <trkpt lat="46.9721" lon="8.78355">
        <ele>648</ele>
        <time>2021-08-06T08:31:44.303Z</time>
      </trkpt>
      <trkpt lat="46.9721" lon="8.78353">
        <ele>648</ele>
        <time>2021-08-06T08:31:45.302Z</time>
      </trkpt>
      <trkpt lat="46.97209" lon="8.78352">
        <ele>648</ele>
        <time>2021-08-06T08:31:46.303Z</time>
      </trkpt>
      <trkpt lat="46.9721" lon="8.78351">
        <ele>647</ele>
        <time>2021-08-06T08:31:47.303Z</time>
      </trkpt>
      <trkpt lat="46.9721" lon="8.7835">
        <ele>647</ele>
        <time>2021-08-06T08:31:48.303Z</time>
      </trkpt>
      <trkpt lat="46.97211" lon="8.78349">
        <ele>646</ele>
        <time>2021-08-06T08:31:49.303Z</time>
      </trkpt>
      <trkpt lat="46.97211" lon="8.78348">
        <ele>646</ele>
        <time>2021-08-06T08:31:50.302Z</time>
      </trkpt>
      <trkpt lat="46.97212" lon="8.78346">
        <ele>645</ele>
        <time>2021-08-06T08:31:51.302Z</time>
      </trkpt>
      <trkpt lat="46.97212" lon="8.78345">
        <ele>645</ele>
        <time>2021-08-06T08:31:52.303Z</time>
      </trkpt>
      <trkpt lat="46.97212" lon="8.78343">
        <ele>644</ele>
        <time>2021-08-06T08:31:53.303Z</time>
      </trkpt>
      <trkpt lat="46.97212" lon="8.78342">
        <ele>644</ele>
        <time>2021-08-06T08:31:54.302Z</time>
      </trkpt>
      <trkpt lat="46.97212" lon="8.7834">
        <ele>643</ele>
        <time>2021-08-06T08:31:55.303Z</time>
      </trkpt>
      <trkpt lat="46.97212" lon="8.78339">
        <ele>642</ele>
        <time>2021-08-06T08:31:56.303Z</time>
      </trkpt>
      <trkpt lat="46.97212" lon="8.78337">
        <ele>641</ele>
        <time>2021-08-06T08:31:57.303Z</time>
      </trkpt>
      <trkpt lat="46.97213" lon="8.78335">
        <ele>641</ele>
        <time>2021-08-06T08:31:58.302Z</time>
      </trkpt>
      <trkpt lat="46.97213" lon="8.78334">
        <ele>641</ele>
        <time>2021-08-06T08:31:59.302Z</time>
      </trkpt>
      <trkpt lat="46.97213" lon="8.78332">
        <ele>641</ele>
        <time>2021-08-06T08:32:00.302Z</time>
      </trkpt>
      <trkpt lat="46.97213" lon="8.7833">
        <ele>641</ele>
        <time>2021-08-06T08:32:01.302Z</time>
      </trkpt>
      <trkpt lat="46.97213" lon="8.78328">
        <ele>641</ele>
        <time>2021-08-06T08:32:02.303Z</time>
      </trkpt>
      <trkpt lat="46.97213" lon="8.78327">
        <ele>642</ele>
        <time>2021-08-06T08:32:03.302Z</time>
      </trkpt>
      <trkpt lat="46.97214" lon="8.78326">
        <ele>642</ele>
        <time>2021-08-06T08:32:04.303Z</time>
      </trkpt>
      <trkpt lat="46.97214" lon="8.78324">
        <ele>643</ele>
        <time>2021-08-06T08:32:05.303Z</time>
      </trkpt>
      <trkpt lat="46.97214" lon="8.78323">
        <ele>642</ele>
        <time>2021-08-06T08:32:06.302Z</time>
      </trkpt>
      <trkpt lat="46.97215" lon="8.78321">
        <ele>642</ele>
        <time>2021-08-06T08:32:07.303Z</time>
      </trkpt>
      <trkpt lat="46.97215" lon="8.78319">
        <ele>642</ele>
        <time>2021-08-06T08:32:08.303Z</time>
      </trkpt>
      <trkpt lat="46.97215" lon="8.78317">
        <ele>642</ele>
        <time>2021-08-06T08:32:09.302Z</time>
      </trkpt>
      <trkpt lat="46.97216" lon="8.78316">
        <ele>643</ele>
        <time>2021-08-06T08:32:10.302Z</time>
      </trkpt>
      <trkpt lat="46.97216" lon="8.78315">
        <ele>643</ele>
        <time>2021-08-06T08:32:11.302Z</time>
      </trkpt>
      <trkpt lat="46.97216" lon="8.78313">
        <ele>643</ele>
        <time>2021-08-06T08:32:12.303Z</time>
      </trkpt>
      <trkpt lat="46.97216" lon="8.78312">
        <ele>643</ele>
        <time>2021-08-06T08:32:13.303Z</time>
      </trkpt>
      <trkpt lat="46.97216" lon="8.7831">
        <ele>643</ele>
        <time>2021-08-06T08:32:14.303Z</time>
      </trkpt>
      <trkpt lat="46.97216" lon="8.78309">
        <ele>643</ele>
        <time>2021-08-06T08:32:15.302Z</time>
      </trkpt>
      <trkpt lat="46.97216" lon="8.78307">
        <ele>642</ele>
        <time>2021-08-06T08:32:16.302Z</time>
      </trkpt>
      <trkpt lat="46.97216" lon="8.78306">
        <ele>642</ele>
        <time>2021-08-06T08:32:17.303Z</time>
      </trkpt>
      <trkpt lat="46.97217" lon="8.78304">
        <ele>642</ele>
        <time>2021-08-06T08:32:18.303Z</time>
      </trkpt>
      <trkpt lat="46.97217" lon="8.78303">
        <ele>642</ele>
        <time>2021-08-06T08:32:19.302Z</time>
      </trkpt>
      <trkpt lat="46.97217" lon="8.78301">
        <ele>642</ele>
        <time>2021-08-06T08:32:20.303Z</time>
      </trkpt>
      <trkpt lat="46.97217" lon="8.78299">
        <ele>641</ele>
        <time>2021-08-06T08:32:21.303Z</time>
      </trkpt>
      <trkpt lat="46.97217" lon="8.78297">
        <ele>641</ele>
        <time>2021-08-06T08:32:22.303Z</time>
      </trkpt>
      <trkpt lat="46.97218" lon="8.78295">
        <ele>641</ele>
        <time>2021-08-06T08:32:23.303Z</time>
      </trkpt>
      <trkpt lat="46.97218" lon="8.78294">
        <ele>641</ele>
        <time>2021-08-06T08:32:24.303Z</time>
      </trkpt>
      <trkpt lat="46.97218" lon="8.78292">
        <ele>641</ele>
        <time>2021-08-06T08:32:25.302Z</time>
      </trkpt>
      <trkpt lat="46.97218" lon="8.78291">
        <ele>641</ele>
        <time>2021-08-06T08:32:26.302Z</time>
      </trkpt>
      <trkpt lat="46.97219" lon="8.78289">
        <ele>641</ele>
        <time>2021-08-06T08:32:27.303Z</time>
      </trkpt>
      <trkpt lat="46.97219" lon="8.78287">
        <ele>641</ele>
        <time>2021-08-06T08:32:28.302Z</time>
      </trkpt>
      <trkpt lat="46.97219" lon="8.78286">
        <ele>642</ele>
        <time>2021-08-06T08:32:29.302Z</time>
      </trkpt>
      <trkpt lat="46.9722" lon="8.78284">
        <ele>642</ele>
        <time>2021-08-06T08:32:30.302Z</time>
      </trkpt>
      <trkpt lat="46.97221" lon="8.78282">
        <ele>643</ele>
        <time>2021-08-06T08:32:31.302Z</time>
      </trkpt>
      <trkpt lat="46.97221" lon="8.78281">
        <ele>643</ele>
        <time>2021-08-06T08:32:32.303Z</time>
      </trkpt>
      <trkpt lat="46.97222" lon="8.78279">
        <ele>644</ele>
        <time>2021-08-06T08:32:33.302Z</time>
      </trkpt>
      <trkpt lat="46.97222" lon="8.78277">
        <ele>644</ele>
        <time>2021-08-06T08:32:34.302Z</time>
      </trkpt>
      <trkpt lat="46.97222" lon="8.78275">
        <ele>643</ele>
        <time>2021-08-06T08:32:35.302Z</time>
      </trkpt>
      <trkpt lat="46.97223" lon="8.78274">
        <ele>643</ele>
        <time>2021-08-06T08:32:36.303Z</time>
      </trkpt>
      <trkpt lat="46.97223" lon="8.78272">
        <ele>643</ele>
        <time>2021-08-06T08:32:37.303Z</time>
      </trkpt>
      <trkpt lat="46.97224" lon="8.78271">
        <ele>643</ele>
        <time>2021-08-06T08:32:38.303Z</time>
      </trkpt>
      <trkpt lat="46.97224" lon="8.78269">
        <ele>644</ele>
        <time>2021-08-06T08:32:39.303Z</time>
      </trkpt>
      <trkpt lat="46.97225" lon="8.78267">
        <ele>644</ele>
        <time>2021-08-06T08:32:40.302Z</time>
      </trkpt>
      <trkpt lat="46.97226" lon="8.78266">
        <ele>645</ele>
        <time>2021-08-06T08:32:41.302Z</time>
      </trkpt>
      <trkpt lat="46.97226" lon="8.78264">
        <ele>645</ele>
        <time>2021-08-06T08:32:42.302Z</time>
      </trkpt>
      <trkpt lat="46.97227" lon="8.78263">
        <ele>645</ele>
        <time>2021-08-06T08:32:43.302Z</time>
      </trkpt>
      <trkpt lat="46.97227" lon="8.7826">
        <ele>645</ele>
        <time>2021-08-06T08:32:44.302Z</time>
      </trkpt>
      <trkpt lat="46.97228" lon="8.78258">
        <ele>645</ele>
        <time>2021-08-06T08:32:45.302Z</time>
      </trkpt>
      <trkpt lat="46.97228" lon="8.78257">
        <ele>645</ele>
        <time>2021-08-06T08:32:46.303Z</time>
      </trkpt>
      <trkpt lat="46.97228" lon="8.78255">
        <ele>645</ele>
        <time>2021-08-06T08:32:47.302Z</time>
      </trkpt>
      <trkpt lat="46.97228" lon="8.78254">
        <ele>645</ele>
        <time>2021-08-06T08:32:48.303Z</time>
      </trkpt>
      <trkpt lat="46.97228" lon="8.78252">
        <ele>644</ele>
        <time>2021-08-06T08:32:49.302Z</time>
      </trkpt>
      <trkpt lat="46.97229" lon="8.7825">
        <ele>644</ele>
        <time>2021-08-06T08:32:50.302Z</time>
      </trkpt>
      <trkpt lat="46.97229" lon="8.78249">
        <ele>644</ele>
        <time>2021-08-06T08:32:51.302Z</time>
      </trkpt>
      <trkpt lat="46.97229" lon="8.78247">
        <ele>644</ele>
        <time>2021-08-06T08:32:52.303Z</time>
      </trkpt>
      <trkpt lat="46.9723" lon="8.78245">
        <ele>644</ele>
        <time>2021-08-06T08:32:53.302Z</time>
      </trkpt>
      <trkpt lat="46.9723" lon="8.78243">
        <ele>644</ele>
        <time>2021-08-06T08:32:54.302Z</time>
      </trkpt>
      <trkpt lat="46.97231" lon="8.78242">
        <ele>644</ele>
        <time>2021-08-06T08:32:55.302Z</time>
      </trkpt>
      <trkpt lat="46.97231" lon="8.78241">
        <ele>644</ele>
        <time>2021-08-06T08:32:56.303Z</time>
      </trkpt>
      <trkpt lat="46.97232" lon="8.78238">
        <ele>644</ele>
        <time>2021-08-06T08:32:57.303Z</time>
      </trkpt>
      <trkpt lat="46.97232" lon="8.78237">
        <ele>644</ele>
        <time>2021-08-06T08:32:58.302Z</time>
      </trkpt>
      <trkpt lat="46.97233" lon="8.78235">
        <ele>645</ele>
        <time>2021-08-06T08:32:59.302Z</time>
      </trkpt>
      <trkpt lat="46.97233" lon="8.78234">
        <ele>645</ele>
        <time>2021-08-06T08:33:00.302Z</time>
      </trkpt>
      <trkpt lat="46.97234" lon="8.78232">
        <ele>645</ele>
        <time>2021-08-06T08:33:01.302Z</time>
      </trkpt>
      <trkpt lat="46.97234" lon="8.7823">
        <ele>645</ele>
        <time>2021-08-06T08:33:02.302Z</time>
      </trkpt>
      <trkpt lat="46.97234" lon="8.78229">
        <ele>645</ele>
        <time>2021-08-06T08:33:03.302Z</time>
      </trkpt>
      <trkpt lat="46.97235" lon="8.78227">
        <ele>645</ele>
        <time>2021-08-06T08:33:04.302Z</time>
      </trkpt>
      <trkpt lat="46.97235" lon="8.78226">
        <ele>644</ele>
        <time>2021-08-06T08:33:05.302Z</time>
      </trkpt>
      <trkpt lat="46.97236" lon="8.78224">
        <ele>645</ele>
        <time>2021-08-06T08:33:06.302Z</time>
      </trkpt>
      <trkpt lat="46.97236" lon="8.78223">
        <ele>645</ele>
        <time>2021-08-06T08:33:07.302Z</time>
      </trkpt>
      <trkpt lat="46.97237" lon="8.78221">
        <ele>645</ele>
        <time>2021-08-06T08:33:08.302Z</time>
      </trkpt>
      <trkpt lat="46.97237" lon="8.7822">
        <ele>645</ele>
        <time>2021-08-06T08:33:09.302Z</time>
      </trkpt>
      <trkpt lat="46.97237" lon="8.78218">
        <ele>645</ele>
        <time>2021-08-06T08:33:10.302Z</time>
      </trkpt>
      <trkpt lat="46.97237" lon="8.78217">
        <ele>645</ele>
        <time>2021-08-06T08:33:11.302Z</time>
      </trkpt>
      <trkpt lat="46.97238" lon="8.78215">
        <ele>645</ele>
        <time>2021-08-06T08:33:12.302Z</time>
      </trkpt>
      <trkpt lat="46.97238" lon="8.78213">
        <ele>645</ele>
        <time>2021-08-06T08:33:13.302Z</time>
      </trkpt>
      <trkpt lat="46.97239" lon="8.78212">
        <ele>645</ele>
        <time>2021-08-06T08:33:14.303Z</time>
      </trkpt>
      <trkpt lat="46.97239" lon="8.78211">
        <ele>645</ele>
        <time>2021-08-06T08:33:15.302Z</time>
      </trkpt>
      <trkpt lat="46.9724" lon="8.78209">
        <ele>645</ele>
        <time>2021-08-06T08:33:16.303Z</time>
      </trkpt>
      <trkpt lat="46.9724" lon="8.78208">
        <ele>645</ele>
        <time>2021-08-06T08:33:17.303Z</time>
      </trkpt>
      <trkpt lat="46.97241" lon="8.78206">
        <ele>645</ele>
        <time>2021-08-06T08:33:18.302Z</time>
      </trkpt>
      <trkpt lat="46.97241" lon="8.78204">
        <ele>646</ele>
        <time>2021-08-06T08:33:19.302Z</time>
      </trkpt>
      <trkpt lat="46.97242" lon="8.78203">
        <ele>646</ele>
        <time>2021-08-06T08:33:20.303Z</time>
      </trkpt>
      <trkpt lat="46.97243" lon="8.78201">
        <ele>646</ele>
        <time>2021-08-06T08:33:21.303Z</time>
      </trkpt>
      <trkpt lat="46.97243" lon="8.782">
        <ele>646</ele>
        <time>2021-08-06T08:33:22.302Z</time>
      </trkpt>
      <trkpt lat="46.97244" lon="8.78199">
        <ele>647</ele>
        <time>2021-08-06T08:33:23.303Z</time>
      </trkpt>
      <trkpt lat="46.97245" lon="8.78197">
        <ele>647</ele>
        <time>2021-08-06T08:33:24.303Z</time>
      </trkpt>
      <trkpt lat="46.97245" lon="8.78195">
        <ele>647</ele>
        <time>2021-08-06T08:33:25.303Z</time>
      </trkpt>
      <trkpt lat="46.97245" lon="8.78193">
        <ele>648</ele>
        <time>2021-08-06T08:33:26.302Z</time>
      </trkpt>
      <trkpt lat="46.97245" lon="8.78191">
        <ele>648</ele>
        <time>2021-08-06T08:33:27.303Z</time>
      </trkpt>
      <trkpt lat="46.97245" lon="8.78189">
        <ele>648</ele>
        <time>2021-08-06T08:33:28.302Z</time>
      </trkpt>
      <trkpt lat="46.97245" lon="8.78188">
        <ele>648</ele>
        <time>2021-08-06T08:33:29.303Z</time>
      </trkpt>
      <trkpt lat="46.97245" lon="8.78186">
        <ele>647</ele>
        <time>2021-08-06T08:33:30.302Z</time>
      </trkpt>
      <trkpt lat="46.97244" lon="8.78184">
        <ele>646</ele>
        <time>2021-08-06T08:33:31.303Z</time>
      </trkpt>
      <trkpt lat="46.97243" lon="8.78183">
        <ele>646</ele>
        <time>2021-08-06T08:33:32.303Z</time>
      </trkpt>
      <trkpt lat="46.97243" lon="8.78183">
        <ele>645</ele>
        <time>2021-08-06T08:33:33.302Z</time>
      </trkpt>
      <trkpt lat="46.97243" lon="8.78183">
        <ele>645</ele>
        <time>2021-08-06T08:33:34.302Z</time>
      </trkpt>
      <trkpt lat="46.97242" lon="8.78182">
        <ele>643</ele>
        <time>2021-08-06T08:33:35.303Z</time>
      </trkpt>
      <trkpt lat="46.97242" lon="8.78182">
        <ele>642</ele>
        <time>2021-08-06T08:33:36.303Z</time>
      </trkpt>
      <trkpt lat="46.97242" lon="8.78182">
        <ele>641</ele>
        <time>2021-08-06T08:33:37.303Z</time>
      </trkpt>
      <trkpt lat="46.97241" lon="8.78182">
        <ele>641</ele>
        <time>2021-08-06T08:33:38.303Z</time>
      </trkpt>
      <trkpt lat="46.97241" lon="8.78182">
        <ele>639</ele>
        <time>2021-08-06T08:33:39.304Z</time>
      </trkpt>
      <trkpt lat="46.97241" lon="8.78182">
        <ele>639</ele>
        <time>2021-08-06T08:33:40.303Z</time>
      </trkpt>
      <trkpt lat="46.97239" lon="8.78179">
        <ele>637</ele>
        <time>2021-08-06T08:33:41.304Z</time>
      </trkpt>
      <trkpt lat="46.97239" lon="8.78178">
        <ele>638</ele>
        <time>2021-08-06T08:33:42.304Z</time>
      </trkpt>
      <trkpt lat="46.97239" lon="8.78178">
        <ele>639</ele>
        <time>2021-08-06T08:33:43.303Z</time>
      </trkpt>
      <trkpt lat="46.97242" lon="8.78177">
        <ele>649</ele>
        <time>2021-08-06T08:33:44.303Z</time>
      </trkpt>
      <trkpt lat="46.97242" lon="8.78176">
        <ele>649</ele>
        <time>2021-08-06T08:33:45.303Z</time>
      </trkpt>
      <trkpt lat="46.97243" lon="8.78175">
        <ele>649</ele>
        <time>2021-08-06T08:33:46.304Z</time>
      </trkpt>
      <trkpt lat="46.97244" lon="8.78174">
        <ele>649</ele>
        <time>2021-08-06T08:33:47.303Z</time>
      </trkpt>
      <trkpt lat="46.97244" lon="8.78173">
        <ele>648</ele>
        <time>2021-08-06T08:33:48.303Z</time>
      </trkpt>
      <trkpt lat="46.97245" lon="8.78172">
        <ele>648</ele>
        <time>2021-08-06T08:33:49.304Z</time>
      </trkpt>
      <trkpt lat="46.97247" lon="8.78171">
        <ele>647</ele>
        <time>2021-08-06T08:33:50.304Z</time>
      </trkpt>
      <trkpt lat="46.97247" lon="8.78169">
        <ele>647</ele>
        <time>2021-08-06T08:33:51.303Z</time>
      </trkpt>
      <trkpt lat="46.97248" lon="8.78167">
        <ele>647</ele>
        <time>2021-08-06T08:33:52.303Z</time>
      </trkpt>
      <trkpt lat="46.97248" lon="8.78165">
        <ele>647</ele>
        <time>2021-08-06T08:33:53.303Z</time>
      </trkpt>
      <trkpt lat="46.97249" lon="8.78163">
        <ele>647</ele>
        <time>2021-08-06T08:33:54.303Z</time>
      </trkpt>
      <trkpt lat="46.97249" lon="8.78162">
        <ele>646</ele>
        <time>2021-08-06T08:33:55.303Z</time>
      </trkpt>
      <trkpt lat="46.9725" lon="8.7816">
        <ele>646</ele>
        <time>2021-08-06T08:33:56.303Z</time>
      </trkpt>
      <trkpt lat="46.9725" lon="8.78159">
        <ele>646</ele>
        <time>2021-08-06T08:33:57.303Z</time>
      </trkpt>
      <trkpt lat="46.9725" lon="8.78157">
        <ele>646</ele>
        <time>2021-08-06T08:33:58.303Z</time>
      </trkpt>
      <trkpt lat="46.97251" lon="8.78155">
        <ele>646</ele>
        <time>2021-08-06T08:33:59.303Z</time>
      </trkpt>
      <trkpt lat="46.97251" lon="8.78154">
        <ele>646</ele>
        <time>2021-08-06T08:34:00.303Z</time>
      </trkpt>
      <trkpt lat="46.97252" lon="8.78152">
        <ele>646</ele>
        <time>2021-08-06T08:34:01.304Z</time>
      </trkpt>
      <trkpt lat="46.97252" lon="8.78151">
        <ele>646</ele>
        <time>2021-08-06T08:34:02.303Z</time>
      </trkpt>
      <trkpt lat="46.97253" lon="8.78149">
        <ele>646</ele>
        <time>2021-08-06T08:34:03.303Z</time>
      </trkpt>
      <trkpt lat="46.97254" lon="8.78147">
        <ele>646</ele>
        <time>2021-08-06T08:34:04.303Z</time>
      </trkpt>
      <trkpt lat="46.97254" lon="8.78146">
        <ele>646</ele>
        <time>2021-08-06T08:34:05.304Z</time>
      </trkpt>
      <trkpt lat="46.97254" lon="8.78145">
        <ele>645</ele>
        <time>2021-08-06T08:34:06.303Z</time>
      </trkpt>
      <trkpt lat="46.97255" lon="8.78144">
        <ele>645</ele>
        <time>2021-08-06T08:34:07.303Z</time>
      </trkpt>
      <trkpt lat="46.97255" lon="8.78142">
        <ele>645</ele>
        <time>2021-08-06T08:34:08.303Z</time>
      </trkpt>
      <trkpt lat="46.97256" lon="8.7814">
        <ele>644</ele>
        <time>2021-08-06T08:34:09.303Z</time>
      </trkpt>
      <trkpt lat="46.97256" lon="8.78139">
        <ele>644</ele>
        <time>2021-08-06T08:34:10.303Z</time>
      </trkpt>
      <trkpt lat="46.97257" lon="8.78137">
        <ele>644</ele>
        <time>2021-08-06T08:34:11.303Z</time>
      </trkpt>
      <trkpt lat="46.97257" lon="8.78136">
        <ele>644</ele>
        <time>2021-08-06T08:34:12.304Z</time>
      </trkpt>
      <trkpt lat="46.97257" lon="8.78134">
        <ele>644</ele>
        <time>2021-08-06T08:34:13.304Z</time>
      </trkpt>
      <trkpt lat="46.97258" lon="8.78133">
        <ele>644</ele>
        <time>2021-08-06T08:34:14.304Z</time>
      </trkpt>
      <trkpt lat="46.97258" lon="8.78131">
        <ele>644</ele>
        <time>2021-08-06T08:34:15.304Z</time>
      </trkpt>
      <trkpt lat="46.97259" lon="8.78129">
        <ele>644</ele>
        <time>2021-08-06T08:34:16.304Z</time>
      </trkpt>
      <trkpt lat="46.97259" lon="8.78128">
        <ele>644</ele>
        <time>2021-08-06T08:34:17.303Z</time>
      </trkpt>
      <trkpt lat="46.97259" lon="8.78126">
        <ele>644</ele>
        <time>2021-08-06T08:34:18.303Z</time>
      </trkpt>
      <trkpt lat="46.9726" lon="8.78124">
        <ele>643</ele>
        <time>2021-08-06T08:34:19.304Z</time>
      </trkpt>
      <trkpt lat="46.9726" lon="8.78123">
        <ele>643</ele>
        <time>2021-08-06T08:34:20.304Z</time>
      </trkpt>
      <trkpt lat="46.9726" lon="8.78121">
        <ele>643</ele>
        <time>2021-08-06T08:34:21.303Z</time>
      </trkpt>
      <trkpt lat="46.97261" lon="8.7812">
        <ele>643</ele>
        <time>2021-08-06T08:34:22.303Z</time>
      </trkpt>
      <trkpt lat="46.9726" lon="8.78118">
        <ele>643</ele>
        <time>2021-08-06T08:34:23.304Z</time>
      </trkpt>
      <trkpt lat="46.9726" lon="8.78116">
        <ele>643</ele>
        <time>2021-08-06T08:34:24.304Z</time>
      </trkpt>
      <trkpt lat="46.97259" lon="8.78115">
        <ele>643</ele>
        <time>2021-08-06T08:34:25.304Z</time>
      </trkpt>
      <trkpt lat="46.97258" lon="8.78113">
        <ele>643</ele>
        <time>2021-08-06T08:34:26.304Z</time>
      </trkpt>
      <trkpt lat="46.97257" lon="8.78112">
        <ele>643</ele>
        <time>2021-08-06T08:34:27.304Z</time>
      </trkpt>
      <trkpt lat="46.97256" lon="8.7811">
        <ele>643</ele>
        <time>2021-08-06T08:34:28.304Z</time>
      </trkpt>
      <trkpt lat="46.97256" lon="8.78108">
        <ele>643</ele>
        <time>2021-08-06T08:34:29.303Z</time>
      </trkpt>
      <trkpt lat="46.97256" lon="8.78108">
        <ele>643</ele>
        <time>2021-08-06T08:34:30.304Z</time>
      </trkpt>
      <trkpt lat="46.97256" lon="8.78107">
        <ele>644</ele>
        <time>2021-08-06T08:34:31.304Z</time>
      </trkpt>
      <trkpt lat="46.97257" lon="8.78106">
        <ele>644</ele>
        <time>2021-08-06T08:34:32.304Z</time>
      </trkpt>
      <trkpt lat="46.97258" lon="8.78106">
        <ele>644</ele>
        <time>2021-08-06T08:34:33.304Z</time>
      </trkpt>
      <trkpt lat="46.97258" lon="8.78105">
        <ele>644</ele>
        <time>2021-08-06T08:34:34.304Z</time>
      </trkpt>
      <trkpt lat="46.97259" lon="8.78104">
        <ele>645</ele>
        <time>2021-08-06T08:34:35.303Z</time>
      </trkpt>
      <trkpt lat="46.9726" lon="8.78103">
        <ele>645</ele>
        <time>2021-08-06T08:34:36.304Z</time>
      </trkpt>
      <trkpt lat="46.97261" lon="8.78102">
        <ele>645</ele>
        <time>2021-08-06T08:34:37.304Z</time>
      </trkpt>
      <trkpt lat="46.97262" lon="8.78101">
        <ele>646</ele>
        <time>2021-08-06T08:34:38.303Z</time>
      </trkpt>
      <trkpt lat="46.97263" lon="8.78099">
        <ele>646</ele>
        <time>2021-08-06T08:34:39.304Z</time>
      </trkpt>
      <trkpt lat="46.97264" lon="8.78098">
        <ele>647</ele>
        <time>2021-08-06T08:34:40.303Z</time>
      </trkpt>
      <trkpt lat="46.97264" lon="8.78097">
        <ele>647</ele>
        <time>2021-08-06T08:34:41.303Z</time>
      </trkpt>
      <trkpt lat="46.97265" lon="8.78095">
        <ele>646</ele>
        <time>2021-08-06T08:34:42.303Z</time>
      </trkpt>
      <trkpt lat="46.97265" lon="8.78093">
        <ele>646</ele>
        <time>2021-08-06T08:34:43.304Z</time>
      </trkpt>
      <trkpt lat="46.97266" lon="8.78091">
        <ele>645</ele>
        <time>2021-08-06T08:34:44.303Z</time>
      </trkpt>
      <trkpt lat="46.97267" lon="8.7809">
        <ele>644</ele>
        <time>2021-08-06T08:34:45.304Z</time>
      </trkpt>
      <trkpt lat="46.97267" lon="8.78088">
        <ele>644</ele>
        <time>2021-08-06T08:34:46.303Z</time>
      </trkpt>
      <trkpt lat="46.97268" lon="8.78087">
        <ele>644</ele>
        <time>2021-08-06T08:34:47.303Z</time>
      </trkpt>
      <trkpt lat="46.97268" lon="8.78084">
        <ele>643</ele>
        <time>2021-08-06T08:34:48.303Z</time>
      </trkpt>
      <trkpt lat="46.97268" lon="8.78083">
        <ele>643</ele>
        <time>2021-08-06T08:34:49.303Z</time>
      </trkpt>
      <trkpt lat="46.97268" lon="8.78081">
        <ele>642</ele>
        <time>2021-08-06T08:34:50.304Z</time>
      </trkpt>
      <trkpt lat="46.97268" lon="8.78079">
        <ele>642</ele>
        <time>2021-08-06T08:34:51.304Z</time>
      </trkpt>
      <trkpt lat="46.97269" lon="8.78077">
        <ele>642</ele>
        <time>2021-08-06T08:34:52.304Z</time>
      </trkpt>
      <trkpt lat="46.97269" lon="8.78076">
        <ele>642</ele>
        <time>2021-08-06T08:34:53.304Z</time>
      </trkpt>
      <trkpt lat="46.9727" lon="8.78074">
        <ele>641</ele>
        <time>2021-08-06T08:34:54.304Z</time>
      </trkpt>
      <trkpt lat="46.9727" lon="8.78072">
        <ele>641</ele>
        <time>2021-08-06T08:34:55.303Z</time>
      </trkpt>
      <trkpt lat="46.97271" lon="8.78071">
        <ele>641</ele>
        <time>2021-08-06T08:34:56.303Z</time>
      </trkpt>
      <trkpt lat="46.97271" lon="8.78069">
        <ele>641</ele>
        <time>2021-08-06T08:34:57.304Z</time>
      </trkpt>
      <trkpt lat="46.97271" lon="8.78068">
        <ele>641</ele>
        <time>2021-08-06T08:34:58.303Z</time>
      </trkpt>
      <trkpt lat="46.97272" lon="8.78066">
        <ele>641</ele>
        <time>2021-08-06T08:34:59.304Z</time>
      </trkpt>
      <trkpt lat="46.97272" lon="8.78064">
        <ele>641</ele>
        <time>2021-08-06T08:35:00.303Z</time>
      </trkpt>
      <trkpt lat="46.97272" lon="8.78063">
        <ele>641</ele>
        <time>2021-08-06T08:35:01.304Z</time>
      </trkpt>
      <trkpt lat="46.97273" lon="8.78061">
        <ele>641</ele>
        <time>2021-08-06T08:35:02.304Z</time>
      </trkpt>
      <trkpt lat="46.97273" lon="8.78059">
        <ele>642</ele>
        <time>2021-08-06T08:35:03.303Z</time>
      </trkpt>
      <trkpt lat="46.97274" lon="8.78058">
        <ele>643</ele>
        <time>2021-08-06T08:35:04.304Z</time>
      </trkpt>
      <trkpt lat="46.97275" lon="8.78056">
        <ele>643</ele>
        <time>2021-08-06T08:35:05.304Z</time>
      </trkpt>
      <trkpt lat="46.97275" lon="8.78055">
        <ele>643</ele>
        <time>2021-08-06T08:35:06.303Z</time>
      </trkpt>
      <trkpt lat="46.97276" lon="8.78053">
        <ele>644</ele>
        <time>2021-08-06T08:35:07.304Z</time>
      </trkpt>
      <trkpt lat="46.97276" lon="8.78051">
        <ele>644</ele>
        <time>2021-08-06T08:35:08.303Z</time>
      </trkpt>
      <trkpt lat="46.97277" lon="8.78049">
        <ele>644</ele>
        <time>2021-08-06T08:35:09.303Z</time>
      </trkpt>
      <trkpt lat="46.97277" lon="8.78048">
        <ele>644</ele>
        <time>2021-08-06T08:35:10.303Z</time>
      </trkpt>
      <trkpt lat="46.97277" lon="8.78046">
        <ele>643</ele>
        <time>2021-08-06T08:35:11.304Z</time>
      </trkpt>
      <trkpt lat="46.97277" lon="8.78045">
        <ele>643</ele>
        <time>2021-08-06T08:35:12.303Z</time>
      </trkpt>
      <trkpt lat="46.97278" lon="8.78043">
        <ele>643</ele>
        <time>2021-08-06T08:35:13.303Z</time>
      </trkpt>
      <trkpt lat="46.97278" lon="8.78041">
        <ele>643</ele>
        <time>2021-08-06T08:35:14.304Z</time>
      </trkpt>
      <trkpt lat="46.97278" lon="8.7804">
        <ele>642</ele>
        <time>2021-08-06T08:35:15.304Z</time>
      </trkpt>
      <trkpt lat="46.97278" lon="8.78037">
        <ele>642</ele>
        <time>2021-08-06T08:35:16.304Z</time>
      </trkpt>
      <trkpt lat="46.97278" lon="8.78036">
        <ele>642</ele>
        <time>2021-08-06T08:35:17.304Z</time>
      </trkpt>
      <trkpt lat="46.97278" lon="8.78034">
        <ele>642</ele>
        <time>2021-08-06T08:35:18.304Z</time>
      </trkpt>
      <trkpt lat="46.97279" lon="8.78033">
        <ele>641</ele>
        <time>2021-08-06T08:35:19.304Z</time>
      </trkpt>
      <trkpt lat="46.97279" lon="8.78032">
        <ele>641</ele>
        <time>2021-08-06T08:35:20.304Z</time>
      </trkpt>
      <trkpt lat="46.9728" lon="8.7803">
        <ele>641</ele>
        <time>2021-08-06T08:35:21.303Z</time>
      </trkpt>
      <trkpt lat="46.97281" lon="8.78028">
        <ele>641</ele>
        <time>2021-08-06T08:35:22.304Z</time>
      </trkpt>
      <trkpt lat="46.97281" lon="8.78027">
        <ele>641</ele>
        <time>2021-08-06T08:35:23.303Z</time>
      </trkpt>
      <trkpt lat="46.97282" lon="8.78026">
        <ele>641</ele>
        <time>2021-08-06T08:35:24.303Z</time>
      </trkpt>
      <trkpt lat="46.97283" lon="8.78024">
        <ele>641</ele>
        <time>2021-08-06T08:35:25.303Z</time>
      </trkpt>
      <trkpt lat="46.97283" lon="8.78023">
        <ele>642</ele>
        <time>2021-08-06T08:35:26.303Z</time>
      </trkpt>
      <trkpt lat="46.97283" lon="8.78021">
        <ele>642</ele>
        <time>2021-08-06T08:35:27.304Z</time>
      </trkpt>
      <trkpt lat="46.97284" lon="8.78019">
        <ele>642</ele>
        <time>2021-08-06T08:35:28.304Z</time>
      </trkpt>
      <trkpt lat="46.97284" lon="8.78017">
        <ele>642</ele>
        <time>2021-08-06T08:35:29.303Z</time>
      </trkpt>
      <trkpt lat="46.97285" lon="8.78015">
        <ele>642</ele>
        <time>2021-08-06T08:35:30.303Z</time>
      </trkpt>
      <trkpt lat="46.97285" lon="8.78014">
        <ele>643</ele>
        <time>2021-08-06T08:35:31.304Z</time>
      </trkpt>
      <trkpt lat="46.97286" lon="8.78012">
        <ele>643</ele>
        <time>2021-08-06T08:35:32.303Z</time>
      </trkpt>
      <trkpt lat="46.97286" lon="8.78011">
        <ele>642</ele>
        <time>2021-08-06T08:35:33.304Z</time>
      </trkpt>
      <trkpt lat="46.97286" lon="8.78009">
        <ele>642</ele>
        <time>2021-08-06T08:35:34.304Z</time>
      </trkpt>
      <trkpt lat="46.97286" lon="8.78008">
        <ele>642</ele>
        <time>2021-08-06T08:35:35.304Z</time>
      </trkpt>
      <trkpt lat="46.97286" lon="8.78006">
        <ele>641</ele>
        <time>2021-08-06T08:35:36.304Z</time>
      </trkpt>
      <trkpt lat="46.97287" lon="8.78004">
        <ele>641</ele>
        <time>2021-08-06T08:35:37.303Z</time>
      </trkpt>
      <trkpt lat="46.97287" lon="8.78003">
        <ele>641</ele>
        <time>2021-08-06T08:35:38.303Z</time>
      </trkpt>
      <trkpt lat="46.97288" lon="8.78001">
        <ele>641</ele>
        <time>2021-08-06T08:35:39.304Z</time>
      </trkpt>
      <trkpt lat="46.97288" lon="8.78">
        <ele>641</ele>
        <time>2021-08-06T08:35:40.303Z</time>
      </trkpt>
      <trkpt lat="46.97289" lon="8.77998">
        <ele>641</ele>
        <time>2021-08-06T08:35:41.304Z</time>
      </trkpt>
      <trkpt lat="46.97289" lon="8.77996">
        <ele>640</ele>
        <time>2021-08-06T08:35:42.304Z</time>
      </trkpt>
      <trkpt lat="46.97289" lon="8.77994">
        <ele>640</ele>
        <time>2021-08-06T08:35:43.303Z</time>
      </trkpt>
      <trkpt lat="46.9729" lon="8.77992">
        <ele>640</ele>
        <time>2021-08-06T08:35:44.304Z</time>
      </trkpt>
      <trkpt lat="46.9729" lon="8.77991">
        <ele>640</ele>
        <time>2021-08-06T08:35:45.304Z</time>
      </trkpt>
      <trkpt lat="46.9729" lon="8.77989">
        <ele>640</ele>
        <time>2021-08-06T08:35:46.304Z</time>
      </trkpt>
      <trkpt lat="46.97291" lon="8.77988">
        <ele>640</ele>
        <time>2021-08-06T08:35:47.304Z</time>
      </trkpt>
      <trkpt lat="46.97291" lon="8.77986">
        <ele>639</ele>
        <time>2021-08-06T08:35:48.304Z</time>
      </trkpt>
      <trkpt lat="46.97292" lon="8.77984">
        <ele>639</ele>
        <time>2021-08-06T08:35:49.304Z</time>
      </trkpt>
      <trkpt lat="46.97292" lon="8.77983">
        <ele>639</ele>
        <time>2021-08-06T08:35:50.304Z</time>
      </trkpt>
      <trkpt lat="46.97292" lon="8.77981">
        <ele>640</ele>
        <time>2021-08-06T08:35:51.303Z</time>
      </trkpt>
      <trkpt lat="46.97293" lon="8.7798">
        <ele>640</ele>
        <time>2021-08-06T08:35:52.303Z</time>
      </trkpt>
      <trkpt lat="46.97293" lon="8.77978">
        <ele>639</ele>
        <time>2021-08-06T08:35:53.303Z</time>
      </trkpt>
      <trkpt lat="46.97293" lon="8.77976">
        <ele>639</ele>
        <time>2021-08-06T08:35:54.303Z</time>
      </trkpt>
      <trkpt lat="46.97293" lon="8.77975">
        <ele>638</ele>
        <time>2021-08-06T08:35:55.304Z</time>
      </trkpt>
      <trkpt lat="46.97294" lon="8.77973">
        <ele>638</ele>
        <time>2021-08-06T08:35:56.303Z</time>
      </trkpt>
      <trkpt lat="46.97294" lon="8.77971">
        <ele>638</ele>
        <time>2021-08-06T08:35:57.304Z</time>
      </trkpt>
      <trkpt lat="46.97295" lon="8.7797">
        <ele>638</ele>
        <time>2021-08-06T08:35:58.303Z</time>
      </trkpt>
      <trkpt lat="46.97295" lon="8.77968">
        <ele>638</ele>
        <time>2021-08-06T08:35:59.304Z</time>
      </trkpt>
      <trkpt lat="46.97296" lon="8.77966">
        <ele>638</ele>
        <time>2021-08-06T08:36:00.304Z</time>
      </trkpt>
      <trkpt lat="46.97296" lon="8.77965">
        <ele>638</ele>
        <time>2021-08-06T08:36:01.303Z</time>
      </trkpt>
      <trkpt lat="46.97296" lon="8.77963">
        <ele>638</ele>
        <time>2021-08-06T08:36:02.304Z</time>
      </trkpt>
      <trkpt lat="46.97297" lon="8.77962">
        <ele>638</ele>
        <time>2021-08-06T08:36:03.303Z</time>
      </trkpt>
      <trkpt lat="46.97298" lon="8.7796">
        <ele>638</ele>
        <time>2021-08-06T08:36:04.303Z</time>
      </trkpt>
      <trkpt lat="46.97298" lon="8.77959">
        <ele>639</ele>
        <time>2021-08-06T08:36:05.303Z</time>
      </trkpt>
      <trkpt lat="46.97299" lon="8.77957">
        <ele>639</ele>
        <time>2021-08-06T08:36:06.303Z</time>
      </trkpt>
      <trkpt lat="46.97299" lon="8.77955">
        <ele>639</ele>
        <time>2021-08-06T08:36:07.304Z</time>
      </trkpt>
      <trkpt lat="46.973" lon="8.77954">
        <ele>639</ele>
        <time>2021-08-06T08:36:08.303Z</time>
      </trkpt>
      <trkpt lat="46.97301" lon="8.77952">
        <ele>639</ele>
        <time>2021-08-06T08:36:09.304Z</time>
      </trkpt>
      <trkpt lat="46.97301" lon="8.77951">
        <ele>639</ele>
        <time>2021-08-06T08:36:10.304Z</time>
      </trkpt>
      <trkpt lat="46.97302" lon="8.77949">
        <ele>639</ele>
        <time>2021-08-06T08:36:11.303Z</time>
      </trkpt>
      <trkpt lat="46.97303" lon="8.77947">
        <ele>639</ele>
        <time>2021-08-06T08:36:12.304Z</time>
      </trkpt>
      <trkpt lat="46.97304" lon="8.77946">
        <ele>639</ele>
        <time>2021-08-06T08:36:13.304Z</time>
      </trkpt>
      <trkpt lat="46.97304" lon="8.77944">
        <ele>639</ele>
        <time>2021-08-06T08:36:14.304Z</time>
      </trkpt>
      <trkpt lat="46.97305" lon="8.77942">
        <ele>639</ele>
        <time>2021-08-06T08:36:15.303Z</time>
      </trkpt>
      <trkpt lat="46.97307" lon="8.7794">
        <ele>639</ele>
        <time>2021-08-06T08:36:16.304Z</time>
      </trkpt>
      <trkpt lat="46.97307" lon="8.77939">
        <ele>639</ele>
        <time>2021-08-06T08:36:17.304Z</time>
      </trkpt>
      <trkpt lat="46.97308" lon="8.77937">
        <ele>639</ele>
        <time>2021-08-06T08:36:18.303Z</time>
      </trkpt>
      <trkpt lat="46.97309" lon="8.77936">
        <ele>640</ele>
        <time>2021-08-06T08:36:19.304Z</time>
      </trkpt>
      <trkpt lat="46.97309" lon="8.77934">
        <ele>640</ele>
        <time>2021-08-06T08:36:20.304Z</time>
      </trkpt>
      <trkpt lat="46.9731" lon="8.77933">
        <ele>640</ele>
        <time>2021-08-06T08:36:21.303Z</time>
      </trkpt>
      <trkpt lat="46.9731" lon="8.77931">
        <ele>641</ele>
        <time>2021-08-06T08:36:22.304Z</time>
      </trkpt>
      <trkpt lat="46.97311" lon="8.7793">
        <ele>641</ele>
        <time>2021-08-06T08:36:23.304Z</time>
      </trkpt>
      <trkpt lat="46.97311" lon="8.77929">
        <ele>641</ele>
        <time>2021-08-06T08:36:24.303Z</time>
      </trkpt>
      <trkpt lat="46.97311" lon="8.77927">
        <ele>641</ele>
        <time>2021-08-06T08:36:25.304Z</time>
      </trkpt>
      <trkpt lat="46.97311" lon="8.77925">
        <ele>641</ele>
        <time>2021-08-06T08:36:26.304Z</time>
      </trkpt>
      <trkpt lat="46.97311" lon="8.77923">
        <ele>642</ele>
        <time>2021-08-06T08:36:27.303Z</time>
      </trkpt>
      <trkpt lat="46.97312" lon="8.77922">
        <ele>642</ele>
        <time>2021-08-06T08:36:28.303Z</time>
      </trkpt>
      <trkpt lat="46.97313" lon="8.77921">
        <ele>642</ele>
        <time>2021-08-06T08:36:29.303Z</time>
      </trkpt>
      <trkpt lat="46.97314" lon="8.77919">
        <ele>642</ele>
        <time>2021-08-06T08:36:30.303Z</time>
      </trkpt>
      <trkpt lat="46.97314" lon="8.77918">
        <ele>642</ele>
        <time>2021-08-06T08:36:31.303Z</time>
      </trkpt>
      <trkpt lat="46.97314" lon="8.77916">
        <ele>641</ele>
        <time>2021-08-06T08:36:32.304Z</time>
      </trkpt>
      <trkpt lat="46.97313" lon="8.77915">
        <ele>641</ele>
        <time>2021-08-06T08:36:33.304Z</time>
      </trkpt>
      <trkpt lat="46.97314" lon="8.77914">
        <ele>641</ele>
        <time>2021-08-06T08:36:34.303Z</time>
      </trkpt>
      <trkpt lat="46.97314" lon="8.77913">
        <ele>641</ele>
        <time>2021-08-06T08:36:35.304Z</time>
      </trkpt>
      <trkpt lat="46.97314" lon="8.77911">
        <ele>641</ele>
        <time>2021-08-06T08:36:36.304Z</time>
      </trkpt>
      <trkpt lat="46.97315" lon="8.7791">
        <ele>641</ele>
        <time>2021-08-06T08:36:37.304Z</time>
      </trkpt>
      <trkpt lat="46.97315" lon="8.77908">
        <ele>641</ele>
        <time>2021-08-06T08:36:38.304Z</time>
      </trkpt>
      <trkpt lat="46.97315" lon="8.77907">
        <ele>641</ele>
        <time>2021-08-06T08:36:39.303Z</time>
      </trkpt>
      <trkpt lat="46.97316" lon="8.77906">
        <ele>641</ele>
        <time>2021-08-06T08:36:40.303Z</time>
      </trkpt>
      <trkpt lat="46.97316" lon="8.77905">
        <ele>642</ele>
        <time>2021-08-06T08:36:41.303Z</time>
      </trkpt>
      <trkpt lat="46.97316" lon="8.77903">
        <ele>642</ele>
        <time>2021-08-06T08:36:42.303Z</time>
      </trkpt>
      <trkpt lat="46.97316" lon="8.77902">
        <ele>642</ele>
        <time>2021-08-06T08:36:43.304Z</time>
      </trkpt>
      <trkpt lat="46.97316" lon="8.77901">
        <ele>643</ele>
        <time>2021-08-06T08:36:44.303Z</time>
      </trkpt>
      <trkpt lat="46.97316" lon="8.779">
        <ele>643</ele>
        <time>2021-08-06T08:36:45.304Z</time>
      </trkpt>
      <trkpt lat="46.97316" lon="8.77899">
        <ele>643</ele>
        <time>2021-08-06T08:36:46.304Z</time>
      </trkpt>
      <trkpt lat="46.97315" lon="8.77898">
        <ele>643</ele>
        <time>2021-08-06T08:36:47.304Z</time>
      </trkpt>
      <trkpt lat="46.97316" lon="8.77897">
        <ele>643</ele>
        <time>2021-08-06T08:36:48.303Z</time>
      </trkpt>
      <trkpt lat="46.97317" lon="8.77896">
        <ele>644</ele>
        <time>2021-08-06T08:36:49.303Z</time>
      </trkpt>
      <trkpt lat="46.97318" lon="8.77895">
        <ele>645</ele>
        <time>2021-08-06T08:36:50.304Z</time>
      </trkpt>
      <trkpt lat="46.97319" lon="8.77894">
        <ele>645</ele>
        <time>2021-08-06T08:36:51.303Z</time>
      </trkpt>
      <trkpt lat="46.97319" lon="8.77893">
        <ele>645</ele>
        <time>2021-08-06T08:36:52.304Z</time>
      </trkpt>
      <trkpt lat="46.97321" lon="8.77892">
        <ele>646</ele>
        <time>2021-08-06T08:36:53.303Z</time>
      </trkpt>
      <trkpt lat="46.97321" lon="8.7789">
        <ele>646</ele>
        <time>2021-08-06T08:36:54.303Z</time>
      </trkpt>
      <trkpt lat="46.97321" lon="8.77889">
        <ele>647</ele>
        <time>2021-08-06T08:36:55.303Z</time>
      </trkpt>
      <trkpt lat="46.97322" lon="8.77888">
        <ele>647</ele>
        <time>2021-08-06T08:36:56.304Z</time>
      </trkpt>
      <trkpt lat="46.97323" lon="8.77887">
        <ele>648</ele>
        <time>2021-08-06T08:36:57.303Z</time>
      </trkpt>
      <trkpt lat="46.97325" lon="8.77886">
        <ele>648</ele>
        <time>2021-08-06T08:36:58.304Z</time>
      </trkpt>
      <trkpt lat="46.97326" lon="8.77885">
        <ele>649</ele>
        <time>2021-08-06T08:36:59.303Z</time>
      </trkpt>
      <trkpt lat="46.97327" lon="8.77883">
        <ele>649</ele>
        <time>2021-08-06T08:37:00.304Z</time>
      </trkpt>
      <trkpt lat="46.97327" lon="8.77883">
        <ele>650</ele>
        <time>2021-08-06T08:37:01.303Z</time>
      </trkpt>
      <trkpt lat="46.97326" lon="8.77882">
        <ele>650</ele>
        <time>2021-08-06T08:37:02.303Z</time>
      </trkpt>
      <trkpt lat="46.97327" lon="8.77881">
        <ele>650</ele>
        <time>2021-08-06T08:37:03.304Z</time>
      </trkpt>
      <trkpt lat="46.97327" lon="8.77879">
        <ele>650</ele>
        <time>2021-08-06T08:37:04.304Z</time>
      </trkpt>
      <trkpt lat="46.97327" lon="8.77878">
        <ele>650</ele>
        <time>2021-08-06T08:37:05.303Z</time>
      </trkpt>
      <trkpt lat="46.97327" lon="8.77877">
        <ele>650</ele>
        <time>2021-08-06T08:37:06.303Z</time>
      </trkpt>
      <trkpt lat="46.97327" lon="8.77876">
        <ele>650</ele>
        <time>2021-08-06T08:37:07.304Z</time>
      </trkpt>
      <trkpt lat="46.97328" lon="8.77875">
        <ele>650</ele>
        <time>2021-08-06T08:37:08.304Z</time>
      </trkpt>
      <trkpt lat="46.97328" lon="8.77874">
        <ele>650</ele>
        <time>2021-08-06T08:37:09.303Z</time>
      </trkpt>
      <trkpt lat="46.97328" lon="8.77873">
        <ele>650</ele>
        <time>2021-08-06T08:37:10.304Z</time>
      </trkpt>
      <trkpt lat="46.97328" lon="8.77872">
        <ele>650</ele>
        <time>2021-08-06T08:37:11.303Z</time>
      </trkpt>
      <trkpt lat="46.97328" lon="8.7787">
        <ele>649</ele>
        <time>2021-08-06T08:37:12.304Z</time>
      </trkpt>
      <trkpt lat="46.97328" lon="8.77869">
        <ele>649</ele>
        <time>2021-08-06T08:37:13.303Z</time>
      </trkpt>
      <trkpt lat="46.97328" lon="8.77867">
        <ele>649</ele>
        <time>2021-08-06T08:37:14.304Z</time>
      </trkpt>
      <trkpt lat="46.97328" lon="8.77866">
        <ele>649</ele>
        <time>2021-08-06T08:37:15.304Z</time>
      </trkpt>
      <trkpt lat="46.9733" lon="8.77863">
        <ele>648</ele>
        <time>2021-08-06T08:37:16.304Z</time>
      </trkpt>
      <trkpt lat="46.97331" lon="8.77862">
        <ele>648</ele>
        <time>2021-08-06T08:37:17.303Z</time>
      </trkpt>
      <trkpt lat="46.97331" lon="8.7786">
        <ele>648</ele>
        <time>2021-08-06T08:37:18.303Z</time>
      </trkpt>
      <trkpt lat="46.97332" lon="8.77859">
        <ele>648</ele>
        <time>2021-08-06T08:37:19.304Z</time>
      </trkpt>
      <trkpt lat="46.97334" lon="8.77856">
        <ele>648</ele>
        <time>2021-08-06T08:37:20.303Z</time>
      </trkpt>
      <trkpt lat="46.97335" lon="8.77854">
        <ele>648</ele>
        <time>2021-08-06T08:37:21.303Z</time>
      </trkpt>
      <trkpt lat="46.97336" lon="8.77853">
        <ele>648</ele>
        <time>2021-08-06T08:37:22.304Z</time>
      </trkpt>
      <trkpt lat="46.97335" lon="8.77851">
        <ele>648</ele>
        <time>2021-08-06T08:37:23.303Z</time>
      </trkpt>
      <trkpt lat="46.97334" lon="8.7785">
        <ele>648</ele>
        <time>2021-08-06T08:37:24.303Z</time>
      </trkpt>
      <trkpt lat="46.97332" lon="8.77848">
        <ele>647</ele>
        <time>2021-08-06T08:37:25.304Z</time>
      </trkpt>
      <trkpt lat="46.97331" lon="8.77847">
        <ele>646</ele>
        <time>2021-08-06T08:37:26.303Z</time>
      </trkpt>
      <trkpt lat="46.97331" lon="8.77845">
        <ele>646</ele>
        <time>2021-08-06T08:37:27.304Z</time>
      </trkpt>
      <trkpt lat="46.97331" lon="8.77844">
        <ele>646</ele>
        <time>2021-08-06T08:37:28.304Z</time>
      </trkpt>
      <trkpt lat="46.97332" lon="8.77843">
        <ele>645</ele>
        <time>2021-08-06T08:37:29.303Z</time>
      </trkpt>
      <trkpt lat="46.97332" lon="8.77842">
        <ele>645</ele>
        <time>2021-08-06T08:37:30.304Z</time>
      </trkpt>
      <trkpt lat="46.97332" lon="8.7784">
        <ele>645</ele>
        <time>2021-08-06T08:37:31.303Z</time>
      </trkpt>
      <trkpt lat="46.97332" lon="8.77839">
        <ele>644</ele>
        <time>2021-08-06T08:37:32.303Z</time>
      </trkpt>
      <trkpt lat="46.97332" lon="8.77838">
        <ele>644</ele>
        <time>2021-08-06T08:37:33.303Z</time>
      </trkpt>
      <trkpt lat="46.97332" lon="8.77836">
        <ele>644</ele>
        <time>2021-08-06T08:37:34.304Z</time>
      </trkpt>
      <trkpt lat="46.97332" lon="8.77835">
        <ele>644</ele>
        <time>2021-08-06T08:37:35.304Z</time>
      </trkpt>
      <trkpt lat="46.97332" lon="8.77834">
        <ele>644</ele>
        <time>2021-08-06T08:37:36.303Z</time>
      </trkpt>
      <trkpt lat="46.97332" lon="8.77832">
        <ele>643</ele>
        <time>2021-08-06T08:37:37.303Z</time>
      </trkpt>
      <trkpt lat="46.97331" lon="8.7783">
        <ele>643</ele>
        <time>2021-08-06T08:37:38.303Z</time>
      </trkpt>
      <trkpt lat="46.9733" lon="8.77829">
        <ele>642</ele>
        <time>2021-08-06T08:37:39.303Z</time>
      </trkpt>
      <trkpt lat="46.97329" lon="8.77828">
        <ele>642</ele>
        <time>2021-08-06T08:37:40.303Z</time>
      </trkpt>
      <trkpt lat="46.97329" lon="8.77827">
        <ele>642</ele>
        <time>2021-08-06T08:37:41.303Z</time>
      </trkpt>
      <trkpt lat="46.97329" lon="8.77825">
        <ele>642</ele>
        <time>2021-08-06T08:37:42.303Z</time>
      </trkpt>
      <trkpt lat="46.97329" lon="8.77824">
        <ele>642</ele>
        <time>2021-08-06T08:37:43.303Z</time>
      </trkpt>
      <trkpt lat="46.97329" lon="8.77822">
        <ele>642</ele>
        <time>2021-08-06T08:37:44.303Z</time>
      </trkpt>
      <trkpt lat="46.97329" lon="8.77821">
        <ele>642</ele>
        <time>2021-08-06T08:37:45.303Z</time>
      </trkpt>
      <trkpt lat="46.97329" lon="8.77819">
        <ele>642</ele>
        <time>2021-08-06T08:37:46.304Z</time>
      </trkpt>
      <trkpt lat="46.97329" lon="8.77818">
        <ele>642</ele>
        <time>2021-08-06T08:37:47.304Z</time>
      </trkpt>
      <trkpt lat="46.97329" lon="8.77815">
        <ele>643</ele>
        <time>2021-08-06T08:37:48.303Z</time>
      </trkpt>
      <trkpt lat="46.97329" lon="8.77813">
        <ele>643</ele>
        <time>2021-08-06T08:37:49.303Z</time>
      </trkpt>
      <trkpt lat="46.97328" lon="8.7781">
        <ele>643</ele>
        <time>2021-08-06T08:37:50.303Z</time>
      </trkpt>
      <trkpt lat="46.97328" lon="8.77809">
        <ele>643</ele>
        <time>2021-08-06T08:37:51.303Z</time>
      </trkpt>
      <trkpt lat="46.97328" lon="8.77808">
        <ele>644</ele>
        <time>2021-08-06T08:37:52.303Z</time>
      </trkpt>
      <trkpt lat="46.97328" lon="8.77806">
        <ele>645</ele>
        <time>2021-08-06T08:37:53.303Z</time>
      </trkpt>
      <trkpt lat="46.97329" lon="8.77805">
        <ele>645</ele>
        <time>2021-08-06T08:37:54.303Z</time>
      </trkpt>
      <trkpt lat="46.97329" lon="8.77804">
        <ele>645</ele>
        <time>2021-08-06T08:37:55.303Z</time>
      </trkpt>
      <trkpt lat="46.9733" lon="8.77803">
        <ele>645</ele>
        <time>2021-08-06T08:37:56.304Z</time>
      </trkpt>
      <trkpt lat="46.9733" lon="8.77802">
        <ele>644</ele>
        <time>2021-08-06T08:37:57.304Z</time>
      </trkpt>
      <trkpt lat="46.9733" lon="8.77801">
        <ele>644</ele>
        <time>2021-08-06T08:37:58.304Z</time>
      </trkpt>
      <trkpt lat="46.9733" lon="8.778">
        <ele>644</ele>
        <time>2021-08-06T08:37:59.303Z</time>
      </trkpt>
      <trkpt lat="46.97331" lon="8.77799">
        <ele>644</ele>
        <time>2021-08-06T08:38:00.303Z</time>
      </trkpt>
      <trkpt lat="46.97332" lon="8.77798">
        <ele>644</ele>
        <time>2021-08-06T08:38:01.304Z</time>
      </trkpt>
      <trkpt lat="46.97333" lon="8.77797">
        <ele>644</ele>
        <time>2021-08-06T08:38:02.303Z</time>
      </trkpt>
      <trkpt lat="46.97333" lon="8.77795">
        <ele>645</ele>
        <time>2021-08-06T08:38:03.303Z</time>
      </trkpt>
      <trkpt lat="46.97333" lon="8.77794">
        <ele>645</ele>
        <time>2021-08-06T08:38:04.303Z</time>
      </trkpt>
      <trkpt lat="46.97333" lon="8.77793">
        <ele>645</ele>
        <time>2021-08-06T08:38:05.304Z</time>
      </trkpt>
      <trkpt lat="46.97334" lon="8.77792">
        <ele>645</ele>
        <time>2021-08-06T08:38:06.304Z</time>
      </trkpt>
      <trkpt lat="46.97334" lon="8.7779">
        <ele>645</ele>
        <time>2021-08-06T08:38:07.304Z</time>
      </trkpt>
      <trkpt lat="46.97335" lon="8.77789">
        <ele>645</ele>
        <time>2021-08-06T08:38:08.303Z</time>
      </trkpt>
      <trkpt lat="46.97335" lon="8.77788">
        <ele>645</ele>
        <time>2021-08-06T08:38:09.303Z</time>
      </trkpt>
      <trkpt lat="46.97335" lon="8.77787">
        <ele>645</ele>
        <time>2021-08-06T08:38:10.303Z</time>
      </trkpt>
      <trkpt lat="46.97335" lon="8.77786">
        <ele>644</ele>
        <time>2021-08-06T08:38:11.303Z</time>
      </trkpt>
      <trkpt lat="46.97335" lon="8.77784">
        <ele>644</ele>
        <time>2021-08-06T08:38:12.303Z</time>
      </trkpt>
      <trkpt lat="46.97336" lon="8.77783">
        <ele>644</ele>
        <time>2021-08-06T08:38:13.304Z</time>
      </trkpt>
      <trkpt lat="46.97337" lon="8.77781">
        <ele>644</ele>
        <time>2021-08-06T08:38:14.304Z</time>
      </trkpt>
      <trkpt lat="46.97337" lon="8.7778">
        <ele>644</ele>
        <time>2021-08-06T08:38:15.303Z</time>
      </trkpt>
      <trkpt lat="46.97338" lon="8.77778">
        <ele>644</ele>
        <time>2021-08-06T08:38:16.303Z</time>
      </trkpt>
      <trkpt lat="46.97339" lon="8.77776">
        <ele>643</ele>
        <time>2021-08-06T08:38:17.304Z</time>
      </trkpt>
      <trkpt lat="46.9734" lon="8.77774">
        <ele>643</ele>
        <time>2021-08-06T08:38:18.304Z</time>
      </trkpt>
      <trkpt lat="46.97341" lon="8.77772">
        <ele>642</ele>
        <time>2021-08-06T08:38:19.303Z</time>
      </trkpt>
      <trkpt lat="46.97342" lon="8.77771">
        <ele>642</ele>
        <time>2021-08-06T08:38:20.304Z</time>
      </trkpt>
      <trkpt lat="46.97343" lon="8.7777">
        <ele>641</ele>
        <time>2021-08-06T08:38:21.303Z</time>
      </trkpt>
      <trkpt lat="46.97344" lon="8.77769">
        <ele>641</ele>
        <time>2021-08-06T08:38:22.303Z</time>
      </trkpt>
      <trkpt lat="46.97344" lon="8.77768">
        <ele>640</ele>
        <time>2021-08-06T08:38:23.303Z</time>
      </trkpt>
      <trkpt lat="46.97344" lon="8.77767">
        <ele>640</ele>
        <time>2021-08-06T08:38:24.303Z</time>
      </trkpt>
      <trkpt lat="46.97345" lon="8.77766">
        <ele>639</ele>
        <time>2021-08-06T08:38:25.303Z</time>
      </trkpt>
      <trkpt lat="46.97345" lon="8.77764">
        <ele>639</ele>
        <time>2021-08-06T08:38:26.303Z</time>
      </trkpt>
      <trkpt lat="46.97345" lon="8.77763">
        <ele>639</ele>
        <time>2021-08-06T08:38:27.303Z</time>
      </trkpt>
      <trkpt lat="46.97345" lon="8.77761">
        <ele>639</ele>
        <time>2021-08-06T08:38:28.303Z</time>
      </trkpt>
      <trkpt lat="46.97345" lon="8.7776">
        <ele>639</ele>
        <time>2021-08-06T08:38:29.304Z</time>
      </trkpt>
      <trkpt lat="46.97346" lon="8.77758">
        <ele>639</ele>
        <time>2021-08-06T08:38:30.304Z</time>
      </trkpt>
      <trkpt lat="46.97347" lon="8.77757">
        <ele>639</ele>
        <time>2021-08-06T08:38:31.303Z</time>
      </trkpt>
      <trkpt lat="46.97348" lon="8.77755">
        <ele>639</ele>
        <time>2021-08-06T08:38:32.304Z</time>
      </trkpt>
      <trkpt lat="46.97348" lon="8.77754">
        <ele>640</ele>
        <time>2021-08-06T08:38:33.304Z</time>
      </trkpt>
      <trkpt lat="46.97349" lon="8.77752">
        <ele>640</ele>
        <time>2021-08-06T08:38:34.304Z</time>
      </trkpt>
      <trkpt lat="46.97349" lon="8.77751">
        <ele>641</ele>
        <time>2021-08-06T08:38:35.304Z</time>
      </trkpt>
      <trkpt lat="46.9735" lon="8.77749">
        <ele>641</ele>
        <time>2021-08-06T08:38:36.304Z</time>
      </trkpt>
      <trkpt lat="46.9735" lon="8.77747">
        <ele>640</ele>
        <time>2021-08-06T08:38:37.303Z</time>
      </trkpt>
      <trkpt lat="46.9735" lon="8.77746">
        <ele>640</ele>
        <time>2021-08-06T08:38:38.304Z</time>
      </trkpt>
      <trkpt lat="46.9735" lon="8.77744">
        <ele>639</ele>
        <time>2021-08-06T08:38:39.304Z</time>
      </trkpt>
      <trkpt lat="46.9735" lon="8.77742">
        <ele>639</ele>
        <time>2021-08-06T08:38:40.303Z</time>
      </trkpt>
      <trkpt lat="46.9735" lon="8.7774">
        <ele>639</ele>
        <time>2021-08-06T08:38:41.304Z</time>
      </trkpt>
      <trkpt lat="46.97351" lon="8.77738">
        <ele>639</ele>
        <time>2021-08-06T08:38:42.303Z</time>
      </trkpt>
      <trkpt lat="46.9735" lon="8.77736">
        <ele>639</ele>
        <time>2021-08-06T08:38:43.303Z</time>
      </trkpt>
      <trkpt lat="46.9735" lon="8.77734">
        <ele>638</ele>
        <time>2021-08-06T08:38:44.303Z</time>
      </trkpt>
      <trkpt lat="46.9735" lon="8.77733">
        <ele>638</ele>
        <time>2021-08-06T08:38:45.304Z</time>
      </trkpt>
      <trkpt lat="46.97351" lon="8.77731">
        <ele>638</ele>
        <time>2021-08-06T08:38:46.304Z</time>
      </trkpt>
      <trkpt lat="46.9735" lon="8.77729">
        <ele>637</ele>
        <time>2021-08-06T08:38:47.304Z</time>
      </trkpt>
      <trkpt lat="46.97351" lon="8.77727">
        <ele>637</ele>
        <time>2021-08-06T08:38:48.304Z</time>
      </trkpt>
      <trkpt lat="46.97351" lon="8.77727">
        <ele>637</ele>
        <time>2021-08-06T08:38:49.303Z</time>
      </trkpt>
      <trkpt lat="46.97351" lon="8.77725">
        <ele>637</ele>
        <time>2021-08-06T08:38:50.303Z</time>
      </trkpt>
      <trkpt lat="46.97351" lon="8.77723">
        <ele>637</ele>
        <time>2021-08-06T08:38:51.303Z</time>
      </trkpt>
      <trkpt lat="46.97352" lon="8.77722">
        <ele>636</ele>
        <time>2021-08-06T08:38:52.303Z</time>
      </trkpt>
      <trkpt lat="46.97351" lon="8.77721">
        <ele>636</ele>
        <time>2021-08-06T08:38:53.303Z</time>
      </trkpt>
      <trkpt lat="46.97351" lon="8.77719">
        <ele>636</ele>
        <time>2021-08-06T08:38:54.303Z</time>
      </trkpt>
      <trkpt lat="46.97351" lon="8.77718">
        <ele>636</ele>
        <time>2021-08-06T08:38:55.304Z</time>
      </trkpt>
      <trkpt lat="46.97352" lon="8.77717">
        <ele>636</ele>
        <time>2021-08-06T08:38:56.304Z</time>
      </trkpt>
      <trkpt lat="46.97352" lon="8.77716">
        <ele>636</ele>
        <time>2021-08-06T08:38:57.304Z</time>
      </trkpt>
      <trkpt lat="46.97353" lon="8.77714">
        <ele>636</ele>
        <time>2021-08-06T08:38:58.304Z</time>
      </trkpt>
      <trkpt lat="46.97353" lon="8.77713">
        <ele>637</ele>
        <time>2021-08-06T08:38:59.303Z</time>
      </trkpt>
      <trkpt lat="46.97353" lon="8.77712">
        <ele>637</ele>
        <time>2021-08-06T08:39:00.304Z</time>
      </trkpt>
      <trkpt lat="46.97353" lon="8.77711">
        <ele>638</ele>
        <time>2021-08-06T08:39:01.304Z</time>
      </trkpt>
      <trkpt lat="46.97353" lon="8.7771">
        <ele>638</ele>
        <time>2021-08-06T08:39:02.303Z</time>
      </trkpt>
      <trkpt lat="46.97353" lon="8.77709">
        <ele>638</ele>
        <time>2021-08-06T08:39:03.304Z</time>
      </trkpt>
      <trkpt lat="46.97354" lon="8.77707">
        <ele>639</ele>
        <time>2021-08-06T08:39:04.304Z</time>
      </trkpt>
      <trkpt lat="46.97354" lon="8.77705">
        <ele>639</ele>
        <time>2021-08-06T08:39:05.303Z</time>
      </trkpt>
      <trkpt lat="46.97354" lon="8.77704">
        <ele>639</ele>
        <time>2021-08-06T08:39:06.303Z</time>
      </trkpt>
      <trkpt lat="46.97354" lon="8.77703">
        <ele>639</ele>
        <time>2021-08-06T08:39:07.304Z</time>
      </trkpt>
      <trkpt lat="46.97354" lon="8.77701">
        <ele>639</ele>
        <time>2021-08-06T08:39:08.303Z</time>
      </trkpt>
      <trkpt lat="46.97355" lon="8.77699">
        <ele>639</ele>
        <time>2021-08-06T08:39:09.304Z</time>
      </trkpt>
      <trkpt lat="46.97355" lon="8.77698">
        <ele>639</ele>
        <time>2021-08-06T08:39:10.303Z</time>
      </trkpt>
      <trkpt lat="46.97355" lon="8.77696">
        <ele>639</ele>
        <time>2021-08-06T08:39:11.304Z</time>
      </trkpt>
      <trkpt lat="46.97355" lon="8.77695">
        <ele>638</ele>
        <time>2021-08-06T08:39:12.304Z</time>
      </trkpt>
      <trkpt lat="46.97356" lon="8.77694">
        <ele>638</ele>
        <time>2021-08-06T08:39:13.304Z</time>
      </trkpt>
      <trkpt lat="46.97356" lon="8.77693">
        <ele>638</ele>
        <time>2021-08-06T08:39:14.304Z</time>
      </trkpt>
      <trkpt lat="46.97356" lon="8.77692">
        <ele>638</ele>
        <time>2021-08-06T08:39:15.303Z</time>
      </trkpt>
      <trkpt lat="46.97356" lon="8.77691">
        <ele>638</ele>
        <time>2021-08-06T08:39:16.303Z</time>
      </trkpt>
      <trkpt lat="46.97356" lon="8.77689">
        <ele>638</ele>
        <time>2021-08-06T08:39:17.304Z</time>
      </trkpt>
      <trkpt lat="46.97356" lon="8.77688">
        <ele>638</ele>
        <time>2021-08-06T08:39:18.303Z</time>
      </trkpt>
      <trkpt lat="46.97356" lon="8.77686">
        <ele>638</ele>
        <time>2021-08-06T08:39:19.303Z</time>
      </trkpt>
      <trkpt lat="46.97356" lon="8.77685">
        <ele>638</ele>
        <time>2021-08-06T08:39:20.303Z</time>
      </trkpt>
      <trkpt lat="46.97357" lon="8.77684">
        <ele>637</ele>
        <time>2021-08-06T08:39:21.303Z</time>
      </trkpt>
      <trkpt lat="46.97358" lon="8.77683">
        <ele>637</ele>
        <time>2021-08-06T08:39:22.304Z</time>
      </trkpt>
      <trkpt lat="46.97358" lon="8.77681">
        <ele>637</ele>
        <time>2021-08-06T08:39:23.304Z</time>
      </trkpt>
      <trkpt lat="46.97358" lon="8.7768">
        <ele>637</ele>
        <time>2021-08-06T08:39:24.303Z</time>
      </trkpt>
      <trkpt lat="46.97358" lon="8.77679">
        <ele>637</ele>
        <time>2021-08-06T08:39:25.303Z</time>
      </trkpt>
      <trkpt lat="46.97358" lon="8.77677">
        <ele>636</ele>
        <time>2021-08-06T08:39:26.303Z</time>
      </trkpt>
      <trkpt lat="46.97358" lon="8.77676">
        <ele>636</ele>
        <time>2021-08-06T08:39:27.304Z</time>
      </trkpt>
      <trkpt lat="46.97358" lon="8.77674">
        <ele>635</ele>
        <time>2021-08-06T08:39:28.303Z</time>
      </trkpt>
      <trkpt lat="46.97358" lon="8.77673">
        <ele>635</ele>
        <time>2021-08-06T08:39:29.303Z</time>
      </trkpt>
      <trkpt lat="46.97359" lon="8.77672">
        <ele>635</ele>
        <time>2021-08-06T08:39:30.303Z</time>
      </trkpt>
      <trkpt lat="46.97359" lon="8.7767">
        <ele>634</ele>
        <time>2021-08-06T08:39:31.303Z</time>
      </trkpt>
      <trkpt lat="46.97361" lon="8.77669">
        <ele>634</ele>
        <time>2021-08-06T08:39:32.304Z</time>
      </trkpt>
      <trkpt lat="46.97361" lon="8.77668">
        <ele>634</ele>
        <time>2021-08-06T08:39:33.303Z</time>
      </trkpt>
      <trkpt lat="46.97362" lon="8.77666">
        <ele>633</ele>
        <time>2021-08-06T08:39:34.304Z</time>
      </trkpt>
      <trkpt lat="46.97363" lon="8.77665">
        <ele>633</ele>
        <time>2021-08-06T08:39:35.304Z</time>
      </trkpt>
      <trkpt lat="46.97364" lon="8.77664">
        <ele>632</ele>
        <time>2021-08-06T08:39:36.304Z</time>
      </trkpt>
      <trkpt lat="46.97364" lon="8.77663">
        <ele>632</ele>
        <time>2021-08-06T08:39:37.304Z</time>
      </trkpt>
      <trkpt lat="46.97365" lon="8.77661">
        <ele>632</ele>
        <time>2021-08-06T08:39:38.303Z</time>
      </trkpt>
      <trkpt lat="46.97365" lon="8.77659">
        <ele>632</ele>
        <time>2021-08-06T08:39:39.303Z</time>
      </trkpt>
      <trkpt lat="46.97365" lon="8.77656">
        <ele>632</ele>
        <time>2021-08-06T08:39:40.303Z</time>
      </trkpt>
      <trkpt lat="46.97365" lon="8.77654">
        <ele>632</ele>
        <time>2021-08-06T08:39:41.303Z</time>
      </trkpt>
      <trkpt lat="46.97366" lon="8.77653">
        <ele>632</ele>
        <time>2021-08-06T08:39:42.303Z</time>
      </trkpt>
      <trkpt lat="46.97366" lon="8.77651">
        <ele>632</ele>
        <time>2021-08-06T08:39:43.303Z</time>
      </trkpt>
      <trkpt lat="46.97367" lon="8.77649">
        <ele>633</ele>
        <time>2021-08-06T08:39:44.303Z</time>
      </trkpt>
      <trkpt lat="46.97368" lon="8.77648">
        <ele>633</ele>
        <time>2021-08-06T08:39:45.303Z</time>
      </trkpt>
      <trkpt lat="46.97368" lon="8.77646">
        <ele>633</ele>
        <time>2021-08-06T08:39:46.303Z</time>
      </trkpt>
      <trkpt lat="46.97368" lon="8.77645">
        <ele>633</ele>
        <time>2021-08-06T08:39:47.304Z</time>
      </trkpt>
      <trkpt lat="46.97369" lon="8.77644">
        <ele>633</ele>
        <time>2021-08-06T08:39:48.303Z</time>
      </trkpt>
      <trkpt lat="46.97369" lon="8.77642">
        <ele>633</ele>
        <time>2021-08-06T08:39:49.303Z</time>
      </trkpt>
      <trkpt lat="46.97368" lon="8.7764">
        <ele>634</ele>
        <time>2021-08-06T08:39:50.304Z</time>
      </trkpt>
      <trkpt lat="46.97367" lon="8.77638">
        <ele>634</ele>
        <time>2021-08-06T08:39:51.303Z</time>
      </trkpt>
      <trkpt lat="46.97367" lon="8.77636">
        <ele>634</ele>
        <time>2021-08-06T08:39:52.303Z</time>
      </trkpt>
      <trkpt lat="46.97368" lon="8.77635">
        <ele>634</ele>
        <time>2021-08-06T08:39:53.303Z</time>
      </trkpt>
      <trkpt lat="46.97368" lon="8.77632">
        <ele>634</ele>
        <time>2021-08-06T08:39:54.303Z</time>
      </trkpt>
      <trkpt lat="46.97368" lon="8.7763">
        <ele>634</ele>
        <time>2021-08-06T08:39:55.304Z</time>
      </trkpt>
      <trkpt lat="46.97368" lon="8.77629">
        <ele>634</ele>
        <time>2021-08-06T08:39:56.304Z</time>
      </trkpt>
      <trkpt lat="46.97368" lon="8.77627">
        <ele>634</ele>
        <time>2021-08-06T08:39:57.303Z</time>
      </trkpt>
      <trkpt lat="46.97368" lon="8.77625">
        <ele>633</ele>
        <time>2021-08-06T08:39:58.303Z</time>
      </trkpt>
      <trkpt lat="46.97368" lon="8.77624">
        <ele>633</ele>
        <time>2021-08-06T08:39:59.303Z</time>
      </trkpt>
      <trkpt lat="46.97368" lon="8.77622">
        <ele>633</ele>
        <time>2021-08-06T08:40:00.304Z</time>
      </trkpt>
      <trkpt lat="46.97368" lon="8.77621">
        <ele>633</ele>
        <time>2021-08-06T08:40:01.304Z</time>
      </trkpt>
      <trkpt lat="46.97368" lon="8.7762">
        <ele>633</ele>
        <time>2021-08-06T08:40:02.303Z</time>
      </trkpt>
      <trkpt lat="46.97368" lon="8.77619">
        <ele>633</ele>
        <time>2021-08-06T08:40:03.303Z</time>
      </trkpt>
      <trkpt lat="46.97368" lon="8.77617">
        <ele>633</ele>
        <time>2021-08-06T08:40:04.303Z</time>
      </trkpt>
      <trkpt lat="46.97367" lon="8.77615">
        <ele>633</ele>
        <time>2021-08-06T08:40:05.304Z</time>
      </trkpt>
      <trkpt lat="46.97367" lon="8.77614">
        <ele>634</ele>
        <time>2021-08-06T08:40:06.303Z</time>
      </trkpt>
      <trkpt lat="46.97367" lon="8.77612">
        <ele>634</ele>
        <time>2021-08-06T08:40:07.303Z</time>
      </trkpt>
      <trkpt lat="46.97366" lon="8.77611">
        <ele>634</ele>
        <time>2021-08-06T08:40:08.303Z</time>
      </trkpt>
      <trkpt lat="46.97367" lon="8.77609">
        <ele>635</ele>
        <time>2021-08-06T08:40:09.303Z</time>
      </trkpt>
      <trkpt lat="46.97366" lon="8.77607">
        <ele>635</ele>
        <time>2021-08-06T08:40:10.304Z</time>
      </trkpt>
      <trkpt lat="46.97366" lon="8.77605">
        <ele>634</ele>
        <time>2021-08-06T08:40:11.303Z</time>
      </trkpt>
      <trkpt lat="46.97366" lon="8.77603">
        <ele>634</ele>
        <time>2021-08-06T08:40:12.303Z</time>
      </trkpt>
      <trkpt lat="46.97366" lon="8.77601">
        <ele>634</ele>
        <time>2021-08-06T08:40:13.303Z</time>
      </trkpt>
      <trkpt lat="46.97366" lon="8.776">
        <ele>634</ele>
        <time>2021-08-06T08:40:14.303Z</time>
      </trkpt>
      <trkpt lat="46.97367" lon="8.77598">
        <ele>633</ele>
        <time>2021-08-06T08:40:15.303Z</time>
      </trkpt>
      <trkpt lat="46.97367" lon="8.77597">
        <ele>633</ele>
        <time>2021-08-06T08:40:16.304Z</time>
      </trkpt>
      <trkpt lat="46.97366" lon="8.77596">
        <ele>633</ele>
        <time>2021-08-06T08:40:17.303Z</time>
      </trkpt>
      <trkpt lat="46.97366" lon="8.77594">
        <ele>633</ele>
        <time>2021-08-06T08:40:18.303Z</time>
      </trkpt>
      <trkpt lat="46.97366" lon="8.77592">
        <ele>633</ele>
        <time>2021-08-06T08:40:19.303Z</time>
      </trkpt>
      <trkpt lat="46.97366" lon="8.77591">
        <ele>633</ele>
        <time>2021-08-06T08:40:20.303Z</time>
      </trkpt>
      <trkpt lat="46.97365" lon="8.77589">
        <ele>633</ele>
        <time>2021-08-06T08:40:21.304Z</time>
      </trkpt>
      <trkpt lat="46.97364" lon="8.77587">
        <ele>633</ele>
        <time>2021-08-06T08:40:22.303Z</time>
      </trkpt>
      <trkpt lat="46.97364" lon="8.77586">
        <ele>633</ele>
        <time>2021-08-06T08:40:23.303Z</time>
      </trkpt>
      <trkpt lat="46.97364" lon="8.77584">
        <ele>634</ele>
        <time>2021-08-06T08:40:24.303Z</time>
      </trkpt>
      <trkpt lat="46.97364" lon="8.77583">
        <ele>634</ele>
        <time>2021-08-06T08:40:25.303Z</time>
      </trkpt>
      <trkpt lat="46.97364" lon="8.77582">
        <ele>634</ele>
        <time>2021-08-06T08:40:26.304Z</time>
      </trkpt>
      <trkpt lat="46.97364" lon="8.7758">
        <ele>634</ele>
        <time>2021-08-06T08:40:27.303Z</time>
      </trkpt>
      <trkpt lat="46.97364" lon="8.77579">
        <ele>634</ele>
        <time>2021-08-06T08:40:28.303Z</time>
      </trkpt>
      <trkpt lat="46.97364" lon="8.77578">
        <ele>635</ele>
        <time>2021-08-06T08:40:29.303Z</time>
      </trkpt>
      <trkpt lat="46.97365" lon="8.77576">
        <ele>635</ele>
        <time>2021-08-06T08:40:30.304Z</time>
      </trkpt>
      <trkpt lat="46.97365" lon="8.77575">
        <ele>635</ele>
        <time>2021-08-06T08:40:31.303Z</time>
      </trkpt>
      <trkpt lat="46.97365" lon="8.77574">
        <ele>636</ele>
        <time>2021-08-06T08:40:32.304Z</time>
      </trkpt>
      <trkpt lat="46.97364" lon="8.77573">
        <ele>636</ele>
        <time>2021-08-06T08:40:33.303Z</time>
      </trkpt>
      <trkpt lat="46.97364" lon="8.77572">
        <ele>636</ele>
        <time>2021-08-06T08:40:34.304Z</time>
      </trkpt>
      <trkpt lat="46.97364" lon="8.77571">
        <ele>636</ele>
        <time>2021-08-06T08:40:35.303Z</time>
      </trkpt>
      <trkpt lat="46.97364" lon="8.7757">
        <ele>636</ele>
        <time>2021-08-06T08:40:36.303Z</time>
      </trkpt>
      <trkpt lat="46.97363" lon="8.77569">
        <ele>636</ele>
        <time>2021-08-06T08:40:37.304Z</time>
      </trkpt>
      <trkpt lat="46.97363" lon="8.77569">
        <ele>635</ele>
        <time>2021-08-06T08:40:38.303Z</time>
      </trkpt>
      <trkpt lat="46.97363" lon="8.77568">
        <ele>635</ele>
        <time>2021-08-06T08:40:39.303Z</time>
      </trkpt>
      <trkpt lat="46.97364" lon="8.77567">
        <ele>635</ele>
        <time>2021-08-06T08:40:40.303Z</time>
      </trkpt>
      <trkpt lat="46.97364" lon="8.77567">
        <ele>635</ele>
        <time>2021-08-06T08:40:41.303Z</time>
      </trkpt>
      <trkpt lat="46.97365" lon="8.77566">
        <ele>635</ele>
        <time>2021-08-06T08:40:42.303Z</time>
      </trkpt>
      <trkpt lat="46.97365" lon="8.77564">
        <ele>634</ele>
        <time>2021-08-06T08:40:43.303Z</time>
      </trkpt>
      <trkpt lat="46.97365" lon="8.77563">
        <ele>634</ele>
        <time>2021-08-06T08:40:44.303Z</time>
      </trkpt>
      <trkpt lat="46.97365" lon="8.77561">
        <ele>634</ele>
        <time>2021-08-06T08:40:45.304Z</time>
      </trkpt>
      <trkpt lat="46.97364" lon="8.77559">
        <ele>633</ele>
        <time>2021-08-06T08:40:46.303Z</time>
      </trkpt>
      <trkpt lat="46.97365" lon="8.77557">
        <ele>634</ele>
        <time>2021-08-06T08:40:47.303Z</time>
      </trkpt>
      <trkpt lat="46.97365" lon="8.77556">
        <ele>634</ele>
        <time>2021-08-06T08:40:48.303Z</time>
      </trkpt>
      <trkpt lat="46.97365" lon="8.77555">
        <ele>634</ele>
        <time>2021-08-06T08:40:49.303Z</time>
      </trkpt>
      <trkpt lat="46.97365" lon="8.77553">
        <ele>634</ele>
        <time>2021-08-06T08:40:50.304Z</time>
      </trkpt>
      <trkpt lat="46.97364" lon="8.77551">
        <ele>634</ele>
        <time>2021-08-06T08:40:51.304Z</time>
      </trkpt>
      <trkpt lat="46.97364" lon="8.77549">
        <ele>634</ele>
        <time>2021-08-06T08:40:52.303Z</time>
      </trkpt>
      <trkpt lat="46.97364" lon="8.77547">
        <ele>634</ele>
        <time>2021-08-06T08:40:53.303Z</time>
      </trkpt>
      <trkpt lat="46.97364" lon="8.77546">
        <ele>635</ele>
        <time>2021-08-06T08:40:54.303Z</time>
      </trkpt>
      <trkpt lat="46.97364" lon="8.77544">
        <ele>635</ele>
        <time>2021-08-06T08:40:55.304Z</time>
      </trkpt>
      <trkpt lat="46.97363" lon="8.77541">
        <ele>636</ele>
        <time>2021-08-06T08:40:56.303Z</time>
      </trkpt>
      <trkpt lat="46.97363" lon="8.77539">
        <ele>637</ele>
        <time>2021-08-06T08:40:57.303Z</time>
      </trkpt>
      <trkpt lat="46.97363" lon="8.77537">
        <ele>637</ele>
        <time>2021-08-06T08:40:58.304Z</time>
      </trkpt>
      <trkpt lat="46.97363" lon="8.77535">
        <ele>637</ele>
        <time>2021-08-06T08:40:59.303Z</time>
      </trkpt>
      <trkpt lat="46.97362" lon="8.77533">
        <ele>636</ele>
        <time>2021-08-06T08:41:00.303Z</time>
      </trkpt>
      <trkpt lat="46.97362" lon="8.77531">
        <ele>636</ele>
        <time>2021-08-06T08:41:01.303Z</time>
      </trkpt>
      <trkpt lat="46.97361" lon="8.77529">
        <ele>636</ele>
        <time>2021-08-06T08:41:02.303Z</time>
      </trkpt>
      <trkpt lat="46.97361" lon="8.77528">
        <ele>636</ele>
        <time>2021-08-06T08:41:03.303Z</time>
      </trkpt>
      <trkpt lat="46.97361" lon="8.77527">
        <ele>636</ele>
        <time>2021-08-06T08:41:04.303Z</time>
      </trkpt>
      <trkpt lat="46.97361" lon="8.77525">
        <ele>635</ele>
        <time>2021-08-06T08:41:05.303Z</time>
      </trkpt>
      <trkpt lat="46.97361" lon="8.77524">
        <ele>635</ele>
        <time>2021-08-06T08:41:06.303Z</time>
      </trkpt>
      <trkpt lat="46.97361" lon="8.77522">
        <ele>635</ele>
        <time>2021-08-06T08:41:07.303Z</time>
      </trkpt>
      <trkpt lat="46.9736" lon="8.7752">
        <ele>634</ele>
        <time>2021-08-06T08:41:08.303Z</time>
      </trkpt>
      <trkpt lat="46.9736" lon="8.77519">
        <ele>634</ele>
        <time>2021-08-06T08:41:09.303Z</time>
      </trkpt>
      <trkpt lat="46.9736" lon="8.77517">
        <ele>634</ele>
        <time>2021-08-06T08:41:10.303Z</time>
      </trkpt>
      <trkpt lat="46.97359" lon="8.77516">
        <ele>633</ele>
        <time>2021-08-06T08:41:11.304Z</time>
      </trkpt>
      <trkpt lat="46.97359" lon="8.77515">
        <ele>633</ele>
        <time>2021-08-06T08:41:12.304Z</time>
      </trkpt>
      <trkpt lat="46.97359" lon="8.77513">
        <ele>633</ele>
        <time>2021-08-06T08:41:13.303Z</time>
      </trkpt>
      <trkpt lat="46.97358" lon="8.77511">
        <ele>632</ele>
        <time>2021-08-06T08:41:14.303Z</time>
      </trkpt>
      <trkpt lat="46.97358" lon="8.77509">
        <ele>632</ele>
        <time>2021-08-06T08:41:15.303Z</time>
      </trkpt>
      <trkpt lat="46.97358" lon="8.77507">
        <ele>633</ele>
        <time>2021-08-06T08:41:16.304Z</time>
      </trkpt>
      <trkpt lat="46.97358" lon="8.77506">
        <ele>633</ele>
        <time>2021-08-06T08:41:17.303Z</time>
      </trkpt>
      <trkpt lat="46.97358" lon="8.77504">
        <ele>633</ele>
        <time>2021-08-06T08:41:18.303Z</time>
      </trkpt>
      <trkpt lat="46.97357" lon="8.77503">
        <ele>633</ele>
        <time>2021-08-06T08:41:19.303Z</time>
      </trkpt>
      <trkpt lat="46.97357" lon="8.77501">
        <ele>634</ele>
        <time>2021-08-06T08:41:20.303Z</time>
      </trkpt>
      <trkpt lat="46.97357" lon="8.77499">
        <ele>634</ele>
        <time>2021-08-06T08:41:21.303Z</time>
      </trkpt>
      <trkpt lat="46.97356" lon="8.77497">
        <ele>634</ele>
        <time>2021-08-06T08:41:22.304Z</time>
      </trkpt>
      <trkpt lat="46.97356" lon="8.77495">
        <ele>635</ele>
        <time>2021-08-06T08:41:23.303Z</time>
      </trkpt>
      <trkpt lat="46.97356" lon="8.77494">
        <ele>635</ele>
        <time>2021-08-06T08:41:24.303Z</time>
      </trkpt>
      <trkpt lat="46.97355" lon="8.77492">
        <ele>635</ele>
        <time>2021-08-06T08:41:25.303Z</time>
      </trkpt>
      <trkpt lat="46.97355" lon="8.77491">
        <ele>636</ele>
        <time>2021-08-06T08:41:26.303Z</time>
      </trkpt>
      <trkpt lat="46.97354" lon="8.77489">
        <ele>636</ele>
        <time>2021-08-06T08:41:27.303Z</time>
      </trkpt>
      <trkpt lat="46.97355" lon="8.77488">
        <ele>636</ele>
        <time>2021-08-06T08:41:28.304Z</time>
      </trkpt>
      <trkpt lat="46.97354" lon="8.77487">
        <ele>636</ele>
        <time>2021-08-06T08:41:29.303Z</time>
      </trkpt>
      <trkpt lat="46.97354" lon="8.77486">
        <ele>636</ele>
        <time>2021-08-06T08:41:30.303Z</time>
      </trkpt>
      <trkpt lat="46.97354" lon="8.77484">
        <ele>636</ele>
        <time>2021-08-06T08:41:31.303Z</time>
      </trkpt>
      <trkpt lat="46.97354" lon="8.77483">
        <ele>636</ele>
        <time>2021-08-06T08:41:32.303Z</time>
      </trkpt>
      <trkpt lat="46.97353" lon="8.77481">
        <ele>636</ele>
        <time>2021-08-06T08:41:33.303Z</time>
      </trkpt>
      <trkpt lat="46.97353" lon="8.77479">
        <ele>636</ele>
        <time>2021-08-06T08:41:34.303Z</time>
      </trkpt>
      <trkpt lat="46.97352" lon="8.77478">
        <ele>636</ele>
        <time>2021-08-06T08:41:35.304Z</time>
      </trkpt>
      <trkpt lat="46.97352" lon="8.77476">
        <ele>636</ele>
        <time>2021-08-06T08:41:36.303Z</time>
      </trkpt>
      <trkpt lat="46.97351" lon="8.77474">
        <ele>636</ele>
        <time>2021-08-06T08:41:37.303Z</time>
      </trkpt>
      <trkpt lat="46.97351" lon="8.77473">
        <ele>636</ele>
        <time>2021-08-06T08:41:38.303Z</time>
      </trkpt>
      <trkpt lat="46.97351" lon="8.77472">
        <ele>636</ele>
        <time>2021-08-06T08:41:39.303Z</time>
      </trkpt>
      <trkpt lat="46.97351" lon="8.77471">
        <ele>636</ele>
        <time>2021-08-06T08:41:40.304Z</time>
      </trkpt>
      <trkpt lat="46.97351" lon="8.7747">
        <ele>636</ele>
        <time>2021-08-06T08:41:41.304Z</time>
      </trkpt>
      <trkpt lat="46.97351" lon="8.77468">
        <ele>636</ele>
        <time>2021-08-06T08:41:42.304Z</time>
      </trkpt>
      <trkpt lat="46.97351" lon="8.77466">
        <ele>635</ele>
        <time>2021-08-06T08:41:43.303Z</time>
      </trkpt>
      <trkpt lat="46.97352" lon="8.77465">
        <ele>634</ele>
        <time>2021-08-06T08:41:44.303Z</time>
      </trkpt>
      <trkpt lat="46.97352" lon="8.77463">
        <ele>634</ele>
        <time>2021-08-06T08:41:45.303Z</time>
      </trkpt>
      <trkpt lat="46.97352" lon="8.77461">
        <ele>634</ele>
        <time>2021-08-06T08:41:46.303Z</time>
      </trkpt>
      <trkpt lat="46.97351" lon="8.7746">
        <ele>634</ele>
        <time>2021-08-06T08:41:47.303Z</time>
      </trkpt>
      <trkpt lat="46.97351" lon="8.77458">
        <ele>634</ele>
        <time>2021-08-06T08:41:48.303Z</time>
      </trkpt>
      <trkpt lat="46.9735" lon="8.77456">
        <ele>634</ele>
        <time>2021-08-06T08:41:49.303Z</time>
      </trkpt>
      <trkpt lat="46.9735" lon="8.77454">
        <ele>634</ele>
        <time>2021-08-06T08:41:50.303Z</time>
      </trkpt>
      <trkpt lat="46.97349" lon="8.77453">
        <ele>634</ele>
        <time>2021-08-06T08:41:51.303Z</time>
      </trkpt>
      <trkpt lat="46.97349" lon="8.77451">
        <ele>634</ele>
        <time>2021-08-06T08:41:52.303Z</time>
      </trkpt>
      <trkpt lat="46.97349" lon="8.7745">
        <ele>635</ele>
        <time>2021-08-06T08:41:53.304Z</time>
      </trkpt>
      <trkpt lat="46.97349" lon="8.77449">
        <ele>635</ele>
        <time>2021-08-06T08:41:54.304Z</time>
      </trkpt>
      <trkpt lat="46.97348" lon="8.77447">
        <ele>635</ele>
        <time>2021-08-06T08:41:55.303Z</time>
      </trkpt>
      <trkpt lat="46.97347" lon="8.77444">
        <ele>635</ele>
        <time>2021-08-06T08:41:56.303Z</time>
      </trkpt>
      <trkpt lat="46.97346" lon="8.77442">
        <ele>635</ele>
        <time>2021-08-06T08:41:57.303Z</time>
      </trkpt>
      <trkpt lat="46.97345" lon="8.77441">
        <ele>635</ele>
        <time>2021-08-06T08:41:58.304Z</time>
      </trkpt>
      <trkpt lat="46.97345" lon="8.77439">
        <ele>635</ele>
        <time>2021-08-06T08:41:59.303Z</time>
      </trkpt>
      <trkpt lat="46.97346" lon="8.77438">
        <ele>635</ele>
        <time>2021-08-06T08:42:00.303Z</time>
      </trkpt>
      <trkpt lat="46.97346" lon="8.77436">
        <ele>635</ele>
        <time>2021-08-06T08:42:01.303Z</time>
      </trkpt>
      <trkpt lat="46.97345" lon="8.77435">
        <ele>635</ele>
        <time>2021-08-06T08:42:02.303Z</time>
      </trkpt>
      <trkpt lat="46.97345" lon="8.77433">
        <ele>636</ele>
        <time>2021-08-06T08:42:03.304Z</time>
      </trkpt>
      <trkpt lat="46.97344" lon="8.77433">
        <ele>636</ele>
        <time>2021-08-06T08:42:04.303Z</time>
      </trkpt>
      <trkpt lat="46.97343" lon="8.77431">
        <ele>636</ele>
        <time>2021-08-06T08:42:05.304Z</time>
      </trkpt>
      <trkpt lat="46.97342" lon="8.7743">
        <ele>635</ele>
        <time>2021-08-06T08:42:06.303Z</time>
      </trkpt>
      <trkpt lat="46.9734" lon="8.7743">
        <ele>635</ele>
        <time>2021-08-06T08:42:07.304Z</time>
      </trkpt>
      <trkpt lat="46.97338" lon="8.77431">
        <ele>635</ele>
        <time>2021-08-06T08:42:08.303Z</time>
      </trkpt>
      <trkpt lat="46.97336" lon="8.77431">
        <ele>635</ele>
        <time>2021-08-06T08:42:09.303Z</time>
      </trkpt>
      <trkpt lat="46.97335" lon="8.77432">
        <ele>634</ele>
        <time>2021-08-06T08:42:10.303Z</time>
      </trkpt>
      <trkpt lat="46.97334" lon="8.77432">
        <ele>634</ele>
        <time>2021-08-06T08:42:11.303Z</time>
      </trkpt>
      <trkpt lat="46.97332" lon="8.77432">
        <ele>634</ele>
        <time>2021-08-06T08:42:12.304Z</time>
      </trkpt>
      <trkpt lat="46.9733" lon="8.77431">
        <ele>633</ele>
        <time>2021-08-06T08:42:13.304Z</time>
      </trkpt>
      <trkpt lat="46.97329" lon="8.7743">
        <ele>633</ele>
        <time>2021-08-06T08:42:14.303Z</time>
      </trkpt>
      <trkpt lat="46.97328" lon="8.77429">
        <ele>633</ele>
        <time>2021-08-06T08:42:15.303Z</time>
      </trkpt>
      <trkpt lat="46.97327" lon="8.77428">
        <ele>633</ele>
        <time>2021-08-06T08:42:16.304Z</time>
      </trkpt>
      <trkpt lat="46.97326" lon="8.77426">
        <ele>633</ele>
        <time>2021-08-06T08:42:17.303Z</time>
      </trkpt>
      <trkpt lat="46.97325" lon="8.77425">
        <ele>634</ele>
        <time>2021-08-06T08:42:18.303Z</time>
      </trkpt>
      <trkpt lat="46.97325" lon="8.77424">
        <ele>634</ele>
        <time>2021-08-06T08:42:19.303Z</time>
      </trkpt>
      <trkpt lat="46.97324" lon="8.77424">
        <ele>634</ele>
        <time>2021-08-06T08:42:20.303Z</time>
      </trkpt>
      <trkpt lat="46.97323" lon="8.77423">
        <ele>634</ele>
        <time>2021-08-06T08:42:21.304Z</time>
      </trkpt>
      <trkpt lat="46.97323" lon="8.77423">
        <ele>634</ele>
        <time>2021-08-06T08:42:22.303Z</time>
      </trkpt>
      <trkpt lat="46.97322" lon="8.77421">
        <ele>634</ele>
        <time>2021-08-06T08:42:23.303Z</time>
      </trkpt>
      <trkpt lat="46.97322" lon="8.7742">
        <ele>633</ele>
        <time>2021-08-06T08:42:24.303Z</time>
      </trkpt>
      <trkpt lat="46.97322" lon="8.77419">
        <ele>633</ele>
        <time>2021-08-06T08:42:25.304Z</time>
      </trkpt>
      <trkpt lat="46.97321" lon="8.77417">
        <ele>634</ele>
        <time>2021-08-06T08:42:26.303Z</time>
      </trkpt>
      <trkpt lat="46.97321" lon="8.77416">
        <ele>634</ele>
        <time>2021-08-06T08:42:27.303Z</time>
      </trkpt>
      <trkpt lat="46.9732" lon="8.77415">
        <ele>635</ele>
        <time>2021-08-06T08:42:28.304Z</time>
      </trkpt>
      <trkpt lat="46.97319" lon="8.77413">
        <ele>635</ele>
        <time>2021-08-06T08:42:29.303Z</time>
      </trkpt>
      <trkpt lat="46.97318" lon="8.77412">
        <ele>635</ele>
        <time>2021-08-06T08:42:30.303Z</time>
      </trkpt>
      <trkpt lat="46.97318" lon="8.7741">
        <ele>635</ele>
        <time>2021-08-06T08:42:31.304Z</time>
      </trkpt>
      <trkpt lat="46.97318" lon="8.77408">
        <ele>635</ele>
        <time>2021-08-06T08:42:32.304Z</time>
      </trkpt>
      <trkpt lat="46.97317" lon="8.77407">
        <ele>635</ele>
        <time>2021-08-06T08:42:33.304Z</time>
      </trkpt>
      <trkpt lat="46.97317" lon="8.77406">
        <ele>635</ele>
        <time>2021-08-06T08:42:34.303Z</time>
      </trkpt>
      <trkpt lat="46.97315" lon="8.77405">
        <ele>635</ele>
        <time>2021-08-06T08:42:35.304Z</time>
      </trkpt>
      <trkpt lat="46.97314" lon="8.77404">
        <ele>635</ele>
        <time>2021-08-06T08:42:36.303Z</time>
      </trkpt>
      <trkpt lat="46.97313" lon="8.77401">
        <ele>635</ele>
        <time>2021-08-06T08:42:37.303Z</time>
      </trkpt>
      <trkpt lat="46.97312" lon="8.774">
        <ele>635</ele>
        <time>2021-08-06T08:42:38.303Z</time>
      </trkpt>
      <trkpt lat="46.97312" lon="8.77398">
        <ele>635</ele>
        <time>2021-08-06T08:42:39.304Z</time>
      </trkpt>
      <trkpt lat="46.97311" lon="8.77397">
        <ele>635</ele>
        <time>2021-08-06T08:42:40.304Z</time>
      </trkpt>
      <trkpt lat="46.97311" lon="8.77396">
        <ele>635</ele>
        <time>2021-08-06T08:42:41.303Z</time>
      </trkpt>
      <trkpt lat="46.9731" lon="8.77394">
        <ele>636</ele>
        <time>2021-08-06T08:42:42.303Z</time>
      </trkpt>
      <trkpt lat="46.9731" lon="8.77393">
        <ele>636</ele>
        <time>2021-08-06T08:42:43.304Z</time>
      </trkpt>
      <trkpt lat="46.97309" lon="8.77391">
        <ele>636</ele>
        <time>2021-08-06T08:42:44.304Z</time>
      </trkpt>
      <trkpt lat="46.97309" lon="8.7739">
        <ele>636</ele>
        <time>2021-08-06T08:42:45.303Z</time>
      </trkpt>
      <trkpt lat="46.97309" lon="8.77389">
        <ele>636</ele>
        <time>2021-08-06T08:42:46.303Z</time>
      </trkpt>
      <trkpt lat="46.97309" lon="8.77387">
        <ele>636</ele>
        <time>2021-08-06T08:42:47.304Z</time>
      </trkpt>
      <trkpt lat="46.97308" lon="8.77386">
        <ele>636</ele>
        <time>2021-08-06T08:42:48.304Z</time>
      </trkpt>
      <trkpt lat="46.97308" lon="8.77385">
        <ele>635</ele>
        <time>2021-08-06T08:42:49.303Z</time>
      </trkpt>
      <trkpt lat="46.97308" lon="8.77383">
        <ele>635</ele>
        <time>2021-08-06T08:42:50.303Z</time>
      </trkpt>
      <trkpt lat="46.97309" lon="8.77382">
        <ele>634</ele>
        <time>2021-08-06T08:42:51.303Z</time>
      </trkpt>
      <trkpt lat="46.97309" lon="8.77381">
        <ele>634</ele>
        <time>2021-08-06T08:42:52.304Z</time>
      </trkpt>
      <trkpt lat="46.9731" lon="8.77379">
        <ele>634</ele>
        <time>2021-08-06T08:42:53.303Z</time>
      </trkpt>
      <trkpt lat="46.9731" lon="8.77377">
        <ele>634</ele>
        <time>2021-08-06T08:42:54.303Z</time>
      </trkpt>
      <trkpt lat="46.97311" lon="8.77375">
        <ele>634</ele>
        <time>2021-08-06T08:42:55.303Z</time>
      </trkpt>
      <trkpt lat="46.97311" lon="8.77373">
        <ele>634</ele>
        <time>2021-08-06T08:42:56.303Z</time>
      </trkpt>
      <trkpt lat="46.97311" lon="8.77371">
        <ele>635</ele>
        <time>2021-08-06T08:42:57.303Z</time>
      </trkpt>
      <trkpt lat="46.9731" lon="8.7737">
        <ele>635</ele>
        <time>2021-08-06T08:42:58.303Z</time>
      </trkpt>
      <trkpt lat="46.9731" lon="8.77369">
        <ele>635</ele>
        <time>2021-08-06T08:42:59.303Z</time>
      </trkpt>
      <trkpt lat="46.97309" lon="8.77368">
        <ele>635</ele>
        <time>2021-08-06T08:43:00.303Z</time>
      </trkpt>
      <trkpt lat="46.97309" lon="8.77366">
        <ele>635</ele>
        <time>2021-08-06T08:43:01.303Z</time>
      </trkpt>
      <trkpt lat="46.97309" lon="8.77365">
        <ele>635</ele>
        <time>2021-08-06T08:43:02.303Z</time>
      </trkpt>
      <trkpt lat="46.97308" lon="8.77364">
        <ele>634</ele>
        <time>2021-08-06T08:43:03.303Z</time>
      </trkpt>
      <trkpt lat="46.97308" lon="8.77363">
        <ele>634</ele>
        <time>2021-08-06T08:43:04.303Z</time>
      </trkpt>
      <trkpt lat="46.97307" lon="8.77361">
        <ele>633</ele>
        <time>2021-08-06T08:43:05.303Z</time>
      </trkpt>
      <trkpt lat="46.97307" lon="8.77359">
        <ele>633</ele>
        <time>2021-08-06T08:43:06.304Z</time>
      </trkpt>
      <trkpt lat="46.97306" lon="8.77358">
        <ele>633</ele>
        <time>2021-08-06T08:43:07.304Z</time>
      </trkpt>
      <trkpt lat="46.97306" lon="8.77357">
        <ele>633</ele>
        <time>2021-08-06T08:43:08.303Z</time>
      </trkpt>
      <trkpt lat="46.97306" lon="8.77355">
        <ele>633</ele>
        <time>2021-08-06T08:43:09.304Z</time>
      </trkpt>
      <trkpt lat="46.97305" lon="8.77353">
        <ele>633</ele>
        <time>2021-08-06T08:43:10.303Z</time>
      </trkpt>
      <trkpt lat="46.97305" lon="8.77352">
        <ele>633</ele>
        <time>2021-08-06T08:43:11.304Z</time>
      </trkpt>
      <trkpt lat="46.97304" lon="8.7735">
        <ele>633</ele>
        <time>2021-08-06T08:43:12.303Z</time>
      </trkpt>
      <trkpt lat="46.97304" lon="8.77349">
        <ele>633</ele>
        <time>2021-08-06T08:43:13.304Z</time>
      </trkpt>
      <trkpt lat="46.97303" lon="8.77347">
        <ele>633</ele>
        <time>2021-08-06T08:43:14.303Z</time>
      </trkpt>
      <trkpt lat="46.97302" lon="8.77346">
        <ele>633</ele>
        <time>2021-08-06T08:43:15.303Z</time>
      </trkpt>
      <trkpt lat="46.97301" lon="8.77344">
        <ele>633</ele>
        <time>2021-08-06T08:43:16.304Z</time>
      </trkpt>
      <trkpt lat="46.973" lon="8.77342">
        <ele>633</ele>
        <time>2021-08-06T08:43:17.303Z</time>
      </trkpt>
      <trkpt lat="46.97299" lon="8.7734">
        <ele>633</ele>
        <time>2021-08-06T08:43:18.303Z</time>
      </trkpt>
      <trkpt lat="46.97299" lon="8.77338">
        <ele>632</ele>
        <time>2021-08-06T08:43:19.303Z</time>
      </trkpt>
      <trkpt lat="46.97298" lon="8.77336">
        <ele>632</ele>
        <time>2021-08-06T08:43:20.303Z</time>
      </trkpt>
      <trkpt lat="46.97298" lon="8.77335">
        <ele>631</ele>
        <time>2021-08-06T08:43:21.303Z</time>
      </trkpt>
      <trkpt lat="46.97298" lon="8.77334">
        <ele>631</ele>
        <time>2021-08-06T08:43:22.303Z</time>
      </trkpt>
      <trkpt lat="46.97298" lon="8.77332">
        <ele>631</ele>
        <time>2021-08-06T08:43:23.303Z</time>
      </trkpt>
      <trkpt lat="46.97298" lon="8.7733">
        <ele>631</ele>
        <time>2021-08-06T08:43:24.303Z</time>
      </trkpt>
      <trkpt lat="46.97297" lon="8.77328">
        <ele>632</ele>
        <time>2021-08-06T08:43:25.303Z</time>
      </trkpt>
      <trkpt lat="46.97297" lon="8.77327">
        <ele>632</ele>
        <time>2021-08-06T08:43:26.303Z</time>
      </trkpt>
      <trkpt lat="46.97296" lon="8.77325">
        <ele>632</ele>
        <time>2021-08-06T08:43:27.303Z</time>
      </trkpt>
      <trkpt lat="46.97295" lon="8.77324">
        <ele>632</ele>
        <time>2021-08-06T08:43:28.303Z</time>
      </trkpt>
      <trkpt lat="46.97294" lon="8.77322">
        <ele>631</ele>
        <time>2021-08-06T08:43:29.303Z</time>
      </trkpt>
      <trkpt lat="46.97293" lon="8.77321">
        <ele>631</ele>
        <time>2021-08-06T08:43:30.303Z</time>
      </trkpt>
      <trkpt lat="46.97292" lon="8.7732">
        <ele>630</ele>
        <time>2021-08-06T08:43:31.303Z</time>
      </trkpt>
      <trkpt lat="46.97291" lon="8.77319">
        <ele>630</ele>
        <time>2021-08-06T08:43:32.303Z</time>
      </trkpt>
      <trkpt lat="46.97291" lon="8.77317">
        <ele>630</ele>
        <time>2021-08-06T08:43:33.303Z</time>
      </trkpt>
      <trkpt lat="46.9729" lon="8.77316">
        <ele>629</ele>
        <time>2021-08-06T08:43:34.304Z</time>
      </trkpt>
      <trkpt lat="46.97289" lon="8.77315">
        <ele>629</ele>
        <time>2021-08-06T08:43:35.303Z</time>
      </trkpt>
      <trkpt lat="46.97288" lon="8.77313">
        <ele>628</ele>
        <time>2021-08-06T08:43:36.303Z</time>
      </trkpt>
      <trkpt lat="46.97287" lon="8.77312">
        <ele>628</ele>
        <time>2021-08-06T08:43:37.303Z</time>
      </trkpt>
      <trkpt lat="46.97286" lon="8.7731">
        <ele>628</ele>
        <time>2021-08-06T08:43:38.303Z</time>
      </trkpt>
      <trkpt lat="46.97286" lon="8.77308">
        <ele>628</ele>
        <time>2021-08-06T08:43:39.303Z</time>
      </trkpt>
      <trkpt lat="46.97285" lon="8.77306">
        <ele>628</ele>
        <time>2021-08-06T08:43:40.303Z</time>
      </trkpt>
      <trkpt lat="46.97284" lon="8.77305">
        <ele>629</ele>
        <time>2021-08-06T08:43:41.303Z</time>
      </trkpt>
      <trkpt lat="46.97283" lon="8.77304">
        <ele>629</ele>
        <time>2021-08-06T08:43:42.303Z</time>
      </trkpt>
      <trkpt lat="46.97283" lon="8.77302">
        <ele>629</ele>
        <time>2021-08-06T08:43:43.303Z</time>
      </trkpt>
      <trkpt lat="46.97282" lon="8.77301">
        <ele>630</ele>
        <time>2021-08-06T08:43:44.303Z</time>
      </trkpt>
      <trkpt lat="46.97282" lon="8.773">
        <ele>630</ele>
        <time>2021-08-06T08:43:45.303Z</time>
      </trkpt>
      <trkpt lat="46.97282" lon="8.77299">
        <ele>630</ele>
        <time>2021-08-06T08:43:46.303Z</time>
      </trkpt>
      <trkpt lat="46.97281" lon="8.77297">
        <ele>631</ele>
        <time>2021-08-06T08:43:47.303Z</time>
      </trkpt>
      <trkpt lat="46.97281" lon="8.77296">
        <ele>631</ele>
        <time>2021-08-06T08:43:48.303Z</time>
      </trkpt>
      <trkpt lat="46.9728" lon="8.77295">
        <ele>631</ele>
        <time>2021-08-06T08:43:49.303Z</time>
      </trkpt>
      <trkpt lat="46.9728" lon="8.77295">
        <ele>632</ele>
        <time>2021-08-06T08:43:50.303Z</time>
      </trkpt>
      <trkpt lat="46.9728" lon="8.77291">
        <ele>631</ele>
        <time>2021-08-06T08:43:51.305Z</time>
      </trkpt>
      <trkpt lat="46.9728" lon="8.77289">
        <ele>630</ele>
        <time>2021-08-06T08:43:52.305Z</time>
      </trkpt>
      <trkpt lat="46.97279" lon="8.77288">
        <ele>630</ele>
        <time>2021-08-06T08:43:53.304Z</time>
      </trkpt>
      <trkpt lat="46.97279" lon="8.77287">
        <ele>630</ele>
        <time>2021-08-06T08:43:54.305Z</time>
      </trkpt>
      <trkpt lat="46.97279" lon="8.77287">
        <ele>630</ele>
        <time>2021-08-06T08:43:55.305Z</time>
      </trkpt>
      <trkpt lat="46.97278" lon="8.77286">
        <ele>630</ele>
        <time>2021-08-06T08:43:56.305Z</time>
      </trkpt>
      <trkpt lat="46.97278" lon="8.77285">
        <ele>629</ele>
        <time>2021-08-06T08:43:57.305Z</time>
      </trkpt>
      <trkpt lat="46.97277" lon="8.77283">
        <ele>629</ele>
        <time>2021-08-06T08:43:58.305Z</time>
      </trkpt>
      <trkpt lat="46.97276" lon="8.77282">
        <ele>628</ele>
        <time>2021-08-06T08:43:59.305Z</time>
      </trkpt>
      <trkpt lat="46.97276" lon="8.77281">
        <ele>628</ele>
        <time>2021-08-06T08:44:00.305Z</time>
      </trkpt>
      <trkpt lat="46.97276" lon="8.7728">
        <ele>628</ele>
        <time>2021-08-06T08:44:01.304Z</time>
      </trkpt>
      <trkpt lat="46.97275" lon="8.77279">
        <ele>629</ele>
        <time>2021-08-06T08:44:02.304Z</time>
      </trkpt>
      <trkpt lat="46.97275" lon="8.77278">
        <ele>629</ele>
        <time>2021-08-06T08:44:03.305Z</time>
      </trkpt>
      <trkpt lat="46.97274" lon="8.77276">
        <ele>630</ele>
        <time>2021-08-06T08:44:04.305Z</time>
      </trkpt>
      <trkpt lat="46.97274" lon="8.77275">
        <ele>630</ele>
        <time>2021-08-06T08:44:05.305Z</time>
      </trkpt>
      <trkpt lat="46.97273" lon="8.77273">
        <ele>631</ele>
        <time>2021-08-06T08:44:06.304Z</time>
      </trkpt>
      <trkpt lat="46.97273" lon="8.77271">
        <ele>631</ele>
        <time>2021-08-06T08:44:07.304Z</time>
      </trkpt>
      <trkpt lat="46.97272" lon="8.7727">
        <ele>631</ele>
        <time>2021-08-06T08:44:08.304Z</time>
      </trkpt>
      <trkpt lat="46.97271" lon="8.77268">
        <ele>631</ele>
        <time>2021-08-06T08:44:09.304Z</time>
      </trkpt>
      <trkpt lat="46.97271" lon="8.77266">
        <ele>631</ele>
        <time>2021-08-06T08:44:10.304Z</time>
      </trkpt>
      <trkpt lat="46.9727" lon="8.77265">
        <ele>632</ele>
        <time>2021-08-06T08:44:11.305Z</time>
      </trkpt>
      <trkpt lat="46.9727" lon="8.77264">
        <ele>632</ele>
        <time>2021-08-06T08:44:12.305Z</time>
      </trkpt>
      <trkpt lat="46.9727" lon="8.77262">
        <ele>632</ele>
        <time>2021-08-06T08:44:13.304Z</time>
      </trkpt>
      <trkpt lat="46.9727" lon="8.7726">
        <ele>633</ele>
        <time>2021-08-06T08:44:14.305Z</time>
      </trkpt>
      <trkpt lat="46.9727" lon="8.77259">
        <ele>633</ele>
        <time>2021-08-06T08:44:15.304Z</time>
      </trkpt>
      <trkpt lat="46.97269" lon="8.77259">
        <ele>633</ele>
        <time>2021-08-06T08:44:16.304Z</time>
      </trkpt>
      <trkpt lat="46.97269" lon="8.77258">
        <ele>633</ele>
        <time>2021-08-06T08:44:17.305Z</time>
      </trkpt>
      <trkpt lat="46.97268" lon="8.77257">
        <ele>633</ele>
        <time>2021-08-06T08:44:18.305Z</time>
      </trkpt>
      <trkpt lat="46.97267" lon="8.77256">
        <ele>633</ele>
        <time>2021-08-06T08:44:19.305Z</time>
      </trkpt>
      <trkpt lat="46.97267" lon="8.77254">
        <ele>633</ele>
        <time>2021-08-06T08:44:20.305Z</time>
      </trkpt>
      <trkpt lat="46.97268" lon="8.77253">
        <ele>633</ele>
        <time>2021-08-06T08:44:21.305Z</time>
      </trkpt>
      <trkpt lat="46.97268" lon="8.77252">
        <ele>633</ele>
        <time>2021-08-06T08:44:22.304Z</time>
      </trkpt>
      <trkpt lat="46.97268" lon="8.77249">
        <ele>633</ele>
        <time>2021-08-06T08:44:23.304Z</time>
      </trkpt>
      <trkpt lat="46.97267" lon="8.77247">
        <ele>632</ele>
        <time>2021-08-06T08:44:24.305Z</time>
      </trkpt>
      <trkpt lat="46.97267" lon="8.77246">
        <ele>632</ele>
        <time>2021-08-06T08:44:25.305Z</time>
      </trkpt>
      <trkpt lat="46.97266" lon="8.77244">
        <ele>632</ele>
        <time>2021-08-06T08:44:26.305Z</time>
      </trkpt>
      <trkpt lat="46.97266" lon="8.77242">
        <ele>632</ele>
        <time>2021-08-06T08:44:27.305Z</time>
      </trkpt>
      <trkpt lat="46.97265" lon="8.7724">
        <ele>632</ele>
        <time>2021-08-06T08:44:28.305Z</time>
      </trkpt>
      <trkpt lat="46.97264" lon="8.77239">
        <ele>631</ele>
        <time>2021-08-06T08:44:29.305Z</time>
      </trkpt>
      <trkpt lat="46.97263" lon="8.77239">
        <ele>631</ele>
        <time>2021-08-06T08:44:30.305Z</time>
      </trkpt>
      <trkpt lat="46.97263" lon="8.77238">
        <ele>631</ele>
        <time>2021-08-06T08:44:31.305Z</time>
      </trkpt>
      <trkpt lat="46.97262" lon="8.77236">
        <ele>631</ele>
        <time>2021-08-06T08:44:32.305Z</time>
      </trkpt>
      <trkpt lat="46.97262" lon="8.77235">
        <ele>631</ele>
        <time>2021-08-06T08:44:33.304Z</time>
      </trkpt>
      <trkpt lat="46.97261" lon="8.77234">
        <ele>630</ele>
        <time>2021-08-06T08:44:34.305Z</time>
      </trkpt>
      <trkpt lat="46.97261" lon="8.77232">
        <ele>631</ele>
        <time>2021-08-06T08:44:35.304Z</time>
      </trkpt>
      <trkpt lat="46.9726" lon="8.77231">
        <ele>631</ele>
        <time>2021-08-06T08:44:36.305Z</time>
      </trkpt>
      <trkpt lat="46.97259" lon="8.77229">
        <ele>631</ele>
        <time>2021-08-06T08:44:37.304Z</time>
      </trkpt>
      <trkpt lat="46.97259" lon="8.77228">
        <ele>630</ele>
        <time>2021-08-06T08:44:38.304Z</time>
      </trkpt>
      <trkpt lat="46.97258" lon="8.77226">
        <ele>630</ele>
        <time>2021-08-06T08:44:39.304Z</time>
      </trkpt>
      <trkpt lat="46.97257" lon="8.77225">
        <ele>630</ele>
        <time>2021-08-06T08:44:40.305Z</time>
      </trkpt>
      <trkpt lat="46.97256" lon="8.77222">
        <ele>630</ele>
        <time>2021-08-06T08:44:41.304Z</time>
      </trkpt>
      <trkpt lat="46.97255" lon="8.7722">
        <ele>630</ele>
        <time>2021-08-06T08:44:42.305Z</time>
      </trkpt>
      <trkpt lat="46.97254" lon="8.77218">
        <ele>630</ele>
        <time>2021-08-06T08:44:43.305Z</time>
      </trkpt>
      <trkpt lat="46.97254" lon="8.77216">
        <ele>630</ele>
        <time>2021-08-06T08:44:44.304Z</time>
      </trkpt>
      <trkpt lat="46.97253" lon="8.77215">
        <ele>630</ele>
        <time>2021-08-06T08:44:45.305Z</time>
      </trkpt>
      <trkpt lat="46.97253" lon="8.77214">
        <ele>630</ele>
        <time>2021-08-06T08:44:46.305Z</time>
      </trkpt>
      <trkpt lat="46.97252" lon="8.77213">
        <ele>631</ele>
        <time>2021-08-06T08:44:47.305Z</time>
      </trkpt>
      <trkpt lat="46.97251" lon="8.77211">
        <ele>631</ele>
        <time>2021-08-06T08:44:48.304Z</time>
      </trkpt>
      <trkpt lat="46.97251" lon="8.7721">
        <ele>631</ele>
        <time>2021-08-06T08:44:49.304Z</time>
      </trkpt>
      <trkpt lat="46.9725" lon="8.77208">
        <ele>631</ele>
        <time>2021-08-06T08:44:50.305Z</time>
      </trkpt>
      <trkpt lat="46.9725" lon="8.77207">
        <ele>631</ele>
        <time>2021-08-06T08:44:51.304Z</time>
      </trkpt>
      <trkpt lat="46.97249" lon="8.77206">
        <ele>631</ele>
        <time>2021-08-06T08:44:52.305Z</time>
      </trkpt>
      <trkpt lat="46.97249" lon="8.77205">
        <ele>631</ele>
        <time>2021-08-06T08:44:53.305Z</time>
      </trkpt>
      <trkpt lat="46.97249" lon="8.77203">
        <ele>631</ele>
        <time>2021-08-06T08:44:54.305Z</time>
      </trkpt>
      <trkpt lat="46.97249" lon="8.77202">
        <ele>631</ele>
        <time>2021-08-06T08:44:55.305Z</time>
      </trkpt>
      <trkpt lat="46.97249" lon="8.772">
        <ele>631</ele>
        <time>2021-08-06T08:44:56.304Z</time>
      </trkpt>
      <trkpt lat="46.97249" lon="8.77199">
        <ele>631</ele>
        <time>2021-08-06T08:44:57.305Z</time>
      </trkpt>
      <trkpt lat="46.97247" lon="8.77198">
        <ele>631</ele>
        <time>2021-08-06T08:44:58.305Z</time>
      </trkpt>
      <trkpt lat="46.97247" lon="8.77198">
        <ele>631</ele>
        <time>2021-08-06T08:44:59.305Z</time>
      </trkpt>
      <trkpt lat="46.97246" lon="8.77198">
        <ele>631</ele>
        <time>2021-08-06T08:45:00.305Z</time>
      </trkpt>
      <trkpt lat="46.97246" lon="8.77198">
        <ele>631</ele>
        <time>2021-08-06T08:45:01.305Z</time>
      </trkpt>
      <trkpt lat="46.97246" lon="8.77197">
        <ele>630</ele>
        <time>2021-08-06T08:45:02.305Z</time>
      </trkpt>
      <trkpt lat="46.97246" lon="8.77197">
        <ele>630</ele>
        <time>2021-08-06T08:45:03.305Z</time>
      </trkpt>
      <trkpt lat="46.97245" lon="8.77195">
        <ele>631</ele>
        <time>2021-08-06T08:45:04.304Z</time>
      </trkpt>
      <trkpt lat="46.97245" lon="8.77194">
        <ele>631</ele>
        <time>2021-08-06T08:45:05.305Z</time>
      </trkpt>
      <trkpt lat="46.97244" lon="8.77194">
        <ele>631</ele>
        <time>2021-08-06T08:45:06.304Z</time>
      </trkpt>
      <trkpt lat="46.97244" lon="8.77193">
        <ele>631</ele>
        <time>2021-08-06T08:45:07.305Z</time>
      </trkpt>
      <trkpt lat="46.97243" lon="8.77191">
        <ele>631</ele>
        <time>2021-08-06T08:45:08.305Z</time>
      </trkpt>
      <trkpt lat="46.97243" lon="8.7719">
        <ele>631</ele>
        <time>2021-08-06T08:45:09.305Z</time>
      </trkpt>
      <trkpt lat="46.97243" lon="8.77191">
        <ele>631</ele>
        <time>2021-08-06T08:45:10.305Z</time>
      </trkpt>
      <trkpt lat="46.97243" lon="8.77192">
        <ele>631</ele>
        <time>2021-08-06T08:45:11.304Z</time>
      </trkpt>
      <trkpt lat="46.97243" lon="8.77194">
        <ele>631</ele>
        <time>2021-08-06T08:45:12.305Z</time>
      </trkpt>
      <trkpt lat="46.97244" lon="8.77195">
        <ele>631</ele>
        <time>2021-08-06T08:45:13.304Z</time>
      </trkpt>
      <trkpt lat="46.97244" lon="8.77196">
        <ele>632</ele>
        <time>2021-08-06T08:45:14.305Z</time>
      </trkpt>
      <trkpt lat="46.97245" lon="8.77197">
        <ele>632</ele>
        <time>2021-08-06T08:45:15.305Z</time>
      </trkpt>
      <trkpt lat="46.97245" lon="8.77198">
        <ele>633</ele>
        <time>2021-08-06T08:45:16.305Z</time>
      </trkpt>
      <trkpt lat="46.97245" lon="8.772">
        <ele>633</ele>
        <time>2021-08-06T08:45:17.305Z</time>
      </trkpt>
      <trkpt lat="46.97244" lon="8.77202">
        <ele>633</ele>
        <time>2021-08-06T08:45:18.305Z</time>
      </trkpt>
      <trkpt lat="46.97244" lon="8.77204">
        <ele>633</ele>
        <time>2021-08-06T08:45:19.305Z</time>
      </trkpt>
      <trkpt lat="46.97244" lon="8.77205">
        <ele>633</ele>
        <time>2021-08-06T08:45:20.304Z</time>
      </trkpt>
      <trkpt lat="46.97243" lon="8.77206">
        <ele>633</ele>
        <time>2021-08-06T08:45:21.305Z</time>
      </trkpt>
      <trkpt lat="46.97242" lon="8.77207">
        <ele>633</ele>
        <time>2021-08-06T08:45:22.305Z</time>
      </trkpt>
      <trkpt lat="46.97241" lon="8.77207">
        <ele>632</ele>
        <time>2021-08-06T08:45:23.305Z</time>
      </trkpt>
      <trkpt lat="46.9724" lon="8.77207">
        <ele>632</ele>
        <time>2021-08-06T08:45:24.304Z</time>
      </trkpt>
      <trkpt lat="46.97239" lon="8.77207">
        <ele>632</ele>
        <time>2021-08-06T08:45:25.305Z</time>
      </trkpt>
      <trkpt lat="46.97239" lon="8.77207">
        <ele>632</ele>
        <time>2021-08-06T08:45:26.305Z</time>
      </trkpt>
      <trkpt lat="46.97238" lon="8.77208">
        <ele>632</ele>
        <time>2021-08-06T08:45:27.304Z</time>
      </trkpt>
      <trkpt lat="46.97237" lon="8.77208">
        <ele>631</ele>
        <time>2021-08-06T08:45:28.305Z</time>
      </trkpt>
      <trkpt lat="46.97236" lon="8.77208">
        <ele>631</ele>
        <time>2021-08-06T08:45:29.305Z</time>
      </trkpt>
      <trkpt lat="46.97235" lon="8.77208">
        <ele>630</ele>
        <time>2021-08-06T08:45:30.305Z</time>
      </trkpt>
      <trkpt lat="46.97234" lon="8.77208">
        <ele>630</ele>
        <time>2021-08-06T08:45:31.305Z</time>
      </trkpt>
      <trkpt lat="46.97233" lon="8.77208">
        <ele>630</ele>
        <time>2021-08-06T08:45:32.305Z</time>
      </trkpt>
      <trkpt lat="46.97232" lon="8.77208">
        <ele>630</ele>
        <time>2021-08-06T08:45:33.305Z</time>
      </trkpt>
      <trkpt lat="46.9723" lon="8.77209">
        <ele>630</ele>
        <time>2021-08-06T08:45:34.305Z</time>
      </trkpt>
      <trkpt lat="46.97229" lon="8.77209">
        <ele>630</ele>
        <time>2021-08-06T08:45:35.305Z</time>
      </trkpt>
      <trkpt lat="46.97228" lon="8.7721">
        <ele>630</ele>
        <time>2021-08-06T08:45:36.305Z</time>
      </trkpt>
      <trkpt lat="46.97226" lon="8.7721">
        <ele>630</ele>
        <time>2021-08-06T08:45:37.305Z</time>
      </trkpt>
      <trkpt lat="46.97225" lon="8.77211">
        <ele>630</ele>
        <time>2021-08-06T08:45:38.305Z</time>
      </trkpt>
      <trkpt lat="46.97225" lon="8.77211">
        <ele>630</ele>
        <time>2021-08-06T08:45:39.304Z</time>
      </trkpt>
      <trkpt lat="46.97224" lon="8.7721">
        <ele>630</ele>
        <time>2021-08-06T08:45:40.304Z</time>
      </trkpt>
      <trkpt lat="46.97223" lon="8.77211">
        <ele>629</ele>
        <time>2021-08-06T08:45:41.304Z</time>
      </trkpt>
      <trkpt lat="46.97221" lon="8.77211">
        <ele>629</ele>
        <time>2021-08-06T08:45:42.305Z</time>
      </trkpt>
      <trkpt lat="46.9722" lon="8.7721">
        <ele>629</ele>
        <time>2021-08-06T08:45:43.304Z</time>
      </trkpt>
      <trkpt lat="46.97219" lon="8.77211">
        <ele>629</ele>
        <time>2021-08-06T08:45:44.304Z</time>
      </trkpt>
      <trkpt lat="46.97217" lon="8.77211">
        <ele>630</ele>
        <time>2021-08-06T08:45:45.305Z</time>
      </trkpt>
      <trkpt lat="46.97216" lon="8.77211">
        <ele>630</ele>
        <time>2021-08-06T08:45:46.305Z</time>
      </trkpt>
      <trkpt lat="46.97215" lon="8.77211">
        <ele>630</ele>
        <time>2021-08-06T08:45:47.305Z</time>
      </trkpt>
      <trkpt lat="46.97214" lon="8.77211">
        <ele>630</ele>
        <time>2021-08-06T08:45:48.305Z</time>
      </trkpt>
      <trkpt lat="46.97212" lon="8.77211">
        <ele>631</ele>
        <time>2021-08-06T08:45:49.305Z</time>
      </trkpt>
      <trkpt lat="46.97211" lon="8.77212">
        <ele>631</ele>
        <time>2021-08-06T08:45:50.305Z</time>
      </trkpt>
      <trkpt lat="46.97209" lon="8.77212">
        <ele>631</ele>
        <time>2021-08-06T08:45:51.305Z</time>
      </trkpt>
      <trkpt lat="46.97208" lon="8.77213">
        <ele>631</ele>
        <time>2021-08-06T08:45:52.304Z</time>
      </trkpt>
      <trkpt lat="46.97207" lon="8.77213">
        <ele>631</ele>
        <time>2021-08-06T08:45:53.304Z</time>
      </trkpt>
      <trkpt lat="46.97206" lon="8.77213">
        <ele>631</ele>
        <time>2021-08-06T08:45:54.304Z</time>
      </trkpt>
      <trkpt lat="46.97205" lon="8.77213">
        <ele>631</ele>
        <time>2021-08-06T08:45:55.305Z</time>
      </trkpt>
      <trkpt lat="46.97203" lon="8.77213">
        <ele>631</ele>
        <time>2021-08-06T08:45:56.305Z</time>
      </trkpt>
      <trkpt lat="46.97202" lon="8.77213">
        <ele>632</ele>
        <time>2021-08-06T08:45:57.304Z</time>
      </trkpt>
      <trkpt lat="46.972" lon="8.77212">
        <ele>632</ele>
        <time>2021-08-06T08:45:58.305Z</time>
      </trkpt>
      <trkpt lat="46.97199" lon="8.77212">
        <ele>633</ele>
        <time>2021-08-06T08:45:59.304Z</time>
      </trkpt>
      <trkpt lat="46.97197" lon="8.77212">
        <ele>633</ele>
        <time>2021-08-06T08:46:00.305Z</time>
      </trkpt>
      <trkpt lat="46.97196" lon="8.77212">
        <ele>633</ele>
        <time>2021-08-06T08:46:01.305Z</time>
      </trkpt>
      <trkpt lat="46.97195" lon="8.77211">
        <ele>634</ele>
        <time>2021-08-06T08:46:02.305Z</time>
      </trkpt>
      <trkpt lat="46.97193" lon="8.77211">
        <ele>634</ele>
        <time>2021-08-06T08:46:03.305Z</time>
      </trkpt>
      <trkpt lat="46.97192" lon="8.77211">
        <ele>634</ele>
        <time>2021-08-06T08:46:04.304Z</time>
      </trkpt>
      <trkpt lat="46.97191" lon="8.77211">
        <ele>634</ele>
        <time>2021-08-06T08:46:05.304Z</time>
      </trkpt>
      <trkpt lat="46.97189" lon="8.7721">
        <ele>634</ele>
        <time>2021-08-06T08:46:06.304Z</time>
      </trkpt>
      <trkpt lat="46.97188" lon="8.7721">
        <ele>634</ele>
        <time>2021-08-06T08:46:07.304Z</time>
      </trkpt>
      <trkpt lat="46.97187" lon="8.7721">
        <ele>634</ele>
        <time>2021-08-06T08:46:08.305Z</time>
      </trkpt>
      <trkpt lat="46.97186" lon="8.7721">
        <ele>634</ele>
        <time>2021-08-06T08:46:09.305Z</time>
      </trkpt>
      <trkpt lat="46.97185" lon="8.7721">
        <ele>634</ele>
        <time>2021-08-06T08:46:10.304Z</time>
      </trkpt>
      <trkpt lat="46.97185" lon="8.7721">
        <ele>634</ele>
        <time>2021-08-06T08:46:11.304Z</time>
      </trkpt>
      <trkpt lat="46.97184" lon="8.77209">
        <ele>635</ele>
        <time>2021-08-06T08:46:12.305Z</time>
      </trkpt>
      <trkpt lat="46.97183" lon="8.77209">
        <ele>635</ele>
        <time>2021-08-06T08:46:13.305Z</time>
      </trkpt>
      <trkpt lat="46.97182" lon="8.77208">
        <ele>635</ele>
        <time>2021-08-06T08:46:14.305Z</time>
      </trkpt>
      <trkpt lat="46.9718" lon="8.77208">
        <ele>635</ele>
        <time>2021-08-06T08:46:15.304Z</time>
      </trkpt>
      <trkpt lat="46.97179" lon="8.77209">
        <ele>635</ele>
        <time>2021-08-06T08:46:16.304Z</time>
      </trkpt>
      <trkpt lat="46.97178" lon="8.77209">
        <ele>635</ele>
        <time>2021-08-06T08:46:17.305Z</time>
      </trkpt>
      <trkpt lat="46.97177" lon="8.77209">
        <ele>635</ele>
        <time>2021-08-06T08:46:18.304Z</time>
      </trkpt>
      <trkpt lat="46.97177" lon="8.77209">
        <ele>634</ele>
        <time>2021-08-06T08:46:19.305Z</time>
      </trkpt>
      <trkpt lat="46.97176" lon="8.7721">
        <ele>634</ele>
        <time>2021-08-06T08:46:20.304Z</time>
      </trkpt>
      <trkpt lat="46.97175" lon="8.77211">
        <ele>634</ele>
        <time>2021-08-06T08:46:21.304Z</time>
      </trkpt>
      <trkpt lat="46.97174" lon="8.77211">
        <ele>634</ele>
        <time>2021-08-06T08:46:22.304Z</time>
      </trkpt>
      <trkpt lat="46.97173" lon="8.77212">
        <ele>635</ele>
        <time>2021-08-06T08:46:23.305Z</time>
      </trkpt>
      <trkpt lat="46.97172" lon="8.77211">
        <ele>635</ele>
        <time>2021-08-06T08:46:24.305Z</time>
      </trkpt>
      <trkpt lat="46.97172" lon="8.7721">
        <ele>635</ele>
        <time>2021-08-06T08:46:25.304Z</time>
      </trkpt>
      <trkpt lat="46.97171" lon="8.77209">
        <ele>634</ele>
        <time>2021-08-06T08:46:26.304Z</time>
      </trkpt>
      <trkpt lat="46.97171" lon="8.77208">
        <ele>634</ele>
        <time>2021-08-06T08:46:27.304Z</time>
      </trkpt>
      <trkpt lat="46.97171" lon="8.77206">
        <ele>634</ele>
        <time>2021-08-06T08:46:28.305Z</time>
      </trkpt>
      <trkpt lat="46.97171" lon="8.77206">
        <ele>634</ele>
        <time>2021-08-06T08:46:29.304Z</time>
      </trkpt>
      <trkpt lat="46.97171" lon="8.77206">
        <ele>634</ele>
        <time>2021-08-06T08:46:30.304Z</time>
      </trkpt>
      <trkpt lat="46.97172" lon="8.77206">
        <ele>635</ele>
        <time>2021-08-06T08:46:31.304Z</time>
      </trkpt>
      <trkpt lat="46.97172" lon="8.77205">
        <ele>635</ele>
        <time>2021-08-06T08:46:32.304Z</time>
      </trkpt>
      <trkpt lat="46.97171" lon="8.77205">
        <ele>635</ele>
        <time>2021-08-06T08:46:33.305Z</time>
      </trkpt>
      <trkpt lat="46.97171" lon="8.77205">
        <ele>635</ele>
        <time>2021-08-06T08:46:34.305Z</time>
      </trkpt>
      <trkpt lat="46.97171" lon="8.77204">
        <ele>635</ele>
        <time>2021-08-06T08:46:35.304Z</time>
      </trkpt>
      <trkpt lat="46.97172" lon="8.77205">
        <ele>634</ele>
        <time>2021-08-06T08:46:36.304Z</time>
      </trkpt>
      <trkpt lat="46.97172" lon="8.77204">
        <ele>634</ele>
        <time>2021-08-06T08:46:37.304Z</time>
      </trkpt>
      <trkpt lat="46.97172" lon="8.77204">
        <ele>634</ele>
        <time>2021-08-06T08:46:38.304Z</time>
      </trkpt>
      <trkpt lat="46.97173" lon="8.77203">
        <ele>633</ele>
        <time>2021-08-06T08:46:39.305Z</time>
      </trkpt>
      <trkpt lat="46.97173" lon="8.77203">
        <ele>633</ele>
        <time>2021-08-06T08:46:40.304Z</time>
      </trkpt>
      <trkpt lat="46.97174" lon="8.77203">
        <ele>633</ele>
        <time>2021-08-06T08:46:41.304Z</time>
      </trkpt>
      <trkpt lat="46.97174" lon="8.77202">
        <ele>633</ele>
        <time>2021-08-06T08:46:42.304Z</time>
      </trkpt>
      <trkpt lat="46.97174" lon="8.77202">
        <ele>632</ele>
        <time>2021-08-06T08:46:43.305Z</time>
      </trkpt>
      <trkpt lat="46.97174" lon="8.77201">
        <ele>632</ele>
        <time>2021-08-06T08:46:44.304Z</time>
      </trkpt>
      <trkpt lat="46.97173" lon="8.772">
        <ele>632</ele>
        <time>2021-08-06T08:46:45.304Z</time>
      </trkpt>
      <trkpt lat="46.97173" lon="8.77199">
        <ele>632</ele>
        <time>2021-08-06T08:46:46.305Z</time>
      </trkpt>
      <trkpt lat="46.97173" lon="8.77198">
        <ele>632</ele>
        <time>2021-08-06T08:46:47.305Z</time>
      </trkpt>
      <trkpt lat="46.97173" lon="8.77198">
        <ele>633</ele>
        <time>2021-08-06T08:46:48.304Z</time>
      </trkpt>
      <trkpt lat="46.97173" lon="8.77197">
        <ele>633</ele>
        <time>2021-08-06T08:46:49.304Z</time>
      </trkpt>
      <trkpt lat="46.97173" lon="8.77197">
        <ele>633</ele>
        <time>2021-08-06T08:46:50.304Z</time>
      </trkpt>
      <trkpt lat="46.97173" lon="8.77196">
        <ele>633</ele>
        <time>2021-08-06T08:46:51.304Z</time>
      </trkpt>
      <trkpt lat="46.97173" lon="8.77195">
        <ele>634</ele>
        <time>2021-08-06T08:46:52.304Z</time>
      </trkpt>
      <trkpt lat="46.97173" lon="8.77195">
        <ele>634</ele>
        <time>2021-08-06T08:46:53.305Z</time>
      </trkpt>
      <trkpt lat="46.97173" lon="8.77195">
        <ele>634</ele>
        <time>2021-08-06T08:46:54.305Z</time>
      </trkpt>
      <trkpt lat="46.97174" lon="8.77194">
        <ele>635</ele>
        <time>2021-08-06T08:46:55.304Z</time>
      </trkpt>
      <trkpt lat="46.97174" lon="8.77194">
        <ele>636</ele>
        <time>2021-08-06T08:46:56.305Z</time>
      </trkpt>
      <trkpt lat="46.97175" lon="8.77193">
        <ele>636</ele>
        <time>2021-08-06T08:46:57.305Z</time>
      </trkpt>
      <trkpt lat="46.97175" lon="8.77193">
        <ele>636</ele>
        <time>2021-08-06T08:46:58.304Z</time>
      </trkpt>
      <trkpt lat="46.97175" lon="8.77193">
        <ele>636</ele>
        <time>2021-08-06T08:46:59.305Z</time>
      </trkpt>
      <trkpt lat="46.97175" lon="8.77192">
        <ele>636</ele>
        <time>2021-08-06T08:47:00.305Z</time>
      </trkpt>
      <trkpt lat="46.97175" lon="8.77191">
        <ele>637</ele>
        <time>2021-08-06T08:47:01.305Z</time>
      </trkpt>
      <trkpt lat="46.97175" lon="8.77191">
        <ele>637</ele>
        <time>2021-08-06T08:47:02.305Z</time>
      </trkpt>
      <trkpt lat="46.97175" lon="8.77191">
        <ele>638</ele>
        <time>2021-08-06T08:47:03.305Z</time>
      </trkpt>
      <trkpt lat="46.97175" lon="8.7719">
        <ele>638</ele>
        <time>2021-08-06T08:47:04.304Z</time>
      </trkpt>
      <trkpt lat="46.97175" lon="8.7719">
        <ele>639</ele>
        <time>2021-08-06T08:47:05.304Z</time>
      </trkpt>
      <trkpt lat="46.97176" lon="8.77189">
        <ele>639</ele>
        <time>2021-08-06T08:47:06.305Z</time>
      </trkpt>
      <trkpt lat="46.97176" lon="8.77189">
        <ele>639</ele>
        <time>2021-08-06T08:47:07.305Z</time>
      </trkpt>
      <trkpt lat="46.97177" lon="8.77188">
        <ele>639</ele>
        <time>2021-08-06T08:47:08.304Z</time>
      </trkpt>
      <trkpt lat="46.97177" lon="8.77188">
        <ele>639</ele>
        <time>2021-08-06T08:47:09.304Z</time>
      </trkpt>
      <trkpt lat="46.97177" lon="8.77188">
        <ele>639</ele>
        <time>2021-08-06T08:47:10.305Z</time>
      </trkpt>
      <trkpt lat="46.97178" lon="8.77188">
        <ele>640</ele>
        <time>2021-08-06T08:47:11.305Z</time>
      </trkpt>
      <trkpt lat="46.97178" lon="8.77188">
        <ele>640</ele>
        <time>2021-08-06T08:47:12.305Z</time>
      </trkpt>
      <trkpt lat="46.97178" lon="8.77187">
        <ele>640</ele>
        <time>2021-08-06T08:47:13.304Z</time>
      </trkpt>
      <trkpt lat="46.97178" lon="8.77187">
        <ele>640</ele>
        <time>2021-08-06T08:47:14.305Z</time>
      </trkpt>
      <trkpt lat="46.97178" lon="8.77186">
        <ele>641</ele>
        <time>2021-08-06T08:47:15.305Z</time>
      </trkpt>
      <trkpt lat="46.97178" lon="8.77186">
        <ele>641</ele>
        <time>2021-08-06T08:47:16.305Z</time>
      </trkpt>
      <trkpt lat="46.97178" lon="8.77185">
        <ele>641</ele>
        <time>2021-08-06T08:47:17.304Z</time>
      </trkpt>
      <trkpt lat="46.97179" lon="8.77184">
        <ele>642</ele>
        <time>2021-08-06T08:47:18.304Z</time>
      </trkpt>
      <trkpt lat="46.97179" lon="8.77184">
        <ele>642</ele>
        <time>2021-08-06T08:47:19.305Z</time>
      </trkpt>
      <trkpt lat="46.97179" lon="8.77183">
        <ele>643</ele>
        <time>2021-08-06T08:47:20.305Z</time>
      </trkpt>
      <trkpt lat="46.9718" lon="8.77182">
        <ele>643</ele>
        <time>2021-08-06T08:47:21.304Z</time>
      </trkpt>
      <trkpt lat="46.9718" lon="8.77182">
        <ele>643</ele>
        <time>2021-08-06T08:47:22.304Z</time>
      </trkpt>
      <trkpt lat="46.9718" lon="8.77181">
        <ele>643</ele>
        <time>2021-08-06T08:47:23.305Z</time>
      </trkpt>
      <trkpt lat="46.9718" lon="8.7718">
        <ele>643</ele>
        <time>2021-08-06T08:47:24.304Z</time>
      </trkpt>
      <trkpt lat="46.97179" lon="8.77179">
        <ele>644</ele>
        <time>2021-08-06T08:47:25.304Z</time>
      </trkpt>
      <trkpt lat="46.97178" lon="8.77179">
        <ele>644</ele>
        <time>2021-08-06T08:47:26.304Z</time>
      </trkpt>
      <trkpt lat="46.97177" lon="8.77178">
        <ele>644</ele>
        <time>2021-08-06T08:47:27.304Z</time>
      </trkpt>
      <trkpt lat="46.97176" lon="8.77178">
        <ele>644</ele>
        <time>2021-08-06T08:47:28.304Z</time>
      </trkpt>
      <trkpt lat="46.97174" lon="8.77178">
        <ele>644</ele>
        <time>2021-08-06T08:47:29.304Z</time>
      </trkpt>
      <trkpt lat="46.97172" lon="8.77177">
        <ele>644</ele>
        <time>2021-08-06T08:47:30.304Z</time>
      </trkpt>
      <trkpt lat="46.97171" lon="8.77176">
        <ele>644</ele>
        <time>2021-08-06T08:47:31.304Z</time>
      </trkpt>
      <trkpt lat="46.97171" lon="8.77176">
        <ele>643</ele>
        <time>2021-08-06T08:47:32.304Z</time>
      </trkpt>
      <trkpt lat="46.9717" lon="8.77175">
        <ele>643</ele>
        <time>2021-08-06T08:47:33.305Z</time>
      </trkpt>
      <trkpt lat="46.9717" lon="8.77174">
        <ele>644</ele>
        <time>2021-08-06T08:47:34.305Z</time>
      </trkpt>
      <trkpt lat="46.9717" lon="8.77174">
        <ele>645</ele>
        <time>2021-08-06T08:47:35.304Z</time>
      </trkpt>
      <trkpt lat="46.97171" lon="8.77174">
        <ele>647</ele>
        <time>2021-08-06T08:47:36.305Z</time>
      </trkpt>
      <trkpt lat="46.97171" lon="8.77174">
        <ele>647</ele>
        <time>2021-08-06T08:47:37.304Z</time>
      </trkpt>
      <trkpt lat="46.97172" lon="8.77174">
        <ele>648</ele>
        <time>2021-08-06T08:47:38.306Z</time>
      </trkpt>
      <trkpt lat="46.97172" lon="8.77173">
        <ele>649</ele>
        <time>2021-08-06T08:47:39.306Z</time>
      </trkpt>
      <trkpt lat="46.97171" lon="8.77173">
        <ele>649</ele>
        <time>2021-08-06T08:47:40.305Z</time>
      </trkpt>
      <trkpt lat="46.9717" lon="8.77172">
        <ele>650</ele>
        <time>2021-08-06T08:47:41.305Z</time>
      </trkpt>
      <trkpt lat="46.97169" lon="8.77171">
        <ele>650</ele>
        <time>2021-08-06T08:47:42.306Z</time>
      </trkpt>
      <trkpt lat="46.97169" lon="8.77171">
        <ele>650</ele>
        <time>2021-08-06T08:47:43.306Z</time>
      </trkpt>
      <trkpt lat="46.97168" lon="8.77172">
        <ele>650</ele>
        <time>2021-08-06T08:47:44.306Z</time>
      </trkpt>
      <trkpt lat="46.97168" lon="8.77172">
        <ele>650</ele>
        <time>2021-08-06T08:47:45.306Z</time>
      </trkpt>
      <trkpt lat="46.97167" lon="8.77173">
        <ele>651</ele>
        <time>2021-08-06T08:47:46.305Z</time>
      </trkpt>
      <trkpt lat="46.97167" lon="8.77173">
        <ele>651</ele>
        <time>2021-08-06T08:47:47.306Z</time>
      </trkpt>
      <trkpt lat="46.97166" lon="8.77174">
        <ele>650</ele>
        <time>2021-08-06T08:47:48.306Z</time>
      </trkpt>
      <trkpt lat="46.97165" lon="8.77175">
        <ele>650</ele>
        <time>2021-08-06T08:47:49.306Z</time>
      </trkpt>
      <trkpt lat="46.97165" lon="8.77175">
        <ele>650</ele>
        <time>2021-08-06T08:47:50.306Z</time>
      </trkpt>
      <trkpt lat="46.97164" lon="8.77175">
        <ele>649</ele>
        <time>2021-08-06T08:47:51.306Z</time>
      </trkpt>
      <trkpt lat="46.97163" lon="8.77176">
        <ele>649</ele>
        <time>2021-08-06T08:47:52.306Z</time>
      </trkpt>
      <trkpt lat="46.97163" lon="8.77176">
        <ele>649</ele>
        <time>2021-08-06T08:47:53.306Z</time>
      </trkpt>
      <trkpt lat="46.97162" lon="8.77175">
        <ele>648</ele>
        <time>2021-08-06T08:47:54.306Z</time>
      </trkpt>
      <trkpt lat="46.97161" lon="8.77175">
        <ele>648</ele>
        <time>2021-08-06T08:47:55.305Z</time>
      </trkpt>
      <trkpt lat="46.97161" lon="8.77175">
        <ele>649</ele>
        <time>2021-08-06T08:47:56.306Z</time>
      </trkpt>
      <trkpt lat="46.9716" lon="8.77175">
        <ele>649</ele>
        <time>2021-08-06T08:47:57.306Z</time>
      </trkpt>
      <trkpt lat="46.9716" lon="8.77176">
        <ele>648</ele>
        <time>2021-08-06T08:47:58.306Z</time>
      </trkpt>
      <trkpt lat="46.97159" lon="8.77176">
        <ele>648</ele>
        <time>2021-08-06T08:47:59.306Z</time>
      </trkpt>
      <trkpt lat="46.97158" lon="8.77176">
        <ele>648</ele>
        <time>2021-08-06T08:48:00.306Z</time>
      </trkpt>
      <trkpt lat="46.97158" lon="8.77177">
        <ele>649</ele>
        <time>2021-08-06T08:48:01.305Z</time>
      </trkpt>
      <trkpt lat="46.97157" lon="8.77177">
        <ele>649</ele>
        <time>2021-08-06T08:48:02.305Z</time>
      </trkpt>
      <trkpt lat="46.97156" lon="8.77178">
        <ele>650</ele>
        <time>2021-08-06T08:48:03.306Z</time>
      </trkpt>
      <trkpt lat="46.97156" lon="8.77178">
        <ele>650</ele>
        <time>2021-08-06T08:48:04.306Z</time>
      </trkpt>
      <trkpt lat="46.97156" lon="8.77179">
        <ele>651</ele>
        <time>2021-08-06T08:48:05.306Z</time>
      </trkpt>
      <trkpt lat="46.97155" lon="8.77179">
        <ele>651</ele>
        <time>2021-08-06T08:48:06.306Z</time>
      </trkpt>
      <trkpt lat="46.97155" lon="8.7718">
        <ele>651</ele>
        <time>2021-08-06T08:48:07.306Z</time>
      </trkpt>
      <trkpt lat="46.97154" lon="8.7718">
        <ele>651</ele>
        <time>2021-08-06T08:48:08.306Z</time>
      </trkpt>
      <trkpt lat="46.97154" lon="8.77181">
        <ele>651</ele>
        <time>2021-08-06T08:48:09.305Z</time>
      </trkpt>
      <trkpt lat="46.97153" lon="8.77181">
        <ele>651</ele>
        <time>2021-08-06T08:48:10.305Z</time>
      </trkpt>
      <trkpt lat="46.97153" lon="8.77181">
        <ele>651</ele>
        <time>2021-08-06T08:48:11.306Z</time>
      </trkpt>
      <trkpt lat="46.97152" lon="8.77182">
        <ele>650</ele>
        <time>2021-08-06T08:48:12.305Z</time>
      </trkpt>
      <trkpt lat="46.97152" lon="8.77182">
        <ele>650</ele>
        <time>2021-08-06T08:48:13.306Z</time>
      </trkpt>
      <trkpt lat="46.97152" lon="8.77182">
        <ele>650</ele>
        <time>2021-08-06T08:48:14.305Z</time>
      </trkpt>
      <trkpt lat="46.97151" lon="8.77182">
        <ele>650</ele>
        <time>2021-08-06T08:48:15.306Z</time>
      </trkpt>
      <trkpt lat="46.97151" lon="8.77182">
        <ele>650</ele>
        <time>2021-08-06T08:48:16.305Z</time>
      </trkpt>
      <trkpt lat="46.9715" lon="8.77182">
        <ele>650</ele>
        <time>2021-08-06T08:48:17.306Z</time>
      </trkpt>
      <trkpt lat="46.97151" lon="8.77183">
        <ele>651</ele>
        <time>2021-08-06T08:48:18.307Z</time>
      </trkpt>
      <trkpt lat="46.97151" lon="8.77181">
        <ele>651</ele>
        <time>2021-08-06T08:48:19.307Z</time>
      </trkpt>
      <trkpt lat="46.97151" lon="8.77182">
        <ele>650</ele>
        <time>2021-08-06T08:48:20.307Z</time>
      </trkpt>
      <trkpt lat="46.97151" lon="8.77182">
        <ele>650</ele>
        <time>2021-08-06T08:48:21.306Z</time>
      </trkpt>
      <trkpt lat="46.9715" lon="8.77182">
        <ele>650</ele>
        <time>2021-08-06T08:48:22.307Z</time>
      </trkpt>
      <trkpt lat="46.9715" lon="8.77182">
        <ele>650</ele>
        <time>2021-08-06T08:48:23.307Z</time>
      </trkpt>
      <trkpt lat="46.97148" lon="8.77183">
        <ele>652</ele>
        <time>2021-08-06T08:48:24.307Z</time>
      </trkpt>
      <trkpt lat="46.97148" lon="8.77183">
        <ele>652</ele>
        <time>2021-08-06T08:48:25.307Z</time>
      </trkpt>
      <trkpt lat="46.97147" lon="8.77185">
        <ele>652</ele>
        <time>2021-08-06T08:48:26.306Z</time>
      </trkpt>
      <trkpt lat="46.97148" lon="8.77182">
        <ele>652</ele>
        <time>2021-08-06T08:48:27.308Z</time>
      </trkpt>
      <trkpt lat="46.97147" lon="8.77182">
        <ele>653</ele>
        <time>2021-08-06T08:48:28.307Z</time>
      </trkpt>
      <trkpt lat="46.97146" lon="8.77182">
        <ele>653</ele>
        <time>2021-08-06T08:48:29.307Z</time>
      </trkpt>
      <trkpt lat="46.97146" lon="8.77182">
        <ele>653</ele>
        <time>2021-08-06T08:48:30.307Z</time>
      </trkpt>
      <trkpt lat="46.97147" lon="8.77183">
        <ele>654</ele>
        <time>2021-08-06T08:48:31.308Z</time>
      </trkpt>
      <trkpt lat="46.97146" lon="8.77184">
        <ele>655</ele>
        <time>2021-08-06T08:48:32.308Z</time>
      </trkpt>
      <trkpt lat="46.97145" lon="8.77186">
        <ele>655</ele>
        <time>2021-08-06T08:48:33.307Z</time>
      </trkpt>
      <trkpt lat="46.97145" lon="8.77186">
        <ele>656</ele>
        <time>2021-08-06T08:48:34.307Z</time>
      </trkpt>
      <trkpt lat="46.97144" lon="8.77187">
        <ele>656</ele>
        <time>2021-08-06T08:48:35.307Z</time>
      </trkpt>
      <trkpt lat="46.97143" lon="8.77187">
        <ele>656</ele>
        <time>2021-08-06T08:48:36.308Z</time>
      </trkpt>
      <trkpt lat="46.97143" lon="8.77186">
        <ele>657</ele>
        <time>2021-08-06T08:48:37.307Z</time>
      </trkpt>
      <trkpt lat="46.97142" lon="8.77187">
        <ele>657</ele>
        <time>2021-08-06T08:48:38.307Z</time>
      </trkpt>
      <trkpt lat="46.97142" lon="8.77187">
        <ele>657</ele>
        <time>2021-08-06T08:48:39.307Z</time>
      </trkpt>
      <trkpt lat="46.97141" lon="8.77187">
        <ele>657</ele>
        <time>2021-08-06T08:48:40.308Z</time>
      </trkpt>
      <trkpt lat="46.9714" lon="8.77187">
        <ele>657</ele>
        <time>2021-08-06T08:48:41.307Z</time>
      </trkpt>
      <trkpt lat="46.97139" lon="8.77188">
        <ele>658</ele>
        <time>2021-08-06T08:48:42.307Z</time>
      </trkpt>
      <trkpt lat="46.97139" lon="8.77188">
        <ele>658</ele>
        <time>2021-08-06T08:48:43.307Z</time>
      </trkpt>
      <trkpt lat="46.97138" lon="8.77189">
        <ele>658</ele>
        <time>2021-08-06T08:48:44.308Z</time>
      </trkpt>
      <trkpt lat="46.97137" lon="8.77189">
        <ele>658</ele>
        <time>2021-08-06T08:48:45.308Z</time>
      </trkpt>
      <trkpt lat="46.97137" lon="8.7719">
        <ele>658</ele>
        <time>2021-08-06T08:48:46.307Z</time>
      </trkpt>
      <trkpt lat="46.97136" lon="8.7719">
        <ele>657</ele>
        <time>2021-08-06T08:48:47.307Z</time>
      </trkpt>
      <trkpt lat="46.97136" lon="8.77191">
        <ele>657</ele>
        <time>2021-08-06T08:48:48.308Z</time>
      </trkpt>
      <trkpt lat="46.97135" lon="8.77191">
        <ele>657</ele>
        <time>2021-08-06T08:48:49.308Z</time>
      </trkpt>
      <trkpt lat="46.97134" lon="8.77191">
        <ele>657</ele>
        <time>2021-08-06T08:48:50.308Z</time>
      </trkpt>
      <trkpt lat="46.97133" lon="8.77191">
        <ele>657</ele>
        <time>2021-08-06T08:48:51.308Z</time>
      </trkpt>
      <trkpt lat="46.97133" lon="8.77191">
        <ele>657</ele>
        <time>2021-08-06T08:48:52.308Z</time>
      </trkpt>
      <trkpt lat="46.97133" lon="8.77191">
        <ele>657</ele>
        <time>2021-08-06T08:48:53.307Z</time>
      </trkpt>
      <trkpt lat="46.97132" lon="8.77192">
        <ele>658</ele>
        <time>2021-08-06T08:48:54.307Z</time>
      </trkpt>
      <trkpt lat="46.97132" lon="8.77192">
        <ele>658</ele>
        <time>2021-08-06T08:48:55.307Z</time>
      </trkpt>
      <trkpt lat="46.97131" lon="8.77193">
        <ele>657</ele>
        <time>2021-08-06T08:48:56.307Z</time>
      </trkpt>
      <trkpt lat="46.97131" lon="8.77193">
        <ele>657</ele>
        <time>2021-08-06T08:48:57.307Z</time>
      </trkpt>
      <trkpt lat="46.9713" lon="8.77193">
        <ele>657</ele>
        <time>2021-08-06T08:48:58.307Z</time>
      </trkpt>
      <trkpt lat="46.9713" lon="8.77193">
        <ele>657</ele>
        <time>2021-08-06T08:48:59.307Z</time>
      </trkpt>
      <trkpt lat="46.97129" lon="8.77193">
        <ele>657</ele>
        <time>2021-08-06T08:49:00.307Z</time>
      </trkpt>
      <trkpt lat="46.97128" lon="8.77194">
        <ele>658</ele>
        <time>2021-08-06T08:49:01.307Z</time>
      </trkpt>
      <trkpt lat="46.97128" lon="8.77194">
        <ele>659</ele>
        <time>2021-08-06T08:49:02.307Z</time>
      </trkpt>
      <trkpt lat="46.97127" lon="8.77194">
        <ele>659</ele>
        <time>2021-08-06T08:49:03.307Z</time>
      </trkpt>
      <trkpt lat="46.97127" lon="8.77195">
        <ele>659</ele>
        <time>2021-08-06T08:49:04.307Z</time>
      </trkpt>
      <trkpt lat="46.97127" lon="8.77195">
        <ele>659</ele>
        <time>2021-08-06T08:49:05.307Z</time>
      </trkpt>
      <trkpt lat="46.97126" lon="8.77195">
        <ele>659</ele>
        <time>2021-08-06T08:49:06.307Z</time>
      </trkpt>
      <trkpt lat="46.97126" lon="8.77195">
        <ele>659</ele>
        <time>2021-08-06T08:49:07.307Z</time>
      </trkpt>
      <trkpt lat="46.97126" lon="8.77194">
        <ele>658</ele>
        <time>2021-08-06T08:49:08.307Z</time>
      </trkpt>
      <trkpt lat="46.97125" lon="8.77194">
        <ele>658</ele>
        <time>2021-08-06T08:49:09.307Z</time>
      </trkpt>
      <trkpt lat="46.97125" lon="8.77194">
        <ele>658</ele>
        <time>2021-08-06T08:49:10.307Z</time>
      </trkpt>
      <trkpt lat="46.97124" lon="8.77194">
        <ele>658</ele>
        <time>2021-08-06T08:49:11.307Z</time>
      </trkpt>
      <trkpt lat="46.97124" lon="8.77194">
        <ele>659</ele>
        <time>2021-08-06T08:49:12.307Z</time>
      </trkpt>
      <trkpt lat="46.97123" lon="8.77194">
        <ele>659</ele>
        <time>2021-08-06T08:49:13.307Z</time>
      </trkpt>
      <trkpt lat="46.97122" lon="8.77194">
        <ele>659</ele>
        <time>2021-08-06T08:49:14.307Z</time>
      </trkpt>
      <trkpt lat="46.97122" lon="8.77194">
        <ele>659</ele>
        <time>2021-08-06T08:49:15.308Z</time>
      </trkpt>
      <trkpt lat="46.97122" lon="8.77195">
        <ele>659</ele>
        <time>2021-08-06T08:49:16.307Z</time>
      </trkpt>
      <trkpt lat="46.97121" lon="8.77196">
        <ele>658</ele>
        <time>2021-08-06T08:49:17.308Z</time>
      </trkpt>
      <trkpt lat="46.97121" lon="8.77196">
        <ele>658</ele>
        <time>2021-08-06T08:49:18.307Z</time>
      </trkpt>
      <trkpt lat="46.9712" lon="8.77197">
        <ele>658</ele>
        <time>2021-08-06T08:49:19.307Z</time>
      </trkpt>
      <trkpt lat="46.9712" lon="8.77198">
        <ele>658</ele>
        <time>2021-08-06T08:49:20.307Z</time>
      </trkpt>
      <trkpt lat="46.97119" lon="8.77199">
        <ele>658</ele>
        <time>2021-08-06T08:49:21.307Z</time>
      </trkpt>
      <trkpt lat="46.97119" lon="8.77201">
        <ele>658</ele>
        <time>2021-08-06T08:49:22.307Z</time>
      </trkpt>
      <trkpt lat="46.97118" lon="8.77202">
        <ele>658</ele>
        <time>2021-08-06T08:49:23.307Z</time>
      </trkpt>
      <trkpt lat="46.97118" lon="8.77203">
        <ele>658</ele>
        <time>2021-08-06T08:49:24.307Z</time>
      </trkpt>
      <trkpt lat="46.97117" lon="8.77204">
        <ele>658</ele>
        <time>2021-08-06T08:49:25.307Z</time>
      </trkpt>
      <trkpt lat="46.97116" lon="8.77205">
        <ele>659</ele>
        <time>2021-08-06T08:49:26.307Z</time>
      </trkpt>
      <trkpt lat="46.97116" lon="8.77206">
        <ele>659</ele>
        <time>2021-08-06T08:49:27.308Z</time>
      </trkpt>
      <trkpt lat="46.97115" lon="8.77207">
        <ele>660</ele>
        <time>2021-08-06T08:49:28.307Z</time>
      </trkpt>
      <trkpt lat="46.97115" lon="8.77207">
        <ele>660</ele>
        <time>2021-08-06T08:49:29.307Z</time>
      </trkpt>
      <trkpt lat="46.97115" lon="8.77207">
        <ele>661</ele>
        <time>2021-08-06T08:49:30.307Z</time>
      </trkpt>
      <trkpt lat="46.97114" lon="8.77208">
        <ele>661</ele>
        <time>2021-08-06T08:49:31.307Z</time>
      </trkpt>
      <trkpt lat="46.97114" lon="8.77208">
        <ele>662</ele>
        <time>2021-08-06T08:49:32.307Z</time>
      </trkpt>
      <trkpt lat="46.97113" lon="8.77209">
        <ele>662</ele>
        <time>2021-08-06T08:49:33.308Z</time>
      </trkpt>
      <trkpt lat="46.97113" lon="8.77209">
        <ele>663</ele>
        <time>2021-08-06T08:49:34.307Z</time>
      </trkpt>
      <trkpt lat="46.97113" lon="8.7721">
        <ele>663</ele>
        <time>2021-08-06T08:49:35.307Z</time>
      </trkpt>
      <trkpt lat="46.97113" lon="8.77211">
        <ele>663</ele>
        <time>2021-08-06T08:49:36.307Z</time>
      </trkpt>
      <trkpt lat="46.97112" lon="8.77211">
        <ele>662</ele>
        <time>2021-08-06T08:49:37.307Z</time>
      </trkpt>
      <trkpt lat="46.97112" lon="8.77212">
        <ele>661</ele>
        <time>2021-08-06T08:49:38.308Z</time>
      </trkpt>
      <trkpt lat="46.97111" lon="8.77213">
        <ele>661</ele>
        <time>2021-08-06T08:49:39.307Z</time>
      </trkpt>
      <trkpt lat="46.97111" lon="8.77214">
        <ele>660</ele>
        <time>2021-08-06T08:49:40.308Z</time>
      </trkpt>
      <trkpt lat="46.9711" lon="8.77215">
        <ele>660</ele>
        <time>2021-08-06T08:49:41.308Z</time>
      </trkpt>
      <trkpt lat="46.9711" lon="8.77215">
        <ele>660</ele>
        <time>2021-08-06T08:49:42.307Z</time>
      </trkpt>
      <trkpt lat="46.97109" lon="8.77214">
        <ele>660</ele>
        <time>2021-08-06T08:49:43.307Z</time>
      </trkpt>
      <trkpt lat="46.97108" lon="8.77214">
        <ele>661</ele>
        <time>2021-08-06T08:49:44.308Z</time>
      </trkpt>
      <trkpt lat="46.97107" lon="8.77213">
        <ele>661</ele>
        <time>2021-08-06T08:49:45.307Z</time>
      </trkpt>
      <trkpt lat="46.97107" lon="8.77213">
        <ele>661</ele>
        <time>2021-08-06T08:49:46.308Z</time>
      </trkpt>
      <trkpt lat="46.97106" lon="8.77213">
        <ele>661</ele>
        <time>2021-08-06T08:49:47.308Z</time>
      </trkpt>
      <trkpt lat="46.97105" lon="8.77213">
        <ele>662</ele>
        <time>2021-08-06T08:49:48.307Z</time>
      </trkpt>
      <trkpt lat="46.97105" lon="8.77213">
        <ele>662</ele>
        <time>2021-08-06T08:49:49.307Z</time>
      </trkpt>
      <trkpt lat="46.97104" lon="8.77213">
        <ele>662</ele>
        <time>2021-08-06T08:49:50.307Z</time>
      </trkpt>
      <trkpt lat="46.97103" lon="8.77213">
        <ele>662</ele>
        <time>2021-08-06T08:49:51.308Z</time>
      </trkpt>
      <trkpt lat="46.97102" lon="8.77213">
        <ele>663</ele>
        <time>2021-08-06T08:49:52.308Z</time>
      </trkpt>
      <trkpt lat="46.97102" lon="8.77213">
        <ele>663</ele>
        <time>2021-08-06T08:49:53.308Z</time>
      </trkpt>
      <trkpt lat="46.97101" lon="8.77212">
        <ele>663</ele>
        <time>2021-08-06T08:49:54.308Z</time>
      </trkpt>
      <trkpt lat="46.971" lon="8.77212">
        <ele>663</ele>
        <time>2021-08-06T08:49:55.307Z</time>
      </trkpt>
      <trkpt lat="46.971" lon="8.77212">
        <ele>663</ele>
        <time>2021-08-06T08:49:56.307Z</time>
      </trkpt>
      <trkpt lat="46.971" lon="8.77212">
        <ele>663</ele>
        <time>2021-08-06T08:49:57.308Z</time>
      </trkpt>
      <trkpt lat="46.97099" lon="8.77212">
        <ele>662</ele>
        <time>2021-08-06T08:49:58.307Z</time>
      </trkpt>
      <trkpt lat="46.97099" lon="8.77212">
        <ele>662</ele>
        <time>2021-08-06T08:49:59.307Z</time>
      </trkpt>
      <trkpt lat="46.97098" lon="8.77212">
        <ele>663</ele>
        <time>2021-08-06T08:50:00.308Z</time>
      </trkpt>
      <trkpt lat="46.97098" lon="8.77212">
        <ele>663</ele>
        <time>2021-08-06T08:50:01.308Z</time>
      </trkpt>
      <trkpt lat="46.97098" lon="8.77212">
        <ele>663</ele>
        <time>2021-08-06T08:50:02.308Z</time>
      </trkpt>
      <trkpt lat="46.97098" lon="8.77213">
        <ele>663</ele>
        <time>2021-08-06T08:50:03.307Z</time>
      </trkpt>
      <trkpt lat="46.97097" lon="8.77213">
        <ele>663</ele>
        <time>2021-08-06T08:50:04.308Z</time>
      </trkpt>
      <trkpt lat="46.97096" lon="8.77212">
        <ele>663</ele>
        <time>2021-08-06T08:50:05.308Z</time>
      </trkpt>
      <trkpt lat="46.97096" lon="8.77212">
        <ele>663</ele>
        <time>2021-08-06T08:50:06.307Z</time>
      </trkpt>
      <trkpt lat="46.97095" lon="8.77211">
        <ele>664</ele>
        <time>2021-08-06T08:50:07.307Z</time>
      </trkpt>
      <trkpt lat="46.97095" lon="8.77212">
        <ele>664</ele>
        <time>2021-08-06T08:50:08.307Z</time>
      </trkpt>
      <trkpt lat="46.97094" lon="8.77212">
        <ele>665</ele>
        <time>2021-08-06T08:50:09.308Z</time>
      </trkpt>
      <trkpt lat="46.97094" lon="8.77212">
        <ele>665</ele>
        <time>2021-08-06T08:50:10.307Z</time>
      </trkpt>
      <trkpt lat="46.97093" lon="8.77212">
        <ele>665</ele>
        <time>2021-08-06T08:50:11.308Z</time>
      </trkpt>
      <trkpt lat="46.97093" lon="8.77212">
        <ele>665</ele>
        <time>2021-08-06T08:50:12.307Z</time>
      </trkpt>
      <trkpt lat="46.97093" lon="8.77212">
        <ele>666</ele>
        <time>2021-08-06T08:50:13.307Z</time>
      </trkpt>
      <trkpt lat="46.97093" lon="8.77208">
        <ele>666</ele>
        <time>2021-08-06T08:50:14.309Z</time>
      </trkpt>
      <trkpt lat="46.97093" lon="8.77208">
        <ele>666</ele>
        <time>2021-08-06T08:50:15.309Z</time>
      </trkpt>
      <trkpt lat="46.97093" lon="8.77206">
        <ele>667</ele>
        <time>2021-08-06T08:50:16.309Z</time>
      </trkpt>
      <trkpt lat="46.97094" lon="8.77205">
        <ele>668</ele>
        <time>2021-08-06T08:50:17.309Z</time>
      </trkpt>
      <trkpt lat="46.97094" lon="8.77205">
        <ele>668</ele>
        <time>2021-08-06T08:50:18.308Z</time>
      </trkpt>
      <trkpt lat="46.97094" lon="8.77204">
        <ele>669</ele>
        <time>2021-08-06T08:50:19.309Z</time>
      </trkpt>
      <trkpt lat="46.97093" lon="8.77204">
        <ele>669</ele>
        <time>2021-08-06T08:50:20.309Z</time>
      </trkpt>
      <trkpt lat="46.97093" lon="8.77203">
        <ele>669</ele>
        <time>2021-08-06T08:50:21.309Z</time>
      </trkpt>
      <trkpt lat="46.97092" lon="8.77203">
        <ele>670</ele>
        <time>2021-08-06T08:50:22.309Z</time>
      </trkpt>
      <trkpt lat="46.97092" lon="8.77203">
        <ele>670</ele>
        <time>2021-08-06T08:50:23.309Z</time>
      </trkpt>
      <trkpt lat="46.97091" lon="8.77203">
        <ele>671</ele>
        <time>2021-08-06T08:50:24.309Z</time>
      </trkpt>
      <trkpt lat="46.9709" lon="8.77203">
        <ele>671</ele>
        <time>2021-08-06T08:50:25.308Z</time>
      </trkpt>
      <trkpt lat="46.97089" lon="8.77202">
        <ele>672</ele>
        <time>2021-08-06T08:50:26.309Z</time>
      </trkpt>
      <trkpt lat="46.97089" lon="8.77203">
        <ele>672</ele>
        <time>2021-08-06T08:50:27.309Z</time>
      </trkpt>
      <trkpt lat="46.97088" lon="8.77203">
        <ele>673</ele>
        <time>2021-08-06T08:50:28.309Z</time>
      </trkpt>
      <trkpt lat="46.97087" lon="8.77203">
        <ele>674</ele>
        <time>2021-08-06T08:50:29.309Z</time>
      </trkpt>
      <trkpt lat="46.97086" lon="8.77203">
        <ele>674</ele>
        <time>2021-08-06T08:50:30.309Z</time>
      </trkpt>
      <trkpt lat="46.97085" lon="8.77203">
        <ele>675</ele>
        <time>2021-08-06T08:50:31.309Z</time>
      </trkpt>
      <trkpt lat="46.97085" lon="8.77203">
        <ele>675</ele>
        <time>2021-08-06T08:50:32.309Z</time>
      </trkpt>
      <trkpt lat="46.97085" lon="8.77203">
        <ele>676</ele>
        <time>2021-08-06T08:50:33.308Z</time>
      </trkpt>
      <trkpt lat="46.97084" lon="8.77204">
        <ele>676</ele>
        <time>2021-08-06T08:50:34.308Z</time>
      </trkpt>
      <trkpt lat="46.97084" lon="8.77204">
        <ele>677</ele>
        <time>2021-08-06T08:50:35.308Z</time>
      </trkpt>
      <trkpt lat="46.97084" lon="8.77204">
        <ele>677</ele>
        <time>2021-08-06T08:50:36.309Z</time>
      </trkpt>
      <trkpt lat="46.97084" lon="8.77203">
        <ele>677</ele>
        <time>2021-08-06T08:50:37.309Z</time>
      </trkpt>
      <trkpt lat="46.97083" lon="8.77204">
        <ele>678</ele>
        <time>2021-08-06T08:50:38.309Z</time>
      </trkpt>
      <trkpt lat="46.97083" lon="8.77204">
        <ele>678</ele>
        <time>2021-08-06T08:50:39.309Z</time>
      </trkpt>
      <trkpt lat="46.97082" lon="8.77204">
        <ele>677</ele>
        <time>2021-08-06T08:50:40.308Z</time>
      </trkpt>
      <trkpt lat="46.97082" lon="8.77204">
        <ele>677</ele>
        <time>2021-08-06T08:50:41.308Z</time>
      </trkpt>
      <trkpt lat="46.97081" lon="8.77204">
        <ele>677</ele>
        <time>2021-08-06T08:50:42.308Z</time>
      </trkpt>
      <trkpt lat="46.97081" lon="8.77205">
        <ele>676</ele>
        <time>2021-08-06T08:50:43.309Z</time>
      </trkpt>
      <trkpt lat="46.9708" lon="8.77205">
        <ele>676</ele>
        <time>2021-08-06T08:50:44.309Z</time>
      </trkpt>
      <trkpt lat="46.9708" lon="8.77205">
        <ele>676</ele>
        <time>2021-08-06T08:50:45.309Z</time>
      </trkpt>
      <trkpt lat="46.9708" lon="8.77205">
        <ele>676</ele>
        <time>2021-08-06T08:50:46.309Z</time>
      </trkpt>
      <trkpt lat="46.9708" lon="8.77206">
        <ele>676</ele>
        <time>2021-08-06T08:50:47.308Z</time>
      </trkpt>
      <trkpt lat="46.97078" lon="8.77209">
        <ele>672</ele>
        <time>2021-08-06T08:50:48.309Z</time>
      </trkpt>
      <trkpt lat="46.97078" lon="8.7721">
        <ele>672</ele>
        <time>2021-08-06T08:50:49.308Z</time>
      </trkpt>
      <trkpt lat="46.97078" lon="8.77211">
        <ele>672</ele>
        <time>2021-08-06T08:50:50.308Z</time>
      </trkpt>
      <trkpt lat="46.97077" lon="8.77212">
        <ele>672</ele>
        <time>2021-08-06T08:50:51.309Z</time>
      </trkpt>
      <trkpt lat="46.97077" lon="8.77213">
        <ele>672</ele>
        <time>2021-08-06T08:50:52.309Z</time>
      </trkpt>
      <trkpt lat="46.97077" lon="8.77214">
        <ele>672</ele>
        <time>2021-08-06T08:50:53.308Z</time>
      </trkpt>
      <trkpt lat="46.97076" lon="8.77215">
        <ele>672</ele>
        <time>2021-08-06T08:50:54.309Z</time>
      </trkpt>
      <trkpt lat="46.97076" lon="8.77215">
        <ele>672</ele>
        <time>2021-08-06T08:50:55.309Z</time>
      </trkpt>
      <trkpt lat="46.97075" lon="8.77216">
        <ele>672</ele>
        <time>2021-08-06T08:50:56.308Z</time>
      </trkpt>
      <trkpt lat="46.97075" lon="8.77216">
        <ele>671</ele>
        <time>2021-08-06T08:50:57.309Z</time>
      </trkpt>
      <trkpt lat="46.97075" lon="8.77217">
        <ele>671</ele>
        <time>2021-08-06T08:50:58.309Z</time>
      </trkpt>
      <trkpt lat="46.97075" lon="8.77219">
        <ele>671</ele>
        <time>2021-08-06T08:50:59.309Z</time>
      </trkpt>
      <trkpt lat="46.97075" lon="8.7722">
        <ele>671</ele>
        <time>2021-08-06T08:51:00.308Z</time>
      </trkpt>
      <trkpt lat="46.97074" lon="8.77221">
        <ele>671</ele>
        <time>2021-08-06T08:51:01.308Z</time>
      </trkpt>
      <trkpt lat="46.97074" lon="8.77221">
        <ele>672</ele>
        <time>2021-08-06T08:51:02.308Z</time>
      </trkpt>
      <trkpt lat="46.97074" lon="8.77222">
        <ele>673</ele>
        <time>2021-08-06T08:51:03.308Z</time>
      </trkpt>
      <trkpt lat="46.97073" lon="8.77222">
        <ele>673</ele>
        <time>2021-08-06T08:51:04.309Z</time>
      </trkpt>
      <trkpt lat="46.97073" lon="8.77224">
        <ele>674</ele>
        <time>2021-08-06T08:51:05.308Z</time>
      </trkpt>
      <trkpt lat="46.97072" lon="8.77225">
        <ele>674</ele>
        <time>2021-08-06T08:51:06.309Z</time>
      </trkpt>
      <trkpt lat="46.97072" lon="8.77225">
        <ele>675</ele>
        <time>2021-08-06T08:51:07.309Z</time>
      </trkpt>
      <trkpt lat="46.97071" lon="8.77226">
        <ele>675</ele>
        <time>2021-08-06T08:51:08.308Z</time>
      </trkpt>
      <trkpt lat="46.97071" lon="8.77227">
        <ele>675</ele>
        <time>2021-08-06T08:51:09.309Z</time>
      </trkpt>
      <trkpt lat="46.9707" lon="8.77228">
        <ele>675</ele>
        <time>2021-08-06T08:51:10.309Z</time>
      </trkpt>
      <trkpt lat="46.9707" lon="8.77229">
        <ele>675</ele>
        <time>2021-08-06T08:51:11.309Z</time>
      </trkpt>
      <trkpt lat="46.97069" lon="8.77229">
        <ele>675</ele>
        <time>2021-08-06T08:51:12.308Z</time>
      </trkpt>
      <trkpt lat="46.97069" lon="8.7723">
        <ele>675</ele>
        <time>2021-08-06T08:51:13.308Z</time>
      </trkpt>
      <trkpt lat="46.97068" lon="8.77231">
        <ele>675</ele>
        <time>2021-08-06T08:51:14.309Z</time>
      </trkpt>
      <trkpt lat="46.97067" lon="8.77232">
        <ele>676</ele>
        <time>2021-08-06T08:51:15.309Z</time>
      </trkpt>
      <trkpt lat="46.97067" lon="8.77233">
        <ele>675</ele>
        <time>2021-08-06T08:51:16.308Z</time>
      </trkpt>
      <trkpt lat="46.97066" lon="8.77233">
        <ele>675</ele>
        <time>2021-08-06T08:51:17.308Z</time>
      </trkpt>
      <trkpt lat="46.97066" lon="8.77234">
        <ele>675</ele>
        <time>2021-08-06T08:51:18.309Z</time>
      </trkpt>
      <trkpt lat="46.97065" lon="8.77234">
        <ele>675</ele>
        <time>2021-08-06T08:51:19.309Z</time>
      </trkpt>
      <trkpt lat="46.97064" lon="8.77234">
        <ele>675</ele>
        <time>2021-08-06T08:51:20.309Z</time>
      </trkpt>
      <trkpt lat="46.97064" lon="8.77234">
        <ele>675</ele>
        <time>2021-08-06T08:51:21.308Z</time>
      </trkpt>
      <trkpt lat="46.97063" lon="8.77235">
        <ele>675</ele>
        <time>2021-08-06T08:51:22.308Z</time>
      </trkpt>
      <trkpt lat="46.97063" lon="8.77235">
        <ele>675</ele>
        <time>2021-08-06T08:51:23.308Z</time>
      </trkpt>
      <trkpt lat="46.97062" lon="8.77235">
        <ele>675</ele>
        <time>2021-08-06T08:51:24.309Z</time>
      </trkpt>
      <trkpt lat="46.97061" lon="8.77236">
        <ele>675</ele>
        <time>2021-08-06T08:51:25.308Z</time>
      </trkpt>
      <trkpt lat="46.97061" lon="8.77237">
        <ele>675</ele>
        <time>2021-08-06T08:51:26.309Z</time>
      </trkpt>
      <trkpt lat="46.9706" lon="8.77237">
        <ele>675</ele>
        <time>2021-08-06T08:51:27.309Z</time>
      </trkpt>
      <trkpt lat="46.97059" lon="8.77238">
        <ele>675</ele>
        <time>2021-08-06T08:51:28.309Z</time>
      </trkpt>
      <trkpt lat="46.97059" lon="8.77239">
        <ele>675</ele>
        <time>2021-08-06T08:51:29.308Z</time>
      </trkpt>
      <trkpt lat="46.97058" lon="8.77239">
        <ele>676</ele>
        <time>2021-08-06T08:51:30.309Z</time>
      </trkpt>
      <trkpt lat="46.97058" lon="8.7724">
        <ele>676</ele>
        <time>2021-08-06T08:51:31.309Z</time>
      </trkpt>
      <trkpt lat="46.97057" lon="8.7724">
        <ele>677</ele>
        <time>2021-08-06T08:51:32.308Z</time>
      </trkpt>
      <trkpt lat="46.97057" lon="8.77241">
        <ele>677</ele>
        <time>2021-08-06T08:51:33.308Z</time>
      </trkpt>
      <trkpt lat="46.97056" lon="8.77242">
        <ele>678</ele>
        <time>2021-08-06T08:51:34.308Z</time>
      </trkpt>
      <trkpt lat="46.97055" lon="8.77242">
        <ele>678</ele>
        <time>2021-08-06T08:51:35.308Z</time>
      </trkpt>
      <trkpt lat="46.97055" lon="8.77242">
        <ele>678</ele>
        <time>2021-08-06T08:51:36.309Z</time>
      </trkpt>
      <trkpt lat="46.97054" lon="8.77242">
        <ele>677</ele>
        <time>2021-08-06T08:51:37.309Z</time>
      </trkpt>
      <trkpt lat="46.97054" lon="8.77242">
        <ele>677</ele>
        <time>2021-08-06T08:51:38.308Z</time>
      </trkpt>
      <trkpt lat="46.97053" lon="8.77243">
        <ele>676</ele>
        <time>2021-08-06T08:51:39.308Z</time>
      </trkpt>
      <trkpt lat="46.97053" lon="8.77243">
        <ele>676</ele>
        <time>2021-08-06T08:51:40.308Z</time>
      </trkpt>
      <trkpt lat="46.97052" lon="8.77244">
        <ele>676</ele>
        <time>2021-08-06T08:51:41.308Z</time>
      </trkpt>
      <trkpt lat="46.97051" lon="8.77244">
        <ele>676</ele>
        <time>2021-08-06T08:51:42.308Z</time>
      </trkpt>
      <trkpt lat="46.9705" lon="8.77245">
        <ele>677</ele>
        <time>2021-08-06T08:51:43.309Z</time>
      </trkpt>
      <trkpt lat="46.9705" lon="8.77245">
        <ele>677</ele>
        <time>2021-08-06T08:51:44.309Z</time>
      </trkpt>
      <trkpt lat="46.97049" lon="8.77246">
        <ele>678</ele>
        <time>2021-08-06T08:51:45.309Z</time>
      </trkpt>
      <trkpt lat="46.97049" lon="8.77247">
        <ele>678</ele>
        <time>2021-08-06T08:51:46.308Z</time>
      </trkpt>
      <trkpt lat="46.97049" lon="8.77248">
        <ele>679</ele>
        <time>2021-08-06T08:51:47.309Z</time>
      </trkpt>
      <trkpt lat="46.97048" lon="8.77248">
        <ele>680</ele>
        <time>2021-08-06T08:51:48.309Z</time>
      </trkpt>
      <trkpt lat="46.97047" lon="8.77249">
        <ele>680</ele>
        <time>2021-08-06T08:51:49.308Z</time>
      </trkpt>
      <trkpt lat="46.97047" lon="8.77249">
        <ele>681</ele>
        <time>2021-08-06T08:51:50.309Z</time>
      </trkpt>
      <trkpt lat="46.97046" lon="8.77249">
        <ele>682</ele>
        <time>2021-08-06T08:51:51.308Z</time>
      </trkpt>
      <trkpt lat="46.97046" lon="8.7725">
        <ele>682</ele>
        <time>2021-08-06T08:51:52.308Z</time>
      </trkpt>
      <trkpt lat="46.97045" lon="8.7725">
        <ele>682</ele>
        <time>2021-08-06T08:51:53.309Z</time>
      </trkpt>
      <trkpt lat="46.97045" lon="8.77251">
        <ele>682</ele>
        <time>2021-08-06T08:51:54.308Z</time>
      </trkpt>
      <trkpt lat="46.97044" lon="8.77252">
        <ele>682</ele>
        <time>2021-08-06T08:51:55.309Z</time>
      </trkpt>
      <trkpt lat="46.97044" lon="8.77253">
        <ele>682</ele>
        <time>2021-08-06T08:51:56.309Z</time>
      </trkpt>
      <trkpt lat="46.97044" lon="8.77253">
        <ele>682</ele>
        <time>2021-08-06T08:51:57.309Z</time>
      </trkpt>
      <trkpt lat="46.97043" lon="8.77254">
        <ele>682</ele>
        <time>2021-08-06T08:51:58.309Z</time>
      </trkpt>
      <trkpt lat="46.97043" lon="8.77254">
        <ele>682</ele>
        <time>2021-08-06T08:51:59.308Z</time>
      </trkpt>
      <trkpt lat="46.97042" lon="8.77255">
        <ele>682</ele>
        <time>2021-08-06T08:52:00.309Z</time>
      </trkpt>
      <trkpt lat="46.97042" lon="8.77255">
        <ele>682</ele>
        <time>2021-08-06T08:52:01.309Z</time>
      </trkpt>
      <trkpt lat="46.97042" lon="8.77256">
        <ele>682</ele>
        <time>2021-08-06T08:52:02.308Z</time>
      </trkpt>
      <trkpt lat="46.97042" lon="8.77256">
        <ele>681</ele>
        <time>2021-08-06T08:52:03.309Z</time>
      </trkpt>
      <trkpt lat="46.97041" lon="8.77257">
        <ele>681</ele>
        <time>2021-08-06T08:52:04.309Z</time>
      </trkpt>
      <trkpt lat="46.97041" lon="8.77257">
        <ele>681</ele>
        <time>2021-08-06T08:52:05.309Z</time>
      </trkpt>
      <trkpt lat="46.97041" lon="8.77258">
        <ele>680</ele>
        <time>2021-08-06T08:52:06.308Z</time>
      </trkpt>
      <trkpt lat="46.97041" lon="8.77259">
        <ele>679</ele>
        <time>2021-08-06T08:52:07.309Z</time>
      </trkpt>
      <trkpt lat="46.9704" lon="8.77259">
        <ele>679</ele>
        <time>2021-08-06T08:52:08.309Z</time>
      </trkpt>
      <trkpt lat="46.9704" lon="8.7726">
        <ele>679</ele>
        <time>2021-08-06T08:52:09.309Z</time>
      </trkpt>
      <trkpt lat="46.97039" lon="8.7726">
        <ele>679</ele>
        <time>2021-08-06T08:52:10.309Z</time>
      </trkpt>
      <trkpt lat="46.97039" lon="8.77261">
        <ele>679</ele>
        <time>2021-08-06T08:52:11.308Z</time>
      </trkpt>
      <trkpt lat="46.97039" lon="8.77262">
        <ele>680</ele>
        <time>2021-08-06T08:52:12.309Z</time>
      </trkpt>
      <trkpt lat="46.97038" lon="8.77262">
        <ele>680</ele>
        <time>2021-08-06T08:52:13.309Z</time>
      </trkpt>
      <trkpt lat="46.97038" lon="8.77263">
        <ele>681</ele>
        <time>2021-08-06T08:52:14.308Z</time>
      </trkpt>
      <trkpt lat="46.97037" lon="8.77263">
        <ele>681</ele>
        <time>2021-08-06T08:52:15.309Z</time>
      </trkpt>
      <trkpt lat="46.97037" lon="8.77263">
        <ele>682</ele>
        <time>2021-08-06T08:52:16.308Z</time>
      </trkpt>
      <trkpt lat="46.97037" lon="8.77263">
        <ele>682</ele>
        <time>2021-08-06T08:52:17.308Z</time>
      </trkpt>
      <trkpt lat="46.97036" lon="8.77264">
        <ele>682</ele>
        <time>2021-08-06T08:52:18.309Z</time>
      </trkpt>
      <trkpt lat="46.97036" lon="8.77264">
        <ele>683</ele>
        <time>2021-08-06T08:52:19.309Z</time>
      </trkpt>
      <trkpt lat="46.97036" lon="8.77264">
        <ele>684</ele>
        <time>2021-08-06T08:52:20.309Z</time>
      </trkpt>
      <trkpt lat="46.97035" lon="8.77264">
        <ele>684</ele>
        <time>2021-08-06T08:52:21.308Z</time>
      </trkpt>
      <trkpt lat="46.97035" lon="8.77263">
        <ele>685</ele>
        <time>2021-08-06T08:52:22.309Z</time>
      </trkpt>
      <trkpt lat="46.97034" lon="8.77263">
        <ele>685</ele>
        <time>2021-08-06T08:52:23.309Z</time>
      </trkpt>
      <trkpt lat="46.97034" lon="8.77263">
        <ele>686</ele>
        <time>2021-08-06T08:52:24.309Z</time>
      </trkpt>
      <trkpt lat="46.97034" lon="8.77263">
        <ele>686</ele>
        <time>2021-08-06T08:52:25.308Z</time>
      </trkpt>
      <trkpt lat="46.97033" lon="8.77263">
        <ele>686</ele>
        <time>2021-08-06T08:52:26.308Z</time>
      </trkpt>
      <trkpt lat="46.97033" lon="8.77263">
        <ele>686</ele>
        <time>2021-08-06T08:52:27.308Z</time>
      </trkpt>
      <trkpt lat="46.97032" lon="8.77263">
        <ele>686</ele>
        <time>2021-08-06T08:52:28.308Z</time>
      </trkpt>
      <trkpt lat="46.97032" lon="8.77263">
        <ele>685</ele>
        <time>2021-08-06T08:52:29.308Z</time>
      </trkpt>
      <trkpt lat="46.97032" lon="8.77264">
        <ele>686</ele>
        <time>2021-08-06T08:52:30.308Z</time>
      </trkpt>
      <trkpt lat="46.97032" lon="8.77265">
        <ele>686</ele>
        <time>2021-08-06T08:52:31.308Z</time>
      </trkpt>
      <trkpt lat="46.97031" lon="8.77266">
        <ele>686</ele>
        <time>2021-08-06T08:52:32.308Z</time>
      </trkpt>
      <trkpt lat="46.97031" lon="8.77266">
        <ele>686</ele>
        <time>2021-08-06T08:52:33.308Z</time>
      </trkpt>
      <trkpt lat="46.9703" lon="8.77267">
        <ele>686</ele>
        <time>2021-08-06T08:52:34.308Z</time>
      </trkpt>
      <trkpt lat="46.97029" lon="8.77267">
        <ele>686</ele>
        <time>2021-08-06T08:52:35.308Z</time>
      </trkpt>
      <trkpt lat="46.97029" lon="8.77268">
        <ele>686</ele>
        <time>2021-08-06T08:52:36.308Z</time>
      </trkpt>
      <trkpt lat="46.97029" lon="8.77268">
        <ele>686</ele>
        <time>2021-08-06T08:52:37.308Z</time>
      </trkpt>
      <trkpt lat="46.97029" lon="8.7727">
        <ele>686</ele>
        <time>2021-08-06T08:52:38.308Z</time>
      </trkpt>
      <trkpt lat="46.97028" lon="8.77271">
        <ele>687</ele>
        <time>2021-08-06T08:52:39.308Z</time>
      </trkpt>
      <trkpt lat="46.97029" lon="8.77272">
        <ele>687</ele>
        <time>2021-08-06T08:52:40.308Z</time>
      </trkpt>
      <trkpt lat="46.97029" lon="8.77273">
        <ele>688</ele>
        <time>2021-08-06T08:52:41.308Z</time>
      </trkpt>
      <trkpt lat="46.97028" lon="8.77274">
        <ele>688</ele>
        <time>2021-08-06T08:52:42.308Z</time>
      </trkpt>
      <trkpt lat="46.97028" lon="8.77275">
        <ele>688</ele>
        <time>2021-08-06T08:52:43.308Z</time>
      </trkpt>
      <trkpt lat="46.97028" lon="8.77276">
        <ele>688</ele>
        <time>2021-08-06T08:52:44.308Z</time>
      </trkpt>
      <trkpt lat="46.97027" lon="8.77277">
        <ele>688</ele>
        <time>2021-08-06T08:52:45.308Z</time>
      </trkpt>
      <trkpt lat="46.97027" lon="8.77278">
        <ele>689</ele>
        <time>2021-08-06T08:52:46.308Z</time>
      </trkpt>
      <trkpt lat="46.97027" lon="8.77281">
        <ele>689</ele>
        <time>2021-08-06T08:52:47.308Z</time>
      </trkpt>
      <trkpt lat="46.97028" lon="8.77282">
        <ele>689</ele>
        <time>2021-08-06T08:52:48.308Z</time>
      </trkpt>
      <trkpt lat="46.97027" lon="8.77282">
        <ele>689</ele>
        <time>2021-08-06T08:52:49.308Z</time>
      </trkpt>
      <trkpt lat="46.97026" lon="8.77282">
        <ele>689</ele>
        <time>2021-08-06T08:52:50.308Z</time>
      </trkpt>
      <trkpt lat="46.97026" lon="8.77282">
        <ele>689</ele>
        <time>2021-08-06T08:52:51.308Z</time>
      </trkpt>
      <trkpt lat="46.97025" lon="8.77282">
        <ele>689</ele>
        <time>2021-08-06T08:52:52.308Z</time>
      </trkpt>
      <trkpt lat="46.97025" lon="8.77282">
        <ele>689</ele>
        <time>2021-08-06T08:52:53.308Z</time>
      </trkpt>
      <trkpt lat="46.97025" lon="8.77282">
        <ele>689</ele>
        <time>2021-08-06T08:52:54.308Z</time>
      </trkpt>
      <trkpt lat="46.97024" lon="8.77282">
        <ele>690</ele>
        <time>2021-08-06T08:52:55.308Z</time>
      </trkpt>
      <trkpt lat="46.97024" lon="8.77282">
        <ele>690</ele>
        <time>2021-08-06T08:52:56.308Z</time>
      </trkpt>
      <trkpt lat="46.97023" lon="8.77283">
        <ele>689</ele>
        <time>2021-08-06T08:52:57.308Z</time>
      </trkpt>
      <trkpt lat="46.97024" lon="8.77283">
        <ele>689</ele>
        <time>2021-08-06T08:52:58.308Z</time>
      </trkpt>
      <trkpt lat="46.97024" lon="8.77284">
        <ele>689</ele>
        <time>2021-08-06T08:52:59.308Z</time>
      </trkpt>
      <trkpt lat="46.97023" lon="8.77284">
        <ele>689</ele>
        <time>2021-08-06T08:53:00.308Z</time>
      </trkpt>
      <trkpt lat="46.97023" lon="8.77283">
        <ele>690</ele>
        <time>2021-08-06T08:53:01.308Z</time>
      </trkpt>
      <trkpt lat="46.97022" lon="8.77284">
        <ele>690</ele>
        <time>2021-08-06T08:53:02.308Z</time>
      </trkpt>
      <trkpt lat="46.97022" lon="8.77284">
        <ele>690</ele>
        <time>2021-08-06T08:53:03.308Z</time>
      </trkpt>
      <trkpt lat="46.97022" lon="8.77284">
        <ele>690</ele>
        <time>2021-08-06T08:53:04.308Z</time>
      </trkpt>
      <trkpt lat="46.97021" lon="8.77285">
        <ele>690</ele>
        <time>2021-08-06T08:53:05.308Z</time>
      </trkpt>
      <trkpt lat="46.9702" lon="8.77286">
        <ele>690</ele>
        <time>2021-08-06T08:53:06.308Z</time>
      </trkpt>
      <trkpt lat="46.97019" lon="8.77286">
        <ele>690</ele>
        <time>2021-08-06T08:53:07.308Z</time>
      </trkpt>
      <trkpt lat="46.97019" lon="8.77287">
        <ele>690</ele>
        <time>2021-08-06T08:53:08.308Z</time>
      </trkpt>
      <trkpt lat="46.97018" lon="8.77289">
        <ele>689</ele>
        <time>2021-08-06T08:53:09.308Z</time>
      </trkpt>
      <trkpt lat="46.97018" lon="8.7729">
        <ele>689</ele>
        <time>2021-08-06T08:53:10.308Z</time>
      </trkpt>
      <trkpt lat="46.97017" lon="8.77291">
        <ele>688</ele>
        <time>2021-08-06T08:53:11.308Z</time>
      </trkpt>
      <trkpt lat="46.97017" lon="8.77292">
        <ele>688</ele>
        <time>2021-08-06T08:53:12.308Z</time>
      </trkpt>
      <trkpt lat="46.97016" lon="8.77293">
        <ele>688</ele>
        <time>2021-08-06T08:53:13.308Z</time>
      </trkpt>
      <trkpt lat="46.97016" lon="8.77293">
        <ele>688</ele>
        <time>2021-08-06T08:53:14.308Z</time>
      </trkpt>
      <trkpt lat="46.97016" lon="8.77294">
        <ele>688</ele>
        <time>2021-08-06T08:53:15.308Z</time>
      </trkpt>
      <trkpt lat="46.97015" lon="8.77295">
        <ele>688</ele>
        <time>2021-08-06T08:53:16.308Z</time>
      </trkpt>
      <trkpt lat="46.97018" lon="8.77292">
        <ele>689</ele>
        <time>2021-08-06T08:53:17.308Z</time>
      </trkpt>
      <trkpt lat="46.97018" lon="8.77291">
        <ele>690</ele>
        <time>2021-08-06T08:53:18.308Z</time>
      </trkpt>
      <trkpt lat="46.97018" lon="8.77291">
        <ele>691</ele>
        <time>2021-08-06T08:53:19.309Z</time>
      </trkpt>
      <trkpt lat="46.97018" lon="8.77291">
        <ele>692</ele>
        <time>2021-08-06T08:53:20.309Z</time>
      </trkpt>
      <trkpt lat="46.97018" lon="8.77291">
        <ele>693</ele>
        <time>2021-08-06T08:53:21.308Z</time>
      </trkpt>
      <trkpt lat="46.97017" lon="8.77291">
        <ele>693</ele>
        <time>2021-08-06T08:53:22.308Z</time>
      </trkpt>
      <trkpt lat="46.97016" lon="8.77292">
        <ele>693</ele>
        <time>2021-08-06T08:53:23.308Z</time>
      </trkpt>
      <trkpt lat="46.97016" lon="8.77291">
        <ele>694</ele>
        <time>2021-08-06T08:53:24.308Z</time>
      </trkpt>
      <trkpt lat="46.97016" lon="8.77292">
        <ele>691</ele>
        <time>2021-08-06T08:53:25.309Z</time>
      </trkpt>
      <trkpt lat="46.97016" lon="8.77293">
        <ele>690</ele>
        <time>2021-08-06T08:53:26.308Z</time>
      </trkpt>
      <trkpt lat="46.97016" lon="8.77294">
        <ele>689</ele>
        <time>2021-08-06T08:53:27.309Z</time>
      </trkpt>
      <trkpt lat="46.97015" lon="8.77295">
        <ele>689</ele>
        <time>2021-08-06T08:53:28.309Z</time>
      </trkpt>
      <trkpt lat="46.97015" lon="8.77297">
        <ele>688</ele>
        <time>2021-08-06T08:53:29.308Z</time>
      </trkpt>
      <trkpt lat="46.97014" lon="8.77299">
        <ele>688</ele>
        <time>2021-08-06T08:53:30.308Z</time>
      </trkpt>
      <trkpt lat="46.97014" lon="8.773">
        <ele>688</ele>
        <time>2021-08-06T08:53:31.309Z</time>
      </trkpt>
      <trkpt lat="46.97012" lon="8.77301">
        <ele>688</ele>
        <time>2021-08-06T08:53:32.308Z</time>
      </trkpt>
      <trkpt lat="46.97011" lon="8.77301">
        <ele>688</ele>
        <time>2021-08-06T08:53:33.309Z</time>
      </trkpt>
      <trkpt lat="46.97011" lon="8.77302">
        <ele>688</ele>
        <time>2021-08-06T08:53:34.308Z</time>
      </trkpt>
      <trkpt lat="46.9701" lon="8.77304">
        <ele>687</ele>
        <time>2021-08-06T08:53:35.309Z</time>
      </trkpt>
      <trkpt lat="46.9701" lon="8.77305">
        <ele>687</ele>
        <time>2021-08-06T08:53:36.309Z</time>
      </trkpt>
      <trkpt lat="46.97009" lon="8.77305">
        <ele>687</ele>
        <time>2021-08-06T08:53:37.309Z</time>
      </trkpt>
      <trkpt lat="46.97008" lon="8.77306">
        <ele>687</ele>
        <time>2021-08-06T08:53:38.309Z</time>
      </trkpt>
      <trkpt lat="46.97007" lon="8.77307">
        <ele>688</ele>
        <time>2021-08-06T08:53:39.308Z</time>
      </trkpt>
      <trkpt lat="46.97007" lon="8.77308">
        <ele>688</ele>
        <time>2021-08-06T08:53:40.308Z</time>
      </trkpt>
      <trkpt lat="46.97006" lon="8.77308">
        <ele>688</ele>
        <time>2021-08-06T08:53:41.308Z</time>
      </trkpt>
      <trkpt lat="46.97006" lon="8.77307">
        <ele>688</ele>
        <time>2021-08-06T08:53:42.309Z</time>
      </trkpt>
      <trkpt lat="46.97005" lon="8.77307">
        <ele>688</ele>
        <time>2021-08-06T08:53:43.309Z</time>
      </trkpt>
      <trkpt lat="46.97005" lon="8.77307">
        <ele>688</ele>
        <time>2021-08-06T08:53:44.309Z</time>
      </trkpt>
      <trkpt lat="46.97004" lon="8.77307">
        <ele>688</ele>
        <time>2021-08-06T08:53:45.309Z</time>
      </trkpt>
      <trkpt lat="46.97003" lon="8.77307">
        <ele>688</ele>
        <time>2021-08-06T08:53:46.309Z</time>
      </trkpt>
      <trkpt lat="46.97003" lon="8.77308">
        <ele>688</ele>
        <time>2021-08-06T08:53:47.309Z</time>
      </trkpt>
      <trkpt lat="46.97002" lon="8.77308">
        <ele>688</ele>
        <time>2021-08-06T08:53:48.308Z</time>
      </trkpt>
      <trkpt lat="46.97001" lon="8.77308">
        <ele>688</ele>
        <time>2021-08-06T08:53:49.308Z</time>
      </trkpt>
      <trkpt lat="46.97" lon="8.77308">
        <ele>689</ele>
        <time>2021-08-06T08:53:50.308Z</time>
      </trkpt>
      <trkpt lat="46.97" lon="8.77308">
        <ele>689</ele>
        <time>2021-08-06T08:53:51.309Z</time>
      </trkpt>
      <trkpt lat="46.96999" lon="8.77308">
        <ele>690</ele>
        <time>2021-08-06T08:53:52.309Z</time>
      </trkpt>
      <trkpt lat="46.96999" lon="8.77309">
        <ele>691</ele>
        <time>2021-08-06T08:53:53.309Z</time>
      </trkpt>
      <trkpt lat="46.96998" lon="8.77309">
        <ele>691</ele>
        <time>2021-08-06T08:53:54.309Z</time>
      </trkpt>
      <trkpt lat="46.96997" lon="8.7731">
        <ele>692</ele>
        <time>2021-08-06T08:53:55.309Z</time>
      </trkpt>
      <trkpt lat="46.96997" lon="8.7731">
        <ele>693</ele>
        <time>2021-08-06T08:53:56.309Z</time>
      </trkpt>
      <trkpt lat="46.96996" lon="8.77311">
        <ele>694</ele>
        <time>2021-08-06T08:53:57.308Z</time>
      </trkpt>
      <trkpt lat="46.96996" lon="8.77311">
        <ele>694</ele>
        <time>2021-08-06T08:53:58.309Z</time>
      </trkpt>
      <trkpt lat="46.96995" lon="8.77311">
        <ele>695</ele>
        <time>2021-08-06T08:53:59.308Z</time>
      </trkpt>
      <trkpt lat="46.96994" lon="8.77312">
        <ele>695</ele>
        <time>2021-08-06T08:54:00.308Z</time>
      </trkpt>
      <trkpt lat="46.96994" lon="8.77312">
        <ele>696</ele>
        <time>2021-08-06T08:54:01.309Z</time>
      </trkpt>
      <trkpt lat="46.96993" lon="8.77313">
        <ele>696</ele>
        <time>2021-08-06T08:54:02.309Z</time>
      </trkpt>
      <trkpt lat="46.96993" lon="8.77313">
        <ele>697</ele>
        <time>2021-08-06T08:54:03.309Z</time>
      </trkpt>
      <trkpt lat="46.96992" lon="8.77314">
        <ele>698</ele>
        <time>2021-08-06T08:54:04.309Z</time>
      </trkpt>
      <trkpt lat="46.96991" lon="8.77314">
        <ele>698</ele>
        <time>2021-08-06T08:54:05.308Z</time>
      </trkpt>
      <trkpt lat="46.96991" lon="8.77314">
        <ele>698</ele>
        <time>2021-08-06T08:54:06.309Z</time>
      </trkpt>
      <trkpt lat="46.9699" lon="8.77314">
        <ele>699</ele>
        <time>2021-08-06T08:54:07.309Z</time>
      </trkpt>
      <trkpt lat="46.96989" lon="8.77315">
        <ele>699</ele>
        <time>2021-08-06T08:54:08.309Z</time>
      </trkpt>
      <trkpt lat="46.96989" lon="8.77315">
        <ele>699</ele>
        <time>2021-08-06T08:54:09.309Z</time>
      </trkpt>
      <trkpt lat="46.96988" lon="8.77315">
        <ele>699</ele>
        <time>2021-08-06T08:54:10.308Z</time>
      </trkpt>
      <trkpt lat="46.96988" lon="8.77315">
        <ele>699</ele>
        <time>2021-08-06T08:54:11.309Z</time>
      </trkpt>
      <trkpt lat="46.96988" lon="8.77316">
        <ele>698</ele>
        <time>2021-08-06T08:54:12.309Z</time>
      </trkpt>
      <trkpt lat="46.96988" lon="8.77317">
        <ele>698</ele>
        <time>2021-08-06T08:54:13.309Z</time>
      </trkpt>
      <trkpt lat="46.96987" lon="8.77317">
        <ele>699</ele>
        <time>2021-08-06T08:54:14.308Z</time>
      </trkpt>
      <trkpt lat="46.96986" lon="8.77318">
        <ele>699</ele>
        <time>2021-08-06T08:54:15.309Z</time>
      </trkpt>
      <trkpt lat="46.96985" lon="8.77318">
        <ele>699</ele>
        <time>2021-08-06T08:54:16.309Z</time>
      </trkpt>
      <trkpt lat="46.96984" lon="8.77319">
        <ele>699</ele>
        <time>2021-08-06T08:54:17.309Z</time>
      </trkpt>
      <trkpt lat="46.96983" lon="8.77319">
        <ele>700</ele>
        <time>2021-08-06T08:54:18.308Z</time>
      </trkpt>
      <trkpt lat="46.96983" lon="8.7732">
        <ele>700</ele>
        <time>2021-08-06T08:54:19.309Z</time>
      </trkpt>
      <trkpt lat="46.96982" lon="8.77321">
        <ele>700</ele>
        <time>2021-08-06T08:54:20.308Z</time>
      </trkpt>
      <trkpt lat="46.96982" lon="8.77321">
        <ele>700</ele>
        <time>2021-08-06T08:54:21.309Z</time>
      </trkpt>
      <trkpt lat="46.96982" lon="8.77322">
        <ele>699</ele>
        <time>2021-08-06T08:54:22.309Z</time>
      </trkpt>
      <trkpt lat="46.96981" lon="8.77323">
        <ele>699</ele>
        <time>2021-08-06T08:54:23.308Z</time>
      </trkpt>
      <trkpt lat="46.9698" lon="8.77323">
        <ele>699</ele>
        <time>2021-08-06T08:54:24.308Z</time>
      </trkpt>
      <trkpt lat="46.96979" lon="8.77323">
        <ele>699</ele>
        <time>2021-08-06T08:54:25.309Z</time>
      </trkpt>
      <trkpt lat="46.96979" lon="8.77324">
        <ele>699</ele>
        <time>2021-08-06T08:54:26.308Z</time>
      </trkpt>
      <trkpt lat="46.96979" lon="8.77324">
        <ele>699</ele>
        <time>2021-08-06T08:54:27.309Z</time>
      </trkpt>
      <trkpt lat="46.96979" lon="8.77323">
        <ele>698</ele>
        <time>2021-08-06T08:54:28.308Z</time>
      </trkpt>
      <trkpt lat="46.96979" lon="8.77323">
        <ele>698</ele>
        <time>2021-08-06T08:54:29.308Z</time>
      </trkpt>
      <trkpt lat="46.96978" lon="8.77322">
        <ele>698</ele>
        <time>2021-08-06T08:54:30.308Z</time>
      </trkpt>
      <trkpt lat="46.96977" lon="8.77321">
        <ele>698</ele>
        <time>2021-08-06T08:54:31.309Z</time>
      </trkpt>
      <trkpt lat="46.96976" lon="8.77321">
        <ele>698</ele>
        <time>2021-08-06T08:54:32.309Z</time>
      </trkpt>
      <trkpt lat="46.96976" lon="8.7732">
        <ele>698</ele>
        <time>2021-08-06T08:54:33.309Z</time>
      </trkpt>
      <trkpt lat="46.96975" lon="8.7732">
        <ele>698</ele>
        <time>2021-08-06T08:54:34.309Z</time>
      </trkpt>
      <trkpt lat="46.96974" lon="8.77321">
        <ele>699</ele>
        <time>2021-08-06T08:54:35.309Z</time>
      </trkpt>
      <trkpt lat="46.96973" lon="8.77322">
        <ele>699</ele>
        <time>2021-08-06T08:54:36.308Z</time>
      </trkpt>
      <trkpt lat="46.96973" lon="8.77322">
        <ele>699</ele>
        <time>2021-08-06T08:54:37.308Z</time>
      </trkpt>
      <trkpt lat="46.96972" lon="8.77323">
        <ele>699</ele>
        <time>2021-08-06T08:54:38.309Z</time>
      </trkpt>
      <trkpt lat="46.96972" lon="8.77323">
        <ele>699</ele>
        <time>2021-08-06T08:54:39.309Z</time>
      </trkpt>
      <trkpt lat="46.96971" lon="8.77323">
        <ele>699</ele>
        <time>2021-08-06T08:54:40.309Z</time>
      </trkpt>
      <trkpt lat="46.9697" lon="8.77324">
        <ele>699</ele>
        <time>2021-08-06T08:54:41.309Z</time>
      </trkpt>
      <trkpt lat="46.9697" lon="8.77324">
        <ele>699</ele>
        <time>2021-08-06T08:54:42.308Z</time>
      </trkpt>
      <trkpt lat="46.96969" lon="8.77324">
        <ele>699</ele>
        <time>2021-08-06T08:54:43.309Z</time>
      </trkpt>
      <trkpt lat="46.96968" lon="8.77323">
        <ele>699</ele>
        <time>2021-08-06T08:54:44.309Z</time>
      </trkpt>
      <trkpt lat="46.96967" lon="8.77323">
        <ele>700</ele>
        <time>2021-08-06T08:54:45.308Z</time>
      </trkpt>
      <trkpt lat="46.96967" lon="8.77323">
        <ele>700</ele>
        <time>2021-08-06T08:54:46.308Z</time>
      </trkpt>
      <trkpt lat="46.96966" lon="8.77323">
        <ele>700</ele>
        <time>2021-08-06T08:54:47.308Z</time>
      </trkpt>
      <trkpt lat="46.96966" lon="8.77323">
        <ele>700</ele>
        <time>2021-08-06T08:54:48.309Z</time>
      </trkpt>
      <trkpt lat="46.96966" lon="8.77323">
        <ele>701</ele>
        <time>2021-08-06T08:54:49.308Z</time>
      </trkpt>
      <trkpt lat="46.96966" lon="8.77322">
        <ele>700</ele>
        <time>2021-08-06T08:54:50.308Z</time>
      </trkpt>
      <trkpt lat="46.96965" lon="8.77316">
        <ele>699</ele>
        <time>2021-08-06T08:54:51.310Z</time>
      </trkpt>
      <trkpt lat="46.96965" lon="8.77315">
        <ele>698</ele>
        <time>2021-08-06T08:54:52.310Z</time>
      </trkpt>
      <trkpt lat="46.96962" lon="8.77317">
        <ele>697</ele>
        <time>2021-08-06T08:54:53.310Z</time>
      </trkpt>
      <trkpt lat="46.96961" lon="8.77317">
        <ele>698</ele>
        <time>2021-08-06T08:54:54.310Z</time>
      </trkpt>
      <trkpt lat="46.96961" lon="8.77319">
        <ele>699</ele>
        <time>2021-08-06T08:54:55.310Z</time>
      </trkpt>
      <trkpt lat="46.96961" lon="8.7732">
        <ele>700</ele>
        <time>2021-08-06T08:54:56.310Z</time>
      </trkpt>
      <trkpt lat="46.96962" lon="8.77324">
        <ele>701</ele>
        <time>2021-08-06T08:54:57.311Z</time>
      </trkpt>
      <trkpt lat="46.96962" lon="8.77325">
        <ele>701</ele>
        <time>2021-08-06T08:54:58.312Z</time>
      </trkpt>
      <trkpt lat="46.96962" lon="8.77325">
        <ele>702</ele>
        <time>2021-08-06T08:54:59.312Z</time>
      </trkpt>
      <trkpt lat="46.96962" lon="8.77326">
        <ele>702</ele>
        <time>2021-08-06T08:55:00.311Z</time>
      </trkpt>
      <trkpt lat="46.96962" lon="8.77327">
        <ele>702</ele>
        <time>2021-08-06T08:55:01.312Z</time>
      </trkpt>
      <trkpt lat="46.96961" lon="8.77327">
        <ele>702</ele>
        <time>2021-08-06T08:55:02.312Z</time>
      </trkpt>
      <trkpt lat="46.96961" lon="8.77328">
        <ele>702</ele>
        <time>2021-08-06T08:55:03.312Z</time>
      </trkpt>
      <trkpt lat="46.9696" lon="8.77328">
        <ele>702</ele>
        <time>2021-08-06T08:55:04.311Z</time>
      </trkpt>
      <trkpt lat="46.9696" lon="8.77329">
        <ele>702</ele>
        <time>2021-08-06T08:55:05.312Z</time>
      </trkpt>
      <trkpt lat="46.9696" lon="8.7733">
        <ele>703</ele>
        <time>2021-08-06T08:55:06.311Z</time>
      </trkpt>
      <trkpt lat="46.96959" lon="8.77331">
        <ele>703</ele>
        <time>2021-08-06T08:55:07.311Z</time>
      </trkpt>
      <trkpt lat="46.96959" lon="8.77332">
        <ele>703</ele>
        <time>2021-08-06T08:55:08.311Z</time>
      </trkpt>
      <trkpt lat="46.96959" lon="8.77332">
        <ele>703</ele>
        <time>2021-08-06T08:55:09.312Z</time>
      </trkpt>
      <trkpt lat="46.96958" lon="8.77334">
        <ele>703</ele>
        <time>2021-08-06T08:55:10.311Z</time>
      </trkpt>
      <trkpt lat="46.96958" lon="8.77335">
        <ele>704</ele>
        <time>2021-08-06T08:55:11.312Z</time>
      </trkpt>
      <trkpt lat="46.96957" lon="8.77335">
        <ele>704</ele>
        <time>2021-08-06T08:55:12.312Z</time>
      </trkpt>
      <trkpt lat="46.96957" lon="8.77336">
        <ele>704</ele>
        <time>2021-08-06T08:55:13.311Z</time>
      </trkpt>
      <trkpt lat="46.96957" lon="8.77337">
        <ele>704</ele>
        <time>2021-08-06T08:55:14.312Z</time>
      </trkpt>
      <trkpt lat="46.96957" lon="8.77337">
        <ele>704</ele>
        <time>2021-08-06T08:55:15.312Z</time>
      </trkpt>
      <trkpt lat="46.96956" lon="8.77338">
        <ele>705</ele>
        <time>2021-08-06T08:55:16.311Z</time>
      </trkpt>
      <trkpt lat="46.96956" lon="8.7734">
        <ele>705</ele>
        <time>2021-08-06T08:55:17.311Z</time>
      </trkpt>
      <trkpt lat="46.96956" lon="8.7734">
        <ele>706</ele>
        <time>2021-08-06T08:55:18.312Z</time>
      </trkpt>
      <trkpt lat="46.96956" lon="8.77341">
        <ele>706</ele>
        <time>2021-08-06T08:55:19.311Z</time>
      </trkpt>
      <trkpt lat="46.96955" lon="8.77341">
        <ele>707</ele>
        <time>2021-08-06T08:55:20.312Z</time>
      </trkpt>
      <trkpt lat="46.96955" lon="8.77342">
        <ele>707</ele>
        <time>2021-08-06T08:55:21.312Z</time>
      </trkpt>
      <trkpt lat="46.96955" lon="8.77342">
        <ele>708</ele>
        <time>2021-08-06T08:55:22.312Z</time>
      </trkpt>
      <trkpt lat="46.96954" lon="8.77342">
        <ele>708</ele>
        <time>2021-08-06T08:55:23.312Z</time>
      </trkpt>
      <trkpt lat="46.96954" lon="8.77342">
        <ele>708</ele>
        <time>2021-08-06T08:55:24.312Z</time>
      </trkpt>
      <trkpt lat="46.96953" lon="8.77342">
        <ele>708</ele>
        <time>2021-08-06T08:55:25.311Z</time>
      </trkpt>
      <trkpt lat="46.96953" lon="8.77342">
        <ele>708</ele>
        <time>2021-08-06T08:55:26.312Z</time>
      </trkpt>
      <trkpt lat="46.96952" lon="8.77343">
        <ele>708</ele>
        <time>2021-08-06T08:55:27.312Z</time>
      </trkpt>
      <trkpt lat="46.96952" lon="8.77343">
        <ele>708</ele>
        <time>2021-08-06T08:55:28.311Z</time>
      </trkpt>
      <trkpt lat="46.96952" lon="8.77344">
        <ele>708</ele>
        <time>2021-08-06T08:55:29.311Z</time>
      </trkpt>
      <trkpt lat="46.96951" lon="8.77345">
        <ele>709</ele>
        <time>2021-08-06T08:55:30.312Z</time>
      </trkpt>
      <trkpt lat="46.96951" lon="8.77345">
        <ele>709</ele>
        <time>2021-08-06T08:55:31.311Z</time>
      </trkpt>
      <trkpt lat="46.96951" lon="8.77345">
        <ele>709</ele>
        <time>2021-08-06T08:55:32.311Z</time>
      </trkpt>
      <trkpt lat="46.96951" lon="8.77345">
        <ele>709</ele>
        <time>2021-08-06T08:55:33.312Z</time>
      </trkpt>
      <trkpt lat="46.96951" lon="8.77346">
        <ele>709</ele>
        <time>2021-08-06T08:55:34.312Z</time>
      </trkpt>
      <trkpt lat="46.96951" lon="8.77347">
        <ele>709</ele>
        <time>2021-08-06T08:55:35.312Z</time>
      </trkpt>
      <trkpt lat="46.96951" lon="8.77347">
        <ele>709</ele>
        <time>2021-08-06T08:55:36.312Z</time>
      </trkpt>
      <trkpt lat="46.96951" lon="8.77347">
        <ele>709</ele>
        <time>2021-08-06T08:55:37.312Z</time>
      </trkpt>
      <trkpt lat="46.9695" lon="8.77348">
        <ele>709</ele>
        <time>2021-08-06T08:55:38.311Z</time>
      </trkpt>
      <trkpt lat="46.9695" lon="8.77348">
        <ele>710</ele>
        <time>2021-08-06T08:55:39.312Z</time>
      </trkpt>
      <trkpt lat="46.9695" lon="8.77349">
        <ele>709</ele>
        <time>2021-08-06T08:55:40.312Z</time>
      </trkpt>
      <trkpt lat="46.9695" lon="8.77349">
        <ele>709</ele>
        <time>2021-08-06T08:55:41.312Z</time>
      </trkpt>
      <trkpt lat="46.96949" lon="8.7735">
        <ele>709</ele>
        <time>2021-08-06T08:55:42.312Z</time>
      </trkpt>
      <trkpt lat="46.96949" lon="8.7735">
        <ele>709</ele>
        <time>2021-08-06T08:55:43.311Z</time>
      </trkpt>
      <trkpt lat="46.96949" lon="8.7735">
        <ele>709</ele>
        <time>2021-08-06T08:55:44.312Z</time>
      </trkpt>
      <trkpt lat="46.96948" lon="8.7735">
        <ele>710</ele>
        <time>2021-08-06T08:55:45.312Z</time>
      </trkpt>
      <trkpt lat="46.96947" lon="8.7735">
        <ele>710</ele>
        <time>2021-08-06T08:55:46.312Z</time>
      </trkpt>
      <trkpt lat="46.96947" lon="8.7735">
        <ele>710</ele>
        <time>2021-08-06T08:55:47.312Z</time>
      </trkpt>
      <trkpt lat="46.96946" lon="8.7735">
        <ele>710</ele>
        <time>2021-08-06T08:55:48.312Z</time>
      </trkpt>
      <trkpt lat="46.96946" lon="8.77349">
        <ele>710</ele>
        <time>2021-08-06T08:55:49.312Z</time>
      </trkpt>
      <trkpt lat="46.96946" lon="8.77349">
        <ele>710</ele>
        <time>2021-08-06T08:55:50.312Z</time>
      </trkpt>
      <trkpt lat="46.96945" lon="8.77348">
        <ele>710</ele>
        <time>2021-08-06T08:55:51.312Z</time>
      </trkpt>
      <trkpt lat="46.96944" lon="8.77348">
        <ele>710</ele>
        <time>2021-08-06T08:55:52.312Z</time>
      </trkpt>
      <trkpt lat="46.96943" lon="8.77347">
        <ele>710</ele>
        <time>2021-08-06T08:55:53.311Z</time>
      </trkpt>
      <trkpt lat="46.96943" lon="8.77347">
        <ele>711</ele>
        <time>2021-08-06T08:55:54.311Z</time>
      </trkpt>
      <trkpt lat="46.96942" lon="8.77347">
        <ele>711</ele>
        <time>2021-08-06T08:55:55.312Z</time>
      </trkpt>
      <trkpt lat="46.96942" lon="8.77346">
        <ele>712</ele>
        <time>2021-08-06T08:55:56.312Z</time>
      </trkpt>
      <trkpt lat="46.96941" lon="8.77345">
        <ele>712</ele>
        <time>2021-08-06T08:55:57.312Z</time>
      </trkpt>
      <trkpt lat="46.96941" lon="8.77345">
        <ele>712</ele>
        <time>2021-08-06T08:55:58.312Z</time>
      </trkpt>
      <trkpt lat="46.96941" lon="8.77346">
        <ele>712</ele>
        <time>2021-08-06T08:55:59.312Z</time>
      </trkpt>
      <trkpt lat="46.9694" lon="8.77346">
        <ele>712</ele>
        <time>2021-08-06T08:56:00.312Z</time>
      </trkpt>
      <trkpt lat="46.9694" lon="8.77347">
        <ele>713</ele>
        <time>2021-08-06T08:56:01.311Z</time>
      </trkpt>
      <trkpt lat="46.96939" lon="8.77347">
        <ele>713</ele>
        <time>2021-08-06T08:56:02.312Z</time>
      </trkpt>
      <trkpt lat="46.96939" lon="8.77347">
        <ele>714</ele>
        <time>2021-08-06T08:56:03.312Z</time>
      </trkpt>
      <trkpt lat="46.96939" lon="8.77348">
        <ele>715</ele>
        <time>2021-08-06T08:56:04.312Z</time>
      </trkpt>
      <trkpt lat="46.96938" lon="8.77348">
        <ele>715</ele>
        <time>2021-08-06T08:56:05.311Z</time>
      </trkpt>
      <trkpt lat="46.96938" lon="8.77348">
        <ele>716</ele>
        <time>2021-08-06T08:56:06.312Z</time>
      </trkpt>
      <trkpt lat="46.96937" lon="8.7735">
        <ele>716</ele>
        <time>2021-08-06T08:56:07.312Z</time>
      </trkpt>
      <trkpt lat="46.96937" lon="8.77351">
        <ele>716</ele>
        <time>2021-08-06T08:56:08.311Z</time>
      </trkpt>
      <trkpt lat="46.96936" lon="8.77351">
        <ele>716</ele>
        <time>2021-08-06T08:56:09.311Z</time>
      </trkpt>
      <trkpt lat="46.96936" lon="8.77351">
        <ele>716</ele>
        <time>2021-08-06T08:56:10.312Z</time>
      </trkpt>
      <trkpt lat="46.96935" lon="8.77351">
        <ele>716</ele>
        <time>2021-08-06T08:56:11.311Z</time>
      </trkpt>
      <trkpt lat="46.96935" lon="8.7735">
        <ele>717</ele>
        <time>2021-08-06T08:56:12.312Z</time>
      </trkpt>
      <trkpt lat="46.96934" lon="8.77348">
        <ele>717</ele>
        <time>2021-08-06T08:56:13.312Z</time>
      </trkpt>
      <trkpt lat="46.96933" lon="8.77347">
        <ele>718</ele>
        <time>2021-08-06T08:56:14.311Z</time>
      </trkpt>
      <trkpt lat="46.96932" lon="8.77346">
        <ele>718</ele>
        <time>2021-08-06T08:56:15.311Z</time>
      </trkpt>
      <trkpt lat="46.9693" lon="8.77345">
        <ele>719</ele>
        <time>2021-08-06T08:56:16.312Z</time>
      </trkpt>
      <trkpt lat="46.96929" lon="8.77344">
        <ele>719</ele>
        <time>2021-08-06T08:56:17.312Z</time>
      </trkpt>
      <trkpt lat="46.96929" lon="8.77343">
        <ele>720</ele>
        <time>2021-08-06T08:56:18.312Z</time>
      </trkpt>
      <trkpt lat="46.96928" lon="8.77343">
        <ele>721</ele>
        <time>2021-08-06T08:56:19.312Z</time>
      </trkpt>
      <trkpt lat="46.96927" lon="8.77342">
        <ele>722</ele>
        <time>2021-08-06T08:56:20.311Z</time>
      </trkpt>
      <trkpt lat="46.96927" lon="8.77342">
        <ele>723</ele>
        <time>2021-08-06T08:56:21.312Z</time>
      </trkpt>
      <trkpt lat="46.96927" lon="8.77342">
        <ele>724</ele>
        <time>2021-08-06T08:56:22.312Z</time>
      </trkpt>
      <trkpt lat="46.96927" lon="8.77342">
        <ele>725</ele>
        <time>2021-08-06T08:56:23.313Z</time>
      </trkpt>
      <trkpt lat="46.96926" lon="8.77341">
        <ele>726</ele>
        <time>2021-08-06T08:56:24.312Z</time>
      </trkpt>
      <trkpt lat="46.96926" lon="8.7734">
        <ele>726</ele>
        <time>2021-08-06T08:56:25.312Z</time>
      </trkpt>
      <trkpt lat="46.96925" lon="8.7734">
        <ele>726</ele>
        <time>2021-08-06T08:56:26.313Z</time>
      </trkpt>
      <trkpt lat="46.96925" lon="8.7734">
        <ele>725</ele>
        <time>2021-08-06T08:56:27.313Z</time>
      </trkpt>
      <trkpt lat="46.96925" lon="8.77341">
        <ele>725</ele>
        <time>2021-08-06T08:56:28.312Z</time>
      </trkpt>
      <trkpt lat="46.96924" lon="8.77343">
        <ele>724</ele>
        <time>2021-08-06T08:56:29.313Z</time>
      </trkpt>
      <trkpt lat="46.96924" lon="8.77344">
        <ele>724</ele>
        <time>2021-08-06T08:56:30.313Z</time>
      </trkpt>
      <trkpt lat="46.96923" lon="8.77344">
        <ele>724</ele>
        <time>2021-08-06T08:56:31.312Z</time>
      </trkpt>
      <trkpt lat="46.96923" lon="8.77345">
        <ele>725</ele>
        <time>2021-08-06T08:56:32.313Z</time>
      </trkpt>
      <trkpt lat="46.96923" lon="8.77345">
        <ele>725</ele>
        <time>2021-08-06T08:56:33.313Z</time>
      </trkpt>
      <trkpt lat="46.96922" lon="8.77345">
        <ele>725</ele>
        <time>2021-08-06T08:56:34.313Z</time>
      </trkpt>
      <trkpt lat="46.96922" lon="8.77346">
        <ele>725</ele>
        <time>2021-08-06T08:56:35.313Z</time>
      </trkpt>
      <trkpt lat="46.96922" lon="8.77346">
        <ele>725</ele>
        <time>2021-08-06T08:56:36.313Z</time>
      </trkpt>
      <trkpt lat="46.96921" lon="8.77345">
        <ele>725</ele>
        <time>2021-08-06T08:56:37.313Z</time>
      </trkpt>
      <trkpt lat="46.9692" lon="8.77345">
        <ele>724</ele>
        <time>2021-08-06T08:56:38.313Z</time>
      </trkpt>
      <trkpt lat="46.9692" lon="8.77344">
        <ele>724</ele>
        <time>2021-08-06T08:56:39.312Z</time>
      </trkpt>
      <trkpt lat="46.96919" lon="8.77344">
        <ele>725</ele>
        <time>2021-08-06T08:56:40.313Z</time>
      </trkpt>
      <trkpt lat="46.96918" lon="8.77343">
        <ele>725</ele>
        <time>2021-08-06T08:56:41.312Z</time>
      </trkpt>
      <trkpt lat="46.96918" lon="8.77343">
        <ele>726</ele>
        <time>2021-08-06T08:56:42.312Z</time>
      </trkpt>
      <trkpt lat="46.96918" lon="8.77344">
        <ele>726</ele>
        <time>2021-08-06T08:56:43.312Z</time>
      </trkpt>
      <trkpt lat="46.96917" lon="8.77346">
        <ele>727</ele>
        <time>2021-08-06T08:56:44.312Z</time>
      </trkpt>
      <trkpt lat="46.96918" lon="8.77347">
        <ele>727</ele>
        <time>2021-08-06T08:56:45.313Z</time>
      </trkpt>
      <trkpt lat="46.96917" lon="8.77348">
        <ele>728</ele>
        <time>2021-08-06T08:56:46.313Z</time>
      </trkpt>
      <trkpt lat="46.96917" lon="8.77348">
        <ele>728</ele>
        <time>2021-08-06T08:56:47.312Z</time>
      </trkpt>
      <trkpt lat="46.96916" lon="8.77348">
        <ele>727</ele>
        <time>2021-08-06T08:56:48.313Z</time>
      </trkpt>
      <trkpt lat="46.96916" lon="8.77349">
        <ele>727</ele>
        <time>2021-08-06T08:56:49.313Z</time>
      </trkpt>
      <trkpt lat="46.96915" lon="8.77348">
        <ele>727</ele>
        <time>2021-08-06T08:56:50.312Z</time>
      </trkpt>
      <trkpt lat="46.96915" lon="8.77348">
        <ele>727</ele>
        <time>2021-08-06T08:56:51.312Z</time>
      </trkpt>
      <trkpt lat="46.96915" lon="8.77348">
        <ele>728</ele>
        <time>2021-08-06T08:56:52.312Z</time>
      </trkpt>
      <trkpt lat="46.96914" lon="8.77347">
        <ele>728</ele>
        <time>2021-08-06T08:56:53.313Z</time>
      </trkpt>
      <trkpt lat="46.96914" lon="8.77347">
        <ele>728</ele>
        <time>2021-08-06T08:56:54.313Z</time>
      </trkpt>
      <trkpt lat="46.96914" lon="8.77348">
        <ele>728</ele>
        <time>2021-08-06T08:56:55.313Z</time>
      </trkpt>
      <trkpt lat="46.96914" lon="8.77349">
        <ele>728</ele>
        <time>2021-08-06T08:56:56.313Z</time>
      </trkpt>
      <trkpt lat="46.96914" lon="8.7735">
        <ele>728</ele>
        <time>2021-08-06T08:56:57.312Z</time>
      </trkpt>
      <trkpt lat="46.96914" lon="8.77351">
        <ele>728</ele>
        <time>2021-08-06T08:56:58.313Z</time>
      </trkpt>
      <trkpt lat="46.96914" lon="8.77352">
        <ele>727</ele>
        <time>2021-08-06T08:56:59.312Z</time>
      </trkpt>
      <trkpt lat="46.96914" lon="8.77353">
        <ele>727</ele>
        <time>2021-08-06T08:57:00.313Z</time>
      </trkpt>
      <trkpt lat="46.96914" lon="8.77353">
        <ele>728</ele>
        <time>2021-08-06T08:57:01.313Z</time>
      </trkpt>
      <trkpt lat="46.96914" lon="8.77353">
        <ele>728</ele>
        <time>2021-08-06T08:57:02.313Z</time>
      </trkpt>
      <trkpt lat="46.96913" lon="8.77353">
        <ele>729</ele>
        <time>2021-08-06T08:57:03.313Z</time>
      </trkpt>
      <trkpt lat="46.96912" lon="8.77352">
        <ele>729</ele>
        <time>2021-08-06T08:57:04.313Z</time>
      </trkpt>
      <trkpt lat="46.96911" lon="8.77352">
        <ele>729</ele>
        <time>2021-08-06T08:57:05.313Z</time>
      </trkpt>
      <trkpt lat="46.96911" lon="8.77353">
        <ele>728</ele>
        <time>2021-08-06T08:57:06.312Z</time>
      </trkpt>
      <trkpt lat="46.9691" lon="8.77353">
        <ele>728</ele>
        <time>2021-08-06T08:57:07.312Z</time>
      </trkpt>
      <trkpt lat="46.9691" lon="8.77353">
        <ele>728</ele>
        <time>2021-08-06T08:57:08.313Z</time>
      </trkpt>
      <trkpt lat="46.96909" lon="8.77354">
        <ele>728</ele>
        <time>2021-08-06T08:57:09.313Z</time>
      </trkpt>
      <trkpt lat="46.96909" lon="8.77354">
        <ele>728</ele>
        <time>2021-08-06T08:57:10.312Z</time>
      </trkpt>
      <trkpt lat="46.96908" lon="8.77355">
        <ele>728</ele>
        <time>2021-08-06T08:57:11.313Z</time>
      </trkpt>
      <trkpt lat="46.96908" lon="8.77356">
        <ele>728</ele>
        <time>2021-08-06T08:57:12.313Z</time>
      </trkpt>
      <trkpt lat="46.96907" lon="8.77356">
        <ele>728</ele>
        <time>2021-08-06T08:57:13.312Z</time>
      </trkpt>
      <trkpt lat="46.96906" lon="8.77356">
        <ele>728</ele>
        <time>2021-08-06T08:57:14.313Z</time>
      </trkpt>
      <trkpt lat="46.96906" lon="8.77355">
        <ele>727</ele>
        <time>2021-08-06T08:57:15.312Z</time>
      </trkpt>
      <trkpt lat="46.96906" lon="8.77355">
        <ele>727</ele>
        <time>2021-08-06T08:57:16.313Z</time>
      </trkpt>
      <trkpt lat="46.96906" lon="8.77354">
        <ele>727</ele>
        <time>2021-08-06T08:57:17.313Z</time>
      </trkpt>
      <trkpt lat="46.96906" lon="8.77354">
        <ele>727</ele>
        <time>2021-08-06T08:57:18.312Z</time>
      </trkpt>
      <trkpt lat="46.96905" lon="8.77354">
        <ele>727</ele>
        <time>2021-08-06T08:57:19.312Z</time>
      </trkpt>
      <trkpt lat="46.96905" lon="8.77355">
        <ele>727</ele>
        <time>2021-08-06T08:57:20.312Z</time>
      </trkpt>
      <trkpt lat="46.96905" lon="8.77355">
        <ele>727</ele>
        <time>2021-08-06T08:57:21.312Z</time>
      </trkpt>
      <trkpt lat="46.96904" lon="8.77356">
        <ele>727</ele>
        <time>2021-08-06T08:57:22.313Z</time>
      </trkpt>
      <trkpt lat="46.96903" lon="8.77355">
        <ele>727</ele>
        <time>2021-08-06T08:57:23.312Z</time>
      </trkpt>
      <trkpt lat="46.96902" lon="8.77355">
        <ele>727</ele>
        <time>2021-08-06T08:57:24.313Z</time>
      </trkpt>
      <trkpt lat="46.96902" lon="8.77355">
        <ele>726</ele>
        <time>2021-08-06T08:57:25.312Z</time>
      </trkpt>
      <trkpt lat="46.96901" lon="8.77355">
        <ele>726</ele>
        <time>2021-08-06T08:57:26.312Z</time>
      </trkpt>
      <trkpt lat="46.96901" lon="8.77356">
        <ele>725</ele>
        <time>2021-08-06T08:57:27.312Z</time>
      </trkpt>
      <trkpt lat="46.96901" lon="8.77358">
        <ele>725</ele>
        <time>2021-08-06T08:57:28.312Z</time>
      </trkpt>
      <trkpt lat="46.969" lon="8.7736">
        <ele>725</ele>
        <time>2021-08-06T08:57:29.313Z</time>
      </trkpt>
      <trkpt lat="46.969" lon="8.77361">
        <ele>724</ele>
        <time>2021-08-06T08:57:30.313Z</time>
      </trkpt>
      <trkpt lat="46.969" lon="8.77362">
        <ele>724</ele>
        <time>2021-08-06T08:57:31.313Z</time>
      </trkpt>
      <trkpt lat="46.969" lon="8.77363">
        <ele>724</ele>
        <time>2021-08-06T08:57:32.313Z</time>
      </trkpt>
      <trkpt lat="46.96899" lon="8.77364">
        <ele>724</ele>
        <time>2021-08-06T08:57:33.312Z</time>
      </trkpt>
      <trkpt lat="46.96899" lon="8.77364">
        <ele>723</ele>
        <time>2021-08-06T08:57:34.312Z</time>
      </trkpt>
      <trkpt lat="46.96899" lon="8.77365">
        <ele>723</ele>
        <time>2021-08-06T08:57:35.313Z</time>
      </trkpt>
      <trkpt lat="46.96899" lon="8.77365">
        <ele>723</ele>
        <time>2021-08-06T08:57:36.312Z</time>
      </trkpt>
      <trkpt lat="46.96899" lon="8.77365">
        <ele>723</ele>
        <time>2021-08-06T08:57:37.312Z</time>
      </trkpt>
      <trkpt lat="46.96896" lon="8.77362">
        <ele>725</ele>
        <time>2021-08-06T08:57:38.313Z</time>
      </trkpt>
      <trkpt lat="46.96896" lon="8.77364">
        <ele>726</ele>
        <time>2021-08-06T08:57:39.313Z</time>
      </trkpt>
      <trkpt lat="46.96896" lon="8.77366">
        <ele>726</ele>
        <time>2021-08-06T08:57:40.313Z</time>
      </trkpt>
      <trkpt lat="46.96895" lon="8.77367">
        <ele>726</ele>
        <time>2021-08-06T08:57:41.313Z</time>
      </trkpt>
      <trkpt lat="46.96895" lon="8.77369">
        <ele>727</ele>
        <time>2021-08-06T08:57:42.314Z</time>
      </trkpt>
      <trkpt lat="46.96896" lon="8.77371">
        <ele>727</ele>
        <time>2021-08-06T08:57:43.314Z</time>
      </trkpt>
      <trkpt lat="46.96896" lon="8.77372">
        <ele>727</ele>
        <time>2021-08-06T08:57:44.313Z</time>
      </trkpt>
      <trkpt lat="46.96896" lon="8.77373">
        <ele>727</ele>
        <time>2021-08-06T08:57:45.314Z</time>
      </trkpt>
      <trkpt lat="46.96896" lon="8.77375">
        <ele>728</ele>
        <time>2021-08-06T08:57:46.314Z</time>
      </trkpt>
      <trkpt lat="46.96896" lon="8.77376">
        <ele>729</ele>
        <time>2021-08-06T08:57:47.314Z</time>
      </trkpt>
      <trkpt lat="46.96896" lon="8.77377">
        <ele>730</ele>
        <time>2021-08-06T08:57:48.314Z</time>
      </trkpt>
      <trkpt lat="46.96896" lon="8.77378">
        <ele>731</ele>
        <time>2021-08-06T08:57:49.314Z</time>
      </trkpt>
      <trkpt lat="46.96898" lon="8.77379">
        <ele>733</ele>
        <time>2021-08-06T08:57:50.315Z</time>
      </trkpt>
      <trkpt lat="46.96897" lon="8.77381">
        <ele>733</ele>
        <time>2021-08-06T08:57:51.316Z</time>
      </trkpt>
      <trkpt lat="46.96898" lon="8.77383">
        <ele>733</ele>
        <time>2021-08-06T08:57:52.315Z</time>
      </trkpt>
      <trkpt lat="46.96894" lon="8.77381">
        <ele>720</ele>
        <time>2021-08-06T08:57:53.316Z</time>
      </trkpt>
      <trkpt lat="46.96893" lon="8.77381">
        <ele>720</ele>
        <time>2021-08-06T08:57:54.317Z</time>
      </trkpt>
      <trkpt lat="46.96889" lon="8.77382">
        <ele>710</ele>
        <time>2021-08-06T08:57:55.317Z</time>
      </trkpt>
      <trkpt lat="46.96888" lon="8.77382">
        <ele>709</ele>
        <time>2021-08-06T08:57:56.318Z</time>
      </trkpt>
      <trkpt lat="46.96888" lon="8.77382">
        <ele>708</ele>
        <time>2021-08-06T08:57:57.317Z</time>
      </trkpt>
      <trkpt lat="46.96887" lon="8.77382">
        <ele>708</ele>
        <time>2021-08-06T08:57:58.318Z</time>
      </trkpt>
      <trkpt lat="46.96889" lon="8.77383">
        <ele>708</ele>
        <time>2021-08-06T08:57:59.318Z</time>
      </trkpt>
      <trkpt lat="46.96889" lon="8.77384">
        <ele>708</ele>
        <time>2021-08-06T08:58:00.318Z</time>
      </trkpt>
      <trkpt lat="46.96889" lon="8.77384">
        <ele>708</ele>
        <time>2021-08-06T08:58:01.317Z</time>
      </trkpt>
      <trkpt lat="46.96889" lon="8.77385">
        <ele>709</ele>
        <time>2021-08-06T08:58:02.317Z</time>
      </trkpt>
      <trkpt lat="46.9689" lon="8.77387">
        <ele>710</ele>
        <time>2021-08-06T08:58:03.318Z</time>
      </trkpt>
      <trkpt lat="46.9689" lon="8.77387">
        <ele>710</ele>
        <time>2021-08-06T08:58:04.318Z</time>
      </trkpt>
      <trkpt lat="46.96894" lon="8.77384">
        <ele>709</ele>
        <time>2021-08-06T08:58:05.318Z</time>
      </trkpt>
      <trkpt lat="46.96894" lon="8.77384">
        <ele>709</ele>
        <time>2021-08-06T08:58:06.318Z</time>
      </trkpt>
      <trkpt lat="46.96895" lon="8.77385">
        <ele>709</ele>
        <time>2021-08-06T08:58:07.317Z</time>
      </trkpt>
      <trkpt lat="46.96895" lon="8.77386">
        <ele>708</ele>
        <time>2021-08-06T08:58:08.317Z</time>
      </trkpt>
      <trkpt lat="46.96894" lon="8.77393">
        <ele>708</ele>
        <time>2021-08-06T08:58:09.318Z</time>
      </trkpt>
      <trkpt lat="46.96893" lon="8.77395">
        <ele>709</ele>
        <time>2021-08-06T08:58:10.318Z</time>
      </trkpt>
      <trkpt lat="46.96896" lon="8.77397">
        <ele>719</ele>
        <time>2021-08-06T08:58:11.318Z</time>
      </trkpt>
      <trkpt lat="46.96897" lon="8.77397">
        <ele>719</ele>
        <time>2021-08-06T08:58:12.318Z</time>
      </trkpt>
      <trkpt lat="46.96897" lon="8.77398">
        <ele>720</ele>
        <time>2021-08-06T08:58:13.318Z</time>
      </trkpt>
      <trkpt lat="46.96897" lon="8.77398">
        <ele>720</ele>
        <time>2021-08-06T08:58:14.318Z</time>
      </trkpt>
      <trkpt lat="46.96898" lon="8.77394">
        <ele>721</ele>
        <time>2021-08-06T08:58:15.318Z</time>
      </trkpt>
      <trkpt lat="46.96898" lon="8.77393">
        <ele>722</ele>
        <time>2021-08-06T08:58:16.318Z</time>
      </trkpt>
      <trkpt lat="46.96898" lon="8.77392">
        <ele>722</ele>
        <time>2021-08-06T08:58:17.320Z</time>
      </trkpt>
      <trkpt lat="46.96898" lon="8.77393">
        <ele>722</ele>
        <time>2021-08-06T08:58:18.320Z</time>
      </trkpt>
      <trkpt lat="46.96898" lon="8.77392">
        <ele>722</ele>
        <time>2021-08-06T08:58:19.319Z</time>
      </trkpt>
      <trkpt lat="46.96899" lon="8.77393">
        <ele>721</ele>
        <time>2021-08-06T08:58:20.320Z</time>
      </trkpt>
      <trkpt lat="46.96899" lon="8.77393">
        <ele>721</ele>
        <time>2021-08-06T08:58:21.319Z</time>
      </trkpt>
      <trkpt lat="46.96899" lon="8.77392">
        <ele>724</ele>
        <time>2021-08-06T08:58:22.321Z</time>
      </trkpt>
      <trkpt lat="46.96899" lon="8.77393">
        <ele>725</ele>
        <time>2021-08-06T08:58:23.320Z</time>
      </trkpt>
      <trkpt lat="46.96898" lon="8.77394">
        <ele>725</ele>
        <time>2021-08-06T08:58:24.320Z</time>
      </trkpt>
      <trkpt lat="46.96898" lon="8.77395">
        <ele>725</ele>
        <time>2021-08-06T08:58:25.320Z</time>
      </trkpt>
      <trkpt lat="46.96898" lon="8.77397">
        <ele>725</ele>
        <time>2021-08-06T08:58:26.320Z</time>
      </trkpt>
      <trkpt lat="46.96897" lon="8.77398">
        <ele>726</ele>
        <time>2021-08-06T08:58:27.320Z</time>
      </trkpt>
      <trkpt lat="46.96897" lon="8.77399">
        <ele>726</ele>
        <time>2021-08-06T08:58:28.320Z</time>
      </trkpt>
      <trkpt lat="46.96897" lon="8.77401">
        <ele>726</ele>
        <time>2021-08-06T08:58:29.320Z</time>
      </trkpt>
      <trkpt lat="46.96896" lon="8.77402">
        <ele>726</ele>
        <time>2021-08-06T08:58:30.321Z</time>
      </trkpt>
      <trkpt lat="46.96896" lon="8.77403">
        <ele>726</ele>
        <time>2021-08-06T08:58:31.321Z</time>
      </trkpt>
      <trkpt lat="46.96896" lon="8.77405">
        <ele>726</ele>
        <time>2021-08-06T08:58:32.321Z</time>
      </trkpt>
      <trkpt lat="46.96895" lon="8.77406">
        <ele>726</ele>
        <time>2021-08-06T08:58:33.321Z</time>
      </trkpt>
      <trkpt lat="46.96894" lon="8.77408">
        <ele>726</ele>
        <time>2021-08-06T08:58:34.321Z</time>
      </trkpt>
      <trkpt lat="46.96894" lon="8.77408">
        <ele>726</ele>
        <time>2021-08-06T08:58:35.321Z</time>
      </trkpt>
      <trkpt lat="46.96894" lon="8.77409">
        <ele>726</ele>
        <time>2021-08-06T08:58:36.320Z</time>
      </trkpt>
      <trkpt lat="46.96893" lon="8.77409">
        <ele>726</ele>
        <time>2021-08-06T08:58:37.320Z</time>
      </trkpt>
      <trkpt lat="46.96893" lon="8.7741">
        <ele>726</ele>
        <time>2021-08-06T08:58:38.321Z</time>
      </trkpt>
      <trkpt lat="46.96893" lon="8.7741">
        <ele>727</ele>
        <time>2021-08-06T08:58:39.321Z</time>
      </trkpt>
      <trkpt lat="46.96892" lon="8.7741">
        <ele>727</ele>
        <time>2021-08-06T08:58:40.320Z</time>
      </trkpt>
      <trkpt lat="46.96892" lon="8.7741">
        <ele>727</ele>
        <time>2021-08-06T08:58:41.321Z</time>
      </trkpt>
      <trkpt lat="46.96891" lon="8.7741">
        <ele>727</ele>
        <time>2021-08-06T08:58:42.321Z</time>
      </trkpt>
      <trkpt lat="46.9689" lon="8.77411">
        <ele>728</ele>
        <time>2021-08-06T08:58:43.321Z</time>
      </trkpt>
      <trkpt lat="46.96889" lon="8.77412">
        <ele>728</ele>
        <time>2021-08-06T08:58:44.321Z</time>
      </trkpt>
      <trkpt lat="46.96889" lon="8.77412">
        <ele>728</ele>
        <time>2021-08-06T08:58:45.320Z</time>
      </trkpt>
      <trkpt lat="46.96888" lon="8.77413">
        <ele>728</ele>
        <time>2021-08-06T08:58:46.321Z</time>
      </trkpt>
      <trkpt lat="46.96887" lon="8.77413">
        <ele>728</ele>
        <time>2021-08-06T08:58:47.321Z</time>
      </trkpt>
      <trkpt lat="46.96887" lon="8.77413">
        <ele>728</ele>
        <time>2021-08-06T08:58:48.321Z</time>
      </trkpt>
      <trkpt lat="46.96886" lon="8.77412">
        <ele>728</ele>
        <time>2021-08-06T08:58:49.320Z</time>
      </trkpt>
      <trkpt lat="46.96885" lon="8.77413">
        <ele>728</ele>
        <time>2021-08-06T08:58:50.321Z</time>
      </trkpt>
      <trkpt lat="46.96884" lon="8.77413">
        <ele>729</ele>
        <time>2021-08-06T08:58:51.321Z</time>
      </trkpt>
      <trkpt lat="46.96884" lon="8.77413">
        <ele>729</ele>
        <time>2021-08-06T08:58:52.321Z</time>
      </trkpt>
      <trkpt lat="46.96883" lon="8.77412">
        <ele>729</ele>
        <time>2021-08-06T08:58:53.321Z</time>
      </trkpt>
      <trkpt lat="46.96883" lon="8.77411">
        <ele>729</ele>
        <time>2021-08-06T08:58:54.321Z</time>
      </trkpt>
      <trkpt lat="46.96883" lon="8.77411">
        <ele>730</ele>
        <time>2021-08-06T08:58:55.321Z</time>
      </trkpt>
      <trkpt lat="46.96883" lon="8.77409">
        <ele>731</ele>
        <time>2021-08-06T08:58:56.321Z</time>
      </trkpt>
      <trkpt lat="46.96882" lon="8.77408">
        <ele>732</ele>
        <time>2021-08-06T08:58:57.321Z</time>
      </trkpt>
      <trkpt lat="46.96882" lon="8.77406">
        <ele>732</ele>
        <time>2021-08-06T08:58:58.320Z</time>
      </trkpt>
      <trkpt lat="46.96881" lon="8.77405">
        <ele>733</ele>
        <time>2021-08-06T08:58:59.321Z</time>
      </trkpt>
      <trkpt lat="46.9688" lon="8.77404">
        <ele>734</ele>
        <time>2021-08-06T08:59:00.321Z</time>
      </trkpt>
      <trkpt lat="46.9688" lon="8.77404">
        <ele>734</ele>
        <time>2021-08-06T08:59:01.321Z</time>
      </trkpt>
      <trkpt lat="46.9688" lon="8.77404">
        <ele>734</ele>
        <time>2021-08-06T08:59:02.321Z</time>
      </trkpt>
      <trkpt lat="46.96879" lon="8.77404">
        <ele>734</ele>
        <time>2021-08-06T08:59:03.320Z</time>
      </trkpt>
      <trkpt lat="46.96879" lon="8.77405">
        <ele>735</ele>
        <time>2021-08-06T08:59:04.321Z</time>
      </trkpt>
      <trkpt lat="46.96879" lon="8.77406">
        <ele>735</ele>
        <time>2021-08-06T08:59:05.321Z</time>
      </trkpt>
      <trkpt lat="46.96878" lon="8.77406">
        <ele>735</ele>
        <time>2021-08-06T08:59:06.321Z</time>
      </trkpt>
      <trkpt lat="46.96876" lon="8.77405">
        <ele>735</ele>
        <time>2021-08-06T08:59:07.320Z</time>
      </trkpt>
      <trkpt lat="46.96876" lon="8.77406">
        <ele>736</ele>
        <time>2021-08-06T08:59:08.321Z</time>
      </trkpt>
      <trkpt lat="46.96876" lon="8.77406">
        <ele>736</ele>
        <time>2021-08-06T08:59:09.320Z</time>
      </trkpt>
      <trkpt lat="46.96876" lon="8.77405">
        <ele>736</ele>
        <time>2021-08-06T08:59:10.321Z</time>
      </trkpt>
      <trkpt lat="46.96875" lon="8.77405">
        <ele>736</ele>
        <time>2021-08-06T08:59:11.320Z</time>
      </trkpt>
      <trkpt lat="46.96875" lon="8.77405">
        <ele>736</ele>
        <time>2021-08-06T08:59:12.321Z</time>
      </trkpt>
      <trkpt lat="46.96874" lon="8.77404">
        <ele>736</ele>
        <time>2021-08-06T08:59:13.321Z</time>
      </trkpt>
      <trkpt lat="46.96873" lon="8.77404">
        <ele>735</ele>
        <time>2021-08-06T08:59:14.320Z</time>
      </trkpt>
      <trkpt lat="46.96872" lon="8.77404">
        <ele>735</ele>
        <time>2021-08-06T08:59:15.321Z</time>
      </trkpt>
      <trkpt lat="46.96872" lon="8.77404">
        <ele>734</ele>
        <time>2021-08-06T08:59:16.321Z</time>
      </trkpt>
      <trkpt lat="46.96872" lon="8.77406">
        <ele>734</ele>
        <time>2021-08-06T08:59:17.320Z</time>
      </trkpt>
      <trkpt lat="46.96872" lon="8.77407">
        <ele>734</ele>
        <time>2021-08-06T08:59:18.321Z</time>
      </trkpt>
      <trkpt lat="46.96872" lon="8.77408">
        <ele>734</ele>
        <time>2021-08-06T08:59:19.321Z</time>
      </trkpt>
      <trkpt lat="46.96872" lon="8.77411">
        <ele>734</ele>
        <time>2021-08-06T08:59:20.321Z</time>
      </trkpt>
      <trkpt lat="46.96872" lon="8.77412">
        <ele>735</ele>
        <time>2021-08-06T08:59:21.320Z</time>
      </trkpt>
      <trkpt lat="46.96873" lon="8.77412">
        <ele>735</ele>
        <time>2021-08-06T08:59:22.321Z</time>
      </trkpt>
      <trkpt lat="46.96873" lon="8.77413">
        <ele>735</ele>
        <time>2021-08-06T08:59:23.321Z</time>
      </trkpt>
      <trkpt lat="46.96873" lon="8.77413">
        <ele>734</ele>
        <time>2021-08-06T08:59:24.321Z</time>
      </trkpt>
      <trkpt lat="46.96873" lon="8.77413">
        <ele>734</ele>
        <time>2021-08-06T08:59:25.321Z</time>
      </trkpt>
      <trkpt lat="46.96873" lon="8.77422">
        <ele>733</ele>
        <time>2021-08-06T08:59:26.321Z</time>
      </trkpt>
      <trkpt lat="46.96872" lon="8.77424">
        <ele>733</ele>
        <time>2021-08-06T08:59:27.320Z</time>
      </trkpt>
      <trkpt lat="46.96872" lon="8.77426">
        <ele>733</ele>
        <time>2021-08-06T08:59:28.320Z</time>
      </trkpt>
      <trkpt lat="46.96873" lon="8.77427">
        <ele>733</ele>
        <time>2021-08-06T08:59:29.321Z</time>
      </trkpt>
      <trkpt lat="46.96872" lon="8.77428">
        <ele>733</ele>
        <time>2021-08-06T08:59:30.320Z</time>
      </trkpt>
      <trkpt lat="46.96871" lon="8.77428">
        <ele>733</ele>
        <time>2021-08-06T08:59:31.321Z</time>
      </trkpt>
      <trkpt lat="46.96871" lon="8.77428">
        <ele>733</ele>
        <time>2021-08-06T08:59:32.321Z</time>
      </trkpt>
      <trkpt lat="46.9687" lon="8.77428">
        <ele>733</ele>
        <time>2021-08-06T08:59:33.320Z</time>
      </trkpt>
      <trkpt lat="46.9687" lon="8.77428">
        <ele>734</ele>
        <time>2021-08-06T08:59:34.321Z</time>
      </trkpt>
      <trkpt lat="46.9687" lon="8.77429">
        <ele>734</ele>
        <time>2021-08-06T08:59:35.321Z</time>
      </trkpt>
      <trkpt lat="46.96869" lon="8.77429">
        <ele>734</ele>
        <time>2021-08-06T08:59:36.320Z</time>
      </trkpt>
      <trkpt lat="46.96868" lon="8.77429">
        <ele>734</ele>
        <time>2021-08-06T08:59:37.320Z</time>
      </trkpt>
      <trkpt lat="46.96867" lon="8.77429">
        <ele>734</ele>
        <time>2021-08-06T08:59:38.321Z</time>
      </trkpt>
      <trkpt lat="46.96866" lon="8.77428">
        <ele>734</ele>
        <time>2021-08-06T08:59:39.321Z</time>
      </trkpt>
      <trkpt lat="46.96865" lon="8.77428">
        <ele>734</ele>
        <time>2021-08-06T08:59:40.320Z</time>
      </trkpt>
      <trkpt lat="46.96865" lon="8.77428">
        <ele>734</ele>
        <time>2021-08-06T08:59:41.320Z</time>
      </trkpt>
      <trkpt lat="46.96864" lon="8.77428">
        <ele>734</ele>
        <time>2021-08-06T08:59:42.320Z</time>
      </trkpt>
      <trkpt lat="46.96863" lon="8.77427">
        <ele>734</ele>
        <time>2021-08-06T08:59:43.321Z</time>
      </trkpt>
      <trkpt lat="46.96863" lon="8.77428">
        <ele>734</ele>
        <time>2021-08-06T08:59:44.320Z</time>
      </trkpt>
      <trkpt lat="46.96863" lon="8.77428">
        <ele>734</ele>
        <time>2021-08-06T08:59:45.321Z</time>
      </trkpt>
      <trkpt lat="46.96862" lon="8.77429">
        <ele>734</ele>
        <time>2021-08-06T08:59:46.321Z</time>
      </trkpt>
      <trkpt lat="46.96861" lon="8.77429">
        <ele>734</ele>
        <time>2021-08-06T08:59:47.321Z</time>
      </trkpt>
      <trkpt lat="46.96861" lon="8.77429">
        <ele>735</ele>
        <time>2021-08-06T08:59:48.320Z</time>
      </trkpt>
      <trkpt lat="46.9686" lon="8.77429">
        <ele>735</ele>
        <time>2021-08-06T08:59:49.321Z</time>
      </trkpt>
      <trkpt lat="46.9686" lon="8.77429">
        <ele>735</ele>
        <time>2021-08-06T08:59:50.321Z</time>
      </trkpt>
      <trkpt lat="46.96859" lon="8.77428">
        <ele>735</ele>
        <time>2021-08-06T08:59:51.320Z</time>
      </trkpt>
      <trkpt lat="46.96859" lon="8.77428">
        <ele>735</ele>
        <time>2021-08-06T08:59:52.321Z</time>
      </trkpt>
      <trkpt lat="46.96859" lon="8.77428">
        <ele>736</ele>
        <time>2021-08-06T08:59:53.321Z</time>
      </trkpt>
      <trkpt lat="46.96858" lon="8.77428">
        <ele>736</ele>
        <time>2021-08-06T08:59:54.321Z</time>
      </trkpt>
      <trkpt lat="46.96858" lon="8.77429">
        <ele>737</ele>
        <time>2021-08-06T08:59:55.320Z</time>
      </trkpt>
      <trkpt lat="46.96858" lon="8.77429">
        <ele>737</ele>
        <time>2021-08-06T08:59:56.320Z</time>
      </trkpt>
      <trkpt lat="46.96858" lon="8.77429">
        <ele>737</ele>
        <time>2021-08-06T08:59:57.321Z</time>
      </trkpt>
      <trkpt lat="46.96858" lon="8.7743">
        <ele>737</ele>
        <time>2021-08-06T08:59:58.321Z</time>
      </trkpt>
      <trkpt lat="46.96858" lon="8.77432">
        <ele>737</ele>
        <time>2021-08-06T08:59:59.322Z</time>
      </trkpt>
      <trkpt lat="46.96857" lon="8.77433">
        <ele>737</ele>
        <time>2021-08-06T09:00:00.321Z</time>
      </trkpt>
      <trkpt lat="46.96856" lon="8.77433">
        <ele>737</ele>
        <time>2021-08-06T09:00:01.321Z</time>
      </trkpt>
      <trkpt lat="46.96856" lon="8.77433">
        <ele>737</ele>
        <time>2021-08-06T09:00:02.321Z</time>
      </trkpt>
      <trkpt lat="46.96855" lon="8.77433">
        <ele>738</ele>
        <time>2021-08-06T09:00:03.321Z</time>
      </trkpt>
      <trkpt lat="46.96855" lon="8.77433">
        <ele>738</ele>
        <time>2021-08-06T09:00:04.321Z</time>
      </trkpt>
      <trkpt lat="46.96855" lon="8.77434">
        <ele>738</ele>
        <time>2021-08-06T09:00:05.321Z</time>
      </trkpt>
      <trkpt lat="46.96854" lon="8.77436">
        <ele>738</ele>
        <time>2021-08-06T09:00:06.321Z</time>
      </trkpt>
      <trkpt lat="46.96853" lon="8.77437">
        <ele>738</ele>
        <time>2021-08-06T09:00:07.322Z</time>
      </trkpt>
      <trkpt lat="46.96853" lon="8.77438">
        <ele>737</ele>
        <time>2021-08-06T09:00:08.322Z</time>
      </trkpt>
      <trkpt lat="46.96852" lon="8.77439">
        <ele>737</ele>
        <time>2021-08-06T09:00:09.321Z</time>
      </trkpt>
      <trkpt lat="46.96852" lon="8.77438">
        <ele>737</ele>
        <time>2021-08-06T09:00:10.322Z</time>
      </trkpt>
      <trkpt lat="46.96852" lon="8.77439">
        <ele>737</ele>
        <time>2021-08-06T09:00:11.321Z</time>
      </trkpt>
      <trkpt lat="46.96851" lon="8.77439">
        <ele>737</ele>
        <time>2021-08-06T09:00:12.322Z</time>
      </trkpt>
      <trkpt lat="46.96851" lon="8.77438">
        <ele>737</ele>
        <time>2021-08-06T09:00:13.321Z</time>
      </trkpt>
      <trkpt lat="46.9685" lon="8.77438">
        <ele>737</ele>
        <time>2021-08-06T09:00:14.322Z</time>
      </trkpt>
      <trkpt lat="46.9685" lon="8.77437">
        <ele>737</ele>
        <time>2021-08-06T09:00:15.322Z</time>
      </trkpt>
      <trkpt lat="46.96849" lon="8.77436">
        <ele>736</ele>
        <time>2021-08-06T09:00:16.322Z</time>
      </trkpt>
      <trkpt lat="46.96848" lon="8.77436">
        <ele>736</ele>
        <time>2021-08-06T09:00:17.321Z</time>
      </trkpt>
      <trkpt lat="46.96848" lon="8.77436">
        <ele>735</ele>
        <time>2021-08-06T09:00:18.322Z</time>
      </trkpt>
      <trkpt lat="46.96848" lon="8.77437">
        <ele>735</ele>
        <time>2021-08-06T09:00:19.321Z</time>
      </trkpt>
      <trkpt lat="46.96848" lon="8.77437">
        <ele>735</ele>
        <time>2021-08-06T09:00:20.322Z</time>
      </trkpt>
      <trkpt lat="46.96848" lon="8.77438">
        <ele>735</ele>
        <time>2021-08-06T09:00:21.321Z</time>
      </trkpt>
      <trkpt lat="46.96849" lon="8.77439">
        <ele>735</ele>
        <time>2021-08-06T09:00:22.322Z</time>
      </trkpt>
      <trkpt lat="46.96848" lon="8.77439">
        <ele>736</ele>
        <time>2021-08-06T09:00:23.322Z</time>
      </trkpt>
      <trkpt lat="46.96848" lon="8.77439">
        <ele>736</ele>
        <time>2021-08-06T09:00:24.322Z</time>
      </trkpt>
      <trkpt lat="46.96848" lon="8.7744">
        <ele>736</ele>
        <time>2021-08-06T09:00:25.322Z</time>
      </trkpt>
      <trkpt lat="46.96847" lon="8.7744">
        <ele>737</ele>
        <time>2021-08-06T09:00:26.322Z</time>
      </trkpt>
      <trkpt lat="46.96847" lon="8.7744">
        <ele>737</ele>
        <time>2021-08-06T09:00:27.322Z</time>
      </trkpt>
      <trkpt lat="46.96847" lon="8.7744">
        <ele>736</ele>
        <time>2021-08-06T09:00:28.321Z</time>
      </trkpt>
      <trkpt lat="46.96846" lon="8.7744">
        <ele>737</ele>
        <time>2021-08-06T09:00:29.323Z</time>
      </trkpt>
      <trkpt lat="46.96845" lon="8.77439">
        <ele>737</ele>
        <time>2021-08-06T09:00:30.323Z</time>
      </trkpt>
      <trkpt lat="46.96845" lon="8.7744">
        <ele>738</ele>
        <time>2021-08-06T09:00:31.322Z</time>
      </trkpt>
      <trkpt lat="46.96845" lon="8.7744">
        <ele>738</ele>
        <time>2021-08-06T09:00:32.323Z</time>
      </trkpt>
      <trkpt lat="46.96845" lon="8.7744">
        <ele>739</ele>
        <time>2021-08-06T09:00:33.322Z</time>
      </trkpt>
      <trkpt lat="46.96845" lon="8.7744">
        <ele>739</ele>
        <time>2021-08-06T09:00:34.323Z</time>
      </trkpt>
      <trkpt lat="46.96845" lon="8.77441">
        <ele>740</ele>
        <time>2021-08-06T09:00:35.323Z</time>
      </trkpt>
      <trkpt lat="46.96844" lon="8.77442">
        <ele>740</ele>
        <time>2021-08-06T09:00:36.322Z</time>
      </trkpt>
      <trkpt lat="46.96845" lon="8.77444">
        <ele>740</ele>
        <time>2021-08-06T09:00:37.323Z</time>
      </trkpt>
      <trkpt lat="46.96845" lon="8.77443">
        <ele>740</ele>
        <time>2021-08-06T09:00:38.323Z</time>
      </trkpt>
      <trkpt lat="46.96845" lon="8.77443">
        <ele>741</ele>
        <time>2021-08-06T09:00:39.323Z</time>
      </trkpt>
      <trkpt lat="46.96844" lon="8.77443">
        <ele>742</ele>
        <time>2021-08-06T09:00:40.322Z</time>
      </trkpt>
      <trkpt lat="46.96844" lon="8.77443">
        <ele>742</ele>
        <time>2021-08-06T09:00:41.323Z</time>
      </trkpt>
      <trkpt lat="46.96845" lon="8.77443">
        <ele>743</ele>
        <time>2021-08-06T09:00:42.323Z</time>
      </trkpt>
      <trkpt lat="46.96845" lon="8.77443">
        <ele>743</ele>
        <time>2021-08-06T09:00:43.323Z</time>
      </trkpt>
      <trkpt lat="46.96845" lon="8.77444">
        <ele>744</ele>
        <time>2021-08-06T09:00:44.322Z</time>
      </trkpt>
      <trkpt lat="46.96844" lon="8.77444">
        <ele>745</ele>
        <time>2021-08-06T09:00:45.322Z</time>
      </trkpt>
      <trkpt lat="46.96844" lon="8.77445">
        <ele>745</ele>
        <time>2021-08-06T09:00:46.323Z</time>
      </trkpt>
      <trkpt lat="46.96844" lon="8.77445">
        <ele>746</ele>
        <time>2021-08-06T09:00:47.323Z</time>
      </trkpt>
      <trkpt lat="46.96843" lon="8.77446">
        <ele>747</ele>
        <time>2021-08-06T09:00:48.323Z</time>
      </trkpt>
      <trkpt lat="46.96843" lon="8.77446">
        <ele>747</ele>
        <time>2021-08-06T09:00:49.323Z</time>
      </trkpt>
      <trkpt lat="46.96843" lon="8.77447">
        <ele>748</ele>
        <time>2021-08-06T09:00:50.323Z</time>
      </trkpt>
      <trkpt lat="46.96842" lon="8.77447">
        <ele>748</ele>
        <time>2021-08-06T09:00:51.323Z</time>
      </trkpt>
      <trkpt lat="46.96842" lon="8.77446">
        <ele>749</ele>
        <time>2021-08-06T09:00:52.322Z</time>
      </trkpt>
      <trkpt lat="46.96842" lon="8.77446">
        <ele>749</ele>
        <time>2021-08-06T09:00:53.323Z</time>
      </trkpt>
      <trkpt lat="46.96842" lon="8.77445">
        <ele>749</ele>
        <time>2021-08-06T09:00:54.323Z</time>
      </trkpt>
      <trkpt lat="46.96842" lon="8.77445">
        <ele>749</ele>
        <time>2021-08-06T09:00:55.322Z</time>
      </trkpt>
      <trkpt lat="46.96842" lon="8.77444">
        <ele>749</ele>
        <time>2021-08-06T09:00:56.322Z</time>
      </trkpt>
      <trkpt lat="46.96841" lon="8.77444">
        <ele>748</ele>
        <time>2021-08-06T09:00:57.322Z</time>
      </trkpt>
      <trkpt lat="46.9684" lon="8.77443">
        <ele>748</ele>
        <time>2021-08-06T09:00:58.323Z</time>
      </trkpt>
      <trkpt lat="46.9684" lon="8.77443">
        <ele>748</ele>
        <time>2021-08-06T09:00:59.323Z</time>
      </trkpt>
      <trkpt lat="46.96839" lon="8.77442">
        <ele>748</ele>
        <time>2021-08-06T09:01:00.323Z</time>
      </trkpt>
      <trkpt lat="46.96838" lon="8.77442">
        <ele>747</ele>
        <time>2021-08-06T09:01:01.323Z</time>
      </trkpt>
      <trkpt lat="46.96838" lon="8.77442">
        <ele>747</ele>
        <time>2021-08-06T09:01:02.322Z</time>
      </trkpt>
      <trkpt lat="46.96837" lon="8.77443">
        <ele>747</ele>
        <time>2021-08-06T09:01:03.323Z</time>
      </trkpt>
      <trkpt lat="46.96837" lon="8.77443">
        <ele>747</ele>
        <time>2021-08-06T09:01:04.322Z</time>
      </trkpt>
      <trkpt lat="46.96836" lon="8.77444">
        <ele>747</ele>
        <time>2021-08-06T09:01:05.322Z</time>
      </trkpt>
      <trkpt lat="46.96836" lon="8.77444">
        <ele>746</ele>
        <time>2021-08-06T09:01:06.323Z</time>
      </trkpt>
      <trkpt lat="46.96835" lon="8.77444">
        <ele>746</ele>
        <time>2021-08-06T09:01:07.323Z</time>
      </trkpt>
      <trkpt lat="46.96835" lon="8.77445">
        <ele>746</ele>
        <time>2021-08-06T09:01:08.323Z</time>
      </trkpt>
      <trkpt lat="46.96835" lon="8.77445">
        <ele>745</ele>
        <time>2021-08-06T09:01:09.323Z</time>
      </trkpt>
      <trkpt lat="46.96835" lon="8.77446">
        <ele>745</ele>
        <time>2021-08-06T09:01:10.322Z</time>
      </trkpt>
      <trkpt lat="46.96835" lon="8.77447">
        <ele>745</ele>
        <time>2021-08-06T09:01:11.322Z</time>
      </trkpt>
      <trkpt lat="46.96835" lon="8.77448">
        <ele>744</ele>
        <time>2021-08-06T09:01:12.323Z</time>
      </trkpt>
      <trkpt lat="46.96835" lon="8.77448">
        <ele>743</ele>
        <time>2021-08-06T09:01:13.323Z</time>
      </trkpt>
      <trkpt lat="46.96834" lon="8.77448">
        <ele>743</ele>
        <time>2021-08-06T09:01:14.323Z</time>
      </trkpt>
      <trkpt lat="46.96834" lon="8.77449">
        <ele>743</ele>
        <time>2021-08-06T09:01:15.322Z</time>
      </trkpt>
      <trkpt lat="46.96834" lon="8.77449">
        <ele>743</ele>
        <time>2021-08-06T09:01:16.322Z</time>
      </trkpt>
      <trkpt lat="46.96834" lon="8.7745">
        <ele>743</ele>
        <time>2021-08-06T09:01:17.322Z</time>
      </trkpt>
      <trkpt lat="46.96834" lon="8.7745">
        <ele>743</ele>
        <time>2021-08-06T09:01:18.322Z</time>
      </trkpt>
      <trkpt lat="46.96834" lon="8.7745">
        <ele>744</ele>
        <time>2021-08-06T09:01:19.322Z</time>
      </trkpt>
      <trkpt lat="46.96833" lon="8.77449">
        <ele>744</ele>
        <time>2021-08-06T09:01:20.322Z</time>
      </trkpt>
      <trkpt lat="46.96833" lon="8.77449">
        <ele>745</ele>
        <time>2021-08-06T09:01:21.322Z</time>
      </trkpt>
      <trkpt lat="46.96832" lon="8.77447">
        <ele>747</ele>
        <time>2021-08-06T09:01:22.323Z</time>
      </trkpt>
      <trkpt lat="46.96831" lon="8.77447">
        <ele>747</ele>
        <time>2021-08-06T09:01:23.323Z</time>
      </trkpt>
      <trkpt lat="46.9683" lon="8.77446">
        <ele>748</ele>
        <time>2021-08-06T09:01:24.323Z</time>
      </trkpt>
      <trkpt lat="46.96828" lon="8.77446">
        <ele>748</ele>
        <time>2021-08-06T09:01:25.323Z</time>
      </trkpt>
      <trkpt lat="46.96826" lon="8.77447">
        <ele>751</ele>
        <time>2021-08-06T09:01:26.322Z</time>
      </trkpt>
      <trkpt lat="46.96824" lon="8.77446">
        <ele>751</ele>
        <time>2021-08-06T09:01:27.322Z</time>
      </trkpt>
      <trkpt lat="46.96824" lon="8.77445">
        <ele>751</ele>
        <time>2021-08-06T09:01:28.322Z</time>
      </trkpt>
      <trkpt lat="46.96823" lon="8.77445">
        <ele>751</ele>
        <time>2021-08-06T09:01:29.322Z</time>
      </trkpt>
      <trkpt lat="46.96819" lon="8.77449">
        <ele>756</ele>
        <time>2021-08-06T09:01:30.322Z</time>
      </trkpt>
      <trkpt lat="46.96819" lon="8.7745">
        <ele>757</ele>
        <time>2021-08-06T09:01:31.322Z</time>
      </trkpt>
      <trkpt lat="46.96819" lon="8.7745">
        <ele>757</ele>
        <time>2021-08-06T09:01:32.322Z</time>
      </trkpt>
      <trkpt lat="46.96816" lon="8.77447">
        <ele>758</ele>
        <time>2021-08-06T09:01:33.322Z</time>
      </trkpt>
      <trkpt lat="46.96814" lon="8.77446">
        <ele>758</ele>
        <time>2021-08-06T09:01:34.322Z</time>
      </trkpt>
      <trkpt lat="46.96815" lon="8.77445">
        <ele>758</ele>
        <time>2021-08-06T09:01:35.322Z</time>
      </trkpt>
      <trkpt lat="46.96816" lon="8.77446">
        <ele>758</ele>
        <time>2021-08-06T09:01:36.322Z</time>
      </trkpt>
      <trkpt lat="46.96816" lon="8.77446">
        <ele>758</ele>
        <time>2021-08-06T09:01:37.323Z</time>
      </trkpt>
      <trkpt lat="46.96816" lon="8.77445">
        <ele>758</ele>
        <time>2021-08-06T09:01:38.323Z</time>
      </trkpt>
      <trkpt lat="46.96816" lon="8.77445">
        <ele>758</ele>
        <time>2021-08-06T09:01:39.323Z</time>
      </trkpt>
      <trkpt lat="46.96816" lon="8.77445">
        <ele>758</ele>
        <time>2021-08-06T09:01:40.323Z</time>
      </trkpt>
      <trkpt lat="46.96817" lon="8.77446">
        <ele>758</ele>
        <time>2021-08-06T09:01:41.322Z</time>
      </trkpt>
      <trkpt lat="46.96818" lon="8.77447">
        <ele>758</ele>
        <time>2021-08-06T09:01:42.323Z</time>
      </trkpt>
      <trkpt lat="46.96819" lon="8.77449">
        <ele>758</ele>
        <time>2021-08-06T09:01:43.322Z</time>
      </trkpt>
      <trkpt lat="46.96819" lon="8.7745">
        <ele>758</ele>
        <time>2021-08-06T09:01:44.323Z</time>
      </trkpt>
      <trkpt lat="46.96818" lon="8.77449">
        <ele>758</ele>
        <time>2021-08-06T09:01:45.323Z</time>
      </trkpt>
      <trkpt lat="46.96818" lon="8.77449">
        <ele>758</ele>
        <time>2021-08-06T09:01:46.322Z</time>
      </trkpt>
      <trkpt lat="46.96821" lon="8.7745">
        <ele>751</ele>
        <time>2021-08-06T09:01:47.323Z</time>
      </trkpt>
      <trkpt lat="46.96821" lon="8.7745">
        <ele>751</ele>
        <time>2021-08-06T09:01:48.322Z</time>
      </trkpt>
      <trkpt lat="46.96821" lon="8.77451">
        <ele>752</ele>
        <time>2021-08-06T09:01:49.322Z</time>
      </trkpt>
      <trkpt lat="46.96822" lon="8.77453">
        <ele>751</ele>
        <time>2021-08-06T09:01:50.323Z</time>
      </trkpt>
      <trkpt lat="46.96821" lon="8.77453">
        <ele>750</ele>
        <time>2021-08-06T09:01:51.323Z</time>
      </trkpt>
      <trkpt lat="46.96821" lon="8.77453">
        <ele>749</ele>
        <time>2021-08-06T09:01:52.322Z</time>
      </trkpt>
      <trkpt lat="46.96821" lon="8.77453">
        <ele>749</ele>
        <time>2021-08-06T09:01:53.323Z</time>
      </trkpt>
      <trkpt lat="46.96821" lon="8.77453">
        <ele>748</ele>
        <time>2021-08-06T09:01:54.322Z</time>
      </trkpt>
      <trkpt lat="46.96821" lon="8.77453">
        <ele>747</ele>
        <time>2021-08-06T09:01:55.323Z</time>
      </trkpt>
      <trkpt lat="46.96823" lon="8.7745">
        <ele>750</ele>
        <time>2021-08-06T09:01:56.324Z</time>
      </trkpt>
      <trkpt lat="46.96824" lon="8.77451">
        <ele>750</ele>
        <time>2021-08-06T09:01:57.325Z</time>
      </trkpt>
      <trkpt lat="46.96824" lon="8.77451">
        <ele>750</ele>
        <time>2021-08-06T09:01:58.324Z</time>
      </trkpt>
      <trkpt lat="46.96816" lon="8.77451">
        <ele>753</ele>
        <time>2021-08-06T09:01:59.326Z</time>
      </trkpt>
      <trkpt lat="46.96816" lon="8.7745">
        <ele>753</ele>
        <time>2021-08-06T09:02:00.326Z</time>
      </trkpt>
      <trkpt lat="46.96816" lon="8.77451">
        <ele>752</ele>
        <time>2021-08-06T09:02:01.325Z</time>
      </trkpt>
      <trkpt lat="46.96816" lon="8.77451">
        <ele>752</ele>
        <time>2021-08-06T09:02:02.325Z</time>
      </trkpt>
      <trkpt lat="46.96815" lon="8.77451">
        <ele>753</ele>
        <time>2021-08-06T09:02:03.326Z</time>
      </trkpt>
      <trkpt lat="46.96815" lon="8.77452">
        <ele>753</ele>
        <time>2021-08-06T09:02:04.326Z</time>
      </trkpt>
      <trkpt lat="46.96814" lon="8.77453">
        <ele>753</ele>
        <time>2021-08-06T09:02:05.325Z</time>
      </trkpt>
      <trkpt lat="46.96814" lon="8.77453">
        <ele>753</ele>
        <time>2021-08-06T09:02:06.326Z</time>
      </trkpt>
      <trkpt lat="46.96813" lon="8.77453">
        <ele>753</ele>
        <time>2021-08-06T09:02:07.325Z</time>
      </trkpt>
      <trkpt lat="46.96813" lon="8.77454">
        <ele>754</ele>
        <time>2021-08-06T09:02:08.326Z</time>
      </trkpt>
      <trkpt lat="46.96813" lon="8.77454">
        <ele>754</ele>
        <time>2021-08-06T09:02:09.326Z</time>
      </trkpt>
      <trkpt lat="46.96813" lon="8.77454">
        <ele>755</ele>
        <time>2021-08-06T09:02:10.326Z</time>
      </trkpt>
      <trkpt lat="46.96812" lon="8.77454">
        <ele>755</ele>
        <time>2021-08-06T09:02:11.326Z</time>
      </trkpt>
      <trkpt lat="46.96812" lon="8.77454">
        <ele>756</ele>
        <time>2021-08-06T09:02:12.325Z</time>
      </trkpt>
      <trkpt lat="46.96812" lon="8.77454">
        <ele>756</ele>
        <time>2021-08-06T09:02:13.326Z</time>
      </trkpt>
      <trkpt lat="46.96811" lon="8.77455">
        <ele>756</ele>
        <time>2021-08-06T09:02:14.325Z</time>
      </trkpt>
      <trkpt lat="46.9681" lon="8.77457">
        <ele>761</ele>
        <time>2021-08-06T09:02:15.326Z</time>
      </trkpt>
      <trkpt lat="46.9681" lon="8.77457">
        <ele>761</ele>
        <time>2021-08-06T09:02:16.326Z</time>
      </trkpt>
      <trkpt lat="46.9681" lon="8.77457">
        <ele>762</ele>
        <time>2021-08-06T09:02:17.326Z</time>
      </trkpt>
      <trkpt lat="46.9681" lon="8.77457">
        <ele>762</ele>
        <time>2021-08-06T09:02:18.325Z</time>
      </trkpt>
      <trkpt lat="46.96812" lon="8.77457">
        <ele>759</ele>
        <time>2021-08-06T09:02:19.325Z</time>
      </trkpt>
      <trkpt lat="46.96815" lon="8.77448">
        <ele>754</ele>
        <time>2021-08-06T09:02:20.328Z</time>
      </trkpt>
      <trkpt lat="46.96822" lon="8.77443">
        <ele>745</ele>
        <time>2021-08-06T09:02:21.328Z</time>
      </trkpt>
      <trkpt lat="46.96822" lon="8.77443">
        <ele>744</ele>
        <time>2021-08-06T09:02:22.328Z</time>
      </trkpt>
      <trkpt lat="46.96821" lon="8.77445">
        <ele>741</ele>
        <time>2021-08-06T09:02:23.328Z</time>
      </trkpt>
      <trkpt lat="46.96822" lon="8.77446">
        <ele>741</ele>
        <time>2021-08-06T09:02:24.328Z</time>
      </trkpt>
      <trkpt lat="46.96822" lon="8.77447">
        <ele>741</ele>
        <time>2021-08-06T09:02:25.327Z</time>
      </trkpt>
      <trkpt lat="46.96823" lon="8.77447">
        <ele>742</ele>
        <time>2021-08-06T09:02:26.327Z</time>
      </trkpt>
      <trkpt lat="46.96824" lon="8.77448">
        <ele>742</ele>
        <time>2021-08-06T09:02:27.328Z</time>
      </trkpt>
      <trkpt lat="46.96824" lon="8.77448">
        <ele>743</ele>
        <time>2021-08-06T09:02:28.328Z</time>
      </trkpt>
      <trkpt lat="46.96824" lon="8.77448">
        <ele>743</ele>
        <time>2021-08-06T09:02:29.328Z</time>
      </trkpt>
      <trkpt lat="46.96825" lon="8.77448">
        <ele>744</ele>
        <time>2021-08-06T09:02:30.328Z</time>
      </trkpt>
      <trkpt lat="46.96825" lon="8.77447">
        <ele>744</ele>
        <time>2021-08-06T09:02:31.328Z</time>
      </trkpt>
      <trkpt lat="46.96826" lon="8.77447">
        <ele>744</ele>
        <time>2021-08-06T09:02:32.328Z</time>
      </trkpt>
      <trkpt lat="46.96827" lon="8.77447">
        <ele>744</ele>
        <time>2021-08-06T09:02:33.328Z</time>
      </trkpt>
      <trkpt lat="46.96828" lon="8.77448">
        <ele>745</ele>
        <time>2021-08-06T09:02:34.327Z</time>
      </trkpt>
      <trkpt lat="46.96829" lon="8.77448">
        <ele>745</ele>
        <time>2021-08-06T09:02:35.328Z</time>
      </trkpt>
      <trkpt lat="46.96829" lon="8.77449">
        <ele>746</ele>
        <time>2021-08-06T09:02:36.328Z</time>
      </trkpt>
      <trkpt lat="46.96829" lon="8.77449">
        <ele>746</ele>
        <time>2021-08-06T09:02:37.327Z</time>
      </trkpt>
      <trkpt lat="46.9683" lon="8.7745">
        <ele>746</ele>
        <time>2021-08-06T09:02:38.328Z</time>
      </trkpt>
      <trkpt lat="46.9683" lon="8.7745">
        <ele>746</ele>
        <time>2021-08-06T09:02:39.327Z</time>
      </trkpt>
      <trkpt lat="46.96831" lon="8.77449">
        <ele>747</ele>
        <time>2021-08-06T09:02:40.328Z</time>
      </trkpt>
      <trkpt lat="46.96832" lon="8.77449">
        <ele>747</ele>
        <time>2021-08-06T09:02:41.327Z</time>
      </trkpt>
      <trkpt lat="46.96832" lon="8.7745">
        <ele>747</ele>
        <time>2021-08-06T09:02:42.327Z</time>
      </trkpt>
      <trkpt lat="46.96832" lon="8.77449">
        <ele>747</ele>
        <time>2021-08-06T09:02:43.327Z</time>
      </trkpt>
      <trkpt lat="46.96832" lon="8.77449">
        <ele>748</ele>
        <time>2021-08-06T09:02:44.327Z</time>
      </trkpt>
      <trkpt lat="46.96833" lon="8.77448">
        <ele>748</ele>
        <time>2021-08-06T09:02:45.327Z</time>
      </trkpt>
      <trkpt lat="46.96833" lon="8.77447">
        <ele>748</ele>
        <time>2021-08-06T09:02:46.328Z</time>
      </trkpt>
      <trkpt lat="46.96834" lon="8.77446">
        <ele>748</ele>
        <time>2021-08-06T09:02:47.327Z</time>
      </trkpt>
      <trkpt lat="46.96834" lon="8.77446">
        <ele>748</ele>
        <time>2021-08-06T09:02:48.327Z</time>
      </trkpt>
      <trkpt lat="46.96834" lon="8.77445">
        <ele>748</ele>
        <time>2021-08-06T09:02:49.327Z</time>
      </trkpt>
      <trkpt lat="46.96833" lon="8.77444">
        <ele>748</ele>
        <time>2021-08-06T09:02:50.327Z</time>
      </trkpt>
      <trkpt lat="46.96834" lon="8.77444">
        <ele>748</ele>
        <time>2021-08-06T09:02:51.327Z</time>
      </trkpt>
      <trkpt lat="46.96835" lon="8.77444">
        <ele>747</ele>
        <time>2021-08-06T09:02:52.328Z</time>
      </trkpt>
      <trkpt lat="46.96835" lon="8.77444">
        <ele>747</ele>
        <time>2021-08-06T09:02:53.328Z</time>
      </trkpt>
      <trkpt lat="46.96836" lon="8.77444">
        <ele>746</ele>
        <time>2021-08-06T09:02:54.328Z</time>
      </trkpt>
      <trkpt lat="46.96836" lon="8.77445">
        <ele>746</ele>
        <time>2021-08-06T09:02:55.328Z</time>
      </trkpt>
      <trkpt lat="46.96837" lon="8.77445">
        <ele>746</ele>
        <time>2021-08-06T09:02:56.328Z</time>
      </trkpt>
      <trkpt lat="46.96838" lon="8.77446">
        <ele>746</ele>
        <time>2021-08-06T09:02:57.328Z</time>
      </trkpt>
      <trkpt lat="46.96838" lon="8.77446">
        <ele>746</ele>
        <time>2021-08-06T09:02:58.328Z</time>
      </trkpt>
      <trkpt lat="46.96839" lon="8.77447">
        <ele>746</ele>
        <time>2021-08-06T09:02:59.328Z</time>
      </trkpt>
      <trkpt lat="46.9684" lon="8.77446">
        <ele>746</ele>
        <time>2021-08-06T09:03:00.328Z</time>
      </trkpt>
      <trkpt lat="46.9684" lon="8.77447">
        <ele>746</ele>
        <time>2021-08-06T09:03:01.328Z</time>
      </trkpt>
      <trkpt lat="46.96841" lon="8.77447">
        <ele>746</ele>
        <time>2021-08-06T09:03:02.327Z</time>
      </trkpt>
      <trkpt lat="46.96842" lon="8.77446">
        <ele>746</ele>
        <time>2021-08-06T09:03:03.327Z</time>
      </trkpt>
      <trkpt lat="46.96842" lon="8.77446">
        <ele>745</ele>
        <time>2021-08-06T09:03:04.328Z</time>
      </trkpt>
      <trkpt lat="46.96843" lon="8.77446">
        <ele>746</ele>
        <time>2021-08-06T09:03:05.328Z</time>
      </trkpt>
      <trkpt lat="46.96845" lon="8.77446">
        <ele>746</ele>
        <time>2021-08-06T09:03:06.328Z</time>
      </trkpt>
      <trkpt lat="46.96846" lon="8.77446">
        <ele>747</ele>
        <time>2021-08-06T09:03:07.327Z</time>
      </trkpt>
      <trkpt lat="46.96847" lon="8.77445">
        <ele>748</ele>
        <time>2021-08-06T09:03:08.328Z</time>
      </trkpt>
      <trkpt lat="46.96847" lon="8.77445">
        <ele>748</ele>
        <time>2021-08-06T09:03:09.328Z</time>
      </trkpt>
      <trkpt lat="46.96848" lon="8.77444">
        <ele>748</ele>
        <time>2021-08-06T09:03:10.328Z</time>
      </trkpt>
      <trkpt lat="46.96848" lon="8.77444">
        <ele>749</ele>
        <time>2021-08-06T09:03:11.328Z</time>
      </trkpt>
      <trkpt lat="46.96849" lon="8.77444">
        <ele>749</ele>
        <time>2021-08-06T09:03:12.327Z</time>
      </trkpt>
      <trkpt lat="46.96849" lon="8.77444">
        <ele>750</ele>
        <time>2021-08-06T09:03:13.328Z</time>
      </trkpt>
      <trkpt lat="46.9685" lon="8.77444">
        <ele>750</ele>
        <time>2021-08-06T09:03:14.328Z</time>
      </trkpt>
      <trkpt lat="46.9685" lon="8.77445">
        <ele>750</ele>
        <time>2021-08-06T09:03:15.328Z</time>
      </trkpt>
      <trkpt lat="46.9685" lon="8.77445">
        <ele>750</ele>
        <time>2021-08-06T09:03:16.328Z</time>
      </trkpt>
      <trkpt lat="46.96849" lon="8.77447">
        <ele>751</ele>
        <time>2021-08-06T09:03:17.327Z</time>
      </trkpt>
      <trkpt lat="46.96849" lon="8.77447">
        <ele>751</ele>
        <time>2021-08-06T09:03:18.327Z</time>
      </trkpt>
      <trkpt lat="46.96849" lon="8.77446">
        <ele>751</ele>
        <time>2021-08-06T09:03:19.329Z</time>
      </trkpt>
      <trkpt lat="46.96848" lon="8.77444">
        <ele>751</ele>
        <time>2021-08-06T09:03:20.330Z</time>
      </trkpt>
      <trkpt lat="46.96848" lon="8.77444">
        <ele>750</ele>
        <time>2021-08-06T09:03:21.330Z</time>
      </trkpt>
      <trkpt lat="46.96848" lon="8.77444">
        <ele>750</ele>
        <time>2021-08-06T09:03:22.330Z</time>
      </trkpt>
      <trkpt lat="46.96849" lon="8.77444">
        <ele>749</ele>
        <time>2021-08-06T09:03:23.329Z</time>
      </trkpt>
      <trkpt lat="46.9685" lon="8.77445">
        <ele>749</ele>
        <time>2021-08-06T09:03:24.330Z</time>
      </trkpt>
      <trkpt lat="46.9685" lon="8.77445">
        <ele>749</ele>
        <time>2021-08-06T09:03:25.330Z</time>
      </trkpt>
      <trkpt lat="46.96851" lon="8.77446">
        <ele>748</ele>
        <time>2021-08-06T09:03:26.330Z</time>
      </trkpt>
      <trkpt lat="46.96851" lon="8.77445">
        <ele>748</ele>
        <time>2021-08-06T09:03:27.330Z</time>
      </trkpt>
      <trkpt lat="46.96852" lon="8.77444">
        <ele>747</ele>
        <time>2021-08-06T09:03:28.330Z</time>
      </trkpt>
      <trkpt lat="46.96852" lon="8.7744">
        <ele>743</ele>
        <time>2021-08-06T09:03:29.330Z</time>
      </trkpt>
      <trkpt lat="46.96853" lon="8.7744">
        <ele>742</ele>
        <time>2021-08-06T09:03:30.330Z</time>
      </trkpt>
      <trkpt lat="46.96853" lon="8.77439">
        <ele>742</ele>
        <time>2021-08-06T09:03:31.329Z</time>
      </trkpt>
      <trkpt lat="46.96854" lon="8.77438">
        <ele>742</ele>
        <time>2021-08-06T09:03:32.329Z</time>
      </trkpt>
      <trkpt lat="46.96854" lon="8.77437">
        <ele>741</ele>
        <time>2021-08-06T09:03:33.330Z</time>
      </trkpt>
      <trkpt lat="46.96855" lon="8.77437">
        <ele>741</ele>
        <time>2021-08-06T09:03:34.330Z</time>
      </trkpt>
      <trkpt lat="46.96855" lon="8.77437">
        <ele>741</ele>
        <time>2021-08-06T09:03:35.329Z</time>
      </trkpt>
      <trkpt lat="46.96856" lon="8.77437">
        <ele>741</ele>
        <time>2021-08-06T09:03:36.330Z</time>
      </trkpt>
      <trkpt lat="46.96857" lon="8.77436">
        <ele>741</ele>
        <time>2021-08-06T09:03:37.329Z</time>
      </trkpt>
      <trkpt lat="46.96858" lon="8.77435">
        <ele>741</ele>
        <time>2021-08-06T09:03:38.330Z</time>
      </trkpt>
      <trkpt lat="46.96858" lon="8.77434">
        <ele>740</ele>
        <time>2021-08-06T09:03:39.330Z</time>
      </trkpt>
      <trkpt lat="46.96859" lon="8.77433">
        <ele>740</ele>
        <time>2021-08-06T09:03:40.330Z</time>
      </trkpt>
      <trkpt lat="46.96859" lon="8.77433">
        <ele>740</ele>
        <time>2021-08-06T09:03:41.330Z</time>
      </trkpt>
      <trkpt lat="46.96859" lon="8.77432">
        <ele>740</ele>
        <time>2021-08-06T09:03:42.329Z</time>
      </trkpt>
      <trkpt lat="46.96859" lon="8.77432">
        <ele>740</ele>
        <time>2021-08-06T09:03:43.330Z</time>
      </trkpt>
      <trkpt lat="46.96859" lon="8.77432">
        <ele>740</ele>
        <time>2021-08-06T09:03:44.329Z</time>
      </trkpt>
      <trkpt lat="46.96859" lon="8.77431">
        <ele>739</ele>
        <time>2021-08-06T09:03:45.330Z</time>
      </trkpt>
      <trkpt lat="46.96859" lon="8.7743">
        <ele>739</ele>
        <time>2021-08-06T09:03:46.329Z</time>
      </trkpt>
      <trkpt lat="46.96859" lon="8.7743">
        <ele>739</ele>
        <time>2021-08-06T09:03:47.329Z</time>
      </trkpt>
      <trkpt lat="46.9686" lon="8.7743">
        <ele>739</ele>
        <time>2021-08-06T09:03:48.330Z</time>
      </trkpt>
      <trkpt lat="46.9686" lon="8.7743">
        <ele>739</ele>
        <time>2021-08-06T09:03:49.329Z</time>
      </trkpt>
      <trkpt lat="46.9686" lon="8.7743">
        <ele>739</ele>
        <time>2021-08-06T09:03:50.329Z</time>
      </trkpt>
      <trkpt lat="46.9686" lon="8.7743">
        <ele>739</ele>
        <time>2021-08-06T09:03:51.329Z</time>
      </trkpt>
      <trkpt lat="46.9686" lon="8.77431">
        <ele>739</ele>
        <time>2021-08-06T09:03:52.329Z</time>
      </trkpt>
      <trkpt lat="46.96861" lon="8.77431">
        <ele>739</ele>
        <time>2021-08-06T09:03:53.330Z</time>
      </trkpt>
      <trkpt lat="46.96861" lon="8.77431">
        <ele>738</ele>
        <time>2021-08-06T09:03:54.330Z</time>
      </trkpt>
      <trkpt lat="46.96862" lon="8.77431">
        <ele>738</ele>
        <time>2021-08-06T09:03:55.329Z</time>
      </trkpt>
      <trkpt lat="46.96862" lon="8.77431">
        <ele>738</ele>
        <time>2021-08-06T09:03:56.330Z</time>
      </trkpt>
      <trkpt lat="46.96863" lon="8.77431">
        <ele>737</ele>
        <time>2021-08-06T09:03:57.329Z</time>
      </trkpt>
      <trkpt lat="46.96864" lon="8.77431">
        <ele>737</ele>
        <time>2021-08-06T09:03:58.329Z</time>
      </trkpt>
      <trkpt lat="46.96865" lon="8.77431">
        <ele>736</ele>
        <time>2021-08-06T09:03:59.330Z</time>
      </trkpt>
      <trkpt lat="46.96866" lon="8.77431">
        <ele>736</ele>
        <time>2021-08-06T09:04:00.329Z</time>
      </trkpt>
      <trkpt lat="46.96866" lon="8.7743">
        <ele>736</ele>
        <time>2021-08-06T09:04:01.329Z</time>
      </trkpt>
      <trkpt lat="46.96867" lon="8.77429">
        <ele>736</ele>
        <time>2021-08-06T09:04:02.330Z</time>
      </trkpt>
      <trkpt lat="46.96868" lon="8.77428">
        <ele>736</ele>
        <time>2021-08-06T09:04:03.330Z</time>
      </trkpt>
      <trkpt lat="46.96869" lon="8.77428">
        <ele>735</ele>
        <time>2021-08-06T09:04:04.330Z</time>
      </trkpt>
      <trkpt lat="46.9687" lon="8.77427">
        <ele>735</ele>
        <time>2021-08-06T09:04:05.330Z</time>
      </trkpt>
      <trkpt lat="46.96872" lon="8.77426">
        <ele>735</ele>
        <time>2021-08-06T09:04:06.330Z</time>
      </trkpt>
      <trkpt lat="46.96873" lon="8.77425">
        <ele>735</ele>
        <time>2021-08-06T09:04:07.330Z</time>
      </trkpt>
      <trkpt lat="46.96874" lon="8.77423">
        <ele>735</ele>
        <time>2021-08-06T09:04:08.329Z</time>
      </trkpt>
      <trkpt lat="46.96875" lon="8.77422">
        <ele>734</ele>
        <time>2021-08-06T09:04:09.330Z</time>
      </trkpt>
      <trkpt lat="46.96875" lon="8.77421">
        <ele>734</ele>
        <time>2021-08-06T09:04:10.330Z</time>
      </trkpt>
      <trkpt lat="46.96875" lon="8.77419">
        <ele>734</ele>
        <time>2021-08-06T09:04:11.330Z</time>
      </trkpt>
      <trkpt lat="46.96875" lon="8.77417">
        <ele>734</ele>
        <time>2021-08-06T09:04:12.329Z</time>
      </trkpt>
      <trkpt lat="46.96875" lon="8.77416">
        <ele>734</ele>
        <time>2021-08-06T09:04:13.329Z</time>
      </trkpt>
      <trkpt lat="46.96875" lon="8.77415">
        <ele>734</ele>
        <time>2021-08-06T09:04:14.330Z</time>
      </trkpt>
      <trkpt lat="46.96876" lon="8.77413">
        <ele>734</ele>
        <time>2021-08-06T09:04:15.330Z</time>
      </trkpt>
      <trkpt lat="46.96876" lon="8.77413">
        <ele>733</ele>
        <time>2021-08-06T09:04:16.330Z</time>
      </trkpt>
      <trkpt lat="46.96876" lon="8.77413">
        <ele>733</ele>
        <time>2021-08-06T09:04:17.330Z</time>
      </trkpt>
      <trkpt lat="46.96876" lon="8.77413">
        <ele>733</ele>
        <time>2021-08-06T09:04:18.330Z</time>
      </trkpt>
      <trkpt lat="46.96876" lon="8.77414">
        <ele>733</ele>
        <time>2021-08-06T09:04:19.330Z</time>
      </trkpt>
      <trkpt lat="46.96877" lon="8.77413">
        <ele>733</ele>
        <time>2021-08-06T09:04:20.329Z</time>
      </trkpt>
      <trkpt lat="46.96877" lon="8.77412">
        <ele>733</ele>
        <time>2021-08-06T09:04:21.329Z</time>
      </trkpt>
      <trkpt lat="46.96877" lon="8.77411">
        <ele>732</ele>
        <time>2021-08-06T09:04:22.330Z</time>
      </trkpt>
      <trkpt lat="46.96877" lon="8.7741">
        <ele>732</ele>
        <time>2021-08-06T09:04:23.330Z</time>
      </trkpt>
      <trkpt lat="46.96877" lon="8.77409">
        <ele>732</ele>
        <time>2021-08-06T09:04:24.329Z</time>
      </trkpt>
      <trkpt lat="46.96876" lon="8.77407">
        <ele>732</ele>
        <time>2021-08-06T09:04:25.330Z</time>
      </trkpt>
      <trkpt lat="46.96876" lon="8.77405">
        <ele>731</ele>
        <time>2021-08-06T09:04:26.330Z</time>
      </trkpt>
      <trkpt lat="46.96876" lon="8.77404">
        <ele>731</ele>
        <time>2021-08-06T09:04:27.330Z</time>
      </trkpt>
      <trkpt lat="46.96875" lon="8.77403">
        <ele>732</ele>
        <time>2021-08-06T09:04:28.330Z</time>
      </trkpt>
      <trkpt lat="46.96875" lon="8.77402">
        <ele>732</ele>
        <time>2021-08-06T09:04:29.330Z</time>
      </trkpt>
      <trkpt lat="46.96874" lon="8.77402">
        <ele>731</ele>
        <time>2021-08-06T09:04:30.330Z</time>
      </trkpt>
      <trkpt lat="46.96873" lon="8.77403">
        <ele>731</ele>
        <time>2021-08-06T09:04:31.329Z</time>
      </trkpt>
      <trkpt lat="46.96871" lon="8.77407">
        <ele>729</ele>
        <time>2021-08-06T09:04:32.330Z</time>
      </trkpt>
      <trkpt lat="46.96871" lon="8.77408">
        <ele>728</ele>
        <time>2021-08-06T09:04:33.330Z</time>
      </trkpt>
      <trkpt lat="46.9687" lon="8.77408">
        <ele>728</ele>
        <time>2021-08-06T09:04:34.329Z</time>
      </trkpt>
      <trkpt lat="46.9687" lon="8.77408">
        <ele>728</ele>
        <time>2021-08-06T09:04:35.329Z</time>
      </trkpt>
      <trkpt lat="46.9687" lon="8.77409">
        <ele>727</ele>
        <time>2021-08-06T09:04:36.330Z</time>
      </trkpt>
      <trkpt lat="46.96871" lon="8.77409">
        <ele>727</ele>
        <time>2021-08-06T09:04:37.330Z</time>
      </trkpt>
      <trkpt lat="46.96871" lon="8.77408">
        <ele>726</ele>
        <time>2021-08-06T09:04:38.330Z</time>
      </trkpt>
      <trkpt lat="46.96872" lon="8.77404">
        <ele>722</ele>
        <time>2021-08-06T09:04:39.330Z</time>
      </trkpt>
      <trkpt lat="46.96872" lon="8.77403">
        <ele>722</ele>
        <time>2021-08-06T09:04:40.330Z</time>
      </trkpt>
      <trkpt lat="46.96872" lon="8.77401">
        <ele>722</ele>
        <time>2021-08-06T09:04:41.329Z</time>
      </trkpt>
      <trkpt lat="46.96871" lon="8.77399">
        <ele>722</ele>
        <time>2021-08-06T09:04:42.330Z</time>
      </trkpt>
      <trkpt lat="46.96871" lon="8.77398">
        <ele>722</ele>
        <time>2021-08-06T09:04:43.329Z</time>
      </trkpt>
      <trkpt lat="46.96871" lon="8.77396">
        <ele>722</ele>
        <time>2021-08-06T09:04:44.330Z</time>
      </trkpt>
      <trkpt lat="46.96871" lon="8.77394">
        <ele>722</ele>
        <time>2021-08-06T09:04:45.330Z</time>
      </trkpt>
      <trkpt lat="46.9687" lon="8.77392">
        <ele>721</ele>
        <time>2021-08-06T09:04:46.330Z</time>
      </trkpt>
      <trkpt lat="46.96869" lon="8.7739">
        <ele>721</ele>
        <time>2021-08-06T09:04:47.329Z</time>
      </trkpt>
      <trkpt lat="46.96869" lon="8.77389">
        <ele>721</ele>
        <time>2021-08-06T09:04:48.330Z</time>
      </trkpt>
      <trkpt lat="46.96869" lon="8.77387">
        <ele>722</ele>
        <time>2021-08-06T09:04:49.329Z</time>
      </trkpt>
      <trkpt lat="46.96869" lon="8.77385">
        <ele>722</ele>
        <time>2021-08-06T09:04:50.330Z</time>
      </trkpt>
      <trkpt lat="46.96868" lon="8.77383">
        <ele>722</ele>
        <time>2021-08-06T09:04:51.329Z</time>
      </trkpt>
      <trkpt lat="46.96868" lon="8.77381">
        <ele>722</ele>
        <time>2021-08-06T09:04:52.330Z</time>
      </trkpt>
      <trkpt lat="46.96867" lon="8.77379">
        <ele>722</ele>
        <time>2021-08-06T09:04:53.329Z</time>
      </trkpt>
      <trkpt lat="46.96867" lon="8.77377">
        <ele>723</ele>
        <time>2021-08-06T09:04:54.330Z</time>
      </trkpt>
      <trkpt lat="46.96867" lon="8.77376">
        <ele>723</ele>
        <time>2021-08-06T09:04:55.330Z</time>
      </trkpt>
      <trkpt lat="46.96866" lon="8.77374">
        <ele>723</ele>
        <time>2021-08-06T09:04:56.329Z</time>
      </trkpt>
      <trkpt lat="46.96866" lon="8.77372">
        <ele>723</ele>
        <time>2021-08-06T09:04:57.330Z</time>
      </trkpt>
      <trkpt lat="46.96866" lon="8.77371">
        <ele>723</ele>
        <time>2021-08-06T09:04:58.330Z</time>
      </trkpt>
      <trkpt lat="46.96867" lon="8.77371">
        <ele>723</ele>
        <time>2021-08-06T09:04:59.330Z</time>
      </trkpt>
      <trkpt lat="46.96867" lon="8.77372">
        <ele>724</ele>
        <time>2021-08-06T09:05:00.329Z</time>
      </trkpt>
      <trkpt lat="46.96868" lon="8.7737">
        <ele>724</ele>
        <time>2021-08-06T09:05:01.330Z</time>
      </trkpt>
      <trkpt lat="46.96869" lon="8.77369">
        <ele>724</ele>
        <time>2021-08-06T09:05:02.329Z</time>
      </trkpt>
      <trkpt lat="46.96869" lon="8.77368">
        <ele>725</ele>
        <time>2021-08-06T09:05:03.329Z</time>
      </trkpt>
      <trkpt lat="46.96869" lon="8.77367">
        <ele>725</ele>
        <time>2021-08-06T09:05:04.330Z</time>
      </trkpt>
      <trkpt lat="46.96868" lon="8.77366">
        <ele>725</ele>
        <time>2021-08-06T09:05:05.330Z</time>
      </trkpt>
      <trkpt lat="46.96868" lon="8.77365">
        <ele>726</ele>
        <time>2021-08-06T09:05:06.329Z</time>
      </trkpt>
      <trkpt lat="46.96868" lon="8.77365">
        <ele>726</ele>
        <time>2021-08-06T09:05:07.329Z</time>
      </trkpt>
      <trkpt lat="46.96868" lon="8.77364">
        <ele>727</ele>
        <time>2021-08-06T09:05:08.329Z</time>
      </trkpt>
      <trkpt lat="46.96868" lon="8.77363">
        <ele>727</ele>
        <time>2021-08-06T09:05:09.330Z</time>
      </trkpt>
      <trkpt lat="46.96868" lon="8.77362">
        <ele>727</ele>
        <time>2021-08-06T09:05:10.329Z</time>
      </trkpt>
      <trkpt lat="46.96869" lon="8.7736">
        <ele>727</ele>
        <time>2021-08-06T09:05:11.330Z</time>
      </trkpt>
      <trkpt lat="46.96869" lon="8.77359">
        <ele>728</ele>
        <time>2021-08-06T09:05:12.330Z</time>
      </trkpt>
      <trkpt lat="46.96869" lon="8.77357">
        <ele>727</ele>
        <time>2021-08-06T09:05:13.330Z</time>
      </trkpt>
      <trkpt lat="46.96869" lon="8.77356">
        <ele>727</ele>
        <time>2021-08-06T09:05:14.330Z</time>
      </trkpt>
      <trkpt lat="46.9687" lon="8.77356">
        <ele>726</ele>
        <time>2021-08-06T09:05:15.330Z</time>
      </trkpt>
      <trkpt lat="46.9687" lon="8.77355">
        <ele>726</ele>
        <time>2021-08-06T09:05:16.330Z</time>
      </trkpt>
      <trkpt lat="46.9687" lon="8.77354">
        <ele>725</ele>
        <time>2021-08-06T09:05:17.329Z</time>
      </trkpt>
      <trkpt lat="46.96871" lon="8.77354">
        <ele>725</ele>
        <time>2021-08-06T09:05:18.330Z</time>
      </trkpt>
      <trkpt lat="46.9687" lon="8.77356">
        <ele>725</ele>
        <time>2021-08-06T09:05:19.330Z</time>
      </trkpt>
      <trkpt lat="46.9687" lon="8.77355">
        <ele>726</ele>
        <time>2021-08-06T09:05:20.330Z</time>
      </trkpt>
      <trkpt lat="46.96869" lon="8.77355">
        <ele>726</ele>
        <time>2021-08-06T09:05:21.329Z</time>
      </trkpt>
      <trkpt lat="46.96869" lon="8.77355">
        <ele>727</ele>
        <time>2021-08-06T09:05:22.330Z</time>
      </trkpt>
      <trkpt lat="46.96869" lon="8.77355">
        <ele>727</ele>
        <time>2021-08-06T09:05:23.330Z</time>
      </trkpt>
      <trkpt lat="46.96869" lon="8.77356">
        <ele>727</ele>
        <time>2021-08-06T09:05:24.329Z</time>
      </trkpt>
      <trkpt lat="46.96875" lon="8.77358">
        <ele>725</ele>
        <time>2021-08-06T09:05:25.331Z</time>
      </trkpt>
      <trkpt lat="46.96875" lon="8.77357">
        <ele>725</ele>
        <time>2021-08-06T09:05:26.331Z</time>
      </trkpt>
      <trkpt lat="46.96876" lon="8.77356">
        <ele>725</ele>
        <time>2021-08-06T09:05:27.330Z</time>
      </trkpt>
      <trkpt lat="46.96876" lon="8.77355">
        <ele>725</ele>
        <time>2021-08-06T09:05:28.330Z</time>
      </trkpt>
      <trkpt lat="46.96877" lon="8.77354">
        <ele>725</ele>
        <time>2021-08-06T09:05:29.330Z</time>
      </trkpt>
      <trkpt lat="46.96877" lon="8.77353">
        <ele>724</ele>
        <time>2021-08-06T09:05:30.330Z</time>
      </trkpt>
      <trkpt lat="46.96878" lon="8.77352">
        <ele>724</ele>
        <time>2021-08-06T09:05:31.330Z</time>
      </trkpt>
      <trkpt lat="46.96878" lon="8.7735">
        <ele>724</ele>
        <time>2021-08-06T09:05:32.330Z</time>
      </trkpt>
      <trkpt lat="46.96878" lon="8.7735">
        <ele>724</ele>
        <time>2021-08-06T09:05:33.330Z</time>
      </trkpt>
      <trkpt lat="46.96879" lon="8.77349">
        <ele>724</ele>
        <time>2021-08-06T09:05:34.330Z</time>
      </trkpt>
      <trkpt lat="46.96879" lon="8.77348">
        <ele>725</ele>
        <time>2021-08-06T09:05:35.331Z</time>
      </trkpt>
      <trkpt lat="46.9688" lon="8.77347">
        <ele>725</ele>
        <time>2021-08-06T09:05:36.330Z</time>
      </trkpt>
      <trkpt lat="46.96881" lon="8.77346">
        <ele>725</ele>
        <time>2021-08-06T09:05:37.331Z</time>
      </trkpt>
      <trkpt lat="46.96882" lon="8.77345">
        <ele>725</ele>
        <time>2021-08-06T09:05:38.330Z</time>
      </trkpt>
      <trkpt lat="46.96883" lon="8.77344">
        <ele>725</ele>
        <time>2021-08-06T09:05:39.330Z</time>
      </trkpt>
      <trkpt lat="46.96884" lon="8.77342">
        <ele>726</ele>
        <time>2021-08-06T09:05:40.330Z</time>
      </trkpt>
      <trkpt lat="46.96885" lon="8.77342">
        <ele>726</ele>
        <time>2021-08-06T09:05:41.331Z</time>
      </trkpt>
      <trkpt lat="46.96886" lon="8.77339">
        <ele>726</ele>
        <time>2021-08-06T09:05:42.330Z</time>
      </trkpt>
      <trkpt lat="46.96887" lon="8.77339">
        <ele>727</ele>
        <time>2021-08-06T09:05:43.330Z</time>
      </trkpt>
      <trkpt lat="46.96887" lon="8.77338">
        <ele>727</ele>
        <time>2021-08-06T09:05:44.330Z</time>
      </trkpt>
      <trkpt lat="46.96888" lon="8.77337">
        <ele>727</ele>
        <time>2021-08-06T09:05:45.331Z</time>
      </trkpt>
      <trkpt lat="46.96889" lon="8.77336">
        <ele>727</ele>
        <time>2021-08-06T09:05:46.330Z</time>
      </trkpt>
      <trkpt lat="46.9689" lon="8.77335">
        <ele>728</ele>
        <time>2021-08-06T09:05:47.330Z</time>
      </trkpt>
      <trkpt lat="46.96891" lon="8.77334">
        <ele>728</ele>
        <time>2021-08-06T09:05:48.330Z</time>
      </trkpt>
      <trkpt lat="46.96892" lon="8.77333">
        <ele>728</ele>
        <time>2021-08-06T09:05:49.330Z</time>
      </trkpt>
      <trkpt lat="46.96892" lon="8.77331">
        <ele>728</ele>
        <time>2021-08-06T09:05:50.330Z</time>
      </trkpt>
      <trkpt lat="46.96893" lon="8.7733">
        <ele>728</ele>
        <time>2021-08-06T09:05:51.330Z</time>
      </trkpt>
      <trkpt lat="46.96893" lon="8.77329">
        <ele>728</ele>
        <time>2021-08-06T09:05:52.330Z</time>
      </trkpt>
      <trkpt lat="46.96894" lon="8.77327">
        <ele>728</ele>
        <time>2021-08-06T09:05:53.330Z</time>
      </trkpt>
      <trkpt lat="46.96894" lon="8.77326">
        <ele>728</ele>
        <time>2021-08-06T09:05:54.330Z</time>
      </trkpt>
      <trkpt lat="46.96894" lon="8.77325">
        <ele>728</ele>
        <time>2021-08-06T09:05:55.330Z</time>
      </trkpt>
      <trkpt lat="46.96894" lon="8.77323">
        <ele>728</ele>
        <time>2021-08-06T09:05:56.330Z</time>
      </trkpt>
      <trkpt lat="46.96894" lon="8.77322">
        <ele>728</ele>
        <time>2021-08-06T09:05:57.330Z</time>
      </trkpt>
      <trkpt lat="46.96895" lon="8.77321">
        <ele>728</ele>
        <time>2021-08-06T09:05:58.330Z</time>
      </trkpt>
      <trkpt lat="46.96894" lon="8.7732">
        <ele>728</ele>
        <time>2021-08-06T09:05:59.331Z</time>
      </trkpt>
      <trkpt lat="46.96894" lon="8.77319">
        <ele>729</ele>
        <time>2021-08-06T09:06:00.331Z</time>
      </trkpt>
      <trkpt lat="46.96894" lon="8.77318">
        <ele>729</ele>
        <time>2021-08-06T09:06:01.331Z</time>
      </trkpt>
      <trkpt lat="46.96895" lon="8.77316">
        <ele>729</ele>
        <time>2021-08-06T09:06:02.331Z</time>
      </trkpt>
      <trkpt lat="46.96895" lon="8.77315">
        <ele>730</ele>
        <time>2021-08-06T09:06:03.331Z</time>
      </trkpt>
      <trkpt lat="46.96895" lon="8.77314">
        <ele>730</ele>
        <time>2021-08-06T09:06:04.331Z</time>
      </trkpt>
      <trkpt lat="46.96895" lon="8.77312">
        <ele>731</ele>
        <time>2021-08-06T09:06:05.330Z</time>
      </trkpt>
      <trkpt lat="46.96895" lon="8.77311">
        <ele>731</ele>
        <time>2021-08-06T09:06:06.331Z</time>
      </trkpt>
      <trkpt lat="46.96895" lon="8.7731">
        <ele>732</ele>
        <time>2021-08-06T09:06:07.331Z</time>
      </trkpt>
      <trkpt lat="46.96894" lon="8.77308">
        <ele>732</ele>
        <time>2021-08-06T09:06:08.330Z</time>
      </trkpt>
      <trkpt lat="46.96894" lon="8.77306">
        <ele>733</ele>
        <time>2021-08-06T09:06:09.331Z</time>
      </trkpt>
      <trkpt lat="46.96894" lon="8.77305">
        <ele>733</ele>
        <time>2021-08-06T09:06:10.331Z</time>
      </trkpt>
      <trkpt lat="46.96894" lon="8.77303">
        <ele>733</ele>
        <time>2021-08-06T09:06:11.331Z</time>
      </trkpt>
      <trkpt lat="46.96893" lon="8.77301">
        <ele>733</ele>
        <time>2021-08-06T09:06:12.331Z</time>
      </trkpt>
      <trkpt lat="46.96893" lon="8.773">
        <ele>733</ele>
        <time>2021-08-06T09:06:13.331Z</time>
      </trkpt>
      <trkpt lat="46.96893" lon="8.77299">
        <ele>734</ele>
        <time>2021-08-06T09:06:14.331Z</time>
      </trkpt>
      <trkpt lat="46.96893" lon="8.77298">
        <ele>734</ele>
        <time>2021-08-06T09:06:15.331Z</time>
      </trkpt>
      <trkpt lat="46.96893" lon="8.77297">
        <ele>734</ele>
        <time>2021-08-06T09:06:16.330Z</time>
      </trkpt>
      <trkpt lat="46.96894" lon="8.77295">
        <ele>734</ele>
        <time>2021-08-06T09:06:17.331Z</time>
      </trkpt>
      <trkpt lat="46.96894" lon="8.77294">
        <ele>735</ele>
        <time>2021-08-06T09:06:18.331Z</time>
      </trkpt>
      <trkpt lat="46.96894" lon="8.77292">
        <ele>735</ele>
        <time>2021-08-06T09:06:19.330Z</time>
      </trkpt>
      <trkpt lat="46.96894" lon="8.7729">
        <ele>736</ele>
        <time>2021-08-06T09:06:20.331Z</time>
      </trkpt>
      <trkpt lat="46.96894" lon="8.77289">
        <ele>736</ele>
        <time>2021-08-06T09:06:21.331Z</time>
      </trkpt>
      <trkpt lat="46.96894" lon="8.77288">
        <ele>736</ele>
        <time>2021-08-06T09:06:22.331Z</time>
      </trkpt>
      <trkpt lat="46.96895" lon="8.77287">
        <ele>736</ele>
        <time>2021-08-06T09:06:23.330Z</time>
      </trkpt>
      <trkpt lat="46.96895" lon="8.77286">
        <ele>736</ele>
        <time>2021-08-06T09:06:24.331Z</time>
      </trkpt>
      <trkpt lat="46.96896" lon="8.77285">
        <ele>736</ele>
        <time>2021-08-06T09:06:25.330Z</time>
      </trkpt>
      <trkpt lat="46.96897" lon="8.77283">
        <ele>737</ele>
        <time>2021-08-06T09:06:26.331Z</time>
      </trkpt>
      <trkpt lat="46.96897" lon="8.77283">
        <ele>737</ele>
        <time>2021-08-06T09:06:27.331Z</time>
      </trkpt>
      <trkpt lat="46.96897" lon="8.77282">
        <ele>738</ele>
        <time>2021-08-06T09:06:28.331Z</time>
      </trkpt>
      <trkpt lat="46.96897" lon="8.77281">
        <ele>738</ele>
        <time>2021-08-06T09:06:29.331Z</time>
      </trkpt>
      <trkpt lat="46.96898" lon="8.77281">
        <ele>739</ele>
        <time>2021-08-06T09:06:30.330Z</time>
      </trkpt>
      <trkpt lat="46.96898" lon="8.7728">
        <ele>739</ele>
        <time>2021-08-06T09:06:31.331Z</time>
      </trkpt>
      <trkpt lat="46.96899" lon="8.7728">
        <ele>739</ele>
        <time>2021-08-06T09:06:32.330Z</time>
      </trkpt>
      <trkpt lat="46.96899" lon="8.77279">
        <ele>739</ele>
        <time>2021-08-06T09:06:33.330Z</time>
      </trkpt>
      <trkpt lat="46.969" lon="8.77278">
        <ele>739</ele>
        <time>2021-08-06T09:06:34.331Z</time>
      </trkpt>
      <trkpt lat="46.96901" lon="8.77278">
        <ele>739</ele>
        <time>2021-08-06T09:06:35.331Z</time>
      </trkpt>
      <trkpt lat="46.96901" lon="8.77277">
        <ele>740</ele>
        <time>2021-08-06T09:06:36.331Z</time>
      </trkpt>
      <trkpt lat="46.96902" lon="8.77276">
        <ele>740</ele>
        <time>2021-08-06T09:06:37.331Z</time>
      </trkpt>
      <trkpt lat="46.96903" lon="8.77275">
        <ele>740</ele>
        <time>2021-08-06T09:06:38.331Z</time>
      </trkpt>
      <trkpt lat="46.96904" lon="8.77274">
        <ele>740</ele>
        <time>2021-08-06T09:06:39.331Z</time>
      </trkpt>
      <trkpt lat="46.96904" lon="8.77272">
        <ele>741</ele>
        <time>2021-08-06T09:06:40.331Z</time>
      </trkpt>
      <trkpt lat="46.96905" lon="8.77271">
        <ele>741</ele>
        <time>2021-08-06T09:06:41.331Z</time>
      </trkpt>
      <trkpt lat="46.96905" lon="8.77271">
        <ele>741</ele>
        <time>2021-08-06T09:06:42.331Z</time>
      </trkpt>
      <trkpt lat="46.96906" lon="8.7727">
        <ele>742</ele>
        <time>2021-08-06T09:06:43.330Z</time>
      </trkpt>
      <trkpt lat="46.96907" lon="8.77269">
        <ele>742</ele>
        <time>2021-08-06T09:06:44.331Z</time>
      </trkpt>
      <trkpt lat="46.96908" lon="8.77268">
        <ele>743</ele>
        <time>2021-08-06T09:06:45.331Z</time>
      </trkpt>
      <trkpt lat="46.96908" lon="8.77268">
        <ele>743</ele>
        <time>2021-08-06T09:06:46.331Z</time>
      </trkpt>
      <trkpt lat="46.96909" lon="8.77268">
        <ele>743</ele>
        <time>2021-08-06T09:06:47.330Z</time>
      </trkpt>
      <trkpt lat="46.9691" lon="8.77267">
        <ele>744</ele>
        <time>2021-08-06T09:06:48.330Z</time>
      </trkpt>
      <trkpt lat="46.96911" lon="8.77266">
        <ele>744</ele>
        <time>2021-08-06T09:06:49.330Z</time>
      </trkpt>
      <trkpt lat="46.96912" lon="8.77265">
        <ele>744</ele>
        <time>2021-08-06T09:06:50.331Z</time>
      </trkpt>
      <trkpt lat="46.96913" lon="8.77264">
        <ele>744</ele>
        <time>2021-08-06T09:06:51.331Z</time>
      </trkpt>
      <trkpt lat="46.96913" lon="8.77264">
        <ele>745</ele>
        <time>2021-08-06T09:06:52.331Z</time>
      </trkpt>
      <trkpt lat="46.96914" lon="8.77263">
        <ele>745</ele>
        <time>2021-08-06T09:06:53.330Z</time>
      </trkpt>
      <trkpt lat="46.96915" lon="8.77262">
        <ele>745</ele>
        <time>2021-08-06T09:06:54.331Z</time>
      </trkpt>
      <trkpt lat="46.96915" lon="8.77261">
        <ele>745</ele>
        <time>2021-08-06T09:06:55.330Z</time>
      </trkpt>
      <trkpt lat="46.96916" lon="8.7726">
        <ele>745</ele>
        <time>2021-08-06T09:06:56.330Z</time>
      </trkpt>
      <trkpt lat="46.96916" lon="8.77259">
        <ele>746</ele>
        <time>2021-08-06T09:06:57.331Z</time>
      </trkpt>
      <trkpt lat="46.96917" lon="8.77258">
        <ele>746</ele>
        <time>2021-08-06T09:06:58.331Z</time>
      </trkpt>
      <trkpt lat="46.96918" lon="8.77257">
        <ele>746</ele>
        <time>2021-08-06T09:06:59.331Z</time>
      </trkpt>
      <trkpt lat="46.96918" lon="8.77256">
        <ele>746</ele>
        <time>2021-08-06T09:07:00.331Z</time>
      </trkpt>
      <trkpt lat="46.96919" lon="8.77255">
        <ele>747</ele>
        <time>2021-08-06T09:07:01.330Z</time>
      </trkpt>
      <trkpt lat="46.96919" lon="8.77254">
        <ele>747</ele>
        <time>2021-08-06T09:07:02.331Z</time>
      </trkpt>
      <trkpt lat="46.9692" lon="8.77253">
        <ele>747</ele>
        <time>2021-08-06T09:07:03.330Z</time>
      </trkpt>
      <trkpt lat="46.9692" lon="8.77253">
        <ele>748</ele>
        <time>2021-08-06T09:07:04.331Z</time>
      </trkpt>
      <trkpt lat="46.9692" lon="8.77253">
        <ele>748</ele>
        <time>2021-08-06T09:07:05.331Z</time>
      </trkpt>
      <trkpt lat="46.96921" lon="8.77253">
        <ele>752</ele>
        <time>2021-08-06T09:07:06.331Z</time>
      </trkpt>
      <trkpt lat="46.96921" lon="8.77253">
        <ele>753</ele>
        <time>2021-08-06T09:07:07.331Z</time>
      </trkpt>
      <trkpt lat="46.96921" lon="8.77252">
        <ele>754</ele>
        <time>2021-08-06T09:07:08.330Z</time>
      </trkpt>
      <trkpt lat="46.96921" lon="8.77252">
        <ele>755</ele>
        <time>2021-08-06T09:07:09.331Z</time>
      </trkpt>
      <trkpt lat="46.96921" lon="8.77251">
        <ele>755</ele>
        <time>2021-08-06T09:07:10.331Z</time>
      </trkpt>
      <trkpt lat="46.96922" lon="8.7725">
        <ele>756</ele>
        <time>2021-08-06T09:07:11.331Z</time>
      </trkpt>
      <trkpt lat="46.96922" lon="8.77249">
        <ele>756</ele>
        <time>2021-08-06T09:07:12.331Z</time>
      </trkpt>
      <trkpt lat="46.96923" lon="8.77248">
        <ele>757</ele>
        <time>2021-08-06T09:07:13.330Z</time>
      </trkpt>
      <trkpt lat="46.96924" lon="8.77246">
        <ele>757</ele>
        <time>2021-08-06T09:07:14.331Z</time>
      </trkpt>
      <trkpt lat="46.96924" lon="8.77245">
        <ele>757</ele>
        <time>2021-08-06T09:07:15.330Z</time>
      </trkpt>
      <trkpt lat="46.96924" lon="8.77244">
        <ele>758</ele>
        <time>2021-08-06T09:07:16.330Z</time>
      </trkpt>
      <trkpt lat="46.96925" lon="8.77243">
        <ele>758</ele>
        <time>2021-08-06T09:07:17.330Z</time>
      </trkpt>
      <trkpt lat="46.96926" lon="8.77241">
        <ele>758</ele>
        <time>2021-08-06T09:07:18.330Z</time>
      </trkpt>
      <trkpt lat="46.96926" lon="8.7724">
        <ele>759</ele>
        <time>2021-08-06T09:07:19.330Z</time>
      </trkpt>
      <trkpt lat="46.96926" lon="8.77239">
        <ele>759</ele>
        <time>2021-08-06T09:07:20.331Z</time>
      </trkpt>
      <trkpt lat="46.96926" lon="8.77238">
        <ele>759</ele>
        <time>2021-08-06T09:07:21.330Z</time>
      </trkpt>
      <trkpt lat="46.96927" lon="8.77237">
        <ele>759</ele>
        <time>2021-08-06T09:07:22.330Z</time>
      </trkpt>
      <trkpt lat="46.96927" lon="8.77236">
        <ele>759</ele>
        <time>2021-08-06T09:07:23.330Z</time>
      </trkpt>
      <trkpt lat="46.96927" lon="8.77235">
        <ele>759</ele>
        <time>2021-08-06T09:07:24.330Z</time>
      </trkpt>
      <trkpt lat="46.96927" lon="8.77233">
        <ele>759</ele>
        <time>2021-08-06T09:07:25.330Z</time>
      </trkpt>
      <trkpt lat="46.96927" lon="8.77232">
        <ele>759</ele>
        <time>2021-08-06T09:07:26.330Z</time>
      </trkpt>
      <trkpt lat="46.96927" lon="8.77231">
        <ele>759</ele>
        <time>2021-08-06T09:07:27.330Z</time>
      </trkpt>
      <trkpt lat="46.96928" lon="8.77229">
        <ele>759</ele>
        <time>2021-08-06T09:07:28.330Z</time>
      </trkpt>
      <trkpt lat="46.96929" lon="8.77228">
        <ele>758</ele>
        <time>2021-08-06T09:07:29.330Z</time>
      </trkpt>
      <trkpt lat="46.9693" lon="8.77227">
        <ele>758</ele>
        <time>2021-08-06T09:07:30.330Z</time>
      </trkpt>
      <trkpt lat="46.9693" lon="8.77225">
        <ele>758</ele>
        <time>2021-08-06T09:07:31.331Z</time>
      </trkpt>
      <trkpt lat="46.9693" lon="8.77224">
        <ele>758</ele>
        <time>2021-08-06T09:07:32.330Z</time>
      </trkpt>
      <trkpt lat="46.9693" lon="8.77222">
        <ele>757</ele>
        <time>2021-08-06T09:07:33.330Z</time>
      </trkpt>
      <trkpt lat="46.96929" lon="8.77221">
        <ele>757</ele>
        <time>2021-08-06T09:07:34.330Z</time>
      </trkpt>
      <trkpt lat="46.9693" lon="8.77219">
        <ele>757</ele>
        <time>2021-08-06T09:07:35.330Z</time>
      </trkpt>
      <trkpt lat="46.9693" lon="8.77218">
        <ele>756</ele>
        <time>2021-08-06T09:07:36.330Z</time>
      </trkpt>
      <trkpt lat="46.9693" lon="8.77218">
        <ele>756</ele>
        <time>2021-08-06T09:07:37.330Z</time>
      </trkpt>
      <trkpt lat="46.9693" lon="8.77217">
        <ele>756</ele>
        <time>2021-08-06T09:07:38.331Z</time>
      </trkpt>
      <trkpt lat="46.9693" lon="8.77215">
        <ele>755</ele>
        <time>2021-08-06T09:07:39.330Z</time>
      </trkpt>
      <trkpt lat="46.96931" lon="8.77214">
        <ele>755</ele>
        <time>2021-08-06T09:07:40.330Z</time>
      </trkpt>
      <trkpt lat="46.96931" lon="8.77213">
        <ele>755</ele>
        <time>2021-08-06T09:07:41.330Z</time>
      </trkpt>
      <trkpt lat="46.96932" lon="8.77212">
        <ele>755</ele>
        <time>2021-08-06T09:07:42.330Z</time>
      </trkpt>
      <trkpt lat="46.96932" lon="8.77211">
        <ele>754</ele>
        <time>2021-08-06T09:07:43.330Z</time>
      </trkpt>
      <trkpt lat="46.96932" lon="8.7721">
        <ele>754</ele>
        <time>2021-08-06T09:07:44.330Z</time>
      </trkpt>
      <trkpt lat="46.96932" lon="8.77209">
        <ele>755</ele>
        <time>2021-08-06T09:07:45.330Z</time>
      </trkpt>
      <trkpt lat="46.96933" lon="8.77208">
        <ele>755</ele>
        <time>2021-08-06T09:07:46.331Z</time>
      </trkpt>
      <trkpt lat="46.96934" lon="8.77206">
        <ele>756</ele>
        <time>2021-08-06T09:07:47.331Z</time>
      </trkpt>
      <trkpt lat="46.96935" lon="8.77205">
        <ele>756</ele>
        <time>2021-08-06T09:07:48.330Z</time>
      </trkpt>
      <trkpt lat="46.96935" lon="8.77204">
        <ele>756</ele>
        <time>2021-08-06T09:07:49.330Z</time>
      </trkpt>
      <trkpt lat="46.96936" lon="8.77204">
        <ele>757</ele>
        <time>2021-08-06T09:07:50.330Z</time>
      </trkpt>
      <trkpt lat="46.96937" lon="8.77203">
        <ele>757</ele>
        <time>2021-08-06T09:07:51.330Z</time>
      </trkpt>
      <trkpt lat="46.96938" lon="8.77201">
        <ele>757</ele>
        <time>2021-08-06T09:07:52.331Z</time>
      </trkpt>
      <trkpt lat="46.96938" lon="8.772">
        <ele>757</ele>
        <time>2021-08-06T09:07:53.330Z</time>
      </trkpt>
      <trkpt lat="46.96939" lon="8.77199">
        <ele>758</ele>
        <time>2021-08-06T09:07:54.331Z</time>
      </trkpt>
      <trkpt lat="46.96939" lon="8.77198">
        <ele>758</ele>
        <time>2021-08-06T09:07:55.331Z</time>
      </trkpt>
      <trkpt lat="46.9694" lon="8.77197">
        <ele>759</ele>
        <time>2021-08-06T09:07:56.331Z</time>
      </trkpt>
      <trkpt lat="46.9694" lon="8.77196">
        <ele>759</ele>
        <time>2021-08-06T09:07:57.331Z</time>
      </trkpt>
      <trkpt lat="46.9694" lon="8.77195">
        <ele>758</ele>
        <time>2021-08-06T09:07:58.331Z</time>
      </trkpt>
      <trkpt lat="46.9694" lon="8.77194">
        <ele>758</ele>
        <time>2021-08-06T09:07:59.331Z</time>
      </trkpt>
      <trkpt lat="46.9694" lon="8.77193">
        <ele>757</ele>
        <time>2021-08-06T09:08:00.330Z</time>
      </trkpt>
      <trkpt lat="46.9694" lon="8.77192">
        <ele>757</ele>
        <time>2021-08-06T09:08:01.331Z</time>
      </trkpt>
      <trkpt lat="46.9694" lon="8.77191">
        <ele>756</ele>
        <time>2021-08-06T09:08:02.331Z</time>
      </trkpt>
      <trkpt lat="46.9694" lon="8.77189">
        <ele>755</ele>
        <time>2021-08-06T09:08:03.331Z</time>
      </trkpt>
      <trkpt lat="46.9694" lon="8.77188">
        <ele>755</ele>
        <time>2021-08-06T09:08:04.331Z</time>
      </trkpt>
      <trkpt lat="46.9694" lon="8.77187">
        <ele>755</ele>
        <time>2021-08-06T09:08:05.331Z</time>
      </trkpt>
      <trkpt lat="46.96941" lon="8.77185">
        <ele>755</ele>
        <time>2021-08-06T09:08:06.330Z</time>
      </trkpt>
      <trkpt lat="46.96941" lon="8.77184">
        <ele>755</ele>
        <time>2021-08-06T09:08:07.331Z</time>
      </trkpt>
      <trkpt lat="46.96941" lon="8.77182">
        <ele>755</ele>
        <time>2021-08-06T09:08:08.331Z</time>
      </trkpt>
      <trkpt lat="46.96941" lon="8.77181">
        <ele>754</ele>
        <time>2021-08-06T09:08:09.331Z</time>
      </trkpt>
      <trkpt lat="46.96942" lon="8.7718">
        <ele>754</ele>
        <time>2021-08-06T09:08:10.330Z</time>
      </trkpt>
      <trkpt lat="46.96942" lon="8.77178">
        <ele>753</ele>
        <time>2021-08-06T09:08:11.330Z</time>
      </trkpt>
      <trkpt lat="46.96943" lon="8.77177">
        <ele>753</ele>
        <time>2021-08-06T09:08:12.330Z</time>
      </trkpt>
      <trkpt lat="46.96943" lon="8.77175">
        <ele>752</ele>
        <time>2021-08-06T09:08:13.330Z</time>
      </trkpt>
      <trkpt lat="46.96943" lon="8.77174">
        <ele>752</ele>
        <time>2021-08-06T09:08:14.330Z</time>
      </trkpt>
      <trkpt lat="46.96943" lon="8.77173">
        <ele>751</ele>
        <time>2021-08-06T09:08:15.331Z</time>
      </trkpt>
      <trkpt lat="46.96943" lon="8.77171">
        <ele>751</ele>
        <time>2021-08-06T09:08:16.331Z</time>
      </trkpt>
      <trkpt lat="46.96943" lon="8.7717">
        <ele>751</ele>
        <time>2021-08-06T09:08:17.331Z</time>
      </trkpt>
      <trkpt lat="46.96943" lon="8.77169">
        <ele>751</ele>
        <time>2021-08-06T09:08:18.330Z</time>
      </trkpt>
      <trkpt lat="46.96944" lon="8.77167">
        <ele>751</ele>
        <time>2021-08-06T09:08:19.331Z</time>
      </trkpt>
      <trkpt lat="46.96944" lon="8.77166">
        <ele>752</ele>
        <time>2021-08-06T09:08:20.331Z</time>
      </trkpt>
      <trkpt lat="46.96944" lon="8.77164">
        <ele>752</ele>
        <time>2021-08-06T09:08:21.331Z</time>
      </trkpt>
      <trkpt lat="46.96944" lon="8.77163">
        <ele>752</ele>
        <time>2021-08-06T09:08:22.330Z</time>
      </trkpt>
      <trkpt lat="46.96945" lon="8.77162">
        <ele>752</ele>
        <time>2021-08-06T09:08:23.331Z</time>
      </trkpt>
      <trkpt lat="46.96946" lon="8.77161">
        <ele>751</ele>
        <time>2021-08-06T09:08:24.331Z</time>
      </trkpt>
      <trkpt lat="46.96947" lon="8.7716">
        <ele>751</ele>
        <time>2021-08-06T09:08:25.331Z</time>
      </trkpt>
      <trkpt lat="46.96947" lon="8.77158">
        <ele>751</ele>
        <time>2021-08-06T09:08:26.331Z</time>
      </trkpt>
      <trkpt lat="46.96947" lon="8.77157">
        <ele>751</ele>
        <time>2021-08-06T09:08:27.330Z</time>
      </trkpt>
      <trkpt lat="46.96947" lon="8.77156">
        <ele>751</ele>
        <time>2021-08-06T09:08:28.331Z</time>
      </trkpt>
      <trkpt lat="46.96947" lon="8.77155">
        <ele>751</ele>
        <time>2021-08-06T09:08:29.331Z</time>
      </trkpt>
      <trkpt lat="46.96947" lon="8.77154">
        <ele>751</ele>
        <time>2021-08-06T09:08:30.331Z</time>
      </trkpt>
      <trkpt lat="46.96948" lon="8.77153">
        <ele>751</ele>
        <time>2021-08-06T09:08:31.331Z</time>
      </trkpt>
      <trkpt lat="46.96948" lon="8.77152">
        <ele>751</ele>
        <time>2021-08-06T09:08:32.331Z</time>
      </trkpt>
      <trkpt lat="46.96949" lon="8.7715">
        <ele>751</ele>
        <time>2021-08-06T09:08:33.330Z</time>
      </trkpt>
      <trkpt lat="46.96949" lon="8.77149">
        <ele>751</ele>
        <time>2021-08-06T09:08:34.331Z</time>
      </trkpt>
      <trkpt lat="46.9695" lon="8.77148">
        <ele>751</ele>
        <time>2021-08-06T09:08:35.331Z</time>
      </trkpt>
      <trkpt lat="46.9695" lon="8.77146">
        <ele>751</ele>
        <time>2021-08-06T09:08:36.330Z</time>
      </trkpt>
      <trkpt lat="46.96951" lon="8.77145">
        <ele>751</ele>
        <time>2021-08-06T09:08:37.331Z</time>
      </trkpt>
      <trkpt lat="46.96952" lon="8.77144">
        <ele>751</ele>
        <time>2021-08-06T09:08:38.330Z</time>
      </trkpt>
      <trkpt lat="46.96952" lon="8.77142">
        <ele>751</ele>
        <time>2021-08-06T09:08:39.330Z</time>
      </trkpt>
      <trkpt lat="46.96953" lon="8.77141">
        <ele>750</ele>
        <time>2021-08-06T09:08:40.331Z</time>
      </trkpt>
      <trkpt lat="46.96953" lon="8.7714">
        <ele>750</ele>
        <time>2021-08-06T09:08:41.330Z</time>
      </trkpt>
      <trkpt lat="46.96953" lon="8.77139">
        <ele>751</ele>
        <time>2021-08-06T09:08:42.330Z</time>
      </trkpt>
      <trkpt lat="46.96953" lon="8.77137">
        <ele>751</ele>
        <time>2021-08-06T09:08:43.330Z</time>
      </trkpt>
      <trkpt lat="46.96954" lon="8.77136">
        <ele>751</ele>
        <time>2021-08-06T09:08:44.331Z</time>
      </trkpt>
      <trkpt lat="46.96954" lon="8.77135">
        <ele>752</ele>
        <time>2021-08-06T09:08:45.331Z</time>
      </trkpt>
      <trkpt lat="46.96954" lon="8.77134">
        <ele>752</ele>
        <time>2021-08-06T09:08:46.330Z</time>
      </trkpt>
      <trkpt lat="46.96955" lon="8.77133">
        <ele>752</ele>
        <time>2021-08-06T09:08:47.330Z</time>
      </trkpt>
      <trkpt lat="46.96955" lon="8.77131">
        <ele>752</ele>
        <time>2021-08-06T09:08:48.331Z</time>
      </trkpt>
      <trkpt lat="46.96955" lon="8.7713">
        <ele>752</ele>
        <time>2021-08-06T09:08:49.330Z</time>
      </trkpt>
      <trkpt lat="46.96955" lon="8.77129">
        <ele>753</ele>
        <time>2021-08-06T09:08:50.330Z</time>
      </trkpt>
      <trkpt lat="46.96956" lon="8.77127">
        <ele>753</ele>
        <time>2021-08-06T09:08:51.331Z</time>
      </trkpt>
      <trkpt lat="46.96956" lon="8.77126">
        <ele>754</ele>
        <time>2021-08-06T09:08:52.331Z</time>
      </trkpt>
      <trkpt lat="46.96957" lon="8.77125">
        <ele>754</ele>
        <time>2021-08-06T09:08:53.330Z</time>
      </trkpt>
      <trkpt lat="46.96957" lon="8.77124">
        <ele>755</ele>
        <time>2021-08-06T09:08:54.331Z</time>
      </trkpt>
      <trkpt lat="46.96958" lon="8.77123">
        <ele>755</ele>
        <time>2021-08-06T09:08:55.331Z</time>
      </trkpt>
      <trkpt lat="46.96959" lon="8.77122">
        <ele>756</ele>
        <time>2021-08-06T09:08:56.331Z</time>
      </trkpt>
      <trkpt lat="46.96959" lon="8.77121">
        <ele>757</ele>
        <time>2021-08-06T09:08:57.330Z</time>
      </trkpt>
      <trkpt lat="46.9696" lon="8.7712">
        <ele>758</ele>
        <time>2021-08-06T09:08:58.331Z</time>
      </trkpt>
      <trkpt lat="46.9696" lon="8.77118">
        <ele>758</ele>
        <time>2021-08-06T09:08:59.331Z</time>
      </trkpt>
      <trkpt lat="46.96961" lon="8.77117">
        <ele>758</ele>
        <time>2021-08-06T09:09:00.330Z</time>
      </trkpt>
      <trkpt lat="46.96961" lon="8.77116">
        <ele>758</ele>
        <time>2021-08-06T09:09:01.331Z</time>
      </trkpt>
      <trkpt lat="46.96962" lon="8.77114">
        <ele>758</ele>
        <time>2021-08-06T09:09:02.330Z</time>
      </trkpt>
      <trkpt lat="46.96962" lon="8.77113">
        <ele>758</ele>
        <time>2021-08-06T09:09:03.331Z</time>
      </trkpt>
      <trkpt lat="46.96962" lon="8.77112">
        <ele>758</ele>
        <time>2021-08-06T09:09:04.331Z</time>
      </trkpt>
      <trkpt lat="46.96963" lon="8.77111">
        <ele>758</ele>
        <time>2021-08-06T09:09:05.331Z</time>
      </trkpt>
      <trkpt lat="46.96963" lon="8.77109">
        <ele>758</ele>
        <time>2021-08-06T09:09:06.331Z</time>
      </trkpt>
      <trkpt lat="46.96963" lon="8.77108">
        <ele>758</ele>
        <time>2021-08-06T09:09:07.330Z</time>
      </trkpt>
      <trkpt lat="46.96963" lon="8.77106">
        <ele>758</ele>
        <time>2021-08-06T09:09:08.330Z</time>
      </trkpt>
      <trkpt lat="46.96963" lon="8.77104">
        <ele>758</ele>
        <time>2021-08-06T09:09:09.330Z</time>
      </trkpt>
      <trkpt lat="46.96963" lon="8.77103">
        <ele>758</ele>
        <time>2021-08-06T09:09:10.331Z</time>
      </trkpt>
      <trkpt lat="46.96963" lon="8.77102">
        <ele>758</ele>
        <time>2021-08-06T09:09:11.331Z</time>
      </trkpt>
      <trkpt lat="46.96963" lon="8.771">
        <ele>758</ele>
        <time>2021-08-06T09:09:12.331Z</time>
      </trkpt>
      <trkpt lat="46.96963" lon="8.77099">
        <ele>758</ele>
        <time>2021-08-06T09:09:13.330Z</time>
      </trkpt>
      <trkpt lat="46.96964" lon="8.77097">
        <ele>758</ele>
        <time>2021-08-06T09:09:14.331Z</time>
      </trkpt>
      <trkpt lat="46.96964" lon="8.77096">
        <ele>758</ele>
        <time>2021-08-06T09:09:15.331Z</time>
      </trkpt>
      <trkpt lat="46.96963" lon="8.77095">
        <ele>757</ele>
        <time>2021-08-06T09:09:16.331Z</time>
      </trkpt>
      <trkpt lat="46.96963" lon="8.77094">
        <ele>757</ele>
        <time>2021-08-06T09:09:17.330Z</time>
      </trkpt>
      <trkpt lat="46.96963" lon="8.77092">
        <ele>757</ele>
        <time>2021-08-06T09:09:18.331Z</time>
      </trkpt>
      <trkpt lat="46.96963" lon="8.77091">
        <ele>757</ele>
        <time>2021-08-06T09:09:19.331Z</time>
      </trkpt>
      <trkpt lat="46.96962" lon="8.7709">
        <ele>757</ele>
        <time>2021-08-06T09:09:20.331Z</time>
      </trkpt>
      <trkpt lat="46.96962" lon="8.77088">
        <ele>757</ele>
        <time>2021-08-06T09:09:21.330Z</time>
      </trkpt>
      <trkpt lat="46.96961" lon="8.77087">
        <ele>757</ele>
        <time>2021-08-06T09:09:22.331Z</time>
      </trkpt>
      <trkpt lat="46.9696" lon="8.77085">
        <ele>757</ele>
        <time>2021-08-06T09:09:23.331Z</time>
      </trkpt>
      <trkpt lat="46.96959" lon="8.77084">
        <ele>757</ele>
        <time>2021-08-06T09:09:24.330Z</time>
      </trkpt>
      <trkpt lat="46.96959" lon="8.77082">
        <ele>757</ele>
        <time>2021-08-06T09:09:25.330Z</time>
      </trkpt>
      <trkpt lat="46.96958" lon="8.7708">
        <ele>756</ele>
        <time>2021-08-06T09:09:26.330Z</time>
      </trkpt>
      <trkpt lat="46.96957" lon="8.77079">
        <ele>756</ele>
        <time>2021-08-06T09:09:27.330Z</time>
      </trkpt>
      <trkpt lat="46.96957" lon="8.77078">
        <ele>755</ele>
        <time>2021-08-06T09:09:28.331Z</time>
      </trkpt>
      <trkpt lat="46.96956" lon="8.77077">
        <ele>755</ele>
        <time>2021-08-06T09:09:29.331Z</time>
      </trkpt>
      <trkpt lat="46.96956" lon="8.77075">
        <ele>755</ele>
        <time>2021-08-06T09:09:30.331Z</time>
      </trkpt>
      <trkpt lat="46.96956" lon="8.77074">
        <ele>755</ele>
        <time>2021-08-06T09:09:31.330Z</time>
      </trkpt>
      <trkpt lat="46.96955" lon="8.77073">
        <ele>755</ele>
        <time>2021-08-06T09:09:32.331Z</time>
      </trkpt>
      <trkpt lat="46.96954" lon="8.77072">
        <ele>755</ele>
        <time>2021-08-06T09:09:33.331Z</time>
      </trkpt>
      <trkpt lat="46.96954" lon="8.77071">
        <ele>754</ele>
        <time>2021-08-06T09:09:34.331Z</time>
      </trkpt>
      <trkpt lat="46.96953" lon="8.7707">
        <ele>754</ele>
        <time>2021-08-06T09:09:35.331Z</time>
      </trkpt>
      <trkpt lat="46.96953" lon="8.77069">
        <ele>754</ele>
        <time>2021-08-06T09:09:36.331Z</time>
      </trkpt>
      <trkpt lat="46.96952" lon="8.77068">
        <ele>753</ele>
        <time>2021-08-06T09:09:37.330Z</time>
      </trkpt>
      <trkpt lat="46.96952" lon="8.77067">
        <ele>753</ele>
        <time>2021-08-06T09:09:38.330Z</time>
      </trkpt>
      <trkpt lat="46.96952" lon="8.77065">
        <ele>753</ele>
        <time>2021-08-06T09:09:39.330Z</time>
      </trkpt>
      <trkpt lat="46.96951" lon="8.77064">
        <ele>752</ele>
        <time>2021-08-06T09:09:40.330Z</time>
      </trkpt>
      <trkpt lat="46.96951" lon="8.77063">
        <ele>752</ele>
        <time>2021-08-06T09:09:41.330Z</time>
      </trkpt>
      <trkpt lat="46.9695" lon="8.77062">
        <ele>753</ele>
        <time>2021-08-06T09:09:42.331Z</time>
      </trkpt>
      <trkpt lat="46.9695" lon="8.77061">
        <ele>753</ele>
        <time>2021-08-06T09:09:43.330Z</time>
      </trkpt>
      <trkpt lat="46.96949" lon="8.77059">
        <ele>753</ele>
        <time>2021-08-06T09:09:44.331Z</time>
      </trkpt>
      <trkpt lat="46.96948" lon="8.77058">
        <ele>753</ele>
        <time>2021-08-06T09:09:45.331Z</time>
      </trkpt>
      <trkpt lat="46.96947" lon="8.77056">
        <ele>753</ele>
        <time>2021-08-06T09:09:46.330Z</time>
      </trkpt>
      <trkpt lat="46.96947" lon="8.77055">
        <ele>754</ele>
        <time>2021-08-06T09:09:47.331Z</time>
      </trkpt>
      <trkpt lat="46.96946" lon="8.77054">
        <ele>754</ele>
        <time>2021-08-06T09:09:48.330Z</time>
      </trkpt>
      <trkpt lat="46.96946" lon="8.77053">
        <ele>754</ele>
        <time>2021-08-06T09:09:49.331Z</time>
      </trkpt>
      <trkpt lat="46.96946" lon="8.77052">
        <ele>755</ele>
        <time>2021-08-06T09:09:50.330Z</time>
      </trkpt>
      <trkpt lat="46.96946" lon="8.77051">
        <ele>755</ele>
        <time>2021-08-06T09:09:51.330Z</time>
      </trkpt>
      <trkpt lat="46.96945" lon="8.7705">
        <ele>755</ele>
        <time>2021-08-06T09:09:52.331Z</time>
      </trkpt>
      <trkpt lat="46.96945" lon="8.77048">
        <ele>756</ele>
        <time>2021-08-06T09:09:53.331Z</time>
      </trkpt>
      <trkpt lat="46.96944" lon="8.77047">
        <ele>756</ele>
        <time>2021-08-06T09:09:54.331Z</time>
      </trkpt>
      <trkpt lat="46.96944" lon="8.77045">
        <ele>757</ele>
        <time>2021-08-06T09:09:55.331Z</time>
      </trkpt>
      <trkpt lat="46.96943" lon="8.77044">
        <ele>757</ele>
        <time>2021-08-06T09:09:56.331Z</time>
      </trkpt>
      <trkpt lat="46.96942" lon="8.77043">
        <ele>758</ele>
        <time>2021-08-06T09:09:57.331Z</time>
      </trkpt>
      <trkpt lat="46.96942" lon="8.77042">
        <ele>758</ele>
        <time>2021-08-06T09:09:58.330Z</time>
      </trkpt>
      <trkpt lat="46.96941" lon="8.77041">
        <ele>758</ele>
        <time>2021-08-06T09:09:59.331Z</time>
      </trkpt>
      <trkpt lat="46.96941" lon="8.77041">
        <ele>758</ele>
        <time>2021-08-06T09:10:00.330Z</time>
      </trkpt>
      <trkpt lat="46.96941" lon="8.7704">
        <ele>758</ele>
        <time>2021-08-06T09:10:01.331Z</time>
      </trkpt>
      <trkpt lat="46.96941" lon="8.77039">
        <ele>758</ele>
        <time>2021-08-06T09:10:02.331Z</time>
      </trkpt>
      <trkpt lat="46.96941" lon="8.77038">
        <ele>758</ele>
        <time>2021-08-06T09:10:03.330Z</time>
      </trkpt>
      <trkpt lat="46.9694" lon="8.77036">
        <ele>759</ele>
        <time>2021-08-06T09:10:04.331Z</time>
      </trkpt>
      <trkpt lat="46.9694" lon="8.77035">
        <ele>759</ele>
        <time>2021-08-06T09:10:05.331Z</time>
      </trkpt>
      <trkpt lat="46.9694" lon="8.77034">
        <ele>759</ele>
        <time>2021-08-06T09:10:06.330Z</time>
      </trkpt>
      <trkpt lat="46.96939" lon="8.77033">
        <ele>760</ele>
        <time>2021-08-06T09:10:07.330Z</time>
      </trkpt>
      <trkpt lat="46.96939" lon="8.77032">
        <ele>760</ele>
        <time>2021-08-06T09:10:08.331Z</time>
      </trkpt>
      <trkpt lat="46.96939" lon="8.77031">
        <ele>759</ele>
        <time>2021-08-06T09:10:09.331Z</time>
      </trkpt>
      <trkpt lat="46.96938" lon="8.77029">
        <ele>759</ele>
        <time>2021-08-06T09:10:10.330Z</time>
      </trkpt>
      <trkpt lat="46.96938" lon="8.77028">
        <ele>759</ele>
        <time>2021-08-06T09:10:11.330Z</time>
      </trkpt>
      <trkpt lat="46.96938" lon="8.77027">
        <ele>759</ele>
        <time>2021-08-06T09:10:12.331Z</time>
      </trkpt>
      <trkpt lat="46.96938" lon="8.77026">
        <ele>759</ele>
        <time>2021-08-06T09:10:13.330Z</time>
      </trkpt>
      <trkpt lat="46.96938" lon="8.77025">
        <ele>759</ele>
        <time>2021-08-06T09:10:14.330Z</time>
      </trkpt>
      <trkpt lat="46.96937" lon="8.77024">
        <ele>760</ele>
        <time>2021-08-06T09:10:15.330Z</time>
      </trkpt>
      <trkpt lat="46.96936" lon="8.77023">
        <ele>760</ele>
        <time>2021-08-06T09:10:16.330Z</time>
      </trkpt>
      <trkpt lat="46.96936" lon="8.77022">
        <ele>761</ele>
        <time>2021-08-06T09:10:17.331Z</time>
      </trkpt>
      <trkpt lat="46.96935" lon="8.77021">
        <ele>761</ele>
        <time>2021-08-06T09:10:18.331Z</time>
      </trkpt>
      <trkpt lat="46.96935" lon="8.7702">
        <ele>762</ele>
        <time>2021-08-06T09:10:19.330Z</time>
      </trkpt>
      <trkpt lat="46.96934" lon="8.77018">
        <ele>762</ele>
        <time>2021-08-06T09:10:20.331Z</time>
      </trkpt>
      <trkpt lat="46.96934" lon="8.77017">
        <ele>763</ele>
        <time>2021-08-06T09:10:21.331Z</time>
      </trkpt>
      <trkpt lat="46.96934" lon="8.77016">
        <ele>763</ele>
        <time>2021-08-06T09:10:22.331Z</time>
      </trkpt>
      <trkpt lat="46.96933" lon="8.77014">
        <ele>763</ele>
        <time>2021-08-06T09:10:23.330Z</time>
      </trkpt>
      <trkpt lat="46.96933" lon="8.77013">
        <ele>763</ele>
        <time>2021-08-06T09:10:24.330Z</time>
      </trkpt>
      <trkpt lat="46.96932" lon="8.77012">
        <ele>764</ele>
        <time>2021-08-06T09:10:25.330Z</time>
      </trkpt>
      <trkpt lat="46.96932" lon="8.77011">
        <ele>764</ele>
        <time>2021-08-06T09:10:26.330Z</time>
      </trkpt>
      <trkpt lat="46.96932" lon="8.7701">
        <ele>763</ele>
        <time>2021-08-06T09:10:27.330Z</time>
      </trkpt>
      <trkpt lat="46.96931" lon="8.77009">
        <ele>763</ele>
        <time>2021-08-06T09:10:28.330Z</time>
      </trkpt>
      <trkpt lat="46.96931" lon="8.77008">
        <ele>762</ele>
        <time>2021-08-06T09:10:29.331Z</time>
      </trkpt>
      <trkpt lat="46.96931" lon="8.77007">
        <ele>763</ele>
        <time>2021-08-06T09:10:30.331Z</time>
      </trkpt>
      <trkpt lat="46.9693" lon="8.77006">
        <ele>763</ele>
        <time>2021-08-06T09:10:31.330Z</time>
      </trkpt>
      <trkpt lat="46.96929" lon="8.77005">
        <ele>764</ele>
        <time>2021-08-06T09:10:32.331Z</time>
      </trkpt>
      <trkpt lat="46.96928" lon="8.77003">
        <ele>764</ele>
        <time>2021-08-06T09:10:33.331Z</time>
      </trkpt>
      <trkpt lat="46.96928" lon="8.77002">
        <ele>765</ele>
        <time>2021-08-06T09:10:34.330Z</time>
      </trkpt>
      <trkpt lat="46.96927" lon="8.77001">
        <ele>765</ele>
        <time>2021-08-06T09:10:35.330Z</time>
      </trkpt>
      <trkpt lat="46.96927" lon="8.77">
        <ele>765</ele>
        <time>2021-08-06T09:10:36.331Z</time>
      </trkpt>
      <trkpt lat="46.96927" lon="8.76999">
        <ele>765</ele>
        <time>2021-08-06T09:10:37.331Z</time>
      </trkpt>
      <trkpt lat="46.96926" lon="8.76998">
        <ele>765</ele>
        <time>2021-08-06T09:10:38.330Z</time>
      </trkpt>
      <trkpt lat="46.96926" lon="8.76997">
        <ele>766</ele>
        <time>2021-08-06T09:10:39.330Z</time>
      </trkpt>
      <trkpt lat="46.96925" lon="8.76996">
        <ele>766</ele>
        <time>2021-08-06T09:10:40.330Z</time>
      </trkpt>
      <trkpt lat="46.96925" lon="8.76994">
        <ele>766</ele>
        <time>2021-08-06T09:10:41.330Z</time>
      </trkpt>
      <trkpt lat="46.96924" lon="8.76993">
        <ele>767</ele>
        <time>2021-08-06T09:10:42.330Z</time>
      </trkpt>
      <trkpt lat="46.96924" lon="8.76992">
        <ele>767</ele>
        <time>2021-08-06T09:10:43.330Z</time>
      </trkpt>
      <trkpt lat="46.96923" lon="8.76991">
        <ele>767</ele>
        <time>2021-08-06T09:10:44.330Z</time>
      </trkpt>
      <trkpt lat="46.96923" lon="8.76989">
        <ele>767</ele>
        <time>2021-08-06T09:10:45.330Z</time>
      </trkpt>
      <trkpt lat="46.96922" lon="8.76988">
        <ele>768</ele>
        <time>2021-08-06T09:10:46.331Z</time>
      </trkpt>
      <trkpt lat="46.96922" lon="8.76987">
        <ele>768</ele>
        <time>2021-08-06T09:10:47.330Z</time>
      </trkpt>
      <trkpt lat="46.96921" lon="8.76986">
        <ele>768</ele>
        <time>2021-08-06T09:10:48.331Z</time>
      </trkpt>
      <trkpt lat="46.96921" lon="8.76984">
        <ele>768</ele>
        <time>2021-08-06T09:10:49.330Z</time>
      </trkpt>
      <trkpt lat="46.9692" lon="8.76983">
        <ele>768</ele>
        <time>2021-08-06T09:10:50.331Z</time>
      </trkpt>
      <trkpt lat="46.9692" lon="8.76982">
        <ele>768</ele>
        <time>2021-08-06T09:10:51.330Z</time>
      </trkpt>
      <trkpt lat="46.96919" lon="8.76981">
        <ele>768</ele>
        <time>2021-08-06T09:10:52.331Z</time>
      </trkpt>
      <trkpt lat="46.96918" lon="8.7698">
        <ele>768</ele>
        <time>2021-08-06T09:10:53.331Z</time>
      </trkpt>
      <trkpt lat="46.96918" lon="8.76978">
        <ele>768</ele>
        <time>2021-08-06T09:10:54.331Z</time>
      </trkpt>
      <trkpt lat="46.96917" lon="8.76977">
        <ele>768</ele>
        <time>2021-08-06T09:10:55.330Z</time>
      </trkpt>
      <trkpt lat="46.96916" lon="8.76976">
        <ele>769</ele>
        <time>2021-08-06T09:10:56.331Z</time>
      </trkpt>
      <trkpt lat="46.96916" lon="8.76975">
        <ele>769</ele>
        <time>2021-08-06T09:10:57.330Z</time>
      </trkpt>
      <trkpt lat="46.96915" lon="8.76973">
        <ele>769</ele>
        <time>2021-08-06T09:10:58.330Z</time>
      </trkpt>
      <trkpt lat="46.96915" lon="8.76972">
        <ele>769</ele>
        <time>2021-08-06T09:10:59.330Z</time>
      </trkpt>
      <trkpt lat="46.96914" lon="8.76971">
        <ele>769</ele>
        <time>2021-08-06T09:11:00.331Z</time>
      </trkpt>
      <trkpt lat="46.96913" lon="8.7697">
        <ele>769</ele>
        <time>2021-08-06T09:11:01.331Z</time>
      </trkpt>
      <trkpt lat="46.96913" lon="8.76969">
        <ele>769</ele>
        <time>2021-08-06T09:11:02.330Z</time>
      </trkpt>
      <trkpt lat="46.96912" lon="8.76968">
        <ele>769</ele>
        <time>2021-08-06T09:11:03.330Z</time>
      </trkpt>
      <trkpt lat="46.96912" lon="8.76966">
        <ele>769</ele>
        <time>2021-08-06T09:11:04.330Z</time>
      </trkpt>
      <trkpt lat="46.96911" lon="8.76965">
        <ele>769</ele>
        <time>2021-08-06T09:11:05.331Z</time>
      </trkpt>
      <trkpt lat="46.9691" lon="8.76964">
        <ele>769</ele>
        <time>2021-08-06T09:11:06.331Z</time>
      </trkpt>
      <trkpt lat="46.9691" lon="8.76963">
        <ele>769</ele>
        <time>2021-08-06T09:11:07.331Z</time>
      </trkpt>
      <trkpt lat="46.96909" lon="8.76962">
        <ele>770</ele>
        <time>2021-08-06T09:11:08.331Z</time>
      </trkpt>
      <trkpt lat="46.96908" lon="8.76962">
        <ele>770</ele>
        <time>2021-08-06T09:11:09.331Z</time>
      </trkpt>
      <trkpt lat="46.96907" lon="8.76961">
        <ele>770</ele>
        <time>2021-08-06T09:11:10.330Z</time>
      </trkpt>
      <trkpt lat="46.96907" lon="8.7696">
        <ele>770</ele>
        <time>2021-08-06T09:11:11.331Z</time>
      </trkpt>
      <trkpt lat="46.96907" lon="8.76958">
        <ele>770</ele>
        <time>2021-08-06T09:11:12.330Z</time>
      </trkpt>
      <trkpt lat="46.96906" lon="8.76958">
        <ele>770</ele>
        <time>2021-08-06T09:11:13.331Z</time>
      </trkpt>
      <trkpt lat="46.96905" lon="8.76957">
        <ele>770</ele>
        <time>2021-08-06T09:11:14.330Z</time>
      </trkpt>
      <trkpt lat="46.96905" lon="8.76956">
        <ele>770</ele>
        <time>2021-08-06T09:11:15.331Z</time>
      </trkpt>
      <trkpt lat="46.96904" lon="8.76955">
        <ele>771</ele>
        <time>2021-08-06T09:11:16.330Z</time>
      </trkpt>
      <trkpt lat="46.96903" lon="8.76954">
        <ele>772</ele>
        <time>2021-08-06T09:11:17.330Z</time>
      </trkpt>
      <trkpt lat="46.96902" lon="8.76953">
        <ele>773</ele>
        <time>2021-08-06T09:11:18.331Z</time>
      </trkpt>
      <trkpt lat="46.96902" lon="8.76952">
        <ele>773</ele>
        <time>2021-08-06T09:11:19.331Z</time>
      </trkpt>
      <trkpt lat="46.96901" lon="8.76951">
        <ele>774</ele>
        <time>2021-08-06T09:11:20.331Z</time>
      </trkpt>
      <trkpt lat="46.969" lon="8.7695">
        <ele>774</ele>
        <time>2021-08-06T09:11:21.330Z</time>
      </trkpt>
      <trkpt lat="46.969" lon="8.7695">
        <ele>773</ele>
        <time>2021-08-06T09:11:22.330Z</time>
      </trkpt>
      <trkpt lat="46.96899" lon="8.76949">
        <ele>773</ele>
        <time>2021-08-06T09:11:23.331Z</time>
      </trkpt>
      <trkpt lat="46.96899" lon="8.76948">
        <ele>773</ele>
        <time>2021-08-06T09:11:24.330Z</time>
      </trkpt>
      <trkpt lat="46.96898" lon="8.76947">
        <ele>773</ele>
        <time>2021-08-06T09:11:25.331Z</time>
      </trkpt>
      <trkpt lat="46.96898" lon="8.76946">
        <ele>773</ele>
        <time>2021-08-06T09:11:26.331Z</time>
      </trkpt>
      <trkpt lat="46.96897" lon="8.76944">
        <ele>773</ele>
        <time>2021-08-06T09:11:27.330Z</time>
      </trkpt>
      <trkpt lat="46.96896" lon="8.76943">
        <ele>773</ele>
        <time>2021-08-06T09:11:28.330Z</time>
      </trkpt>
      <trkpt lat="46.96896" lon="8.76943">
        <ele>773</ele>
        <time>2021-08-06T09:11:29.331Z</time>
      </trkpt>
      <trkpt lat="46.96895" lon="8.76942">
        <ele>773</ele>
        <time>2021-08-06T09:11:30.330Z</time>
      </trkpt>
      <trkpt lat="46.96894" lon="8.76941">
        <ele>772</ele>
        <time>2021-08-06T09:11:31.331Z</time>
      </trkpt>
      <trkpt lat="46.96893" lon="8.7694">
        <ele>772</ele>
        <time>2021-08-06T09:11:32.331Z</time>
      </trkpt>
      <trkpt lat="46.96892" lon="8.76939">
        <ele>772</ele>
        <time>2021-08-06T09:11:33.331Z</time>
      </trkpt>
      <trkpt lat="46.96892" lon="8.76938">
        <ele>772</ele>
        <time>2021-08-06T09:11:34.331Z</time>
      </trkpt>
      <trkpt lat="46.96891" lon="8.76937">
        <ele>773</ele>
        <time>2021-08-06T09:11:35.331Z</time>
      </trkpt>
      <trkpt lat="46.96891" lon="8.76936">
        <ele>773</ele>
        <time>2021-08-06T09:11:36.330Z</time>
      </trkpt>
      <trkpt lat="46.9689" lon="8.76935">
        <ele>773</ele>
        <time>2021-08-06T09:11:37.331Z</time>
      </trkpt>
      <trkpt lat="46.96889" lon="8.76934">
        <ele>773</ele>
        <time>2021-08-06T09:11:38.330Z</time>
      </trkpt>
      <trkpt lat="46.96888" lon="8.76932">
        <ele>774</ele>
        <time>2021-08-06T09:11:39.330Z</time>
      </trkpt>
      <trkpt lat="46.96887" lon="8.76931">
        <ele>774</ele>
        <time>2021-08-06T09:11:40.330Z</time>
      </trkpt>
      <trkpt lat="46.96887" lon="8.7693">
        <ele>774</ele>
        <time>2021-08-06T09:11:41.331Z</time>
      </trkpt>
      <trkpt lat="46.96886" lon="8.76928">
        <ele>775</ele>
        <time>2021-08-06T09:11:42.331Z</time>
      </trkpt>
      <trkpt lat="46.96885" lon="8.76927">
        <ele>775</ele>
        <time>2021-08-06T09:11:43.330Z</time>
      </trkpt>
      <trkpt lat="46.96885" lon="8.76926">
        <ele>776</ele>
        <time>2021-08-06T09:11:44.330Z</time>
      </trkpt>
      <trkpt lat="46.96884" lon="8.76926">
        <ele>776</ele>
        <time>2021-08-06T09:11:45.331Z</time>
      </trkpt>
      <trkpt lat="46.96883" lon="8.76925">
        <ele>776</ele>
        <time>2021-08-06T09:11:46.330Z</time>
      </trkpt>
      <trkpt lat="46.96883" lon="8.76924">
        <ele>776</ele>
        <time>2021-08-06T09:11:47.331Z</time>
      </trkpt>
      <trkpt lat="46.96882" lon="8.76923">
        <ele>776</ele>
        <time>2021-08-06T09:11:48.330Z</time>
      </trkpt>
      <trkpt lat="46.96881" lon="8.76922">
        <ele>776</ele>
        <time>2021-08-06T09:11:49.330Z</time>
      </trkpt>
      <trkpt lat="46.9688" lon="8.76921">
        <ele>776</ele>
        <time>2021-08-06T09:11:50.330Z</time>
      </trkpt>
      <trkpt lat="46.9688" lon="8.7692">
        <ele>777</ele>
        <time>2021-08-06T09:11:51.331Z</time>
      </trkpt>
      <trkpt lat="46.96879" lon="8.76919">
        <ele>777</ele>
        <time>2021-08-06T09:11:52.330Z</time>
      </trkpt>
      <trkpt lat="46.96878" lon="8.76918">
        <ele>777</ele>
        <time>2021-08-06T09:11:53.330Z</time>
      </trkpt>
      <trkpt lat="46.96877" lon="8.76917">
        <ele>778</ele>
        <time>2021-08-06T09:11:54.330Z</time>
      </trkpt>
      <trkpt lat="46.96876" lon="8.76916">
        <ele>778</ele>
        <time>2021-08-06T09:11:55.330Z</time>
      </trkpt>
      <trkpt lat="46.96876" lon="8.76915">
        <ele>778</ele>
        <time>2021-08-06T09:11:56.330Z</time>
      </trkpt>
      <trkpt lat="46.96875" lon="8.76914">
        <ele>778</ele>
        <time>2021-08-06T09:11:57.330Z</time>
      </trkpt>
      <trkpt lat="46.96875" lon="8.76913">
        <ele>778</ele>
        <time>2021-08-06T09:11:58.330Z</time>
      </trkpt>
      <trkpt lat="46.96874" lon="8.76912">
        <ele>778</ele>
        <time>2021-08-06T09:11:59.330Z</time>
      </trkpt>
      <trkpt lat="46.96873" lon="8.76911">
        <ele>778</ele>
        <time>2021-08-06T09:12:00.330Z</time>
      </trkpt>
      <trkpt lat="46.96872" lon="8.7691">
        <ele>778</ele>
        <time>2021-08-06T09:12:01.330Z</time>
      </trkpt>
      <trkpt lat="46.96872" lon="8.76909">
        <ele>778</ele>
        <time>2021-08-06T09:12:02.330Z</time>
      </trkpt>
      <trkpt lat="46.96871" lon="8.76908">
        <ele>778</ele>
        <time>2021-08-06T09:12:03.330Z</time>
      </trkpt>
      <trkpt lat="46.9687" lon="8.76907">
        <ele>779</ele>
        <time>2021-08-06T09:12:04.330Z</time>
      </trkpt>
      <trkpt lat="46.96869" lon="8.76905">
        <ele>779</ele>
        <time>2021-08-06T09:12:05.330Z</time>
      </trkpt>
      <trkpt lat="46.96869" lon="8.76904">
        <ele>780</ele>
        <time>2021-08-06T09:12:06.330Z</time>
      </trkpt>
      <trkpt lat="46.96869" lon="8.76903">
        <ele>780</ele>
        <time>2021-08-06T09:12:07.330Z</time>
      </trkpt>
      <trkpt lat="46.96868" lon="8.76902">
        <ele>781</ele>
        <time>2021-08-06T09:12:08.331Z</time>
      </trkpt>
      <trkpt lat="46.96868" lon="8.76902">
        <ele>781</ele>
        <time>2021-08-06T09:12:09.330Z</time>
      </trkpt>
      <trkpt lat="46.96868" lon="8.76902">
        <ele>781</ele>
        <time>2021-08-06T09:12:10.330Z</time>
      </trkpt>
      <trkpt lat="46.96868" lon="8.76903">
        <ele>780</ele>
        <time>2021-08-06T09:12:11.330Z</time>
      </trkpt>
      <trkpt lat="46.96867" lon="8.76907">
        <ele>778</ele>
        <time>2021-08-06T09:12:12.330Z</time>
      </trkpt>
      <trkpt lat="46.96867" lon="8.76907">
        <ele>778</ele>
        <time>2021-08-06T09:12:13.331Z</time>
      </trkpt>
      <trkpt lat="46.96867" lon="8.76907">
        <ele>777</ele>
        <time>2021-08-06T09:12:14.330Z</time>
      </trkpt>
      <trkpt lat="46.96866" lon="8.76906">
        <ele>777</ele>
        <time>2021-08-06T09:12:15.330Z</time>
      </trkpt>
      <trkpt lat="46.96866" lon="8.76904">
        <ele>777</ele>
        <time>2021-08-06T09:12:16.331Z</time>
      </trkpt>
      <trkpt lat="46.96866" lon="8.76903">
        <ele>777</ele>
        <time>2021-08-06T09:12:17.330Z</time>
      </trkpt>
      <trkpt lat="46.96865" lon="8.76902">
        <ele>777</ele>
        <time>2021-08-06T09:12:18.330Z</time>
      </trkpt>
      <trkpt lat="46.96864" lon="8.76901">
        <ele>777</ele>
        <time>2021-08-06T09:12:19.330Z</time>
      </trkpt>
      <trkpt lat="46.96864" lon="8.769">
        <ele>777</ele>
        <time>2021-08-06T09:12:20.331Z</time>
      </trkpt>
      <trkpt lat="46.96863" lon="8.76899">
        <ele>776</ele>
        <time>2021-08-06T09:12:21.330Z</time>
      </trkpt>
      <trkpt lat="46.96863" lon="8.76898">
        <ele>776</ele>
        <time>2021-08-06T09:12:22.331Z</time>
      </trkpt>
      <trkpt lat="46.96862" lon="8.76896">
        <ele>776</ele>
        <time>2021-08-06T09:12:23.331Z</time>
      </trkpt>
      <trkpt lat="46.96861" lon="8.76896">
        <ele>776</ele>
        <time>2021-08-06T09:12:24.331Z</time>
      </trkpt>
      <trkpt lat="46.9686" lon="8.76895">
        <ele>776</ele>
        <time>2021-08-06T09:12:25.331Z</time>
      </trkpt>
      <trkpt lat="46.96859" lon="8.76894">
        <ele>776</ele>
        <time>2021-08-06T09:12:26.331Z</time>
      </trkpt>
      <trkpt lat="46.96858" lon="8.76893">
        <ele>776</ele>
        <time>2021-08-06T09:12:27.331Z</time>
      </trkpt>
      <trkpt lat="46.96858" lon="8.76892">
        <ele>777</ele>
        <time>2021-08-06T09:12:28.331Z</time>
      </trkpt>
      <trkpt lat="46.96858" lon="8.76892">
        <ele>778</ele>
        <time>2021-08-06T09:12:29.330Z</time>
      </trkpt>
      <trkpt lat="46.96857" lon="8.76891">
        <ele>778</ele>
        <time>2021-08-06T09:12:30.331Z</time>
      </trkpt>
      <trkpt lat="46.96857" lon="8.7689">
        <ele>777</ele>
        <time>2021-08-06T09:12:31.331Z</time>
      </trkpt>
      <trkpt lat="46.96856" lon="8.76888">
        <ele>777</ele>
        <time>2021-08-06T09:12:32.330Z</time>
      </trkpt>
      <trkpt lat="46.96856" lon="8.76887">
        <ele>777</ele>
        <time>2021-08-06T09:12:33.331Z</time>
      </trkpt>
      <trkpt lat="46.96855" lon="8.76886">
        <ele>777</ele>
        <time>2021-08-06T09:12:34.331Z</time>
      </trkpt>
      <trkpt lat="46.96855" lon="8.76885">
        <ele>778</ele>
        <time>2021-08-06T09:12:35.331Z</time>
      </trkpt>
      <trkpt lat="46.96855" lon="8.76884">
        <ele>778</ele>
        <time>2021-08-06T09:12:36.331Z</time>
      </trkpt>
      <trkpt lat="46.96854" lon="8.76883">
        <ele>777</ele>
        <time>2021-08-06T09:12:37.330Z</time>
      </trkpt>
      <trkpt lat="46.96854" lon="8.76882">
        <ele>777</ele>
        <time>2021-08-06T09:12:38.331Z</time>
      </trkpt>
      <trkpt lat="46.96854" lon="8.7688">
        <ele>777</ele>
        <time>2021-08-06T09:12:39.331Z</time>
      </trkpt>
      <trkpt lat="46.96854" lon="8.76879">
        <ele>777</ele>
        <time>2021-08-06T09:12:40.331Z</time>
      </trkpt>
      <trkpt lat="46.96854" lon="8.76878">
        <ele>777</ele>
        <time>2021-08-06T09:12:41.330Z</time>
      </trkpt>
      <trkpt lat="46.96854" lon="8.76877">
        <ele>777</ele>
        <time>2021-08-06T09:12:42.331Z</time>
      </trkpt>
      <trkpt lat="46.96854" lon="8.76877">
        <ele>777</ele>
        <time>2021-08-06T09:12:43.330Z</time>
      </trkpt>
      <trkpt lat="46.96853" lon="8.76877">
        <ele>777</ele>
        <time>2021-08-06T09:12:44.330Z</time>
      </trkpt>
      <trkpt lat="46.96853" lon="8.76877">
        <ele>777</ele>
        <time>2021-08-06T09:12:45.331Z</time>
      </trkpt>
      <trkpt lat="46.96853" lon="8.76877">
        <ele>778</ele>
        <time>2021-08-06T09:12:46.331Z</time>
      </trkpt>
      <trkpt lat="46.96854" lon="8.76876">
        <ele>778</ele>
        <time>2021-08-06T09:12:47.331Z</time>
      </trkpt>
      <trkpt lat="46.96854" lon="8.76875">
        <ele>778</ele>
        <time>2021-08-06T09:12:48.331Z</time>
      </trkpt>
      <trkpt lat="46.96855" lon="8.76874">
        <ele>779</ele>
        <time>2021-08-06T09:12:49.331Z</time>
      </trkpt>
      <trkpt lat="46.96855" lon="8.76873">
        <ele>780</ele>
        <time>2021-08-06T09:12:50.330Z</time>
      </trkpt>
      <trkpt lat="46.96855" lon="8.76872">
        <ele>781</ele>
        <time>2021-08-06T09:12:51.330Z</time>
      </trkpt>
      <trkpt lat="46.96855" lon="8.7687">
        <ele>781</ele>
        <time>2021-08-06T09:12:52.330Z</time>
      </trkpt>
      <trkpt lat="46.96855" lon="8.76869">
        <ele>781</ele>
        <time>2021-08-06T09:12:53.331Z</time>
      </trkpt>
      <trkpt lat="46.96855" lon="8.76868">
        <ele>781</ele>
        <time>2021-08-06T09:12:54.331Z</time>
      </trkpt>
      <trkpt lat="46.96855" lon="8.76866">
        <ele>781</ele>
        <time>2021-08-06T09:12:55.331Z</time>
      </trkpt>
      <trkpt lat="46.96855" lon="8.76865">
        <ele>780</ele>
        <time>2021-08-06T09:12:56.330Z</time>
      </trkpt>
      <trkpt lat="46.96855" lon="8.76863">
        <ele>780</ele>
        <time>2021-08-06T09:12:57.330Z</time>
      </trkpt>
      <trkpt lat="46.96855" lon="8.76862">
        <ele>780</ele>
        <time>2021-08-06T09:12:58.330Z</time>
      </trkpt>
      <trkpt lat="46.96855" lon="8.76861">
        <ele>780</ele>
        <time>2021-08-06T09:12:59.331Z</time>
      </trkpt>
      <trkpt lat="46.96855" lon="8.7686">
        <ele>779</ele>
        <time>2021-08-06T09:13:00.330Z</time>
      </trkpt>
      <trkpt lat="46.96855" lon="8.76858">
        <ele>779</ele>
        <time>2021-08-06T09:13:01.331Z</time>
      </trkpt>
      <trkpt lat="46.96855" lon="8.76857">
        <ele>779</ele>
        <time>2021-08-06T09:13:02.331Z</time>
      </trkpt>
      <trkpt lat="46.96855" lon="8.76856">
        <ele>779</ele>
        <time>2021-08-06T09:13:03.330Z</time>
      </trkpt>
      <trkpt lat="46.96855" lon="8.76855">
        <ele>778</ele>
        <time>2021-08-06T09:13:04.330Z</time>
      </trkpt>
      <trkpt lat="46.96855" lon="8.76853">
        <ele>778</ele>
        <time>2021-08-06T09:13:05.331Z</time>
      </trkpt>
      <trkpt lat="46.96856" lon="8.76852">
        <ele>778</ele>
        <time>2021-08-06T09:13:06.331Z</time>
      </trkpt>
      <trkpt lat="46.96856" lon="8.76851">
        <ele>778</ele>
        <time>2021-08-06T09:13:07.330Z</time>
      </trkpt>
      <trkpt lat="46.96856" lon="8.7685">
        <ele>779</ele>
        <time>2021-08-06T09:13:08.331Z</time>
      </trkpt>
      <trkpt lat="46.96855" lon="8.76848">
        <ele>779</ele>
        <time>2021-08-06T09:13:09.331Z</time>
      </trkpt>
      <trkpt lat="46.96855" lon="8.76847">
        <ele>780</ele>
        <time>2021-08-06T09:13:10.331Z</time>
      </trkpt>
      <trkpt lat="46.96856" lon="8.76846">
        <ele>780</ele>
        <time>2021-08-06T09:13:11.330Z</time>
      </trkpt>
      <trkpt lat="46.96856" lon="8.76845">
        <ele>781</ele>
        <time>2021-08-06T09:13:12.330Z</time>
      </trkpt>
      <trkpt lat="46.96856" lon="8.76844">
        <ele>781</ele>
        <time>2021-08-06T09:13:13.330Z</time>
      </trkpt>
      <trkpt lat="46.96856" lon="8.76843">
        <ele>781</ele>
        <time>2021-08-06T09:13:14.331Z</time>
      </trkpt>
      <trkpt lat="46.96857" lon="8.76842">
        <ele>781</ele>
        <time>2021-08-06T09:13:15.330Z</time>
      </trkpt>
      <trkpt lat="46.96856" lon="8.76841">
        <ele>781</ele>
        <time>2021-08-06T09:13:16.330Z</time>
      </trkpt>
      <trkpt lat="46.96856" lon="8.76839">
        <ele>781</ele>
        <time>2021-08-06T09:13:17.331Z</time>
      </trkpt>
      <trkpt lat="46.96856" lon="8.76838">
        <ele>781</ele>
        <time>2021-08-06T09:13:18.331Z</time>
      </trkpt>
      <trkpt lat="46.96856" lon="8.76836">
        <ele>781</ele>
        <time>2021-08-06T09:13:19.331Z</time>
      </trkpt>
      <trkpt lat="46.96856" lon="8.76835">
        <ele>782</ele>
        <time>2021-08-06T09:13:20.330Z</time>
      </trkpt>
      <trkpt lat="46.96855" lon="8.76833">
        <ele>782</ele>
        <time>2021-08-06T09:13:21.330Z</time>
      </trkpt>
      <trkpt lat="46.96855" lon="8.76832">
        <ele>782</ele>
        <time>2021-08-06T09:13:22.331Z</time>
      </trkpt>
      <trkpt lat="46.96854" lon="8.76831">
        <ele>782</ele>
        <time>2021-08-06T09:13:23.331Z</time>
      </trkpt>
      <trkpt lat="46.96853" lon="8.7683">
        <ele>782</ele>
        <time>2021-08-06T09:13:24.331Z</time>
      </trkpt>
      <trkpt lat="46.96853" lon="8.76829">
        <ele>782</ele>
        <time>2021-08-06T09:13:25.331Z</time>
      </trkpt>
      <trkpt lat="46.96852" lon="8.76828">
        <ele>782</ele>
        <time>2021-08-06T09:13:26.331Z</time>
      </trkpt>
      <trkpt lat="46.96852" lon="8.76827">
        <ele>781</ele>
        <time>2021-08-06T09:13:27.331Z</time>
      </trkpt>
      <trkpt lat="46.96851" lon="8.76826">
        <ele>782</ele>
        <time>2021-08-06T09:13:28.331Z</time>
      </trkpt>
      <trkpt lat="46.96851" lon="8.76825">
        <ele>782</ele>
        <time>2021-08-06T09:13:29.331Z</time>
      </trkpt>
      <trkpt lat="46.9685" lon="8.76825">
        <ele>783</ele>
        <time>2021-08-06T09:13:30.330Z</time>
      </trkpt>
      <trkpt lat="46.9685" lon="8.76825">
        <ele>783</ele>
        <time>2021-08-06T09:13:31.330Z</time>
      </trkpt>
      <trkpt lat="46.9685" lon="8.76825">
        <ele>785</ele>
        <time>2021-08-06T09:13:32.331Z</time>
      </trkpt>
      <trkpt lat="46.96848" lon="8.76824">
        <ele>786</ele>
        <time>2021-08-06T09:13:33.331Z</time>
      </trkpt>
      <trkpt lat="46.96847" lon="8.76822">
        <ele>786</ele>
        <time>2021-08-06T09:13:34.331Z</time>
      </trkpt>
      <trkpt lat="46.96846" lon="8.76821">
        <ele>787</ele>
        <time>2021-08-06T09:13:35.331Z</time>
      </trkpt>
      <trkpt lat="46.96846" lon="8.7682">
        <ele>787</ele>
        <time>2021-08-06T09:13:36.331Z</time>
      </trkpt>
      <trkpt lat="46.96845" lon="8.76818">
        <ele>787</ele>
        <time>2021-08-06T09:13:37.331Z</time>
      </trkpt>
      <trkpt lat="46.96844" lon="8.76817">
        <ele>787</ele>
        <time>2021-08-06T09:13:38.331Z</time>
      </trkpt>
      <trkpt lat="46.96844" lon="8.76816">
        <ele>787</ele>
        <time>2021-08-06T09:13:39.331Z</time>
      </trkpt>
      <trkpt lat="46.96843" lon="8.76814">
        <ele>787</ele>
        <time>2021-08-06T09:13:40.331Z</time>
      </trkpt>
      <trkpt lat="46.96843" lon="8.76813">
        <ele>787</ele>
        <time>2021-08-06T09:13:41.331Z</time>
      </trkpt>
      <trkpt lat="46.96842" lon="8.76812">
        <ele>788</ele>
        <time>2021-08-06T09:13:42.332Z</time>
      </trkpt>
      <trkpt lat="46.96841" lon="8.7681">
        <ele>788</ele>
        <time>2021-08-06T09:13:43.332Z</time>
      </trkpt>
      <trkpt lat="46.96841" lon="8.76809">
        <ele>788</ele>
        <time>2021-08-06T09:13:44.331Z</time>
      </trkpt>
      <trkpt lat="46.9684" lon="8.76807">
        <ele>789</ele>
        <time>2021-08-06T09:13:45.331Z</time>
      </trkpt>
      <trkpt lat="46.96839" lon="8.76806">
        <ele>789</ele>
        <time>2021-08-06T09:13:46.331Z</time>
      </trkpt>
      <trkpt lat="46.96839" lon="8.76804">
        <ele>789</ele>
        <time>2021-08-06T09:13:47.331Z</time>
      </trkpt>
      <trkpt lat="46.96838" lon="8.76803">
        <ele>789</ele>
        <time>2021-08-06T09:13:48.331Z</time>
      </trkpt>
      <trkpt lat="46.96837" lon="8.76802">
        <ele>788</ele>
        <time>2021-08-06T09:13:49.331Z</time>
      </trkpt>
      <trkpt lat="46.96837" lon="8.76801">
        <ele>788</ele>
        <time>2021-08-06T09:13:50.332Z</time>
      </trkpt>
      <trkpt lat="46.96836" lon="8.76799">
        <ele>788</ele>
        <time>2021-08-06T09:13:51.331Z</time>
      </trkpt>
      <trkpt lat="46.96836" lon="8.76798">
        <ele>788</ele>
        <time>2021-08-06T09:13:52.331Z</time>
      </trkpt>
      <trkpt lat="46.96835" lon="8.76797">
        <ele>788</ele>
        <time>2021-08-06T09:13:53.331Z</time>
      </trkpt>
      <trkpt lat="46.96834" lon="8.76796">
        <ele>788</ele>
        <time>2021-08-06T09:13:54.331Z</time>
      </trkpt>
      <trkpt lat="46.96834" lon="8.76795">
        <ele>787</ele>
        <time>2021-08-06T09:13:55.332Z</time>
      </trkpt>
      <trkpt lat="46.96833" lon="8.76794">
        <ele>786</ele>
        <time>2021-08-06T09:13:56.331Z</time>
      </trkpt>
      <trkpt lat="46.96833" lon="8.76793">
        <ele>786</ele>
        <time>2021-08-06T09:13:57.331Z</time>
      </trkpt>
      <trkpt lat="46.96832" lon="8.76792">
        <ele>785</ele>
        <time>2021-08-06T09:13:58.332Z</time>
      </trkpt>
      <trkpt lat="46.96832" lon="8.7679">
        <ele>785</ele>
        <time>2021-08-06T09:13:59.331Z</time>
      </trkpt>
      <trkpt lat="46.96831" lon="8.76789">
        <ele>786</ele>
        <time>2021-08-06T09:14:00.332Z</time>
      </trkpt>
      <trkpt lat="46.96831" lon="8.76788">
        <ele>786</ele>
        <time>2021-08-06T09:14:01.332Z</time>
      </trkpt>
      <trkpt lat="46.9683" lon="8.76787">
        <ele>786</ele>
        <time>2021-08-06T09:14:02.331Z</time>
      </trkpt>
      <trkpt lat="46.96829" lon="8.76785">
        <ele>787</ele>
        <time>2021-08-06T09:14:03.331Z</time>
      </trkpt>
      <trkpt lat="46.96829" lon="8.76785">
        <ele>787</ele>
        <time>2021-08-06T09:14:04.331Z</time>
      </trkpt>
      <trkpt lat="46.96828" lon="8.76783">
        <ele>787</ele>
        <time>2021-08-06T09:14:05.331Z</time>
      </trkpt>
      <trkpt lat="46.96828" lon="8.76781">
        <ele>788</ele>
        <time>2021-08-06T09:14:06.331Z</time>
      </trkpt>
      <trkpt lat="46.96828" lon="8.7678">
        <ele>788</ele>
        <time>2021-08-06T09:14:07.331Z</time>
      </trkpt>
      <trkpt lat="46.96827" lon="8.76779">
        <ele>788</ele>
        <time>2021-08-06T09:14:08.331Z</time>
      </trkpt>
      <trkpt lat="46.96827" lon="8.76778">
        <ele>788</ele>
        <time>2021-08-06T09:14:09.332Z</time>
      </trkpt>
      <trkpt lat="46.96827" lon="8.76776">
        <ele>788</ele>
        <time>2021-08-06T09:14:10.332Z</time>
      </trkpt>
      <trkpt lat="46.96826" lon="8.76775">
        <ele>788</ele>
        <time>2021-08-06T09:14:11.331Z</time>
      </trkpt>
      <trkpt lat="46.96826" lon="8.76774">
        <ele>788</ele>
        <time>2021-08-06T09:14:12.331Z</time>
      </trkpt>
      <trkpt lat="46.96826" lon="8.76773">
        <ele>787</ele>
        <time>2021-08-06T09:14:13.332Z</time>
      </trkpt>
      <trkpt lat="46.96826" lon="8.76771">
        <ele>788</ele>
        <time>2021-08-06T09:14:14.332Z</time>
      </trkpt>
      <trkpt lat="46.96826" lon="8.7677">
        <ele>787</ele>
        <time>2021-08-06T09:14:15.332Z</time>
      </trkpt>
      <trkpt lat="46.96826" lon="8.76769">
        <ele>787</ele>
        <time>2021-08-06T09:14:16.332Z</time>
      </trkpt>
      <trkpt lat="46.96826" lon="8.76767">
        <ele>787</ele>
        <time>2021-08-06T09:14:17.331Z</time>
      </trkpt>
      <trkpt lat="46.96826" lon="8.76766">
        <ele>786</ele>
        <time>2021-08-06T09:14:18.332Z</time>
      </trkpt>
      <trkpt lat="46.96826" lon="8.76765">
        <ele>786</ele>
        <time>2021-08-06T09:14:19.331Z</time>
      </trkpt>
      <trkpt lat="46.96826" lon="8.76763">
        <ele>785</ele>
        <time>2021-08-06T09:14:20.331Z</time>
      </trkpt>
      <trkpt lat="46.96826" lon="8.76762">
        <ele>785</ele>
        <time>2021-08-06T09:14:21.331Z</time>
      </trkpt>
      <trkpt lat="46.96826" lon="8.7676">
        <ele>784</ele>
        <time>2021-08-06T09:14:22.331Z</time>
      </trkpt>
      <trkpt lat="46.96826" lon="8.76759">
        <ele>784</ele>
        <time>2021-08-06T09:14:23.331Z</time>
      </trkpt>
      <trkpt lat="46.96826" lon="8.76758">
        <ele>784</ele>
        <time>2021-08-06T09:14:24.331Z</time>
      </trkpt>
      <trkpt lat="46.96826" lon="8.76757">
        <ele>783</ele>
        <time>2021-08-06T09:14:25.331Z</time>
      </trkpt>
      <trkpt lat="46.96826" lon="8.76756">
        <ele>783</ele>
        <time>2021-08-06T09:14:26.331Z</time>
      </trkpt>
      <trkpt lat="46.96826" lon="8.76754">
        <ele>783</ele>
        <time>2021-08-06T09:14:27.332Z</time>
      </trkpt>
      <trkpt lat="46.96826" lon="8.76753">
        <ele>783</ele>
        <time>2021-08-06T09:14:28.331Z</time>
      </trkpt>
      <trkpt lat="46.96826" lon="8.76752">
        <ele>783</ele>
        <time>2021-08-06T09:14:29.332Z</time>
      </trkpt>
      <trkpt lat="46.96826" lon="8.76751">
        <ele>783</ele>
        <time>2021-08-06T09:14:30.331Z</time>
      </trkpt>
      <trkpt lat="46.96826" lon="8.76749">
        <ele>784</ele>
        <time>2021-08-06T09:14:31.332Z</time>
      </trkpt>
      <trkpt lat="46.96826" lon="8.76748">
        <ele>784</ele>
        <time>2021-08-06T09:14:32.331Z</time>
      </trkpt>
      <trkpt lat="46.96826" lon="8.76747">
        <ele>785</ele>
        <time>2021-08-06T09:14:33.331Z</time>
      </trkpt>
      <trkpt lat="46.96826" lon="8.76746">
        <ele>785</ele>
        <time>2021-08-06T09:14:34.331Z</time>
      </trkpt>
      <trkpt lat="46.96826" lon="8.76744">
        <ele>786</ele>
        <time>2021-08-06T09:14:35.331Z</time>
      </trkpt>
      <trkpt lat="46.96825" lon="8.76743">
        <ele>786</ele>
        <time>2021-08-06T09:14:36.331Z</time>
      </trkpt>
      <trkpt lat="46.96825" lon="8.76742">
        <ele>786</ele>
        <time>2021-08-06T09:14:37.331Z</time>
      </trkpt>
      <trkpt lat="46.96825" lon="8.76741">
        <ele>787</ele>
        <time>2021-08-06T09:14:38.331Z</time>
      </trkpt>
      <trkpt lat="46.96825" lon="8.7674">
        <ele>787</ele>
        <time>2021-08-06T09:14:39.331Z</time>
      </trkpt>
      <trkpt lat="46.96825" lon="8.76738">
        <ele>786</ele>
        <time>2021-08-06T09:14:40.331Z</time>
      </trkpt>
      <trkpt lat="46.96825" lon="8.76737">
        <ele>786</ele>
        <time>2021-08-06T09:14:41.331Z</time>
      </trkpt>
      <trkpt lat="46.96825" lon="8.76735">
        <ele>786</ele>
        <time>2021-08-06T09:14:42.331Z</time>
      </trkpt>
      <trkpt lat="46.96825" lon="8.76734">
        <ele>787</ele>
        <time>2021-08-06T09:14:43.331Z</time>
      </trkpt>
      <trkpt lat="46.96825" lon="8.76733">
        <ele>786</ele>
        <time>2021-08-06T09:14:44.331Z</time>
      </trkpt>
      <trkpt lat="46.96825" lon="8.76731">
        <ele>786</ele>
        <time>2021-08-06T09:14:45.331Z</time>
      </trkpt>
      <trkpt lat="46.96825" lon="8.76729">
        <ele>787</ele>
        <time>2021-08-06T09:14:46.331Z</time>
      </trkpt>
      <trkpt lat="46.96825" lon="8.76728">
        <ele>787</ele>
        <time>2021-08-06T09:14:47.332Z</time>
      </trkpt>
      <trkpt lat="46.96825" lon="8.76727">
        <ele>787</ele>
        <time>2021-08-06T09:14:48.331Z</time>
      </trkpt>
      <trkpt lat="46.96825" lon="8.76725">
        <ele>787</ele>
        <time>2021-08-06T09:14:49.331Z</time>
      </trkpt>
      <trkpt lat="46.96825" lon="8.76724">
        <ele>787</ele>
        <time>2021-08-06T09:14:50.331Z</time>
      </trkpt>
      <trkpt lat="46.96825" lon="8.76723">
        <ele>787</ele>
        <time>2021-08-06T09:14:51.331Z</time>
      </trkpt>
      <trkpt lat="46.96824" lon="8.76721">
        <ele>787</ele>
        <time>2021-08-06T09:14:52.331Z</time>
      </trkpt>
      <trkpt lat="46.96824" lon="8.7672">
        <ele>787</ele>
        <time>2021-08-06T09:14:53.331Z</time>
      </trkpt>
      <trkpt lat="46.96823" lon="8.76718">
        <ele>787</ele>
        <time>2021-08-06T09:14:54.331Z</time>
      </trkpt>
      <trkpt lat="46.96823" lon="8.76717">
        <ele>787</ele>
        <time>2021-08-06T09:14:55.331Z</time>
      </trkpt>
      <trkpt lat="46.96823" lon="8.76716">
        <ele>787</ele>
        <time>2021-08-06T09:14:56.331Z</time>
      </trkpt>
      <trkpt lat="46.96823" lon="8.76714">
        <ele>787</ele>
        <time>2021-08-06T09:14:57.331Z</time>
      </trkpt>
      <trkpt lat="46.96822" lon="8.76712">
        <ele>787</ele>
        <time>2021-08-06T09:14:58.331Z</time>
      </trkpt>
      <trkpt lat="46.96822" lon="8.76711">
        <ele>787</ele>
        <time>2021-08-06T09:14:59.331Z</time>
      </trkpt>
      <trkpt lat="46.96822" lon="8.76709">
        <ele>787</ele>
        <time>2021-08-06T09:15:00.331Z</time>
      </trkpt>
      <trkpt lat="46.96822" lon="8.76708">
        <ele>787</ele>
        <time>2021-08-06T09:15:01.331Z</time>
      </trkpt>
      <trkpt lat="46.96822" lon="8.76707">
        <ele>787</ele>
        <time>2021-08-06T09:15:02.331Z</time>
      </trkpt>
      <trkpt lat="46.96821" lon="8.76705">
        <ele>787</ele>
        <time>2021-08-06T09:15:03.331Z</time>
      </trkpt>
      <trkpt lat="46.96821" lon="8.76704">
        <ele>787</ele>
        <time>2021-08-06T09:15:04.332Z</time>
      </trkpt>
      <trkpt lat="46.96821" lon="8.76703">
        <ele>787</ele>
        <time>2021-08-06T09:15:05.331Z</time>
      </trkpt>
      <trkpt lat="46.96821" lon="8.76702">
        <ele>787</ele>
        <time>2021-08-06T09:15:06.331Z</time>
      </trkpt>
      <trkpt lat="46.96821" lon="8.767">
        <ele>787</ele>
        <time>2021-08-06T09:15:07.331Z</time>
      </trkpt>
      <trkpt lat="46.96821" lon="8.76698">
        <ele>788</ele>
        <time>2021-08-06T09:15:08.331Z</time>
      </trkpt>
      <trkpt lat="46.9682" lon="8.76697">
        <ele>788</ele>
        <time>2021-08-06T09:15:09.331Z</time>
      </trkpt>
      <trkpt lat="46.9682" lon="8.76696">
        <ele>788</ele>
        <time>2021-08-06T09:15:10.331Z</time>
      </trkpt>
      <trkpt lat="46.9682" lon="8.76695">
        <ele>788</ele>
        <time>2021-08-06T09:15:11.331Z</time>
      </trkpt>
      <trkpt lat="46.96819" lon="8.76693">
        <ele>788</ele>
        <time>2021-08-06T09:15:12.332Z</time>
      </trkpt>
      <trkpt lat="46.96819" lon="8.76692">
        <ele>788</ele>
        <time>2021-08-06T09:15:13.332Z</time>
      </trkpt>
      <trkpt lat="46.96819" lon="8.7669">
        <ele>789</ele>
        <time>2021-08-06T09:15:14.331Z</time>
      </trkpt>
      <trkpt lat="46.96818" lon="8.76689">
        <ele>790</ele>
        <time>2021-08-06T09:15:15.332Z</time>
      </trkpt>
      <trkpt lat="46.96818" lon="8.76688">
        <ele>790</ele>
        <time>2021-08-06T09:15:16.331Z</time>
      </trkpt>
      <trkpt lat="46.96819" lon="8.76686">
        <ele>790</ele>
        <time>2021-08-06T09:15:17.331Z</time>
      </trkpt>
      <trkpt lat="46.96818" lon="8.76685">
        <ele>789</ele>
        <time>2021-08-06T09:15:18.331Z</time>
      </trkpt>
      <trkpt lat="46.96818" lon="8.76684">
        <ele>789</ele>
        <time>2021-08-06T09:15:19.331Z</time>
      </trkpt>
      <trkpt lat="46.96818" lon="8.76683">
        <ele>788</ele>
        <time>2021-08-06T09:15:20.331Z</time>
      </trkpt>
      <trkpt lat="46.96818" lon="8.76681">
        <ele>788</ele>
        <time>2021-08-06T09:15:21.331Z</time>
      </trkpt>
      <trkpt lat="46.96818" lon="8.7668">
        <ele>788</ele>
        <time>2021-08-06T09:15:22.331Z</time>
      </trkpt>
      <trkpt lat="46.96817" lon="8.76678">
        <ele>787</ele>
        <time>2021-08-06T09:15:23.331Z</time>
      </trkpt>
      <trkpt lat="46.96817" lon="8.76677">
        <ele>787</ele>
        <time>2021-08-06T09:15:24.331Z</time>
      </trkpt>
      <trkpt lat="46.96817" lon="8.76676">
        <ele>788</ele>
        <time>2021-08-06T09:15:25.331Z</time>
      </trkpt>
      <trkpt lat="46.96817" lon="8.76674">
        <ele>788</ele>
        <time>2021-08-06T09:15:26.331Z</time>
      </trkpt>
      <trkpt lat="46.96817" lon="8.76673">
        <ele>788</ele>
        <time>2021-08-06T09:15:27.331Z</time>
      </trkpt>
      <trkpt lat="46.96817" lon="8.76671">
        <ele>789</ele>
        <time>2021-08-06T09:15:28.331Z</time>
      </trkpt>
      <trkpt lat="46.96816" lon="8.7667">
        <ele>789</ele>
        <time>2021-08-06T09:15:29.332Z</time>
      </trkpt>
      <trkpt lat="46.96816" lon="8.76668">
        <ele>789</ele>
        <time>2021-08-06T09:15:30.331Z</time>
      </trkpt>
      <trkpt lat="46.96816" lon="8.76667">
        <ele>789</ele>
        <time>2021-08-06T09:15:31.332Z</time>
      </trkpt>
      <trkpt lat="46.96816" lon="8.76666">
        <ele>789</ele>
        <time>2021-08-06T09:15:32.332Z</time>
      </trkpt>
      <trkpt lat="46.96816" lon="8.76665">
        <ele>788</ele>
        <time>2021-08-06T09:15:33.331Z</time>
      </trkpt>
      <trkpt lat="46.96815" lon="8.76663">
        <ele>788</ele>
        <time>2021-08-06T09:15:34.331Z</time>
      </trkpt>
      <trkpt lat="46.96815" lon="8.76662">
        <ele>789</ele>
        <time>2021-08-06T09:15:35.331Z</time>
      </trkpt>
      <trkpt lat="46.96815" lon="8.7666">
        <ele>789</ele>
        <time>2021-08-06T09:15:36.331Z</time>
      </trkpt>
      <trkpt lat="46.96815" lon="8.76659">
        <ele>789</ele>
        <time>2021-08-06T09:15:37.332Z</time>
      </trkpt>
      <trkpt lat="46.96815" lon="8.76658">
        <ele>790</ele>
        <time>2021-08-06T09:15:38.331Z</time>
      </trkpt>
      <trkpt lat="46.96814" lon="8.76656">
        <ele>791</ele>
        <time>2021-08-06T09:15:39.332Z</time>
      </trkpt>
      <trkpt lat="46.96814" lon="8.76655">
        <ele>791</ele>
        <time>2021-08-06T09:15:40.332Z</time>
      </trkpt>
      <trkpt lat="46.96813" lon="8.76654">
        <ele>792</ele>
        <time>2021-08-06T09:15:41.331Z</time>
      </trkpt>
      <trkpt lat="46.96813" lon="8.76652">
        <ele>792</ele>
        <time>2021-08-06T09:15:42.331Z</time>
      </trkpt>
      <trkpt lat="46.96813" lon="8.76651">
        <ele>792</ele>
        <time>2021-08-06T09:15:43.331Z</time>
      </trkpt>
      <trkpt lat="46.96813" lon="8.76649">
        <ele>792</ele>
        <time>2021-08-06T09:15:44.331Z</time>
      </trkpt>
      <trkpt lat="46.96812" lon="8.76648">
        <ele>793</ele>
        <time>2021-08-06T09:15:45.331Z</time>
      </trkpt>
      <trkpt lat="46.96812" lon="8.76646">
        <ele>793</ele>
        <time>2021-08-06T09:15:46.332Z</time>
      </trkpt>
      <trkpt lat="46.96811" lon="8.76645">
        <ele>793</ele>
        <time>2021-08-06T09:15:47.331Z</time>
      </trkpt>
      <trkpt lat="46.96811" lon="8.76644">
        <ele>794</ele>
        <time>2021-08-06T09:15:48.332Z</time>
      </trkpt>
      <trkpt lat="46.9681" lon="8.76643">
        <ele>794</ele>
        <time>2021-08-06T09:15:49.331Z</time>
      </trkpt>
      <trkpt lat="46.9681" lon="8.76642">
        <ele>793</ele>
        <time>2021-08-06T09:15:50.331Z</time>
      </trkpt>
      <trkpt lat="46.9681" lon="8.7664">
        <ele>793</ele>
        <time>2021-08-06T09:15:51.331Z</time>
      </trkpt>
      <trkpt lat="46.9681" lon="8.76639">
        <ele>793</ele>
        <time>2021-08-06T09:15:52.332Z</time>
      </trkpt>
      <trkpt lat="46.96809" lon="8.76637">
        <ele>794</ele>
        <time>2021-08-06T09:15:53.332Z</time>
      </trkpt>
      <trkpt lat="46.96809" lon="8.76636">
        <ele>794</ele>
        <time>2021-08-06T09:15:54.331Z</time>
      </trkpt>
      <trkpt lat="46.96809" lon="8.76634">
        <ele>794</ele>
        <time>2021-08-06T09:15:55.331Z</time>
      </trkpt>
      <trkpt lat="46.96808" lon="8.76633">
        <ele>794</ele>
        <time>2021-08-06T09:15:56.331Z</time>
      </trkpt>
      <trkpt lat="46.96808" lon="8.76631">
        <ele>793</ele>
        <time>2021-08-06T09:15:57.331Z</time>
      </trkpt>
      <trkpt lat="46.96808" lon="8.7663">
        <ele>793</ele>
        <time>2021-08-06T09:15:58.331Z</time>
      </trkpt>
      <trkpt lat="46.96808" lon="8.76629">
        <ele>793</ele>
        <time>2021-08-06T09:15:59.331Z</time>
      </trkpt>
      <trkpt lat="46.96808" lon="8.76628">
        <ele>792</ele>
        <time>2021-08-06T09:16:00.331Z</time>
      </trkpt>
      <trkpt lat="46.96807" lon="8.76626">
        <ele>792</ele>
        <time>2021-08-06T09:16:01.331Z</time>
      </trkpt>
      <trkpt lat="46.96807" lon="8.76625">
        <ele>791</ele>
        <time>2021-08-06T09:16:02.331Z</time>
      </trkpt>
      <trkpt lat="46.96807" lon="8.76623">
        <ele>791</ele>
        <time>2021-08-06T09:16:03.331Z</time>
      </trkpt>
      <trkpt lat="46.96807" lon="8.76622">
        <ele>791</ele>
        <time>2021-08-06T09:16:04.331Z</time>
      </trkpt>
      <trkpt lat="46.96807" lon="8.76621">
        <ele>791</ele>
        <time>2021-08-06T09:16:05.331Z</time>
      </trkpt>
      <trkpt lat="46.96807" lon="8.76619">
        <ele>791</ele>
        <time>2021-08-06T09:16:06.331Z</time>
      </trkpt>
      <trkpt lat="46.96807" lon="8.76617">
        <ele>792</ele>
        <time>2021-08-06T09:16:07.331Z</time>
      </trkpt>
      <trkpt lat="46.96807" lon="8.76616">
        <ele>792</ele>
        <time>2021-08-06T09:16:08.331Z</time>
      </trkpt>
      <trkpt lat="46.96808" lon="8.76614">
        <ele>792</ele>
        <time>2021-08-06T09:16:09.331Z</time>
      </trkpt>
      <trkpt lat="46.96807" lon="8.76613">
        <ele>793</ele>
        <time>2021-08-06T09:16:10.332Z</time>
      </trkpt>
      <trkpt lat="46.96807" lon="8.76612">
        <ele>793</ele>
        <time>2021-08-06T09:16:11.331Z</time>
      </trkpt>
      <trkpt lat="46.96807" lon="8.76611">
        <ele>794</ele>
        <time>2021-08-06T09:16:12.332Z</time>
      </trkpt>
      <trkpt lat="46.96807" lon="8.7661">
        <ele>794</ele>
        <time>2021-08-06T09:16:13.331Z</time>
      </trkpt>
      <trkpt lat="46.96807" lon="8.76608">
        <ele>794</ele>
        <time>2021-08-06T09:16:14.331Z</time>
      </trkpt>
      <trkpt lat="46.96807" lon="8.76607">
        <ele>795</ele>
        <time>2021-08-06T09:16:15.331Z</time>
      </trkpt>
      <trkpt lat="46.96807" lon="8.76606">
        <ele>795</ele>
        <time>2021-08-06T09:16:16.331Z</time>
      </trkpt>
      <trkpt lat="46.96806" lon="8.76604">
        <ele>795</ele>
        <time>2021-08-06T09:16:17.331Z</time>
      </trkpt>
      <trkpt lat="46.96806" lon="8.76603">
        <ele>795</ele>
        <time>2021-08-06T09:16:18.332Z</time>
      </trkpt>
      <trkpt lat="46.96806" lon="8.766">
        <ele>796</ele>
        <time>2021-08-06T09:16:19.331Z</time>
      </trkpt>
      <trkpt lat="46.96806" lon="8.76598">
        <ele>797</ele>
        <time>2021-08-06T09:16:20.332Z</time>
      </trkpt>
      <trkpt lat="46.96806" lon="8.76597">
        <ele>798</ele>
        <time>2021-08-06T09:16:21.332Z</time>
      </trkpt>
      <trkpt lat="46.96805" lon="8.76596">
        <ele>798</ele>
        <time>2021-08-06T09:16:22.332Z</time>
      </trkpt>
      <trkpt lat="46.96805" lon="8.76594">
        <ele>799</ele>
        <time>2021-08-06T09:16:23.331Z</time>
      </trkpt>
      <trkpt lat="46.96805" lon="8.76593">
        <ele>800</ele>
        <time>2021-08-06T09:16:24.331Z</time>
      </trkpt>
      <trkpt lat="46.96805" lon="8.76592">
        <ele>800</ele>
        <time>2021-08-06T09:16:25.332Z</time>
      </trkpt>
      <trkpt lat="46.96805" lon="8.76591">
        <ele>800</ele>
        <time>2021-08-06T09:16:26.332Z</time>
      </trkpt>
      <trkpt lat="46.96805" lon="8.76589">
        <ele>800</ele>
        <time>2021-08-06T09:16:27.332Z</time>
      </trkpt>
      <trkpt lat="46.96806" lon="8.76588">
        <ele>800</ele>
        <time>2021-08-06T09:16:28.332Z</time>
      </trkpt>
      <trkpt lat="46.96806" lon="8.76587">
        <ele>799</ele>
        <time>2021-08-06T09:16:29.332Z</time>
      </trkpt>
      <trkpt lat="46.96807" lon="8.76586">
        <ele>799</ele>
        <time>2021-08-06T09:16:30.331Z</time>
      </trkpt>
      <trkpt lat="46.96806" lon="8.76585">
        <ele>799</ele>
        <time>2021-08-06T09:16:31.331Z</time>
      </trkpt>
      <trkpt lat="46.96805" lon="8.76583">
        <ele>799</ele>
        <time>2021-08-06T09:16:32.331Z</time>
      </trkpt>
      <trkpt lat="46.96805" lon="8.76582">
        <ele>799</ele>
        <time>2021-08-06T09:16:33.331Z</time>
      </trkpt>
      <trkpt lat="46.96805" lon="8.7658">
        <ele>799</ele>
        <time>2021-08-06T09:16:34.332Z</time>
      </trkpt>
      <trkpt lat="46.96805" lon="8.76579">
        <ele>799</ele>
        <time>2021-08-06T09:16:35.331Z</time>
      </trkpt>
      <trkpt lat="46.96805" lon="8.76578">
        <ele>799</ele>
        <time>2021-08-06T09:16:36.332Z</time>
      </trkpt>
      <trkpt lat="46.96805" lon="8.76577">
        <ele>799</ele>
        <time>2021-08-06T09:16:37.331Z</time>
      </trkpt>
      <trkpt lat="46.96805" lon="8.76575">
        <ele>798</ele>
        <time>2021-08-06T09:16:38.332Z</time>
      </trkpt>
      <trkpt lat="46.96806" lon="8.76574">
        <ele>798</ele>
        <time>2021-08-06T09:16:39.331Z</time>
      </trkpt>
      <trkpt lat="46.96805" lon="8.76573">
        <ele>798</ele>
        <time>2021-08-06T09:16:40.331Z</time>
      </trkpt>
      <trkpt lat="46.96805" lon="8.76572">
        <ele>799</ele>
        <time>2021-08-06T09:16:41.332Z</time>
      </trkpt>
      <trkpt lat="46.96805" lon="8.76571">
        <ele>798</ele>
        <time>2021-08-06T09:16:42.331Z</time>
      </trkpt>
      <trkpt lat="46.96805" lon="8.7657">
        <ele>798</ele>
        <time>2021-08-06T09:16:43.331Z</time>
      </trkpt>
      <trkpt lat="46.96806" lon="8.76568">
        <ele>798</ele>
        <time>2021-08-06T09:16:44.332Z</time>
      </trkpt>
      <trkpt lat="46.96805" lon="8.76567">
        <ele>798</ele>
        <time>2021-08-06T09:16:45.331Z</time>
      </trkpt>
      <trkpt lat="46.96805" lon="8.76566">
        <ele>798</ele>
        <time>2021-08-06T09:16:46.331Z</time>
      </trkpt>
      <trkpt lat="46.96805" lon="8.76564">
        <ele>798</ele>
        <time>2021-08-06T09:16:47.331Z</time>
      </trkpt>
      <trkpt lat="46.96805" lon="8.76563">
        <ele>797</ele>
        <time>2021-08-06T09:16:48.332Z</time>
      </trkpt>
      <trkpt lat="46.96805" lon="8.76561">
        <ele>797</ele>
        <time>2021-08-06T09:16:49.331Z</time>
      </trkpt>
      <trkpt lat="46.96805" lon="8.7656">
        <ele>797</ele>
        <time>2021-08-06T09:16:50.332Z</time>
      </trkpt>
      <trkpt lat="46.96805" lon="8.76558">
        <ele>797</ele>
        <time>2021-08-06T09:16:51.331Z</time>
      </trkpt>
      <trkpt lat="46.96806" lon="8.76557">
        <ele>796</ele>
        <time>2021-08-06T09:16:52.332Z</time>
      </trkpt>
      <trkpt lat="46.96805" lon="8.76556">
        <ele>796</ele>
        <time>2021-08-06T09:16:53.331Z</time>
      </trkpt>
      <trkpt lat="46.96805" lon="8.76555">
        <ele>796</ele>
        <time>2021-08-06T09:16:54.331Z</time>
      </trkpt>
      <trkpt lat="46.96805" lon="8.76553">
        <ele>796</ele>
        <time>2021-08-06T09:16:55.331Z</time>
      </trkpt>
      <trkpt lat="46.96804" lon="8.76552">
        <ele>796</ele>
        <time>2021-08-06T09:16:56.331Z</time>
      </trkpt>
      <trkpt lat="46.96804" lon="8.76551">
        <ele>797</ele>
        <time>2021-08-06T09:16:57.331Z</time>
      </trkpt>
      <trkpt lat="46.96803" lon="8.76549">
        <ele>797</ele>
        <time>2021-08-06T09:16:58.331Z</time>
      </trkpt>
      <trkpt lat="46.96803" lon="8.76548">
        <ele>797</ele>
        <time>2021-08-06T09:16:59.332Z</time>
      </trkpt>
      <trkpt lat="46.96802" lon="8.76547">
        <ele>797</ele>
        <time>2021-08-06T09:17:00.331Z</time>
      </trkpt>
      <trkpt lat="46.96802" lon="8.76545">
        <ele>798</ele>
        <time>2021-08-06T09:17:01.331Z</time>
      </trkpt>
      <trkpt lat="46.96802" lon="8.76543">
        <ele>798</ele>
        <time>2021-08-06T09:17:02.331Z</time>
      </trkpt>
      <trkpt lat="46.96802" lon="8.76542">
        <ele>798</ele>
        <time>2021-08-06T09:17:03.331Z</time>
      </trkpt>
      <trkpt lat="46.96802" lon="8.76541">
        <ele>799</ele>
        <time>2021-08-06T09:17:04.331Z</time>
      </trkpt>
      <trkpt lat="46.96801" lon="8.7654">
        <ele>799</ele>
        <time>2021-08-06T09:17:05.332Z</time>
      </trkpt>
      <trkpt lat="46.96801" lon="8.76539">
        <ele>799</ele>
        <time>2021-08-06T09:17:06.331Z</time>
      </trkpt>
      <trkpt lat="46.96801" lon="8.76538">
        <ele>799</ele>
        <time>2021-08-06T09:17:07.332Z</time>
      </trkpt>
      <trkpt lat="46.96801" lon="8.76537">
        <ele>799</ele>
        <time>2021-08-06T09:17:08.332Z</time>
      </trkpt>
      <trkpt lat="46.96801" lon="8.76535">
        <ele>799</ele>
        <time>2021-08-06T09:17:09.331Z</time>
      </trkpt>
      <trkpt lat="46.96801" lon="8.76534">
        <ele>799</ele>
        <time>2021-08-06T09:17:10.331Z</time>
      </trkpt>
      <trkpt lat="46.968" lon="8.76532">
        <ele>800</ele>
        <time>2021-08-06T09:17:11.331Z</time>
      </trkpt>
      <trkpt lat="46.968" lon="8.76531">
        <ele>800</ele>
        <time>2021-08-06T09:17:12.331Z</time>
      </trkpt>
      <trkpt lat="46.968" lon="8.7653">
        <ele>800</ele>
        <time>2021-08-06T09:17:13.331Z</time>
      </trkpt>
      <trkpt lat="46.968" lon="8.76529">
        <ele>800</ele>
        <time>2021-08-06T09:17:14.331Z</time>
      </trkpt>
      <trkpt lat="46.96799" lon="8.76527">
        <ele>800</ele>
        <time>2021-08-06T09:17:15.331Z</time>
      </trkpt>
      <trkpt lat="46.96799" lon="8.76527">
        <ele>800</ele>
        <time>2021-08-06T09:17:16.331Z</time>
      </trkpt>
      <trkpt lat="46.96799" lon="8.76525">
        <ele>801</ele>
        <time>2021-08-06T09:17:17.331Z</time>
      </trkpt>
      <trkpt lat="46.96798" lon="8.76524">
        <ele>802</ele>
        <time>2021-08-06T09:17:18.331Z</time>
      </trkpt>
      <trkpt lat="46.96798" lon="8.76523">
        <ele>802</ele>
        <time>2021-08-06T09:17:19.331Z</time>
      </trkpt>
      <trkpt lat="46.96798" lon="8.76522">
        <ele>803</ele>
        <time>2021-08-06T09:17:20.332Z</time>
      </trkpt>
      <trkpt lat="46.96798" lon="8.76521">
        <ele>804</ele>
        <time>2021-08-06T09:17:21.332Z</time>
      </trkpt>
      <trkpt lat="46.96798" lon="8.76519">
        <ele>805</ele>
        <time>2021-08-06T09:17:22.332Z</time>
      </trkpt>
      <trkpt lat="46.96798" lon="8.76517">
        <ele>805</ele>
        <time>2021-08-06T09:17:23.331Z</time>
      </trkpt>
      <trkpt lat="46.96798" lon="8.76516">
        <ele>806</ele>
        <time>2021-08-06T09:17:24.331Z</time>
      </trkpt>
      <trkpt lat="46.96798" lon="8.76515">
        <ele>806</ele>
        <time>2021-08-06T09:17:25.331Z</time>
      </trkpt>
      <trkpt lat="46.96798" lon="8.76514">
        <ele>806</ele>
        <time>2021-08-06T09:17:26.331Z</time>
      </trkpt>
      <trkpt lat="46.96798" lon="8.76513">
        <ele>807</ele>
        <time>2021-08-06T09:17:27.331Z</time>
      </trkpt>
      <trkpt lat="46.96798" lon="8.76511">
        <ele>806</ele>
        <time>2021-08-06T09:17:28.332Z</time>
      </trkpt>
      <trkpt lat="46.96799" lon="8.76509">
        <ele>806</ele>
        <time>2021-08-06T09:17:29.331Z</time>
      </trkpt>
      <trkpt lat="46.96799" lon="8.76508">
        <ele>806</ele>
        <time>2021-08-06T09:17:30.331Z</time>
      </trkpt>
      <trkpt lat="46.96799" lon="8.76507">
        <ele>806</ele>
        <time>2021-08-06T09:17:31.331Z</time>
      </trkpt>
      <trkpt lat="46.96798" lon="8.76506">
        <ele>806</ele>
        <time>2021-08-06T09:17:32.331Z</time>
      </trkpt>
      <trkpt lat="46.96798" lon="8.76505">
        <ele>806</ele>
        <time>2021-08-06T09:17:33.331Z</time>
      </trkpt>
      <trkpt lat="46.96798" lon="8.76503">
        <ele>806</ele>
        <time>2021-08-06T09:17:34.331Z</time>
      </trkpt>
      <trkpt lat="46.96798" lon="8.76502">
        <ele>806</ele>
        <time>2021-08-06T09:17:35.332Z</time>
      </trkpt>
      <trkpt lat="46.96798" lon="8.765">
        <ele>806</ele>
        <time>2021-08-06T09:17:36.331Z</time>
      </trkpt>
      <trkpt lat="46.96799" lon="8.76498">
        <ele>806</ele>
        <time>2021-08-06T09:17:37.332Z</time>
      </trkpt>
      <trkpt lat="46.96799" lon="8.76497">
        <ele>806</ele>
        <time>2021-08-06T09:17:38.331Z</time>
      </trkpt>
      <trkpt lat="46.96799" lon="8.76495">
        <ele>806</ele>
        <time>2021-08-06T09:17:39.331Z</time>
      </trkpt>
      <trkpt lat="46.96799" lon="8.76494">
        <ele>805</ele>
        <time>2021-08-06T09:17:40.331Z</time>
      </trkpt>
      <trkpt lat="46.96799" lon="8.76492">
        <ele>805</ele>
        <time>2021-08-06T09:17:41.331Z</time>
      </trkpt>
      <trkpt lat="46.96798" lon="8.76491">
        <ele>806</ele>
        <time>2021-08-06T09:17:42.331Z</time>
      </trkpt>
      <trkpt lat="46.96799" lon="8.7649">
        <ele>806</ele>
        <time>2021-08-06T09:17:43.331Z</time>
      </trkpt>
      <trkpt lat="46.96799" lon="8.76488">
        <ele>807</ele>
        <time>2021-08-06T09:17:44.331Z</time>
      </trkpt>
      <trkpt lat="46.96799" lon="8.76486">
        <ele>807</ele>
        <time>2021-08-06T09:17:45.331Z</time>
      </trkpt>
      <trkpt lat="46.96798" lon="8.76484">
        <ele>808</ele>
        <time>2021-08-06T09:17:46.332Z</time>
      </trkpt>
      <trkpt lat="46.96799" lon="8.76482">
        <ele>808</ele>
        <time>2021-08-06T09:17:47.331Z</time>
      </trkpt>
      <trkpt lat="46.968" lon="8.7648">
        <ele>807</ele>
        <time>2021-08-06T09:17:48.332Z</time>
      </trkpt>
      <trkpt lat="46.968" lon="8.76479">
        <ele>807</ele>
        <time>2021-08-06T09:17:49.331Z</time>
      </trkpt>
      <trkpt lat="46.96799" lon="8.76478">
        <ele>807</ele>
        <time>2021-08-06T09:17:50.332Z</time>
      </trkpt>
      <trkpt lat="46.96799" lon="8.76476">
        <ele>806</ele>
        <time>2021-08-06T09:17:51.331Z</time>
      </trkpt>
      <trkpt lat="46.968" lon="8.76474">
        <ele>805</ele>
        <time>2021-08-06T09:17:52.331Z</time>
      </trkpt>
      <trkpt lat="46.968" lon="8.76472">
        <ele>804</ele>
        <time>2021-08-06T09:17:53.331Z</time>
      </trkpt>
      <trkpt lat="46.968" lon="8.76471">
        <ele>804</ele>
        <time>2021-08-06T09:17:54.332Z</time>
      </trkpt>
      <trkpt lat="46.968" lon="8.76469">
        <ele>803</ele>
        <time>2021-08-06T09:17:55.331Z</time>
      </trkpt>
      <trkpt lat="46.968" lon="8.76467">
        <ele>803</ele>
        <time>2021-08-06T09:17:56.332Z</time>
      </trkpt>
      <trkpt lat="46.968" lon="8.76465">
        <ele>803</ele>
        <time>2021-08-06T09:17:57.332Z</time>
      </trkpt>
      <trkpt lat="46.96801" lon="8.76464">
        <ele>803</ele>
        <time>2021-08-06T09:17:58.331Z</time>
      </trkpt>
      <trkpt lat="46.96801" lon="8.76462">
        <ele>803</ele>
        <time>2021-08-06T09:17:59.331Z</time>
      </trkpt>
      <trkpt lat="46.96802" lon="8.76461">
        <ele>803</ele>
        <time>2021-08-06T09:18:00.332Z</time>
      </trkpt>
      <trkpt lat="46.96802" lon="8.7646">
        <ele>803</ele>
        <time>2021-08-06T09:18:01.331Z</time>
      </trkpt>
      <trkpt lat="46.96802" lon="8.76458">
        <ele>803</ele>
        <time>2021-08-06T09:18:02.332Z</time>
      </trkpt>
      <trkpt lat="46.96802" lon="8.76456">
        <ele>804</ele>
        <time>2021-08-06T09:18:03.331Z</time>
      </trkpt>
      <trkpt lat="46.96802" lon="8.76455">
        <ele>804</ele>
        <time>2021-08-06T09:18:04.331Z</time>
      </trkpt>
      <trkpt lat="46.96803" lon="8.76453">
        <ele>804</ele>
        <time>2021-08-06T09:18:05.332Z</time>
      </trkpt>
      <trkpt lat="46.96803" lon="8.76451">
        <ele>805</ele>
        <time>2021-08-06T09:18:06.331Z</time>
      </trkpt>
      <trkpt lat="46.96804" lon="8.7645">
        <ele>805</ele>
        <time>2021-08-06T09:18:07.331Z</time>
      </trkpt>
      <trkpt lat="46.96804" lon="8.76449">
        <ele>806</ele>
        <time>2021-08-06T09:18:08.331Z</time>
      </trkpt>
      <trkpt lat="46.96804" lon="8.76448">
        <ele>807</ele>
        <time>2021-08-06T09:18:09.332Z</time>
      </trkpt>
      <trkpt lat="46.96804" lon="8.76446">
        <ele>808</ele>
        <time>2021-08-06T09:18:10.331Z</time>
      </trkpt>
      <trkpt lat="46.96804" lon="8.76446">
        <ele>809</ele>
        <time>2021-08-06T09:18:11.331Z</time>
      </trkpt>
      <trkpt lat="46.96804" lon="8.76444">
        <ele>810</ele>
        <time>2021-08-06T09:18:12.331Z</time>
      </trkpt>
      <trkpt lat="46.96804" lon="8.76443">
        <ele>811</ele>
        <time>2021-08-06T09:18:13.331Z</time>
      </trkpt>
      <trkpt lat="46.96804" lon="8.76442">
        <ele>811</ele>
        <time>2021-08-06T09:18:14.331Z</time>
      </trkpt>
      <trkpt lat="46.96804" lon="8.76441">
        <ele>812</ele>
        <time>2021-08-06T09:18:15.331Z</time>
      </trkpt>
      <trkpt lat="46.96804" lon="8.76439">
        <ele>813</ele>
        <time>2021-08-06T09:18:16.332Z</time>
      </trkpt>
      <trkpt lat="46.96805" lon="8.76438">
        <ele>814</ele>
        <time>2021-08-06T09:18:17.332Z</time>
      </trkpt>
      <trkpt lat="46.96805" lon="8.76437">
        <ele>814</ele>
        <time>2021-08-06T09:18:18.331Z</time>
      </trkpt>
      <trkpt lat="46.96805" lon="8.76435">
        <ele>814</ele>
        <time>2021-08-06T09:18:19.331Z</time>
      </trkpt>
      <trkpt lat="46.96804" lon="8.76434">
        <ele>815</ele>
        <time>2021-08-06T09:18:20.332Z</time>
      </trkpt>
      <trkpt lat="46.96804" lon="8.76433">
        <ele>815</ele>
        <time>2021-08-06T09:18:21.331Z</time>
      </trkpt>
      <trkpt lat="46.96803" lon="8.76432">
        <ele>815</ele>
        <time>2021-08-06T09:18:22.332Z</time>
      </trkpt>
      <trkpt lat="46.96802" lon="8.7643">
        <ele>816</ele>
        <time>2021-08-06T09:18:23.331Z</time>
      </trkpt>
      <trkpt lat="46.96802" lon="8.76428">
        <ele>817</ele>
        <time>2021-08-06T09:18:24.331Z</time>
      </trkpt>
      <trkpt lat="46.96802" lon="8.76427">
        <ele>818</ele>
        <time>2021-08-06T09:18:25.332Z</time>
      </trkpt>
      <trkpt lat="46.96801" lon="8.76426">
        <ele>818</ele>
        <time>2021-08-06T09:18:26.331Z</time>
      </trkpt>
      <trkpt lat="46.96801" lon="8.76425">
        <ele>819</ele>
        <time>2021-08-06T09:18:27.332Z</time>
      </trkpt>
      <trkpt lat="46.96801" lon="8.76423">
        <ele>820</ele>
        <time>2021-08-06T09:18:28.332Z</time>
      </trkpt>
      <trkpt lat="46.96801" lon="8.76422">
        <ele>821</ele>
        <time>2021-08-06T09:18:29.332Z</time>
      </trkpt>
      <trkpt lat="46.968" lon="8.76421">
        <ele>822</ele>
        <time>2021-08-06T09:18:30.331Z</time>
      </trkpt>
      <trkpt lat="46.96799" lon="8.7642">
        <ele>822</ele>
        <time>2021-08-06T09:18:31.331Z</time>
      </trkpt>
      <trkpt lat="46.96798" lon="8.76419">
        <ele>823</ele>
        <time>2021-08-06T09:18:32.331Z</time>
      </trkpt>
      <trkpt lat="46.96798" lon="8.76418">
        <ele>823</ele>
        <time>2021-08-06T09:18:33.332Z</time>
      </trkpt>
      <trkpt lat="46.96796" lon="8.76419">
        <ele>823</ele>
        <time>2021-08-06T09:18:34.331Z</time>
      </trkpt>
      <trkpt lat="46.96795" lon="8.76419">
        <ele>824</ele>
        <time>2021-08-06T09:18:35.332Z</time>
      </trkpt>
      <trkpt lat="46.96794" lon="8.76418">
        <ele>824</ele>
        <time>2021-08-06T09:18:36.331Z</time>
      </trkpt>
      <trkpt lat="46.96793" lon="8.76418">
        <ele>824</ele>
        <time>2021-08-06T09:18:37.331Z</time>
      </trkpt>
      <trkpt lat="46.96792" lon="8.76418">
        <ele>824</ele>
        <time>2021-08-06T09:18:38.332Z</time>
      </trkpt>
      <trkpt lat="46.96792" lon="8.76417">
        <ele>824</ele>
        <time>2021-08-06T09:18:39.331Z</time>
      </trkpt>
      <trkpt lat="46.96791" lon="8.76417">
        <ele>824</ele>
        <time>2021-08-06T09:18:40.331Z</time>
      </trkpt>
      <trkpt lat="46.96791" lon="8.76417">
        <ele>825</ele>
        <time>2021-08-06T09:18:41.331Z</time>
      </trkpt>
      <trkpt lat="46.9679" lon="8.76417">
        <ele>826</ele>
        <time>2021-08-06T09:18:42.331Z</time>
      </trkpt>
      <trkpt lat="46.9679" lon="8.76418">
        <ele>826</ele>
        <time>2021-08-06T09:18:43.332Z</time>
      </trkpt>
      <trkpt lat="46.9679" lon="8.76419">
        <ele>826</ele>
        <time>2021-08-06T09:18:44.331Z</time>
      </trkpt>
      <trkpt lat="46.96789" lon="8.7642">
        <ele>826</ele>
        <time>2021-08-06T09:18:45.332Z</time>
      </trkpt>
      <trkpt lat="46.96788" lon="8.76421">
        <ele>826</ele>
        <time>2021-08-06T09:18:46.331Z</time>
      </trkpt>
      <trkpt lat="46.96788" lon="8.76422">
        <ele>825</ele>
        <time>2021-08-06T09:18:47.331Z</time>
      </trkpt>
      <trkpt lat="46.96787" lon="8.76423">
        <ele>825</ele>
        <time>2021-08-06T09:18:48.331Z</time>
      </trkpt>
      <trkpt lat="46.96787" lon="8.76424">
        <ele>825</ele>
        <time>2021-08-06T09:18:49.331Z</time>
      </trkpt>
      <trkpt lat="46.96786" lon="8.76425">
        <ele>825</ele>
        <time>2021-08-06T09:18:50.332Z</time>
      </trkpt>
      <trkpt lat="46.96786" lon="8.76426">
        <ele>825</ele>
        <time>2021-08-06T09:18:51.331Z</time>
      </trkpt>
      <trkpt lat="46.96786" lon="8.76428">
        <ele>825</ele>
        <time>2021-08-06T09:18:52.331Z</time>
      </trkpt>
      <trkpt lat="46.96786" lon="8.7643">
        <ele>825</ele>
        <time>2021-08-06T09:18:53.331Z</time>
      </trkpt>
      <trkpt lat="46.96787" lon="8.76431">
        <ele>825</ele>
        <time>2021-08-06T09:18:54.331Z</time>
      </trkpt>
      <trkpt lat="46.96787" lon="8.76432">
        <ele>825</ele>
        <time>2021-08-06T09:18:55.331Z</time>
      </trkpt>
      <trkpt lat="46.96788" lon="8.76433">
        <ele>825</ele>
        <time>2021-08-06T09:18:56.331Z</time>
      </trkpt>
      <trkpt lat="46.96789" lon="8.76435">
        <ele>825</ele>
        <time>2021-08-06T09:18:57.331Z</time>
      </trkpt>
      <trkpt lat="46.9679" lon="8.76437">
        <ele>825</ele>
        <time>2021-08-06T09:18:58.331Z</time>
      </trkpt>
      <trkpt lat="46.9679" lon="8.76439">
        <ele>825</ele>
        <time>2021-08-06T09:18:59.332Z</time>
      </trkpt>
      <trkpt lat="46.9679" lon="8.76441">
        <ele>825</ele>
        <time>2021-08-06T09:19:00.331Z</time>
      </trkpt>
      <trkpt lat="46.9679" lon="8.76443">
        <ele>825</ele>
        <time>2021-08-06T09:19:01.331Z</time>
      </trkpt>
      <trkpt lat="46.9679" lon="8.76444">
        <ele>826</ele>
        <time>2021-08-06T09:19:02.331Z</time>
      </trkpt>
      <trkpt lat="46.96791" lon="8.76446">
        <ele>826</ele>
        <time>2021-08-06T09:19:03.332Z</time>
      </trkpt>
      <trkpt lat="46.96792" lon="8.76448">
        <ele>826</ele>
        <time>2021-08-06T09:19:04.332Z</time>
      </trkpt>
      <trkpt lat="46.96792" lon="8.7645">
        <ele>826</ele>
        <time>2021-08-06T09:19:05.331Z</time>
      </trkpt>
      <trkpt lat="46.96792" lon="8.76452">
        <ele>826</ele>
        <time>2021-08-06T09:19:06.331Z</time>
      </trkpt>
      <trkpt lat="46.96792" lon="8.76453">
        <ele>826</ele>
        <time>2021-08-06T09:19:07.331Z</time>
      </trkpt>
      <trkpt lat="46.96791" lon="8.76455">
        <ele>826</ele>
        <time>2021-08-06T09:19:08.331Z</time>
      </trkpt>
      <trkpt lat="46.96791" lon="8.76457">
        <ele>827</ele>
        <time>2021-08-06T09:19:09.331Z</time>
      </trkpt>
      <trkpt lat="46.96791" lon="8.76459">
        <ele>827</ele>
        <time>2021-08-06T09:19:10.331Z</time>
      </trkpt>
      <trkpt lat="46.96791" lon="8.7646">
        <ele>827</ele>
        <time>2021-08-06T09:19:11.331Z</time>
      </trkpt>
      <trkpt lat="46.96791" lon="8.7646">
        <ele>827</ele>
        <time>2021-08-06T09:19:12.331Z</time>
      </trkpt>
      <trkpt lat="46.9679" lon="8.76461">
        <ele>827</ele>
        <time>2021-08-06T09:19:13.331Z</time>
      </trkpt>
      <trkpt lat="46.9679" lon="8.76463">
        <ele>827</ele>
        <time>2021-08-06T09:19:14.331Z</time>
      </trkpt>
      <trkpt lat="46.9679" lon="8.76464">
        <ele>827</ele>
        <time>2021-08-06T09:19:15.331Z</time>
      </trkpt>
      <trkpt lat="46.96791" lon="8.76466">
        <ele>826</ele>
        <time>2021-08-06T09:19:16.331Z</time>
      </trkpt>
      <trkpt lat="46.96792" lon="8.76467">
        <ele>826</ele>
        <time>2021-08-06T09:19:17.331Z</time>
      </trkpt>
      <trkpt lat="46.96792" lon="8.76468">
        <ele>826</ele>
        <time>2021-08-06T09:19:18.331Z</time>
      </trkpt>
      <trkpt lat="46.96792" lon="8.76469">
        <ele>826</ele>
        <time>2021-08-06T09:19:19.331Z</time>
      </trkpt>
      <trkpt lat="46.96792" lon="8.76472">
        <ele>826</ele>
        <time>2021-08-06T09:19:20.331Z</time>
      </trkpt>
      <trkpt lat="46.96791" lon="8.76473">
        <ele>826</ele>
        <time>2021-08-06T09:19:21.331Z</time>
      </trkpt>
      <trkpt lat="46.96791" lon="8.76474">
        <ele>826</ele>
        <time>2021-08-06T09:19:22.331Z</time>
      </trkpt>
      <trkpt lat="46.96791" lon="8.76475">
        <ele>826</ele>
        <time>2021-08-06T09:19:23.331Z</time>
      </trkpt>
      <trkpt lat="46.96792" lon="8.76476">
        <ele>826</ele>
        <time>2021-08-06T09:19:24.331Z</time>
      </trkpt>
      <trkpt lat="46.96792" lon="8.76478">
        <ele>826</ele>
        <time>2021-08-06T09:19:25.331Z</time>
      </trkpt>
      <trkpt lat="46.96791" lon="8.76479">
        <ele>826</ele>
        <time>2021-08-06T09:19:26.332Z</time>
      </trkpt>
      <trkpt lat="46.9679" lon="8.76481">
        <ele>826</ele>
        <time>2021-08-06T09:19:27.332Z</time>
      </trkpt>
      <trkpt lat="46.9679" lon="8.76482">
        <ele>825</ele>
        <time>2021-08-06T09:19:28.332Z</time>
      </trkpt>
      <trkpt lat="46.96789" lon="8.76483">
        <ele>825</ele>
        <time>2021-08-06T09:19:29.332Z</time>
      </trkpt>
      <trkpt lat="46.96789" lon="8.76484">
        <ele>825</ele>
        <time>2021-08-06T09:19:30.331Z</time>
      </trkpt>
      <trkpt lat="46.96788" lon="8.76485">
        <ele>824</ele>
        <time>2021-08-06T09:19:31.331Z</time>
      </trkpt>
      <trkpt lat="46.96787" lon="8.76486">
        <ele>824</ele>
        <time>2021-08-06T09:19:32.331Z</time>
      </trkpt>
      <trkpt lat="46.96787" lon="8.76487">
        <ele>824</ele>
        <time>2021-08-06T09:19:33.331Z</time>
      </trkpt>
      <trkpt lat="46.96787" lon="8.76489">
        <ele>823</ele>
        <time>2021-08-06T09:19:34.332Z</time>
      </trkpt>
      <trkpt lat="46.96786" lon="8.7649">
        <ele>823</ele>
        <time>2021-08-06T09:19:35.331Z</time>
      </trkpt>
      <trkpt lat="46.96785" lon="8.76492">
        <ele>822</ele>
        <time>2021-08-06T09:19:36.331Z</time>
      </trkpt>
      <trkpt lat="46.96784" lon="8.76493">
        <ele>822</ele>
        <time>2021-08-06T09:19:37.331Z</time>
      </trkpt>
      <trkpt lat="46.96784" lon="8.76494">
        <ele>821</ele>
        <time>2021-08-06T09:19:38.331Z</time>
      </trkpt>
      <trkpt lat="46.96783" lon="8.76495">
        <ele>821</ele>
        <time>2021-08-06T09:19:39.332Z</time>
      </trkpt>
      <trkpt lat="46.96782" lon="8.76497">
        <ele>821</ele>
        <time>2021-08-06T09:19:40.332Z</time>
      </trkpt>
      <trkpt lat="46.96781" lon="8.76498">
        <ele>821</ele>
        <time>2021-08-06T09:19:41.332Z</time>
      </trkpt>
      <trkpt lat="46.96781" lon="8.765">
        <ele>822</ele>
        <time>2021-08-06T09:19:42.331Z</time>
      </trkpt>
      <trkpt lat="46.96781" lon="8.76503">
        <ele>822</ele>
        <time>2021-08-06T09:19:43.331Z</time>
      </trkpt>
      <trkpt lat="46.9678" lon="8.76504">
        <ele>823</ele>
        <time>2021-08-06T09:19:44.331Z</time>
      </trkpt>
      <trkpt lat="46.9678" lon="8.76505">
        <ele>823</ele>
        <time>2021-08-06T09:19:45.331Z</time>
      </trkpt>
      <trkpt lat="46.96779" lon="8.76505">
        <ele>824</ele>
        <time>2021-08-06T09:19:46.331Z</time>
      </trkpt>
      <trkpt lat="46.96779" lon="8.76506">
        <ele>824</ele>
        <time>2021-08-06T09:19:47.332Z</time>
      </trkpt>
      <trkpt lat="46.96779" lon="8.76508">
        <ele>825</ele>
        <time>2021-08-06T09:19:48.331Z</time>
      </trkpt>
      <trkpt lat="46.96779" lon="8.76509">
        <ele>826</ele>
        <time>2021-08-06T09:19:49.332Z</time>
      </trkpt>
      <trkpt lat="46.96779" lon="8.7651">
        <ele>826</ele>
        <time>2021-08-06T09:19:50.331Z</time>
      </trkpt>
      <trkpt lat="46.96779" lon="8.76511">
        <ele>826</ele>
        <time>2021-08-06T09:19:51.332Z</time>
      </trkpt>
      <trkpt lat="46.9678" lon="8.76511">
        <ele>827</ele>
        <time>2021-08-06T09:19:52.331Z</time>
      </trkpt>
      <trkpt lat="46.9678" lon="8.76511">
        <ele>827</ele>
        <time>2021-08-06T09:19:53.331Z</time>
      </trkpt>
      <trkpt lat="46.96779" lon="8.76513">
        <ele>827</ele>
        <time>2021-08-06T09:19:54.331Z</time>
      </trkpt>
      <trkpt lat="46.96779" lon="8.76516">
        <ele>827</ele>
        <time>2021-08-06T09:19:55.331Z</time>
      </trkpt>
      <trkpt lat="46.9678" lon="8.76517">
        <ele>827</ele>
        <time>2021-08-06T09:19:56.331Z</time>
      </trkpt>
      <trkpt lat="46.9678" lon="8.76517">
        <ele>827</ele>
        <time>2021-08-06T09:19:57.331Z</time>
      </trkpt>
      <trkpt lat="46.96781" lon="8.76518">
        <ele>827</ele>
        <time>2021-08-06T09:19:58.331Z</time>
      </trkpt>
      <trkpt lat="46.96781" lon="8.76519">
        <ele>827</ele>
        <time>2021-08-06T09:19:59.332Z</time>
      </trkpt>
      <trkpt lat="46.96781" lon="8.76521">
        <ele>827</ele>
        <time>2021-08-06T09:20:00.331Z</time>
      </trkpt>
      <trkpt lat="46.96781" lon="8.76523">
        <ele>827</ele>
        <time>2021-08-06T09:20:01.332Z</time>
      </trkpt>
      <trkpt lat="46.96781" lon="8.76525">
        <ele>827</ele>
        <time>2021-08-06T09:20:02.331Z</time>
      </trkpt>
      <trkpt lat="46.96781" lon="8.76526">
        <ele>827</ele>
        <time>2021-08-06T09:20:03.332Z</time>
      </trkpt>
      <trkpt lat="46.96781" lon="8.76528">
        <ele>827</ele>
        <time>2021-08-06T09:20:04.331Z</time>
      </trkpt>
      <trkpt lat="46.96781" lon="8.76529">
        <ele>827</ele>
        <time>2021-08-06T09:20:05.331Z</time>
      </trkpt>
      <trkpt lat="46.96781" lon="8.76531">
        <ele>827</ele>
        <time>2021-08-06T09:20:06.331Z</time>
      </trkpt>
      <trkpt lat="46.96781" lon="8.76533">
        <ele>827</ele>
        <time>2021-08-06T09:20:07.331Z</time>
      </trkpt>
      <trkpt lat="46.96781" lon="8.76535">
        <ele>827</ele>
        <time>2021-08-06T09:20:08.331Z</time>
      </trkpt>
      <trkpt lat="46.96781" lon="8.76537">
        <ele>828</ele>
        <time>2021-08-06T09:20:09.331Z</time>
      </trkpt>
      <trkpt lat="46.9678" lon="8.76538">
        <ele>828</ele>
        <time>2021-08-06T09:20:10.331Z</time>
      </trkpt>
      <trkpt lat="46.9678" lon="8.76539">
        <ele>828</ele>
        <time>2021-08-06T09:20:11.332Z</time>
      </trkpt>
      <trkpt lat="46.9678" lon="8.76541">
        <ele>829</ele>
        <time>2021-08-06T09:20:12.332Z</time>
      </trkpt>
      <trkpt lat="46.96779" lon="8.76543">
        <ele>829</ele>
        <time>2021-08-06T09:20:13.331Z</time>
      </trkpt>
      <trkpt lat="46.96779" lon="8.76546">
        <ele>830</ele>
        <time>2021-08-06T09:20:14.331Z</time>
      </trkpt>
      <trkpt lat="46.96778" lon="8.76548">
        <ele>830</ele>
        <time>2021-08-06T09:20:15.331Z</time>
      </trkpt>
      <trkpt lat="46.96778" lon="8.7655">
        <ele>830</ele>
        <time>2021-08-06T09:20:16.331Z</time>
      </trkpt>
      <trkpt lat="46.96778" lon="8.76552">
        <ele>831</ele>
        <time>2021-08-06T09:20:17.331Z</time>
      </trkpt>
      <trkpt lat="46.9678" lon="8.76554">
        <ele>831</ele>
        <time>2021-08-06T09:20:18.331Z</time>
      </trkpt>
      <trkpt lat="46.96781" lon="8.76557">
        <ele>832</ele>
        <time>2021-08-06T09:20:19.332Z</time>
      </trkpt>
      <trkpt lat="46.96781" lon="8.76559">
        <ele>832</ele>
        <time>2021-08-06T09:20:20.331Z</time>
      </trkpt>
      <trkpt lat="46.9678" lon="8.76561">
        <ele>832</ele>
        <time>2021-08-06T09:20:21.331Z</time>
      </trkpt>
      <trkpt lat="46.9678" lon="8.76562">
        <ele>833</ele>
        <time>2021-08-06T09:20:22.331Z</time>
      </trkpt>
      <trkpt lat="46.9678" lon="8.76564">
        <ele>833</ele>
        <time>2021-08-06T09:20:23.331Z</time>
      </trkpt>
      <trkpt lat="46.96779" lon="8.76565">
        <ele>834</ele>
        <time>2021-08-06T09:20:24.332Z</time>
      </trkpt>
      <trkpt lat="46.96779" lon="8.76566">
        <ele>834</ele>
        <time>2021-08-06T09:20:25.331Z</time>
      </trkpt>
      <trkpt lat="46.96779" lon="8.76567">
        <ele>834</ele>
        <time>2021-08-06T09:20:26.331Z</time>
      </trkpt>
      <trkpt lat="46.96778" lon="8.76569">
        <ele>835</ele>
        <time>2021-08-06T09:20:27.332Z</time>
      </trkpt>
      <trkpt lat="46.96778" lon="8.7657">
        <ele>835</ele>
        <time>2021-08-06T09:20:28.331Z</time>
      </trkpt>
      <trkpt lat="46.96778" lon="8.76571">
        <ele>835</ele>
        <time>2021-08-06T09:20:29.332Z</time>
      </trkpt>
      <trkpt lat="46.96777" lon="8.76572">
        <ele>836</ele>
        <time>2021-08-06T09:20:30.332Z</time>
      </trkpt>
      <trkpt lat="46.96777" lon="8.76574">
        <ele>836</ele>
        <time>2021-08-06T09:20:31.331Z</time>
      </trkpt>
      <trkpt lat="46.96777" lon="8.76576">
        <ele>836</ele>
        <time>2021-08-06T09:20:32.332Z</time>
      </trkpt>
      <trkpt lat="46.96777" lon="8.76578">
        <ele>836</ele>
        <time>2021-08-06T09:20:33.331Z</time>
      </trkpt>
      <trkpt lat="46.96776" lon="8.76579">
        <ele>836</ele>
        <time>2021-08-06T09:20:34.331Z</time>
      </trkpt>
      <trkpt lat="46.96776" lon="8.7658">
        <ele>836</ele>
        <time>2021-08-06T09:20:35.331Z</time>
      </trkpt>
      <trkpt lat="46.96777" lon="8.76582">
        <ele>836</ele>
        <time>2021-08-06T09:20:36.331Z</time>
      </trkpt>
      <trkpt lat="46.96778" lon="8.76583">
        <ele>836</ele>
        <time>2021-08-06T09:20:37.331Z</time>
      </trkpt>
      <trkpt lat="46.96778" lon="8.76583">
        <ele>837</ele>
        <time>2021-08-06T09:20:38.331Z</time>
      </trkpt>
      <trkpt lat="46.96778" lon="8.76585">
        <ele>837</ele>
        <time>2021-08-06T09:20:39.331Z</time>
      </trkpt>
      <trkpt lat="46.96779" lon="8.76586">
        <ele>837</ele>
        <time>2021-08-06T09:20:40.332Z</time>
      </trkpt>
      <trkpt lat="46.96779" lon="8.76588">
        <ele>837</ele>
        <time>2021-08-06T09:20:41.331Z</time>
      </trkpt>
      <trkpt lat="46.96779" lon="8.76589">
        <ele>838</ele>
        <time>2021-08-06T09:20:42.331Z</time>
      </trkpt>
      <trkpt lat="46.96779" lon="8.7659">
        <ele>838</ele>
        <time>2021-08-06T09:20:43.331Z</time>
      </trkpt>
      <trkpt lat="46.96779" lon="8.76592">
        <ele>838</ele>
        <time>2021-08-06T09:20:44.331Z</time>
      </trkpt>
      <trkpt lat="46.96779" lon="8.76593">
        <ele>838</ele>
        <time>2021-08-06T09:20:45.331Z</time>
      </trkpt>
      <trkpt lat="46.96779" lon="8.76594">
        <ele>838</ele>
        <time>2021-08-06T09:20:46.331Z</time>
      </trkpt>
      <trkpt lat="46.96778" lon="8.76595">
        <ele>838</ele>
        <time>2021-08-06T09:20:47.332Z</time>
      </trkpt>
      <trkpt lat="46.96778" lon="8.76597">
        <ele>838</ele>
        <time>2021-08-06T09:20:48.331Z</time>
      </trkpt>
      <trkpt lat="46.96778" lon="8.76598">
        <ele>838</ele>
        <time>2021-08-06T09:20:49.331Z</time>
      </trkpt>
      <trkpt lat="46.96779" lon="8.766">
        <ele>839</ele>
        <time>2021-08-06T09:20:50.331Z</time>
      </trkpt>
      <trkpt lat="46.96779" lon="8.76601">
        <ele>839</ele>
        <time>2021-08-06T09:20:51.332Z</time>
      </trkpt>
      <trkpt lat="46.96779" lon="8.76603">
        <ele>839</ele>
        <time>2021-08-06T09:20:52.331Z</time>
      </trkpt>
      <trkpt lat="46.96779" lon="8.76605">
        <ele>839</ele>
        <time>2021-08-06T09:20:53.331Z</time>
      </trkpt>
      <trkpt lat="46.96779" lon="8.76606">
        <ele>839</ele>
        <time>2021-08-06T09:20:54.332Z</time>
      </trkpt>
      <trkpt lat="46.96779" lon="8.76607">
        <ele>839</ele>
        <time>2021-08-06T09:20:55.331Z</time>
      </trkpt>
      <trkpt lat="46.96779" lon="8.76607">
        <ele>839</ele>
        <time>2021-08-06T09:20:56.332Z</time>
      </trkpt>
      <trkpt lat="46.96778" lon="8.76608">
        <ele>839</ele>
        <time>2021-08-06T09:20:57.332Z</time>
      </trkpt>
      <trkpt lat="46.96778" lon="8.76609">
        <ele>839</ele>
        <time>2021-08-06T09:20:58.331Z</time>
      </trkpt>
      <trkpt lat="46.96777" lon="8.76611">
        <ele>839</ele>
        <time>2021-08-06T09:20:59.331Z</time>
      </trkpt>
      <trkpt lat="46.96777" lon="8.76612">
        <ele>839</ele>
        <time>2021-08-06T09:21:00.331Z</time>
      </trkpt>
      <trkpt lat="46.96776" lon="8.76614">
        <ele>839</ele>
        <time>2021-08-06T09:21:01.331Z</time>
      </trkpt>
      <trkpt lat="46.96776" lon="8.76616">
        <ele>839</ele>
        <time>2021-08-06T09:21:02.331Z</time>
      </trkpt>
      <trkpt lat="46.96776" lon="8.76618">
        <ele>839</ele>
        <time>2021-08-06T09:21:03.331Z</time>
      </trkpt>
      <trkpt lat="46.96776" lon="8.7662">
        <ele>839</ele>
        <time>2021-08-06T09:21:04.331Z</time>
      </trkpt>
      <trkpt lat="46.96776" lon="8.76621">
        <ele>839</ele>
        <time>2021-08-06T09:21:05.331Z</time>
      </trkpt>
      <trkpt lat="46.96775" lon="8.76623">
        <ele>838</ele>
        <time>2021-08-06T09:21:06.331Z</time>
      </trkpt>
      <trkpt lat="46.96775" lon="8.76624">
        <ele>838</ele>
        <time>2021-08-06T09:21:07.332Z</time>
      </trkpt>
      <trkpt lat="46.96775" lon="8.76625">
        <ele>838</ele>
        <time>2021-08-06T09:21:08.332Z</time>
      </trkpt>
      <trkpt lat="46.96775" lon="8.76626">
        <ele>838</ele>
        <time>2021-08-06T09:21:09.331Z</time>
      </trkpt>
      <trkpt lat="46.96775" lon="8.76627">
        <ele>838</ele>
        <time>2021-08-06T09:21:10.332Z</time>
      </trkpt>
      <trkpt lat="46.96775" lon="8.76628">
        <ele>838</ele>
        <time>2021-08-06T09:21:11.332Z</time>
      </trkpt>
      <trkpt lat="46.96774" lon="8.76629">
        <ele>839</ele>
        <time>2021-08-06T09:21:12.331Z</time>
      </trkpt>
      <trkpt lat="46.96774" lon="8.7663">
        <ele>839</ele>
        <time>2021-08-06T09:21:13.331Z</time>
      </trkpt>
      <trkpt lat="46.96773" lon="8.76631">
        <ele>839</ele>
        <time>2021-08-06T09:21:14.331Z</time>
      </trkpt>
      <trkpt lat="46.96772" lon="8.76632">
        <ele>839</ele>
        <time>2021-08-06T09:21:15.331Z</time>
      </trkpt>
      <trkpt lat="46.96772" lon="8.76634">
        <ele>840</ele>
        <time>2021-08-06T09:21:16.331Z</time>
      </trkpt>
      <trkpt lat="46.96771" lon="8.76634">
        <ele>840</ele>
        <time>2021-08-06T09:21:17.331Z</time>
      </trkpt>
      <trkpt lat="46.9677" lon="8.76636">
        <ele>840</ele>
        <time>2021-08-06T09:21:18.331Z</time>
      </trkpt>
      <trkpt lat="46.96768" lon="8.76638">
        <ele>840</ele>
        <time>2021-08-06T09:21:19.332Z</time>
      </trkpt>
      <trkpt lat="46.96768" lon="8.7664">
        <ele>840</ele>
        <time>2021-08-06T09:21:20.331Z</time>
      </trkpt>
      <trkpt lat="46.96768" lon="8.76641">
        <ele>840</ele>
        <time>2021-08-06T09:21:21.331Z</time>
      </trkpt>
      <trkpt lat="46.96768" lon="8.76642">
        <ele>840</ele>
        <time>2021-08-06T09:21:22.331Z</time>
      </trkpt>
      <trkpt lat="46.96768" lon="8.76642">
        <ele>840</ele>
        <time>2021-08-06T09:21:23.332Z</time>
      </trkpt>
      <trkpt lat="46.96767" lon="8.76644">
        <ele>840</ele>
        <time>2021-08-06T09:21:24.331Z</time>
      </trkpt>
      <trkpt lat="46.96766" lon="8.76645">
        <ele>841</ele>
        <time>2021-08-06T09:21:25.331Z</time>
      </trkpt>
      <trkpt lat="46.96765" lon="8.76646">
        <ele>841</ele>
        <time>2021-08-06T09:21:26.331Z</time>
      </trkpt>
      <trkpt lat="46.96765" lon="8.76648">
        <ele>841</ele>
        <time>2021-08-06T09:21:27.331Z</time>
      </trkpt>
      <trkpt lat="46.96764" lon="8.76649">
        <ele>841</ele>
        <time>2021-08-06T09:21:28.332Z</time>
      </trkpt>
      <trkpt lat="46.96763" lon="8.7665">
        <ele>842</ele>
        <time>2021-08-06T09:21:29.331Z</time>
      </trkpt>
      <trkpt lat="46.96763" lon="8.76652">
        <ele>842</ele>
        <time>2021-08-06T09:21:30.331Z</time>
      </trkpt>
      <trkpt lat="46.96763" lon="8.76653">
        <ele>842</ele>
        <time>2021-08-06T09:21:31.331Z</time>
      </trkpt>
      <trkpt lat="46.96763" lon="8.76654">
        <ele>843</ele>
        <time>2021-08-06T09:21:32.331Z</time>
      </trkpt>
      <trkpt lat="46.96764" lon="8.76655">
        <ele>843</ele>
        <time>2021-08-06T09:21:33.331Z</time>
      </trkpt>
      <trkpt lat="46.96764" lon="8.76656">
        <ele>844</ele>
        <time>2021-08-06T09:21:34.331Z</time>
      </trkpt>
      <trkpt lat="46.96764" lon="8.76657">
        <ele>844</ele>
        <time>2021-08-06T09:21:35.332Z</time>
      </trkpt>
      <trkpt lat="46.96764" lon="8.76658">
        <ele>844</ele>
        <time>2021-08-06T09:21:36.332Z</time>
      </trkpt>
      <trkpt lat="46.96765" lon="8.76659">
        <ele>845</ele>
        <time>2021-08-06T09:21:37.331Z</time>
      </trkpt>
      <trkpt lat="46.96766" lon="8.76661">
        <ele>845</ele>
        <time>2021-08-06T09:21:38.331Z</time>
      </trkpt>
      <trkpt lat="46.96767" lon="8.76662">
        <ele>845</ele>
        <time>2021-08-06T09:21:39.331Z</time>
      </trkpt>
      <trkpt lat="46.96767" lon="8.76663">
        <ele>846</ele>
        <time>2021-08-06T09:21:40.331Z</time>
      </trkpt>
      <trkpt lat="46.96768" lon="8.76664">
        <ele>846</ele>
        <time>2021-08-06T09:21:41.331Z</time>
      </trkpt>
      <trkpt lat="46.96768" lon="8.76665">
        <ele>846</ele>
        <time>2021-08-06T09:21:42.331Z</time>
      </trkpt>
      <trkpt lat="46.96769" lon="8.76666">
        <ele>846</ele>
        <time>2021-08-06T09:21:43.331Z</time>
      </trkpt>
      <trkpt lat="46.96769" lon="8.76667">
        <ele>845</ele>
        <time>2021-08-06T09:21:44.331Z</time>
      </trkpt>
      <trkpt lat="46.96769" lon="8.76669">
        <ele>845</ele>
        <time>2021-08-06T09:21:45.331Z</time>
      </trkpt>
      <trkpt lat="46.96769" lon="8.7667">
        <ele>845</ele>
        <time>2021-08-06T09:21:46.331Z</time>
      </trkpt>
      <trkpt lat="46.9677" lon="8.76672">
        <ele>844</ele>
        <time>2021-08-06T09:21:47.332Z</time>
      </trkpt>
      <trkpt lat="46.9677" lon="8.76673">
        <ele>844</ele>
        <time>2021-08-06T09:21:48.332Z</time>
      </trkpt>
      <trkpt lat="46.9677" lon="8.76674">
        <ele>844</ele>
        <time>2021-08-06T09:21:49.331Z</time>
      </trkpt>
      <trkpt lat="46.9677" lon="8.76675">
        <ele>843</ele>
        <time>2021-08-06T09:21:50.331Z</time>
      </trkpt>
      <trkpt lat="46.9677" lon="8.76676">
        <ele>843</ele>
        <time>2021-08-06T09:21:51.331Z</time>
      </trkpt>
      <trkpt lat="46.96769" lon="8.76677">
        <ele>843</ele>
        <time>2021-08-06T09:21:52.332Z</time>
      </trkpt>
      <trkpt lat="46.96769" lon="8.76678">
        <ele>842</ele>
        <time>2021-08-06T09:21:53.331Z</time>
      </trkpt>
      <trkpt lat="46.96769" lon="8.76678">
        <ele>842</ele>
        <time>2021-08-06T09:21:54.332Z</time>
      </trkpt>
      <trkpt lat="46.96769" lon="8.76679">
        <ele>842</ele>
        <time>2021-08-06T09:21:55.331Z</time>
      </trkpt>
      <trkpt lat="46.9677" lon="8.7668">
        <ele>841</ele>
        <time>2021-08-06T09:21:56.331Z</time>
      </trkpt>
      <trkpt lat="46.9677" lon="8.76681">
        <ele>841</ele>
        <time>2021-08-06T09:21:57.331Z</time>
      </trkpt>
      <trkpt lat="46.9677" lon="8.76683">
        <ele>841</ele>
        <time>2021-08-06T09:21:58.331Z</time>
      </trkpt>
      <trkpt lat="46.9677" lon="8.76685">
        <ele>841</ele>
        <time>2021-08-06T09:21:59.332Z</time>
      </trkpt>
      <trkpt lat="46.96771" lon="8.76686">
        <ele>841</ele>
        <time>2021-08-06T09:22:00.332Z</time>
      </trkpt>
      <trkpt lat="46.96772" lon="8.76688">
        <ele>840</ele>
        <time>2021-08-06T09:22:01.331Z</time>
      </trkpt>
      <trkpt lat="46.96773" lon="8.7669">
        <ele>840</ele>
        <time>2021-08-06T09:22:02.331Z</time>
      </trkpt>
      <trkpt lat="46.96773" lon="8.76691">
        <ele>840</ele>
        <time>2021-08-06T09:22:03.332Z</time>
      </trkpt>
      <trkpt lat="46.96773" lon="8.76692">
        <ele>840</ele>
        <time>2021-08-06T09:22:04.331Z</time>
      </trkpt>
      <trkpt lat="46.96771" lon="8.76693">
        <ele>840</ele>
        <time>2021-08-06T09:22:05.332Z</time>
      </trkpt>
      <trkpt lat="46.96772" lon="8.76695">
        <ele>840</ele>
        <time>2021-08-06T09:22:06.331Z</time>
      </trkpt>
      <trkpt lat="46.96772" lon="8.76696">
        <ele>840</ele>
        <time>2021-08-06T09:22:07.331Z</time>
      </trkpt>
      <trkpt lat="46.96772" lon="8.76698">
        <ele>840</ele>
        <time>2021-08-06T09:22:08.331Z</time>
      </trkpt>
      <trkpt lat="46.96772" lon="8.76699">
        <ele>840</ele>
        <time>2021-08-06T09:22:09.332Z</time>
      </trkpt>
      <trkpt lat="46.96773" lon="8.76699">
        <ele>840</ele>
        <time>2021-08-06T09:22:10.332Z</time>
      </trkpt>
      <trkpt lat="46.96773" lon="8.767">
        <ele>840</ele>
        <time>2021-08-06T09:22:11.331Z</time>
      </trkpt>
      <trkpt lat="46.96773" lon="8.76701">
        <ele>840</ele>
        <time>2021-08-06T09:22:12.332Z</time>
      </trkpt>
      <trkpt lat="46.96773" lon="8.76702">
        <ele>840</ele>
        <time>2021-08-06T09:22:13.331Z</time>
      </trkpt>
      <trkpt lat="46.96772" lon="8.76703">
        <ele>840</ele>
        <time>2021-08-06T09:22:14.332Z</time>
      </trkpt>
      <trkpt lat="46.96772" lon="8.76705">
        <ele>840</ele>
        <time>2021-08-06T09:22:15.332Z</time>
      </trkpt>
      <trkpt lat="46.96772" lon="8.76706">
        <ele>839</ele>
        <time>2021-08-06T09:22:16.332Z</time>
      </trkpt>
      <trkpt lat="46.96773" lon="8.76707">
        <ele>839</ele>
        <time>2021-08-06T09:22:17.331Z</time>
      </trkpt>
      <trkpt lat="46.96773" lon="8.76708">
        <ele>839</ele>
        <time>2021-08-06T09:22:18.331Z</time>
      </trkpt>
      <trkpt lat="46.96774" lon="8.76709">
        <ele>838</ele>
        <time>2021-08-06T09:22:19.331Z</time>
      </trkpt>
      <trkpt lat="46.96774" lon="8.76709">
        <ele>838</ele>
        <time>2021-08-06T09:22:20.332Z</time>
      </trkpt>
      <trkpt lat="46.96773" lon="8.76711">
        <ele>838</ele>
        <time>2021-08-06T09:22:21.331Z</time>
      </trkpt>
      <trkpt lat="46.96772" lon="8.76712">
        <ele>838</ele>
        <time>2021-08-06T09:22:22.331Z</time>
      </trkpt>
      <trkpt lat="46.96772" lon="8.76713">
        <ele>837</ele>
        <time>2021-08-06T09:22:23.331Z</time>
      </trkpt>
      <trkpt lat="46.96772" lon="8.76716">
        <ele>837</ele>
        <time>2021-08-06T09:22:24.331Z</time>
      </trkpt>
      <trkpt lat="46.96773" lon="8.76717">
        <ele>837</ele>
        <time>2021-08-06T09:22:25.332Z</time>
      </trkpt>
      <trkpt lat="46.96773" lon="8.76719">
        <ele>837</ele>
        <time>2021-08-06T09:22:26.331Z</time>
      </trkpt>
      <trkpt lat="46.96774" lon="8.7672">
        <ele>837</ele>
        <time>2021-08-06T09:22:27.331Z</time>
      </trkpt>
      <trkpt lat="46.96774" lon="8.76721">
        <ele>836</ele>
        <time>2021-08-06T09:22:28.332Z</time>
      </trkpt>
      <trkpt lat="46.96774" lon="8.76722">
        <ele>836</ele>
        <time>2021-08-06T09:22:29.331Z</time>
      </trkpt>
      <trkpt lat="46.96773" lon="8.76723">
        <ele>836</ele>
        <time>2021-08-06T09:22:30.331Z</time>
      </trkpt>
      <trkpt lat="46.96773" lon="8.76725">
        <ele>836</ele>
        <time>2021-08-06T09:22:31.332Z</time>
      </trkpt>
      <trkpt lat="46.96773" lon="8.76726">
        <ele>836</ele>
        <time>2021-08-06T09:22:32.331Z</time>
      </trkpt>
      <trkpt lat="46.96773" lon="8.76727">
        <ele>836</ele>
        <time>2021-08-06T09:22:33.331Z</time>
      </trkpt>
      <trkpt lat="46.96773" lon="8.76727">
        <ele>836</ele>
        <time>2021-08-06T09:22:34.332Z</time>
      </trkpt>
      <trkpt lat="46.96773" lon="8.76728">
        <ele>836</ele>
        <time>2021-08-06T09:22:35.332Z</time>
      </trkpt>
      <trkpt lat="46.96773" lon="8.76729">
        <ele>836</ele>
        <time>2021-08-06T09:22:36.331Z</time>
      </trkpt>
      <trkpt lat="46.96773" lon="8.7673">
        <ele>835</ele>
        <time>2021-08-06T09:22:37.331Z</time>
      </trkpt>
      <trkpt lat="46.96772" lon="8.76731">
        <ele>835</ele>
        <time>2021-08-06T09:22:38.331Z</time>
      </trkpt>
      <trkpt lat="46.96772" lon="8.76733">
        <ele>835</ele>
        <time>2021-08-06T09:22:39.332Z</time>
      </trkpt>
      <trkpt lat="46.96772" lon="8.76733">
        <ele>835</ele>
        <time>2021-08-06T09:22:40.331Z</time>
      </trkpt>
      <trkpt lat="46.96773" lon="8.76735">
        <ele>835</ele>
        <time>2021-08-06T09:22:41.332Z</time>
      </trkpt>
      <trkpt lat="46.96772" lon="8.76736">
        <ele>835</ele>
        <time>2021-08-06T09:22:42.331Z</time>
      </trkpt>
      <trkpt lat="46.9677" lon="8.76737">
        <ele>835</ele>
        <time>2021-08-06T09:22:43.331Z</time>
      </trkpt>
      <trkpt lat="46.9677" lon="8.76739">
        <ele>835</ele>
        <time>2021-08-06T09:22:44.331Z</time>
      </trkpt>
      <trkpt lat="46.96769" lon="8.76741">
        <ele>835</ele>
        <time>2021-08-06T09:22:45.331Z</time>
      </trkpt>
      <trkpt lat="46.96768" lon="8.76742">
        <ele>836</ele>
        <time>2021-08-06T09:22:46.331Z</time>
      </trkpt>
      <trkpt lat="46.96768" lon="8.76742">
        <ele>836</ele>
        <time>2021-08-06T09:22:47.331Z</time>
      </trkpt>
      <trkpt lat="46.96768" lon="8.76743">
        <ele>836</ele>
        <time>2021-08-06T09:22:48.331Z</time>
      </trkpt>
      <trkpt lat="46.96768" lon="8.76744">
        <ele>836</ele>
        <time>2021-08-06T09:22:49.332Z</time>
      </trkpt>
      <trkpt lat="46.96768" lon="8.76746">
        <ele>836</ele>
        <time>2021-08-06T09:22:50.332Z</time>
      </trkpt>
      <trkpt lat="46.96767" lon="8.76747">
        <ele>836</ele>
        <time>2021-08-06T09:22:51.331Z</time>
      </trkpt>
      <trkpt lat="46.96767" lon="8.76748">
        <ele>836</ele>
        <time>2021-08-06T09:22:52.331Z</time>
      </trkpt>
      <trkpt lat="46.96766" lon="8.76749">
        <ele>836</ele>
        <time>2021-08-06T09:22:53.331Z</time>
      </trkpt>
      <trkpt lat="46.96766" lon="8.76751">
        <ele>836</ele>
        <time>2021-08-06T09:22:54.331Z</time>
      </trkpt>
      <trkpt lat="46.96765" lon="8.76752">
        <ele>836</ele>
        <time>2021-08-06T09:22:55.332Z</time>
      </trkpt>
      <trkpt lat="46.96764" lon="8.76753">
        <ele>837</ele>
        <time>2021-08-06T09:22:56.331Z</time>
      </trkpt>
      <trkpt lat="46.96764" lon="8.76755">
        <ele>837</ele>
        <time>2021-08-06T09:22:57.331Z</time>
      </trkpt>
      <trkpt lat="46.96763" lon="8.76756">
        <ele>837</ele>
        <time>2021-08-06T09:22:58.332Z</time>
      </trkpt>
      <trkpt lat="46.96763" lon="8.76757">
        <ele>837</ele>
        <time>2021-08-06T09:22:59.331Z</time>
      </trkpt>
      <trkpt lat="46.96763" lon="8.76758">
        <ele>838</ele>
        <time>2021-08-06T09:23:00.332Z</time>
      </trkpt>
      <trkpt lat="46.96762" lon="8.7676">
        <ele>838</ele>
        <time>2021-08-06T09:23:01.331Z</time>
      </trkpt>
      <trkpt lat="46.96761" lon="8.76762">
        <ele>838</ele>
        <time>2021-08-06T09:23:02.332Z</time>
      </trkpt>
      <trkpt lat="46.9676" lon="8.76763">
        <ele>839</ele>
        <time>2021-08-06T09:23:03.332Z</time>
      </trkpt>
      <trkpt lat="46.96761" lon="8.76765">
        <ele>839</ele>
        <time>2021-08-06T09:23:04.331Z</time>
      </trkpt>
      <trkpt lat="46.96761" lon="8.76767">
        <ele>839</ele>
        <time>2021-08-06T09:23:05.332Z</time>
      </trkpt>
      <trkpt lat="46.96761" lon="8.76768">
        <ele>839</ele>
        <time>2021-08-06T09:23:06.331Z</time>
      </trkpt>
      <trkpt lat="46.96761" lon="8.76769">
        <ele>840</ele>
        <time>2021-08-06T09:23:07.331Z</time>
      </trkpt>
      <trkpt lat="46.96761" lon="8.7677">
        <ele>840</ele>
        <time>2021-08-06T09:23:08.331Z</time>
      </trkpt>
      <trkpt lat="46.96761" lon="8.76772">
        <ele>840</ele>
        <time>2021-08-06T09:23:09.331Z</time>
      </trkpt>
      <trkpt lat="46.96761" lon="8.76773">
        <ele>841</ele>
        <time>2021-08-06T09:23:10.331Z</time>
      </trkpt>
      <trkpt lat="46.9676" lon="8.76774">
        <ele>841</ele>
        <time>2021-08-06T09:23:11.332Z</time>
      </trkpt>
      <trkpt lat="46.96761" lon="8.76774">
        <ele>841</ele>
        <time>2021-08-06T09:23:12.331Z</time>
      </trkpt>
      <trkpt lat="46.96761" lon="8.76775">
        <ele>842</ele>
        <time>2021-08-06T09:23:13.332Z</time>
      </trkpt>
      <trkpt lat="46.96762" lon="8.76777">
        <ele>842</ele>
        <time>2021-08-06T09:23:14.331Z</time>
      </trkpt>
      <trkpt lat="46.96763" lon="8.76778">
        <ele>842</ele>
        <time>2021-08-06T09:23:15.331Z</time>
      </trkpt>
      <trkpt lat="46.96763" lon="8.7678">
        <ele>843</ele>
        <time>2021-08-06T09:23:16.331Z</time>
      </trkpt>
      <trkpt lat="46.96764" lon="8.76781">
        <ele>843</ele>
        <time>2021-08-06T09:23:17.332Z</time>
      </trkpt>
      <trkpt lat="46.96764" lon="8.76783">
        <ele>843</ele>
        <time>2021-08-06T09:23:18.331Z</time>
      </trkpt>
      <trkpt lat="46.96763" lon="8.76785">
        <ele>843</ele>
        <time>2021-08-06T09:23:19.332Z</time>
      </trkpt>
      <trkpt lat="46.96763" lon="8.76786">
        <ele>843</ele>
        <time>2021-08-06T09:23:20.331Z</time>
      </trkpt>
      <trkpt lat="46.96763" lon="8.76787">
        <ele>843</ele>
        <time>2021-08-06T09:23:21.331Z</time>
      </trkpt>
      <trkpt lat="46.96763" lon="8.76788">
        <ele>843</ele>
        <time>2021-08-06T09:23:22.331Z</time>
      </trkpt>
      <trkpt lat="46.96762" lon="8.76788">
        <ele>843</ele>
        <time>2021-08-06T09:23:23.331Z</time>
      </trkpt>
      <trkpt lat="46.96761" lon="8.76789">
        <ele>843</ele>
        <time>2021-08-06T09:23:24.332Z</time>
      </trkpt>
      <trkpt lat="46.96761" lon="8.7679">
        <ele>843</ele>
        <time>2021-08-06T09:23:25.332Z</time>
      </trkpt>
      <trkpt lat="46.96761" lon="8.76792">
        <ele>843</ele>
        <time>2021-08-06T09:23:26.332Z</time>
      </trkpt>
      <trkpt lat="46.96761" lon="8.76793">
        <ele>843</ele>
        <time>2021-08-06T09:23:27.331Z</time>
      </trkpt>
      <trkpt lat="46.96761" lon="8.76795">
        <ele>844</ele>
        <time>2021-08-06T09:23:28.332Z</time>
      </trkpt>
      <trkpt lat="46.96761" lon="8.76797">
        <ele>844</ele>
        <time>2021-08-06T09:23:29.332Z</time>
      </trkpt>
      <trkpt lat="46.96761" lon="8.768">
        <ele>844</ele>
        <time>2021-08-06T09:23:30.331Z</time>
      </trkpt>
      <trkpt lat="46.9676" lon="8.76801">
        <ele>844</ele>
        <time>2021-08-06T09:23:31.331Z</time>
      </trkpt>
      <trkpt lat="46.9676" lon="8.76802">
        <ele>844</ele>
        <time>2021-08-06T09:23:32.331Z</time>
      </trkpt>
      <trkpt lat="46.9676" lon="8.76804">
        <ele>845</ele>
        <time>2021-08-06T09:23:33.332Z</time>
      </trkpt>
      <trkpt lat="46.9676" lon="8.76805">
        <ele>845</ele>
        <time>2021-08-06T09:23:34.332Z</time>
      </trkpt>
      <trkpt lat="46.96759" lon="8.76806">
        <ele>846</ele>
        <time>2021-08-06T09:23:35.331Z</time>
      </trkpt>
      <trkpt lat="46.96758" lon="8.76808">
        <ele>847</ele>
        <time>2021-08-06T09:23:36.331Z</time>
      </trkpt>
      <trkpt lat="46.96758" lon="8.76809">
        <ele>847</ele>
        <time>2021-08-06T09:23:37.331Z</time>
      </trkpt>
      <trkpt lat="46.96757" lon="8.76811">
        <ele>848</ele>
        <time>2021-08-06T09:23:38.331Z</time>
      </trkpt>
      <trkpt lat="46.96757" lon="8.76813">
        <ele>849</ele>
        <time>2021-08-06T09:23:39.331Z</time>
      </trkpt>
      <trkpt lat="46.96757" lon="8.76813">
        <ele>849</ele>
        <time>2021-08-06T09:23:40.331Z</time>
      </trkpt>
      <trkpt lat="46.96756" lon="8.76813">
        <ele>850</ele>
        <time>2021-08-06T09:23:41.331Z</time>
      </trkpt>
      <trkpt lat="46.96756" lon="8.76812">
        <ele>850</ele>
        <time>2021-08-06T09:23:42.332Z</time>
      </trkpt>
      <trkpt lat="46.96756" lon="8.76812">
        <ele>850</ele>
        <time>2021-08-06T09:23:43.331Z</time>
      </trkpt>
      <trkpt lat="46.96757" lon="8.76811">
        <ele>850</ele>
        <time>2021-08-06T09:23:44.332Z</time>
      </trkpt>
      <trkpt lat="46.96757" lon="8.7681">
        <ele>850</ele>
        <time>2021-08-06T09:23:45.331Z</time>
      </trkpt>
      <trkpt lat="46.96757" lon="8.7681">
        <ele>850</ele>
        <time>2021-08-06T09:23:46.332Z</time>
      </trkpt>
      <trkpt lat="46.96756" lon="8.76809">
        <ele>849</ele>
        <time>2021-08-06T09:23:47.332Z</time>
      </trkpt>
      <trkpt lat="46.96756" lon="8.76809">
        <ele>849</ele>
        <time>2021-08-06T09:23:48.332Z</time>
      </trkpt>
      <trkpt lat="46.96757" lon="8.76809">
        <ele>849</ele>
        <time>2021-08-06T09:23:49.331Z</time>
      </trkpt>
      <trkpt lat="46.96758" lon="8.76808">
        <ele>848</ele>
        <time>2021-08-06T09:23:50.331Z</time>
      </trkpt>
      <trkpt lat="46.96758" lon="8.76808">
        <ele>848</ele>
        <time>2021-08-06T09:23:51.331Z</time>
      </trkpt>
      <trkpt lat="46.96758" lon="8.76808">
        <ele>848</ele>
        <time>2021-08-06T09:23:52.331Z</time>
      </trkpt>
      <trkpt lat="46.96759" lon="8.76807">
        <ele>848</ele>
        <time>2021-08-06T09:23:53.331Z</time>
      </trkpt>
      <trkpt lat="46.96759" lon="8.76807">
        <ele>848</ele>
        <time>2021-08-06T09:23:54.331Z</time>
      </trkpt>
      <trkpt lat="46.96759" lon="8.76807">
        <ele>847</ele>
        <time>2021-08-06T09:23:55.331Z</time>
      </trkpt>
      <trkpt lat="46.96759" lon="8.76806">
        <ele>847</ele>
        <time>2021-08-06T09:23:56.331Z</time>
      </trkpt>
      <trkpt lat="46.9676" lon="8.76806">
        <ele>847</ele>
        <time>2021-08-06T09:23:57.331Z</time>
      </trkpt>
      <trkpt lat="46.9676" lon="8.76806">
        <ele>847</ele>
        <time>2021-08-06T09:23:58.331Z</time>
      </trkpt>
      <trkpt lat="46.9676" lon="8.76805">
        <ele>847</ele>
        <time>2021-08-06T09:23:59.331Z</time>
      </trkpt>
      <trkpt lat="46.96761" lon="8.76805">
        <ele>847</ele>
        <time>2021-08-06T09:24:00.331Z</time>
      </trkpt>
      <trkpt lat="46.96761" lon="8.76804">
        <ele>847</ele>
        <time>2021-08-06T09:24:01.331Z</time>
      </trkpt>
      <trkpt lat="46.96762" lon="8.76803">
        <ele>847</ele>
        <time>2021-08-06T09:24:02.331Z</time>
      </trkpt>
      <trkpt lat="46.96762" lon="8.76802">
        <ele>848</ele>
        <time>2021-08-06T09:24:03.331Z</time>
      </trkpt>
      <trkpt lat="46.96761" lon="8.76802">
        <ele>847</ele>
        <time>2021-08-06T09:24:04.331Z</time>
      </trkpt>
      <trkpt lat="46.9676" lon="8.76801">
        <ele>847</ele>
        <time>2021-08-06T09:24:05.331Z</time>
      </trkpt>
      <trkpt lat="46.96759" lon="8.76801">
        <ele>847</ele>
        <time>2021-08-06T09:24:06.332Z</time>
      </trkpt>
      <trkpt lat="46.96759" lon="8.768">
        <ele>847</ele>
        <time>2021-08-06T09:24:07.332Z</time>
      </trkpt>
      <trkpt lat="46.96759" lon="8.768">
        <ele>847</ele>
        <time>2021-08-06T09:24:08.331Z</time>
      </trkpt>
      <trkpt lat="46.9676" lon="8.768">
        <ele>847</ele>
        <time>2021-08-06T09:24:09.332Z</time>
      </trkpt>
      <trkpt lat="46.9676" lon="8.76799">
        <ele>846</ele>
        <time>2021-08-06T09:24:10.332Z</time>
      </trkpt>
      <trkpt lat="46.96759" lon="8.76798">
        <ele>846</ele>
        <time>2021-08-06T09:24:11.331Z</time>
      </trkpt>
      <trkpt lat="46.96759" lon="8.76798">
        <ele>846</ele>
        <time>2021-08-06T09:24:12.331Z</time>
      </trkpt>
      <trkpt lat="46.96759" lon="8.76797">
        <ele>846</ele>
        <time>2021-08-06T09:24:13.331Z</time>
      </trkpt>
      <trkpt lat="46.96758" lon="8.76797">
        <ele>845</ele>
        <time>2021-08-06T09:24:14.332Z</time>
      </trkpt>
      <trkpt lat="46.96757" lon="8.76797">
        <ele>845</ele>
        <time>2021-08-06T09:24:15.331Z</time>
      </trkpt>
      <trkpt lat="46.96757" lon="8.76798">
        <ele>846</ele>
        <time>2021-08-06T09:24:16.331Z</time>
      </trkpt>
      <trkpt lat="46.96757" lon="8.76798">
        <ele>846</ele>
        <time>2021-08-06T09:24:17.331Z</time>
      </trkpt>
      <trkpt lat="46.96757" lon="8.76799">
        <ele>846</ele>
        <time>2021-08-06T09:24:18.332Z</time>
      </trkpt>
      <trkpt lat="46.96757" lon="8.76799">
        <ele>846</ele>
        <time>2021-08-06T09:24:19.332Z</time>
      </trkpt>
      <trkpt lat="46.96756" lon="8.76798">
        <ele>846</ele>
        <time>2021-08-06T09:24:20.331Z</time>
      </trkpt>
      <trkpt lat="46.96756" lon="8.76797">
        <ele>846</ele>
        <time>2021-08-06T09:24:21.331Z</time>
      </trkpt>
      <trkpt lat="46.96756" lon="8.76796">
        <ele>847</ele>
        <time>2021-08-06T09:24:22.331Z</time>
      </trkpt>
      <trkpt lat="46.96756" lon="8.76796">
        <ele>847</ele>
        <time>2021-08-06T09:24:23.332Z</time>
      </trkpt>
      <trkpt lat="46.96756" lon="8.76795">
        <ele>848</ele>
        <time>2021-08-06T09:24:24.331Z</time>
      </trkpt>
      <trkpt lat="46.96756" lon="8.76792">
        <ele>849</ele>
        <time>2021-08-06T09:24:25.332Z</time>
      </trkpt>
      <trkpt lat="46.96755" lon="8.76792">
        <ele>850</ele>
        <time>2021-08-06T09:24:26.332Z</time>
      </trkpt>
      <trkpt lat="46.96755" lon="8.76791">
        <ele>850</ele>
        <time>2021-08-06T09:24:27.332Z</time>
      </trkpt>
      <trkpt lat="46.96755" lon="8.76789">
        <ele>850</ele>
        <time>2021-08-06T09:24:28.332Z</time>
      </trkpt>
      <trkpt lat="46.96755" lon="8.76788">
        <ele>850</ele>
        <time>2021-08-06T09:24:29.332Z</time>
      </trkpt>
      <trkpt lat="46.96755" lon="8.76787">
        <ele>850</ele>
        <time>2021-08-06T09:24:30.332Z</time>
      </trkpt>
      <trkpt lat="46.96755" lon="8.76787">
        <ele>850</ele>
        <time>2021-08-06T09:24:31.332Z</time>
      </trkpt>
      <trkpt lat="46.96754" lon="8.76786">
        <ele>850</ele>
        <time>2021-08-06T09:24:32.332Z</time>
      </trkpt>
      <trkpt lat="46.96754" lon="8.76785">
        <ele>850</ele>
        <time>2021-08-06T09:24:33.332Z</time>
      </trkpt>
      <trkpt lat="46.96755" lon="8.76785">
        <ele>851</ele>
        <time>2021-08-06T09:24:34.332Z</time>
      </trkpt>
      <trkpt lat="46.96756" lon="8.76784">
        <ele>852</ele>
        <time>2021-08-06T09:24:35.332Z</time>
      </trkpt>
      <trkpt lat="46.96756" lon="8.76783">
        <ele>852</ele>
        <time>2021-08-06T09:24:36.332Z</time>
      </trkpt>
      <trkpt lat="46.96757" lon="8.76782">
        <ele>853</ele>
        <time>2021-08-06T09:24:37.332Z</time>
      </trkpt>
      <trkpt lat="46.96756" lon="8.76781">
        <ele>854</ele>
        <time>2021-08-06T09:24:38.332Z</time>
      </trkpt>
      <trkpt lat="46.96756" lon="8.76781">
        <ele>855</ele>
        <time>2021-08-06T09:24:39.332Z</time>
      </trkpt>
      <trkpt lat="46.96756" lon="8.7678">
        <ele>855</ele>
        <time>2021-08-06T09:24:40.332Z</time>
      </trkpt>
      <trkpt lat="46.96757" lon="8.76779">
        <ele>856</ele>
        <time>2021-08-06T09:24:41.332Z</time>
      </trkpt>
      <trkpt lat="46.96757" lon="8.76779">
        <ele>857</ele>
        <time>2021-08-06T09:24:42.332Z</time>
      </trkpt>
      <trkpt lat="46.96758" lon="8.76778">
        <ele>857</ele>
        <time>2021-08-06T09:24:43.332Z</time>
      </trkpt>
      <trkpt lat="46.96758" lon="8.76777">
        <ele>858</ele>
        <time>2021-08-06T09:24:44.332Z</time>
      </trkpt>
      <trkpt lat="46.96759" lon="8.76776">
        <ele>859</ele>
        <time>2021-08-06T09:24:45.332Z</time>
      </trkpt>
      <trkpt lat="46.96759" lon="8.76775">
        <ele>860</ele>
        <time>2021-08-06T09:24:46.332Z</time>
      </trkpt>
      <trkpt lat="46.96759" lon="8.76774">
        <ele>861</ele>
        <time>2021-08-06T09:24:47.332Z</time>
      </trkpt>
      <trkpt lat="46.96759" lon="8.76774">
        <ele>862</ele>
        <time>2021-08-06T09:24:48.332Z</time>
      </trkpt>
      <trkpt lat="46.96758" lon="8.76774">
        <ele>863</ele>
        <time>2021-08-06T09:24:49.332Z</time>
      </trkpt>
      <trkpt lat="46.96758" lon="8.76774">
        <ele>863</ele>
        <time>2021-08-06T09:24:50.332Z</time>
      </trkpt>
      <trkpt lat="46.96758" lon="8.76773">
        <ele>863</ele>
        <time>2021-08-06T09:24:51.332Z</time>
      </trkpt>
      <trkpt lat="46.96758" lon="8.76773">
        <ele>863</ele>
        <time>2021-08-06T09:24:52.332Z</time>
      </trkpt>
      <trkpt lat="46.96757" lon="8.76772">
        <ele>864</ele>
        <time>2021-08-06T09:24:53.332Z</time>
      </trkpt>
      <trkpt lat="46.96756" lon="8.76765">
        <ele>865</ele>
        <time>2021-08-06T09:24:54.333Z</time>
      </trkpt>
      <trkpt lat="46.96756" lon="8.76765">
        <ele>865</ele>
        <time>2021-08-06T09:24:55.333Z</time>
      </trkpt>
      <trkpt lat="46.96756" lon="8.76765">
        <ele>865</ele>
        <time>2021-08-06T09:24:56.332Z</time>
      </trkpt>
      <trkpt lat="46.96755" lon="8.76764">
        <ele>865</ele>
        <time>2021-08-06T09:24:57.333Z</time>
      </trkpt>
      <trkpt lat="46.96753" lon="8.76764">
        <ele>864</ele>
        <time>2021-08-06T09:24:58.333Z</time>
      </trkpt>
      <trkpt lat="46.96753" lon="8.76765">
        <ele>864</ele>
        <time>2021-08-06T09:24:59.333Z</time>
      </trkpt>
      <trkpt lat="46.96754" lon="8.76769">
        <ele>865</ele>
        <time>2021-08-06T09:25:00.334Z</time>
      </trkpt>
      <trkpt lat="46.96754" lon="8.7677">
        <ele>865</ele>
        <time>2021-08-06T09:25:01.333Z</time>
      </trkpt>
      <trkpt lat="46.96754" lon="8.7677">
        <ele>865</ele>
        <time>2021-08-06T09:25:02.333Z</time>
      </trkpt>
      <trkpt lat="46.96753" lon="8.76777">
        <ele>860</ele>
        <time>2021-08-06T09:25:03.333Z</time>
      </trkpt>
      <trkpt lat="46.96753" lon="8.76778">
        <ele>860</ele>
        <time>2021-08-06T09:25:04.333Z</time>
      </trkpt>
      <trkpt lat="46.96753" lon="8.76778">
        <ele>860</ele>
        <time>2021-08-06T09:25:05.333Z</time>
      </trkpt>
      <trkpt lat="46.96753" lon="8.76779">
        <ele>860</ele>
        <time>2021-08-06T09:25:06.333Z</time>
      </trkpt>
      <trkpt lat="46.96753" lon="8.7678">
        <ele>860</ele>
        <time>2021-08-06T09:25:07.334Z</time>
      </trkpt>
      <trkpt lat="46.96753" lon="8.7678">
        <ele>860</ele>
        <time>2021-08-06T09:25:08.333Z</time>
      </trkpt>
      <trkpt lat="46.96754" lon="8.76779">
        <ele>860</ele>
        <time>2021-08-06T09:25:09.333Z</time>
      </trkpt>
      <trkpt lat="46.96755" lon="8.76779">
        <ele>860</ele>
        <time>2021-08-06T09:25:10.333Z</time>
      </trkpt>
      <trkpt lat="46.96754" lon="8.7678">
        <ele>860</ele>
        <time>2021-08-06T09:25:11.334Z</time>
      </trkpt>
      <trkpt lat="46.96754" lon="8.7678">
        <ele>860</ele>
        <time>2021-08-06T09:25:12.334Z</time>
      </trkpt>
      <trkpt lat="46.96755" lon="8.7678">
        <ele>857</ele>
        <time>2021-08-06T09:25:13.333Z</time>
      </trkpt>
      <trkpt lat="46.96755" lon="8.7678">
        <ele>857</ele>
        <time>2021-08-06T09:25:14.333Z</time>
      </trkpt>
      <trkpt lat="46.96755" lon="8.7678">
        <ele>857</ele>
        <time>2021-08-06T09:25:15.333Z</time>
      </trkpt>
      <trkpt lat="46.96755" lon="8.7678">
        <ele>857</ele>
        <time>2021-08-06T09:25:16.333Z</time>
      </trkpt>
      <trkpt lat="46.96754" lon="8.7678">
        <ele>856</ele>
        <time>2021-08-06T09:25:17.333Z</time>
      </trkpt>
      <trkpt lat="46.96754" lon="8.7678">
        <ele>856</ele>
        <time>2021-08-06T09:25:18.333Z</time>
      </trkpt>
      <trkpt lat="46.96754" lon="8.7678">
        <ele>856</ele>
        <time>2021-08-06T09:25:19.334Z</time>
      </trkpt>
      <trkpt lat="46.96753" lon="8.76779">
        <ele>856</ele>
        <time>2021-08-06T09:25:20.333Z</time>
      </trkpt>
      <trkpt lat="46.96755" lon="8.76783">
        <ele>833</ele>
        <time>2021-08-06T09:25:21.334Z</time>
      </trkpt>
      <trkpt lat="46.96755" lon="8.76784">
        <ele>833</ele>
        <time>2021-08-06T09:25:22.333Z</time>
      </trkpt>
      <trkpt lat="46.96755" lon="8.76785">
        <ele>832</ele>
        <time>2021-08-06T09:25:23.333Z</time>
      </trkpt>
      <trkpt lat="46.96756" lon="8.76779">
        <ele>842</ele>
        <time>2021-08-06T09:25:24.333Z</time>
      </trkpt>
      <trkpt lat="46.96756" lon="8.76779">
        <ele>843</ele>
        <time>2021-08-06T09:25:25.333Z</time>
      </trkpt>
      <trkpt lat="46.96757" lon="8.76776">
        <ele>846</ele>
        <time>2021-08-06T09:25:26.334Z</time>
      </trkpt>
      <trkpt lat="46.96757" lon="8.76775">
        <ele>847</ele>
        <time>2021-08-06T09:25:27.334Z</time>
      </trkpt>
      <trkpt lat="46.96757" lon="8.76772">
        <ele>849</ele>
        <time>2021-08-06T09:25:28.337Z</time>
      </trkpt>
      <trkpt lat="46.96757" lon="8.76771">
        <ele>849</ele>
        <time>2021-08-06T09:25:29.336Z</time>
      </trkpt>
      <trkpt lat="46.96756" lon="8.7677">
        <ele>850</ele>
        <time>2021-08-06T09:25:30.336Z</time>
      </trkpt>
      <trkpt lat="46.96756" lon="8.76769">
        <ele>851</ele>
        <time>2021-08-06T09:25:31.336Z</time>
      </trkpt>
      <trkpt lat="46.96756" lon="8.76768">
        <ele>852</ele>
        <time>2021-08-06T09:25:32.337Z</time>
      </trkpt>
      <trkpt lat="46.96755" lon="8.76766">
        <ele>852</ele>
        <time>2021-08-06T09:25:33.336Z</time>
      </trkpt>
      <trkpt lat="46.96756" lon="8.76765">
        <ele>853</ele>
        <time>2021-08-06T09:25:34.336Z</time>
      </trkpt>
      <trkpt lat="46.96757" lon="8.76764">
        <ele>853</ele>
        <time>2021-08-06T09:25:35.337Z</time>
      </trkpt>
      <trkpt lat="46.96756" lon="8.76762">
        <ele>853</ele>
        <time>2021-08-06T09:25:36.337Z</time>
      </trkpt>
      <trkpt lat="46.96755" lon="8.76761">
        <ele>853</ele>
        <time>2021-08-06T09:25:37.336Z</time>
      </trkpt>
      <trkpt lat="46.96754" lon="8.7676">
        <ele>853</ele>
        <time>2021-08-06T09:25:38.336Z</time>
      </trkpt>
      <trkpt lat="46.96754" lon="8.7676">
        <ele>852</ele>
        <time>2021-08-06T09:25:39.337Z</time>
      </trkpt>
      <trkpt lat="46.96754" lon="8.76759">
        <ele>851</ele>
        <time>2021-08-06T09:25:40.336Z</time>
      </trkpt>
      <trkpt lat="46.96753" lon="8.76759">
        <ele>851</ele>
        <time>2021-08-06T09:25:41.336Z</time>
      </trkpt>
      <trkpt lat="46.96752" lon="8.76758">
        <ele>851</ele>
        <time>2021-08-06T09:25:42.336Z</time>
      </trkpt>
      <trkpt lat="46.96753" lon="8.76758">
        <ele>851</ele>
        <time>2021-08-06T09:25:43.336Z</time>
      </trkpt>
      <trkpt lat="46.96754" lon="8.76757">
        <ele>850</ele>
        <time>2021-08-06T09:25:44.336Z</time>
      </trkpt>
      <trkpt lat="46.96754" lon="8.76755">
        <ele>850</ele>
        <time>2021-08-06T09:25:45.336Z</time>
      </trkpt>
      <trkpt lat="46.96754" lon="8.76754">
        <ele>850</ele>
        <time>2021-08-06T09:25:46.337Z</time>
      </trkpt>
      <trkpt lat="46.96754" lon="8.76753">
        <ele>849</ele>
        <time>2021-08-06T09:25:47.336Z</time>
      </trkpt>
      <trkpt lat="46.96754" lon="8.76753">
        <ele>849</ele>
        <time>2021-08-06T09:25:48.337Z</time>
      </trkpt>
      <trkpt lat="46.96755" lon="8.76752">
        <ele>849</ele>
        <time>2021-08-06T09:25:49.337Z</time>
      </trkpt>
      <trkpt lat="46.96754" lon="8.76751">
        <ele>849</ele>
        <time>2021-08-06T09:25:50.337Z</time>
      </trkpt>
      <trkpt lat="46.96753" lon="8.7675">
        <ele>848</ele>
        <time>2021-08-06T09:25:51.337Z</time>
      </trkpt>
      <trkpt lat="46.96752" lon="8.7675">
        <ele>848</ele>
        <time>2021-08-06T09:25:52.336Z</time>
      </trkpt>
      <trkpt lat="46.96752" lon="8.76749">
        <ele>847</ele>
        <time>2021-08-06T09:25:53.336Z</time>
      </trkpt>
      <trkpt lat="46.96752" lon="8.76749">
        <ele>846</ele>
        <time>2021-08-06T09:25:54.336Z</time>
      </trkpt>
      <trkpt lat="46.96752" lon="8.76748">
        <ele>846</ele>
        <time>2021-08-06T09:25:55.336Z</time>
      </trkpt>
      <trkpt lat="46.96751" lon="8.76747">
        <ele>846</ele>
        <time>2021-08-06T09:25:56.337Z</time>
      </trkpt>
      <trkpt lat="46.96751" lon="8.76747">
        <ele>845</ele>
        <time>2021-08-06T09:25:57.336Z</time>
      </trkpt>
      <trkpt lat="46.96751" lon="8.76747">
        <ele>845</ele>
        <time>2021-08-06T09:25:58.336Z</time>
      </trkpt>
      <trkpt lat="46.9675" lon="8.76746">
        <ele>845</ele>
        <time>2021-08-06T09:25:59.336Z</time>
      </trkpt>
      <trkpt lat="46.96749" lon="8.76745">
        <ele>845</ele>
        <time>2021-08-06T09:26:00.336Z</time>
      </trkpt>
      <trkpt lat="46.96749" lon="8.76745">
        <ele>845</ele>
        <time>2021-08-06T09:26:01.336Z</time>
      </trkpt>
      <trkpt lat="46.96748" lon="8.76744">
        <ele>845</ele>
        <time>2021-08-06T09:26:02.336Z</time>
      </trkpt>
      <trkpt lat="46.96748" lon="8.76744">
        <ele>845</ele>
        <time>2021-08-06T09:26:03.336Z</time>
      </trkpt>
      <trkpt lat="46.96748" lon="8.76743">
        <ele>846</ele>
        <time>2021-08-06T09:26:04.336Z</time>
      </trkpt>
      <trkpt lat="46.96747" lon="8.76743">
        <ele>846</ele>
        <time>2021-08-06T09:26:05.336Z</time>
      </trkpt>
      <trkpt lat="46.96747" lon="8.76743">
        <ele>847</ele>
        <time>2021-08-06T09:26:06.336Z</time>
      </trkpt>
      <trkpt lat="46.96747" lon="8.76742">
        <ele>848</ele>
        <time>2021-08-06T09:26:07.336Z</time>
      </trkpt>
      <trkpt lat="46.96748" lon="8.76741">
        <ele>848</ele>
        <time>2021-08-06T09:26:08.336Z</time>
      </trkpt>
      <trkpt lat="46.96748" lon="8.7674">
        <ele>849</ele>
        <time>2021-08-06T09:26:09.337Z</time>
      </trkpt>
      <trkpt lat="46.96748" lon="8.76739">
        <ele>850</ele>
        <time>2021-08-06T09:26:10.336Z</time>
      </trkpt>
      <trkpt lat="46.96747" lon="8.76739">
        <ele>850</ele>
        <time>2021-08-06T09:26:11.336Z</time>
      </trkpt>
      <trkpt lat="46.96747" lon="8.76738">
        <ele>851</ele>
        <time>2021-08-06T09:26:12.336Z</time>
      </trkpt>
      <trkpt lat="46.96746" lon="8.76738">
        <ele>852</ele>
        <time>2021-08-06T09:26:13.336Z</time>
      </trkpt>
      <trkpt lat="46.96745" lon="8.76737">
        <ele>852</ele>
        <time>2021-08-06T09:26:14.336Z</time>
      </trkpt>
      <trkpt lat="46.96744" lon="8.76737">
        <ele>853</ele>
        <time>2021-08-06T09:26:15.336Z</time>
      </trkpt>
      <trkpt lat="46.96744" lon="8.76737">
        <ele>854</ele>
        <time>2021-08-06T09:26:16.336Z</time>
      </trkpt>
      <trkpt lat="46.96743" lon="8.76736">
        <ele>855</ele>
        <time>2021-08-06T09:26:17.336Z</time>
      </trkpt>
      <trkpt lat="46.96742" lon="8.76736">
        <ele>856</ele>
        <time>2021-08-06T09:26:18.336Z</time>
      </trkpt>
      <trkpt lat="46.96742" lon="8.76736">
        <ele>857</ele>
        <time>2021-08-06T09:26:19.337Z</time>
      </trkpt>
      <trkpt lat="46.96741" lon="8.76735">
        <ele>858</ele>
        <time>2021-08-06T09:26:20.336Z</time>
      </trkpt>
      <trkpt lat="46.9674" lon="8.76734">
        <ele>858</ele>
        <time>2021-08-06T09:26:21.336Z</time>
      </trkpt>
      <trkpt lat="46.9674" lon="8.76734">
        <ele>859</ele>
        <time>2021-08-06T09:26:22.336Z</time>
      </trkpt>
      <trkpt lat="46.96739" lon="8.76734">
        <ele>859</ele>
        <time>2021-08-06T09:26:23.336Z</time>
      </trkpt>
      <trkpt lat="46.96739" lon="8.76733">
        <ele>859</ele>
        <time>2021-08-06T09:26:24.336Z</time>
      </trkpt>
      <trkpt lat="46.96739" lon="8.76733">
        <ele>859</ele>
        <time>2021-08-06T09:26:25.336Z</time>
      </trkpt>
      <trkpt lat="46.96738" lon="8.76732">
        <ele>859</ele>
        <time>2021-08-06T09:26:26.336Z</time>
      </trkpt>
      <trkpt lat="46.96737" lon="8.76732">
        <ele>859</ele>
        <time>2021-08-06T09:26:27.336Z</time>
      </trkpt>
      <trkpt lat="46.96737" lon="8.76731">
        <ele>860</ele>
        <time>2021-08-06T09:26:28.336Z</time>
      </trkpt>
      <trkpt lat="46.96736" lon="8.76731">
        <ele>860</ele>
        <time>2021-08-06T09:26:29.336Z</time>
      </trkpt>
      <trkpt lat="46.96736" lon="8.7673">
        <ele>860</ele>
        <time>2021-08-06T09:26:30.336Z</time>
      </trkpt>
      <trkpt lat="46.96735" lon="8.76729">
        <ele>860</ele>
        <time>2021-08-06T09:26:31.336Z</time>
      </trkpt>
      <trkpt lat="46.96734" lon="8.76728">
        <ele>860</ele>
        <time>2021-08-06T09:26:32.336Z</time>
      </trkpt>
      <trkpt lat="46.96734" lon="8.76728">
        <ele>861</ele>
        <time>2021-08-06T09:26:33.337Z</time>
      </trkpt>
      <trkpt lat="46.96734" lon="8.76728">
        <ele>861</ele>
        <time>2021-08-06T09:26:34.336Z</time>
      </trkpt>
      <trkpt lat="46.96734" lon="8.76728">
        <ele>862</ele>
        <time>2021-08-06T09:26:35.336Z</time>
      </trkpt>
      <trkpt lat="46.96734" lon="8.76727">
        <ele>863</ele>
        <time>2021-08-06T09:26:36.336Z</time>
      </trkpt>
      <trkpt lat="46.96733" lon="8.76726">
        <ele>864</ele>
        <time>2021-08-06T09:26:37.336Z</time>
      </trkpt>
      <trkpt lat="46.96731" lon="8.76724">
        <ele>864</ele>
        <time>2021-08-06T09:26:38.336Z</time>
      </trkpt>
      <trkpt lat="46.9673" lon="8.76722">
        <ele>865</ele>
        <time>2021-08-06T09:26:39.336Z</time>
      </trkpt>
      <trkpt lat="46.9673" lon="8.7672">
        <ele>866</ele>
        <time>2021-08-06T09:26:40.337Z</time>
      </trkpt>
      <trkpt lat="46.96729" lon="8.76719">
        <ele>866</ele>
        <time>2021-08-06T09:26:41.336Z</time>
      </trkpt>
      <trkpt lat="46.96728" lon="8.76718">
        <ele>866</ele>
        <time>2021-08-06T09:26:42.337Z</time>
      </trkpt>
      <trkpt lat="46.96728" lon="8.76717">
        <ele>866</ele>
        <time>2021-08-06T09:26:43.337Z</time>
      </trkpt>
      <trkpt lat="46.96728" lon="8.76715">
        <ele>866</ele>
        <time>2021-08-06T09:26:44.336Z</time>
      </trkpt>
      <trkpt lat="46.96729" lon="8.76714">
        <ele>866</ele>
        <time>2021-08-06T09:26:45.336Z</time>
      </trkpt>
      <trkpt lat="46.96728" lon="8.76713">
        <ele>865</ele>
        <time>2021-08-06T09:26:46.336Z</time>
      </trkpt>
      <trkpt lat="46.96729" lon="8.76712">
        <ele>865</ele>
        <time>2021-08-06T09:26:47.337Z</time>
      </trkpt>
      <trkpt lat="46.96729" lon="8.76711">
        <ele>864</ele>
        <time>2021-08-06T09:26:48.336Z</time>
      </trkpt>
      <trkpt lat="46.96728" lon="8.76711">
        <ele>864</ele>
        <time>2021-08-06T09:26:49.336Z</time>
      </trkpt>
      <trkpt lat="46.96727" lon="8.76711">
        <ele>864</ele>
        <time>2021-08-06T09:26:50.336Z</time>
      </trkpt>
      <trkpt lat="46.96727" lon="8.76711">
        <ele>864</ele>
        <time>2021-08-06T09:26:51.336Z</time>
      </trkpt>
      <trkpt lat="46.96726" lon="8.76711">
        <ele>865</ele>
        <time>2021-08-06T09:26:52.336Z</time>
      </trkpt>
      <trkpt lat="46.96725" lon="8.76711">
        <ele>865</ele>
        <time>2021-08-06T09:26:53.336Z</time>
      </trkpt>
      <trkpt lat="46.96724" lon="8.7671">
        <ele>866</ele>
        <time>2021-08-06T09:26:54.337Z</time>
      </trkpt>
      <trkpt lat="46.96723" lon="8.7671">
        <ele>866</ele>
        <time>2021-08-06T09:26:55.336Z</time>
      </trkpt>
      <trkpt lat="46.96723" lon="8.7671">
        <ele>866</ele>
        <time>2021-08-06T09:26:56.337Z</time>
      </trkpt>
      <trkpt lat="46.96723" lon="8.76709">
        <ele>866</ele>
        <time>2021-08-06T09:26:57.336Z</time>
      </trkpt>
      <trkpt lat="46.96722" lon="8.76709">
        <ele>866</ele>
        <time>2021-08-06T09:26:58.336Z</time>
      </trkpt>
      <trkpt lat="46.96721" lon="8.76709">
        <ele>866</ele>
        <time>2021-08-06T09:26:59.337Z</time>
      </trkpt>
      <trkpt lat="46.9672" lon="8.76708">
        <ele>866</ele>
        <time>2021-08-06T09:27:00.336Z</time>
      </trkpt>
      <trkpt lat="46.96719" lon="8.76708">
        <ele>866</ele>
        <time>2021-08-06T09:27:01.337Z</time>
      </trkpt>
      <trkpt lat="46.96718" lon="8.76708">
        <ele>867</ele>
        <time>2021-08-06T09:27:02.337Z</time>
      </trkpt>
      <trkpt lat="46.96717" lon="8.76708">
        <ele>867</ele>
        <time>2021-08-06T09:27:03.337Z</time>
      </trkpt>
      <trkpt lat="46.96716" lon="8.76707">
        <ele>868</ele>
        <time>2021-08-06T09:27:04.336Z</time>
      </trkpt>
      <trkpt lat="46.96715" lon="8.76707">
        <ele>868</ele>
        <time>2021-08-06T09:27:05.336Z</time>
      </trkpt>
      <trkpt lat="46.96714" lon="8.76707">
        <ele>868</ele>
        <time>2021-08-06T09:27:06.336Z</time>
      </trkpt>
      <trkpt lat="46.96714" lon="8.76706">
        <ele>869</ele>
        <time>2021-08-06T09:27:07.337Z</time>
      </trkpt>
      <trkpt lat="46.96713" lon="8.76706">
        <ele>869</ele>
        <time>2021-08-06T09:27:08.336Z</time>
      </trkpt>
      <trkpt lat="46.96713" lon="8.76705">
        <ele>869</ele>
        <time>2021-08-06T09:27:09.336Z</time>
      </trkpt>
      <trkpt lat="46.96713" lon="8.76704">
        <ele>870</ele>
        <time>2021-08-06T09:27:10.336Z</time>
      </trkpt>
      <trkpt lat="46.96713" lon="8.76703">
        <ele>871</ele>
        <time>2021-08-06T09:27:11.336Z</time>
      </trkpt>
      <trkpt lat="46.96713" lon="8.76702">
        <ele>873</ele>
        <time>2021-08-06T09:27:12.337Z</time>
      </trkpt>
      <trkpt lat="46.96715" lon="8.76699">
        <ele>876</ele>
        <time>2021-08-06T09:27:13.337Z</time>
      </trkpt>
      <trkpt lat="46.96715" lon="8.76699">
        <ele>876</ele>
        <time>2021-08-06T09:27:14.337Z</time>
      </trkpt>
      <trkpt lat="46.96715" lon="8.76698">
        <ele>877</ele>
        <time>2021-08-06T09:27:15.337Z</time>
      </trkpt>
      <trkpt lat="46.96715" lon="8.76697">
        <ele>877</ele>
        <time>2021-08-06T09:27:16.338Z</time>
      </trkpt>
      <trkpt lat="46.96714" lon="8.76697">
        <ele>878</ele>
        <time>2021-08-06T09:27:17.338Z</time>
      </trkpt>
      <trkpt lat="46.96714" lon="8.76696">
        <ele>879</ele>
        <time>2021-08-06T09:27:18.338Z</time>
      </trkpt>
      <trkpt lat="46.96713" lon="8.76696">
        <ele>879</ele>
        <time>2021-08-06T09:27:19.338Z</time>
      </trkpt>
      <trkpt lat="46.96712" lon="8.76698">
        <ele>880</ele>
        <time>2021-08-06T09:27:20.338Z</time>
      </trkpt>
      <trkpt lat="46.96712" lon="8.76699">
        <ele>881</ele>
        <time>2021-08-06T09:27:21.337Z</time>
      </trkpt>
      <trkpt lat="46.96712" lon="8.76699">
        <ele>881</ele>
        <time>2021-08-06T09:27:22.338Z</time>
      </trkpt>
      <trkpt lat="46.96711" lon="8.767">
        <ele>881</ele>
        <time>2021-08-06T09:27:23.338Z</time>
      </trkpt>
      <trkpt lat="46.96711" lon="8.767">
        <ele>881</ele>
        <time>2021-08-06T09:27:24.338Z</time>
      </trkpt>
      <trkpt lat="46.96709" lon="8.76701">
        <ele>881</ele>
        <time>2021-08-06T09:27:25.338Z</time>
      </trkpt>
      <trkpt lat="46.96708" lon="8.76701">
        <ele>882</ele>
        <time>2021-08-06T09:27:26.338Z</time>
      </trkpt>
      <trkpt lat="46.96708" lon="8.767">
        <ele>882</ele>
        <time>2021-08-06T09:27:27.337Z</time>
      </trkpt>
      <trkpt lat="46.96709" lon="8.767">
        <ele>882</ele>
        <time>2021-08-06T09:27:28.337Z</time>
      </trkpt>
      <trkpt lat="46.9671" lon="8.76699">
        <ele>881</ele>
        <time>2021-08-06T09:27:29.338Z</time>
      </trkpt>
      <trkpt lat="46.9671" lon="8.76699">
        <ele>881</ele>
        <time>2021-08-06T09:27:30.338Z</time>
      </trkpt>
      <trkpt lat="46.96711" lon="8.76698">
        <ele>880</ele>
        <time>2021-08-06T09:27:31.338Z</time>
      </trkpt>
      <trkpt lat="46.96711" lon="8.76697">
        <ele>880</ele>
        <time>2021-08-06T09:27:32.337Z</time>
      </trkpt>
      <trkpt lat="46.9671" lon="8.76696">
        <ele>880</ele>
        <time>2021-08-06T09:27:33.337Z</time>
      </trkpt>
      <trkpt lat="46.9671" lon="8.76696">
        <ele>880</ele>
        <time>2021-08-06T09:27:34.337Z</time>
      </trkpt>
      <trkpt lat="46.96709" lon="8.76695">
        <ele>881</ele>
        <time>2021-08-06T09:27:35.338Z</time>
      </trkpt>
      <trkpt lat="46.96709" lon="8.76694">
        <ele>881</ele>
        <time>2021-08-06T09:27:36.337Z</time>
      </trkpt>
      <trkpt lat="46.96709" lon="8.76693">
        <ele>882</ele>
        <time>2021-08-06T09:27:37.337Z</time>
      </trkpt>
      <trkpt lat="46.96708" lon="8.76693">
        <ele>882</ele>
        <time>2021-08-06T09:27:38.337Z</time>
      </trkpt>
      <trkpt lat="46.96708" lon="8.76693">
        <ele>883</ele>
        <time>2021-08-06T09:27:39.337Z</time>
      </trkpt>
      <trkpt lat="46.96707" lon="8.76693">
        <ele>883</ele>
        <time>2021-08-06T09:27:40.337Z</time>
      </trkpt>
      <trkpt lat="46.96707" lon="8.76693">
        <ele>884</ele>
        <time>2021-08-06T09:27:41.337Z</time>
      </trkpt>
      <trkpt lat="46.96706" lon="8.76693">
        <ele>884</ele>
        <time>2021-08-06T09:27:42.338Z</time>
      </trkpt>
      <trkpt lat="46.96705" lon="8.76694">
        <ele>884</ele>
        <time>2021-08-06T09:27:43.338Z</time>
      </trkpt>
      <trkpt lat="46.96705" lon="8.76694">
        <ele>885</ele>
        <time>2021-08-06T09:27:44.337Z</time>
      </trkpt>
      <trkpt lat="46.96705" lon="8.76693">
        <ele>886</ele>
        <time>2021-08-06T09:27:45.337Z</time>
      </trkpt>
      <trkpt lat="46.96704" lon="8.76693">
        <ele>887</ele>
        <time>2021-08-06T09:27:46.338Z</time>
      </trkpt>
      <trkpt lat="46.96704" lon="8.76692">
        <ele>888</ele>
        <time>2021-08-06T09:27:47.338Z</time>
      </trkpt>
      <trkpt lat="46.96703" lon="8.76692">
        <ele>889</ele>
        <time>2021-08-06T09:27:48.338Z</time>
      </trkpt>
      <trkpt lat="46.96702" lon="8.76692">
        <ele>889</ele>
        <time>2021-08-06T09:27:49.337Z</time>
      </trkpt>
      <trkpt lat="46.96701" lon="8.76692">
        <ele>890</ele>
        <time>2021-08-06T09:27:50.337Z</time>
      </trkpt>
      <trkpt lat="46.967" lon="8.76692">
        <ele>890</ele>
        <time>2021-08-06T09:27:51.337Z</time>
      </trkpt>
      <trkpt lat="46.967" lon="8.76692">
        <ele>890</ele>
        <time>2021-08-06T09:27:52.337Z</time>
      </trkpt>
      <trkpt lat="46.96701" lon="8.76691">
        <ele>890</ele>
        <time>2021-08-06T09:27:53.338Z</time>
      </trkpt>
      <trkpt lat="46.96703" lon="8.76691">
        <ele>889</ele>
        <time>2021-08-06T09:27:54.337Z</time>
      </trkpt>
      <trkpt lat="46.96704" lon="8.7669">
        <ele>888</ele>
        <time>2021-08-06T09:27:55.337Z</time>
      </trkpt>
      <trkpt lat="46.96705" lon="8.76689">
        <ele>888</ele>
        <time>2021-08-06T09:27:56.338Z</time>
      </trkpt>
      <trkpt lat="46.96707" lon="8.76688">
        <ele>888</ele>
        <time>2021-08-06T09:27:57.338Z</time>
      </trkpt>
      <trkpt lat="46.96707" lon="8.76688">
        <ele>888</ele>
        <time>2021-08-06T09:27:58.338Z</time>
      </trkpt>
      <trkpt lat="46.96705" lon="8.76688">
        <ele>888</ele>
        <time>2021-08-06T09:27:59.338Z</time>
      </trkpt>
      <trkpt lat="46.96705" lon="8.76688">
        <ele>888</ele>
        <time>2021-08-06T09:28:00.338Z</time>
      </trkpt>
      <trkpt lat="46.96704" lon="8.76689">
        <ele>888</ele>
        <time>2021-08-06T09:28:01.338Z</time>
      </trkpt>
      <trkpt lat="46.96704" lon="8.76688">
        <ele>888</ele>
        <time>2021-08-06T09:28:02.338Z</time>
      </trkpt>
      <trkpt lat="46.96704" lon="8.76688">
        <ele>887</ele>
        <time>2021-08-06T09:28:03.338Z</time>
      </trkpt>
      <trkpt lat="46.96705" lon="8.76686">
        <ele>887</ele>
        <time>2021-08-06T09:28:04.339Z</time>
      </trkpt>
      <trkpt lat="46.96705" lon="8.76685">
        <ele>886</ele>
        <time>2021-08-06T09:28:05.339Z</time>
      </trkpt>
      <trkpt lat="46.96705" lon="8.76684">
        <ele>886</ele>
        <time>2021-08-06T09:28:06.338Z</time>
      </trkpt>
      <trkpt lat="46.96704" lon="8.76684">
        <ele>886</ele>
        <time>2021-08-06T09:28:07.339Z</time>
      </trkpt>
      <trkpt lat="46.96703" lon="8.76683">
        <ele>887</ele>
        <time>2021-08-06T09:28:08.339Z</time>
      </trkpt>
      <trkpt lat="46.96702" lon="8.76683">
        <ele>887</ele>
        <time>2021-08-06T09:28:09.339Z</time>
      </trkpt>
      <trkpt lat="46.96701" lon="8.76684">
        <ele>886</ele>
        <time>2021-08-06T09:28:10.339Z</time>
      </trkpt>
      <trkpt lat="46.96701" lon="8.76685">
        <ele>886</ele>
        <time>2021-08-06T09:28:11.339Z</time>
      </trkpt>
      <trkpt lat="46.96701" lon="8.76686">
        <ele>886</ele>
        <time>2021-08-06T09:28:12.339Z</time>
      </trkpt>
      <trkpt lat="46.967" lon="8.76687">
        <ele>887</ele>
        <time>2021-08-06T09:28:13.339Z</time>
      </trkpt>
      <trkpt lat="46.96701" lon="8.76687">
        <ele>887</ele>
        <time>2021-08-06T09:28:14.339Z</time>
      </trkpt>
      <trkpt lat="46.967" lon="8.76687">
        <ele>887</ele>
        <time>2021-08-06T09:28:15.338Z</time>
      </trkpt>
      <trkpt lat="46.967" lon="8.76686">
        <ele>886</ele>
        <time>2021-08-06T09:28:16.339Z</time>
      </trkpt>
      <trkpt lat="46.967" lon="8.76686">
        <ele>886</ele>
        <time>2021-08-06T09:28:17.339Z</time>
      </trkpt>
      <trkpt lat="46.967" lon="8.76685">
        <ele>886</ele>
        <time>2021-08-06T09:28:18.338Z</time>
      </trkpt>
      <trkpt lat="46.967" lon="8.76684">
        <ele>886</ele>
        <time>2021-08-06T09:28:19.338Z</time>
      </trkpt>
      <trkpt lat="46.967" lon="8.76683">
        <ele>886</ele>
        <time>2021-08-06T09:28:20.339Z</time>
      </trkpt>
      <trkpt lat="46.967" lon="8.76683">
        <ele>886</ele>
        <time>2021-08-06T09:28:21.339Z</time>
      </trkpt>
      <trkpt lat="46.967" lon="8.76682">
        <ele>885</ele>
        <time>2021-08-06T09:28:22.339Z</time>
      </trkpt>
      <trkpt lat="46.967" lon="8.76681">
        <ele>885</ele>
        <time>2021-08-06T09:28:23.339Z</time>
      </trkpt>
      <trkpt lat="46.96699" lon="8.76681">
        <ele>885</ele>
        <time>2021-08-06T09:28:24.339Z</time>
      </trkpt>
      <trkpt lat="46.96699" lon="8.76681">
        <ele>885</ele>
        <time>2021-08-06T09:28:25.338Z</time>
      </trkpt>
      <trkpt lat="46.96698" lon="8.76679">
        <ele>885</ele>
        <time>2021-08-06T09:28:26.339Z</time>
      </trkpt>
      <trkpt lat="46.96697" lon="8.76677">
        <ele>885</ele>
        <time>2021-08-06T09:28:27.338Z</time>
      </trkpt>
      <trkpt lat="46.96696" lon="8.76676">
        <ele>885</ele>
        <time>2021-08-06T09:28:28.339Z</time>
      </trkpt>
      <trkpt lat="46.96695" lon="8.76675">
        <ele>885</ele>
        <time>2021-08-06T09:28:29.339Z</time>
      </trkpt>
      <trkpt lat="46.96695" lon="8.76675">
        <ele>886</ele>
        <time>2021-08-06T09:28:30.339Z</time>
      </trkpt>
      <trkpt lat="46.96694" lon="8.76674">
        <ele>886</ele>
        <time>2021-08-06T09:28:31.339Z</time>
      </trkpt>
      <trkpt lat="46.96694" lon="8.76673">
        <ele>886</ele>
        <time>2021-08-06T09:28:32.338Z</time>
      </trkpt>
      <trkpt lat="46.96694" lon="8.76672">
        <ele>887</ele>
        <time>2021-08-06T09:28:33.339Z</time>
      </trkpt>
      <trkpt lat="46.96694" lon="8.76671">
        <ele>887</ele>
        <time>2021-08-06T09:28:34.339Z</time>
      </trkpt>
      <trkpt lat="46.96695" lon="8.76671">
        <ele>888</ele>
        <time>2021-08-06T09:28:35.339Z</time>
      </trkpt>
      <trkpt lat="46.96696" lon="8.7667">
        <ele>888</ele>
        <time>2021-08-06T09:28:36.339Z</time>
      </trkpt>
      <trkpt lat="46.96697" lon="8.76669">
        <ele>888</ele>
        <time>2021-08-06T09:28:37.338Z</time>
      </trkpt>
      <trkpt lat="46.96697" lon="8.76669">
        <ele>888</ele>
        <time>2021-08-06T09:28:38.338Z</time>
      </trkpt>
      <trkpt lat="46.96697" lon="8.76668">
        <ele>889</ele>
        <time>2021-08-06T09:28:39.339Z</time>
      </trkpt>
      <trkpt lat="46.96697" lon="8.76667">
        <ele>889</ele>
        <time>2021-08-06T09:28:40.339Z</time>
      </trkpt>
      <trkpt lat="46.96696" lon="8.76667">
        <ele>889</ele>
        <time>2021-08-06T09:28:41.339Z</time>
      </trkpt>
      <trkpt lat="46.96696" lon="8.76667">
        <ele>890</ele>
        <time>2021-08-06T09:28:42.339Z</time>
      </trkpt>
      <trkpt lat="46.96696" lon="8.76667">
        <ele>890</ele>
        <time>2021-08-06T09:28:43.339Z</time>
      </trkpt>
      <trkpt lat="46.96695" lon="8.76666">
        <ele>891</ele>
        <time>2021-08-06T09:28:44.340Z</time>
      </trkpt>
      <trkpt lat="46.96695" lon="8.76665">
        <ele>891</ele>
        <time>2021-08-06T09:28:45.339Z</time>
      </trkpt>
      <trkpt lat="46.96694" lon="8.76665">
        <ele>891</ele>
        <time>2021-08-06T09:28:46.340Z</time>
      </trkpt>
      <trkpt lat="46.96693" lon="8.76665">
        <ele>891</ele>
        <time>2021-08-06T09:28:47.339Z</time>
      </trkpt>
      <trkpt lat="46.96692" lon="8.76665">
        <ele>890</ele>
        <time>2021-08-06T09:28:48.340Z</time>
      </trkpt>
      <trkpt lat="46.96692" lon="8.76664">
        <ele>890</ele>
        <time>2021-08-06T09:28:49.340Z</time>
      </trkpt>
      <trkpt lat="46.96692" lon="8.76664">
        <ele>889</ele>
        <time>2021-08-06T09:28:50.340Z</time>
      </trkpt>
      <trkpt lat="46.96691" lon="8.76663">
        <ele>889</ele>
        <time>2021-08-06T09:28:51.340Z</time>
      </trkpt>
      <trkpt lat="46.9669" lon="8.76662">
        <ele>888</ele>
        <time>2021-08-06T09:28:52.340Z</time>
      </trkpt>
      <trkpt lat="46.9669" lon="8.76662">
        <ele>887</ele>
        <time>2021-08-06T09:28:53.340Z</time>
      </trkpt>
      <trkpt lat="46.9669" lon="8.76661">
        <ele>886</ele>
        <time>2021-08-06T09:28:54.340Z</time>
      </trkpt>
      <trkpt lat="46.96689" lon="8.76661">
        <ele>885</ele>
        <time>2021-08-06T09:28:55.340Z</time>
      </trkpt>
      <trkpt lat="46.96689" lon="8.76661">
        <ele>884</ele>
        <time>2021-08-06T09:28:56.340Z</time>
      </trkpt>
      <trkpt lat="46.96688" lon="8.76661">
        <ele>884</ele>
        <time>2021-08-06T09:28:57.340Z</time>
      </trkpt>
      <trkpt lat="46.96688" lon="8.7666">
        <ele>883</ele>
        <time>2021-08-06T09:28:58.339Z</time>
      </trkpt>
      <trkpt lat="46.96689" lon="8.7666">
        <ele>882</ele>
        <time>2021-08-06T09:28:59.340Z</time>
      </trkpt>
      <trkpt lat="46.96688" lon="8.76659">
        <ele>882</ele>
        <time>2021-08-06T09:29:00.340Z</time>
      </trkpt>
      <trkpt lat="46.96687" lon="8.76659">
        <ele>882</ele>
        <time>2021-08-06T09:29:01.340Z</time>
      </trkpt>
      <trkpt lat="46.96686" lon="8.7666">
        <ele>882</ele>
        <time>2021-08-06T09:29:02.340Z</time>
      </trkpt>
      <trkpt lat="46.96685" lon="8.76661">
        <ele>881</ele>
        <time>2021-08-06T09:29:03.340Z</time>
      </trkpt>
      <trkpt lat="46.96684" lon="8.76662">
        <ele>881</ele>
        <time>2021-08-06T09:29:04.340Z</time>
      </trkpt>
      <trkpt lat="46.96684" lon="8.76664">
        <ele>881</ele>
        <time>2021-08-06T09:29:05.340Z</time>
      </trkpt>
      <trkpt lat="46.96684" lon="8.76665">
        <ele>881</ele>
        <time>2021-08-06T09:29:06.340Z</time>
      </trkpt>
      <trkpt lat="46.96684" lon="8.76666">
        <ele>882</ele>
        <time>2021-08-06T09:29:07.339Z</time>
      </trkpt>
      <trkpt lat="46.96684" lon="8.76669">
        <ele>883</ele>
        <time>2021-08-06T09:29:08.340Z</time>
      </trkpt>
      <trkpt lat="46.96683" lon="8.76671">
        <ele>884</ele>
        <time>2021-08-06T09:29:09.339Z</time>
      </trkpt>
      <trkpt lat="46.96682" lon="8.76672">
        <ele>885</ele>
        <time>2021-08-06T09:29:10.339Z</time>
      </trkpt>
      <trkpt lat="46.96681" lon="8.76673">
        <ele>885</ele>
        <time>2021-08-06T09:29:11.340Z</time>
      </trkpt>
      <trkpt lat="46.96681" lon="8.76674">
        <ele>886</ele>
        <time>2021-08-06T09:29:12.339Z</time>
      </trkpt>
      <trkpt lat="46.9668" lon="8.76675">
        <ele>886</ele>
        <time>2021-08-06T09:29:13.339Z</time>
      </trkpt>
      <trkpt lat="46.9668" lon="8.76676">
        <ele>887</ele>
        <time>2021-08-06T09:29:14.339Z</time>
      </trkpt>
      <trkpt lat="46.9668" lon="8.76677">
        <ele>887</ele>
        <time>2021-08-06T09:29:15.339Z</time>
      </trkpt>
      <trkpt lat="46.9668" lon="8.76678">
        <ele>887</ele>
        <time>2021-08-06T09:29:16.340Z</time>
      </trkpt>
      <trkpt lat="46.96679" lon="8.76679">
        <ele>888</ele>
        <time>2021-08-06T09:29:17.339Z</time>
      </trkpt>
      <trkpt lat="46.96678" lon="8.7668">
        <ele>888</ele>
        <time>2021-08-06T09:29:18.339Z</time>
      </trkpt>
      <trkpt lat="46.96676" lon="8.7668">
        <ele>888</ele>
        <time>2021-08-06T09:29:19.340Z</time>
      </trkpt>
      <trkpt lat="46.96675" lon="8.7668">
        <ele>889</ele>
        <time>2021-08-06T09:29:20.339Z</time>
      </trkpt>
      <trkpt lat="46.96675" lon="8.7668">
        <ele>889</ele>
        <time>2021-08-06T09:29:21.339Z</time>
      </trkpt>
      <trkpt lat="46.96675" lon="8.76679">
        <ele>890</ele>
        <time>2021-08-06T09:29:22.340Z</time>
      </trkpt>
      <trkpt lat="46.96675" lon="8.76679">
        <ele>890</ele>
        <time>2021-08-06T09:29:23.340Z</time>
      </trkpt>
      <trkpt lat="46.96675" lon="8.76679">
        <ele>891</ele>
        <time>2021-08-06T09:29:24.339Z</time>
      </trkpt>
      <trkpt lat="46.96675" lon="8.76677">
        <ele>892</ele>
        <time>2021-08-06T09:29:25.340Z</time>
      </trkpt>
      <trkpt lat="46.96675" lon="8.76675">
        <ele>893</ele>
        <time>2021-08-06T09:29:26.340Z</time>
      </trkpt>
      <trkpt lat="46.96675" lon="8.76674">
        <ele>893</ele>
        <time>2021-08-06T09:29:27.339Z</time>
      </trkpt>
      <trkpt lat="46.96675" lon="8.76673">
        <ele>892</ele>
        <time>2021-08-06T09:29:28.340Z</time>
      </trkpt>
      <trkpt lat="46.96675" lon="8.76671">
        <ele>892</ele>
        <time>2021-08-06T09:29:29.339Z</time>
      </trkpt>
      <trkpt lat="46.96675" lon="8.7667">
        <ele>892</ele>
        <time>2021-08-06T09:29:30.339Z</time>
      </trkpt>
      <trkpt lat="46.96675" lon="8.76669">
        <ele>892</ele>
        <time>2021-08-06T09:29:31.339Z</time>
      </trkpt>
      <trkpt lat="46.96676" lon="8.76667">
        <ele>892</ele>
        <time>2021-08-06T09:29:32.339Z</time>
      </trkpt>
      <trkpt lat="46.96675" lon="8.76666">
        <ele>891</ele>
        <time>2021-08-06T09:29:33.340Z</time>
      </trkpt>
      <trkpt lat="46.96676" lon="8.76665">
        <ele>891</ele>
        <time>2021-08-06T09:29:34.340Z</time>
      </trkpt>
      <trkpt lat="46.96676" lon="8.76664">
        <ele>891</ele>
        <time>2021-08-06T09:29:35.340Z</time>
      </trkpt>
      <trkpt lat="46.96677" lon="8.76662">
        <ele>891</ele>
        <time>2021-08-06T09:29:36.339Z</time>
      </trkpt>
      <trkpt lat="46.96677" lon="8.7666">
        <ele>891</ele>
        <time>2021-08-06T09:29:37.340Z</time>
      </trkpt>
      <trkpt lat="46.96676" lon="8.76658">
        <ele>892</ele>
        <time>2021-08-06T09:29:38.340Z</time>
      </trkpt>
      <trkpt lat="46.96676" lon="8.76656">
        <ele>892</ele>
        <time>2021-08-06T09:29:39.339Z</time>
      </trkpt>
      <trkpt lat="46.96677" lon="8.76654">
        <ele>892</ele>
        <time>2021-08-06T09:29:40.339Z</time>
      </trkpt>
      <trkpt lat="46.96677" lon="8.76651">
        <ele>892</ele>
        <time>2021-08-06T09:29:41.339Z</time>
      </trkpt>
      <trkpt lat="46.96677" lon="8.76649">
        <ele>893</ele>
        <time>2021-08-06T09:29:42.340Z</time>
      </trkpt>
      <trkpt lat="46.96674" lon="8.76647">
        <ele>893</ele>
        <time>2021-08-06T09:29:43.340Z</time>
      </trkpt>
      <trkpt lat="46.96673" lon="8.76645">
        <ele>894</ele>
        <time>2021-08-06T09:29:44.339Z</time>
      </trkpt>
      <trkpt lat="46.96672" lon="8.76644">
        <ele>894</ele>
        <time>2021-08-06T09:29:45.339Z</time>
      </trkpt>
      <trkpt lat="46.96672" lon="8.76642">
        <ele>895</ele>
        <time>2021-08-06T09:29:46.340Z</time>
      </trkpt>
      <trkpt lat="46.96672" lon="8.7664">
        <ele>896</ele>
        <time>2021-08-06T09:29:47.340Z</time>
      </trkpt>
      <trkpt lat="46.96671" lon="8.76637">
        <ele>896</ele>
        <time>2021-08-06T09:29:48.339Z</time>
      </trkpt>
      <trkpt lat="46.9667" lon="8.76635">
        <ele>897</ele>
        <time>2021-08-06T09:29:49.340Z</time>
      </trkpt>
      <trkpt lat="46.96671" lon="8.76633">
        <ele>898</ele>
        <time>2021-08-06T09:29:50.339Z</time>
      </trkpt>
      <trkpt lat="46.96671" lon="8.76631">
        <ele>899</ele>
        <time>2021-08-06T09:29:51.340Z</time>
      </trkpt>
      <trkpt lat="46.96671" lon="8.7663">
        <ele>900</ele>
        <time>2021-08-06T09:29:52.339Z</time>
      </trkpt>
      <trkpt lat="46.96671" lon="8.76629">
        <ele>900</ele>
        <time>2021-08-06T09:29:53.339Z</time>
      </trkpt>
      <trkpt lat="46.96671" lon="8.76628">
        <ele>901</ele>
        <time>2021-08-06T09:29:54.339Z</time>
      </trkpt>
      <trkpt lat="46.96671" lon="8.76627">
        <ele>902</ele>
        <time>2021-08-06T09:29:55.340Z</time>
      </trkpt>
      <trkpt lat="46.96671" lon="8.76625">
        <ele>902</ele>
        <time>2021-08-06T09:29:56.339Z</time>
      </trkpt>
      <trkpt lat="46.9667" lon="8.76624">
        <ele>903</ele>
        <time>2021-08-06T09:29:57.339Z</time>
      </trkpt>
      <trkpt lat="46.96669" lon="8.76623">
        <ele>903</ele>
        <time>2021-08-06T09:29:58.340Z</time>
      </trkpt>
      <trkpt lat="46.96668" lon="8.76622">
        <ele>904</ele>
        <time>2021-08-06T09:29:59.339Z</time>
      </trkpt>
      <trkpt lat="46.96668" lon="8.76621">
        <ele>904</ele>
        <time>2021-08-06T09:30:00.340Z</time>
      </trkpt>
      <trkpt lat="46.96668" lon="8.76621">
        <ele>905</ele>
        <time>2021-08-06T09:30:01.340Z</time>
      </trkpt>
      <trkpt lat="46.96668" lon="8.76621">
        <ele>905</ele>
        <time>2021-08-06T09:30:02.340Z</time>
      </trkpt>
      <trkpt lat="46.96667" lon="8.76622">
        <ele>905</ele>
        <time>2021-08-06T09:30:03.340Z</time>
      </trkpt>
      <trkpt lat="46.96667" lon="8.76621">
        <ele>905</ele>
        <time>2021-08-06T09:30:04.340Z</time>
      </trkpt>
      <trkpt lat="46.96667" lon="8.7662">
        <ele>905</ele>
        <time>2021-08-06T09:30:05.339Z</time>
      </trkpt>
      <trkpt lat="46.96667" lon="8.76621">
        <ele>905</ele>
        <time>2021-08-06T09:30:06.339Z</time>
      </trkpt>
      <trkpt lat="46.96667" lon="8.7662">
        <ele>905</ele>
        <time>2021-08-06T09:30:07.339Z</time>
      </trkpt>
      <trkpt lat="46.96667" lon="8.7662">
        <ele>906</ele>
        <time>2021-08-06T09:30:08.339Z</time>
      </trkpt>
      <trkpt lat="46.96666" lon="8.7662">
        <ele>906</ele>
        <time>2021-08-06T09:30:09.339Z</time>
      </trkpt>
      <trkpt lat="46.96667" lon="8.7662">
        <ele>905</ele>
        <time>2021-08-06T09:30:10.340Z</time>
      </trkpt>
      <trkpt lat="46.96667" lon="8.76619">
        <ele>905</ele>
        <time>2021-08-06T09:30:11.339Z</time>
      </trkpt>
      <trkpt lat="46.96668" lon="8.76619">
        <ele>905</ele>
        <time>2021-08-06T09:30:12.340Z</time>
      </trkpt>
      <trkpt lat="46.96669" lon="8.76619">
        <ele>905</ele>
        <time>2021-08-06T09:30:13.340Z</time>
      </trkpt>
      <trkpt lat="46.9667" lon="8.76618">
        <ele>905</ele>
        <time>2021-08-06T09:30:14.340Z</time>
      </trkpt>
      <trkpt lat="46.9667" lon="8.76617">
        <ele>905</ele>
        <time>2021-08-06T09:30:15.340Z</time>
      </trkpt>
      <trkpt lat="46.9667" lon="8.76616">
        <ele>905</ele>
        <time>2021-08-06T09:30:16.340Z</time>
      </trkpt>
      <trkpt lat="46.9667" lon="8.76616">
        <ele>905</ele>
        <time>2021-08-06T09:30:17.340Z</time>
      </trkpt>
      <trkpt lat="46.9667" lon="8.76615">
        <ele>906</ele>
        <time>2021-08-06T09:30:18.340Z</time>
      </trkpt>
      <trkpt lat="46.9667" lon="8.76614">
        <ele>906</ele>
        <time>2021-08-06T09:30:19.340Z</time>
      </trkpt>
      <trkpt lat="46.9667" lon="8.76614">
        <ele>906</ele>
        <time>2021-08-06T09:30:20.339Z</time>
      </trkpt>
      <trkpt lat="46.9667" lon="8.76613">
        <ele>906</ele>
        <time>2021-08-06T09:30:21.340Z</time>
      </trkpt>
      <trkpt lat="46.9667" lon="8.76613">
        <ele>907</ele>
        <time>2021-08-06T09:30:22.340Z</time>
      </trkpt>
      <trkpt lat="46.9667" lon="8.76613">
        <ele>907</ele>
        <time>2021-08-06T09:30:23.340Z</time>
      </trkpt>
      <trkpt lat="46.96669" lon="8.76614">
        <ele>907</ele>
        <time>2021-08-06T09:30:24.340Z</time>
      </trkpt>
      <trkpt lat="46.96669" lon="8.76614">
        <ele>906</ele>
        <time>2021-08-06T09:30:25.339Z</time>
      </trkpt>
      <trkpt lat="46.96668" lon="8.76613">
        <ele>906</ele>
        <time>2021-08-06T09:30:26.339Z</time>
      </trkpt>
      <trkpt lat="46.96668" lon="8.76612">
        <ele>906</ele>
        <time>2021-08-06T09:30:27.340Z</time>
      </trkpt>
      <trkpt lat="46.96668" lon="8.76611">
        <ele>906</ele>
        <time>2021-08-06T09:30:28.339Z</time>
      </trkpt>
      <trkpt lat="46.9667" lon="8.76612">
        <ele>901</ele>
        <time>2021-08-06T09:30:29.341Z</time>
      </trkpt>
      <trkpt lat="46.9667" lon="8.76611">
        <ele>901</ele>
        <time>2021-08-06T09:30:30.341Z</time>
      </trkpt>
      <trkpt lat="46.9667" lon="8.76611">
        <ele>901</ele>
        <time>2021-08-06T09:30:31.340Z</time>
      </trkpt>
      <trkpt lat="46.96669" lon="8.76611">
        <ele>901</ele>
        <time>2021-08-06T09:30:32.341Z</time>
      </trkpt>
      <trkpt lat="46.96668" lon="8.7661">
        <ele>901</ele>
        <time>2021-08-06T09:30:33.340Z</time>
      </trkpt>
      <trkpt lat="46.96668" lon="8.76609">
        <ele>901</ele>
        <time>2021-08-06T09:30:34.341Z</time>
      </trkpt>
      <trkpt lat="46.96668" lon="8.76609">
        <ele>900</ele>
        <time>2021-08-06T09:30:35.340Z</time>
      </trkpt>
      <trkpt lat="46.96668" lon="8.76608">
        <ele>900</ele>
        <time>2021-08-06T09:30:36.341Z</time>
      </trkpt>
      <trkpt lat="46.96668" lon="8.76607">
        <ele>900</ele>
        <time>2021-08-06T09:30:37.341Z</time>
      </trkpt>
      <trkpt lat="46.96669" lon="8.76607">
        <ele>901</ele>
        <time>2021-08-06T09:30:38.341Z</time>
      </trkpt>
      <trkpt lat="46.9667" lon="8.76606">
        <ele>901</ele>
        <time>2021-08-06T09:30:39.341Z</time>
      </trkpt>
      <trkpt lat="46.9667" lon="8.76604">
        <ele>902</ele>
        <time>2021-08-06T09:30:40.341Z</time>
      </trkpt>
      <trkpt lat="46.96671" lon="8.76603">
        <ele>903</ele>
        <time>2021-08-06T09:30:41.340Z</time>
      </trkpt>
      <trkpt lat="46.96671" lon="8.76602">
        <ele>904</ele>
        <time>2021-08-06T09:30:42.341Z</time>
      </trkpt>
      <trkpt lat="46.96671" lon="8.76601">
        <ele>904</ele>
        <time>2021-08-06T09:30:43.341Z</time>
      </trkpt>
      <trkpt lat="46.96671" lon="8.766">
        <ele>905</ele>
        <time>2021-08-06T09:30:44.341Z</time>
      </trkpt>
      <trkpt lat="46.96671" lon="8.76599">
        <ele>905</ele>
        <time>2021-08-06T09:30:45.340Z</time>
      </trkpt>
      <trkpt lat="46.96671" lon="8.76599">
        <ele>906</ele>
        <time>2021-08-06T09:30:46.341Z</time>
      </trkpt>
      <trkpt lat="46.96671" lon="8.76598">
        <ele>906</ele>
        <time>2021-08-06T09:30:47.341Z</time>
      </trkpt>
      <trkpt lat="46.96671" lon="8.76597">
        <ele>907</ele>
        <time>2021-08-06T09:30:48.340Z</time>
      </trkpt>
      <trkpt lat="46.96672" lon="8.76595">
        <ele>907</ele>
        <time>2021-08-06T09:30:49.341Z</time>
      </trkpt>
      <trkpt lat="46.96671" lon="8.76594">
        <ele>908</ele>
        <time>2021-08-06T09:30:50.341Z</time>
      </trkpt>
      <trkpt lat="46.96672" lon="8.76593">
        <ele>908</ele>
        <time>2021-08-06T09:30:51.341Z</time>
      </trkpt>
      <trkpt lat="46.96672" lon="8.76593">
        <ele>909</ele>
        <time>2021-08-06T09:30:52.341Z</time>
      </trkpt>
      <trkpt lat="46.96673" lon="8.76593">
        <ele>910</ele>
        <time>2021-08-06T09:30:53.341Z</time>
      </trkpt>
      <trkpt lat="46.96674" lon="8.76593">
        <ele>910</ele>
        <time>2021-08-06T09:30:54.341Z</time>
      </trkpt>
      <trkpt lat="46.96674" lon="8.76592">
        <ele>911</ele>
        <time>2021-08-06T09:30:55.341Z</time>
      </trkpt>
      <trkpt lat="46.96675" lon="8.76591">
        <ele>912</ele>
        <time>2021-08-06T09:30:56.340Z</time>
      </trkpt>
      <trkpt lat="46.96675" lon="8.76589">
        <ele>912</ele>
        <time>2021-08-06T09:30:57.341Z</time>
      </trkpt>
      <trkpt lat="46.96675" lon="8.76588">
        <ele>913</ele>
        <time>2021-08-06T09:30:58.340Z</time>
      </trkpt>
      <trkpt lat="46.96676" lon="8.76587">
        <ele>913</ele>
        <time>2021-08-06T09:30:59.341Z</time>
      </trkpt>
      <trkpt lat="46.96677" lon="8.76587">
        <ele>914</ele>
        <time>2021-08-06T09:31:00.340Z</time>
      </trkpt>
      <trkpt lat="46.96677" lon="8.76585">
        <ele>914</ele>
        <time>2021-08-06T09:31:01.341Z</time>
      </trkpt>
      <trkpt lat="46.96678" lon="8.76584">
        <ele>915</ele>
        <time>2021-08-06T09:31:02.341Z</time>
      </trkpt>
      <trkpt lat="46.96678" lon="8.76583">
        <ele>915</ele>
        <time>2021-08-06T09:31:03.340Z</time>
      </trkpt>
      <trkpt lat="46.96679" lon="8.76582">
        <ele>916</ele>
        <time>2021-08-06T09:31:04.340Z</time>
      </trkpt>
      <trkpt lat="46.9668" lon="8.76581">
        <ele>916</ele>
        <time>2021-08-06T09:31:05.340Z</time>
      </trkpt>
      <trkpt lat="46.9668" lon="8.7658">
        <ele>916</ele>
        <time>2021-08-06T09:31:06.340Z</time>
      </trkpt>
      <trkpt lat="46.96679" lon="8.76579">
        <ele>916</ele>
        <time>2021-08-06T09:31:07.341Z</time>
      </trkpt>
      <trkpt lat="46.9668" lon="8.76578">
        <ele>916</ele>
        <time>2021-08-06T09:31:08.340Z</time>
      </trkpt>
      <trkpt lat="46.9668" lon="8.76577">
        <ele>915</ele>
        <time>2021-08-06T09:31:09.341Z</time>
      </trkpt>
      <trkpt lat="46.9668" lon="8.76576">
        <ele>915</ele>
        <time>2021-08-06T09:31:10.341Z</time>
      </trkpt>
      <trkpt lat="46.96682" lon="8.76574">
        <ele>915</ele>
        <time>2021-08-06T09:31:11.341Z</time>
      </trkpt>
      <trkpt lat="46.96682" lon="8.76572">
        <ele>915</ele>
        <time>2021-08-06T09:31:12.341Z</time>
      </trkpt>
      <trkpt lat="46.96682" lon="8.7657">
        <ele>915</ele>
        <time>2021-08-06T09:31:13.341Z</time>
      </trkpt>
      <trkpt lat="46.96681" lon="8.76569">
        <ele>915</ele>
        <time>2021-08-06T09:31:14.341Z</time>
      </trkpt>
      <trkpt lat="46.9668" lon="8.76568">
        <ele>914</ele>
        <time>2021-08-06T09:31:15.341Z</time>
      </trkpt>
      <trkpt lat="46.9668" lon="8.76568">
        <ele>915</ele>
        <time>2021-08-06T09:31:16.341Z</time>
      </trkpt>
      <trkpt lat="46.96681" lon="8.76567">
        <ele>915</ele>
        <time>2021-08-06T09:31:17.341Z</time>
      </trkpt>
      <trkpt lat="46.96682" lon="8.76567">
        <ele>915</ele>
        <time>2021-08-06T09:31:18.341Z</time>
      </trkpt>
      <trkpt lat="46.96682" lon="8.76566">
        <ele>915</ele>
        <time>2021-08-06T09:31:19.341Z</time>
      </trkpt>
      <trkpt lat="46.96682" lon="8.76565">
        <ele>915</ele>
        <time>2021-08-06T09:31:20.341Z</time>
      </trkpt>
      <trkpt lat="46.96682" lon="8.76564">
        <ele>915</ele>
        <time>2021-08-06T09:31:21.341Z</time>
      </trkpt>
      <trkpt lat="46.96682" lon="8.76562">
        <ele>915</ele>
        <time>2021-08-06T09:31:22.340Z</time>
      </trkpt>
      <trkpt lat="46.96682" lon="8.76561">
        <ele>914</ele>
        <time>2021-08-06T09:31:23.341Z</time>
      </trkpt>
      <trkpt lat="46.96683" lon="8.7656">
        <ele>914</ele>
        <time>2021-08-06T09:31:24.340Z</time>
      </trkpt>
      <trkpt lat="46.96683" lon="8.76559">
        <ele>914</ele>
        <time>2021-08-06T09:31:25.341Z</time>
      </trkpt>
      <trkpt lat="46.96684" lon="8.76558">
        <ele>913</ele>
        <time>2021-08-06T09:31:26.340Z</time>
      </trkpt>
      <trkpt lat="46.96684" lon="8.76557">
        <ele>913</ele>
        <time>2021-08-06T09:31:27.341Z</time>
      </trkpt>
      <trkpt lat="46.96684" lon="8.76556">
        <ele>912</ele>
        <time>2021-08-06T09:31:28.340Z</time>
      </trkpt>
      <trkpt lat="46.96684" lon="8.76555">
        <ele>911</ele>
        <time>2021-08-06T09:31:29.340Z</time>
      </trkpt>
      <trkpt lat="46.96684" lon="8.76554">
        <ele>910</ele>
        <time>2021-08-06T09:31:30.341Z</time>
      </trkpt>
      <trkpt lat="46.96684" lon="8.76553">
        <ele>909</ele>
        <time>2021-08-06T09:31:31.341Z</time>
      </trkpt>
      <trkpt lat="46.96685" lon="8.76551">
        <ele>908</ele>
        <time>2021-08-06T09:31:32.341Z</time>
      </trkpt>
      <trkpt lat="46.96686" lon="8.7655">
        <ele>908</ele>
        <time>2021-08-06T09:31:33.340Z</time>
      </trkpt>
      <trkpt lat="46.96686" lon="8.76548">
        <ele>907</ele>
        <time>2021-08-06T09:31:34.340Z</time>
      </trkpt>
      <trkpt lat="46.96686" lon="8.76547">
        <ele>906</ele>
        <time>2021-08-06T09:31:35.340Z</time>
      </trkpt>
      <trkpt lat="46.96686" lon="8.76546">
        <ele>905</ele>
        <time>2021-08-06T09:31:36.341Z</time>
      </trkpt>
      <trkpt lat="46.96686" lon="8.76545">
        <ele>904</ele>
        <time>2021-08-06T09:31:37.340Z</time>
      </trkpt>
      <trkpt lat="46.96686" lon="8.76543">
        <ele>904</ele>
        <time>2021-08-06T09:31:38.341Z</time>
      </trkpt>
      <trkpt lat="46.96686" lon="8.76541">
        <ele>903</ele>
        <time>2021-08-06T09:31:39.340Z</time>
      </trkpt>
      <trkpt lat="46.96687" lon="8.7654">
        <ele>903</ele>
        <time>2021-08-06T09:31:40.341Z</time>
      </trkpt>
      <trkpt lat="46.96687" lon="8.76538">
        <ele>903</ele>
        <time>2021-08-06T09:31:41.341Z</time>
      </trkpt>
      <trkpt lat="46.96686" lon="8.76537">
        <ele>903</ele>
        <time>2021-08-06T09:31:42.340Z</time>
      </trkpt>
      <trkpt lat="46.96686" lon="8.76535">
        <ele>903</ele>
        <time>2021-08-06T09:31:43.341Z</time>
      </trkpt>
      <trkpt lat="46.96684" lon="8.76535">
        <ele>903</ele>
        <time>2021-08-06T09:31:44.341Z</time>
      </trkpt>
      <trkpt lat="46.96683" lon="8.76535">
        <ele>903</ele>
        <time>2021-08-06T09:31:45.341Z</time>
      </trkpt>
      <trkpt lat="46.96682" lon="8.76535">
        <ele>903</ele>
        <time>2021-08-06T09:31:46.341Z</time>
      </trkpt>
      <trkpt lat="46.96682" lon="8.76534">
        <ele>902</ele>
        <time>2021-08-06T09:31:47.341Z</time>
      </trkpt>
      <trkpt lat="46.96682" lon="8.76533">
        <ele>902</ele>
        <time>2021-08-06T09:31:48.341Z</time>
      </trkpt>
      <trkpt lat="46.96682" lon="8.76532">
        <ele>903</ele>
        <time>2021-08-06T09:31:49.341Z</time>
      </trkpt>
      <trkpt lat="46.96682" lon="8.76531">
        <ele>903</ele>
        <time>2021-08-06T09:31:50.341Z</time>
      </trkpt>
      <trkpt lat="46.96682" lon="8.76529">
        <ele>904</ele>
        <time>2021-08-06T09:31:51.340Z</time>
      </trkpt>
      <trkpt lat="46.96682" lon="8.76528">
        <ele>904</ele>
        <time>2021-08-06T09:31:52.341Z</time>
      </trkpt>
      <trkpt lat="46.96681" lon="8.76527">
        <ele>904</ele>
        <time>2021-08-06T09:31:53.341Z</time>
      </trkpt>
      <trkpt lat="46.96681" lon="8.76526">
        <ele>904</ele>
        <time>2021-08-06T09:31:54.340Z</time>
      </trkpt>
      <trkpt lat="46.96681" lon="8.76525">
        <ele>905</ele>
        <time>2021-08-06T09:31:55.341Z</time>
      </trkpt>
      <trkpt lat="46.96681" lon="8.76523">
        <ele>905</ele>
        <time>2021-08-06T09:31:56.340Z</time>
      </trkpt>
      <trkpt lat="46.96681" lon="8.76522">
        <ele>906</ele>
        <time>2021-08-06T09:31:57.341Z</time>
      </trkpt>
      <trkpt lat="46.96681" lon="8.76521">
        <ele>906</ele>
        <time>2021-08-06T09:31:58.341Z</time>
      </trkpt>
      <trkpt lat="46.96681" lon="8.76519">
        <ele>906</ele>
        <time>2021-08-06T09:31:59.341Z</time>
      </trkpt>
      <trkpt lat="46.96681" lon="8.76518">
        <ele>906</ele>
        <time>2021-08-06T09:32:00.340Z</time>
      </trkpt>
      <trkpt lat="46.96681" lon="8.76517">
        <ele>906</ele>
        <time>2021-08-06T09:32:01.341Z</time>
      </trkpt>
      <trkpt lat="46.9668" lon="8.76515">
        <ele>905</ele>
        <time>2021-08-06T09:32:02.341Z</time>
      </trkpt>
      <trkpt lat="46.9668" lon="8.76514">
        <ele>905</ele>
        <time>2021-08-06T09:32:03.340Z</time>
      </trkpt>
      <trkpt lat="46.9668" lon="8.76513">
        <ele>905</ele>
        <time>2021-08-06T09:32:04.341Z</time>
      </trkpt>
      <trkpt lat="46.9668" lon="8.76512">
        <ele>905</ele>
        <time>2021-08-06T09:32:05.341Z</time>
      </trkpt>
      <trkpt lat="46.96679" lon="8.76511">
        <ele>905</ele>
        <time>2021-08-06T09:32:06.341Z</time>
      </trkpt>
      <trkpt lat="46.96679" lon="8.7651">
        <ele>905</ele>
        <time>2021-08-06T09:32:07.340Z</time>
      </trkpt>
      <trkpt lat="46.96679" lon="8.76509">
        <ele>904</ele>
        <time>2021-08-06T09:32:08.341Z</time>
      </trkpt>
      <trkpt lat="46.96679" lon="8.76508">
        <ele>904</ele>
        <time>2021-08-06T09:32:09.340Z</time>
      </trkpt>
      <trkpt lat="46.96678" lon="8.76507">
        <ele>904</ele>
        <time>2021-08-06T09:32:10.341Z</time>
      </trkpt>
      <trkpt lat="46.96678" lon="8.76505">
        <ele>904</ele>
        <time>2021-08-06T09:32:11.341Z</time>
      </trkpt>
      <trkpt lat="46.96677" lon="8.76503">
        <ele>904</ele>
        <time>2021-08-06T09:32:12.340Z</time>
      </trkpt>
      <trkpt lat="46.96677" lon="8.76501">
        <ele>904</ele>
        <time>2021-08-06T09:32:13.341Z</time>
      </trkpt>
      <trkpt lat="46.96677" lon="8.76499">
        <ele>904</ele>
        <time>2021-08-06T09:32:14.340Z</time>
      </trkpt>
      <trkpt lat="46.96676" lon="8.76498">
        <ele>904</ele>
        <time>2021-08-06T09:32:15.341Z</time>
      </trkpt>
      <trkpt lat="46.96675" lon="8.76497">
        <ele>904</ele>
        <time>2021-08-06T09:32:16.341Z</time>
      </trkpt>
      <trkpt lat="46.96674" lon="8.76496">
        <ele>904</ele>
        <time>2021-08-06T09:32:17.341Z</time>
      </trkpt>
      <trkpt lat="46.96673" lon="8.76495">
        <ele>904</ele>
        <time>2021-08-06T09:32:18.340Z</time>
      </trkpt>
      <trkpt lat="46.96673" lon="8.76494">
        <ele>905</ele>
        <time>2021-08-06T09:32:19.341Z</time>
      </trkpt>
      <trkpt lat="46.96672" lon="8.76493">
        <ele>905</ele>
        <time>2021-08-06T09:32:20.341Z</time>
      </trkpt>
      <trkpt lat="46.96672" lon="8.76492">
        <ele>905</ele>
        <time>2021-08-06T09:32:21.341Z</time>
      </trkpt>
      <trkpt lat="46.96672" lon="8.76491">
        <ele>905</ele>
        <time>2021-08-06T09:32:22.341Z</time>
      </trkpt>
      <trkpt lat="46.96671" lon="8.7649">
        <ele>905</ele>
        <time>2021-08-06T09:32:23.340Z</time>
      </trkpt>
      <trkpt lat="46.96671" lon="8.76488">
        <ele>904</ele>
        <time>2021-08-06T09:32:24.340Z</time>
      </trkpt>
      <trkpt lat="46.96669" lon="8.76487">
        <ele>904</ele>
        <time>2021-08-06T09:32:25.340Z</time>
      </trkpt>
      <trkpt lat="46.96668" lon="8.76486">
        <ele>904</ele>
        <time>2021-08-06T09:32:26.341Z</time>
      </trkpt>
      <trkpt lat="46.96668" lon="8.76485">
        <ele>904</ele>
        <time>2021-08-06T09:32:27.341Z</time>
      </trkpt>
      <trkpt lat="46.96667" lon="8.76484">
        <ele>904</ele>
        <time>2021-08-06T09:32:28.341Z</time>
      </trkpt>
      <trkpt lat="46.96666" lon="8.76483">
        <ele>905</ele>
        <time>2021-08-06T09:32:29.340Z</time>
      </trkpt>
      <trkpt lat="46.96665" lon="8.76482">
        <ele>905</ele>
        <time>2021-08-06T09:32:30.341Z</time>
      </trkpt>
      <trkpt lat="46.96665" lon="8.76481">
        <ele>904</ele>
        <time>2021-08-06T09:32:31.340Z</time>
      </trkpt>
      <trkpt lat="46.96665" lon="8.7648">
        <ele>904</ele>
        <time>2021-08-06T09:32:32.340Z</time>
      </trkpt>
      <trkpt lat="46.96665" lon="8.76479">
        <ele>905</ele>
        <time>2021-08-06T09:32:33.341Z</time>
      </trkpt>
      <trkpt lat="46.96665" lon="8.76478">
        <ele>905</ele>
        <time>2021-08-06T09:32:34.341Z</time>
      </trkpt>
      <trkpt lat="46.96665" lon="8.76477">
        <ele>905</ele>
        <time>2021-08-06T09:32:35.341Z</time>
      </trkpt>
      <trkpt lat="46.96665" lon="8.76476">
        <ele>906</ele>
        <time>2021-08-06T09:32:36.341Z</time>
      </trkpt>
      <trkpt lat="46.96664" lon="8.76476">
        <ele>906</ele>
        <time>2021-08-06T09:32:37.340Z</time>
      </trkpt>
      <trkpt lat="46.96663" lon="8.76475">
        <ele>906</ele>
        <time>2021-08-06T09:32:38.340Z</time>
      </trkpt>
      <trkpt lat="46.96662" lon="8.76474">
        <ele>906</ele>
        <time>2021-08-06T09:32:39.341Z</time>
      </trkpt>
      <trkpt lat="46.96662" lon="8.76473">
        <ele>907</ele>
        <time>2021-08-06T09:32:40.340Z</time>
      </trkpt>
      <trkpt lat="46.96662" lon="8.76472">
        <ele>907</ele>
        <time>2021-08-06T09:32:41.340Z</time>
      </trkpt>
      <trkpt lat="46.96662" lon="8.76471">
        <ele>907</ele>
        <time>2021-08-06T09:32:42.341Z</time>
      </trkpt>
      <trkpt lat="46.96661" lon="8.7647">
        <ele>907</ele>
        <time>2021-08-06T09:32:43.340Z</time>
      </trkpt>
      <trkpt lat="46.96661" lon="8.76469">
        <ele>908</ele>
        <time>2021-08-06T09:32:44.341Z</time>
      </trkpt>
      <trkpt lat="46.96661" lon="8.76468">
        <ele>908</ele>
        <time>2021-08-06T09:32:45.341Z</time>
      </trkpt>
      <trkpt lat="46.96661" lon="8.76467">
        <ele>909</ele>
        <time>2021-08-06T09:32:46.341Z</time>
      </trkpt>
      <trkpt lat="46.9666" lon="8.76467">
        <ele>910</ele>
        <time>2021-08-06T09:32:47.341Z</time>
      </trkpt>
      <trkpt lat="46.9666" lon="8.76466">
        <ele>911</ele>
        <time>2021-08-06T09:32:48.341Z</time>
      </trkpt>
      <trkpt lat="46.96659" lon="8.76465">
        <ele>912</ele>
        <time>2021-08-06T09:32:49.341Z</time>
      </trkpt>
      <trkpt lat="46.96659" lon="8.76464">
        <ele>912</ele>
        <time>2021-08-06T09:32:50.340Z</time>
      </trkpt>
      <trkpt lat="46.96658" lon="8.76463">
        <ele>913</ele>
        <time>2021-08-06T09:32:51.341Z</time>
      </trkpt>
      <trkpt lat="46.96657" lon="8.76462">
        <ele>914</ele>
        <time>2021-08-06T09:32:52.341Z</time>
      </trkpt>
      <trkpt lat="46.96656" lon="8.7646">
        <ele>915</ele>
        <time>2021-08-06T09:32:53.341Z</time>
      </trkpt>
      <trkpt lat="46.96655" lon="8.76459">
        <ele>916</ele>
        <time>2021-08-06T09:32:54.340Z</time>
      </trkpt>
      <trkpt lat="46.96654" lon="8.76458">
        <ele>916</ele>
        <time>2021-08-06T09:32:55.340Z</time>
      </trkpt>
      <trkpt lat="46.96653" lon="8.76457">
        <ele>917</ele>
        <time>2021-08-06T09:32:56.341Z</time>
      </trkpt>
      <trkpt lat="46.96652" lon="8.76456">
        <ele>917</ele>
        <time>2021-08-06T09:32:57.341Z</time>
      </trkpt>
      <trkpt lat="46.96651" lon="8.76455">
        <ele>918</ele>
        <time>2021-08-06T09:32:58.341Z</time>
      </trkpt>
      <trkpt lat="46.9665" lon="8.76454">
        <ele>918</ele>
        <time>2021-08-06T09:32:59.341Z</time>
      </trkpt>
      <trkpt lat="46.9665" lon="8.76453">
        <ele>918</ele>
        <time>2021-08-06T09:33:00.341Z</time>
      </trkpt>
      <trkpt lat="46.96649" lon="8.76453">
        <ele>919</ele>
        <time>2021-08-06T09:33:01.341Z</time>
      </trkpt>
      <trkpt lat="46.96649" lon="8.76452">
        <ele>918</ele>
        <time>2021-08-06T09:33:02.341Z</time>
      </trkpt>
      <trkpt lat="46.96649" lon="8.7645">
        <ele>918</ele>
        <time>2021-08-06T09:33:03.341Z</time>
      </trkpt>
      <trkpt lat="46.96649" lon="8.76449">
        <ele>918</ele>
        <time>2021-08-06T09:33:04.341Z</time>
      </trkpt>
      <trkpt lat="46.96649" lon="8.76448">
        <ele>918</ele>
        <time>2021-08-06T09:33:05.341Z</time>
      </trkpt>
      <trkpt lat="46.96649" lon="8.76447">
        <ele>917</ele>
        <time>2021-08-06T09:33:06.340Z</time>
      </trkpt>
      <trkpt lat="46.96649" lon="8.76446">
        <ele>917</ele>
        <time>2021-08-06T09:33:07.341Z</time>
      </trkpt>
      <trkpt lat="46.96649" lon="8.76444">
        <ele>918</ele>
        <time>2021-08-06T09:33:08.340Z</time>
      </trkpt>
      <trkpt lat="46.96649" lon="8.76443">
        <ele>918</ele>
        <time>2021-08-06T09:33:09.341Z</time>
      </trkpt>
      <trkpt lat="46.96649" lon="8.76442">
        <ele>918</ele>
        <time>2021-08-06T09:33:10.340Z</time>
      </trkpt>
      <trkpt lat="46.96649" lon="8.76441">
        <ele>918</ele>
        <time>2021-08-06T09:33:11.341Z</time>
      </trkpt>
      <trkpt lat="46.96649" lon="8.7644">
        <ele>919</ele>
        <time>2021-08-06T09:33:12.341Z</time>
      </trkpt>
      <trkpt lat="46.96648" lon="8.76439">
        <ele>919</ele>
        <time>2021-08-06T09:33:13.340Z</time>
      </trkpt>
      <trkpt lat="46.96648" lon="8.76437">
        <ele>920</ele>
        <time>2021-08-06T09:33:14.341Z</time>
      </trkpt>
      <trkpt lat="46.96648" lon="8.76435">
        <ele>920</ele>
        <time>2021-08-06T09:33:15.340Z</time>
      </trkpt>
      <trkpt lat="46.96648" lon="8.76434">
        <ele>920</ele>
        <time>2021-08-06T09:33:16.341Z</time>
      </trkpt>
      <trkpt lat="46.96649" lon="8.76432">
        <ele>921</ele>
        <time>2021-08-06T09:33:17.341Z</time>
      </trkpt>
      <trkpt lat="46.96649" lon="8.76429">
        <ele>921</ele>
        <time>2021-08-06T09:33:18.341Z</time>
      </trkpt>
      <trkpt lat="46.96648" lon="8.76426">
        <ele>922</ele>
        <time>2021-08-06T09:33:19.340Z</time>
      </trkpt>
      <trkpt lat="46.96647" lon="8.76425">
        <ele>924</ele>
        <time>2021-08-06T09:33:20.340Z</time>
      </trkpt>
      <trkpt lat="46.96647" lon="8.76425">
        <ele>925</ele>
        <time>2021-08-06T09:33:21.340Z</time>
      </trkpt>
      <trkpt lat="46.96646" lon="8.76423">
        <ele>926</ele>
        <time>2021-08-06T09:33:22.341Z</time>
      </trkpt>
      <trkpt lat="46.96646" lon="8.76422">
        <ele>926</ele>
        <time>2021-08-06T09:33:23.340Z</time>
      </trkpt>
      <trkpt lat="46.96645" lon="8.76421">
        <ele>927</ele>
        <time>2021-08-06T09:33:24.340Z</time>
      </trkpt>
      <trkpt lat="46.96645" lon="8.76419">
        <ele>928</ele>
        <time>2021-08-06T09:33:25.341Z</time>
      </trkpt>
      <trkpt lat="46.96644" lon="8.76418">
        <ele>928</ele>
        <time>2021-08-06T09:33:26.341Z</time>
      </trkpt>
      <trkpt lat="46.96644" lon="8.76417">
        <ele>929</ele>
        <time>2021-08-06T09:33:27.340Z</time>
      </trkpt>
      <trkpt lat="46.96644" lon="8.76415">
        <ele>929</ele>
        <time>2021-08-06T09:33:28.340Z</time>
      </trkpt>
      <trkpt lat="46.96644" lon="8.76414">
        <ele>930</ele>
        <time>2021-08-06T09:33:29.341Z</time>
      </trkpt>
      <trkpt lat="46.96644" lon="8.76413">
        <ele>930</ele>
        <time>2021-08-06T09:33:30.341Z</time>
      </trkpt>
      <trkpt lat="46.96644" lon="8.76412">
        <ele>930</ele>
        <time>2021-08-06T09:33:31.341Z</time>
      </trkpt>
      <trkpt lat="46.96646" lon="8.7641">
        <ele>929</ele>
        <time>2021-08-06T09:33:32.340Z</time>
      </trkpt>
      <trkpt lat="46.96646" lon="8.76408">
        <ele>929</ele>
        <time>2021-08-06T09:33:33.340Z</time>
      </trkpt>
      <trkpt lat="46.96647" lon="8.76407">
        <ele>929</ele>
        <time>2021-08-06T09:33:34.340Z</time>
      </trkpt>
      <trkpt lat="46.96647" lon="8.76406">
        <ele>928</ele>
        <time>2021-08-06T09:33:35.340Z</time>
      </trkpt>
      <trkpt lat="46.96647" lon="8.76405">
        <ele>928</ele>
        <time>2021-08-06T09:33:36.340Z</time>
      </trkpt>
      <trkpt lat="46.96647" lon="8.76404">
        <ele>927</ele>
        <time>2021-08-06T09:33:37.340Z</time>
      </trkpt>
      <trkpt lat="46.96646" lon="8.76403">
        <ele>927</ele>
        <time>2021-08-06T09:33:38.341Z</time>
      </trkpt>
      <trkpt lat="46.96646" lon="8.76403">
        <ele>926</ele>
        <time>2021-08-06T09:33:39.340Z</time>
      </trkpt>
      <trkpt lat="46.96645" lon="8.76402">
        <ele>926</ele>
        <time>2021-08-06T09:33:40.340Z</time>
      </trkpt>
      <trkpt lat="46.96644" lon="8.76401">
        <ele>926</ele>
        <time>2021-08-06T09:33:41.340Z</time>
      </trkpt>
      <trkpt lat="46.96644" lon="8.76401">
        <ele>925</ele>
        <time>2021-08-06T09:33:42.341Z</time>
      </trkpt>
      <trkpt lat="46.96644" lon="8.764">
        <ele>925</ele>
        <time>2021-08-06T09:33:43.341Z</time>
      </trkpt>
      <trkpt lat="46.96645" lon="8.76399">
        <ele>925</ele>
        <time>2021-08-06T09:33:44.341Z</time>
      </trkpt>
      <trkpt lat="46.96645" lon="8.76397">
        <ele>924</ele>
        <time>2021-08-06T09:33:45.341Z</time>
      </trkpt>
      <trkpt lat="46.96644" lon="8.76396">
        <ele>924</ele>
        <time>2021-08-06T09:33:46.340Z</time>
      </trkpt>
      <trkpt lat="46.96643" lon="8.76395">
        <ele>924</ele>
        <time>2021-08-06T09:33:47.341Z</time>
      </trkpt>
      <trkpt lat="46.96643" lon="8.76393">
        <ele>924</ele>
        <time>2021-08-06T09:33:48.340Z</time>
      </trkpt>
      <trkpt lat="46.96642" lon="8.76392">
        <ele>924</ele>
        <time>2021-08-06T09:33:49.340Z</time>
      </trkpt>
      <trkpt lat="46.96641" lon="8.76391">
        <ele>924</ele>
        <time>2021-08-06T09:33:50.341Z</time>
      </trkpt>
      <trkpt lat="46.9664" lon="8.7639">
        <ele>924</ele>
        <time>2021-08-06T09:33:51.341Z</time>
      </trkpt>
      <trkpt lat="46.96639" lon="8.76389">
        <ele>924</ele>
        <time>2021-08-06T09:33:52.341Z</time>
      </trkpt>
      <trkpt lat="46.96639" lon="8.76388">
        <ele>925</ele>
        <time>2021-08-06T09:33:53.341Z</time>
      </trkpt>
      <trkpt lat="46.96638" lon="8.76387">
        <ele>925</ele>
        <time>2021-08-06T09:33:54.340Z</time>
      </trkpt>
      <trkpt lat="46.96638" lon="8.76386">
        <ele>926</ele>
        <time>2021-08-06T09:33:55.341Z</time>
      </trkpt>
      <trkpt lat="46.96638" lon="8.76385">
        <ele>926</ele>
        <time>2021-08-06T09:33:56.341Z</time>
      </trkpt>
      <trkpt lat="46.96638" lon="8.76384">
        <ele>927</ele>
        <time>2021-08-06T09:33:57.341Z</time>
      </trkpt>
      <trkpt lat="46.96638" lon="8.76383">
        <ele>928</ele>
        <time>2021-08-06T09:33:58.341Z</time>
      </trkpt>
      <trkpt lat="46.96637" lon="8.76382">
        <ele>928</ele>
        <time>2021-08-06T09:33:59.341Z</time>
      </trkpt>
      <trkpt lat="46.96637" lon="8.7638">
        <ele>929</ele>
        <time>2021-08-06T09:34:00.341Z</time>
      </trkpt>
      <trkpt lat="46.96638" lon="8.7638">
        <ele>930</ele>
        <time>2021-08-06T09:34:01.341Z</time>
      </trkpt>
      <trkpt lat="46.96638" lon="8.76379">
        <ele>930</ele>
        <time>2021-08-06T09:34:02.341Z</time>
      </trkpt>
      <trkpt lat="46.96639" lon="8.76378">
        <ele>931</ele>
        <time>2021-08-06T09:34:03.341Z</time>
      </trkpt>
      <trkpt lat="46.96639" lon="8.76377">
        <ele>932</ele>
        <time>2021-08-06T09:34:04.341Z</time>
      </trkpt>
      <trkpt lat="46.9664" lon="8.76376">
        <ele>932</ele>
        <time>2021-08-06T09:34:05.341Z</time>
      </trkpt>
      <trkpt lat="46.9664" lon="8.76375">
        <ele>933</ele>
        <time>2021-08-06T09:34:06.341Z</time>
      </trkpt>
      <trkpt lat="46.96641" lon="8.76373">
        <ele>934</ele>
        <time>2021-08-06T09:34:07.341Z</time>
      </trkpt>
      <trkpt lat="46.96641" lon="8.76372">
        <ele>936</ele>
        <time>2021-08-06T09:34:08.341Z</time>
      </trkpt>
      <trkpt lat="46.96641" lon="8.76371">
        <ele>937</ele>
        <time>2021-08-06T09:34:09.341Z</time>
      </trkpt>
      <trkpt lat="46.96642" lon="8.76371">
        <ele>938</ele>
        <time>2021-08-06T09:34:10.341Z</time>
      </trkpt>
      <trkpt lat="46.96642" lon="8.7637">
        <ele>939</ele>
        <time>2021-08-06T09:34:11.341Z</time>
      </trkpt>
      <trkpt lat="46.96642" lon="8.76371">
        <ele>940</ele>
        <time>2021-08-06T09:34:12.340Z</time>
      </trkpt>
      <trkpt lat="46.96642" lon="8.7637">
        <ele>941</ele>
        <time>2021-08-06T09:34:13.341Z</time>
      </trkpt>
      <trkpt lat="46.96642" lon="8.76369">
        <ele>941</ele>
        <time>2021-08-06T09:34:14.341Z</time>
      </trkpt>
      <trkpt lat="46.96642" lon="8.76369">
        <ele>942</ele>
        <time>2021-08-06T09:34:15.341Z</time>
      </trkpt>
      <trkpt lat="46.96642" lon="8.76369">
        <ele>944</ele>
        <time>2021-08-06T09:34:16.341Z</time>
      </trkpt>
      <trkpt lat="46.96642" lon="8.76369">
        <ele>945</ele>
        <time>2021-08-06T09:34:17.340Z</time>
      </trkpt>
      <trkpt lat="46.96643" lon="8.76367">
        <ele>946</ele>
        <time>2021-08-06T09:34:18.340Z</time>
      </trkpt>
      <trkpt lat="46.96643" lon="8.76366">
        <ele>948</ele>
        <time>2021-08-06T09:34:19.341Z</time>
      </trkpt>
      <trkpt lat="46.96644" lon="8.76365">
        <ele>949</ele>
        <time>2021-08-06T09:34:20.341Z</time>
      </trkpt>
      <trkpt lat="46.96644" lon="8.76364">
        <ele>950</ele>
        <time>2021-08-06T09:34:21.340Z</time>
      </trkpt>
      <trkpt lat="46.96645" lon="8.76363">
        <ele>952</ele>
        <time>2021-08-06T09:34:22.341Z</time>
      </trkpt>
      <trkpt lat="46.96645" lon="8.76363">
        <ele>953</ele>
        <time>2021-08-06T09:34:23.341Z</time>
      </trkpt>
      <trkpt lat="46.96645" lon="8.76362">
        <ele>954</ele>
        <time>2021-08-06T09:34:24.341Z</time>
      </trkpt>
      <trkpt lat="46.96645" lon="8.76361">
        <ele>955</ele>
        <time>2021-08-06T09:34:25.340Z</time>
      </trkpt>
      <trkpt lat="46.96646" lon="8.7636">
        <ele>956</ele>
        <time>2021-08-06T09:34:26.341Z</time>
      </trkpt>
      <trkpt lat="46.96647" lon="8.76359">
        <ele>957</ele>
        <time>2021-08-06T09:34:27.340Z</time>
      </trkpt>
      <trkpt lat="46.96647" lon="8.76358">
        <ele>958</ele>
        <time>2021-08-06T09:34:28.340Z</time>
      </trkpt>
      <trkpt lat="46.96648" lon="8.76357">
        <ele>959</ele>
        <time>2021-08-06T09:34:29.341Z</time>
      </trkpt>
      <trkpt lat="46.96649" lon="8.76355">
        <ele>960</ele>
        <time>2021-08-06T09:34:30.341Z</time>
      </trkpt>
      <trkpt lat="46.96651" lon="8.76354">
        <ele>960</ele>
        <time>2021-08-06T09:34:31.340Z</time>
      </trkpt>
      <trkpt lat="46.96652" lon="8.76353">
        <ele>961</ele>
        <time>2021-08-06T09:34:32.341Z</time>
      </trkpt>
      <trkpt lat="46.96653" lon="8.76352">
        <ele>961</ele>
        <time>2021-08-06T09:34:33.341Z</time>
      </trkpt>
      <trkpt lat="46.96653" lon="8.76351">
        <ele>962</ele>
        <time>2021-08-06T09:34:34.340Z</time>
      </trkpt>
      <trkpt lat="46.96654" lon="8.7635">
        <ele>962</ele>
        <time>2021-08-06T09:34:35.340Z</time>
      </trkpt>
      <trkpt lat="46.96655" lon="8.76349">
        <ele>962</ele>
        <time>2021-08-06T09:34:36.340Z</time>
      </trkpt>
      <trkpt lat="46.96655" lon="8.76348">
        <ele>963</ele>
        <time>2021-08-06T09:34:37.341Z</time>
      </trkpt>
      <trkpt lat="46.96656" lon="8.76347">
        <ele>964</ele>
        <time>2021-08-06T09:34:38.340Z</time>
      </trkpt>
      <trkpt lat="46.96656" lon="8.76347">
        <ele>964</ele>
        <time>2021-08-06T09:34:39.341Z</time>
      </trkpt>
      <trkpt lat="46.96657" lon="8.76346">
        <ele>964</ele>
        <time>2021-08-06T09:34:40.340Z</time>
      </trkpt>
      <trkpt lat="46.96658" lon="8.76345">
        <ele>965</ele>
        <time>2021-08-06T09:34:41.341Z</time>
      </trkpt>
      <trkpt lat="46.96659" lon="8.76344">
        <ele>965</ele>
        <time>2021-08-06T09:34:42.340Z</time>
      </trkpt>
      <trkpt lat="46.96659" lon="8.76343">
        <ele>966</ele>
        <time>2021-08-06T09:34:43.340Z</time>
      </trkpt>
      <trkpt lat="46.9666" lon="8.76343">
        <ele>966</ele>
        <time>2021-08-06T09:34:44.341Z</time>
      </trkpt>
      <trkpt lat="46.9666" lon="8.76341">
        <ele>965</ele>
        <time>2021-08-06T09:34:45.340Z</time>
      </trkpt>
      <trkpt lat="46.9666" lon="8.7634">
        <ele>965</ele>
        <time>2021-08-06T09:34:46.341Z</time>
      </trkpt>
      <trkpt lat="46.9666" lon="8.76338">
        <ele>964</ele>
        <time>2021-08-06T09:34:47.341Z</time>
      </trkpt>
      <trkpt lat="46.96659" lon="8.76337">
        <ele>964</ele>
        <time>2021-08-06T09:34:48.340Z</time>
      </trkpt>
      <trkpt lat="46.96659" lon="8.76336">
        <ele>963</ele>
        <time>2021-08-06T09:34:49.341Z</time>
      </trkpt>
      <trkpt lat="46.96658" lon="8.76335">
        <ele>962</ele>
        <time>2021-08-06T09:34:50.341Z</time>
      </trkpt>
      <trkpt lat="46.96658" lon="8.76334">
        <ele>961</ele>
        <time>2021-08-06T09:34:51.341Z</time>
      </trkpt>
      <trkpt lat="46.96658" lon="8.76332">
        <ele>960</ele>
        <time>2021-08-06T09:34:52.341Z</time>
      </trkpt>
      <trkpt lat="46.96658" lon="8.76331">
        <ele>958</ele>
        <time>2021-08-06T09:34:53.341Z</time>
      </trkpt>
      <trkpt lat="46.96658" lon="8.76329">
        <ele>957</ele>
        <time>2021-08-06T09:34:54.340Z</time>
      </trkpt>
      <trkpt lat="46.96657" lon="8.76328">
        <ele>956</ele>
        <time>2021-08-06T09:34:55.341Z</time>
      </trkpt>
      <trkpt lat="46.96656" lon="8.76327">
        <ele>954</ele>
        <time>2021-08-06T09:34:56.341Z</time>
      </trkpt>
      <trkpt lat="46.96656" lon="8.76325">
        <ele>953</ele>
        <time>2021-08-06T09:34:57.341Z</time>
      </trkpt>
      <trkpt lat="46.96655" lon="8.76323">
        <ele>952</ele>
        <time>2021-08-06T09:34:58.340Z</time>
      </trkpt>
      <trkpt lat="46.96654" lon="8.76322">
        <ele>951</ele>
        <time>2021-08-06T09:34:59.340Z</time>
      </trkpt>
      <trkpt lat="46.96655" lon="8.7632">
        <ele>949</ele>
        <time>2021-08-06T09:35:00.341Z</time>
      </trkpt>
      <trkpt lat="46.96655" lon="8.76319">
        <ele>948</ele>
        <time>2021-08-06T09:35:01.341Z</time>
      </trkpt>
      <trkpt lat="46.96654" lon="8.76317">
        <ele>948</ele>
        <time>2021-08-06T09:35:02.341Z</time>
      </trkpt>
      <trkpt lat="46.96653" lon="8.76315">
        <ele>947</ele>
        <time>2021-08-06T09:35:03.341Z</time>
      </trkpt>
      <trkpt lat="46.96653" lon="8.76314">
        <ele>946</ele>
        <time>2021-08-06T09:35:04.340Z</time>
      </trkpt>
      <trkpt lat="46.96652" lon="8.76312">
        <ele>946</ele>
        <time>2021-08-06T09:35:05.341Z</time>
      </trkpt>
      <trkpt lat="46.96651" lon="8.76311">
        <ele>946</ele>
        <time>2021-08-06T09:35:06.341Z</time>
      </trkpt>
      <trkpt lat="46.9665" lon="8.76309">
        <ele>945</ele>
        <time>2021-08-06T09:35:07.340Z</time>
      </trkpt>
      <trkpt lat="46.9665" lon="8.76308">
        <ele>945</ele>
        <time>2021-08-06T09:35:08.340Z</time>
      </trkpt>
      <trkpt lat="46.96649" lon="8.76306">
        <ele>944</ele>
        <time>2021-08-06T09:35:09.341Z</time>
      </trkpt>
      <trkpt lat="46.96647" lon="8.76306">
        <ele>943</ele>
        <time>2021-08-06T09:35:10.341Z</time>
      </trkpt>
      <trkpt lat="46.96647" lon="8.76305">
        <ele>942</ele>
        <time>2021-08-06T09:35:11.341Z</time>
      </trkpt>
      <trkpt lat="46.96646" lon="8.76304">
        <ele>941</ele>
        <time>2021-08-06T09:35:12.341Z</time>
      </trkpt>
      <trkpt lat="46.96645" lon="8.76302">
        <ele>940</ele>
        <time>2021-08-06T09:35:13.340Z</time>
      </trkpt>
      <trkpt lat="46.96646" lon="8.763">
        <ele>939</ele>
        <time>2021-08-06T09:35:14.340Z</time>
      </trkpt>
      <trkpt lat="46.96646" lon="8.76299">
        <ele>939</ele>
        <time>2021-08-06T09:35:15.341Z</time>
      </trkpt>
      <trkpt lat="46.96647" lon="8.76297">
        <ele>939</ele>
        <time>2021-08-06T09:35:16.341Z</time>
      </trkpt>
      <trkpt lat="46.96646" lon="8.76296">
        <ele>938</ele>
        <time>2021-08-06T09:35:17.340Z</time>
      </trkpt>
      <trkpt lat="46.96646" lon="8.76296">
        <ele>938</ele>
        <time>2021-08-06T09:35:18.341Z</time>
      </trkpt>
      <trkpt lat="46.96645" lon="8.76294">
        <ele>938</ele>
        <time>2021-08-06T09:35:19.341Z</time>
      </trkpt>
      <trkpt lat="46.96645" lon="8.76294">
        <ele>938</ele>
        <time>2021-08-06T09:35:20.341Z</time>
      </trkpt>
      <trkpt lat="46.96644" lon="8.76293">
        <ele>939</ele>
        <time>2021-08-06T09:35:21.340Z</time>
      </trkpt>
      <trkpt lat="46.96643" lon="8.76292">
        <ele>939</ele>
        <time>2021-08-06T09:35:22.341Z</time>
      </trkpt>
      <trkpt lat="46.96643" lon="8.76292">
        <ele>938</ele>
        <time>2021-08-06T09:35:23.341Z</time>
      </trkpt>
      <trkpt lat="46.96642" lon="8.76291">
        <ele>938</ele>
        <time>2021-08-06T09:35:24.341Z</time>
      </trkpt>
      <trkpt lat="46.96642" lon="8.7629">
        <ele>938</ele>
        <time>2021-08-06T09:35:25.340Z</time>
      </trkpt>
      <trkpt lat="46.96641" lon="8.7629">
        <ele>938</ele>
        <time>2021-08-06T09:35:26.341Z</time>
      </trkpt>
      <trkpt lat="46.96641" lon="8.76289">
        <ele>938</ele>
        <time>2021-08-06T09:35:27.340Z</time>
      </trkpt>
      <trkpt lat="46.96641" lon="8.76287">
        <ele>937</ele>
        <time>2021-08-06T09:35:28.341Z</time>
      </trkpt>
      <trkpt lat="46.96641" lon="8.76286">
        <ele>937</ele>
        <time>2021-08-06T09:35:29.341Z</time>
      </trkpt>
      <trkpt lat="46.96641" lon="8.76285">
        <ele>937</ele>
        <time>2021-08-06T09:35:30.340Z</time>
      </trkpt>
      <trkpt lat="46.96641" lon="8.76283">
        <ele>937</ele>
        <time>2021-08-06T09:35:31.341Z</time>
      </trkpt>
      <trkpt lat="46.96641" lon="8.76282">
        <ele>937</ele>
        <time>2021-08-06T09:35:32.341Z</time>
      </trkpt>
      <trkpt lat="46.96641" lon="8.7628">
        <ele>937</ele>
        <time>2021-08-06T09:35:33.340Z</time>
      </trkpt>
      <trkpt lat="46.96641" lon="8.76279">
        <ele>936</ele>
        <time>2021-08-06T09:35:34.340Z</time>
      </trkpt>
      <trkpt lat="46.96642" lon="8.76277">
        <ele>936</ele>
        <time>2021-08-06T09:35:35.341Z</time>
      </trkpt>
      <trkpt lat="46.96642" lon="8.76275">
        <ele>936</ele>
        <time>2021-08-06T09:35:36.341Z</time>
      </trkpt>
      <trkpt lat="46.96643" lon="8.76274">
        <ele>936</ele>
        <time>2021-08-06T09:35:37.341Z</time>
      </trkpt>
      <trkpt lat="46.96643" lon="8.76272">
        <ele>936</ele>
        <time>2021-08-06T09:35:38.341Z</time>
      </trkpt>
      <trkpt lat="46.96643" lon="8.76271">
        <ele>936</ele>
        <time>2021-08-06T09:35:39.340Z</time>
      </trkpt>
      <trkpt lat="46.96643" lon="8.7627">
        <ele>937</ele>
        <time>2021-08-06T09:35:40.341Z</time>
      </trkpt>
      <trkpt lat="46.96644" lon="8.76268">
        <ele>937</ele>
        <time>2021-08-06T09:35:41.340Z</time>
      </trkpt>
      <trkpt lat="46.96645" lon="8.76267">
        <ele>937</ele>
        <time>2021-08-06T09:35:42.341Z</time>
      </trkpt>
      <trkpt lat="46.96646" lon="8.76265">
        <ele>938</ele>
        <time>2021-08-06T09:35:43.340Z</time>
      </trkpt>
      <trkpt lat="46.96646" lon="8.76265">
        <ele>938</ele>
        <time>2021-08-06T09:35:44.341Z</time>
      </trkpt>
      <trkpt lat="46.96647" lon="8.76264">
        <ele>939</ele>
        <time>2021-08-06T09:35:45.340Z</time>
      </trkpt>
      <trkpt lat="46.96647" lon="8.76262">
        <ele>939</ele>
        <time>2021-08-06T09:35:46.341Z</time>
      </trkpt>
      <trkpt lat="46.96646" lon="8.76261">
        <ele>938</ele>
        <time>2021-08-06T09:35:47.341Z</time>
      </trkpt>
      <trkpt lat="46.96646" lon="8.7626">
        <ele>938</ele>
        <time>2021-08-06T09:35:48.340Z</time>
      </trkpt>
      <trkpt lat="46.96646" lon="8.76258">
        <ele>938</ele>
        <time>2021-08-06T09:35:49.341Z</time>
      </trkpt>
      <trkpt lat="46.96646" lon="8.76256">
        <ele>938</ele>
        <time>2021-08-06T09:35:50.341Z</time>
      </trkpt>
      <trkpt lat="46.96646" lon="8.76255">
        <ele>938</ele>
        <time>2021-08-06T09:35:51.340Z</time>
      </trkpt>
      <trkpt lat="46.96647" lon="8.76253">
        <ele>937</ele>
        <time>2021-08-06T09:35:52.341Z</time>
      </trkpt>
      <trkpt lat="46.96648" lon="8.76252">
        <ele>937</ele>
        <time>2021-08-06T09:35:53.340Z</time>
      </trkpt>
      <trkpt lat="46.96648" lon="8.7625">
        <ele>937</ele>
        <time>2021-08-06T09:35:54.341Z</time>
      </trkpt>
      <trkpt lat="46.96648" lon="8.76249">
        <ele>937</ele>
        <time>2021-08-06T09:35:55.340Z</time>
      </trkpt>
      <trkpt lat="46.96649" lon="8.76247">
        <ele>937</ele>
        <time>2021-08-06T09:35:56.341Z</time>
      </trkpt>
      <trkpt lat="46.96648" lon="8.76246">
        <ele>936</ele>
        <time>2021-08-06T09:35:57.341Z</time>
      </trkpt>
      <trkpt lat="46.96648" lon="8.76245">
        <ele>936</ele>
        <time>2021-08-06T09:35:58.341Z</time>
      </trkpt>
      <trkpt lat="46.96648" lon="8.76243">
        <ele>936</ele>
        <time>2021-08-06T09:35:59.340Z</time>
      </trkpt>
      <trkpt lat="46.96648" lon="8.76242">
        <ele>935</ele>
        <time>2021-08-06T09:36:00.341Z</time>
      </trkpt>
      <trkpt lat="46.96648" lon="8.76241">
        <ele>935</ele>
        <time>2021-08-06T09:36:01.340Z</time>
      </trkpt>
      <trkpt lat="46.96647" lon="8.7624">
        <ele>935</ele>
        <time>2021-08-06T09:36:02.340Z</time>
      </trkpt>
      <trkpt lat="46.96647" lon="8.76239">
        <ele>935</ele>
        <time>2021-08-06T09:36:03.341Z</time>
      </trkpt>
      <trkpt lat="46.96647" lon="8.76238">
        <ele>935</ele>
        <time>2021-08-06T09:36:04.340Z</time>
      </trkpt>
      <trkpt lat="46.96647" lon="8.76236">
        <ele>935</ele>
        <time>2021-08-06T09:36:05.340Z</time>
      </trkpt>
      <trkpt lat="46.96647" lon="8.76235">
        <ele>935</ele>
        <time>2021-08-06T09:36:06.341Z</time>
      </trkpt>
      <trkpt lat="46.96646" lon="8.76234">
        <ele>935</ele>
        <time>2021-08-06T09:36:07.340Z</time>
      </trkpt>
      <trkpt lat="46.96645" lon="8.76233">
        <ele>935</ele>
        <time>2021-08-06T09:36:08.341Z</time>
      </trkpt>
      <trkpt lat="46.96645" lon="8.76231">
        <ele>935</ele>
        <time>2021-08-06T09:36:09.341Z</time>
      </trkpt>
      <trkpt lat="46.96644" lon="8.7623">
        <ele>935</ele>
        <time>2021-08-06T09:36:10.340Z</time>
      </trkpt>
      <trkpt lat="46.96644" lon="8.76229">
        <ele>936</ele>
        <time>2021-08-06T09:36:11.341Z</time>
      </trkpt>
      <trkpt lat="46.96644" lon="8.76227">
        <ele>936</ele>
        <time>2021-08-06T09:36:12.341Z</time>
      </trkpt>
      <trkpt lat="46.96644" lon="8.76226">
        <ele>936</ele>
        <time>2021-08-06T09:36:13.341Z</time>
      </trkpt>
      <trkpt lat="46.96644" lon="8.76223">
        <ele>936</ele>
        <time>2021-08-06T09:36:14.341Z</time>
      </trkpt>
      <trkpt lat="46.96644" lon="8.76222">
        <ele>936</ele>
        <time>2021-08-06T09:36:15.341Z</time>
      </trkpt>
      <trkpt lat="46.96643" lon="8.76221">
        <ele>936</ele>
        <time>2021-08-06T09:36:16.341Z</time>
      </trkpt>
      <trkpt lat="46.96643" lon="8.76219">
        <ele>937</ele>
        <time>2021-08-06T09:36:17.341Z</time>
      </trkpt>
      <trkpt lat="46.96642" lon="8.76218">
        <ele>937</ele>
        <time>2021-08-06T09:36:18.341Z</time>
      </trkpt>
      <trkpt lat="46.96642" lon="8.76216">
        <ele>937</ele>
        <time>2021-08-06T09:36:19.341Z</time>
      </trkpt>
      <trkpt lat="46.96641" lon="8.76215">
        <ele>937</ele>
        <time>2021-08-06T09:36:20.340Z</time>
      </trkpt>
      <trkpt lat="46.96641" lon="8.76214">
        <ele>938</ele>
        <time>2021-08-06T09:36:21.340Z</time>
      </trkpt>
      <trkpt lat="46.9664" lon="8.76213">
        <ele>938</ele>
        <time>2021-08-06T09:36:22.341Z</time>
      </trkpt>
      <trkpt lat="46.9664" lon="8.76211">
        <ele>938</ele>
        <time>2021-08-06T09:36:23.341Z</time>
      </trkpt>
      <trkpt lat="46.9664" lon="8.76209">
        <ele>939</ele>
        <time>2021-08-06T09:36:24.341Z</time>
      </trkpt>
      <trkpt lat="46.9664" lon="8.76207">
        <ele>940</ele>
        <time>2021-08-06T09:36:25.340Z</time>
      </trkpt>
      <trkpt lat="46.9664" lon="8.76207">
        <ele>941</ele>
        <time>2021-08-06T09:36:26.341Z</time>
      </trkpt>
      <trkpt lat="46.9664" lon="8.76205">
        <ele>942</ele>
        <time>2021-08-06T09:36:27.341Z</time>
      </trkpt>
      <trkpt lat="46.9664" lon="8.76204">
        <ele>943</ele>
        <time>2021-08-06T09:36:28.341Z</time>
      </trkpt>
      <trkpt lat="46.9664" lon="8.76202">
        <ele>943</ele>
        <time>2021-08-06T09:36:29.341Z</time>
      </trkpt>
      <trkpt lat="46.9664" lon="8.76201">
        <ele>944</ele>
        <time>2021-08-06T09:36:30.341Z</time>
      </trkpt>
      <trkpt lat="46.9664" lon="8.76199">
        <ele>944</ele>
        <time>2021-08-06T09:36:31.341Z</time>
      </trkpt>
      <trkpt lat="46.9664" lon="8.76198">
        <ele>945</ele>
        <time>2021-08-06T09:36:32.341Z</time>
      </trkpt>
      <trkpt lat="46.96639" lon="8.76196">
        <ele>945</ele>
        <time>2021-08-06T09:36:33.341Z</time>
      </trkpt>
      <trkpt lat="46.96639" lon="8.76195">
        <ele>946</ele>
        <time>2021-08-06T09:36:34.341Z</time>
      </trkpt>
      <trkpt lat="46.96639" lon="8.76193">
        <ele>946</ele>
        <time>2021-08-06T09:36:35.341Z</time>
      </trkpt>
      <trkpt lat="46.96639" lon="8.76192">
        <ele>946</ele>
        <time>2021-08-06T09:36:36.341Z</time>
      </trkpt>
      <trkpt lat="46.96639" lon="8.76191">
        <ele>946</ele>
        <time>2021-08-06T09:36:37.341Z</time>
      </trkpt>
      <trkpt lat="46.96638" lon="8.76189">
        <ele>947</ele>
        <time>2021-08-06T09:36:38.341Z</time>
      </trkpt>
      <trkpt lat="46.96637" lon="8.76187">
        <ele>947</ele>
        <time>2021-08-06T09:36:39.341Z</time>
      </trkpt>
      <trkpt lat="46.96637" lon="8.76186">
        <ele>947</ele>
        <time>2021-08-06T09:36:40.341Z</time>
      </trkpt>
      <trkpt lat="46.96636" lon="8.76185">
        <ele>947</ele>
        <time>2021-08-06T09:36:41.341Z</time>
      </trkpt>
      <trkpt lat="46.96636" lon="8.76184">
        <ele>946</ele>
        <time>2021-08-06T09:36:42.340Z</time>
      </trkpt>
      <trkpt lat="46.96636" lon="8.76182">
        <ele>946</ele>
        <time>2021-08-06T09:36:43.340Z</time>
      </trkpt>
      <trkpt lat="46.96636" lon="8.76181">
        <ele>946</ele>
        <time>2021-08-06T09:36:44.341Z</time>
      </trkpt>
      <trkpt lat="46.96635" lon="8.76179">
        <ele>946</ele>
        <time>2021-08-06T09:36:45.341Z</time>
      </trkpt>
      <trkpt lat="46.96635" lon="8.76178">
        <ele>946</ele>
        <time>2021-08-06T09:36:46.341Z</time>
      </trkpt>
      <trkpt lat="46.96635" lon="8.76177">
        <ele>946</ele>
        <time>2021-08-06T09:36:47.341Z</time>
      </trkpt>
      <trkpt lat="46.96635" lon="8.76175">
        <ele>946</ele>
        <time>2021-08-06T09:36:48.340Z</time>
      </trkpt>
      <trkpt lat="46.96634" lon="8.76174">
        <ele>946</ele>
        <time>2021-08-06T09:36:49.341Z</time>
      </trkpt>
      <trkpt lat="46.96634" lon="8.76172">
        <ele>945</ele>
        <time>2021-08-06T09:36:50.341Z</time>
      </trkpt>
      <trkpt lat="46.96633" lon="8.76171">
        <ele>945</ele>
        <time>2021-08-06T09:36:51.341Z</time>
      </trkpt>
      <trkpt lat="46.96633" lon="8.7617">
        <ele>945</ele>
        <time>2021-08-06T09:36:52.341Z</time>
      </trkpt>
      <trkpt lat="46.96633" lon="8.7617">
        <ele>944</ele>
        <time>2021-08-06T09:36:53.341Z</time>
      </trkpt>
      <trkpt lat="46.96632" lon="8.76169">
        <ele>944</ele>
        <time>2021-08-06T09:36:54.341Z</time>
      </trkpt>
      <trkpt lat="46.96632" lon="8.76168">
        <ele>944</ele>
        <time>2021-08-06T09:36:55.341Z</time>
      </trkpt>
      <trkpt lat="46.96632" lon="8.76166">
        <ele>944</ele>
        <time>2021-08-06T09:36:56.341Z</time>
      </trkpt>
      <trkpt lat="46.96632" lon="8.76165">
        <ele>943</ele>
        <time>2021-08-06T09:36:57.340Z</time>
      </trkpt>
      <trkpt lat="46.96631" lon="8.76163">
        <ele>943</ele>
        <time>2021-08-06T09:36:58.341Z</time>
      </trkpt>
      <trkpt lat="46.9663" lon="8.76162">
        <ele>943</ele>
        <time>2021-08-06T09:36:59.341Z</time>
      </trkpt>
      <trkpt lat="46.9663" lon="8.76161">
        <ele>943</ele>
        <time>2021-08-06T09:37:00.340Z</time>
      </trkpt>
      <trkpt lat="46.9663" lon="8.76159">
        <ele>943</ele>
        <time>2021-08-06T09:37:01.340Z</time>
      </trkpt>
      <trkpt lat="46.9663" lon="8.76159">
        <ele>943</ele>
        <time>2021-08-06T09:37:02.341Z</time>
      </trkpt>
      <trkpt lat="46.96631" lon="8.76157">
        <ele>942</ele>
        <time>2021-08-06T09:37:03.341Z</time>
      </trkpt>
      <trkpt lat="46.96631" lon="8.76155">
        <ele>942</ele>
        <time>2021-08-06T09:37:04.341Z</time>
      </trkpt>
      <trkpt lat="46.96631" lon="8.76154">
        <ele>942</ele>
        <time>2021-08-06T09:37:05.341Z</time>
      </trkpt>
      <trkpt lat="46.9663" lon="8.76152">
        <ele>943</ele>
        <time>2021-08-06T09:37:06.340Z</time>
      </trkpt>
      <trkpt lat="46.9663" lon="8.76151">
        <ele>943</ele>
        <time>2021-08-06T09:37:07.340Z</time>
      </trkpt>
      <trkpt lat="46.9663" lon="8.76149">
        <ele>943</ele>
        <time>2021-08-06T09:37:08.341Z</time>
      </trkpt>
      <trkpt lat="46.96629" lon="8.76148">
        <ele>944</ele>
        <time>2021-08-06T09:37:09.341Z</time>
      </trkpt>
      <trkpt lat="46.9663" lon="8.76147">
        <ele>944</ele>
        <time>2021-08-06T09:37:10.341Z</time>
      </trkpt>
      <trkpt lat="46.9663" lon="8.76145">
        <ele>945</ele>
        <time>2021-08-06T09:37:11.341Z</time>
      </trkpt>
      <trkpt lat="46.96629" lon="8.76144">
        <ele>946</ele>
        <time>2021-08-06T09:37:12.341Z</time>
      </trkpt>
      <trkpt lat="46.96629" lon="8.76143">
        <ele>946</ele>
        <time>2021-08-06T09:37:13.340Z</time>
      </trkpt>
      <trkpt lat="46.9663" lon="8.76142">
        <ele>947</ele>
        <time>2021-08-06T09:37:14.341Z</time>
      </trkpt>
      <trkpt lat="46.96629" lon="8.76141">
        <ele>947</ele>
        <time>2021-08-06T09:37:15.341Z</time>
      </trkpt>
      <trkpt lat="46.96629" lon="8.7614">
        <ele>948</ele>
        <time>2021-08-06T09:37:16.340Z</time>
      </trkpt>
      <trkpt lat="46.9663" lon="8.76139">
        <ele>949</ele>
        <time>2021-08-06T09:37:17.341Z</time>
      </trkpt>
      <trkpt lat="46.96629" lon="8.76138">
        <ele>949</ele>
        <time>2021-08-06T09:37:18.341Z</time>
      </trkpt>
      <trkpt lat="46.96629" lon="8.76136">
        <ele>949</ele>
        <time>2021-08-06T09:37:19.341Z</time>
      </trkpt>
      <trkpt lat="46.96629" lon="8.76135">
        <ele>949</ele>
        <time>2021-08-06T09:37:20.340Z</time>
      </trkpt>
      <trkpt lat="46.96629" lon="8.76134">
        <ele>948</ele>
        <time>2021-08-06T09:37:21.340Z</time>
      </trkpt>
      <trkpt lat="46.96628" lon="8.76133">
        <ele>948</ele>
        <time>2021-08-06T09:37:22.340Z</time>
      </trkpt>
      <trkpt lat="46.96628" lon="8.76133">
        <ele>948</ele>
        <time>2021-08-06T09:37:23.341Z</time>
      </trkpt>
      <trkpt lat="46.96629" lon="8.76131">
        <ele>948</ele>
        <time>2021-08-06T09:37:24.340Z</time>
      </trkpt>
      <trkpt lat="46.9663" lon="8.7613">
        <ele>948</ele>
        <time>2021-08-06T09:37:25.341Z</time>
      </trkpt>
      <trkpt lat="46.96629" lon="8.76129">
        <ele>949</ele>
        <time>2021-08-06T09:37:26.340Z</time>
      </trkpt>
      <trkpt lat="46.96628" lon="8.76128">
        <ele>949</ele>
        <time>2021-08-06T09:37:27.340Z</time>
      </trkpt>
      <trkpt lat="46.96628" lon="8.76127">
        <ele>949</ele>
        <time>2021-08-06T09:37:28.340Z</time>
      </trkpt>
      <trkpt lat="46.96627" lon="8.76126">
        <ele>949</ele>
        <time>2021-08-06T09:37:29.340Z</time>
      </trkpt>
      <trkpt lat="46.96627" lon="8.76124">
        <ele>949</ele>
        <time>2021-08-06T09:37:30.340Z</time>
      </trkpt>
      <trkpt lat="46.96627" lon="8.76123">
        <ele>950</ele>
        <time>2021-08-06T09:37:31.340Z</time>
      </trkpt>
      <trkpt lat="46.96627" lon="8.76122">
        <ele>950</ele>
        <time>2021-08-06T09:37:32.340Z</time>
      </trkpt>
      <trkpt lat="46.96627" lon="8.76121">
        <ele>951</ele>
        <time>2021-08-06T09:37:33.340Z</time>
      </trkpt>
      <trkpt lat="46.96626" lon="8.7612">
        <ele>951</ele>
        <time>2021-08-06T09:37:34.340Z</time>
      </trkpt>
      <trkpt lat="46.96626" lon="8.76119">
        <ele>951</ele>
        <time>2021-08-06T09:37:35.340Z</time>
      </trkpt>
      <trkpt lat="46.96625" lon="8.76118">
        <ele>951</ele>
        <time>2021-08-06T09:37:36.340Z</time>
      </trkpt>
      <trkpt lat="46.96624" lon="8.76117">
        <ele>952</ele>
        <time>2021-08-06T09:37:37.341Z</time>
      </trkpt>
      <trkpt lat="46.96623" lon="8.76116">
        <ele>952</ele>
        <time>2021-08-06T09:37:38.340Z</time>
      </trkpt>
      <trkpt lat="46.96622" lon="8.76115">
        <ele>952</ele>
        <time>2021-08-06T09:37:39.341Z</time>
      </trkpt>
      <trkpt lat="46.96622" lon="8.76113">
        <ele>953</ele>
        <time>2021-08-06T09:37:40.341Z</time>
      </trkpt>
      <trkpt lat="46.96621" lon="8.76112">
        <ele>954</ele>
        <time>2021-08-06T09:37:41.340Z</time>
      </trkpt>
      <trkpt lat="46.9662" lon="8.76112">
        <ele>954</ele>
        <time>2021-08-06T09:37:42.341Z</time>
      </trkpt>
      <trkpt lat="46.96619" lon="8.76111">
        <ele>955</ele>
        <time>2021-08-06T09:37:43.341Z</time>
      </trkpt>
      <trkpt lat="46.96619" lon="8.7611">
        <ele>956</ele>
        <time>2021-08-06T09:37:44.341Z</time>
      </trkpt>
      <trkpt lat="46.96619" lon="8.76108">
        <ele>956</ele>
        <time>2021-08-06T09:37:45.341Z</time>
      </trkpt>
      <trkpt lat="46.96618" lon="8.76107">
        <ele>957</ele>
        <time>2021-08-06T09:37:46.341Z</time>
      </trkpt>
      <trkpt lat="46.96617" lon="8.76106">
        <ele>957</ele>
        <time>2021-08-06T09:37:47.341Z</time>
      </trkpt>
      <trkpt lat="46.96616" lon="8.76104">
        <ele>957</ele>
        <time>2021-08-06T09:37:48.341Z</time>
      </trkpt>
      <trkpt lat="46.96615" lon="8.76103">
        <ele>957</ele>
        <time>2021-08-06T09:37:49.341Z</time>
      </trkpt>
      <trkpt lat="46.96614" lon="8.76102">
        <ele>957</ele>
        <time>2021-08-06T09:37:50.341Z</time>
      </trkpt>
      <trkpt lat="46.96614" lon="8.761">
        <ele>957</ele>
        <time>2021-08-06T09:37:51.341Z</time>
      </trkpt>
      <trkpt lat="46.96614" lon="8.76099">
        <ele>957</ele>
        <time>2021-08-06T09:37:52.340Z</time>
      </trkpt>
      <trkpt lat="46.96614" lon="8.76097">
        <ele>956</ele>
        <time>2021-08-06T09:37:53.341Z</time>
      </trkpt>
      <trkpt lat="46.96614" lon="8.76096">
        <ele>956</ele>
        <time>2021-08-06T09:37:54.341Z</time>
      </trkpt>
      <trkpt lat="46.96614" lon="8.76094">
        <ele>955</ele>
        <time>2021-08-06T09:37:55.341Z</time>
      </trkpt>
      <trkpt lat="46.96613" lon="8.76094">
        <ele>955</ele>
        <time>2021-08-06T09:37:56.341Z</time>
      </trkpt>
      <trkpt lat="46.96613" lon="8.76093">
        <ele>955</ele>
        <time>2021-08-06T09:37:57.341Z</time>
      </trkpt>
      <trkpt lat="46.96613" lon="8.76091">
        <ele>955</ele>
        <time>2021-08-06T09:37:58.341Z</time>
      </trkpt>
      <trkpt lat="46.96613" lon="8.76089">
        <ele>955</ele>
        <time>2021-08-06T09:37:59.341Z</time>
      </trkpt>
      <trkpt lat="46.96613" lon="8.76086">
        <ele>955</ele>
        <time>2021-08-06T09:38:00.341Z</time>
      </trkpt>
      <trkpt lat="46.96614" lon="8.76084">
        <ele>955</ele>
        <time>2021-08-06T09:38:01.341Z</time>
      </trkpt>
      <trkpt lat="46.96614" lon="8.76083">
        <ele>956</ele>
        <time>2021-08-06T09:38:02.340Z</time>
      </trkpt>
      <trkpt lat="46.96614" lon="8.76082">
        <ele>956</ele>
        <time>2021-08-06T09:38:03.340Z</time>
      </trkpt>
      <trkpt lat="46.96612" lon="8.76081">
        <ele>956</ele>
        <time>2021-08-06T09:38:04.341Z</time>
      </trkpt>
      <trkpt lat="46.96612" lon="8.76079">
        <ele>956</ele>
        <time>2021-08-06T09:38:05.341Z</time>
      </trkpt>
      <trkpt lat="46.96612" lon="8.76077">
        <ele>957</ele>
        <time>2021-08-06T09:38:06.341Z</time>
      </trkpt>
      <trkpt lat="46.96612" lon="8.76074">
        <ele>957</ele>
        <time>2021-08-06T09:38:07.341Z</time>
      </trkpt>
      <trkpt lat="46.96611" lon="8.76073">
        <ele>956</ele>
        <time>2021-08-06T09:38:08.340Z</time>
      </trkpt>
      <trkpt lat="46.96611" lon="8.76072">
        <ele>957</ele>
        <time>2021-08-06T09:38:09.340Z</time>
      </trkpt>
      <trkpt lat="46.96612" lon="8.76071">
        <ele>957</ele>
        <time>2021-08-06T09:38:10.340Z</time>
      </trkpt>
      <trkpt lat="46.96611" lon="8.7607">
        <ele>958</ele>
        <time>2021-08-06T09:38:11.340Z</time>
      </trkpt>
      <trkpt lat="46.96609" lon="8.76068">
        <ele>958</ele>
        <time>2021-08-06T09:38:12.340Z</time>
      </trkpt>
      <trkpt lat="46.96608" lon="8.76067">
        <ele>959</ele>
        <time>2021-08-06T09:38:13.340Z</time>
      </trkpt>
      <trkpt lat="46.96606" lon="8.76066">
        <ele>959</ele>
        <time>2021-08-06T09:38:14.340Z</time>
      </trkpt>
      <trkpt lat="46.96604" lon="8.76065">
        <ele>959</ele>
        <time>2021-08-06T09:38:15.340Z</time>
      </trkpt>
      <trkpt lat="46.96603" lon="8.76064">
        <ele>959</ele>
        <time>2021-08-06T09:38:16.340Z</time>
      </trkpt>
      <trkpt lat="46.96602" lon="8.76063">
        <ele>959</ele>
        <time>2021-08-06T09:38:17.341Z</time>
      </trkpt>
      <trkpt lat="46.96602" lon="8.76062">
        <ele>959</ele>
        <time>2021-08-06T09:38:18.340Z</time>
      </trkpt>
      <trkpt lat="46.96601" lon="8.76061">
        <ele>958</ele>
        <time>2021-08-06T09:38:19.341Z</time>
      </trkpt>
      <trkpt lat="46.966" lon="8.76059">
        <ele>958</ele>
        <time>2021-08-06T09:38:20.341Z</time>
      </trkpt>
      <trkpt lat="46.966" lon="8.76058">
        <ele>957</ele>
        <time>2021-08-06T09:38:21.341Z</time>
      </trkpt>
      <trkpt lat="46.96599" lon="8.76057">
        <ele>957</ele>
        <time>2021-08-06T09:38:22.341Z</time>
      </trkpt>
      <trkpt lat="46.96598" lon="8.76056">
        <ele>957</ele>
        <time>2021-08-06T09:38:23.340Z</time>
      </trkpt>
      <trkpt lat="46.96597" lon="8.76054">
        <ele>956</ele>
        <time>2021-08-06T09:38:24.341Z</time>
      </trkpt>
      <trkpt lat="46.96597" lon="8.76053">
        <ele>956</ele>
        <time>2021-08-06T09:38:25.341Z</time>
      </trkpt>
      <trkpt lat="46.96597" lon="8.76052">
        <ele>956</ele>
        <time>2021-08-06T09:38:26.341Z</time>
      </trkpt>
      <trkpt lat="46.96596" lon="8.7605">
        <ele>956</ele>
        <time>2021-08-06T09:38:27.341Z</time>
      </trkpt>
      <trkpt lat="46.96596" lon="8.7605">
        <ele>956</ele>
        <time>2021-08-06T09:38:28.340Z</time>
      </trkpt>
      <trkpt lat="46.96596" lon="8.76049">
        <ele>955</ele>
        <time>2021-08-06T09:38:29.341Z</time>
      </trkpt>
      <trkpt lat="46.96596" lon="8.76047">
        <ele>956</ele>
        <time>2021-08-06T09:38:30.341Z</time>
      </trkpt>
      <trkpt lat="46.96596" lon="8.76046">
        <ele>956</ele>
        <time>2021-08-06T09:38:31.341Z</time>
      </trkpt>
      <trkpt lat="46.96596" lon="8.76045">
        <ele>956</ele>
        <time>2021-08-06T09:38:32.341Z</time>
      </trkpt>
      <trkpt lat="46.96596" lon="8.76044">
        <ele>957</ele>
        <time>2021-08-06T09:38:33.340Z</time>
      </trkpt>
      <trkpt lat="46.96597" lon="8.76041">
        <ele>957</ele>
        <time>2021-08-06T09:38:34.341Z</time>
      </trkpt>
      <trkpt lat="46.96596" lon="8.7604">
        <ele>958</ele>
        <time>2021-08-06T09:38:35.340Z</time>
      </trkpt>
      <trkpt lat="46.96596" lon="8.76039">
        <ele>958</ele>
        <time>2021-08-06T09:38:36.341Z</time>
      </trkpt>
      <trkpt lat="46.96597" lon="8.76036">
        <ele>959</ele>
        <time>2021-08-06T09:38:37.340Z</time>
      </trkpt>
      <trkpt lat="46.96596" lon="8.76035">
        <ele>959</ele>
        <time>2021-08-06T09:38:38.340Z</time>
      </trkpt>
      <trkpt lat="46.96596" lon="8.76033">
        <ele>960</ele>
        <time>2021-08-06T09:38:39.340Z</time>
      </trkpt>
      <trkpt lat="46.96596" lon="8.76031">
        <ele>960</ele>
        <time>2021-08-06T09:38:40.341Z</time>
      </trkpt>
      <trkpt lat="46.96596" lon="8.7603">
        <ele>961</ele>
        <time>2021-08-06T09:38:41.340Z</time>
      </trkpt>
      <trkpt lat="46.96596" lon="8.76029">
        <ele>962</ele>
        <time>2021-08-06T09:38:42.341Z</time>
      </trkpt>
      <trkpt lat="46.96596" lon="8.76027">
        <ele>963</ele>
        <time>2021-08-06T09:38:43.341Z</time>
      </trkpt>
      <trkpt lat="46.96596" lon="8.76026">
        <ele>963</ele>
        <time>2021-08-06T09:38:44.341Z</time>
      </trkpt>
      <trkpt lat="46.96597" lon="8.76024">
        <ele>964</ele>
        <time>2021-08-06T09:38:45.341Z</time>
      </trkpt>
      <trkpt lat="46.96597" lon="8.76022">
        <ele>964</ele>
        <time>2021-08-06T09:38:46.341Z</time>
      </trkpt>
      <trkpt lat="46.96596" lon="8.76021">
        <ele>964</ele>
        <time>2021-08-06T09:38:47.340Z</time>
      </trkpt>
      <trkpt lat="46.96596" lon="8.7602">
        <ele>965</ele>
        <time>2021-08-06T09:38:48.340Z</time>
      </trkpt>
      <trkpt lat="46.96597" lon="8.76018">
        <ele>965</ele>
        <time>2021-08-06T09:38:49.340Z</time>
      </trkpt>
      <trkpt lat="46.96597" lon="8.76017">
        <ele>965</ele>
        <time>2021-08-06T09:38:50.341Z</time>
      </trkpt>
      <trkpt lat="46.96597" lon="8.76016">
        <ele>966</ele>
        <time>2021-08-06T09:38:51.341Z</time>
      </trkpt>
      <trkpt lat="46.96597" lon="8.76014">
        <ele>966</ele>
        <time>2021-08-06T09:38:52.341Z</time>
      </trkpt>
      <trkpt lat="46.96597" lon="8.76013">
        <ele>966</ele>
        <time>2021-08-06T09:38:53.340Z</time>
      </trkpt>
      <trkpt lat="46.96597" lon="8.76012">
        <ele>966</ele>
        <time>2021-08-06T09:38:54.341Z</time>
      </trkpt>
      <trkpt lat="46.96597" lon="8.76011">
        <ele>967</ele>
        <time>2021-08-06T09:38:55.341Z</time>
      </trkpt>
      <trkpt lat="46.96596" lon="8.7601">
        <ele>967</ele>
        <time>2021-08-06T09:38:56.341Z</time>
      </trkpt>
      <trkpt lat="46.96596" lon="8.76009">
        <ele>967</ele>
        <time>2021-08-06T09:38:57.340Z</time>
      </trkpt>
      <trkpt lat="46.96595" lon="8.76008">
        <ele>967</ele>
        <time>2021-08-06T09:38:58.341Z</time>
      </trkpt>
      <trkpt lat="46.96595" lon="8.76006">
        <ele>968</ele>
        <time>2021-08-06T09:38:59.340Z</time>
      </trkpt>
      <trkpt lat="46.96595" lon="8.76005">
        <ele>968</ele>
        <time>2021-08-06T09:39:00.340Z</time>
      </trkpt>
      <trkpt lat="46.96595" lon="8.76004">
        <ele>968</ele>
        <time>2021-08-06T09:39:01.341Z</time>
      </trkpt>
      <trkpt lat="46.96596" lon="8.76002">
        <ele>968</ele>
        <time>2021-08-06T09:39:02.341Z</time>
      </trkpt>
      <trkpt lat="46.96596" lon="8.76">
        <ele>967</ele>
        <time>2021-08-06T09:39:03.341Z</time>
      </trkpt>
      <trkpt lat="46.96596" lon="8.75999">
        <ele>967</ele>
        <time>2021-08-06T09:39:04.341Z</time>
      </trkpt>
      <trkpt lat="46.96595" lon="8.75997">
        <ele>967</ele>
        <time>2021-08-06T09:39:05.340Z</time>
      </trkpt>
      <trkpt lat="46.96595" lon="8.75996">
        <ele>968</ele>
        <time>2021-08-06T09:39:06.341Z</time>
      </trkpt>
      <trkpt lat="46.96594" lon="8.75995">
        <ele>968</ele>
        <time>2021-08-06T09:39:07.341Z</time>
      </trkpt>
      <trkpt lat="46.96592" lon="8.75994">
        <ele>969</ele>
        <time>2021-08-06T09:39:08.341Z</time>
      </trkpt>
      <trkpt lat="46.96592" lon="8.75993">
        <ele>969</ele>
        <time>2021-08-06T09:39:09.341Z</time>
      </trkpt>
      <trkpt lat="46.96592" lon="8.75991">
        <ele>969</ele>
        <time>2021-08-06T09:39:10.340Z</time>
      </trkpt>
      <trkpt lat="46.96591" lon="8.7599">
        <ele>969</ele>
        <time>2021-08-06T09:39:11.341Z</time>
      </trkpt>
      <trkpt lat="46.96591" lon="8.75989">
        <ele>969</ele>
        <time>2021-08-06T09:39:12.341Z</time>
      </trkpt>
      <trkpt lat="46.9659" lon="8.75988">
        <ele>969</ele>
        <time>2021-08-06T09:39:13.341Z</time>
      </trkpt>
      <trkpt lat="46.96588" lon="8.75987">
        <ele>970</ele>
        <time>2021-08-06T09:39:14.340Z</time>
      </trkpt>
      <trkpt lat="46.96587" lon="8.75986">
        <ele>970</ele>
        <time>2021-08-06T09:39:15.341Z</time>
      </trkpt>
      <trkpt lat="46.96587" lon="8.75984">
        <ele>970</ele>
        <time>2021-08-06T09:39:16.341Z</time>
      </trkpt>
      <trkpt lat="46.96587" lon="8.75983">
        <ele>970</ele>
        <time>2021-08-06T09:39:17.341Z</time>
      </trkpt>
      <trkpt lat="46.96587" lon="8.75981">
        <ele>970</ele>
        <time>2021-08-06T09:39:18.341Z</time>
      </trkpt>
      <trkpt lat="46.96586" lon="8.7598">
        <ele>970</ele>
        <time>2021-08-06T09:39:19.341Z</time>
      </trkpt>
      <trkpt lat="46.96584" lon="8.75979">
        <ele>970</ele>
        <time>2021-08-06T09:39:20.341Z</time>
      </trkpt>
      <trkpt lat="46.96583" lon="8.75978">
        <ele>970</ele>
        <time>2021-08-06T09:39:21.341Z</time>
      </trkpt>
      <trkpt lat="46.96581" lon="8.75977">
        <ele>970</ele>
        <time>2021-08-06T09:39:22.341Z</time>
      </trkpt>
      <trkpt lat="46.96581" lon="8.75977">
        <ele>969</ele>
        <time>2021-08-06T09:39:23.340Z</time>
      </trkpt>
      <trkpt lat="46.96581" lon="8.75976">
        <ele>970</ele>
        <time>2021-08-06T09:39:24.340Z</time>
      </trkpt>
      <trkpt lat="46.96581" lon="8.75975">
        <ele>970</ele>
        <time>2021-08-06T09:39:25.340Z</time>
      </trkpt>
      <trkpt lat="46.9658" lon="8.75975">
        <ele>970</ele>
        <time>2021-08-06T09:39:26.341Z</time>
      </trkpt>
      <trkpt lat="46.96579" lon="8.75974">
        <ele>970</ele>
        <time>2021-08-06T09:39:27.341Z</time>
      </trkpt>
      <trkpt lat="46.96578" lon="8.75973">
        <ele>970</ele>
        <time>2021-08-06T09:39:28.341Z</time>
      </trkpt>
      <trkpt lat="46.96577" lon="8.75973">
        <ele>970</ele>
        <time>2021-08-06T09:39:29.341Z</time>
      </trkpt>
      <trkpt lat="46.96577" lon="8.75972">
        <ele>969</ele>
        <time>2021-08-06T09:39:30.341Z</time>
      </trkpt>
      <trkpt lat="46.96576" lon="8.75971">
        <ele>968</ele>
        <time>2021-08-06T09:39:31.341Z</time>
      </trkpt>
      <trkpt lat="46.96576" lon="8.75969">
        <ele>967</ele>
        <time>2021-08-06T09:39:32.341Z</time>
      </trkpt>
      <trkpt lat="46.96576" lon="8.75968">
        <ele>966</ele>
        <time>2021-08-06T09:39:33.341Z</time>
      </trkpt>
      <trkpt lat="46.96576" lon="8.75966">
        <ele>965</ele>
        <time>2021-08-06T09:39:34.340Z</time>
      </trkpt>
      <trkpt lat="46.96575" lon="8.75964">
        <ele>964</ele>
        <time>2021-08-06T09:39:35.341Z</time>
      </trkpt>
      <trkpt lat="46.96575" lon="8.75962">
        <ele>964</ele>
        <time>2021-08-06T09:39:36.341Z</time>
      </trkpt>
      <trkpt lat="46.96574" lon="8.7596">
        <ele>963</ele>
        <time>2021-08-06T09:39:37.341Z</time>
      </trkpt>
      <trkpt lat="46.96574" lon="8.75959">
        <ele>963</ele>
        <time>2021-08-06T09:39:38.341Z</time>
      </trkpt>
      <trkpt lat="46.96573" lon="8.75957">
        <ele>963</ele>
        <time>2021-08-06T09:39:39.340Z</time>
      </trkpt>
      <trkpt lat="46.96572" lon="8.75955">
        <ele>963</ele>
        <time>2021-08-06T09:39:40.340Z</time>
      </trkpt>
      <trkpt lat="46.96572" lon="8.75954">
        <ele>963</ele>
        <time>2021-08-06T09:39:41.341Z</time>
      </trkpt>
      <trkpt lat="46.96571" lon="8.75952">
        <ele>963</ele>
        <time>2021-08-06T09:39:42.340Z</time>
      </trkpt>
      <trkpt lat="46.96571" lon="8.75951">
        <ele>963</ele>
        <time>2021-08-06T09:39:43.341Z</time>
      </trkpt>
      <trkpt lat="46.9657" lon="8.75949">
        <ele>963</ele>
        <time>2021-08-06T09:39:44.341Z</time>
      </trkpt>
      <trkpt lat="46.9657" lon="8.75947">
        <ele>963</ele>
        <time>2021-08-06T09:39:45.340Z</time>
      </trkpt>
      <trkpt lat="46.9657" lon="8.75946">
        <ele>963</ele>
        <time>2021-08-06T09:39:46.341Z</time>
      </trkpt>
      <trkpt lat="46.9657" lon="8.75944">
        <ele>963</ele>
        <time>2021-08-06T09:39:47.341Z</time>
      </trkpt>
      <trkpt lat="46.96569" lon="8.75942">
        <ele>963</ele>
        <time>2021-08-06T09:39:48.340Z</time>
      </trkpt>
      <trkpt lat="46.96569" lon="8.7594">
        <ele>962</ele>
        <time>2021-08-06T09:39:49.341Z</time>
      </trkpt>
      <trkpt lat="46.96569" lon="8.75939">
        <ele>962</ele>
        <time>2021-08-06T09:39:50.341Z</time>
      </trkpt>
      <trkpt lat="46.96569" lon="8.75936">
        <ele>962</ele>
        <time>2021-08-06T09:39:51.341Z</time>
      </trkpt>
      <trkpt lat="46.9657" lon="8.75934">
        <ele>962</ele>
        <time>2021-08-06T09:39:52.340Z</time>
      </trkpt>
      <trkpt lat="46.9657" lon="8.75932">
        <ele>962</ele>
        <time>2021-08-06T09:39:53.341Z</time>
      </trkpt>
      <trkpt lat="46.9657" lon="8.7593">
        <ele>962</ele>
        <time>2021-08-06T09:39:54.340Z</time>
      </trkpt>
      <trkpt lat="46.9657" lon="8.75928">
        <ele>963</ele>
        <time>2021-08-06T09:39:55.340Z</time>
      </trkpt>
      <trkpt lat="46.9657" lon="8.75925">
        <ele>963</ele>
        <time>2021-08-06T09:39:56.341Z</time>
      </trkpt>
      <trkpt lat="46.9657" lon="8.75924">
        <ele>963</ele>
        <time>2021-08-06T09:39:57.341Z</time>
      </trkpt>
      <trkpt lat="46.96569" lon="8.75922">
        <ele>964</ele>
        <time>2021-08-06T09:39:58.341Z</time>
      </trkpt>
      <trkpt lat="46.96569" lon="8.75921">
        <ele>964</ele>
        <time>2021-08-06T09:39:59.341Z</time>
      </trkpt>
      <trkpt lat="46.96569" lon="8.75919">
        <ele>964</ele>
        <time>2021-08-06T09:40:00.341Z</time>
      </trkpt>
      <trkpt lat="46.96568" lon="8.75918">
        <ele>965</ele>
        <time>2021-08-06T09:40:01.340Z</time>
      </trkpt>
      <trkpt lat="46.96567" lon="8.75917">
        <ele>965</ele>
        <time>2021-08-06T09:40:02.340Z</time>
      </trkpt>
      <trkpt lat="46.96566" lon="8.75915">
        <ele>965</ele>
        <time>2021-08-06T09:40:03.341Z</time>
      </trkpt>
      <trkpt lat="46.96565" lon="8.75914">
        <ele>965</ele>
        <time>2021-08-06T09:40:04.341Z</time>
      </trkpt>
      <trkpt lat="46.96564" lon="8.75912">
        <ele>965</ele>
        <time>2021-08-06T09:40:05.341Z</time>
      </trkpt>
      <trkpt lat="46.96564" lon="8.7591">
        <ele>965</ele>
        <time>2021-08-06T09:40:06.340Z</time>
      </trkpt>
      <trkpt lat="46.96564" lon="8.75908">
        <ele>965</ele>
        <time>2021-08-06T09:40:07.340Z</time>
      </trkpt>
      <trkpt lat="46.96564" lon="8.75906">
        <ele>965</ele>
        <time>2021-08-06T09:40:08.341Z</time>
      </trkpt>
      <trkpt lat="46.96562" lon="8.75905">
        <ele>966</ele>
        <time>2021-08-06T09:40:09.341Z</time>
      </trkpt>
      <trkpt lat="46.96561" lon="8.75904">
        <ele>966</ele>
        <time>2021-08-06T09:40:10.340Z</time>
      </trkpt>
      <trkpt lat="46.9656" lon="8.75902">
        <ele>966</ele>
        <time>2021-08-06T09:40:11.341Z</time>
      </trkpt>
      <trkpt lat="46.9656" lon="8.75901">
        <ele>967</ele>
        <time>2021-08-06T09:40:12.340Z</time>
      </trkpt>
      <trkpt lat="46.9656" lon="8.75899">
        <ele>967</ele>
        <time>2021-08-06T09:40:13.341Z</time>
      </trkpt>
      <trkpt lat="46.9656" lon="8.75897">
        <ele>967</ele>
        <time>2021-08-06T09:40:14.340Z</time>
      </trkpt>
      <trkpt lat="46.96559" lon="8.75896">
        <ele>967</ele>
        <time>2021-08-06T09:40:15.341Z</time>
      </trkpt>
      <trkpt lat="46.96559" lon="8.75895">
        <ele>968</ele>
        <time>2021-08-06T09:40:16.341Z</time>
      </trkpt>
      <trkpt lat="46.96559" lon="8.75893">
        <ele>969</ele>
        <time>2021-08-06T09:40:17.340Z</time>
      </trkpt>
      <trkpt lat="46.96558" lon="8.75892">
        <ele>969</ele>
        <time>2021-08-06T09:40:18.341Z</time>
      </trkpt>
      <trkpt lat="46.96557" lon="8.75891">
        <ele>970</ele>
        <time>2021-08-06T09:40:19.341Z</time>
      </trkpt>
      <trkpt lat="46.96556" lon="8.7589">
        <ele>970</ele>
        <time>2021-08-06T09:40:20.341Z</time>
      </trkpt>
      <trkpt lat="46.96556" lon="8.75889">
        <ele>971</ele>
        <time>2021-08-06T09:40:21.341Z</time>
      </trkpt>
      <trkpt lat="46.96555" lon="8.75888">
        <ele>971</ele>
        <time>2021-08-06T09:40:22.340Z</time>
      </trkpt>
      <trkpt lat="46.96555" lon="8.75886">
        <ele>971</ele>
        <time>2021-08-06T09:40:23.341Z</time>
      </trkpt>
      <trkpt lat="46.96553" lon="8.75885">
        <ele>971</ele>
        <time>2021-08-06T09:40:24.341Z</time>
      </trkpt>
      <trkpt lat="46.96553" lon="8.75884">
        <ele>972</ele>
        <time>2021-08-06T09:40:25.341Z</time>
      </trkpt>
      <trkpt lat="46.96551" lon="8.75884">
        <ele>972</ele>
        <time>2021-08-06T09:40:26.341Z</time>
      </trkpt>
      <trkpt lat="46.96551" lon="8.75882">
        <ele>972</ele>
        <time>2021-08-06T09:40:27.340Z</time>
      </trkpt>
      <trkpt lat="46.96551" lon="8.7588">
        <ele>972</ele>
        <time>2021-08-06T09:40:28.341Z</time>
      </trkpt>
      <trkpt lat="46.96549" lon="8.7588">
        <ele>972</ele>
        <time>2021-08-06T09:40:29.341Z</time>
      </trkpt>
      <trkpt lat="46.96548" lon="8.75879">
        <ele>973</ele>
        <time>2021-08-06T09:40:30.340Z</time>
      </trkpt>
      <trkpt lat="46.96548" lon="8.75877">
        <ele>973</ele>
        <time>2021-08-06T09:40:31.341Z</time>
      </trkpt>
      <trkpt lat="46.96547" lon="8.75876">
        <ele>973</ele>
        <time>2021-08-06T09:40:32.341Z</time>
      </trkpt>
      <trkpt lat="46.96547" lon="8.75875">
        <ele>973</ele>
        <time>2021-08-06T09:40:33.341Z</time>
      </trkpt>
      <trkpt lat="46.96545" lon="8.75874">
        <ele>973</ele>
        <time>2021-08-06T09:40:34.340Z</time>
      </trkpt>
      <trkpt lat="46.96545" lon="8.75873">
        <ele>973</ele>
        <time>2021-08-06T09:40:35.341Z</time>
      </trkpt>
      <trkpt lat="46.96544" lon="8.75871">
        <ele>974</ele>
        <time>2021-08-06T09:40:36.341Z</time>
      </trkpt>
      <trkpt lat="46.96544" lon="8.7587">
        <ele>974</ele>
        <time>2021-08-06T09:40:37.341Z</time>
      </trkpt>
      <trkpt lat="46.96543" lon="8.75868">
        <ele>974</ele>
        <time>2021-08-06T09:40:38.340Z</time>
      </trkpt>
      <trkpt lat="46.96542" lon="8.75867">
        <ele>974</ele>
        <time>2021-08-06T09:40:39.341Z</time>
      </trkpt>
      <trkpt lat="46.96543" lon="8.75865">
        <ele>974</ele>
        <time>2021-08-06T09:40:40.341Z</time>
      </trkpt>
      <trkpt lat="46.96542" lon="8.75863">
        <ele>975</ele>
        <time>2021-08-06T09:40:41.341Z</time>
      </trkpt>
      <trkpt lat="46.96542" lon="8.75862">
        <ele>975</ele>
        <time>2021-08-06T09:40:42.340Z</time>
      </trkpt>
      <trkpt lat="46.96541" lon="8.7586">
        <ele>976</ele>
        <time>2021-08-06T09:40:43.341Z</time>
      </trkpt>
      <trkpt lat="46.96541" lon="8.75859">
        <ele>976</ele>
        <time>2021-08-06T09:40:44.341Z</time>
      </trkpt>
      <trkpt lat="46.96541" lon="8.75857">
        <ele>977</ele>
        <time>2021-08-06T09:40:45.341Z</time>
      </trkpt>
      <trkpt lat="46.96541" lon="8.75855">
        <ele>977</ele>
        <time>2021-08-06T09:40:46.341Z</time>
      </trkpt>
      <trkpt lat="46.96541" lon="8.75854">
        <ele>977</ele>
        <time>2021-08-06T09:40:47.340Z</time>
      </trkpt>
      <trkpt lat="46.9654" lon="8.75853">
        <ele>978</ele>
        <time>2021-08-06T09:40:48.341Z</time>
      </trkpt>
      <trkpt lat="46.9654" lon="8.75851">
        <ele>978</ele>
        <time>2021-08-06T09:40:49.341Z</time>
      </trkpt>
      <trkpt lat="46.9654" lon="8.75849">
        <ele>978</ele>
        <time>2021-08-06T09:40:50.341Z</time>
      </trkpt>
      <trkpt lat="46.9654" lon="8.75847">
        <ele>978</ele>
        <time>2021-08-06T09:40:51.340Z</time>
      </trkpt>
      <trkpt lat="46.9654" lon="8.75846">
        <ele>978</ele>
        <time>2021-08-06T09:40:52.341Z</time>
      </trkpt>
      <trkpt lat="46.96539" lon="8.75844">
        <ele>978</ele>
        <time>2021-08-06T09:40:53.341Z</time>
      </trkpt>
      <trkpt lat="46.96539" lon="8.75843">
        <ele>978</ele>
        <time>2021-08-06T09:40:54.341Z</time>
      </trkpt>
      <trkpt lat="46.96538" lon="8.75842">
        <ele>978</ele>
        <time>2021-08-06T09:40:55.341Z</time>
      </trkpt>
      <trkpt lat="46.96538" lon="8.7584">
        <ele>977</ele>
        <time>2021-08-06T09:40:56.341Z</time>
      </trkpt>
      <trkpt lat="46.96538" lon="8.75839">
        <ele>977</ele>
        <time>2021-08-06T09:40:57.341Z</time>
      </trkpt>
      <trkpt lat="46.96537" lon="8.75837">
        <ele>977</ele>
        <time>2021-08-06T09:40:58.341Z</time>
      </trkpt>
      <trkpt lat="46.96537" lon="8.75836">
        <ele>976</ele>
        <time>2021-08-06T09:40:59.341Z</time>
      </trkpt>
      <trkpt lat="46.96538" lon="8.75835">
        <ele>976</ele>
        <time>2021-08-06T09:41:00.341Z</time>
      </trkpt>
      <trkpt lat="46.96538" lon="8.75834">
        <ele>976</ele>
        <time>2021-08-06T09:41:01.341Z</time>
      </trkpt>
      <trkpt lat="46.96539" lon="8.75833">
        <ele>975</ele>
        <time>2021-08-06T09:41:02.341Z</time>
      </trkpt>
      <trkpt lat="46.96539" lon="8.75832">
        <ele>975</ele>
        <time>2021-08-06T09:41:03.340Z</time>
      </trkpt>
      <trkpt lat="46.9654" lon="8.75828">
        <ele>973</ele>
        <time>2021-08-06T09:41:04.341Z</time>
      </trkpt>
      <trkpt lat="46.9654" lon="8.75826">
        <ele>973</ele>
        <time>2021-08-06T09:41:05.341Z</time>
      </trkpt>
      <trkpt lat="46.9654" lon="8.75825">
        <ele>973</ele>
        <time>2021-08-06T09:41:06.341Z</time>
      </trkpt>
      <trkpt lat="46.96539" lon="8.75824">
        <ele>973</ele>
        <time>2021-08-06T09:41:07.341Z</time>
      </trkpt>
      <trkpt lat="46.96539" lon="8.75823">
        <ele>973</ele>
        <time>2021-08-06T09:41:08.341Z</time>
      </trkpt>
      <trkpt lat="46.96538" lon="8.75821">
        <ele>974</ele>
        <time>2021-08-06T09:41:09.341Z</time>
      </trkpt>
      <trkpt lat="46.96538" lon="8.7582">
        <ele>974</ele>
        <time>2021-08-06T09:41:10.341Z</time>
      </trkpt>
      <trkpt lat="46.96538" lon="8.75819">
        <ele>975</ele>
        <time>2021-08-06T09:41:11.341Z</time>
      </trkpt>
      <trkpt lat="46.96537" lon="8.75818">
        <ele>975</ele>
        <time>2021-08-06T09:41:12.340Z</time>
      </trkpt>
      <trkpt lat="46.96537" lon="8.75816">
        <ele>976</ele>
        <time>2021-08-06T09:41:13.341Z</time>
      </trkpt>
      <trkpt lat="46.96536" lon="8.75815">
        <ele>976</ele>
        <time>2021-08-06T09:41:14.340Z</time>
      </trkpt>
      <trkpt lat="46.96536" lon="8.75814">
        <ele>977</ele>
        <time>2021-08-06T09:41:15.340Z</time>
      </trkpt>
      <trkpt lat="46.96536" lon="8.75813">
        <ele>977</ele>
        <time>2021-08-06T09:41:16.341Z</time>
      </trkpt>
      <trkpt lat="46.96536" lon="8.75812">
        <ele>977</ele>
        <time>2021-08-06T09:41:17.340Z</time>
      </trkpt>
      <trkpt lat="46.96536" lon="8.7581">
        <ele>977</ele>
        <time>2021-08-06T09:41:18.340Z</time>
      </trkpt>
      <trkpt lat="46.96535" lon="8.75809">
        <ele>977</ele>
        <time>2021-08-06T09:41:19.340Z</time>
      </trkpt>
      <trkpt lat="46.96534" lon="8.75809">
        <ele>977</ele>
        <time>2021-08-06T09:41:20.340Z</time>
      </trkpt>
      <trkpt lat="46.96533" lon="8.75808">
        <ele>978</ele>
        <time>2021-08-06T09:41:21.341Z</time>
      </trkpt>
      <trkpt lat="46.96532" lon="8.75806">
        <ele>978</ele>
        <time>2021-08-06T09:41:22.340Z</time>
      </trkpt>
      <trkpt lat="46.96532" lon="8.75805">
        <ele>978</ele>
        <time>2021-08-06T09:41:23.340Z</time>
      </trkpt>
      <trkpt lat="46.96531" lon="8.75804">
        <ele>978</ele>
        <time>2021-08-06T09:41:24.340Z</time>
      </trkpt>
      <trkpt lat="46.96532" lon="8.75802">
        <ele>978</ele>
        <time>2021-08-06T09:41:25.340Z</time>
      </trkpt>
      <trkpt lat="46.96533" lon="8.758">
        <ele>978</ele>
        <time>2021-08-06T09:41:26.341Z</time>
      </trkpt>
      <trkpt lat="46.96532" lon="8.75799">
        <ele>978</ele>
        <time>2021-08-06T09:41:27.341Z</time>
      </trkpt>
      <trkpt lat="46.96532" lon="8.75797">
        <ele>978</ele>
        <time>2021-08-06T09:41:28.340Z</time>
      </trkpt>
      <trkpt lat="46.96531" lon="8.75796">
        <ele>978</ele>
        <time>2021-08-06T09:41:29.340Z</time>
      </trkpt>
      <trkpt lat="46.96531" lon="8.75795">
        <ele>978</ele>
        <time>2021-08-06T09:41:30.340Z</time>
      </trkpt>
      <trkpt lat="46.9653" lon="8.75795">
        <ele>978</ele>
        <time>2021-08-06T09:41:31.340Z</time>
      </trkpt>
      <trkpt lat="46.9653" lon="8.75794">
        <ele>978</ele>
        <time>2021-08-06T09:41:32.340Z</time>
      </trkpt>
      <trkpt lat="46.9653" lon="8.75793">
        <ele>977</ele>
        <time>2021-08-06T09:41:33.340Z</time>
      </trkpt>
      <trkpt lat="46.9653" lon="8.75792">
        <ele>977</ele>
        <time>2021-08-06T09:41:34.340Z</time>
      </trkpt>
      <trkpt lat="46.9653" lon="8.75791">
        <ele>978</ele>
        <time>2021-08-06T09:41:35.340Z</time>
      </trkpt>
      <trkpt lat="46.9653" lon="8.7579">
        <ele>978</ele>
        <time>2021-08-06T09:41:36.340Z</time>
      </trkpt>
      <trkpt lat="46.96529" lon="8.75789">
        <ele>978</ele>
        <time>2021-08-06T09:41:37.340Z</time>
      </trkpt>
      <trkpt lat="46.96529" lon="8.75788">
        <ele>979</ele>
        <time>2021-08-06T09:41:38.340Z</time>
      </trkpt>
      <trkpt lat="46.96529" lon="8.75787">
        <ele>980</ele>
        <time>2021-08-06T09:41:39.340Z</time>
      </trkpt>
      <trkpt lat="46.96528" lon="8.75785">
        <ele>981</ele>
        <time>2021-08-06T09:41:40.340Z</time>
      </trkpt>
      <trkpt lat="46.96528" lon="8.75783">
        <ele>982</ele>
        <time>2021-08-06T09:41:41.340Z</time>
      </trkpt>
      <trkpt lat="46.96528" lon="8.75782">
        <ele>983</ele>
        <time>2021-08-06T09:41:42.340Z</time>
      </trkpt>
      <trkpt lat="46.96527" lon="8.75781">
        <ele>983</ele>
        <time>2021-08-06T09:41:43.341Z</time>
      </trkpt>
      <trkpt lat="46.96527" lon="8.7578">
        <ele>984</ele>
        <time>2021-08-06T09:41:44.341Z</time>
      </trkpt>
      <trkpt lat="46.96526" lon="8.75778">
        <ele>985</ele>
        <time>2021-08-06T09:41:45.340Z</time>
      </trkpt>
      <trkpt lat="46.96526" lon="8.75777">
        <ele>985</ele>
        <time>2021-08-06T09:41:46.340Z</time>
      </trkpt>
      <trkpt lat="46.96525" lon="8.75776">
        <ele>986</ele>
        <time>2021-08-06T09:41:47.341Z</time>
      </trkpt>
      <trkpt lat="46.96526" lon="8.75774">
        <ele>986</ele>
        <time>2021-08-06T09:41:48.341Z</time>
      </trkpt>
      <trkpt lat="46.96526" lon="8.75772">
        <ele>986</ele>
        <time>2021-08-06T09:41:49.341Z</time>
      </trkpt>
      <trkpt lat="46.96526" lon="8.75771">
        <ele>987</ele>
        <time>2021-08-06T09:41:50.341Z</time>
      </trkpt>
      <trkpt lat="46.96526" lon="8.75769">
        <ele>987</ele>
        <time>2021-08-06T09:41:51.341Z</time>
      </trkpt>
      <trkpt lat="46.96526" lon="8.75768">
        <ele>987</ele>
        <time>2021-08-06T09:41:52.341Z</time>
      </trkpt>
      <trkpt lat="46.96526" lon="8.75766">
        <ele>987</ele>
        <time>2021-08-06T09:41:53.341Z</time>
      </trkpt>
      <trkpt lat="46.96525" lon="8.75765">
        <ele>987</ele>
        <time>2021-08-06T09:41:54.341Z</time>
      </trkpt>
      <trkpt lat="46.96525" lon="8.75763">
        <ele>987</ele>
        <time>2021-08-06T09:41:55.341Z</time>
      </trkpt>
      <trkpt lat="46.96524" lon="8.75761">
        <ele>987</ele>
        <time>2021-08-06T09:41:56.341Z</time>
      </trkpt>
      <trkpt lat="46.96526" lon="8.75758">
        <ele>987</ele>
        <time>2021-08-06T09:41:57.340Z</time>
      </trkpt>
      <trkpt lat="46.96526" lon="8.75757">
        <ele>987</ele>
        <time>2021-08-06T09:41:58.341Z</time>
      </trkpt>
      <trkpt lat="46.96526" lon="8.75755">
        <ele>987</ele>
        <time>2021-08-06T09:41:59.341Z</time>
      </trkpt>
      <trkpt lat="46.96526" lon="8.75754">
        <ele>988</ele>
        <time>2021-08-06T09:42:00.341Z</time>
      </trkpt>
      <trkpt lat="46.96526" lon="8.75753">
        <ele>988</ele>
        <time>2021-08-06T09:42:01.341Z</time>
      </trkpt>
      <trkpt lat="46.96526" lon="8.75752">
        <ele>987</ele>
        <time>2021-08-06T09:42:02.340Z</time>
      </trkpt>
      <trkpt lat="46.96526" lon="8.75751">
        <ele>987</ele>
        <time>2021-08-06T09:42:03.341Z</time>
      </trkpt>
      <trkpt lat="46.96526" lon="8.75749">
        <ele>987</ele>
        <time>2021-08-06T09:42:04.341Z</time>
      </trkpt>
      <trkpt lat="46.96526" lon="8.75747">
        <ele>986</ele>
        <time>2021-08-06T09:42:05.341Z</time>
      </trkpt>
      <trkpt lat="46.96527" lon="8.75745">
        <ele>986</ele>
        <time>2021-08-06T09:42:06.341Z</time>
      </trkpt>
      <trkpt lat="46.96526" lon="8.75744">
        <ele>986</ele>
        <time>2021-08-06T09:42:07.341Z</time>
      </trkpt>
      <trkpt lat="46.96526" lon="8.75743">
        <ele>985</ele>
        <time>2021-08-06T09:42:08.341Z</time>
      </trkpt>
      <trkpt lat="46.96526" lon="8.75742">
        <ele>984</ele>
        <time>2021-08-06T09:42:09.340Z</time>
      </trkpt>
      <trkpt lat="46.96526" lon="8.7574">
        <ele>984</ele>
        <time>2021-08-06T09:42:10.341Z</time>
      </trkpt>
      <trkpt lat="46.96526" lon="8.75739">
        <ele>983</ele>
        <time>2021-08-06T09:42:11.340Z</time>
      </trkpt>
      <trkpt lat="46.96525" lon="8.75738">
        <ele>983</ele>
        <time>2021-08-06T09:42:12.340Z</time>
      </trkpt>
      <trkpt lat="46.96525" lon="8.75736">
        <ele>982</ele>
        <time>2021-08-06T09:42:13.341Z</time>
      </trkpt>
      <trkpt lat="46.96525" lon="8.75734">
        <ele>982</ele>
        <time>2021-08-06T09:42:14.341Z</time>
      </trkpt>
      <trkpt lat="46.96525" lon="8.75733">
        <ele>982</ele>
        <time>2021-08-06T09:42:15.341Z</time>
      </trkpt>
      <trkpt lat="46.96525" lon="8.75732">
        <ele>983</ele>
        <time>2021-08-06T09:42:16.341Z</time>
      </trkpt>
      <trkpt lat="46.96524" lon="8.7573">
        <ele>983</ele>
        <time>2021-08-06T09:42:17.341Z</time>
      </trkpt>
      <trkpt lat="46.96524" lon="8.75729">
        <ele>984</ele>
        <time>2021-08-06T09:42:18.341Z</time>
      </trkpt>
      <trkpt lat="46.96524" lon="8.75728">
        <ele>984</ele>
        <time>2021-08-06T09:42:19.341Z</time>
      </trkpt>
      <trkpt lat="46.96525" lon="8.75726">
        <ele>984</ele>
        <time>2021-08-06T09:42:20.340Z</time>
      </trkpt>
      <trkpt lat="46.96525" lon="8.75725">
        <ele>985</ele>
        <time>2021-08-06T09:42:21.341Z</time>
      </trkpt>
      <trkpt lat="46.96524" lon="8.75723">
        <ele>985</ele>
        <time>2021-08-06T09:42:22.341Z</time>
      </trkpt>
      <trkpt lat="46.96524" lon="8.75722">
        <ele>985</ele>
        <time>2021-08-06T09:42:23.341Z</time>
      </trkpt>
      <trkpt lat="46.96523" lon="8.75721">
        <ele>985</ele>
        <time>2021-08-06T09:42:24.340Z</time>
      </trkpt>
      <trkpt lat="46.96522" lon="8.7572">
        <ele>985</ele>
        <time>2021-08-06T09:42:25.341Z</time>
      </trkpt>
      <trkpt lat="46.96522" lon="8.75718">
        <ele>985</ele>
        <time>2021-08-06T09:42:26.340Z</time>
      </trkpt>
      <trkpt lat="46.96522" lon="8.75717">
        <ele>986</ele>
        <time>2021-08-06T09:42:27.340Z</time>
      </trkpt>
      <trkpt lat="46.96522" lon="8.75715">
        <ele>986</ele>
        <time>2021-08-06T09:42:28.341Z</time>
      </trkpt>
      <trkpt lat="46.96522" lon="8.75714">
        <ele>986</ele>
        <time>2021-08-06T09:42:29.340Z</time>
      </trkpt>
      <trkpt lat="46.96522" lon="8.75712">
        <ele>987</ele>
        <time>2021-08-06T09:42:30.340Z</time>
      </trkpt>
      <trkpt lat="46.96522" lon="8.75711">
        <ele>987</ele>
        <time>2021-08-06T09:42:31.340Z</time>
      </trkpt>
      <trkpt lat="46.96522" lon="8.7571">
        <ele>987</ele>
        <time>2021-08-06T09:42:32.341Z</time>
      </trkpt>
      <trkpt lat="46.96521" lon="8.75708">
        <ele>988</ele>
        <time>2021-08-06T09:42:33.341Z</time>
      </trkpt>
      <trkpt lat="46.96521" lon="8.75707">
        <ele>988</ele>
        <time>2021-08-06T09:42:34.340Z</time>
      </trkpt>
      <trkpt lat="46.9652" lon="8.75705">
        <ele>988</ele>
        <time>2021-08-06T09:42:35.340Z</time>
      </trkpt>
      <trkpt lat="46.9652" lon="8.75704">
        <ele>988</ele>
        <time>2021-08-06T09:42:36.340Z</time>
      </trkpt>
      <trkpt lat="46.96521" lon="8.75702">
        <ele>988</ele>
        <time>2021-08-06T09:42:37.340Z</time>
      </trkpt>
      <trkpt lat="46.96521" lon="8.75701">
        <ele>988</ele>
        <time>2021-08-06T09:42:38.341Z</time>
      </trkpt>
      <trkpt lat="46.96521" lon="8.75699">
        <ele>987</ele>
        <time>2021-08-06T09:42:39.340Z</time>
      </trkpt>
      <trkpt lat="46.96521" lon="8.75698">
        <ele>987</ele>
        <time>2021-08-06T09:42:40.341Z</time>
      </trkpt>
      <trkpt lat="46.9652" lon="8.75696">
        <ele>987</ele>
        <time>2021-08-06T09:42:41.341Z</time>
      </trkpt>
      <trkpt lat="46.96519" lon="8.75695">
        <ele>988</ele>
        <time>2021-08-06T09:42:42.340Z</time>
      </trkpt>
      <trkpt lat="46.96519" lon="8.75693">
        <ele>988</ele>
        <time>2021-08-06T09:42:43.341Z</time>
      </trkpt>
      <trkpt lat="46.96519" lon="8.75692">
        <ele>989</ele>
        <time>2021-08-06T09:42:44.340Z</time>
      </trkpt>
      <trkpt lat="46.96518" lon="8.75691">
        <ele>990</ele>
        <time>2021-08-06T09:42:45.340Z</time>
      </trkpt>
      <trkpt lat="46.96518" lon="8.75689">
        <ele>991</ele>
        <time>2021-08-06T09:42:46.341Z</time>
      </trkpt>
      <trkpt lat="46.96518" lon="8.75688">
        <ele>991</ele>
        <time>2021-08-06T09:42:47.341Z</time>
      </trkpt>
      <trkpt lat="46.96517" lon="8.75686">
        <ele>991</ele>
        <time>2021-08-06T09:42:48.341Z</time>
      </trkpt>
      <trkpt lat="46.96517" lon="8.75685">
        <ele>992</ele>
        <time>2021-08-06T09:42:49.341Z</time>
      </trkpt>
      <trkpt lat="46.96516" lon="8.75684">
        <ele>992</ele>
        <time>2021-08-06T09:42:50.341Z</time>
      </trkpt>
      <trkpt lat="46.96516" lon="8.75683">
        <ele>992</ele>
        <time>2021-08-06T09:42:51.341Z</time>
      </trkpt>
      <trkpt lat="46.96515" lon="8.75682">
        <ele>992</ele>
        <time>2021-08-06T09:42:52.341Z</time>
      </trkpt>
      <trkpt lat="46.96515" lon="8.7568">
        <ele>993</ele>
        <time>2021-08-06T09:42:53.341Z</time>
      </trkpt>
      <trkpt lat="46.96514" lon="8.75679">
        <ele>993</ele>
        <time>2021-08-06T09:42:54.341Z</time>
      </trkpt>
      <trkpt lat="46.96514" lon="8.75678">
        <ele>993</ele>
        <time>2021-08-06T09:42:55.341Z</time>
      </trkpt>
      <trkpt lat="46.96513" lon="8.75678">
        <ele>993</ele>
        <time>2021-08-06T09:42:56.341Z</time>
      </trkpt>
      <trkpt lat="46.96513" lon="8.75676">
        <ele>993</ele>
        <time>2021-08-06T09:42:57.341Z</time>
      </trkpt>
      <trkpt lat="46.96513" lon="8.75675">
        <ele>993</ele>
        <time>2021-08-06T09:42:58.341Z</time>
      </trkpt>
      <trkpt lat="46.96513" lon="8.75674">
        <ele>993</ele>
        <time>2021-08-06T09:42:59.341Z</time>
      </trkpt>
      <trkpt lat="46.96512" lon="8.75673">
        <ele>993</ele>
        <time>2021-08-06T09:43:00.341Z</time>
      </trkpt>
      <trkpt lat="46.96511" lon="8.75672">
        <ele>993</ele>
        <time>2021-08-06T09:43:01.340Z</time>
      </trkpt>
      <trkpt lat="46.96511" lon="8.75671">
        <ele>994</ele>
        <time>2021-08-06T09:43:02.341Z</time>
      </trkpt>
      <trkpt lat="46.96511" lon="8.75669">
        <ele>994</ele>
        <time>2021-08-06T09:43:03.340Z</time>
      </trkpt>
      <trkpt lat="46.96511" lon="8.75668">
        <ele>994</ele>
        <time>2021-08-06T09:43:04.341Z</time>
      </trkpt>
      <trkpt lat="46.9651" lon="8.75667">
        <ele>995</ele>
        <time>2021-08-06T09:43:05.341Z</time>
      </trkpt>
      <trkpt lat="46.9651" lon="8.75666">
        <ele>995</ele>
        <time>2021-08-06T09:43:06.341Z</time>
      </trkpt>
      <trkpt lat="46.9651" lon="8.75664">
        <ele>995</ele>
        <time>2021-08-06T09:43:07.341Z</time>
      </trkpt>
      <trkpt lat="46.9651" lon="8.75663">
        <ele>996</ele>
        <time>2021-08-06T09:43:08.341Z</time>
      </trkpt>
      <trkpt lat="46.9651" lon="8.75661">
        <ele>996</ele>
        <time>2021-08-06T09:43:09.340Z</time>
      </trkpt>
      <trkpt lat="46.9651" lon="8.7566">
        <ele>996</ele>
        <time>2021-08-06T09:43:10.340Z</time>
      </trkpt>
      <trkpt lat="46.96511" lon="8.75659">
        <ele>996</ele>
        <time>2021-08-06T09:43:11.340Z</time>
      </trkpt>
      <trkpt lat="46.9651" lon="8.75657">
        <ele>996</ele>
        <time>2021-08-06T09:43:12.341Z</time>
      </trkpt>
      <trkpt lat="46.9651" lon="8.75655">
        <ele>997</ele>
        <time>2021-08-06T09:43:13.341Z</time>
      </trkpt>
      <trkpt lat="46.9651" lon="8.75654">
        <ele>997</ele>
        <time>2021-08-06T09:43:14.340Z</time>
      </trkpt>
      <trkpt lat="46.9651" lon="8.75652">
        <ele>996</ele>
        <time>2021-08-06T09:43:15.341Z</time>
      </trkpt>
      <trkpt lat="46.96509" lon="8.7565">
        <ele>996</ele>
        <time>2021-08-06T09:43:16.341Z</time>
      </trkpt>
      <trkpt lat="46.9651" lon="8.75649">
        <ele>996</ele>
        <time>2021-08-06T09:43:17.340Z</time>
      </trkpt>
      <trkpt lat="46.9651" lon="8.75648">
        <ele>995</ele>
        <time>2021-08-06T09:43:18.340Z</time>
      </trkpt>
      <trkpt lat="46.9651" lon="8.75647">
        <ele>995</ele>
        <time>2021-08-06T09:43:19.340Z</time>
      </trkpt>
      <trkpt lat="46.9651" lon="8.75645">
        <ele>995</ele>
        <time>2021-08-06T09:43:20.340Z</time>
      </trkpt>
      <trkpt lat="46.9651" lon="8.75643">
        <ele>994</ele>
        <time>2021-08-06T09:43:21.341Z</time>
      </trkpt>
      <trkpt lat="46.9651" lon="8.75642">
        <ele>995</ele>
        <time>2021-08-06T09:43:22.340Z</time>
      </trkpt>
      <trkpt lat="46.96508" lon="8.75641">
        <ele>994</ele>
        <time>2021-08-06T09:43:23.340Z</time>
      </trkpt>
      <trkpt lat="46.96508" lon="8.75639">
        <ele>994</ele>
        <time>2021-08-06T09:43:24.341Z</time>
      </trkpt>
      <trkpt lat="46.96508" lon="8.75637">
        <ele>994</ele>
        <time>2021-08-06T09:43:25.341Z</time>
      </trkpt>
      <trkpt lat="46.96508" lon="8.75635">
        <ele>994</ele>
        <time>2021-08-06T09:43:26.341Z</time>
      </trkpt>
      <trkpt lat="46.96508" lon="8.75634">
        <ele>994</ele>
        <time>2021-08-06T09:43:27.341Z</time>
      </trkpt>
      <trkpt lat="46.96507" lon="8.75633">
        <ele>994</ele>
        <time>2021-08-06T09:43:28.341Z</time>
      </trkpt>
      <trkpt lat="46.96507" lon="8.75632">
        <ele>994</ele>
        <time>2021-08-06T09:43:29.341Z</time>
      </trkpt>
      <trkpt lat="46.96507" lon="8.75631">
        <ele>995</ele>
        <time>2021-08-06T09:43:30.341Z</time>
      </trkpt>
      <trkpt lat="46.96506" lon="8.75629">
        <ele>995</ele>
        <time>2021-08-06T09:43:31.341Z</time>
      </trkpt>
      <trkpt lat="46.96507" lon="8.75627">
        <ele>995</ele>
        <time>2021-08-06T09:43:32.341Z</time>
      </trkpt>
      <trkpt lat="46.96507" lon="8.75626">
        <ele>996</ele>
        <time>2021-08-06T09:43:33.340Z</time>
      </trkpt>
      <trkpt lat="46.96507" lon="8.75625">
        <ele>996</ele>
        <time>2021-08-06T09:43:34.341Z</time>
      </trkpt>
      <trkpt lat="46.96507" lon="8.75624">
        <ele>996</ele>
        <time>2021-08-06T09:43:35.341Z</time>
      </trkpt>
      <trkpt lat="46.96506" lon="8.75623">
        <ele>996</ele>
        <time>2021-08-06T09:43:36.340Z</time>
      </trkpt>
      <trkpt lat="46.96506" lon="8.75621">
        <ele>997</ele>
        <time>2021-08-06T09:43:37.341Z</time>
      </trkpt>
      <trkpt lat="46.96505" lon="8.7562">
        <ele>997</ele>
        <time>2021-08-06T09:43:38.341Z</time>
      </trkpt>
      <trkpt lat="46.96506" lon="8.75618">
        <ele>998</ele>
        <time>2021-08-06T09:43:39.341Z</time>
      </trkpt>
      <trkpt lat="46.96506" lon="8.75616">
        <ele>998</ele>
        <time>2021-08-06T09:43:40.341Z</time>
      </trkpt>
      <trkpt lat="46.96506" lon="8.75615">
        <ele>999</ele>
        <time>2021-08-06T09:43:41.340Z</time>
      </trkpt>
      <trkpt lat="46.96506" lon="8.75614">
        <ele>999</ele>
        <time>2021-08-06T09:43:42.341Z</time>
      </trkpt>
      <trkpt lat="46.96506" lon="8.75613">
        <ele>1000</ele>
        <time>2021-08-06T09:43:43.341Z</time>
      </trkpt>
      <trkpt lat="46.96506" lon="8.75611">
        <ele>1000</ele>
        <time>2021-08-06T09:43:44.341Z</time>
      </trkpt>
      <trkpt lat="46.96505" lon="8.7561">
        <ele>1000</ele>
        <time>2021-08-06T09:43:45.341Z</time>
      </trkpt>
      <trkpt lat="46.96506" lon="8.75609">
        <ele>1000</ele>
        <time>2021-08-06T09:43:46.340Z</time>
      </trkpt>
      <trkpt lat="46.96505" lon="8.75607">
        <ele>1000</ele>
        <time>2021-08-06T09:43:47.340Z</time>
      </trkpt>
      <trkpt lat="46.96505" lon="8.75606">
        <ele>1000</ele>
        <time>2021-08-06T09:43:48.340Z</time>
      </trkpt>
      <trkpt lat="46.96505" lon="8.75605">
        <ele>1000</ele>
        <time>2021-08-06T09:43:49.341Z</time>
      </trkpt>
      <trkpt lat="46.96504" lon="8.75603">
        <ele>1000</ele>
        <time>2021-08-06T09:43:50.340Z</time>
      </trkpt>
      <trkpt lat="46.96504" lon="8.75602">
        <ele>1000</ele>
        <time>2021-08-06T09:43:51.341Z</time>
      </trkpt>
      <trkpt lat="46.96503" lon="8.75601">
        <ele>1001</ele>
        <time>2021-08-06T09:43:52.340Z</time>
      </trkpt>
      <trkpt lat="46.96503" lon="8.75599">
        <ele>1001</ele>
        <time>2021-08-06T09:43:53.341Z</time>
      </trkpt>
      <trkpt lat="46.96503" lon="8.75597">
        <ele>1002</ele>
        <time>2021-08-06T09:43:54.340Z</time>
      </trkpt>
      <trkpt lat="46.96503" lon="8.75596">
        <ele>1002</ele>
        <time>2021-08-06T09:43:55.340Z</time>
      </trkpt>
      <trkpt lat="46.96502" lon="8.75594">
        <ele>1002</ele>
        <time>2021-08-06T09:43:56.341Z</time>
      </trkpt>
      <trkpt lat="46.96502" lon="8.75593">
        <ele>1003</ele>
        <time>2021-08-06T09:43:57.341Z</time>
      </trkpt>
      <trkpt lat="46.96502" lon="8.75591">
        <ele>1003</ele>
        <time>2021-08-06T09:43:58.341Z</time>
      </trkpt>
      <trkpt lat="46.96501" lon="8.75589">
        <ele>1004</ele>
        <time>2021-08-06T09:43:59.340Z</time>
      </trkpt>
      <trkpt lat="46.96501" lon="8.75589">
        <ele>1004</ele>
        <time>2021-08-06T09:44:00.341Z</time>
      </trkpt>
      <trkpt lat="46.965" lon="8.75588">
        <ele>1005</ele>
        <time>2021-08-06T09:44:01.340Z</time>
      </trkpt>
      <trkpt lat="46.965" lon="8.75587">
        <ele>1005</ele>
        <time>2021-08-06T09:44:02.340Z</time>
      </trkpt>
      <trkpt lat="46.96499" lon="8.75585">
        <ele>1005</ele>
        <time>2021-08-06T09:44:03.341Z</time>
      </trkpt>
      <trkpt lat="46.96499" lon="8.75583">
        <ele>1005</ele>
        <time>2021-08-06T09:44:04.341Z</time>
      </trkpt>
      <trkpt lat="46.96499" lon="8.75582">
        <ele>1005</ele>
        <time>2021-08-06T09:44:05.340Z</time>
      </trkpt>
      <trkpt lat="46.96499" lon="8.75581">
        <ele>1005</ele>
        <time>2021-08-06T09:44:06.340Z</time>
      </trkpt>
      <trkpt lat="46.96498" lon="8.7558">
        <ele>1005</ele>
        <time>2021-08-06T09:44:07.341Z</time>
      </trkpt>
      <trkpt lat="46.96498" lon="8.75579">
        <ele>1005</ele>
        <time>2021-08-06T09:44:08.340Z</time>
      </trkpt>
      <trkpt lat="46.96497" lon="8.75578">
        <ele>1005</ele>
        <time>2021-08-06T09:44:09.341Z</time>
      </trkpt>
      <trkpt lat="46.96497" lon="8.75577">
        <ele>1005</ele>
        <time>2021-08-06T09:44:10.340Z</time>
      </trkpt>
      <trkpt lat="46.96498" lon="8.75576">
        <ele>1004</ele>
        <time>2021-08-06T09:44:11.341Z</time>
      </trkpt>
      <trkpt lat="46.96497" lon="8.75575">
        <ele>1004</ele>
        <time>2021-08-06T09:44:12.341Z</time>
      </trkpt>
      <trkpt lat="46.96497" lon="8.75574">
        <ele>1004</ele>
        <time>2021-08-06T09:44:13.341Z</time>
      </trkpt>
      <trkpt lat="46.96497" lon="8.75573">
        <ele>1003</ele>
        <time>2021-08-06T09:44:14.341Z</time>
      </trkpt>
      <trkpt lat="46.96497" lon="8.75571">
        <ele>1003</ele>
        <time>2021-08-06T09:44:15.340Z</time>
      </trkpt>
      <trkpt lat="46.96497" lon="8.7557">
        <ele>1003</ele>
        <time>2021-08-06T09:44:16.341Z</time>
      </trkpt>
      <trkpt lat="46.96497" lon="8.75568">
        <ele>1003</ele>
        <time>2021-08-06T09:44:17.341Z</time>
      </trkpt>
      <trkpt lat="46.96497" lon="8.75566">
        <ele>1003</ele>
        <time>2021-08-06T09:44:18.341Z</time>
      </trkpt>
      <trkpt lat="46.96497" lon="8.75565">
        <ele>1003</ele>
        <time>2021-08-06T09:44:19.341Z</time>
      </trkpt>
      <trkpt lat="46.96497" lon="8.75563">
        <ele>1003</ele>
        <time>2021-08-06T09:44:20.341Z</time>
      </trkpt>
      <trkpt lat="46.96496" lon="8.75562">
        <ele>1002</ele>
        <time>2021-08-06T09:44:21.341Z</time>
      </trkpt>
      <trkpt lat="46.96496" lon="8.7556">
        <ele>1002</ele>
        <time>2021-08-06T09:44:22.341Z</time>
      </trkpt>
      <trkpt lat="46.96496" lon="8.75559">
        <ele>1002</ele>
        <time>2021-08-06T09:44:23.340Z</time>
      </trkpt>
      <trkpt lat="46.96496" lon="8.75558">
        <ele>1002</ele>
        <time>2021-08-06T09:44:24.341Z</time>
      </trkpt>
      <trkpt lat="46.96495" lon="8.75558">
        <ele>1002</ele>
        <time>2021-08-06T09:44:25.341Z</time>
      </trkpt>
      <trkpt lat="46.96495" lon="8.75556">
        <ele>1003</ele>
        <time>2021-08-06T09:44:26.341Z</time>
      </trkpt>
      <trkpt lat="46.96495" lon="8.75555">
        <ele>1003</ele>
        <time>2021-08-06T09:44:27.341Z</time>
      </trkpt>
      <trkpt lat="46.96495" lon="8.75553">
        <ele>1003</ele>
        <time>2021-08-06T09:44:28.340Z</time>
      </trkpt>
      <trkpt lat="46.96496" lon="8.75551">
        <ele>1004</ele>
        <time>2021-08-06T09:44:29.341Z</time>
      </trkpt>
      <trkpt lat="46.96496" lon="8.7555">
        <ele>1004</ele>
        <time>2021-08-06T09:44:30.341Z</time>
      </trkpt>
      <trkpt lat="46.96496" lon="8.75549">
        <ele>1004</ele>
        <time>2021-08-06T09:44:31.341Z</time>
      </trkpt>
      <trkpt lat="46.96496" lon="8.75547">
        <ele>1005</ele>
        <time>2021-08-06T09:44:32.341Z</time>
      </trkpt>
      <trkpt lat="46.96496" lon="8.75546">
        <ele>1005</ele>
        <time>2021-08-06T09:44:33.341Z</time>
      </trkpt>
      <trkpt lat="46.96495" lon="8.75546">
        <ele>1006</ele>
        <time>2021-08-06T09:44:34.340Z</time>
      </trkpt>
      <trkpt lat="46.96494" lon="8.75545">
        <ele>1006</ele>
        <time>2021-08-06T09:44:35.341Z</time>
      </trkpt>
      <trkpt lat="46.96494" lon="8.75544">
        <ele>1007</ele>
        <time>2021-08-06T09:44:36.341Z</time>
      </trkpt>
      <trkpt lat="46.96494" lon="8.75543">
        <ele>1008</ele>
        <time>2021-08-06T09:44:37.341Z</time>
      </trkpt>
      <trkpt lat="46.96493" lon="8.75542">
        <ele>1009</ele>
        <time>2021-08-06T09:44:38.341Z</time>
      </trkpt>
      <trkpt lat="46.96492" lon="8.75541">
        <ele>1010</ele>
        <time>2021-08-06T09:44:39.340Z</time>
      </trkpt>
      <trkpt lat="46.96491" lon="8.7554">
        <ele>1011</ele>
        <time>2021-08-06T09:44:40.341Z</time>
      </trkpt>
      <trkpt lat="46.96491" lon="8.75539">
        <ele>1012</ele>
        <time>2021-08-06T09:44:41.341Z</time>
      </trkpt>
      <trkpt lat="46.9649" lon="8.75538">
        <ele>1012</ele>
        <time>2021-08-06T09:44:42.341Z</time>
      </trkpt>
      <trkpt lat="46.9649" lon="8.75536">
        <ele>1013</ele>
        <time>2021-08-06T09:44:43.341Z</time>
      </trkpt>
      <trkpt lat="46.9649" lon="8.75535">
        <ele>1013</ele>
        <time>2021-08-06T09:44:44.341Z</time>
      </trkpt>
      <trkpt lat="46.9649" lon="8.75534">
        <ele>1014</ele>
        <time>2021-08-06T09:44:45.341Z</time>
      </trkpt>
      <trkpt lat="46.9649" lon="8.75532">
        <ele>1014</ele>
        <time>2021-08-06T09:44:46.341Z</time>
      </trkpt>
      <trkpt lat="46.9649" lon="8.7553">
        <ele>1014</ele>
        <time>2021-08-06T09:44:47.340Z</time>
      </trkpt>
      <trkpt lat="46.9649" lon="8.75529">
        <ele>1015</ele>
        <time>2021-08-06T09:44:48.341Z</time>
      </trkpt>
      <trkpt lat="46.96489" lon="8.75528">
        <ele>1015</ele>
        <time>2021-08-06T09:44:49.341Z</time>
      </trkpt>
      <trkpt lat="46.96488" lon="8.75527">
        <ele>1015</ele>
        <time>2021-08-06T09:44:50.340Z</time>
      </trkpt>
      <trkpt lat="46.96487" lon="8.75526">
        <ele>1015</ele>
        <time>2021-08-06T09:44:51.340Z</time>
      </trkpt>
      <trkpt lat="46.96486" lon="8.75525">
        <ele>1016</ele>
        <time>2021-08-06T09:44:52.340Z</time>
      </trkpt>
      <trkpt lat="46.96485" lon="8.75525">
        <ele>1016</ele>
        <time>2021-08-06T09:44:53.341Z</time>
      </trkpt>
      <trkpt lat="46.96484" lon="8.75524">
        <ele>1016</ele>
        <time>2021-08-06T09:44:54.340Z</time>
      </trkpt>
      <trkpt lat="46.96483" lon="8.75523">
        <ele>1016</ele>
        <time>2021-08-06T09:44:55.341Z</time>
      </trkpt>
      <trkpt lat="46.96483" lon="8.75522">
        <ele>1016</ele>
        <time>2021-08-06T09:44:56.341Z</time>
      </trkpt>
      <trkpt lat="46.96483" lon="8.7552">
        <ele>1017</ele>
        <time>2021-08-06T09:44:57.341Z</time>
      </trkpt>
      <trkpt lat="46.96483" lon="8.75518">
        <ele>1017</ele>
        <time>2021-08-06T09:44:58.340Z</time>
      </trkpt>
      <trkpt lat="46.96483" lon="8.75517">
        <ele>1017</ele>
        <time>2021-08-06T09:44:59.340Z</time>
      </trkpt>
      <trkpt lat="46.96482" lon="8.75516">
        <ele>1017</ele>
        <time>2021-08-06T09:45:00.340Z</time>
      </trkpt>
      <trkpt lat="46.96481" lon="8.75515">
        <ele>1018</ele>
        <time>2021-08-06T09:45:01.341Z</time>
      </trkpt>
      <trkpt lat="46.9648" lon="8.75514">
        <ele>1018</ele>
        <time>2021-08-06T09:45:02.341Z</time>
      </trkpt>
      <trkpt lat="46.96479" lon="8.75512">
        <ele>1019</ele>
        <time>2021-08-06T09:45:03.341Z</time>
      </trkpt>
      <trkpt lat="46.96478" lon="8.75511">
        <ele>1019</ele>
        <time>2021-08-06T09:45:04.341Z</time>
      </trkpt>
      <trkpt lat="46.96478" lon="8.75509">
        <ele>1020</ele>
        <time>2021-08-06T09:45:05.341Z</time>
      </trkpt>
      <trkpt lat="46.96477" lon="8.75508">
        <ele>1021</ele>
        <time>2021-08-06T09:45:06.341Z</time>
      </trkpt>
      <trkpt lat="46.96476" lon="8.75506">
        <ele>1022</ele>
        <time>2021-08-06T09:45:07.341Z</time>
      </trkpt>
      <trkpt lat="46.96476" lon="8.75505">
        <ele>1023</ele>
        <time>2021-08-06T09:45:08.340Z</time>
      </trkpt>
      <trkpt lat="46.96475" lon="8.75504">
        <ele>1024</ele>
        <time>2021-08-06T09:45:09.341Z</time>
      </trkpt>
      <trkpt lat="46.96475" lon="8.75503">
        <ele>1024</ele>
        <time>2021-08-06T09:45:10.340Z</time>
      </trkpt>
      <trkpt lat="46.96475" lon="8.75502">
        <ele>1024</ele>
        <time>2021-08-06T09:45:11.341Z</time>
      </trkpt>
      <trkpt lat="46.96475" lon="8.755">
        <ele>1024</ele>
        <time>2021-08-06T09:45:12.341Z</time>
      </trkpt>
      <trkpt lat="46.96474" lon="8.75499">
        <ele>1024</ele>
        <time>2021-08-06T09:45:13.341Z</time>
      </trkpt>
      <trkpt lat="46.96473" lon="8.75498">
        <ele>1023</ele>
        <time>2021-08-06T09:45:14.341Z</time>
      </trkpt>
      <trkpt lat="46.96472" lon="8.75497">
        <ele>1022</ele>
        <time>2021-08-06T09:45:15.340Z</time>
      </trkpt>
      <trkpt lat="46.96472" lon="8.75495">
        <ele>1022</ele>
        <time>2021-08-06T09:45:16.340Z</time>
      </trkpt>
      <trkpt lat="46.96471" lon="8.75494">
        <ele>1021</ele>
        <time>2021-08-06T09:45:17.341Z</time>
      </trkpt>
      <trkpt lat="46.96471" lon="8.75493">
        <ele>1020</ele>
        <time>2021-08-06T09:45:18.341Z</time>
      </trkpt>
      <trkpt lat="46.9647" lon="8.75491">
        <ele>1020</ele>
        <time>2021-08-06T09:45:19.341Z</time>
      </trkpt>
      <trkpt lat="46.96469" lon="8.7549">
        <ele>1019</ele>
        <time>2021-08-06T09:45:20.341Z</time>
      </trkpt>
      <trkpt lat="46.96469" lon="8.75489">
        <ele>1018</ele>
        <time>2021-08-06T09:45:21.341Z</time>
      </trkpt>
      <trkpt lat="46.96469" lon="8.75487">
        <ele>1018</ele>
        <time>2021-08-06T09:45:22.341Z</time>
      </trkpt>
      <trkpt lat="46.96468" lon="8.75485">
        <ele>1018</ele>
        <time>2021-08-06T09:45:23.340Z</time>
      </trkpt>
      <trkpt lat="46.96468" lon="8.75483">
        <ele>1017</ele>
        <time>2021-08-06T09:45:24.341Z</time>
      </trkpt>
      <trkpt lat="46.96467" lon="8.75481">
        <ele>1017</ele>
        <time>2021-08-06T09:45:25.341Z</time>
      </trkpt>
      <trkpt lat="46.96467" lon="8.7548">
        <ele>1017</ele>
        <time>2021-08-06T09:45:26.340Z</time>
      </trkpt>
      <trkpt lat="46.96466" lon="8.75479">
        <ele>1017</ele>
        <time>2021-08-06T09:45:27.340Z</time>
      </trkpt>
      <trkpt lat="46.96466" lon="8.75477">
        <ele>1017</ele>
        <time>2021-08-06T09:45:28.341Z</time>
      </trkpt>
      <trkpt lat="46.96466" lon="8.75475">
        <ele>1017</ele>
        <time>2021-08-06T09:45:29.340Z</time>
      </trkpt>
      <trkpt lat="46.96467" lon="8.75473">
        <ele>1017</ele>
        <time>2021-08-06T09:45:30.341Z</time>
      </trkpt>
      <trkpt lat="46.96467" lon="8.75471">
        <ele>1017</ele>
        <time>2021-08-06T09:45:31.340Z</time>
      </trkpt>
      <trkpt lat="46.96468" lon="8.7547">
        <ele>1017</ele>
        <time>2021-08-06T09:45:32.341Z</time>
      </trkpt>
      <trkpt lat="46.96468" lon="8.75468">
        <ele>1018</ele>
        <time>2021-08-06T09:45:33.340Z</time>
      </trkpt>
      <trkpt lat="46.96469" lon="8.75466">
        <ele>1018</ele>
        <time>2021-08-06T09:45:34.341Z</time>
      </trkpt>
      <trkpt lat="46.96468" lon="8.75465">
        <ele>1018</ele>
        <time>2021-08-06T09:45:35.341Z</time>
      </trkpt>
      <trkpt lat="46.96467" lon="8.75464">
        <ele>1017</ele>
        <time>2021-08-06T09:45:36.341Z</time>
      </trkpt>
      <trkpt lat="46.96466" lon="8.75462">
        <ele>1017</ele>
        <time>2021-08-06T09:45:37.341Z</time>
      </trkpt>
      <trkpt lat="46.96466" lon="8.75461">
        <ele>1017</ele>
        <time>2021-08-06T09:45:38.341Z</time>
      </trkpt>
      <trkpt lat="46.96466" lon="8.7546">
        <ele>1017</ele>
        <time>2021-08-06T09:45:39.340Z</time>
      </trkpt>
      <trkpt lat="46.96467" lon="8.75458">
        <ele>1017</ele>
        <time>2021-08-06T09:45:40.341Z</time>
      </trkpt>
      <trkpt lat="46.96468" lon="8.75457">
        <ele>1017</ele>
        <time>2021-08-06T09:45:41.341Z</time>
      </trkpt>
      <trkpt lat="46.96468" lon="8.75455">
        <ele>1017</ele>
        <time>2021-08-06T09:45:42.341Z</time>
      </trkpt>
      <trkpt lat="46.96468" lon="8.75454">
        <ele>1017</ele>
        <time>2021-08-06T09:45:43.341Z</time>
      </trkpt>
      <trkpt lat="46.96468" lon="8.75453">
        <ele>1018</ele>
        <time>2021-08-06T09:45:44.341Z</time>
      </trkpt>
      <trkpt lat="46.96466" lon="8.75451">
        <ele>1018</ele>
        <time>2021-08-06T09:45:45.341Z</time>
      </trkpt>
      <trkpt lat="46.96465" lon="8.75449">
        <ele>1018</ele>
        <time>2021-08-06T09:45:46.340Z</time>
      </trkpt>
      <trkpt lat="46.96464" lon="8.75448">
        <ele>1018</ele>
        <time>2021-08-06T09:45:47.341Z</time>
      </trkpt>
      <trkpt lat="46.96463" lon="8.75447">
        <ele>1018</ele>
        <time>2021-08-06T09:45:48.340Z</time>
      </trkpt>
      <trkpt lat="46.96463" lon="8.75445">
        <ele>1018</ele>
        <time>2021-08-06T09:45:49.341Z</time>
      </trkpt>
      <trkpt lat="46.96463" lon="8.75444">
        <ele>1018</ele>
        <time>2021-08-06T09:45:50.341Z</time>
      </trkpt>
      <trkpt lat="46.96463" lon="8.75443">
        <ele>1018</ele>
        <time>2021-08-06T09:45:51.341Z</time>
      </trkpt>
      <trkpt lat="46.96463" lon="8.75442">
        <ele>1018</ele>
        <time>2021-08-06T09:45:52.341Z</time>
      </trkpt>
      <trkpt lat="46.96464" lon="8.75441">
        <ele>1017</ele>
        <time>2021-08-06T09:45:53.340Z</time>
      </trkpt>
      <trkpt lat="46.96464" lon="8.7544">
        <ele>1017</ele>
        <time>2021-08-06T09:45:54.340Z</time>
      </trkpt>
      <trkpt lat="46.96463" lon="8.75439">
        <ele>1017</ele>
        <time>2021-08-06T09:45:55.340Z</time>
      </trkpt>
      <trkpt lat="46.96463" lon="8.75438">
        <ele>1017</ele>
        <time>2021-08-06T09:45:56.341Z</time>
      </trkpt>
      <trkpt lat="46.96462" lon="8.75437">
        <ele>1017</ele>
        <time>2021-08-06T09:45:57.341Z</time>
      </trkpt>
      <trkpt lat="46.96462" lon="8.75436">
        <ele>1018</ele>
        <time>2021-08-06T09:45:58.341Z</time>
      </trkpt>
      <trkpt lat="46.96461" lon="8.75436">
        <ele>1018</ele>
        <time>2021-08-06T09:45:59.341Z</time>
      </trkpt>
      <trkpt lat="46.96461" lon="8.75435">
        <ele>1018</ele>
        <time>2021-08-06T09:46:00.341Z</time>
      </trkpt>
      <trkpt lat="46.96461" lon="8.75434">
        <ele>1019</ele>
        <time>2021-08-06T09:46:01.340Z</time>
      </trkpt>
      <trkpt lat="46.9646" lon="8.75433">
        <ele>1019</ele>
        <time>2021-08-06T09:46:02.341Z</time>
      </trkpt>
      <trkpt lat="46.96459" lon="8.75432">
        <ele>1019</ele>
        <time>2021-08-06T09:46:03.341Z</time>
      </trkpt>
      <trkpt lat="46.96458" lon="8.75431">
        <ele>1020</ele>
        <time>2021-08-06T09:46:04.341Z</time>
      </trkpt>
      <trkpt lat="46.96457" lon="8.7543">
        <ele>1020</ele>
        <time>2021-08-06T09:46:05.340Z</time>
      </trkpt>
      <trkpt lat="46.96455" lon="8.75429">
        <ele>1020</ele>
        <time>2021-08-06T09:46:06.340Z</time>
      </trkpt>
      <trkpt lat="46.96454" lon="8.75428">
        <ele>1020</ele>
        <time>2021-08-06T09:46:07.341Z</time>
      </trkpt>
      <trkpt lat="46.96454" lon="8.75427">
        <ele>1020</ele>
        <time>2021-08-06T09:46:08.341Z</time>
      </trkpt>
      <trkpt lat="46.96452" lon="8.75425">
        <ele>1020</ele>
        <time>2021-08-06T09:46:09.340Z</time>
      </trkpt>
      <trkpt lat="46.9645" lon="8.75424">
        <ele>1020</ele>
        <time>2021-08-06T09:46:10.341Z</time>
      </trkpt>
      <trkpt lat="46.96449" lon="8.75422">
        <ele>1019</ele>
        <time>2021-08-06T09:46:11.341Z</time>
      </trkpt>
      <trkpt lat="46.96449" lon="8.75421">
        <ele>1019</ele>
        <time>2021-08-06T09:46:12.340Z</time>
      </trkpt>
      <trkpt lat="46.96449" lon="8.75419">
        <ele>1018</ele>
        <time>2021-08-06T09:46:13.340Z</time>
      </trkpt>
      <trkpt lat="46.96449" lon="8.75418">
        <ele>1017</ele>
        <time>2021-08-06T09:46:14.341Z</time>
      </trkpt>
      <trkpt lat="46.96448" lon="8.75417">
        <ele>1017</ele>
        <time>2021-08-06T09:46:15.341Z</time>
      </trkpt>
      <trkpt lat="46.96447" lon="8.75416">
        <ele>1017</ele>
        <time>2021-08-06T09:46:16.340Z</time>
      </trkpt>
      <trkpt lat="46.96447" lon="8.75416">
        <ele>1016</ele>
        <time>2021-08-06T09:46:17.340Z</time>
      </trkpt>
      <trkpt lat="46.96446" lon="8.75415">
        <ele>1016</ele>
        <time>2021-08-06T09:46:18.340Z</time>
      </trkpt>
      <trkpt lat="46.96446" lon="8.75413">
        <ele>1015</ele>
        <time>2021-08-06T09:46:19.341Z</time>
      </trkpt>
      <trkpt lat="46.96446" lon="8.75411">
        <ele>1015</ele>
        <time>2021-08-06T09:46:20.340Z</time>
      </trkpt>
      <trkpt lat="46.96446" lon="8.75408">
        <ele>1014</ele>
        <time>2021-08-06T09:46:21.340Z</time>
      </trkpt>
      <trkpt lat="46.96446" lon="8.75406">
        <ele>1014</ele>
        <time>2021-08-06T09:46:22.340Z</time>
      </trkpt>
      <trkpt lat="46.96447" lon="8.75403">
        <ele>1013</ele>
        <time>2021-08-06T09:46:23.340Z</time>
      </trkpt>
      <trkpt lat="46.96447" lon="8.75401">
        <ele>1013</ele>
        <time>2021-08-06T09:46:24.340Z</time>
      </trkpt>
      <trkpt lat="46.96447" lon="8.75399">
        <ele>1013</ele>
        <time>2021-08-06T09:46:25.340Z</time>
      </trkpt>
      <trkpt lat="46.96446" lon="8.75398">
        <ele>1013</ele>
        <time>2021-08-06T09:46:26.340Z</time>
      </trkpt>
      <trkpt lat="46.96445" lon="8.75397">
        <ele>1013</ele>
        <time>2021-08-06T09:46:27.340Z</time>
      </trkpt>
      <trkpt lat="46.96444" lon="8.75396">
        <ele>1013</ele>
        <time>2021-08-06T09:46:28.340Z</time>
      </trkpt>
      <trkpt lat="46.96443" lon="8.75395">
        <ele>1013</ele>
        <time>2021-08-06T09:46:29.341Z</time>
      </trkpt>
      <trkpt lat="46.96442" lon="8.75394">
        <ele>1013</ele>
        <time>2021-08-06T09:46:30.340Z</time>
      </trkpt>
      <trkpt lat="46.96441" lon="8.75393">
        <ele>1014</ele>
        <time>2021-08-06T09:46:31.341Z</time>
      </trkpt>
      <trkpt lat="46.9644" lon="8.75392">
        <ele>1014</ele>
        <time>2021-08-06T09:46:32.340Z</time>
      </trkpt>
      <trkpt lat="46.96439" lon="8.7539">
        <ele>1014</ele>
        <time>2021-08-06T09:46:33.341Z</time>
      </trkpt>
      <trkpt lat="46.96438" lon="8.75389">
        <ele>1014</ele>
        <time>2021-08-06T09:46:34.341Z</time>
      </trkpt>
      <trkpt lat="46.96438" lon="8.75388">
        <ele>1014</ele>
        <time>2021-08-06T09:46:35.341Z</time>
      </trkpt>
      <trkpt lat="46.96437" lon="8.75387">
        <ele>1014</ele>
        <time>2021-08-06T09:46:36.340Z</time>
      </trkpt>
      <trkpt lat="46.96436" lon="8.75386">
        <ele>1014</ele>
        <time>2021-08-06T09:46:37.340Z</time>
      </trkpt>
      <trkpt lat="46.96435" lon="8.75386">
        <ele>1014</ele>
        <time>2021-08-06T09:46:38.340Z</time>
      </trkpt>
      <trkpt lat="46.96434" lon="8.75385">
        <ele>1014</ele>
        <time>2021-08-06T09:46:39.341Z</time>
      </trkpt>
      <trkpt lat="46.96433" lon="8.75384">
        <ele>1014</ele>
        <time>2021-08-06T09:46:40.341Z</time>
      </trkpt>
      <trkpt lat="46.96432" lon="8.75383">
        <ele>1014</ele>
        <time>2021-08-06T09:46:41.340Z</time>
      </trkpt>
      <trkpt lat="46.96431" lon="8.75382">
        <ele>1015</ele>
        <time>2021-08-06T09:46:42.341Z</time>
      </trkpt>
      <trkpt lat="46.9643" lon="8.75381">
        <ele>1016</ele>
        <time>2021-08-06T09:46:43.341Z</time>
      </trkpt>
      <trkpt lat="46.9643" lon="8.7538">
        <ele>1016</ele>
        <time>2021-08-06T09:46:44.340Z</time>
      </trkpt>
      <trkpt lat="46.9643" lon="8.75378">
        <ele>1017</ele>
        <time>2021-08-06T09:46:45.341Z</time>
      </trkpt>
      <trkpt lat="46.96429" lon="8.75377">
        <ele>1018</ele>
        <time>2021-08-06T09:46:46.341Z</time>
      </trkpt>
      <trkpt lat="46.96429" lon="8.75376">
        <ele>1018</ele>
        <time>2021-08-06T09:46:47.341Z</time>
      </trkpt>
      <trkpt lat="46.96428" lon="8.75375">
        <ele>1018</ele>
        <time>2021-08-06T09:46:48.340Z</time>
      </trkpt>
      <trkpt lat="46.96428" lon="8.75374">
        <ele>1019</ele>
        <time>2021-08-06T09:46:49.340Z</time>
      </trkpt>
      <trkpt lat="46.96427" lon="8.75373">
        <ele>1019</ele>
        <time>2021-08-06T09:46:50.340Z</time>
      </trkpt>
      <trkpt lat="46.96426" lon="8.75372">
        <ele>1019</ele>
        <time>2021-08-06T09:46:51.340Z</time>
      </trkpt>
      <trkpt lat="46.96425" lon="8.75371">
        <ele>1020</ele>
        <time>2021-08-06T09:46:52.341Z</time>
      </trkpt>
      <trkpt lat="46.96425" lon="8.75371">
        <ele>1020</ele>
        <time>2021-08-06T09:46:53.340Z</time>
      </trkpt>
      <trkpt lat="46.96425" lon="8.7537">
        <ele>1021</ele>
        <time>2021-08-06T09:46:54.341Z</time>
      </trkpt>
      <trkpt lat="46.96425" lon="8.7537">
        <ele>1021</ele>
        <time>2021-08-06T09:46:55.341Z</time>
      </trkpt>
      <trkpt lat="46.96425" lon="8.7537">
        <ele>1022</ele>
        <time>2021-08-06T09:46:56.340Z</time>
      </trkpt>
      <trkpt lat="46.96422" lon="8.75368">
        <ele>1026</ele>
        <time>2021-08-06T09:46:57.342Z</time>
      </trkpt>
      <trkpt lat="46.96421" lon="8.75368">
        <ele>1026</ele>
        <time>2021-08-06T09:46:58.342Z</time>
      </trkpt>
      <trkpt lat="46.9642" lon="8.75367">
        <ele>1027</ele>
        <time>2021-08-06T09:46:59.341Z</time>
      </trkpt>
      <trkpt lat="46.96419" lon="8.75367">
        <ele>1028</ele>
        <time>2021-08-06T09:47:00.341Z</time>
      </trkpt>
      <trkpt lat="46.9642" lon="8.75365">
        <ele>1029</ele>
        <time>2021-08-06T09:47:01.342Z</time>
      </trkpt>
      <trkpt lat="46.96419" lon="8.75364">
        <ele>1029</ele>
        <time>2021-08-06T09:47:02.342Z</time>
      </trkpt>
      <trkpt lat="46.96418" lon="8.75362">
        <ele>1030</ele>
        <time>2021-08-06T09:47:03.341Z</time>
      </trkpt>
      <trkpt lat="46.96417" lon="8.75361">
        <ele>1030</ele>
        <time>2021-08-06T09:47:04.341Z</time>
      </trkpt>
      <trkpt lat="46.96417" lon="8.75359">
        <ele>1030</ele>
        <time>2021-08-06T09:47:05.342Z</time>
      </trkpt>
      <trkpt lat="46.96416" lon="8.75358">
        <ele>1031</ele>
        <time>2021-08-06T09:47:06.342Z</time>
      </trkpt>
      <trkpt lat="46.96416" lon="8.75357">
        <ele>1031</ele>
        <time>2021-08-06T09:47:07.341Z</time>
      </trkpt>
      <trkpt lat="46.96416" lon="8.75356">
        <ele>1031</ele>
        <time>2021-08-06T09:47:08.342Z</time>
      </trkpt>
      <trkpt lat="46.96416" lon="8.75356">
        <ele>1030</ele>
        <time>2021-08-06T09:47:09.341Z</time>
      </trkpt>
      <trkpt lat="46.96415" lon="8.75355">
        <ele>1030</ele>
        <time>2021-08-06T09:47:10.342Z</time>
      </trkpt>
      <trkpt lat="46.96414" lon="8.75354">
        <ele>1029</ele>
        <time>2021-08-06T09:47:11.341Z</time>
      </trkpt>
      <trkpt lat="46.96414" lon="8.75353">
        <ele>1029</ele>
        <time>2021-08-06T09:47:12.342Z</time>
      </trkpt>
      <trkpt lat="46.96414" lon="8.75351">
        <ele>1028</ele>
        <time>2021-08-06T09:47:13.342Z</time>
      </trkpt>
      <trkpt lat="46.96414" lon="8.75349">
        <ele>1028</ele>
        <time>2021-08-06T09:47:14.342Z</time>
      </trkpt>
      <trkpt lat="46.96413" lon="8.75349">
        <ele>1028</ele>
        <time>2021-08-06T09:47:15.342Z</time>
      </trkpt>
      <trkpt lat="46.96412" lon="8.75348">
        <ele>1027</ele>
        <time>2021-08-06T09:47:16.342Z</time>
      </trkpt>
      <trkpt lat="46.96412" lon="8.75347">
        <ele>1027</ele>
        <time>2021-08-06T09:47:17.341Z</time>
      </trkpt>
      <trkpt lat="46.96412" lon="8.75345">
        <ele>1027</ele>
        <time>2021-08-06T09:47:18.342Z</time>
      </trkpt>
      <trkpt lat="46.96411" lon="8.75344">
        <ele>1027</ele>
        <time>2021-08-06T09:47:19.342Z</time>
      </trkpt>
      <trkpt lat="46.9641" lon="8.75343">
        <ele>1026</ele>
        <time>2021-08-06T09:47:20.341Z</time>
      </trkpt>
      <trkpt lat="46.96409" lon="8.75343">
        <ele>1027</ele>
        <time>2021-08-06T09:47:21.342Z</time>
      </trkpt>
      <trkpt lat="46.96409" lon="8.75342">
        <ele>1027</ele>
        <time>2021-08-06T09:47:22.342Z</time>
      </trkpt>
      <trkpt lat="46.96408" lon="8.75341">
        <ele>1027</ele>
        <time>2021-08-06T09:47:23.341Z</time>
      </trkpt>
      <trkpt lat="46.96408" lon="8.75341">
        <ele>1027</ele>
        <time>2021-08-06T09:47:24.342Z</time>
      </trkpt>
      <trkpt lat="46.96408" lon="8.7534">
        <ele>1027</ele>
        <time>2021-08-06T09:47:25.341Z</time>
      </trkpt>
      <trkpt lat="46.96408" lon="8.75339">
        <ele>1027</ele>
        <time>2021-08-06T09:47:26.342Z</time>
      </trkpt>
      <trkpt lat="46.96408" lon="8.75338">
        <ele>1027</ele>
        <time>2021-08-06T09:47:27.342Z</time>
      </trkpt>
      <trkpt lat="46.96408" lon="8.75338">
        <ele>1028</ele>
        <time>2021-08-06T09:47:28.342Z</time>
      </trkpt>
      <trkpt lat="46.96408" lon="8.75337">
        <ele>1029</ele>
        <time>2021-08-06T09:47:29.342Z</time>
      </trkpt>
      <trkpt lat="46.96408" lon="8.75337">
        <ele>1030</ele>
        <time>2021-08-06T09:47:30.342Z</time>
      </trkpt>
      <trkpt lat="46.96408" lon="8.75337">
        <ele>1030</ele>
        <time>2021-08-06T09:47:31.342Z</time>
      </trkpt>
      <trkpt lat="46.96408" lon="8.75336">
        <ele>1031</ele>
        <time>2021-08-06T09:47:32.342Z</time>
      </trkpt>
      <trkpt lat="46.96407" lon="8.75335">
        <ele>1032</ele>
        <time>2021-08-06T09:47:33.341Z</time>
      </trkpt>
      <trkpt lat="46.96407" lon="8.75334">
        <ele>1033</ele>
        <time>2021-08-06T09:47:34.341Z</time>
      </trkpt>
      <trkpt lat="46.96406" lon="8.75332">
        <ele>1034</ele>
        <time>2021-08-06T09:47:35.341Z</time>
      </trkpt>
      <trkpt lat="46.96406" lon="8.75331">
        <ele>1035</ele>
        <time>2021-08-06T09:47:36.341Z</time>
      </trkpt>
      <trkpt lat="46.96405" lon="8.7533">
        <ele>1036</ele>
        <time>2021-08-06T09:47:37.341Z</time>
      </trkpt>
      <trkpt lat="46.96404" lon="8.75329">
        <ele>1037</ele>
        <time>2021-08-06T09:47:38.341Z</time>
      </trkpt>
      <trkpt lat="46.96403" lon="8.75328">
        <ele>1038</ele>
        <time>2021-08-06T09:47:39.341Z</time>
      </trkpt>
      <trkpt lat="46.96402" lon="8.75327">
        <ele>1038</ele>
        <time>2021-08-06T09:47:40.341Z</time>
      </trkpt>
      <trkpt lat="46.96401" lon="8.75326">
        <ele>1039</ele>
        <time>2021-08-06T09:47:41.342Z</time>
      </trkpt>
      <trkpt lat="46.964" lon="8.75325">
        <ele>1039</ele>
        <time>2021-08-06T09:47:42.341Z</time>
      </trkpt>
      <trkpt lat="46.964" lon="8.75325">
        <ele>1039</ele>
        <time>2021-08-06T09:47:43.342Z</time>
      </trkpt>
      <trkpt lat="46.96399" lon="8.75324">
        <ele>1039</ele>
        <time>2021-08-06T09:47:44.342Z</time>
      </trkpt>
      <trkpt lat="46.96399" lon="8.75323">
        <ele>1039</ele>
        <time>2021-08-06T09:47:45.342Z</time>
      </trkpt>
      <trkpt lat="46.96399" lon="8.75322">
        <ele>1039</ele>
        <time>2021-08-06T09:47:46.341Z</time>
      </trkpt>
      <trkpt lat="46.96399" lon="8.75321">
        <ele>1039</ele>
        <time>2021-08-06T09:47:47.341Z</time>
      </trkpt>
      <trkpt lat="46.96397" lon="8.75319">
        <ele>1039</ele>
        <time>2021-08-06T09:47:48.342Z</time>
      </trkpt>
      <trkpt lat="46.96396" lon="8.75319">
        <ele>1039</ele>
        <time>2021-08-06T09:47:49.341Z</time>
      </trkpt>
      <trkpt lat="46.96395" lon="8.75319">
        <ele>1039</ele>
        <time>2021-08-06T09:47:50.342Z</time>
      </trkpt>
      <trkpt lat="46.96394" lon="8.75317">
        <ele>1039</ele>
        <time>2021-08-06T09:47:51.341Z</time>
      </trkpt>
      <trkpt lat="46.96392" lon="8.75316">
        <ele>1039</ele>
        <time>2021-08-06T09:47:52.341Z</time>
      </trkpt>
      <trkpt lat="46.9639" lon="8.75314">
        <ele>1039</ele>
        <time>2021-08-06T09:47:53.341Z</time>
      </trkpt>
      <trkpt lat="46.96389" lon="8.75312">
        <ele>1038</ele>
        <time>2021-08-06T09:47:54.342Z</time>
      </trkpt>
      <trkpt lat="46.96387" lon="8.7531">
        <ele>1038</ele>
        <time>2021-08-06T09:47:55.341Z</time>
      </trkpt>
      <trkpt lat="46.96385" lon="8.7531">
        <ele>1038</ele>
        <time>2021-08-06T09:47:56.341Z</time>
      </trkpt>
      <trkpt lat="46.96384" lon="8.75309">
        <ele>1037</ele>
        <time>2021-08-06T09:47:57.341Z</time>
      </trkpt>
      <trkpt lat="46.96383" lon="8.75307">
        <ele>1037</ele>
        <time>2021-08-06T09:47:58.342Z</time>
      </trkpt>
      <trkpt lat="46.96382" lon="8.75306">
        <ele>1037</ele>
        <time>2021-08-06T09:47:59.341Z</time>
      </trkpt>
      <trkpt lat="46.96381" lon="8.75305">
        <ele>1037</ele>
        <time>2021-08-06T09:48:00.341Z</time>
      </trkpt>
      <trkpt lat="46.9638" lon="8.75304">
        <ele>1036</ele>
        <time>2021-08-06T09:48:01.342Z</time>
      </trkpt>
      <trkpt lat="46.9638" lon="8.75303">
        <ele>1036</ele>
        <time>2021-08-06T09:48:02.341Z</time>
      </trkpt>
      <trkpt lat="46.96379" lon="8.75302">
        <ele>1035</ele>
        <time>2021-08-06T09:48:03.342Z</time>
      </trkpt>
      <trkpt lat="46.96378" lon="8.75301">
        <ele>1034</ele>
        <time>2021-08-06T09:48:04.341Z</time>
      </trkpt>
      <trkpt lat="46.96377" lon="8.75299">
        <ele>1034</ele>
        <time>2021-08-06T09:48:05.342Z</time>
      </trkpt>
      <trkpt lat="46.96377" lon="8.75298">
        <ele>1033</ele>
        <time>2021-08-06T09:48:06.341Z</time>
      </trkpt>
      <trkpt lat="46.96377" lon="8.75296">
        <ele>1032</ele>
        <time>2021-08-06T09:48:07.341Z</time>
      </trkpt>
      <trkpt lat="46.96376" lon="8.75295">
        <ele>1032</ele>
        <time>2021-08-06T09:48:08.341Z</time>
      </trkpt>
      <trkpt lat="46.96375" lon="8.75294">
        <ele>1031</ele>
        <time>2021-08-06T09:48:09.342Z</time>
      </trkpt>
      <trkpt lat="46.96374" lon="8.75293">
        <ele>1030</ele>
        <time>2021-08-06T09:48:10.341Z</time>
      </trkpt>
      <trkpt lat="46.96373" lon="8.75292">
        <ele>1029</ele>
        <time>2021-08-06T09:48:11.341Z</time>
      </trkpt>
      <trkpt lat="46.96372" lon="8.75291">
        <ele>1029</ele>
        <time>2021-08-06T09:48:12.341Z</time>
      </trkpt>
      <trkpt lat="46.9637" lon="8.7529">
        <ele>1029</ele>
        <time>2021-08-06T09:48:13.341Z</time>
      </trkpt>
      <trkpt lat="46.96369" lon="8.75289">
        <ele>1029</ele>
        <time>2021-08-06T09:48:14.341Z</time>
      </trkpt>
      <trkpt lat="46.96369" lon="8.75288">
        <ele>1029</ele>
        <time>2021-08-06T09:48:15.342Z</time>
      </trkpt>
      <trkpt lat="46.96368" lon="8.75286">
        <ele>1029</ele>
        <time>2021-08-06T09:48:16.341Z</time>
      </trkpt>
      <trkpt lat="46.96366" lon="8.75284">
        <ele>1030</ele>
        <time>2021-08-06T09:48:17.341Z</time>
      </trkpt>
      <trkpt lat="46.96366" lon="8.75282">
        <ele>1030</ele>
        <time>2021-08-06T09:48:18.341Z</time>
      </trkpt>
      <trkpt lat="46.96365" lon="8.7528">
        <ele>1029</ele>
        <time>2021-08-06T09:48:19.341Z</time>
      </trkpt>
      <trkpt lat="46.96364" lon="8.75279">
        <ele>1029</ele>
        <time>2021-08-06T09:48:20.341Z</time>
      </trkpt>
      <trkpt lat="46.96363" lon="8.75277">
        <ele>1029</ele>
        <time>2021-08-06T09:48:21.341Z</time>
      </trkpt>
      <trkpt lat="46.96363" lon="8.75275">
        <ele>1029</ele>
        <time>2021-08-06T09:48:22.341Z</time>
      </trkpt>
      <trkpt lat="46.96363" lon="8.75273">
        <ele>1028</ele>
        <time>2021-08-06T09:48:23.342Z</time>
      </trkpt>
      <trkpt lat="46.96363" lon="8.75271">
        <ele>1028</ele>
        <time>2021-08-06T09:48:24.341Z</time>
      </trkpt>
      <trkpt lat="46.96362" lon="8.75269">
        <ele>1029</ele>
        <time>2021-08-06T09:48:25.341Z</time>
      </trkpt>
      <trkpt lat="46.96362" lon="8.75267">
        <ele>1029</ele>
        <time>2021-08-06T09:48:26.341Z</time>
      </trkpt>
      <trkpt lat="46.96362" lon="8.75266">
        <ele>1029</ele>
        <time>2021-08-06T09:48:27.341Z</time>
      </trkpt>
      <trkpt lat="46.96361" lon="8.75264">
        <ele>1029</ele>
        <time>2021-08-06T09:48:28.342Z</time>
      </trkpt>
      <trkpt lat="46.96361" lon="8.75263">
        <ele>1030</ele>
        <time>2021-08-06T09:48:29.342Z</time>
      </trkpt>
      <trkpt lat="46.96359" lon="8.75261">
        <ele>1030</ele>
        <time>2021-08-06T09:48:30.341Z</time>
      </trkpt>
      <trkpt lat="46.96357" lon="8.7526">
        <ele>1030</ele>
        <time>2021-08-06T09:48:31.341Z</time>
      </trkpt>
      <trkpt lat="46.96354" lon="8.75258">
        <ele>1031</ele>
        <time>2021-08-06T09:48:32.342Z</time>
      </trkpt>
      <trkpt lat="46.96354" lon="8.75256">
        <ele>1031</ele>
        <time>2021-08-06T09:48:33.341Z</time>
      </trkpt>
      <trkpt lat="46.96353" lon="8.75255">
        <ele>1032</ele>
        <time>2021-08-06T09:48:34.341Z</time>
      </trkpt>
      <trkpt lat="46.96353" lon="8.75253">
        <ele>1032</ele>
        <time>2021-08-06T09:48:35.341Z</time>
      </trkpt>
      <trkpt lat="46.96353" lon="8.75252">
        <ele>1033</ele>
        <time>2021-08-06T09:48:36.341Z</time>
      </trkpt>
      <trkpt lat="46.96352" lon="8.7525">
        <ele>1033</ele>
        <time>2021-08-06T09:48:37.341Z</time>
      </trkpt>
      <trkpt lat="46.96352" lon="8.75249">
        <ele>1033</ele>
        <time>2021-08-06T09:48:38.342Z</time>
      </trkpt>
      <trkpt lat="46.96351" lon="8.75248">
        <ele>1033</ele>
        <time>2021-08-06T09:48:39.341Z</time>
      </trkpt>
      <trkpt lat="46.9635" lon="8.75247">
        <ele>1032</ele>
        <time>2021-08-06T09:48:40.341Z</time>
      </trkpt>
      <trkpt lat="46.9635" lon="8.75245">
        <ele>1032</ele>
        <time>2021-08-06T09:48:41.342Z</time>
      </trkpt>
      <trkpt lat="46.9635" lon="8.75243">
        <ele>1032</ele>
        <time>2021-08-06T09:48:42.341Z</time>
      </trkpt>
      <trkpt lat="46.96349" lon="8.75242">
        <ele>1032</ele>
        <time>2021-08-06T09:48:43.341Z</time>
      </trkpt>
      <trkpt lat="46.96349" lon="8.7524">
        <ele>1032</ele>
        <time>2021-08-06T09:48:44.341Z</time>
      </trkpt>
      <trkpt lat="46.96349" lon="8.75238">
        <ele>1032</ele>
        <time>2021-08-06T09:48:45.341Z</time>
      </trkpt>
      <trkpt lat="46.96348" lon="8.75237">
        <ele>1032</ele>
        <time>2021-08-06T09:48:46.341Z</time>
      </trkpt>
      <trkpt lat="46.96348" lon="8.75236">
        <ele>1032</ele>
        <time>2021-08-06T09:48:47.341Z</time>
      </trkpt>
      <trkpt lat="46.96348" lon="8.75234">
        <ele>1032</ele>
        <time>2021-08-06T09:48:48.341Z</time>
      </trkpt>
      <trkpt lat="46.96347" lon="8.75232">
        <ele>1032</ele>
        <time>2021-08-06T09:48:49.341Z</time>
      </trkpt>
      <trkpt lat="46.96347" lon="8.75231">
        <ele>1032</ele>
        <time>2021-08-06T09:48:50.341Z</time>
      </trkpt>
      <trkpt lat="46.96346" lon="8.75229">
        <ele>1032</ele>
        <time>2021-08-06T09:48:51.341Z</time>
      </trkpt>
      <trkpt lat="46.96346" lon="8.75227">
        <ele>1032</ele>
        <time>2021-08-06T09:48:52.341Z</time>
      </trkpt>
      <trkpt lat="46.96346" lon="8.75226">
        <ele>1033</ele>
        <time>2021-08-06T09:48:53.342Z</time>
      </trkpt>
      <trkpt lat="46.96346" lon="8.75223">
        <ele>1033</ele>
        <time>2021-08-06T09:48:54.341Z</time>
      </trkpt>
      <trkpt lat="46.96346" lon="8.75221">
        <ele>1033</ele>
        <time>2021-08-06T09:48:55.341Z</time>
      </trkpt>
      <trkpt lat="46.96345" lon="8.75218">
        <ele>1033</ele>
        <time>2021-08-06T09:48:56.341Z</time>
      </trkpt>
      <trkpt lat="46.96343" lon="8.75217">
        <ele>1034</ele>
        <time>2021-08-06T09:48:57.341Z</time>
      </trkpt>
      <trkpt lat="46.96341" lon="8.75215">
        <ele>1034</ele>
        <time>2021-08-06T09:48:58.341Z</time>
      </trkpt>
      <trkpt lat="46.9634" lon="8.75213">
        <ele>1034</ele>
        <time>2021-08-06T09:48:59.341Z</time>
      </trkpt>
      <trkpt lat="46.9634" lon="8.75212">
        <ele>1035</ele>
        <time>2021-08-06T09:49:00.341Z</time>
      </trkpt>
      <trkpt lat="46.96339" lon="8.75211">
        <ele>1035</ele>
        <time>2021-08-06T09:49:01.342Z</time>
      </trkpt>
      <trkpt lat="46.96338" lon="8.7521">
        <ele>1035</ele>
        <time>2021-08-06T09:49:02.341Z</time>
      </trkpt>
      <trkpt lat="46.96338" lon="8.75208">
        <ele>1036</ele>
        <time>2021-08-06T09:49:03.341Z</time>
      </trkpt>
      <trkpt lat="46.96337" lon="8.75207">
        <ele>1036</ele>
        <time>2021-08-06T09:49:04.341Z</time>
      </trkpt>
      <trkpt lat="46.96336" lon="8.75205">
        <ele>1036</ele>
        <time>2021-08-06T09:49:05.341Z</time>
      </trkpt>
      <trkpt lat="46.96335" lon="8.75204">
        <ele>1036</ele>
        <time>2021-08-06T09:49:06.341Z</time>
      </trkpt>
      <trkpt lat="46.96334" lon="8.75203">
        <ele>1036</ele>
        <time>2021-08-06T09:49:07.341Z</time>
      </trkpt>
      <trkpt lat="46.96334" lon="8.75201">
        <ele>1036</ele>
        <time>2021-08-06T09:49:08.341Z</time>
      </trkpt>
      <trkpt lat="46.96333" lon="8.752">
        <ele>1036</ele>
        <time>2021-08-06T09:49:09.342Z</time>
      </trkpt>
      <trkpt lat="46.96332" lon="8.75198">
        <ele>1036</ele>
        <time>2021-08-06T09:49:10.341Z</time>
      </trkpt>
      <trkpt lat="46.96331" lon="8.75197">
        <ele>1036</ele>
        <time>2021-08-06T09:49:11.341Z</time>
      </trkpt>
      <trkpt lat="46.96331" lon="8.75196">
        <ele>1036</ele>
        <time>2021-08-06T09:49:12.341Z</time>
      </trkpt>
      <trkpt lat="46.96331" lon="8.75194">
        <ele>1036</ele>
        <time>2021-08-06T09:49:13.342Z</time>
      </trkpt>
      <trkpt lat="46.96332" lon="8.75193">
        <ele>1036</ele>
        <time>2021-08-06T09:49:14.342Z</time>
      </trkpt>
      <trkpt lat="46.96332" lon="8.75191">
        <ele>1036</ele>
        <time>2021-08-06T09:49:15.342Z</time>
      </trkpt>
      <trkpt lat="46.96332" lon="8.7519">
        <ele>1036</ele>
        <time>2021-08-06T09:49:16.341Z</time>
      </trkpt>
      <trkpt lat="46.96331" lon="8.75188">
        <ele>1035</ele>
        <time>2021-08-06T09:49:17.341Z</time>
      </trkpt>
      <trkpt lat="46.96331" lon="8.75187">
        <ele>1035</ele>
        <time>2021-08-06T09:49:18.341Z</time>
      </trkpt>
      <trkpt lat="46.9633" lon="8.75185">
        <ele>1036</ele>
        <time>2021-08-06T09:49:19.341Z</time>
      </trkpt>
      <trkpt lat="46.96329" lon="8.75184">
        <ele>1036</ele>
        <time>2021-08-06T09:49:20.342Z</time>
      </trkpt>
      <trkpt lat="46.96329" lon="8.75182">
        <ele>1036</ele>
        <time>2021-08-06T09:49:21.341Z</time>
      </trkpt>
      <trkpt lat="46.96328" lon="8.7518">
        <ele>1035</ele>
        <time>2021-08-06T09:49:22.342Z</time>
      </trkpt>
      <trkpt lat="46.96328" lon="8.75179">
        <ele>1035</ele>
        <time>2021-08-06T09:49:23.341Z</time>
      </trkpt>
      <trkpt lat="46.96327" lon="8.75178">
        <ele>1035</ele>
        <time>2021-08-06T09:49:24.341Z</time>
      </trkpt>
      <trkpt lat="46.96327" lon="8.75176">
        <ele>1035</ele>
        <time>2021-08-06T09:49:25.341Z</time>
      </trkpt>
      <trkpt lat="46.96325" lon="8.75175">
        <ele>1035</ele>
        <time>2021-08-06T09:49:26.342Z</time>
      </trkpt>
      <trkpt lat="46.96326" lon="8.75173">
        <ele>1035</ele>
        <time>2021-08-06T09:49:27.342Z</time>
      </trkpt>
      <trkpt lat="46.96324" lon="8.75172">
        <ele>1035</ele>
        <time>2021-08-06T09:49:28.342Z</time>
      </trkpt>
      <trkpt lat="46.96324" lon="8.7517">
        <ele>1035</ele>
        <time>2021-08-06T09:49:29.341Z</time>
      </trkpt>
      <trkpt lat="46.96323" lon="8.75169">
        <ele>1035</ele>
        <time>2021-08-06T09:49:30.342Z</time>
      </trkpt>
      <trkpt lat="46.96323" lon="8.75167">
        <ele>1036</ele>
        <time>2021-08-06T09:49:31.341Z</time>
      </trkpt>
      <trkpt lat="46.96322" lon="8.75165">
        <ele>1036</ele>
        <time>2021-08-06T09:49:32.341Z</time>
      </trkpt>
      <trkpt lat="46.96322" lon="8.75163">
        <ele>1036</ele>
        <time>2021-08-06T09:49:33.341Z</time>
      </trkpt>
      <trkpt lat="46.96322" lon="8.75162">
        <ele>1036</ele>
        <time>2021-08-06T09:49:34.341Z</time>
      </trkpt>
      <trkpt lat="46.96321" lon="8.7516">
        <ele>1036</ele>
        <time>2021-08-06T09:49:35.341Z</time>
      </trkpt>
      <trkpt lat="46.96321" lon="8.75159">
        <ele>1036</ele>
        <time>2021-08-06T09:49:36.341Z</time>
      </trkpt>
      <trkpt lat="46.9632" lon="8.75157">
        <ele>1036</ele>
        <time>2021-08-06T09:49:37.341Z</time>
      </trkpt>
      <trkpt lat="46.9632" lon="8.75156">
        <ele>1037</ele>
        <time>2021-08-06T09:49:38.341Z</time>
      </trkpt>
      <trkpt lat="46.9632" lon="8.75154">
        <ele>1037</ele>
        <time>2021-08-06T09:49:39.341Z</time>
      </trkpt>
      <trkpt lat="46.96319" lon="8.75152">
        <ele>1037</ele>
        <time>2021-08-06T09:49:40.341Z</time>
      </trkpt>
      <trkpt lat="46.96318" lon="8.75151">
        <ele>1037</ele>
        <time>2021-08-06T09:49:41.341Z</time>
      </trkpt>
      <trkpt lat="46.96318" lon="8.7515">
        <ele>1037</ele>
        <time>2021-08-06T09:49:42.342Z</time>
      </trkpt>
      <trkpt lat="46.96317" lon="8.75149">
        <ele>1037</ele>
        <time>2021-08-06T09:49:43.341Z</time>
      </trkpt>
      <trkpt lat="46.96317" lon="8.75147">
        <ele>1037</ele>
        <time>2021-08-06T09:49:44.341Z</time>
      </trkpt>
      <trkpt lat="46.96316" lon="8.75146">
        <ele>1037</ele>
        <time>2021-08-06T09:49:45.341Z</time>
      </trkpt>
      <trkpt lat="46.96316" lon="8.75145">
        <ele>1037</ele>
        <time>2021-08-06T09:49:46.341Z</time>
      </trkpt>
      <trkpt lat="46.96315" lon="8.75143">
        <ele>1037</ele>
        <time>2021-08-06T09:49:47.341Z</time>
      </trkpt>
      <trkpt lat="46.96314" lon="8.75142">
        <ele>1037</ele>
        <time>2021-08-06T09:49:48.341Z</time>
      </trkpt>
      <trkpt lat="46.96312" lon="8.75141">
        <ele>1037</ele>
        <time>2021-08-06T09:49:49.341Z</time>
      </trkpt>
      <trkpt lat="46.96311" lon="8.75141">
        <ele>1037</ele>
        <time>2021-08-06T09:49:50.342Z</time>
      </trkpt>
      <trkpt lat="46.9631" lon="8.7514">
        <ele>1037</ele>
        <time>2021-08-06T09:49:51.341Z</time>
      </trkpt>
      <trkpt lat="46.96309" lon="8.75139">
        <ele>1037</ele>
        <time>2021-08-06T09:49:52.341Z</time>
      </trkpt>
      <trkpt lat="46.96307" lon="8.75138">
        <ele>1036</ele>
        <time>2021-08-06T09:49:53.341Z</time>
      </trkpt>
      <trkpt lat="46.96306" lon="8.75138">
        <ele>1036</ele>
        <time>2021-08-06T09:49:54.341Z</time>
      </trkpt>
      <trkpt lat="46.96306" lon="8.75137">
        <ele>1037</ele>
        <time>2021-08-06T09:49:55.341Z</time>
      </trkpt>
      <trkpt lat="46.96306" lon="8.75136">
        <ele>1037</ele>
        <time>2021-08-06T09:49:56.341Z</time>
      </trkpt>
      <trkpt lat="46.96306" lon="8.75134">
        <ele>1038</ele>
        <time>2021-08-06T09:49:57.341Z</time>
      </trkpt>
      <trkpt lat="46.96306" lon="8.75134">
        <ele>1038</ele>
        <time>2021-08-06T09:49:58.342Z</time>
      </trkpt>
      <trkpt lat="46.96306" lon="8.75134">
        <ele>1038</ele>
        <time>2021-08-06T09:49:59.342Z</time>
      </trkpt>
      <trkpt lat="46.96306" lon="8.75135">
        <ele>1040</ele>
        <time>2021-08-06T09:50:00.343Z</time>
      </trkpt>
      <trkpt lat="46.96306" lon="8.75134">
        <ele>1041</ele>
        <time>2021-08-06T09:50:01.342Z</time>
      </trkpt>
      <trkpt lat="46.96306" lon="8.75134">
        <ele>1041</ele>
        <time>2021-08-06T09:50:02.343Z</time>
      </trkpt>
      <trkpt lat="46.96306" lon="8.75134">
        <ele>1042</ele>
        <time>2021-08-06T09:50:03.342Z</time>
      </trkpt>
      <trkpt lat="46.96306" lon="8.75134">
        <ele>1043</ele>
        <time>2021-08-06T09:50:04.343Z</time>
      </trkpt>
      <trkpt lat="46.96306" lon="8.75134">
        <ele>1044</ele>
        <time>2021-08-06T09:50:05.343Z</time>
      </trkpt>
      <trkpt lat="46.96307" lon="8.75134">
        <ele>1045</ele>
        <time>2021-08-06T09:50:06.343Z</time>
      </trkpt>
      <trkpt lat="46.96308" lon="8.75133">
        <ele>1046</ele>
        <time>2021-08-06T09:50:07.343Z</time>
      </trkpt>
      <trkpt lat="46.96308" lon="8.75132">
        <ele>1051</ele>
        <time>2021-08-06T09:50:08.345Z</time>
      </trkpt>
      <trkpt lat="46.96309" lon="8.75132">
        <ele>1052</ele>
        <time>2021-08-06T09:50:09.344Z</time>
      </trkpt>
      <trkpt lat="46.96309" lon="8.75132">
        <ele>1052</ele>
        <time>2021-08-06T09:50:10.344Z</time>
      </trkpt>
      <trkpt lat="46.96309" lon="8.75132">
        <ele>1053</ele>
        <time>2021-08-06T09:50:11.345Z</time>
      </trkpt>
      <trkpt lat="46.96309" lon="8.75132">
        <ele>1053</ele>
        <time>2021-08-06T09:50:12.345Z</time>
      </trkpt>
      <trkpt lat="46.96309" lon="8.75132">
        <ele>1053</ele>
        <time>2021-08-06T09:50:13.345Z</time>
      </trkpt>
      <trkpt lat="46.96309" lon="8.75131">
        <ele>1053</ele>
        <time>2021-08-06T09:50:14.345Z</time>
      </trkpt>
      <trkpt lat="46.96306" lon="8.75133">
        <ele>1052</ele>
        <time>2021-08-06T09:50:15.346Z</time>
      </trkpt>
      <trkpt lat="46.96306" lon="8.75133">
        <ele>1051</ele>
        <time>2021-08-06T09:50:16.346Z</time>
      </trkpt>
      <trkpt lat="46.96305" lon="8.75132">
        <ele>1051</ele>
        <time>2021-08-06T09:50:17.345Z</time>
      </trkpt>
      <trkpt lat="46.96305" lon="8.75132">
        <ele>1051</ele>
        <time>2021-08-06T09:50:18.346Z</time>
      </trkpt>
      <trkpt lat="46.96304" lon="8.75132">
        <ele>1051</ele>
        <time>2021-08-06T09:50:19.346Z</time>
      </trkpt>
      <trkpt lat="46.96304" lon="8.75131">
        <ele>1052</ele>
        <time>2021-08-06T09:50:20.346Z</time>
      </trkpt>
      <trkpt lat="46.96306" lon="8.7513">
        <ele>1055</ele>
        <time>2021-08-06T09:50:21.348Z</time>
      </trkpt>
      <trkpt lat="46.96306" lon="8.7513">
        <ele>1056</ele>
        <time>2021-08-06T09:50:22.348Z</time>
      </trkpt>
      <trkpt lat="46.96306" lon="8.7513">
        <ele>1056</ele>
        <time>2021-08-06T09:50:23.347Z</time>
      </trkpt>
      <trkpt lat="46.96306" lon="8.7513">
        <ele>1056</ele>
        <time>2021-08-06T09:50:24.349Z</time>
      </trkpt>
      <trkpt lat="46.96305" lon="8.7513">
        <ele>1056</ele>
        <time>2021-08-06T09:50:25.348Z</time>
      </trkpt>
      <trkpt lat="46.96304" lon="8.7513">
        <ele>1056</ele>
        <time>2021-08-06T09:50:26.348Z</time>
      </trkpt>
      <trkpt lat="46.96304" lon="8.7513">
        <ele>1056</ele>
        <time>2021-08-06T09:50:27.349Z</time>
      </trkpt>
      <trkpt lat="46.96304" lon="8.7513">
        <ele>1055</ele>
        <time>2021-08-06T09:50:28.348Z</time>
      </trkpt>
      <trkpt lat="46.96306" lon="8.75131">
        <ele>1053</ele>
        <time>2021-08-06T09:50:29.350Z</time>
      </trkpt>
      <trkpt lat="46.96306" lon="8.75131">
        <ele>1052</ele>
        <time>2021-08-06T09:50:30.350Z</time>
      </trkpt>
      <trkpt lat="46.96306" lon="8.75131">
        <ele>1052</ele>
        <time>2021-08-06T09:50:31.350Z</time>
      </trkpt>
      <trkpt lat="46.96307" lon="8.75132">
        <ele>1051</ele>
        <time>2021-08-06T09:50:32.350Z</time>
      </trkpt>
      <trkpt lat="46.96307" lon="8.75132">
        <ele>1051</ele>
        <time>2021-08-06T09:50:33.349Z</time>
      </trkpt>
      <trkpt lat="46.96308" lon="8.75132">
        <ele>1050</ele>
        <time>2021-08-06T09:50:34.349Z</time>
      </trkpt>
      <trkpt lat="46.96308" lon="8.75132">
        <ele>1050</ele>
        <time>2021-08-06T09:50:35.349Z</time>
      </trkpt>
      <trkpt lat="46.96308" lon="8.75133">
        <ele>1050</ele>
        <time>2021-08-06T09:50:36.349Z</time>
      </trkpt>
      <trkpt lat="46.96308" lon="8.75133">
        <ele>1049</ele>
        <time>2021-08-06T09:50:37.349Z</time>
      </trkpt>
      <trkpt lat="46.96303" lon="8.75134">
        <ele>1045</ele>
        <time>2021-08-06T09:50:38.349Z</time>
      </trkpt>
      <trkpt lat="46.96304" lon="8.75134">
        <ele>1045</ele>
        <time>2021-08-06T09:50:39.350Z</time>
      </trkpt>
      <trkpt lat="46.96305" lon="8.75133">
        <ele>1045</ele>
        <time>2021-08-06T09:50:40.350Z</time>
      </trkpt>
      <trkpt lat="46.96308" lon="8.75134">
        <ele>1044</ele>
        <time>2021-08-06T09:50:41.350Z</time>
      </trkpt>
      <trkpt lat="46.96308" lon="8.75137">
        <ele>1045</ele>
        <time>2021-08-06T09:50:42.351Z</time>
      </trkpt>
      <trkpt lat="46.96307" lon="8.75137">
        <ele>1045</ele>
        <time>2021-08-06T09:50:43.351Z</time>
      </trkpt>
      <trkpt lat="46.96308" lon="8.75137">
        <ele>1044</ele>
        <time>2021-08-06T09:50:44.352Z</time>
      </trkpt>
      <trkpt lat="46.96308" lon="8.75137">
        <ele>1044</ele>
        <time>2021-08-06T09:50:45.352Z</time>
      </trkpt>
      <trkpt lat="46.96309" lon="8.75137">
        <ele>1044</ele>
        <time>2021-08-06T09:50:46.351Z</time>
      </trkpt>
      <trkpt lat="46.96308" lon="8.75134">
        <ele>1045</ele>
        <time>2021-08-06T09:50:47.353Z</time>
      </trkpt>
      <trkpt lat="46.96308" lon="8.75135">
        <ele>1045</ele>
        <time>2021-08-06T09:50:48.353Z</time>
      </trkpt>
      <trkpt lat="46.96308" lon="8.75135">
        <ele>1045</ele>
        <time>2021-08-06T09:50:49.353Z</time>
      </trkpt>
      <trkpt lat="46.96308" lon="8.75135">
        <ele>1045</ele>
        <time>2021-08-06T09:50:50.352Z</time>
      </trkpt>
      <trkpt lat="46.96307" lon="8.75135">
        <ele>1044</ele>
        <time>2021-08-06T09:50:51.353Z</time>
      </trkpt>
      <trkpt lat="46.96306" lon="8.75135">
        <ele>1043</ele>
        <time>2021-08-06T09:50:52.352Z</time>
      </trkpt>
      <trkpt lat="46.96305" lon="8.75135">
        <ele>1042</ele>
        <time>2021-08-06T09:50:53.352Z</time>
      </trkpt>
      <trkpt lat="46.96305" lon="8.75135">
        <ele>1041</ele>
        <time>2021-08-06T09:50:54.352Z</time>
      </trkpt>
      <trkpt lat="46.96304" lon="8.75135">
        <ele>1041</ele>
        <time>2021-08-06T09:50:55.353Z</time>
      </trkpt>
      <trkpt lat="46.96305" lon="8.75135">
        <ele>1040</ele>
        <time>2021-08-06T09:50:56.353Z</time>
      </trkpt>
      <trkpt lat="46.96305" lon="8.75136">
        <ele>1039</ele>
        <time>2021-08-06T09:50:57.353Z</time>
      </trkpt>
      <trkpt lat="46.96306" lon="8.75135">
        <ele>1039</ele>
        <time>2021-08-06T09:50:58.352Z</time>
      </trkpt>
      <trkpt lat="46.96304" lon="8.75138">
        <ele>1026</ele>
        <time>2021-08-06T09:50:59.352Z</time>
      </trkpt>
      <trkpt lat="46.96304" lon="8.75138">
        <ele>1026</ele>
        <time>2021-08-06T09:51:00.352Z</time>
      </trkpt>
      <trkpt lat="46.96306" lon="8.75135">
        <ele>1027</ele>
        <time>2021-08-06T09:51:01.353Z</time>
      </trkpt>
      <trkpt lat="46.96305" lon="8.75135">
        <ele>1028</ele>
        <time>2021-08-06T09:51:02.353Z</time>
      </trkpt>
      <trkpt lat="46.96305" lon="8.75136">
        <ele>1032</ele>
        <time>2021-08-06T09:51:03.353Z</time>
      </trkpt>
      <trkpt lat="46.96305" lon="8.75136">
        <ele>1032</ele>
        <time>2021-08-06T09:51:04.353Z</time>
      </trkpt>
      <trkpt lat="46.96304" lon="8.75135">
        <ele>1033</ele>
        <time>2021-08-06T09:51:05.353Z</time>
      </trkpt>
      <trkpt lat="46.96303" lon="8.75135">
        <ele>1034</ele>
        <time>2021-08-06T09:51:06.352Z</time>
      </trkpt>
      <trkpt lat="46.96302" lon="8.75135">
        <ele>1034</ele>
        <time>2021-08-06T09:51:07.352Z</time>
      </trkpt>
      <trkpt lat="46.96301" lon="8.75135">
        <ele>1035</ele>
        <time>2021-08-06T09:51:08.353Z</time>
      </trkpt>
      <trkpt lat="46.96301" lon="8.75135">
        <ele>1035</ele>
        <time>2021-08-06T09:51:09.353Z</time>
      </trkpt>
      <trkpt lat="46.96301" lon="8.75135">
        <ele>1035</ele>
        <time>2021-08-06T09:51:10.352Z</time>
      </trkpt>
      <trkpt lat="46.96301" lon="8.75135">
        <ele>1036</ele>
        <time>2021-08-06T09:51:11.352Z</time>
      </trkpt>
      <trkpt lat="46.963" lon="8.75135">
        <ele>1036</ele>
        <time>2021-08-06T09:51:12.353Z</time>
      </trkpt>
      <trkpt lat="46.963" lon="8.75134">
        <ele>1037</ele>
        <time>2021-08-06T09:51:13.353Z</time>
      </trkpt>
      <trkpt lat="46.96299" lon="8.75134">
        <ele>1038</ele>
        <time>2021-08-06T09:51:14.353Z</time>
      </trkpt>
      <trkpt lat="46.96299" lon="8.75133">
        <ele>1038</ele>
        <time>2021-08-06T09:51:15.353Z</time>
      </trkpt>
      <trkpt lat="46.96298" lon="8.75133">
        <ele>1039</ele>
        <time>2021-08-06T09:51:16.352Z</time>
      </trkpt>
      <trkpt lat="46.96297" lon="8.75132">
        <ele>1040</ele>
        <time>2021-08-06T09:51:17.353Z</time>
      </trkpt>
      <trkpt lat="46.96296" lon="8.75131">
        <ele>1040</ele>
        <time>2021-08-06T09:51:18.353Z</time>
      </trkpt>
      <trkpt lat="46.96295" lon="8.75131">
        <ele>1041</ele>
        <time>2021-08-06T09:51:19.353Z</time>
      </trkpt>
      <trkpt lat="46.96295" lon="8.75131">
        <ele>1042</ele>
        <time>2021-08-06T09:51:20.353Z</time>
      </trkpt>
      <trkpt lat="46.96294" lon="8.7513">
        <ele>1042</ele>
        <time>2021-08-06T09:51:21.353Z</time>
      </trkpt>
      <trkpt lat="46.96294" lon="8.7513">
        <ele>1043</ele>
        <time>2021-08-06T09:51:22.352Z</time>
      </trkpt>
      <trkpt lat="46.96295" lon="8.75129">
        <ele>1044</ele>
        <time>2021-08-06T09:51:23.352Z</time>
      </trkpt>
      <trkpt lat="46.96294" lon="8.75129">
        <ele>1044</ele>
        <time>2021-08-06T09:51:24.352Z</time>
      </trkpt>
      <trkpt lat="46.96294" lon="8.75128">
        <ele>1045</ele>
        <time>2021-08-06T09:51:25.353Z</time>
      </trkpt>
      <trkpt lat="46.96293" lon="8.75128">
        <ele>1045</ele>
        <time>2021-08-06T09:51:26.353Z</time>
      </trkpt>
      <trkpt lat="46.96293" lon="8.75127">
        <ele>1045</ele>
        <time>2021-08-06T09:51:27.352Z</time>
      </trkpt>
      <trkpt lat="46.96292" lon="8.75125">
        <ele>1045</ele>
        <time>2021-08-06T09:51:28.353Z</time>
      </trkpt>
      <trkpt lat="46.96292" lon="8.75124">
        <ele>1045</ele>
        <time>2021-08-06T09:51:29.353Z</time>
      </trkpt>
      <trkpt lat="46.96291" lon="8.75123">
        <ele>1045</ele>
        <time>2021-08-06T09:51:30.352Z</time>
      </trkpt>
      <trkpt lat="46.9629" lon="8.75123">
        <ele>1045</ele>
        <time>2021-08-06T09:51:31.353Z</time>
      </trkpt>
      <trkpt lat="46.9629" lon="8.75122">
        <ele>1045</ele>
        <time>2021-08-06T09:51:32.353Z</time>
      </trkpt>
      <trkpt lat="46.9629" lon="8.75121">
        <ele>1044</ele>
        <time>2021-08-06T09:51:33.353Z</time>
      </trkpt>
      <trkpt lat="46.9629" lon="8.7512">
        <ele>1044</ele>
        <time>2021-08-06T09:51:34.352Z</time>
      </trkpt>
      <trkpt lat="46.9629" lon="8.75119">
        <ele>1044</ele>
        <time>2021-08-06T09:51:35.353Z</time>
      </trkpt>
      <trkpt lat="46.9629" lon="8.75118">
        <ele>1043</ele>
        <time>2021-08-06T09:51:36.352Z</time>
      </trkpt>
      <trkpt lat="46.96289" lon="8.75117">
        <ele>1043</ele>
        <time>2021-08-06T09:51:37.352Z</time>
      </trkpt>
      <trkpt lat="46.96288" lon="8.75117">
        <ele>1043</ele>
        <time>2021-08-06T09:51:38.353Z</time>
      </trkpt>
      <trkpt lat="46.96287" lon="8.75116">
        <ele>1044</ele>
        <time>2021-08-06T09:51:39.352Z</time>
      </trkpt>
      <trkpt lat="46.96286" lon="8.75115">
        <ele>1044</ele>
        <time>2021-08-06T09:51:40.353Z</time>
      </trkpt>
      <trkpt lat="46.96284" lon="8.75114">
        <ele>1044</ele>
        <time>2021-08-06T09:51:41.352Z</time>
      </trkpt>
      <trkpt lat="46.96283" lon="8.75114">
        <ele>1045</ele>
        <time>2021-08-06T09:51:42.353Z</time>
      </trkpt>
      <trkpt lat="46.96282" lon="8.75113">
        <ele>1046</ele>
        <time>2021-08-06T09:51:43.352Z</time>
      </trkpt>
      <trkpt lat="46.96282" lon="8.75112">
        <ele>1046</ele>
        <time>2021-08-06T09:51:44.352Z</time>
      </trkpt>
      <trkpt lat="46.96281" lon="8.75112">
        <ele>1047</ele>
        <time>2021-08-06T09:51:45.353Z</time>
      </trkpt>
      <trkpt lat="46.96281" lon="8.75112">
        <ele>1048</ele>
        <time>2021-08-06T09:51:46.353Z</time>
      </trkpt>
      <trkpt lat="46.96281" lon="8.75112">
        <ele>1048</ele>
        <time>2021-08-06T09:51:47.353Z</time>
      </trkpt>
      <trkpt lat="46.9628" lon="8.75111">
        <ele>1049</ele>
        <time>2021-08-06T09:51:48.353Z</time>
      </trkpt>
      <trkpt lat="46.9628" lon="8.7511">
        <ele>1050</ele>
        <time>2021-08-06T09:51:49.352Z</time>
      </trkpt>
      <trkpt lat="46.96279" lon="8.75109">
        <ele>1050</ele>
        <time>2021-08-06T09:51:50.352Z</time>
      </trkpt>
      <trkpt lat="46.96278" lon="8.75108">
        <ele>1051</ele>
        <time>2021-08-06T09:51:51.352Z</time>
      </trkpt>
      <trkpt lat="46.96278" lon="8.75107">
        <ele>1050</ele>
        <time>2021-08-06T09:51:52.353Z</time>
      </trkpt>
      <trkpt lat="46.96278" lon="8.75106">
        <ele>1050</ele>
        <time>2021-08-06T09:51:53.353Z</time>
      </trkpt>
      <trkpt lat="46.96278" lon="8.75105">
        <ele>1050</ele>
        <time>2021-08-06T09:51:54.353Z</time>
      </trkpt>
      <trkpt lat="46.96278" lon="8.75105">
        <ele>1050</ele>
        <time>2021-08-06T09:51:55.353Z</time>
      </trkpt>
      <trkpt lat="46.96277" lon="8.75104">
        <ele>1050</ele>
        <time>2021-08-06T09:51:56.353Z</time>
      </trkpt>
      <trkpt lat="46.96277" lon="8.75103">
        <ele>1050</ele>
        <time>2021-08-06T09:51:57.353Z</time>
      </trkpt>
      <trkpt lat="46.96277" lon="8.75103">
        <ele>1050</ele>
        <time>2021-08-06T09:51:58.353Z</time>
      </trkpt>
      <trkpt lat="46.96278" lon="8.75101">
        <ele>1050</ele>
        <time>2021-08-06T09:51:59.352Z</time>
      </trkpt>
      <trkpt lat="46.96279" lon="8.75099">
        <ele>1050</ele>
        <time>2021-08-06T09:52:00.353Z</time>
      </trkpt>
      <trkpt lat="46.96279" lon="8.75098">
        <ele>1050</ele>
        <time>2021-08-06T09:52:01.353Z</time>
      </trkpt>
      <trkpt lat="46.9628" lon="8.75097">
        <ele>1050</ele>
        <time>2021-08-06T09:52:02.352Z</time>
      </trkpt>
      <trkpt lat="46.9628" lon="8.75096">
        <ele>1049</ele>
        <time>2021-08-06T09:52:03.352Z</time>
      </trkpt>
      <trkpt lat="46.9628" lon="8.75095">
        <ele>1049</ele>
        <time>2021-08-06T09:52:04.352Z</time>
      </trkpt>
      <trkpt lat="46.96281" lon="8.75094">
        <ele>1049</ele>
        <time>2021-08-06T09:52:05.353Z</time>
      </trkpt>
      <trkpt lat="46.96281" lon="8.75093">
        <ele>1049</ele>
        <time>2021-08-06T09:52:06.352Z</time>
      </trkpt>
      <trkpt lat="46.96281" lon="8.75092">
        <ele>1048</ele>
        <time>2021-08-06T09:52:07.352Z</time>
      </trkpt>
      <trkpt lat="46.9628" lon="8.75091">
        <ele>1048</ele>
        <time>2021-08-06T09:52:08.353Z</time>
      </trkpt>
      <trkpt lat="46.96279" lon="8.7509">
        <ele>1047</ele>
        <time>2021-08-06T09:52:09.352Z</time>
      </trkpt>
      <trkpt lat="46.96278" lon="8.7509">
        <ele>1046</ele>
        <time>2021-08-06T09:52:10.352Z</time>
      </trkpt>
      <trkpt lat="46.96278" lon="8.75089">
        <ele>1045</ele>
        <time>2021-08-06T09:52:11.352Z</time>
      </trkpt>
      <trkpt lat="46.96277" lon="8.75089">
        <ele>1044</ele>
        <time>2021-08-06T09:52:12.352Z</time>
      </trkpt>
      <trkpt lat="46.96276" lon="8.75088">
        <ele>1044</ele>
        <time>2021-08-06T09:52:13.352Z</time>
      </trkpt>
      <trkpt lat="46.96275" lon="8.75088">
        <ele>1043</ele>
        <time>2021-08-06T09:52:14.352Z</time>
      </trkpt>
      <trkpt lat="46.96275" lon="8.75087">
        <ele>1043</ele>
        <time>2021-08-06T09:52:15.352Z</time>
      </trkpt>
      <trkpt lat="46.96274" lon="8.75086">
        <ele>1043</ele>
        <time>2021-08-06T09:52:16.352Z</time>
      </trkpt>
      <trkpt lat="46.96273" lon="8.75086">
        <ele>1042</ele>
        <time>2021-08-06T09:52:17.353Z</time>
      </trkpt>
      <trkpt lat="46.96271" lon="8.75086">
        <ele>1042</ele>
        <time>2021-08-06T09:52:18.352Z</time>
      </trkpt>
      <trkpt lat="46.9627" lon="8.75085">
        <ele>1041</ele>
        <time>2021-08-06T09:52:19.352Z</time>
      </trkpt>
      <trkpt lat="46.96269" lon="8.75085">
        <ele>1041</ele>
        <time>2021-08-06T09:52:20.352Z</time>
      </trkpt>
      <trkpt lat="46.96269" lon="8.75083">
        <ele>1041</ele>
        <time>2021-08-06T09:52:21.352Z</time>
      </trkpt>
      <trkpt lat="46.9627" lon="8.75082">
        <ele>1041</ele>
        <time>2021-08-06T09:52:22.352Z</time>
      </trkpt>
      <trkpt lat="46.9627" lon="8.75081">
        <ele>1041</ele>
        <time>2021-08-06T09:52:23.352Z</time>
      </trkpt>
      <trkpt lat="46.9627" lon="8.75079">
        <ele>1042</ele>
        <time>2021-08-06T09:52:24.352Z</time>
      </trkpt>
      <trkpt lat="46.9627" lon="8.75079">
        <ele>1043</ele>
        <time>2021-08-06T09:52:25.352Z</time>
      </trkpt>
      <trkpt lat="46.9627" lon="8.75078">
        <ele>1043</ele>
        <time>2021-08-06T09:52:26.352Z</time>
      </trkpt>
      <trkpt lat="46.96269" lon="8.75077">
        <ele>1044</ele>
        <time>2021-08-06T09:52:27.352Z</time>
      </trkpt>
      <trkpt lat="46.96269" lon="8.75077">
        <ele>1045</ele>
        <time>2021-08-06T09:52:28.352Z</time>
      </trkpt>
      <trkpt lat="46.96269" lon="8.75076">
        <ele>1046</ele>
        <time>2021-08-06T09:52:29.352Z</time>
      </trkpt>
      <trkpt lat="46.96269" lon="8.75075">
        <ele>1046</ele>
        <time>2021-08-06T09:52:30.352Z</time>
      </trkpt>
      <trkpt lat="46.96268" lon="8.75074">
        <ele>1047</ele>
        <time>2021-08-06T09:52:31.352Z</time>
      </trkpt>
      <trkpt lat="46.96269" lon="8.75073">
        <ele>1048</ele>
        <time>2021-08-06T09:52:32.353Z</time>
      </trkpt>
      <trkpt lat="46.96268" lon="8.75073">
        <ele>1048</ele>
        <time>2021-08-06T09:52:33.352Z</time>
      </trkpt>
      <trkpt lat="46.96268" lon="8.75072">
        <ele>1049</ele>
        <time>2021-08-06T09:52:34.353Z</time>
      </trkpt>
      <trkpt lat="46.96268" lon="8.75071">
        <ele>1050</ele>
        <time>2021-08-06T09:52:35.353Z</time>
      </trkpt>
      <trkpt lat="46.96268" lon="8.75071">
        <ele>1051</ele>
        <time>2021-08-06T09:52:36.353Z</time>
      </trkpt>
      <trkpt lat="46.96268" lon="8.7507">
        <ele>1052</ele>
        <time>2021-08-06T09:52:37.353Z</time>
      </trkpt>
      <trkpt lat="46.96267" lon="8.75069">
        <ele>1052</ele>
        <time>2021-08-06T09:52:38.352Z</time>
      </trkpt>
      <trkpt lat="46.96266" lon="8.75068">
        <ele>1053</ele>
        <time>2021-08-06T09:52:39.353Z</time>
      </trkpt>
      <trkpt lat="46.96266" lon="8.75068">
        <ele>1053</ele>
        <time>2021-08-06T09:52:40.352Z</time>
      </trkpt>
      <trkpt lat="46.96265" lon="8.75067">
        <ele>1053</ele>
        <time>2021-08-06T09:52:41.353Z</time>
      </trkpt>
      <trkpt lat="46.96265" lon="8.75066">
        <ele>1053</ele>
        <time>2021-08-06T09:52:42.353Z</time>
      </trkpt>
      <trkpt lat="46.96264" lon="8.75066">
        <ele>1053</ele>
        <time>2021-08-06T09:52:43.353Z</time>
      </trkpt>
      <trkpt lat="46.96263" lon="8.75065">
        <ele>1054</ele>
        <time>2021-08-06T09:52:44.353Z</time>
      </trkpt>
      <trkpt lat="46.96262" lon="8.75064">
        <ele>1054</ele>
        <time>2021-08-06T09:52:45.353Z</time>
      </trkpt>
      <trkpt lat="46.96261" lon="8.75063">
        <ele>1054</ele>
        <time>2021-08-06T09:52:46.353Z</time>
      </trkpt>
      <trkpt lat="46.9626" lon="8.75062">
        <ele>1054</ele>
        <time>2021-08-06T09:52:47.352Z</time>
      </trkpt>
      <trkpt lat="46.96259" lon="8.75061">
        <ele>1054</ele>
        <time>2021-08-06T09:52:48.353Z</time>
      </trkpt>
      <trkpt lat="46.96258" lon="8.7506">
        <ele>1054</ele>
        <time>2021-08-06T09:52:49.353Z</time>
      </trkpt>
      <trkpt lat="46.96257" lon="8.75059">
        <ele>1054</ele>
        <time>2021-08-06T09:52:50.352Z</time>
      </trkpt>
      <trkpt lat="46.96256" lon="8.75058">
        <ele>1054</ele>
        <time>2021-08-06T09:52:51.352Z</time>
      </trkpt>
      <trkpt lat="46.96255" lon="8.75056">
        <ele>1054</ele>
        <time>2021-08-06T09:52:52.352Z</time>
      </trkpt>
      <trkpt lat="46.96253" lon="8.75055">
        <ele>1053</ele>
        <time>2021-08-06T09:52:53.352Z</time>
      </trkpt>
      <trkpt lat="46.96253" lon="8.75053">
        <ele>1053</ele>
        <time>2021-08-06T09:52:54.352Z</time>
      </trkpt>
      <trkpt lat="46.96253" lon="8.75052">
        <ele>1054</ele>
        <time>2021-08-06T09:52:55.352Z</time>
      </trkpt>
      <trkpt lat="46.96254" lon="8.7505">
        <ele>1054</ele>
        <time>2021-08-06T09:52:56.352Z</time>
      </trkpt>
      <trkpt lat="46.96254" lon="8.75048">
        <ele>1054</ele>
        <time>2021-08-06T09:52:57.352Z</time>
      </trkpt>
      <trkpt lat="46.96253" lon="8.75047">
        <ele>1054</ele>
        <time>2021-08-06T09:52:58.352Z</time>
      </trkpt>
      <trkpt lat="46.96251" lon="8.75046">
        <ele>1054</ele>
        <time>2021-08-06T09:52:59.352Z</time>
      </trkpt>
      <trkpt lat="46.96251" lon="8.75045">
        <ele>1054</ele>
        <time>2021-08-06T09:53:00.352Z</time>
      </trkpt>
      <trkpt lat="46.9625" lon="8.75044">
        <ele>1054</ele>
        <time>2021-08-06T09:53:01.352Z</time>
      </trkpt>
      <trkpt lat="46.9625" lon="8.75043">
        <ele>1054</ele>
        <time>2021-08-06T09:53:02.352Z</time>
      </trkpt>
      <trkpt lat="46.9625" lon="8.75041">
        <ele>1054</ele>
        <time>2021-08-06T09:53:03.352Z</time>
      </trkpt>
      <trkpt lat="46.9625" lon="8.75039">
        <ele>1054</ele>
        <time>2021-08-06T09:53:04.353Z</time>
      </trkpt>
      <trkpt lat="46.96249" lon="8.75038">
        <ele>1054</ele>
        <time>2021-08-06T09:53:05.353Z</time>
      </trkpt>
      <trkpt lat="46.96248" lon="8.75037">
        <ele>1055</ele>
        <time>2021-08-06T09:53:06.353Z</time>
      </trkpt>
      <trkpt lat="46.96247" lon="8.75036">
        <ele>1055</ele>
        <time>2021-08-06T09:53:07.353Z</time>
      </trkpt>
      <trkpt lat="46.96246" lon="8.75035">
        <ele>1055</ele>
        <time>2021-08-06T09:53:08.353Z</time>
      </trkpt>
      <trkpt lat="46.96243" lon="8.75035">
        <ele>1055</ele>
        <time>2021-08-06T09:53:09.353Z</time>
      </trkpt>
      <trkpt lat="46.96242" lon="8.75035">
        <ele>1055</ele>
        <time>2021-08-06T09:53:10.353Z</time>
      </trkpt>
      <trkpt lat="46.96241" lon="8.75035">
        <ele>1055</ele>
        <time>2021-08-06T09:53:11.352Z</time>
      </trkpt>
      <trkpt lat="46.96239" lon="8.75037">
        <ele>1053</ele>
        <time>2021-08-06T09:53:12.353Z</time>
      </trkpt>
      <trkpt lat="46.96239" lon="8.75037">
        <ele>1052</ele>
        <time>2021-08-06T09:53:13.353Z</time>
      </trkpt>
      <trkpt lat="46.9624" lon="8.75036">
        <ele>1051</ele>
        <time>2021-08-06T09:53:14.353Z</time>
      </trkpt>
      <trkpt lat="46.9624" lon="8.75032">
        <ele>1051</ele>
        <time>2021-08-06T09:53:15.355Z</time>
      </trkpt>
      <trkpt lat="46.96239" lon="8.75032">
        <ele>1050</ele>
        <time>2021-08-06T09:53:16.355Z</time>
      </trkpt>
      <trkpt lat="46.96239" lon="8.75031">
        <ele>1050</ele>
        <time>2021-08-06T09:53:17.355Z</time>
      </trkpt>
      <trkpt lat="46.96238" lon="8.75031">
        <ele>1050</ele>
        <time>2021-08-06T09:53:18.354Z</time>
      </trkpt>
      <trkpt lat="46.96237" lon="8.7503">
        <ele>1050</ele>
        <time>2021-08-06T09:53:19.354Z</time>
      </trkpt>
      <trkpt lat="46.96237" lon="8.75029">
        <ele>1050</ele>
        <time>2021-08-06T09:53:20.355Z</time>
      </trkpt>
      <trkpt lat="46.96236" lon="8.75029">
        <ele>1050</ele>
        <time>2021-08-06T09:53:21.354Z</time>
      </trkpt>
      <trkpt lat="46.96235" lon="8.75028">
        <ele>1050</ele>
        <time>2021-08-06T09:53:22.355Z</time>
      </trkpt>
      <trkpt lat="46.96235" lon="8.75027">
        <ele>1050</ele>
        <time>2021-08-06T09:53:23.355Z</time>
      </trkpt>
      <trkpt lat="46.96234" lon="8.75026">
        <ele>1050</ele>
        <time>2021-08-06T09:53:24.354Z</time>
      </trkpt>
      <trkpt lat="46.96234" lon="8.75025">
        <ele>1050</ele>
        <time>2021-08-06T09:53:25.354Z</time>
      </trkpt>
      <trkpt lat="46.96233" lon="8.75024">
        <ele>1050</ele>
        <time>2021-08-06T09:53:26.355Z</time>
      </trkpt>
      <trkpt lat="46.96233" lon="8.75023">
        <ele>1051</ele>
        <time>2021-08-06T09:53:27.355Z</time>
      </trkpt>
      <trkpt lat="46.96233" lon="8.75022">
        <ele>1051</ele>
        <time>2021-08-06T09:53:28.355Z</time>
      </trkpt>
      <trkpt lat="46.96233" lon="8.75021">
        <ele>1051</ele>
        <time>2021-08-06T09:53:29.355Z</time>
      </trkpt>
      <trkpt lat="46.96232" lon="8.7502">
        <ele>1051</ele>
        <time>2021-08-06T09:53:30.355Z</time>
      </trkpt>
      <trkpt lat="46.96231" lon="8.7502">
        <ele>1051</ele>
        <time>2021-08-06T09:53:31.355Z</time>
      </trkpt>
      <trkpt lat="46.96229" lon="8.7502">
        <ele>1051</ele>
        <time>2021-08-06T09:53:32.355Z</time>
      </trkpt>
      <trkpt lat="46.96229" lon="8.75019">
        <ele>1051</ele>
        <time>2021-08-06T09:53:33.355Z</time>
      </trkpt>
      <trkpt lat="46.96227" lon="8.75018">
        <ele>1052</ele>
        <time>2021-08-06T09:53:34.355Z</time>
      </trkpt>
      <trkpt lat="46.96226" lon="8.75017">
        <ele>1053</ele>
        <time>2021-08-06T09:53:35.354Z</time>
      </trkpt>
      <trkpt lat="46.96225" lon="8.75017">
        <ele>1053</ele>
        <time>2021-08-06T09:53:36.355Z</time>
      </trkpt>
      <trkpt lat="46.96224" lon="8.75016">
        <ele>1053</ele>
        <time>2021-08-06T09:53:37.354Z</time>
      </trkpt>
      <trkpt lat="46.96224" lon="8.75015">
        <ele>1054</ele>
        <time>2021-08-06T09:53:38.355Z</time>
      </trkpt>
      <trkpt lat="46.96224" lon="8.75013">
        <ele>1054</ele>
        <time>2021-08-06T09:53:39.355Z</time>
      </trkpt>
      <trkpt lat="46.96224" lon="8.75012">
        <ele>1055</ele>
        <time>2021-08-06T09:53:40.355Z</time>
      </trkpt>
      <trkpt lat="46.96224" lon="8.7501">
        <ele>1055</ele>
        <time>2021-08-06T09:53:41.355Z</time>
      </trkpt>
      <trkpt lat="46.96223" lon="8.75009">
        <ele>1056</ele>
        <time>2021-08-06T09:53:42.355Z</time>
      </trkpt>
      <trkpt lat="46.96223" lon="8.75008">
        <ele>1056</ele>
        <time>2021-08-06T09:53:43.355Z</time>
      </trkpt>
      <trkpt lat="46.96222" lon="8.75008">
        <ele>1057</ele>
        <time>2021-08-06T09:53:44.355Z</time>
      </trkpt>
      <trkpt lat="46.96222" lon="8.75007">
        <ele>1057</ele>
        <time>2021-08-06T09:53:45.354Z</time>
      </trkpt>
      <trkpt lat="46.96221" lon="8.75006">
        <ele>1058</ele>
        <time>2021-08-06T09:53:46.355Z</time>
      </trkpt>
      <trkpt lat="46.96221" lon="8.75005">
        <ele>1058</ele>
        <time>2021-08-06T09:53:47.355Z</time>
      </trkpt>
      <trkpt lat="46.96221" lon="8.75004">
        <ele>1059</ele>
        <time>2021-08-06T09:53:48.355Z</time>
      </trkpt>
      <trkpt lat="46.9622" lon="8.75003">
        <ele>1059</ele>
        <time>2021-08-06T09:53:49.355Z</time>
      </trkpt>
      <trkpt lat="46.9622" lon="8.75002">
        <ele>1059</ele>
        <time>2021-08-06T09:53:50.355Z</time>
      </trkpt>
      <trkpt lat="46.9622" lon="8.75">
        <ele>1059</ele>
        <time>2021-08-06T09:53:51.355Z</time>
      </trkpt>
      <trkpt lat="46.96219" lon="8.74999">
        <ele>1060</ele>
        <time>2021-08-06T09:53:52.355Z</time>
      </trkpt>
      <trkpt lat="46.96219" lon="8.74998">
        <ele>1060</ele>
        <time>2021-08-06T09:53:53.354Z</time>
      </trkpt>
      <trkpt lat="46.96219" lon="8.74997">
        <ele>1060</ele>
        <time>2021-08-06T09:53:54.354Z</time>
      </trkpt>
      <trkpt lat="46.96218" lon="8.74996">
        <ele>1061</ele>
        <time>2021-08-06T09:53:55.355Z</time>
      </trkpt>
      <trkpt lat="46.96218" lon="8.74995">
        <ele>1061</ele>
        <time>2021-08-06T09:53:56.355Z</time>
      </trkpt>
      <trkpt lat="46.96218" lon="8.74994">
        <ele>1061</ele>
        <time>2021-08-06T09:53:57.355Z</time>
      </trkpt>
      <trkpt lat="46.96217" lon="8.74994">
        <ele>1061</ele>
        <time>2021-08-06T09:53:58.354Z</time>
      </trkpt>
      <trkpt lat="46.96218" lon="8.74992">
        <ele>1061</ele>
        <time>2021-08-06T09:53:59.354Z</time>
      </trkpt>
      <trkpt lat="46.96218" lon="8.74991">
        <ele>1061</ele>
        <time>2021-08-06T09:54:00.355Z</time>
      </trkpt>
      <trkpt lat="46.96218" lon="8.7499">
        <ele>1061</ele>
        <time>2021-08-06T09:54:01.354Z</time>
      </trkpt>
      <trkpt lat="46.96218" lon="8.74988">
        <ele>1061</ele>
        <time>2021-08-06T09:54:02.355Z</time>
      </trkpt>
      <trkpt lat="46.96219" lon="8.74987">
        <ele>1062</ele>
        <time>2021-08-06T09:54:03.355Z</time>
      </trkpt>
      <trkpt lat="46.96218" lon="8.74986">
        <ele>1062</ele>
        <time>2021-08-06T09:54:04.354Z</time>
      </trkpt>
      <trkpt lat="46.96218" lon="8.74985">
        <ele>1062</ele>
        <time>2021-08-06T09:54:05.355Z</time>
      </trkpt>
      <trkpt lat="46.96218" lon="8.74983">
        <ele>1062</ele>
        <time>2021-08-06T09:54:06.354Z</time>
      </trkpt>
      <trkpt lat="46.96217" lon="8.74982">
        <ele>1062</ele>
        <time>2021-08-06T09:54:07.354Z</time>
      </trkpt>
      <trkpt lat="46.96217" lon="8.74981">
        <ele>1063</ele>
        <time>2021-08-06T09:54:08.355Z</time>
      </trkpt>
      <trkpt lat="46.96217" lon="8.7498">
        <ele>1063</ele>
        <time>2021-08-06T09:54:09.355Z</time>
      </trkpt>
      <trkpt lat="46.96216" lon="8.74979">
        <ele>1063</ele>
        <time>2021-08-06T09:54:10.354Z</time>
      </trkpt>
      <trkpt lat="46.96216" lon="8.74978">
        <ele>1064</ele>
        <time>2021-08-06T09:54:11.354Z</time>
      </trkpt>
      <trkpt lat="46.96215" lon="8.74977">
        <ele>1064</ele>
        <time>2021-08-06T09:54:12.354Z</time>
      </trkpt>
      <trkpt lat="46.96215" lon="8.74976">
        <ele>1065</ele>
        <time>2021-08-06T09:54:13.354Z</time>
      </trkpt>
      <trkpt lat="46.96214" lon="8.74975">
        <ele>1065</ele>
        <time>2021-08-06T09:54:14.354Z</time>
      </trkpt>
      <trkpt lat="46.96213" lon="8.74975">
        <ele>1065</ele>
        <time>2021-08-06T09:54:15.354Z</time>
      </trkpt>
      <trkpt lat="46.96212" lon="8.74974">
        <ele>1065</ele>
        <time>2021-08-06T09:54:16.354Z</time>
      </trkpt>
      <trkpt lat="46.96212" lon="8.74972">
        <ele>1065</ele>
        <time>2021-08-06T09:54:17.354Z</time>
      </trkpt>
      <trkpt lat="46.96211" lon="8.74971">
        <ele>1064</ele>
        <time>2021-08-06T09:54:18.354Z</time>
      </trkpt>
      <trkpt lat="46.96211" lon="8.7497">
        <ele>1064</ele>
        <time>2021-08-06T09:54:19.354Z</time>
      </trkpt>
      <trkpt lat="46.96212" lon="8.74968">
        <ele>1064</ele>
        <time>2021-08-06T09:54:20.354Z</time>
      </trkpt>
      <trkpt lat="46.96213" lon="8.74966">
        <ele>1064</ele>
        <time>2021-08-06T09:54:21.354Z</time>
      </trkpt>
      <trkpt lat="46.96213" lon="8.74964">
        <ele>1064</ele>
        <time>2021-08-06T09:54:22.354Z</time>
      </trkpt>
      <trkpt lat="46.96213" lon="8.74963">
        <ele>1064</ele>
        <time>2021-08-06T09:54:23.354Z</time>
      </trkpt>
      <trkpt lat="46.96212" lon="8.74962">
        <ele>1065</ele>
        <time>2021-08-06T09:54:24.354Z</time>
      </trkpt>
      <trkpt lat="46.96211" lon="8.74961">
        <ele>1065</ele>
        <time>2021-08-06T09:54:25.354Z</time>
      </trkpt>
      <trkpt lat="46.9621" lon="8.7496">
        <ele>1066</ele>
        <time>2021-08-06T09:54:26.354Z</time>
      </trkpt>
      <trkpt lat="46.96209" lon="8.7496">
        <ele>1066</ele>
        <time>2021-08-06T09:54:27.354Z</time>
      </trkpt>
      <trkpt lat="46.96209" lon="8.74959">
        <ele>1067</ele>
        <time>2021-08-06T09:54:28.354Z</time>
      </trkpt>
      <trkpt lat="46.96208" lon="8.74957">
        <ele>1067</ele>
        <time>2021-08-06T09:54:29.354Z</time>
      </trkpt>
      <trkpt lat="46.96207" lon="8.74956">
        <ele>1067</ele>
        <time>2021-08-06T09:54:30.354Z</time>
      </trkpt>
      <trkpt lat="46.96207" lon="8.74956">
        <ele>1067</ele>
        <time>2021-08-06T09:54:31.354Z</time>
      </trkpt>
      <trkpt lat="46.96206" lon="8.74954">
        <ele>1067</ele>
        <time>2021-08-06T09:54:32.354Z</time>
      </trkpt>
      <trkpt lat="46.96206" lon="8.74953">
        <ele>1067</ele>
        <time>2021-08-06T09:54:33.354Z</time>
      </trkpt>
      <trkpt lat="46.96206" lon="8.74952">
        <ele>1067</ele>
        <time>2021-08-06T09:54:34.354Z</time>
      </trkpt>
      <trkpt lat="46.96206" lon="8.7495">
        <ele>1068</ele>
        <time>2021-08-06T09:54:35.354Z</time>
      </trkpt>
      <trkpt lat="46.96205" lon="8.74949">
        <ele>1068</ele>
        <time>2021-08-06T09:54:36.354Z</time>
      </trkpt>
      <trkpt lat="46.96204" lon="8.74948">
        <ele>1068</ele>
        <time>2021-08-06T09:54:37.355Z</time>
      </trkpt>
      <trkpt lat="46.96204" lon="8.74947">
        <ele>1068</ele>
        <time>2021-08-06T09:54:38.354Z</time>
      </trkpt>
      <trkpt lat="46.96204" lon="8.74945">
        <ele>1069</ele>
        <time>2021-08-06T09:54:39.355Z</time>
      </trkpt>
      <trkpt lat="46.96203" lon="8.74944">
        <ele>1070</ele>
        <time>2021-08-06T09:54:40.355Z</time>
      </trkpt>
      <trkpt lat="46.96203" lon="8.74942">
        <ele>1070</ele>
        <time>2021-08-06T09:54:41.354Z</time>
      </trkpt>
      <trkpt lat="46.96202" lon="8.74941">
        <ele>1070</ele>
        <time>2021-08-06T09:54:42.355Z</time>
      </trkpt>
      <trkpt lat="46.96202" lon="8.7494">
        <ele>1070</ele>
        <time>2021-08-06T09:54:43.355Z</time>
      </trkpt>
      <trkpt lat="46.96201" lon="8.74938">
        <ele>1070</ele>
        <time>2021-08-06T09:54:44.354Z</time>
      </trkpt>
      <trkpt lat="46.96201" lon="8.74937">
        <ele>1069</ele>
        <time>2021-08-06T09:54:45.355Z</time>
      </trkpt>
      <trkpt lat="46.96201" lon="8.74935">
        <ele>1069</ele>
        <time>2021-08-06T09:54:46.355Z</time>
      </trkpt>
      <trkpt lat="46.96201" lon="8.74934">
        <ele>1069</ele>
        <time>2021-08-06T09:54:47.354Z</time>
      </trkpt>
      <trkpt lat="46.96201" lon="8.74933">
        <ele>1070</ele>
        <time>2021-08-06T09:54:48.354Z</time>
      </trkpt>
      <trkpt lat="46.96202" lon="8.74931">
        <ele>1070</ele>
        <time>2021-08-06T09:54:49.354Z</time>
      </trkpt>
      <trkpt lat="46.96202" lon="8.7493">
        <ele>1071</ele>
        <time>2021-08-06T09:54:50.354Z</time>
      </trkpt>
      <trkpt lat="46.96202" lon="8.74929">
        <ele>1072</ele>
        <time>2021-08-06T09:54:51.355Z</time>
      </trkpt>
      <trkpt lat="46.96202" lon="8.74927">
        <ele>1072</ele>
        <time>2021-08-06T09:54:52.354Z</time>
      </trkpt>
      <trkpt lat="46.96202" lon="8.74926">
        <ele>1072</ele>
        <time>2021-08-06T09:54:53.355Z</time>
      </trkpt>
      <trkpt lat="46.96202" lon="8.74924">
        <ele>1072</ele>
        <time>2021-08-06T09:54:54.354Z</time>
      </trkpt>
      <trkpt lat="46.96202" lon="8.74923">
        <ele>1073</ele>
        <time>2021-08-06T09:54:55.354Z</time>
      </trkpt>
      <trkpt lat="46.96202" lon="8.74922">
        <ele>1073</ele>
        <time>2021-08-06T09:54:56.354Z</time>
      </trkpt>
      <trkpt lat="46.96202" lon="8.74921">
        <ele>1073</ele>
        <time>2021-08-06T09:54:57.355Z</time>
      </trkpt>
      <trkpt lat="46.96201" lon="8.74919">
        <ele>1074</ele>
        <time>2021-08-06T09:54:58.354Z</time>
      </trkpt>
      <trkpt lat="46.96201" lon="8.74918">
        <ele>1074</ele>
        <time>2021-08-06T09:54:59.355Z</time>
      </trkpt>
      <trkpt lat="46.96201" lon="8.74917">
        <ele>1074</ele>
        <time>2021-08-06T09:55:00.355Z</time>
      </trkpt>
      <trkpt lat="46.96201" lon="8.74916">
        <ele>1074</ele>
        <time>2021-08-06T09:55:01.354Z</time>
      </trkpt>
      <trkpt lat="46.962" lon="8.74915">
        <ele>1074</ele>
        <time>2021-08-06T09:55:02.354Z</time>
      </trkpt>
      <trkpt lat="46.962" lon="8.74914">
        <ele>1074</ele>
        <time>2021-08-06T09:55:03.355Z</time>
      </trkpt>
      <trkpt lat="46.962" lon="8.74913">
        <ele>1074</ele>
        <time>2021-08-06T09:55:04.355Z</time>
      </trkpt>
      <trkpt lat="46.96199" lon="8.74911">
        <ele>1074</ele>
        <time>2021-08-06T09:55:05.355Z</time>
      </trkpt>
      <trkpt lat="46.96199" lon="8.7491">
        <ele>1074</ele>
        <time>2021-08-06T09:55:06.354Z</time>
      </trkpt>
      <trkpt lat="46.96199" lon="8.74909">
        <ele>1075</ele>
        <time>2021-08-06T09:55:07.354Z</time>
      </trkpt>
      <trkpt lat="46.96198" lon="8.74908">
        <ele>1075</ele>
        <time>2021-08-06T09:55:08.355Z</time>
      </trkpt>
      <trkpt lat="46.96198" lon="8.74906">
        <ele>1074</ele>
        <time>2021-08-06T09:55:09.355Z</time>
      </trkpt>
      <trkpt lat="46.96197" lon="8.74905">
        <ele>1074</ele>
        <time>2021-08-06T09:55:10.354Z</time>
      </trkpt>
      <trkpt lat="46.96196" lon="8.74904">
        <ele>1074</ele>
        <time>2021-08-06T09:55:11.355Z</time>
      </trkpt>
      <trkpt lat="46.96195" lon="8.74903">
        <ele>1074</ele>
        <time>2021-08-06T09:55:12.355Z</time>
      </trkpt>
      <trkpt lat="46.96195" lon="8.74902">
        <ele>1075</ele>
        <time>2021-08-06T09:55:13.354Z</time>
      </trkpt>
      <trkpt lat="46.96194" lon="8.74901">
        <ele>1075</ele>
        <time>2021-08-06T09:55:14.354Z</time>
      </trkpt>
      <trkpt lat="46.96194" lon="8.749">
        <ele>1075</ele>
        <time>2021-08-06T09:55:15.354Z</time>
      </trkpt>
      <trkpt lat="46.96194" lon="8.74898">
        <ele>1074</ele>
        <time>2021-08-06T09:55:16.354Z</time>
      </trkpt>
      <trkpt lat="46.96193" lon="8.74897">
        <ele>1074</ele>
        <time>2021-08-06T09:55:17.355Z</time>
      </trkpt>
      <trkpt lat="46.96192" lon="8.74895">
        <ele>1074</ele>
        <time>2021-08-06T09:55:18.354Z</time>
      </trkpt>
      <trkpt lat="46.9619" lon="8.74894">
        <ele>1073</ele>
        <time>2021-08-06T09:55:19.355Z</time>
      </trkpt>
      <trkpt lat="46.9619" lon="8.74892">
        <ele>1073</ele>
        <time>2021-08-06T09:55:20.354Z</time>
      </trkpt>
      <trkpt lat="46.9619" lon="8.74891">
        <ele>1072</ele>
        <time>2021-08-06T09:55:21.355Z</time>
      </trkpt>
      <trkpt lat="46.96189" lon="8.74889">
        <ele>1072</ele>
        <time>2021-08-06T09:55:22.355Z</time>
      </trkpt>
      <trkpt lat="46.96189" lon="8.74887">
        <ele>1072</ele>
        <time>2021-08-06T09:55:23.355Z</time>
      </trkpt>
      <trkpt lat="46.96188" lon="8.74887">
        <ele>1072</ele>
        <time>2021-08-06T09:55:24.355Z</time>
      </trkpt>
      <trkpt lat="46.96187" lon="8.74885">
        <ele>1072</ele>
        <time>2021-08-06T09:55:25.355Z</time>
      </trkpt>
      <trkpt lat="46.96186" lon="8.74884">
        <ele>1072</ele>
        <time>2021-08-06T09:55:26.355Z</time>
      </trkpt>
      <trkpt lat="46.96185" lon="8.74883">
        <ele>1071</ele>
        <time>2021-08-06T09:55:27.355Z</time>
      </trkpt>
      <trkpt lat="46.96185" lon="8.74882">
        <ele>1071</ele>
        <time>2021-08-06T09:55:28.355Z</time>
      </trkpt>
      <trkpt lat="46.96184" lon="8.74881">
        <ele>1071</ele>
        <time>2021-08-06T09:55:29.354Z</time>
      </trkpt>
      <trkpt lat="46.96184" lon="8.7488">
        <ele>1071</ele>
        <time>2021-08-06T09:55:30.354Z</time>
      </trkpt>
      <trkpt lat="46.96184" lon="8.74878">
        <ele>1072</ele>
        <time>2021-08-06T09:55:31.355Z</time>
      </trkpt>
      <trkpt lat="46.96184" lon="8.74877">
        <ele>1072</ele>
        <time>2021-08-06T09:55:32.355Z</time>
      </trkpt>
      <trkpt lat="46.96183" lon="8.74875">
        <ele>1073</ele>
        <time>2021-08-06T09:55:33.355Z</time>
      </trkpt>
      <trkpt lat="46.96183" lon="8.74874">
        <ele>1073</ele>
        <time>2021-08-06T09:55:34.354Z</time>
      </trkpt>
      <trkpt lat="46.96183" lon="8.74872">
        <ele>1074</ele>
        <time>2021-08-06T09:55:35.354Z</time>
      </trkpt>
      <trkpt lat="46.96183" lon="8.74871">
        <ele>1074</ele>
        <time>2021-08-06T09:55:36.355Z</time>
      </trkpt>
      <trkpt lat="46.96181" lon="8.7487">
        <ele>1074</ele>
        <time>2021-08-06T09:55:37.354Z</time>
      </trkpt>
      <trkpt lat="46.9618" lon="8.74869">
        <ele>1074</ele>
        <time>2021-08-06T09:55:38.355Z</time>
      </trkpt>
      <trkpt lat="46.9618" lon="8.74868">
        <ele>1074</ele>
        <time>2021-08-06T09:55:39.355Z</time>
      </trkpt>
      <trkpt lat="46.9618" lon="8.74866">
        <ele>1074</ele>
        <time>2021-08-06T09:55:40.354Z</time>
      </trkpt>
      <trkpt lat="46.9618" lon="8.74865">
        <ele>1074</ele>
        <time>2021-08-06T09:55:41.355Z</time>
      </trkpt>
      <trkpt lat="46.96179" lon="8.74863">
        <ele>1074</ele>
        <time>2021-08-06T09:55:42.355Z</time>
      </trkpt>
      <trkpt lat="46.96179" lon="8.74862">
        <ele>1074</ele>
        <time>2021-08-06T09:55:43.354Z</time>
      </trkpt>
      <trkpt lat="46.96179" lon="8.74861">
        <ele>1074</ele>
        <time>2021-08-06T09:55:44.355Z</time>
      </trkpt>
      <trkpt lat="46.96177" lon="8.74859">
        <ele>1074</ele>
        <time>2021-08-06T09:55:45.354Z</time>
      </trkpt>
      <trkpt lat="46.96176" lon="8.74858">
        <ele>1074</ele>
        <time>2021-08-06T09:55:46.354Z</time>
      </trkpt>
      <trkpt lat="46.96177" lon="8.74856">
        <ele>1074</ele>
        <time>2021-08-06T09:55:47.355Z</time>
      </trkpt>
      <trkpt lat="46.96176" lon="8.74855">
        <ele>1075</ele>
        <time>2021-08-06T09:55:48.355Z</time>
      </trkpt>
      <trkpt lat="46.96175" lon="8.74854">
        <ele>1075</ele>
        <time>2021-08-06T09:55:49.355Z</time>
      </trkpt>
      <trkpt lat="46.96174" lon="8.74853">
        <ele>1076</ele>
        <time>2021-08-06T09:55:50.355Z</time>
      </trkpt>
      <trkpt lat="46.96174" lon="8.74851">
        <ele>1076</ele>
        <time>2021-08-06T09:55:51.355Z</time>
      </trkpt>
      <trkpt lat="46.96173" lon="8.7485">
        <ele>1077</ele>
        <time>2021-08-06T09:55:52.355Z</time>
      </trkpt>
      <trkpt lat="46.96172" lon="8.74849">
        <ele>1077</ele>
        <time>2021-08-06T09:55:53.355Z</time>
      </trkpt>
      <trkpt lat="46.96172" lon="8.74847">
        <ele>1077</ele>
        <time>2021-08-06T09:55:54.355Z</time>
      </trkpt>
      <trkpt lat="46.96171" lon="8.74846">
        <ele>1078</ele>
        <time>2021-08-06T09:55:55.354Z</time>
      </trkpt>
      <trkpt lat="46.9617" lon="8.74845">
        <ele>1078</ele>
        <time>2021-08-06T09:55:56.354Z</time>
      </trkpt>
      <trkpt lat="46.9617" lon="8.74844">
        <ele>1078</ele>
        <time>2021-08-06T09:55:57.355Z</time>
      </trkpt>
      <trkpt lat="46.9617" lon="8.74842">
        <ele>1078</ele>
        <time>2021-08-06T09:55:58.354Z</time>
      </trkpt>
      <trkpt lat="46.96169" lon="8.7484">
        <ele>1078</ele>
        <time>2021-08-06T09:55:59.354Z</time>
      </trkpt>
      <trkpt lat="46.96168" lon="8.74839">
        <ele>1078</ele>
        <time>2021-08-06T09:56:00.354Z</time>
      </trkpt>
      <trkpt lat="46.96167" lon="8.74838">
        <ele>1078</ele>
        <time>2021-08-06T09:56:01.355Z</time>
      </trkpt>
      <trkpt lat="46.96166" lon="8.74837">
        <ele>1078</ele>
        <time>2021-08-06T09:56:02.354Z</time>
      </trkpt>
      <trkpt lat="46.96166" lon="8.74835">
        <ele>1078</ele>
        <time>2021-08-06T09:56:03.355Z</time>
      </trkpt>
      <trkpt lat="46.96165" lon="8.74834">
        <ele>1077</ele>
        <time>2021-08-06T09:56:04.355Z</time>
      </trkpt>
      <trkpt lat="46.96165" lon="8.74832">
        <ele>1077</ele>
        <time>2021-08-06T09:56:05.355Z</time>
      </trkpt>
      <trkpt lat="46.96164" lon="8.74831">
        <ele>1077</ele>
        <time>2021-08-06T09:56:06.355Z</time>
      </trkpt>
      <trkpt lat="46.96163" lon="8.74829">
        <ele>1078</ele>
        <time>2021-08-06T09:56:07.354Z</time>
      </trkpt>
      <trkpt lat="46.96161" lon="8.74829">
        <ele>1078</ele>
        <time>2021-08-06T09:56:08.355Z</time>
      </trkpt>
      <trkpt lat="46.96158" lon="8.74829">
        <ele>1078</ele>
        <time>2021-08-06T09:56:09.354Z</time>
      </trkpt>
      <trkpt lat="46.96157" lon="8.74828">
        <ele>1078</ele>
        <time>2021-08-06T09:56:10.355Z</time>
      </trkpt>
      <trkpt lat="46.96156" lon="8.74827">
        <ele>1078</ele>
        <time>2021-08-06T09:56:11.354Z</time>
      </trkpt>
      <trkpt lat="46.96155" lon="8.74827">
        <ele>1079</ele>
        <time>2021-08-06T09:56:12.355Z</time>
      </trkpt>
      <trkpt lat="46.96155" lon="8.74827">
        <ele>1079</ele>
        <time>2021-08-06T09:56:13.355Z</time>
      </trkpt>
      <trkpt lat="46.96154" lon="8.74825">
        <ele>1079</ele>
        <time>2021-08-06T09:56:14.355Z</time>
      </trkpt>
      <trkpt lat="46.96153" lon="8.74824">
        <ele>1079</ele>
        <time>2021-08-06T09:56:15.355Z</time>
      </trkpt>
      <trkpt lat="46.96153" lon="8.74823">
        <ele>1080</ele>
        <time>2021-08-06T09:56:16.355Z</time>
      </trkpt>
      <trkpt lat="46.96153" lon="8.74822">
        <ele>1080</ele>
        <time>2021-08-06T09:56:17.354Z</time>
      </trkpt>
      <trkpt lat="46.96152" lon="8.74821">
        <ele>1081</ele>
        <time>2021-08-06T09:56:18.354Z</time>
      </trkpt>
      <trkpt lat="46.96151" lon="8.74821">
        <ele>1082</ele>
        <time>2021-08-06T09:56:19.354Z</time>
      </trkpt>
      <trkpt lat="46.96149" lon="8.7482">
        <ele>1082</ele>
        <time>2021-08-06T09:56:20.355Z</time>
      </trkpt>
      <trkpt lat="46.96148" lon="8.74819">
        <ele>1082</ele>
        <time>2021-08-06T09:56:21.355Z</time>
      </trkpt>
      <trkpt lat="46.96148" lon="8.74818">
        <ele>1082</ele>
        <time>2021-08-06T09:56:22.355Z</time>
      </trkpt>
      <trkpt lat="46.96147" lon="8.74817">
        <ele>1082</ele>
        <time>2021-08-06T09:56:23.355Z</time>
      </trkpt>
      <trkpt lat="46.96147" lon="8.74816">
        <ele>1083</ele>
        <time>2021-08-06T09:56:24.354Z</time>
      </trkpt>
      <trkpt lat="46.96147" lon="8.74815">
        <ele>1083</ele>
        <time>2021-08-06T09:56:25.355Z</time>
      </trkpt>
      <trkpt lat="46.96146" lon="8.74814">
        <ele>1083</ele>
        <time>2021-08-06T09:56:26.354Z</time>
      </trkpt>
      <trkpt lat="46.96146" lon="8.74812">
        <ele>1083</ele>
        <time>2021-08-06T09:56:27.354Z</time>
      </trkpt>
      <trkpt lat="46.96145" lon="8.74811">
        <ele>1084</ele>
        <time>2021-08-06T09:56:28.355Z</time>
      </trkpt>
      <trkpt lat="46.96144" lon="8.7481">
        <ele>1084</ele>
        <time>2021-08-06T09:56:29.355Z</time>
      </trkpt>
      <trkpt lat="46.96143" lon="8.74809">
        <ele>1084</ele>
        <time>2021-08-06T09:56:30.355Z</time>
      </trkpt>
      <trkpt lat="46.96142" lon="8.74807">
        <ele>1084</ele>
        <time>2021-08-06T09:56:31.355Z</time>
      </trkpt>
      <trkpt lat="46.96142" lon="8.74806">
        <ele>1084</ele>
        <time>2021-08-06T09:56:32.355Z</time>
      </trkpt>
      <trkpt lat="46.96141" lon="8.74805">
        <ele>1084</ele>
        <time>2021-08-06T09:56:33.354Z</time>
      </trkpt>
      <trkpt lat="46.96141" lon="8.74803">
        <ele>1083</ele>
        <time>2021-08-06T09:56:34.354Z</time>
      </trkpt>
      <trkpt lat="46.9614" lon="8.74802">
        <ele>1083</ele>
        <time>2021-08-06T09:56:35.354Z</time>
      </trkpt>
      <trkpt lat="46.9614" lon="8.748">
        <ele>1083</ele>
        <time>2021-08-06T09:56:36.354Z</time>
      </trkpt>
      <trkpt lat="46.96139" lon="8.74799">
        <ele>1083</ele>
        <time>2021-08-06T09:56:37.355Z</time>
      </trkpt>
      <trkpt lat="46.96139" lon="8.74798">
        <ele>1083</ele>
        <time>2021-08-06T09:56:38.355Z</time>
      </trkpt>
      <trkpt lat="46.96139" lon="8.74797">
        <ele>1083</ele>
        <time>2021-08-06T09:56:39.355Z</time>
      </trkpt>
      <trkpt lat="46.96138" lon="8.74796">
        <ele>1083</ele>
        <time>2021-08-06T09:56:40.355Z</time>
      </trkpt>
      <trkpt lat="46.96137" lon="8.74795">
        <ele>1083</ele>
        <time>2021-08-06T09:56:41.355Z</time>
      </trkpt>
      <trkpt lat="46.96137" lon="8.74793">
        <ele>1083</ele>
        <time>2021-08-06T09:56:42.355Z</time>
      </trkpt>
      <trkpt lat="46.96136" lon="8.74792">
        <ele>1082</ele>
        <time>2021-08-06T09:56:43.355Z</time>
      </trkpt>
      <trkpt lat="46.96135" lon="8.74791">
        <ele>1082</ele>
        <time>2021-08-06T09:56:44.355Z</time>
      </trkpt>
      <trkpt lat="46.96135" lon="8.7479">
        <ele>1082</ele>
        <time>2021-08-06T09:56:45.355Z</time>
      </trkpt>
      <trkpt lat="46.96135" lon="8.74788">
        <ele>1082</ele>
        <time>2021-08-06T09:56:46.355Z</time>
      </trkpt>
      <trkpt lat="46.96135" lon="8.74786">
        <ele>1082</ele>
        <time>2021-08-06T09:56:47.355Z</time>
      </trkpt>
      <trkpt lat="46.96135" lon="8.74784">
        <ele>1082</ele>
        <time>2021-08-06T09:56:48.355Z</time>
      </trkpt>
      <trkpt lat="46.96134" lon="8.74783">
        <ele>1082</ele>
        <time>2021-08-06T09:56:49.355Z</time>
      </trkpt>
      <trkpt lat="46.96134" lon="8.74782">
        <ele>1082</ele>
        <time>2021-08-06T09:56:50.354Z</time>
      </trkpt>
      <trkpt lat="46.96134" lon="8.7478">
        <ele>1082</ele>
        <time>2021-08-06T09:56:51.355Z</time>
      </trkpt>
      <trkpt lat="46.96133" lon="8.74779">
        <ele>1082</ele>
        <time>2021-08-06T09:56:52.355Z</time>
      </trkpt>
      <trkpt lat="46.96131" lon="8.74778">
        <ele>1082</ele>
        <time>2021-08-06T09:56:53.354Z</time>
      </trkpt>
      <trkpt lat="46.9613" lon="8.74777">
        <ele>1082</ele>
        <time>2021-08-06T09:56:54.355Z</time>
      </trkpt>
      <trkpt lat="46.9613" lon="8.74775">
        <ele>1082</ele>
        <time>2021-08-06T09:56:55.355Z</time>
      </trkpt>
      <trkpt lat="46.9613" lon="8.74774">
        <ele>1082</ele>
        <time>2021-08-06T09:56:56.355Z</time>
      </trkpt>
      <trkpt lat="46.96129" lon="8.74773">
        <ele>1082</ele>
        <time>2021-08-06T09:56:57.354Z</time>
      </trkpt>
      <trkpt lat="46.96128" lon="8.74772">
        <ele>1082</ele>
        <time>2021-08-06T09:56:58.355Z</time>
      </trkpt>
      <trkpt lat="46.96128" lon="8.74771">
        <ele>1082</ele>
        <time>2021-08-06T09:56:59.354Z</time>
      </trkpt>
      <trkpt lat="46.96128" lon="8.7477">
        <ele>1081</ele>
        <time>2021-08-06T09:57:00.355Z</time>
      </trkpt>
      <trkpt lat="46.96127" lon="8.74769">
        <ele>1081</ele>
        <time>2021-08-06T09:57:01.355Z</time>
      </trkpt>
      <trkpt lat="46.96127" lon="8.74768">
        <ele>1082</ele>
        <time>2021-08-06T09:57:02.354Z</time>
      </trkpt>
      <trkpt lat="46.96127" lon="8.74766">
        <ele>1082</ele>
        <time>2021-08-06T09:57:03.354Z</time>
      </trkpt>
      <trkpt lat="46.96126" lon="8.74765">
        <ele>1082</ele>
        <time>2021-08-06T09:57:04.355Z</time>
      </trkpt>
      <trkpt lat="46.96126" lon="8.74763">
        <ele>1082</ele>
        <time>2021-08-06T09:57:05.355Z</time>
      </trkpt>
      <trkpt lat="46.96125" lon="8.74762">
        <ele>1082</ele>
        <time>2021-08-06T09:57:06.354Z</time>
      </trkpt>
      <trkpt lat="46.96125" lon="8.74761">
        <ele>1082</ele>
        <time>2021-08-06T09:57:07.354Z</time>
      </trkpt>
      <trkpt lat="46.96124" lon="8.7476">
        <ele>1082</ele>
        <time>2021-08-06T09:57:08.354Z</time>
      </trkpt>
      <trkpt lat="46.96124" lon="8.74758">
        <ele>1082</ele>
        <time>2021-08-06T09:57:09.354Z</time>
      </trkpt>
      <trkpt lat="46.96124" lon="8.74757">
        <ele>1082</ele>
        <time>2021-08-06T09:57:10.354Z</time>
      </trkpt>
      <trkpt lat="46.96124" lon="8.74755">
        <ele>1082</ele>
        <time>2021-08-06T09:57:11.354Z</time>
      </trkpt>
      <trkpt lat="46.96124" lon="8.74754">
        <ele>1082</ele>
        <time>2021-08-06T09:57:12.354Z</time>
      </trkpt>
      <trkpt lat="46.96123" lon="8.74753">
        <ele>1082</ele>
        <time>2021-08-06T09:57:13.355Z</time>
      </trkpt>
      <trkpt lat="46.96124" lon="8.74751">
        <ele>1082</ele>
        <time>2021-08-06T09:57:14.354Z</time>
      </trkpt>
      <trkpt lat="46.96124" lon="8.74749">
        <ele>1083</ele>
        <time>2021-08-06T09:57:15.355Z</time>
      </trkpt>
      <trkpt lat="46.96124" lon="8.74748">
        <ele>1083</ele>
        <time>2021-08-06T09:57:16.355Z</time>
      </trkpt>
      <trkpt lat="46.96124" lon="8.74747">
        <ele>1083</ele>
        <time>2021-08-06T09:57:17.355Z</time>
      </trkpt>
      <trkpt lat="46.96124" lon="8.74746">
        <ele>1084</ele>
        <time>2021-08-06T09:57:18.354Z</time>
      </trkpt>
      <trkpt lat="46.96124" lon="8.74744">
        <ele>1084</ele>
        <time>2021-08-06T09:57:19.355Z</time>
      </trkpt>
      <trkpt lat="46.96124" lon="8.74743">
        <ele>1084</ele>
        <time>2021-08-06T09:57:20.355Z</time>
      </trkpt>
      <trkpt lat="46.96125" lon="8.74741">
        <ele>1084</ele>
        <time>2021-08-06T09:57:21.354Z</time>
      </trkpt>
      <trkpt lat="46.96125" lon="8.7474">
        <ele>1084</ele>
        <time>2021-08-06T09:57:22.354Z</time>
      </trkpt>
      <trkpt lat="46.96125" lon="8.7474">
        <ele>1084</ele>
        <time>2021-08-06T09:57:23.354Z</time>
      </trkpt>
      <trkpt lat="46.96126" lon="8.74739">
        <ele>1085</ele>
        <time>2021-08-06T09:57:24.354Z</time>
      </trkpt>
      <trkpt lat="46.96126" lon="8.74738">
        <ele>1086</ele>
        <time>2021-08-06T09:57:25.355Z</time>
      </trkpt>
      <trkpt lat="46.96126" lon="8.74737">
        <ele>1086</ele>
        <time>2021-08-06T09:57:26.355Z</time>
      </trkpt>
      <trkpt lat="46.96126" lon="8.74736">
        <ele>1087</ele>
        <time>2021-08-06T09:57:27.355Z</time>
      </trkpt>
      <trkpt lat="46.96126" lon="8.74734">
        <ele>1087</ele>
        <time>2021-08-06T09:57:28.354Z</time>
      </trkpt>
      <trkpt lat="46.96127" lon="8.74733">
        <ele>1088</ele>
        <time>2021-08-06T09:57:29.355Z</time>
      </trkpt>
      <trkpt lat="46.96127" lon="8.74732">
        <ele>1088</ele>
        <time>2021-08-06T09:57:30.354Z</time>
      </trkpt>
      <trkpt lat="46.96127" lon="8.74731">
        <ele>1088</ele>
        <time>2021-08-06T09:57:31.355Z</time>
      </trkpt>
      <trkpt lat="46.96126" lon="8.7473">
        <ele>1088</ele>
        <time>2021-08-06T09:57:32.355Z</time>
      </trkpt>
      <trkpt lat="46.96126" lon="8.74729">
        <ele>1088</ele>
        <time>2021-08-06T09:57:33.355Z</time>
      </trkpt>
      <trkpt lat="46.96125" lon="8.74728">
        <ele>1088</ele>
        <time>2021-08-06T09:57:34.355Z</time>
      </trkpt>
      <trkpt lat="46.96125" lon="8.74727">
        <ele>1088</ele>
        <time>2021-08-06T09:57:35.355Z</time>
      </trkpt>
      <trkpt lat="46.96125" lon="8.74726">
        <ele>1088</ele>
        <time>2021-08-06T09:57:36.354Z</time>
      </trkpt>
      <trkpt lat="46.96126" lon="8.74723">
        <ele>1088</ele>
        <time>2021-08-06T09:57:37.355Z</time>
      </trkpt>
      <trkpt lat="46.96125" lon="8.74722">
        <ele>1088</ele>
        <time>2021-08-06T09:57:38.354Z</time>
      </trkpt>
      <trkpt lat="46.96126" lon="8.74721">
        <ele>1089</ele>
        <time>2021-08-06T09:57:39.354Z</time>
      </trkpt>
      <trkpt lat="46.96127" lon="8.74719">
        <ele>1089</ele>
        <time>2021-08-06T09:57:40.355Z</time>
      </trkpt>
      <trkpt lat="46.96127" lon="8.74717">
        <ele>1090</ele>
        <time>2021-08-06T09:57:41.355Z</time>
      </trkpt>
      <trkpt lat="46.96127" lon="8.74715">
        <ele>1091</ele>
        <time>2021-08-06T09:57:42.355Z</time>
      </trkpt>
      <trkpt lat="46.96128" lon="8.74714">
        <ele>1092</ele>
        <time>2021-08-06T09:57:43.354Z</time>
      </trkpt>
      <trkpt lat="46.96128" lon="8.74712">
        <ele>1092</ele>
        <time>2021-08-06T09:57:44.354Z</time>
      </trkpt>
      <trkpt lat="46.96127" lon="8.74711">
        <ele>1093</ele>
        <time>2021-08-06T09:57:45.354Z</time>
      </trkpt>
      <trkpt lat="46.96126" lon="8.7471">
        <ele>1094</ele>
        <time>2021-08-06T09:57:46.355Z</time>
      </trkpt>
      <trkpt lat="46.96126" lon="8.74708">
        <ele>1095</ele>
        <time>2021-08-06T09:57:47.355Z</time>
      </trkpt>
      <trkpt lat="46.96125" lon="8.74707">
        <ele>1095</ele>
        <time>2021-08-06T09:57:48.355Z</time>
      </trkpt>
      <trkpt lat="46.96125" lon="8.74705">
        <ele>1095</ele>
        <time>2021-08-06T09:57:49.355Z</time>
      </trkpt>
      <trkpt lat="46.96125" lon="8.74704">
        <ele>1096</ele>
        <time>2021-08-06T09:57:50.355Z</time>
      </trkpt>
      <trkpt lat="46.96124" lon="8.74703">
        <ele>1096</ele>
        <time>2021-08-06T09:57:51.355Z</time>
      </trkpt>
      <trkpt lat="46.96123" lon="8.74702">
        <ele>1096</ele>
        <time>2021-08-06T09:57:52.354Z</time>
      </trkpt>
      <trkpt lat="46.96122" lon="8.74702">
        <ele>1096</ele>
        <time>2021-08-06T09:57:53.354Z</time>
      </trkpt>
      <trkpt lat="46.96121" lon="8.74701">
        <ele>1096</ele>
        <time>2021-08-06T09:57:54.355Z</time>
      </trkpt>
      <trkpt lat="46.96121" lon="8.74699">
        <ele>1096</ele>
        <time>2021-08-06T09:57:55.355Z</time>
      </trkpt>
      <trkpt lat="46.9612" lon="8.74698">
        <ele>1096</ele>
        <time>2021-08-06T09:57:56.354Z</time>
      </trkpt>
      <trkpt lat="46.96119" lon="8.74696">
        <ele>1096</ele>
        <time>2021-08-06T09:57:57.355Z</time>
      </trkpt>
      <trkpt lat="46.96118" lon="8.74695">
        <ele>1096</ele>
        <time>2021-08-06T09:57:58.355Z</time>
      </trkpt>
      <trkpt lat="46.96116" lon="8.74694">
        <ele>1095</ele>
        <time>2021-08-06T09:57:59.355Z</time>
      </trkpt>
      <trkpt lat="46.96114" lon="8.74693">
        <ele>1095</ele>
        <time>2021-08-06T09:58:00.354Z</time>
      </trkpt>
      <trkpt lat="46.96112" lon="8.74692">
        <ele>1095</ele>
        <time>2021-08-06T09:58:01.354Z</time>
      </trkpt>
      <trkpt lat="46.96112" lon="8.74691">
        <ele>1095</ele>
        <time>2021-08-06T09:58:02.355Z</time>
      </trkpt>
      <trkpt lat="46.96112" lon="8.74691">
        <ele>1095</ele>
        <time>2021-08-06T09:58:03.355Z</time>
      </trkpt>
      <trkpt lat="46.96111" lon="8.7469">
        <ele>1095</ele>
        <time>2021-08-06T09:58:04.355Z</time>
      </trkpt>
      <trkpt lat="46.9611" lon="8.74689">
        <ele>1096</ele>
        <time>2021-08-06T09:58:05.355Z</time>
      </trkpt>
      <trkpt lat="46.9611" lon="8.74688">
        <ele>1096</ele>
        <time>2021-08-06T09:58:06.355Z</time>
      </trkpt>
      <trkpt lat="46.96109" lon="8.74687">
        <ele>1096</ele>
        <time>2021-08-06T09:58:07.355Z</time>
      </trkpt>
      <trkpt lat="46.96108" lon="8.74686">
        <ele>1096</ele>
        <time>2021-08-06T09:58:08.355Z</time>
      </trkpt>
      <trkpt lat="46.96107" lon="8.74686">
        <ele>1096</ele>
        <time>2021-08-06T09:58:09.355Z</time>
      </trkpt>
      <trkpt lat="46.96106" lon="8.74686">
        <ele>1097</ele>
        <time>2021-08-06T09:58:10.354Z</time>
      </trkpt>
      <trkpt lat="46.96105" lon="8.74686">
        <ele>1097</ele>
        <time>2021-08-06T09:58:11.355Z</time>
      </trkpt>
      <trkpt lat="46.96103" lon="8.74685">
        <ele>1098</ele>
        <time>2021-08-06T09:58:12.354Z</time>
      </trkpt>
      <trkpt lat="46.96102" lon="8.74685">
        <ele>1098</ele>
        <time>2021-08-06T09:58:13.354Z</time>
      </trkpt>
      <trkpt lat="46.96101" lon="8.74684">
        <ele>1099</ele>
        <time>2021-08-06T09:58:14.355Z</time>
      </trkpt>
      <trkpt lat="46.96101" lon="8.74682">
        <ele>1099</ele>
        <time>2021-08-06T09:58:15.354Z</time>
      </trkpt>
      <trkpt lat="46.96101" lon="8.74681">
        <ele>1100</ele>
        <time>2021-08-06T09:58:16.354Z</time>
      </trkpt>
      <trkpt lat="46.961" lon="8.7468">
        <ele>1100</ele>
        <time>2021-08-06T09:58:17.355Z</time>
      </trkpt>
      <trkpt lat="46.96099" lon="8.74679">
        <ele>1100</ele>
        <time>2021-08-06T09:58:18.355Z</time>
      </trkpt>
      <trkpt lat="46.96098" lon="8.74678">
        <ele>1100</ele>
        <time>2021-08-06T09:58:19.355Z</time>
      </trkpt>
      <trkpt lat="46.96097" lon="8.74678">
        <ele>1099</ele>
        <time>2021-08-06T09:58:20.354Z</time>
      </trkpt>
      <trkpt lat="46.96096" lon="8.74677">
        <ele>1099</ele>
        <time>2021-08-06T09:58:21.354Z</time>
      </trkpt>
      <trkpt lat="46.96095" lon="8.74677">
        <ele>1099</ele>
        <time>2021-08-06T09:58:22.355Z</time>
      </trkpt>
      <trkpt lat="46.96095" lon="8.74676">
        <ele>1098</ele>
        <time>2021-08-06T09:58:23.354Z</time>
      </trkpt>
      <trkpt lat="46.96094" lon="8.74675">
        <ele>1098</ele>
        <time>2021-08-06T09:58:24.355Z</time>
      </trkpt>
      <trkpt lat="46.96094" lon="8.74674">
        <ele>1098</ele>
        <time>2021-08-06T09:58:25.355Z</time>
      </trkpt>
      <trkpt lat="46.96093" lon="8.74673">
        <ele>1098</ele>
        <time>2021-08-06T09:58:26.354Z</time>
      </trkpt>
      <trkpt lat="46.96092" lon="8.74673">
        <ele>1098</ele>
        <time>2021-08-06T09:58:27.355Z</time>
      </trkpt>
      <trkpt lat="46.96091" lon="8.74672">
        <ele>1098</ele>
        <time>2021-08-06T09:58:28.354Z</time>
      </trkpt>
      <trkpt lat="46.9609" lon="8.74671">
        <ele>1098</ele>
        <time>2021-08-06T09:58:29.355Z</time>
      </trkpt>
      <trkpt lat="46.96089" lon="8.7467">
        <ele>1098</ele>
        <time>2021-08-06T09:58:30.355Z</time>
      </trkpt>
      <trkpt lat="46.96088" lon="8.7467">
        <ele>1097</ele>
        <time>2021-08-06T09:58:31.355Z</time>
      </trkpt>
      <trkpt lat="46.96087" lon="8.74668">
        <ele>1097</ele>
        <time>2021-08-06T09:58:32.355Z</time>
      </trkpt>
      <trkpt lat="46.96086" lon="8.74668">
        <ele>1096</ele>
        <time>2021-08-06T09:58:33.354Z</time>
      </trkpt>
      <trkpt lat="46.96085" lon="8.74666">
        <ele>1096</ele>
        <time>2021-08-06T09:58:34.354Z</time>
      </trkpt>
      <trkpt lat="46.96085" lon="8.74665">
        <ele>1095</ele>
        <time>2021-08-06T09:58:35.354Z</time>
      </trkpt>
      <trkpt lat="46.96084" lon="8.74664">
        <ele>1095</ele>
        <time>2021-08-06T09:58:36.355Z</time>
      </trkpt>
      <trkpt lat="46.96084" lon="8.74662">
        <ele>1095</ele>
        <time>2021-08-06T09:58:37.355Z</time>
      </trkpt>
      <trkpt lat="46.96083" lon="8.74661">
        <ele>1095</ele>
        <time>2021-08-06T09:58:38.355Z</time>
      </trkpt>
      <trkpt lat="46.96083" lon="8.7466">
        <ele>1096</ele>
        <time>2021-08-06T09:58:39.354Z</time>
      </trkpt>
      <trkpt lat="46.96082" lon="8.7466">
        <ele>1096</ele>
        <time>2021-08-06T09:58:40.355Z</time>
      </trkpt>
      <trkpt lat="46.96081" lon="8.74659">
        <ele>1095</ele>
        <time>2021-08-06T09:58:41.354Z</time>
      </trkpt>
      <trkpt lat="46.9608" lon="8.74658">
        <ele>1095</ele>
        <time>2021-08-06T09:58:42.354Z</time>
      </trkpt>
      <trkpt lat="46.9608" lon="8.74657">
        <ele>1094</ele>
        <time>2021-08-06T09:58:43.355Z</time>
      </trkpt>
      <trkpt lat="46.96079" lon="8.74657">
        <ele>1093</ele>
        <time>2021-08-06T09:58:44.355Z</time>
      </trkpt>
      <trkpt lat="46.96078" lon="8.74656">
        <ele>1093</ele>
        <time>2021-08-06T09:58:45.354Z</time>
      </trkpt>
      <trkpt lat="46.96078" lon="8.74656">
        <ele>1093</ele>
        <time>2021-08-06T09:58:46.355Z</time>
      </trkpt>
      <trkpt lat="46.96077" lon="8.74655">
        <ele>1092</ele>
        <time>2021-08-06T09:58:47.355Z</time>
      </trkpt>
      <trkpt lat="46.96076" lon="8.74654">
        <ele>1092</ele>
        <time>2021-08-06T09:58:48.355Z</time>
      </trkpt>
      <trkpt lat="46.96075" lon="8.74653">
        <ele>1092</ele>
        <time>2021-08-06T09:58:49.355Z</time>
      </trkpt>
      <trkpt lat="46.96074" lon="8.74652">
        <ele>1092</ele>
        <time>2021-08-06T09:58:50.355Z</time>
      </trkpt>
      <trkpt lat="46.96073" lon="8.74651">
        <ele>1091</ele>
        <time>2021-08-06T09:58:51.355Z</time>
      </trkpt>
      <trkpt lat="46.96072" lon="8.7465">
        <ele>1091</ele>
        <time>2021-08-06T09:58:52.354Z</time>
      </trkpt>
      <trkpt lat="46.96071" lon="8.74649">
        <ele>1091</ele>
        <time>2021-08-06T09:58:53.354Z</time>
      </trkpt>
      <trkpt lat="46.96069" lon="8.74648">
        <ele>1091</ele>
        <time>2021-08-06T09:58:54.355Z</time>
      </trkpt>
      <trkpt lat="46.96068" lon="8.74646">
        <ele>1091</ele>
        <time>2021-08-06T09:58:55.355Z</time>
      </trkpt>
      <trkpt lat="46.96067" lon="8.74646">
        <ele>1091</ele>
        <time>2021-08-06T09:58:56.354Z</time>
      </trkpt>
      <trkpt lat="46.96065" lon="8.74645">
        <ele>1091</ele>
        <time>2021-08-06T09:58:57.354Z</time>
      </trkpt>
      <trkpt lat="46.96064" lon="8.74644">
        <ele>1091</ele>
        <time>2021-08-06T09:58:58.355Z</time>
      </trkpt>
      <trkpt lat="46.96062" lon="8.74643">
        <ele>1091</ele>
        <time>2021-08-06T09:58:59.354Z</time>
      </trkpt>
      <trkpt lat="46.96061" lon="8.74643">
        <ele>1091</ele>
        <time>2021-08-06T09:59:00.355Z</time>
      </trkpt>
      <trkpt lat="46.9606" lon="8.74642">
        <ele>1091</ele>
        <time>2021-08-06T09:59:01.355Z</time>
      </trkpt>
      <trkpt lat="46.96059" lon="8.74641">
        <ele>1091</ele>
        <time>2021-08-06T09:59:02.354Z</time>
      </trkpt>
      <trkpt lat="46.96058" lon="8.74641">
        <ele>1092</ele>
        <time>2021-08-06T09:59:03.354Z</time>
      </trkpt>
      <trkpt lat="46.96058" lon="8.74641">
        <ele>1092</ele>
        <time>2021-08-06T09:59:04.355Z</time>
      </trkpt>
      <trkpt lat="46.96057" lon="8.7464">
        <ele>1092</ele>
        <time>2021-08-06T09:59:05.354Z</time>
      </trkpt>
      <trkpt lat="46.96056" lon="8.74639">
        <ele>1092</ele>
        <time>2021-08-06T09:59:06.354Z</time>
      </trkpt>
      <trkpt lat="46.96054" lon="8.74638">
        <ele>1092</ele>
        <time>2021-08-06T09:59:07.354Z</time>
      </trkpt>
      <trkpt lat="46.96052" lon="8.74637">
        <ele>1092</ele>
        <time>2021-08-06T09:59:08.355Z</time>
      </trkpt>
      <trkpt lat="46.9605" lon="8.74637">
        <ele>1093</ele>
        <time>2021-08-06T09:59:09.354Z</time>
      </trkpt>
      <trkpt lat="46.96049" lon="8.74636">
        <ele>1093</ele>
        <time>2021-08-06T09:59:10.354Z</time>
      </trkpt>
      <trkpt lat="46.96048" lon="8.74635">
        <ele>1093</ele>
        <time>2021-08-06T09:59:11.355Z</time>
      </trkpt>
      <trkpt lat="46.96046" lon="8.74635">
        <ele>1092</ele>
        <time>2021-08-06T09:59:12.354Z</time>
      </trkpt>
      <trkpt lat="46.96045" lon="8.74634">
        <ele>1093</ele>
        <time>2021-08-06T09:59:13.354Z</time>
      </trkpt>
      <trkpt lat="46.96044" lon="8.74634">
        <ele>1093</ele>
        <time>2021-08-06T09:59:14.355Z</time>
      </trkpt>
      <trkpt lat="46.96043" lon="8.74634">
        <ele>1094</ele>
        <time>2021-08-06T09:59:15.355Z</time>
      </trkpt>
      <trkpt lat="46.96042" lon="8.74633">
        <ele>1094</ele>
        <time>2021-08-06T09:59:16.355Z</time>
      </trkpt>
      <trkpt lat="46.96042" lon="8.74633">
        <ele>1094</ele>
        <time>2021-08-06T09:59:17.354Z</time>
      </trkpt>
      <trkpt lat="46.96042" lon="8.74632">
        <ele>1095</ele>
        <time>2021-08-06T09:59:18.355Z</time>
      </trkpt>
      <trkpt lat="46.96041" lon="8.74632">
        <ele>1095</ele>
        <time>2021-08-06T09:59:19.354Z</time>
      </trkpt>
      <trkpt lat="46.9604" lon="8.74632">
        <ele>1095</ele>
        <time>2021-08-06T09:59:20.354Z</time>
      </trkpt>
      <trkpt lat="46.96039" lon="8.74632">
        <ele>1095</ele>
        <time>2021-08-06T09:59:21.354Z</time>
      </trkpt>
      <trkpt lat="46.96038" lon="8.74631">
        <ele>1096</ele>
        <time>2021-08-06T09:59:22.355Z</time>
      </trkpt>
      <trkpt lat="46.96036" lon="8.74631">
        <ele>1096</ele>
        <time>2021-08-06T09:59:23.355Z</time>
      </trkpt>
      <trkpt lat="46.96035" lon="8.7463">
        <ele>1096</ele>
        <time>2021-08-06T09:59:24.354Z</time>
      </trkpt>
      <trkpt lat="46.96034" lon="8.7463">
        <ele>1096</ele>
        <time>2021-08-06T09:59:25.354Z</time>
      </trkpt>
      <trkpt lat="46.96034" lon="8.74629">
        <ele>1096</ele>
        <time>2021-08-06T09:59:26.355Z</time>
      </trkpt>
      <trkpt lat="46.96034" lon="8.74628">
        <ele>1097</ele>
        <time>2021-08-06T09:59:27.355Z</time>
      </trkpt>
      <trkpt lat="46.96034" lon="8.74627">
        <ele>1097</ele>
        <time>2021-08-06T09:59:28.354Z</time>
      </trkpt>
      <trkpt lat="46.96034" lon="8.74625">
        <ele>1097</ele>
        <time>2021-08-06T09:59:29.354Z</time>
      </trkpt>
      <trkpt lat="46.96035" lon="8.74624">
        <ele>1097</ele>
        <time>2021-08-06T09:59:30.354Z</time>
      </trkpt>
      <trkpt lat="46.96036" lon="8.74622">
        <ele>1097</ele>
        <time>2021-08-06T09:59:31.355Z</time>
      </trkpt>
      <trkpt lat="46.96036" lon="8.74621">
        <ele>1097</ele>
        <time>2021-08-06T09:59:32.355Z</time>
      </trkpt>
      <trkpt lat="46.96035" lon="8.7462">
        <ele>1097</ele>
        <time>2021-08-06T09:59:33.355Z</time>
      </trkpt>
      <trkpt lat="46.96034" lon="8.74619">
        <ele>1097</ele>
        <time>2021-08-06T09:59:34.355Z</time>
      </trkpt>
      <trkpt lat="46.96033" lon="8.74619">
        <ele>1097</ele>
        <time>2021-08-06T09:59:35.354Z</time>
      </trkpt>
      <trkpt lat="46.96032" lon="8.74618">
        <ele>1097</ele>
        <time>2021-08-06T09:59:36.355Z</time>
      </trkpt>
      <trkpt lat="46.96029" lon="8.74619">
        <ele>1097</ele>
        <time>2021-08-06T09:59:37.355Z</time>
      </trkpt>
      <trkpt lat="46.96026" lon="8.74619">
        <ele>1097</ele>
        <time>2021-08-06T09:59:38.355Z</time>
      </trkpt>
      <trkpt lat="46.96024" lon="8.74619">
        <ele>1096</ele>
        <time>2021-08-06T09:59:39.354Z</time>
      </trkpt>
      <trkpt lat="46.96023" lon="8.74617">
        <ele>1096</ele>
        <time>2021-08-06T09:59:40.354Z</time>
      </trkpt>
      <trkpt lat="46.96023" lon="8.74616">
        <ele>1096</ele>
        <time>2021-08-06T09:59:41.355Z</time>
      </trkpt>
      <trkpt lat="46.96023" lon="8.74614">
        <ele>1096</ele>
        <time>2021-08-06T09:59:42.355Z</time>
      </trkpt>
      <trkpt lat="46.96023" lon="8.74613">
        <ele>1097</ele>
        <time>2021-08-06T09:59:43.354Z</time>
      </trkpt>
      <trkpt lat="46.96023" lon="8.74612">
        <ele>1097</ele>
        <time>2021-08-06T09:59:44.354Z</time>
      </trkpt>
      <trkpt lat="46.96023" lon="8.74611">
        <ele>1097</ele>
        <time>2021-08-06T09:59:45.354Z</time>
      </trkpt>
      <trkpt lat="46.96024" lon="8.74609">
        <ele>1098</ele>
        <time>2021-08-06T09:59:46.354Z</time>
      </trkpt>
      <trkpt lat="46.96025" lon="8.74608">
        <ele>1099</ele>
        <time>2021-08-06T09:59:47.355Z</time>
      </trkpt>
      <trkpt lat="46.96024" lon="8.74608">
        <ele>1099</ele>
        <time>2021-08-06T09:59:48.354Z</time>
      </trkpt>
      <trkpt lat="46.96023" lon="8.74608">
        <ele>1100</ele>
        <time>2021-08-06T09:59:49.355Z</time>
      </trkpt>
      <trkpt lat="46.96022" lon="8.74607">
        <ele>1100</ele>
        <time>2021-08-06T09:59:50.355Z</time>
      </trkpt>
      <trkpt lat="46.9602" lon="8.74607">
        <ele>1100</ele>
        <time>2021-08-06T09:59:51.355Z</time>
      </trkpt>
      <trkpt lat="46.96019" lon="8.74606">
        <ele>1100</ele>
        <time>2021-08-06T09:59:52.355Z</time>
      </trkpt>
      <trkpt lat="46.96017" lon="8.74605">
        <ele>1100</ele>
        <time>2021-08-06T09:59:53.354Z</time>
      </trkpt>
      <trkpt lat="46.96015" lon="8.74604">
        <ele>1100</ele>
        <time>2021-08-06T09:59:54.354Z</time>
      </trkpt>
      <trkpt lat="46.96014" lon="8.74604">
        <ele>1100</ele>
        <time>2021-08-06T09:59:55.355Z</time>
      </trkpt>
      <trkpt lat="46.96012" lon="8.74603">
        <ele>1100</ele>
        <time>2021-08-06T09:59:56.354Z</time>
      </trkpt>
      <trkpt lat="46.96011" lon="8.74602">
        <ele>1100</ele>
        <time>2021-08-06T09:59:57.354Z</time>
      </trkpt>
      <trkpt lat="46.96011" lon="8.74601">
        <ele>1100</ele>
        <time>2021-08-06T09:59:58.354Z</time>
      </trkpt>
      <trkpt lat="46.96011" lon="8.746">
        <ele>1099</ele>
        <time>2021-08-06T09:59:59.355Z</time>
      </trkpt>
      <trkpt lat="46.96009" lon="8.74599">
        <ele>1099</ele>
        <time>2021-08-06T10:00:00.355Z</time>
      </trkpt>
      <trkpt lat="46.96008" lon="8.74598">
        <ele>1100</ele>
        <time>2021-08-06T10:00:01.355Z</time>
      </trkpt>
      <trkpt lat="46.96007" lon="8.74597">
        <ele>1100</ele>
        <time>2021-08-06T10:00:02.354Z</time>
      </trkpt>
      <trkpt lat="46.96006" lon="8.74596">
        <ele>1100</ele>
        <time>2021-08-06T10:00:03.354Z</time>
      </trkpt>
      <trkpt lat="46.96005" lon="8.74595">
        <ele>1100</ele>
        <time>2021-08-06T10:00:04.355Z</time>
      </trkpt>
      <trkpt lat="46.96004" lon="8.74594">
        <ele>1100</ele>
        <time>2021-08-06T10:00:05.355Z</time>
      </trkpt>
      <trkpt lat="46.96002" lon="8.74593">
        <ele>1100</ele>
        <time>2021-08-06T10:00:06.354Z</time>
      </trkpt>
      <trkpt lat="46.96001" lon="8.74593">
        <ele>1100</ele>
        <time>2021-08-06T10:00:07.354Z</time>
      </trkpt>
      <trkpt lat="46.96" lon="8.74592">
        <ele>1101</ele>
        <time>2021-08-06T10:00:08.354Z</time>
      </trkpt>
      <trkpt lat="46.96" lon="8.74591">
        <ele>1102</ele>
        <time>2021-08-06T10:00:09.355Z</time>
      </trkpt>
      <trkpt lat="46.96" lon="8.74589">
        <ele>1102</ele>
        <time>2021-08-06T10:00:10.355Z</time>
      </trkpt>
      <trkpt lat="46.95999" lon="8.74588">
        <ele>1103</ele>
        <time>2021-08-06T10:00:11.355Z</time>
      </trkpt>
      <trkpt lat="46.95997" lon="8.74587">
        <ele>1104</ele>
        <time>2021-08-06T10:00:12.354Z</time>
      </trkpt>
      <trkpt lat="46.95996" lon="8.74586">
        <ele>1104</ele>
        <time>2021-08-06T10:00:13.354Z</time>
      </trkpt>
      <trkpt lat="46.95994" lon="8.74585">
        <ele>1105</ele>
        <time>2021-08-06T10:00:14.355Z</time>
      </trkpt>
      <trkpt lat="46.95992" lon="8.74584">
        <ele>1105</ele>
        <time>2021-08-06T10:00:15.355Z</time>
      </trkpt>
      <trkpt lat="46.95991" lon="8.74583">
        <ele>1106</ele>
        <time>2021-08-06T10:00:16.355Z</time>
      </trkpt>
      <trkpt lat="46.95991" lon="8.74582">
        <ele>1106</ele>
        <time>2021-08-06T10:00:17.355Z</time>
      </trkpt>
      <trkpt lat="46.95989" lon="8.74581">
        <ele>1106</ele>
        <time>2021-08-06T10:00:18.354Z</time>
      </trkpt>
      <trkpt lat="46.95988" lon="8.74581">
        <ele>1107</ele>
        <time>2021-08-06T10:00:19.355Z</time>
      </trkpt>
      <trkpt lat="46.95987" lon="8.7458">
        <ele>1107</ele>
        <time>2021-08-06T10:00:20.354Z</time>
      </trkpt>
      <trkpt lat="46.95987" lon="8.74579">
        <ele>1108</ele>
        <time>2021-08-06T10:00:21.355Z</time>
      </trkpt>
      <trkpt lat="46.95987" lon="8.74578">
        <ele>1109</ele>
        <time>2021-08-06T10:00:22.354Z</time>
      </trkpt>
      <trkpt lat="46.95986" lon="8.74577">
        <ele>1109</ele>
        <time>2021-08-06T10:00:23.354Z</time>
      </trkpt>
      <trkpt lat="46.95986" lon="8.74576">
        <ele>1109</ele>
        <time>2021-08-06T10:00:24.355Z</time>
      </trkpt>
      <trkpt lat="46.95985" lon="8.74574">
        <ele>1109</ele>
        <time>2021-08-06T10:00:25.355Z</time>
      </trkpt>
      <trkpt lat="46.95985" lon="8.74573">
        <ele>1109</ele>
        <time>2021-08-06T10:00:26.354Z</time>
      </trkpt>
      <trkpt lat="46.95986" lon="8.74571">
        <ele>1109</ele>
        <time>2021-08-06T10:00:27.354Z</time>
      </trkpt>
      <trkpt lat="46.95986" lon="8.7457">
        <ele>1109</ele>
        <time>2021-08-06T10:00:28.355Z</time>
      </trkpt>
      <trkpt lat="46.95987" lon="8.74568">
        <ele>1109</ele>
        <time>2021-08-06T10:00:29.355Z</time>
      </trkpt>
      <trkpt lat="46.95989" lon="8.74566">
        <ele>1110</ele>
        <time>2021-08-06T10:00:30.355Z</time>
      </trkpt>
      <trkpt lat="46.95991" lon="8.74564">
        <ele>1110</ele>
        <time>2021-08-06T10:00:31.355Z</time>
      </trkpt>
      <trkpt lat="46.95992" lon="8.74562">
        <ele>1110</ele>
        <time>2021-08-06T10:00:32.355Z</time>
      </trkpt>
      <trkpt lat="46.95994" lon="8.74559">
        <ele>1111</ele>
        <time>2021-08-06T10:00:33.355Z</time>
      </trkpt>
      <trkpt lat="46.95995" lon="8.74559">
        <ele>1112</ele>
        <time>2021-08-06T10:00:34.354Z</time>
      </trkpt>
      <trkpt lat="46.95997" lon="8.74557">
        <ele>1112</ele>
        <time>2021-08-06T10:00:35.354Z</time>
      </trkpt>
      <trkpt lat="46.95997" lon="8.74556">
        <ele>1113</ele>
        <time>2021-08-06T10:00:36.355Z</time>
      </trkpt>
      <trkpt lat="46.95996" lon="8.74555">
        <ele>1113</ele>
        <time>2021-08-06T10:00:37.355Z</time>
      </trkpt>
      <trkpt lat="46.95997" lon="8.74554">
        <ele>1113</ele>
        <time>2021-08-06T10:00:38.355Z</time>
      </trkpt>
      <trkpt lat="46.95996" lon="8.74553">
        <ele>1114</ele>
        <time>2021-08-06T10:00:39.354Z</time>
      </trkpt>
      <trkpt lat="46.95996" lon="8.74551">
        <ele>1114</ele>
        <time>2021-08-06T10:00:40.355Z</time>
      </trkpt>
      <trkpt lat="46.95996" lon="8.7455">
        <ele>1114</ele>
        <time>2021-08-06T10:00:41.355Z</time>
      </trkpt>
      <trkpt lat="46.95996" lon="8.74549">
        <ele>1115</ele>
        <time>2021-08-06T10:00:42.354Z</time>
      </trkpt>
      <trkpt lat="46.95996" lon="8.74547">
        <ele>1115</ele>
        <time>2021-08-06T10:00:43.354Z</time>
      </trkpt>
      <trkpt lat="46.95996" lon="8.74546">
        <ele>1116</ele>
        <time>2021-08-06T10:00:44.354Z</time>
      </trkpt>
      <trkpt lat="46.95996" lon="8.74545">
        <ele>1116</ele>
        <time>2021-08-06T10:00:45.355Z</time>
      </trkpt>
      <trkpt lat="46.95997" lon="8.74543">
        <ele>1116</ele>
        <time>2021-08-06T10:00:46.354Z</time>
      </trkpt>
      <trkpt lat="46.95997" lon="8.74542">
        <ele>1117</ele>
        <time>2021-08-06T10:00:47.355Z</time>
      </trkpt>
      <trkpt lat="46.95998" lon="8.74541">
        <ele>1117</ele>
        <time>2021-08-06T10:00:48.354Z</time>
      </trkpt>
      <trkpt lat="46.95998" lon="8.74539">
        <ele>1117</ele>
        <time>2021-08-06T10:00:49.355Z</time>
      </trkpt>
      <trkpt lat="46.95998" lon="8.74538">
        <ele>1117</ele>
        <time>2021-08-06T10:00:50.354Z</time>
      </trkpt>
      <trkpt lat="46.95998" lon="8.74537">
        <ele>1117</ele>
        <time>2021-08-06T10:00:51.354Z</time>
      </trkpt>
      <trkpt lat="46.95998" lon="8.74536">
        <ele>1117</ele>
        <time>2021-08-06T10:00:52.354Z</time>
      </trkpt>
      <trkpt lat="46.95999" lon="8.74534">
        <ele>1117</ele>
        <time>2021-08-06T10:00:53.354Z</time>
      </trkpt>
      <trkpt lat="46.96" lon="8.74532">
        <ele>1117</ele>
        <time>2021-08-06T10:00:54.355Z</time>
      </trkpt>
      <trkpt lat="46.95999" lon="8.7453">
        <ele>1118</ele>
        <time>2021-08-06T10:00:55.355Z</time>
      </trkpt>
      <trkpt lat="46.95997" lon="8.7453">
        <ele>1119</ele>
        <time>2021-08-06T10:00:56.354Z</time>
      </trkpt>
      <trkpt lat="46.95996" lon="8.7453">
        <ele>1119</ele>
        <time>2021-08-06T10:00:57.354Z</time>
      </trkpt>
      <trkpt lat="46.95997" lon="8.74529">
        <ele>1119</ele>
        <time>2021-08-06T10:00:58.354Z</time>
      </trkpt>
      <trkpt lat="46.95997" lon="8.74527">
        <ele>1120</ele>
        <time>2021-08-06T10:00:59.355Z</time>
      </trkpt>
      <trkpt lat="46.95997" lon="8.74526">
        <ele>1120</ele>
        <time>2021-08-06T10:01:00.355Z</time>
      </trkpt>
      <trkpt lat="46.95997" lon="8.74524">
        <ele>1121</ele>
        <time>2021-08-06T10:01:01.355Z</time>
      </trkpt>
      <trkpt lat="46.95997" lon="8.74523">
        <ele>1121</ele>
        <time>2021-08-06T10:01:02.354Z</time>
      </trkpt>
      <trkpt lat="46.95998" lon="8.74521">
        <ele>1121</ele>
        <time>2021-08-06T10:01:03.354Z</time>
      </trkpt>
      <trkpt lat="46.95999" lon="8.7452">
        <ele>1122</ele>
        <time>2021-08-06T10:01:04.355Z</time>
      </trkpt>
      <trkpt lat="46.95999" lon="8.74518">
        <ele>1122</ele>
        <time>2021-08-06T10:01:05.354Z</time>
      </trkpt>
      <trkpt lat="46.95999" lon="8.74517">
        <ele>1123</ele>
        <time>2021-08-06T10:01:06.355Z</time>
      </trkpt>
      <trkpt lat="46.95999" lon="8.74515">
        <ele>1123</ele>
        <time>2021-08-06T10:01:07.354Z</time>
      </trkpt>
      <trkpt lat="46.95999" lon="8.74514">
        <ele>1123</ele>
        <time>2021-08-06T10:01:08.355Z</time>
      </trkpt>
      <trkpt lat="46.95999" lon="8.74513">
        <ele>1123</ele>
        <time>2021-08-06T10:01:09.355Z</time>
      </trkpt>
      <trkpt lat="46.95999" lon="8.74512">
        <ele>1123</ele>
        <time>2021-08-06T10:01:10.355Z</time>
      </trkpt>
      <trkpt lat="46.95999" lon="8.7451">
        <ele>1123</ele>
        <time>2021-08-06T10:01:11.354Z</time>
      </trkpt>
      <trkpt lat="46.96" lon="8.74508">
        <ele>1123</ele>
        <time>2021-08-06T10:01:12.355Z</time>
      </trkpt>
      <trkpt lat="46.96001" lon="8.74506">
        <ele>1123</ele>
        <time>2021-08-06T10:01:13.354Z</time>
      </trkpt>
      <trkpt lat="46.96002" lon="8.74503">
        <ele>1123</ele>
        <time>2021-08-06T10:01:14.354Z</time>
      </trkpt>
      <trkpt lat="46.96003" lon="8.74501">
        <ele>1123</ele>
        <time>2021-08-06T10:01:15.355Z</time>
      </trkpt>
      <trkpt lat="46.96003" lon="8.745">
        <ele>1123</ele>
        <time>2021-08-06T10:01:16.355Z</time>
      </trkpt>
      <trkpt lat="46.96004" lon="8.74499">
        <ele>1123</ele>
        <time>2021-08-06T10:01:17.354Z</time>
      </trkpt>
      <trkpt lat="46.96005" lon="8.74497">
        <ele>1124</ele>
        <time>2021-08-06T10:01:18.354Z</time>
      </trkpt>
      <trkpt lat="46.96005" lon="8.74495">
        <ele>1125</ele>
        <time>2021-08-06T10:01:19.354Z</time>
      </trkpt>
      <trkpt lat="46.96006" lon="8.74494">
        <ele>1126</ele>
        <time>2021-08-06T10:01:20.355Z</time>
      </trkpt>
      <trkpt lat="46.96006" lon="8.74492">
        <ele>1126</ele>
        <time>2021-08-06T10:01:21.354Z</time>
      </trkpt>
      <trkpt lat="46.96007" lon="8.74491">
        <ele>1127</ele>
        <time>2021-08-06T10:01:22.355Z</time>
      </trkpt>
      <trkpt lat="46.96007" lon="8.7449">
        <ele>1127</ele>
        <time>2021-08-06T10:01:23.354Z</time>
      </trkpt>
      <trkpt lat="46.96006" lon="8.74489">
        <ele>1128</ele>
        <time>2021-08-06T10:01:24.354Z</time>
      </trkpt>
      <trkpt lat="46.96003" lon="8.74489">
        <ele>1128</ele>
        <time>2021-08-06T10:01:25.354Z</time>
      </trkpt>
      <trkpt lat="46.96001" lon="8.74487">
        <ele>1128</ele>
        <time>2021-08-06T10:01:26.354Z</time>
      </trkpt>
      <trkpt lat="46.96" lon="8.74486">
        <ele>1128</ele>
        <time>2021-08-06T10:01:27.354Z</time>
      </trkpt>
      <trkpt lat="46.95999" lon="8.74485">
        <ele>1128</ele>
        <time>2021-08-06T10:01:28.354Z</time>
      </trkpt>
      <trkpt lat="46.95998" lon="8.74484">
        <ele>1128</ele>
        <time>2021-08-06T10:01:29.354Z</time>
      </trkpt>
      <trkpt lat="46.95998" lon="8.74483">
        <ele>1128</ele>
        <time>2021-08-06T10:01:30.354Z</time>
      </trkpt>
      <trkpt lat="46.95998" lon="8.74482">
        <ele>1128</ele>
        <time>2021-08-06T10:01:31.355Z</time>
      </trkpt>
      <trkpt lat="46.95998" lon="8.7448">
        <ele>1128</ele>
        <time>2021-08-06T10:01:32.354Z</time>
      </trkpt>
      <trkpt lat="46.95998" lon="8.74479">
        <ele>1128</ele>
        <time>2021-08-06T10:01:33.354Z</time>
      </trkpt>
      <trkpt lat="46.95998" lon="8.74478">
        <ele>1128</ele>
        <time>2021-08-06T10:01:34.354Z</time>
      </trkpt>
      <trkpt lat="46.95998" lon="8.74477">
        <ele>1129</ele>
        <time>2021-08-06T10:01:35.354Z</time>
      </trkpt>
      <trkpt lat="46.95998" lon="8.74476">
        <ele>1128</ele>
        <time>2021-08-06T10:01:36.354Z</time>
      </trkpt>
      <trkpt lat="46.95997" lon="8.74475">
        <ele>1128</ele>
        <time>2021-08-06T10:01:37.354Z</time>
      </trkpt>
      <trkpt lat="46.95997" lon="8.74474">
        <ele>1128</ele>
        <time>2021-08-06T10:01:38.354Z</time>
      </trkpt>
      <trkpt lat="46.95996" lon="8.74474">
        <ele>1128</ele>
        <time>2021-08-06T10:01:39.354Z</time>
      </trkpt>
      <trkpt lat="46.95996" lon="8.74473">
        <ele>1128</ele>
        <time>2021-08-06T10:01:40.354Z</time>
      </trkpt>
      <trkpt lat="46.95995" lon="8.74472">
        <ele>1128</ele>
        <time>2021-08-06T10:01:41.354Z</time>
      </trkpt>
      <trkpt lat="46.95994" lon="8.74471">
        <ele>1127</ele>
        <time>2021-08-06T10:01:42.354Z</time>
      </trkpt>
      <trkpt lat="46.95993" lon="8.7447">
        <ele>1127</ele>
        <time>2021-08-06T10:01:43.354Z</time>
      </trkpt>
      <trkpt lat="46.95993" lon="8.74469">
        <ele>1127</ele>
        <time>2021-08-06T10:01:44.354Z</time>
      </trkpt>
      <trkpt lat="46.95993" lon="8.74468">
        <ele>1127</ele>
        <time>2021-08-06T10:01:45.354Z</time>
      </trkpt>
      <trkpt lat="46.95992" lon="8.74467">
        <ele>1127</ele>
        <time>2021-08-06T10:01:46.354Z</time>
      </trkpt>
      <trkpt lat="46.95992" lon="8.74466">
        <ele>1127</ele>
        <time>2021-08-06T10:01:47.354Z</time>
      </trkpt>
      <trkpt lat="46.95991" lon="8.74466">
        <ele>1127</ele>
        <time>2021-08-06T10:01:48.355Z</time>
      </trkpt>
      <trkpt lat="46.9599" lon="8.74465">
        <ele>1127</ele>
        <time>2021-08-06T10:01:49.354Z</time>
      </trkpt>
      <trkpt lat="46.9599" lon="8.74465">
        <ele>1127</ele>
        <time>2021-08-06T10:01:50.355Z</time>
      </trkpt>
      <trkpt lat="46.95989" lon="8.74465">
        <ele>1126</ele>
        <time>2021-08-06T10:01:51.355Z</time>
      </trkpt>
      <trkpt lat="46.95988" lon="8.74465">
        <ele>1126</ele>
        <time>2021-08-06T10:01:52.355Z</time>
      </trkpt>
      <trkpt lat="46.95988" lon="8.74464">
        <ele>1126</ele>
        <time>2021-08-06T10:01:53.355Z</time>
      </trkpt>
      <trkpt lat="46.95988" lon="8.74463">
        <ele>1126</ele>
        <time>2021-08-06T10:01:54.355Z</time>
      </trkpt>
      <trkpt lat="46.95988" lon="8.74462">
        <ele>1125</ele>
        <time>2021-08-06T10:01:55.354Z</time>
      </trkpt>
      <trkpt lat="46.95988" lon="8.74461">
        <ele>1125</ele>
        <time>2021-08-06T10:01:56.355Z</time>
      </trkpt>
      <trkpt lat="46.95988" lon="8.7446">
        <ele>1125</ele>
        <time>2021-08-06T10:01:57.354Z</time>
      </trkpt>
      <trkpt lat="46.95988" lon="8.74459">
        <ele>1125</ele>
        <time>2021-08-06T10:01:58.355Z</time>
      </trkpt>
      <trkpt lat="46.95988" lon="8.74459">
        <ele>1125</ele>
        <time>2021-08-06T10:01:59.355Z</time>
      </trkpt>
      <trkpt lat="46.95988" lon="8.74458">
        <ele>1125</ele>
        <time>2021-08-06T10:02:00.355Z</time>
      </trkpt>
      <trkpt lat="46.95987" lon="8.74458">
        <ele>1125</ele>
        <time>2021-08-06T10:02:01.354Z</time>
      </trkpt>
      <trkpt lat="46.95986" lon="8.74457">
        <ele>1125</ele>
        <time>2021-08-06T10:02:02.354Z</time>
      </trkpt>
      <trkpt lat="46.95986" lon="8.74456">
        <ele>1125</ele>
        <time>2021-08-06T10:02:03.355Z</time>
      </trkpt>
      <trkpt lat="46.95987" lon="8.74455">
        <ele>1125</ele>
        <time>2021-08-06T10:02:04.355Z</time>
      </trkpt>
      <trkpt lat="46.95988" lon="8.74453">
        <ele>1125</ele>
        <time>2021-08-06T10:02:05.355Z</time>
      </trkpt>
      <trkpt lat="46.95989" lon="8.74452">
        <ele>1125</ele>
        <time>2021-08-06T10:02:06.354Z</time>
      </trkpt>
      <trkpt lat="46.9599" lon="8.74451">
        <ele>1125</ele>
        <time>2021-08-06T10:02:07.355Z</time>
      </trkpt>
      <trkpt lat="46.9599" lon="8.7445">
        <ele>1126</ele>
        <time>2021-08-06T10:02:08.355Z</time>
      </trkpt>
      <trkpt lat="46.9599" lon="8.74449">
        <ele>1126</ele>
        <time>2021-08-06T10:02:09.355Z</time>
      </trkpt>
      <trkpt lat="46.95991" lon="8.74448">
        <ele>1126</ele>
        <time>2021-08-06T10:02:10.355Z</time>
      </trkpt>
      <trkpt lat="46.95993" lon="8.74446">
        <ele>1127</ele>
        <time>2021-08-06T10:02:11.355Z</time>
      </trkpt>
      <trkpt lat="46.95995" lon="8.74443">
        <ele>1128</ele>
        <time>2021-08-06T10:02:12.355Z</time>
      </trkpt>
      <trkpt lat="46.95997" lon="8.74441">
        <ele>1128</ele>
        <time>2021-08-06T10:02:13.355Z</time>
      </trkpt>
      <trkpt lat="46.95998" lon="8.74438">
        <ele>1128</ele>
        <time>2021-08-06T10:02:14.355Z</time>
      </trkpt>
      <trkpt lat="46.95999" lon="8.74437">
        <ele>1129</ele>
        <time>2021-08-06T10:02:15.354Z</time>
      </trkpt>
      <trkpt lat="46.96" lon="8.74436">
        <ele>1130</ele>
        <time>2021-08-06T10:02:16.355Z</time>
      </trkpt>
      <trkpt lat="46.96" lon="8.74435">
        <ele>1130</ele>
        <time>2021-08-06T10:02:17.355Z</time>
      </trkpt>
      <trkpt lat="46.96" lon="8.74433">
        <ele>1131</ele>
        <time>2021-08-06T10:02:18.355Z</time>
      </trkpt>
      <trkpt lat="46.95999" lon="8.74433">
        <ele>1132</ele>
        <time>2021-08-06T10:02:19.355Z</time>
      </trkpt>
      <trkpt lat="46.95998" lon="8.74433">
        <ele>1132</ele>
        <time>2021-08-06T10:02:20.355Z</time>
      </trkpt>
      <trkpt lat="46.95998" lon="8.74433">
        <ele>1133</ele>
        <time>2021-08-06T10:02:21.355Z</time>
      </trkpt>
      <trkpt lat="46.95997" lon="8.74432">
        <ele>1134</ele>
        <time>2021-08-06T10:02:22.355Z</time>
      </trkpt>
      <trkpt lat="46.95997" lon="8.74432">
        <ele>1134</ele>
        <time>2021-08-06T10:02:23.355Z</time>
      </trkpt>
      <trkpt lat="46.95996" lon="8.74432">
        <ele>1135</ele>
        <time>2021-08-06T10:02:24.354Z</time>
      </trkpt>
      <trkpt lat="46.95995" lon="8.74431">
        <ele>1135</ele>
        <time>2021-08-06T10:02:25.355Z</time>
      </trkpt>
      <trkpt lat="46.95994" lon="8.74431">
        <ele>1136</ele>
        <time>2021-08-06T10:02:26.355Z</time>
      </trkpt>
      <trkpt lat="46.95994" lon="8.7443">
        <ele>1136</ele>
        <time>2021-08-06T10:02:27.355Z</time>
      </trkpt>
      <trkpt lat="46.95994" lon="8.74429">
        <ele>1136</ele>
        <time>2021-08-06T10:02:28.354Z</time>
      </trkpt>
      <trkpt lat="46.95993" lon="8.74428">
        <ele>1136</ele>
        <time>2021-08-06T10:02:29.354Z</time>
      </trkpt>
      <trkpt lat="46.95992" lon="8.74427">
        <ele>1136</ele>
        <time>2021-08-06T10:02:30.355Z</time>
      </trkpt>
      <trkpt lat="46.95991" lon="8.74426">
        <ele>1135</ele>
        <time>2021-08-06T10:02:31.355Z</time>
      </trkpt>
      <trkpt lat="46.95991" lon="8.74425">
        <ele>1135</ele>
        <time>2021-08-06T10:02:32.355Z</time>
      </trkpt>
      <trkpt lat="46.95991" lon="8.74424">
        <ele>1134</ele>
        <time>2021-08-06T10:02:33.354Z</time>
      </trkpt>
      <trkpt lat="46.95991" lon="8.74423">
        <ele>1134</ele>
        <time>2021-08-06T10:02:34.355Z</time>
      </trkpt>
      <trkpt lat="46.95991" lon="8.74422">
        <ele>1134</ele>
        <time>2021-08-06T10:02:35.355Z</time>
      </trkpt>
      <trkpt lat="46.95991" lon="8.74421">
        <ele>1134</ele>
        <time>2021-08-06T10:02:36.354Z</time>
      </trkpt>
      <trkpt lat="46.9599" lon="8.74421">
        <ele>1134</ele>
        <time>2021-08-06T10:02:37.355Z</time>
      </trkpt>
      <trkpt lat="46.95989" lon="8.7442">
        <ele>1134</ele>
        <time>2021-08-06T10:02:38.355Z</time>
      </trkpt>
      <trkpt lat="46.95988" lon="8.74419">
        <ele>1134</ele>
        <time>2021-08-06T10:02:39.354Z</time>
      </trkpt>
      <trkpt lat="46.95988" lon="8.74418">
        <ele>1134</ele>
        <time>2021-08-06T10:02:40.355Z</time>
      </trkpt>
      <trkpt lat="46.95987" lon="8.74416">
        <ele>1134</ele>
        <time>2021-08-06T10:02:41.354Z</time>
      </trkpt>
      <trkpt lat="46.95987" lon="8.74416">
        <ele>1134</ele>
        <time>2021-08-06T10:02:42.355Z</time>
      </trkpt>
      <trkpt lat="46.95987" lon="8.74415">
        <ele>1134</ele>
        <time>2021-08-06T10:02:43.355Z</time>
      </trkpt>
      <trkpt lat="46.95986" lon="8.74414">
        <ele>1134</ele>
        <time>2021-08-06T10:02:44.354Z</time>
      </trkpt>
      <trkpt lat="46.95986" lon="8.74413">
        <ele>1134</ele>
        <time>2021-08-06T10:02:45.355Z</time>
      </trkpt>
      <trkpt lat="46.95985" lon="8.74413">
        <ele>1134</ele>
        <time>2021-08-06T10:02:46.354Z</time>
      </trkpt>
      <trkpt lat="46.95985" lon="8.74412">
        <ele>1134</ele>
        <time>2021-08-06T10:02:47.354Z</time>
      </trkpt>
      <trkpt lat="46.95984" lon="8.74412">
        <ele>1133</ele>
        <time>2021-08-06T10:02:48.355Z</time>
      </trkpt>
      <trkpt lat="46.95984" lon="8.74411">
        <ele>1133</ele>
        <time>2021-08-06T10:02:49.355Z</time>
      </trkpt>
      <trkpt lat="46.95983" lon="8.7441">
        <ele>1133</ele>
        <time>2021-08-06T10:02:50.355Z</time>
      </trkpt>
      <trkpt lat="46.95983" lon="8.74409">
        <ele>1133</ele>
        <time>2021-08-06T10:02:51.355Z</time>
      </trkpt>
      <trkpt lat="46.95983" lon="8.74408">
        <ele>1133</ele>
        <time>2021-08-06T10:02:52.354Z</time>
      </trkpt>
      <trkpt lat="46.95983" lon="8.74407">
        <ele>1133</ele>
        <time>2021-08-06T10:02:53.355Z</time>
      </trkpt>
      <trkpt lat="46.95982" lon="8.74406">
        <ele>1134</ele>
        <time>2021-08-06T10:02:54.354Z</time>
      </trkpt>
      <trkpt lat="46.95982" lon="8.74405">
        <ele>1134</ele>
        <time>2021-08-06T10:02:55.354Z</time>
      </trkpt>
      <trkpt lat="46.95982" lon="8.74404">
        <ele>1134</ele>
        <time>2021-08-06T10:02:56.355Z</time>
      </trkpt>
      <trkpt lat="46.95982" lon="8.74404">
        <ele>1134</ele>
        <time>2021-08-06T10:02:57.354Z</time>
      </trkpt>
      <trkpt lat="46.95982" lon="8.74403">
        <ele>1134</ele>
        <time>2021-08-06T10:02:58.355Z</time>
      </trkpt>
      <trkpt lat="46.95982" lon="8.74401">
        <ele>1134</ele>
        <time>2021-08-06T10:02:59.355Z</time>
      </trkpt>
      <trkpt lat="46.95982" lon="8.74401">
        <ele>1134</ele>
        <time>2021-08-06T10:03:00.355Z</time>
      </trkpt>
      <trkpt lat="46.95981" lon="8.744">
        <ele>1135</ele>
        <time>2021-08-06T10:03:01.354Z</time>
      </trkpt>
      <trkpt lat="46.95979" lon="8.74399">
        <ele>1135</ele>
        <time>2021-08-06T10:03:02.354Z</time>
      </trkpt>
      <trkpt lat="46.95977" lon="8.74398">
        <ele>1135</ele>
        <time>2021-08-06T10:03:03.354Z</time>
      </trkpt>
      <trkpt lat="46.95975" lon="8.74396">
        <ele>1136</ele>
        <time>2021-08-06T10:03:04.355Z</time>
      </trkpt>
      <trkpt lat="46.95973" lon="8.74393">
        <ele>1136</ele>
        <time>2021-08-06T10:03:05.355Z</time>
      </trkpt>
      <trkpt lat="46.95973" lon="8.7439">
        <ele>1137</ele>
        <time>2021-08-06T10:03:06.355Z</time>
      </trkpt>
      <trkpt lat="46.95972" lon="8.74387">
        <ele>1137</ele>
        <time>2021-08-06T10:03:07.354Z</time>
      </trkpt>
      <trkpt lat="46.95972" lon="8.74386">
        <ele>1137</ele>
        <time>2021-08-06T10:03:08.355Z</time>
      </trkpt>
      <trkpt lat="46.9597" lon="8.74385">
        <ele>1137</ele>
        <time>2021-08-06T10:03:09.354Z</time>
      </trkpt>
      <trkpt lat="46.95969" lon="8.74383">
        <ele>1137</ele>
        <time>2021-08-06T10:03:10.355Z</time>
      </trkpt>
      <trkpt lat="46.95969" lon="8.74381">
        <ele>1137</ele>
        <time>2021-08-06T10:03:11.354Z</time>
      </trkpt>
      <trkpt lat="46.95968" lon="8.74381">
        <ele>1137</ele>
        <time>2021-08-06T10:03:12.354Z</time>
      </trkpt>
      <trkpt lat="46.95967" lon="8.7438">
        <ele>1138</ele>
        <time>2021-08-06T10:03:13.354Z</time>
      </trkpt>
      <trkpt lat="46.95967" lon="8.7438">
        <ele>1138</ele>
        <time>2021-08-06T10:03:14.355Z</time>
      </trkpt>
      <trkpt lat="46.95968" lon="8.74379">
        <ele>1138</ele>
        <time>2021-08-06T10:03:15.355Z</time>
      </trkpt>
      <trkpt lat="46.95968" lon="8.74377">
        <ele>1139</ele>
        <time>2021-08-06T10:03:16.354Z</time>
      </trkpt>
      <trkpt lat="46.95968" lon="8.74377">
        <ele>1140</ele>
        <time>2021-08-06T10:03:17.354Z</time>
      </trkpt>
      <trkpt lat="46.95968" lon="8.74376">
        <ele>1140</ele>
        <time>2021-08-06T10:03:18.355Z</time>
      </trkpt>
      <trkpt lat="46.95967" lon="8.74376">
        <ele>1141</ele>
        <time>2021-08-06T10:03:19.355Z</time>
      </trkpt>
      <trkpt lat="46.95965" lon="8.74376">
        <ele>1141</ele>
        <time>2021-08-06T10:03:20.355Z</time>
      </trkpt>
      <trkpt lat="46.95964" lon="8.74376">
        <ele>1141</ele>
        <time>2021-08-06T10:03:21.355Z</time>
      </trkpt>
      <trkpt lat="46.95963" lon="8.74377">
        <ele>1141</ele>
        <time>2021-08-06T10:03:22.355Z</time>
      </trkpt>
      <trkpt lat="46.95962" lon="8.74376">
        <ele>1141</ele>
        <time>2021-08-06T10:03:23.355Z</time>
      </trkpt>
      <trkpt lat="46.95961" lon="8.74375">
        <ele>1141</ele>
        <time>2021-08-06T10:03:24.355Z</time>
      </trkpt>
      <trkpt lat="46.95961" lon="8.74374">
        <ele>1141</ele>
        <time>2021-08-06T10:03:25.355Z</time>
      </trkpt>
      <trkpt lat="46.95961" lon="8.74373">
        <ele>1140</ele>
        <time>2021-08-06T10:03:26.355Z</time>
      </trkpt>
      <trkpt lat="46.95961" lon="8.74372">
        <ele>1140</ele>
        <time>2021-08-06T10:03:27.355Z</time>
      </trkpt>
      <trkpt lat="46.95961" lon="8.74371">
        <ele>1140</ele>
        <time>2021-08-06T10:03:28.355Z</time>
      </trkpt>
      <trkpt lat="46.95962" lon="8.7437">
        <ele>1140</ele>
        <time>2021-08-06T10:03:29.355Z</time>
      </trkpt>
      <trkpt lat="46.95961" lon="8.7437">
        <ele>1140</ele>
        <time>2021-08-06T10:03:30.355Z</time>
      </trkpt>
      <trkpt lat="46.95961" lon="8.7437">
        <ele>1140</ele>
        <time>2021-08-06T10:03:31.355Z</time>
      </trkpt>
      <trkpt lat="46.9596" lon="8.7437">
        <ele>1139</ele>
        <time>2021-08-06T10:03:32.355Z</time>
      </trkpt>
      <trkpt lat="46.9596" lon="8.7437">
        <ele>1139</ele>
        <time>2021-08-06T10:03:33.355Z</time>
      </trkpt>
      <trkpt lat="46.9596" lon="8.74369">
        <ele>1139</ele>
        <time>2021-08-06T10:03:34.355Z</time>
      </trkpt>
      <trkpt lat="46.9596" lon="8.74368">
        <ele>1139</ele>
        <time>2021-08-06T10:03:35.354Z</time>
      </trkpt>
      <trkpt lat="46.95962" lon="8.74366">
        <ele>1139</ele>
        <time>2021-08-06T10:03:36.355Z</time>
      </trkpt>
      <trkpt lat="46.95962" lon="8.74365">
        <ele>1140</ele>
        <time>2021-08-06T10:03:37.354Z</time>
      </trkpt>
      <trkpt lat="46.95962" lon="8.74363">
        <ele>1140</ele>
        <time>2021-08-06T10:03:38.355Z</time>
      </trkpt>
      <trkpt lat="46.95963" lon="8.74362">
        <ele>1141</ele>
        <time>2021-08-06T10:03:39.355Z</time>
      </trkpt>
      <trkpt lat="46.95963" lon="8.74361">
        <ele>1141</ele>
        <time>2021-08-06T10:03:40.354Z</time>
      </trkpt>
      <trkpt lat="46.95963" lon="8.74361">
        <ele>1141</ele>
        <time>2021-08-06T10:03:41.354Z</time>
      </trkpt>
      <trkpt lat="46.95963" lon="8.74361">
        <ele>1142</ele>
        <time>2021-08-06T10:03:42.354Z</time>
      </trkpt>
      <trkpt lat="46.95962" lon="8.7436">
        <ele>1142</ele>
        <time>2021-08-06T10:03:43.354Z</time>
      </trkpt>
      <trkpt lat="46.95961" lon="8.7436">
        <ele>1142</ele>
        <time>2021-08-06T10:03:44.354Z</time>
      </trkpt>
      <trkpt lat="46.95961" lon="8.7436">
        <ele>1142</ele>
        <time>2021-08-06T10:03:45.355Z</time>
      </trkpt>
      <trkpt lat="46.95961" lon="8.7436">
        <ele>1141</ele>
        <time>2021-08-06T10:03:46.355Z</time>
      </trkpt>
      <trkpt lat="46.95961" lon="8.74359">
        <ele>1141</ele>
        <time>2021-08-06T10:03:47.354Z</time>
      </trkpt>
      <trkpt lat="46.9596" lon="8.74358">
        <ele>1141</ele>
        <time>2021-08-06T10:03:48.355Z</time>
      </trkpt>
      <trkpt lat="46.9596" lon="8.74357">
        <ele>1141</ele>
        <time>2021-08-06T10:03:49.355Z</time>
      </trkpt>
      <trkpt lat="46.95959" lon="8.74357">
        <ele>1141</ele>
        <time>2021-08-06T10:03:50.354Z</time>
      </trkpt>
      <trkpt lat="46.95959" lon="8.74356">
        <ele>1141</ele>
        <time>2021-08-06T10:03:51.355Z</time>
      </trkpt>
      <trkpt lat="46.95958" lon="8.74356">
        <ele>1141</ele>
        <time>2021-08-06T10:03:52.355Z</time>
      </trkpt>
      <trkpt lat="46.95958" lon="8.74355">
        <ele>1141</ele>
        <time>2021-08-06T10:03:53.355Z</time>
      </trkpt>
      <trkpt lat="46.95958" lon="8.74354">
        <ele>1141</ele>
        <time>2021-08-06T10:03:54.355Z</time>
      </trkpt>
      <trkpt lat="46.95958" lon="8.74353">
        <ele>1141</ele>
        <time>2021-08-06T10:03:55.355Z</time>
      </trkpt>
      <trkpt lat="46.95957" lon="8.74352">
        <ele>1141</ele>
        <time>2021-08-06T10:03:56.355Z</time>
      </trkpt>
      <trkpt lat="46.95957" lon="8.74351">
        <ele>1141</ele>
        <time>2021-08-06T10:03:57.355Z</time>
      </trkpt>
      <trkpt lat="46.95958" lon="8.7435">
        <ele>1141</ele>
        <time>2021-08-06T10:03:58.354Z</time>
      </trkpt>
      <trkpt lat="46.95958" lon="8.74349">
        <ele>1141</ele>
        <time>2021-08-06T10:03:59.355Z</time>
      </trkpt>
      <trkpt lat="46.95959" lon="8.74348">
        <ele>1141</ele>
        <time>2021-08-06T10:04:00.355Z</time>
      </trkpt>
      <trkpt lat="46.9596" lon="8.74345">
        <ele>1141</ele>
        <time>2021-08-06T10:04:01.354Z</time>
      </trkpt>
      <trkpt lat="46.95962" lon="8.74342">
        <ele>1141</ele>
        <time>2021-08-06T10:04:02.355Z</time>
      </trkpt>
      <trkpt lat="46.95962" lon="8.74338">
        <ele>1141</ele>
        <time>2021-08-06T10:04:03.355Z</time>
      </trkpt>
      <trkpt lat="46.95963" lon="8.74334">
        <ele>1141</ele>
        <time>2021-08-06T10:04:04.355Z</time>
      </trkpt>
      <trkpt lat="46.95964" lon="8.7433">
        <ele>1141</ele>
        <time>2021-08-06T10:04:05.355Z</time>
      </trkpt>
      <trkpt lat="46.95964" lon="8.74328">
        <ele>1141</ele>
        <time>2021-08-06T10:04:06.354Z</time>
      </trkpt>
      <trkpt lat="46.95963" lon="8.74327">
        <ele>1142</ele>
        <time>2021-08-06T10:04:07.355Z</time>
      </trkpt>
      <trkpt lat="46.95963" lon="8.74326">
        <ele>1142</ele>
        <time>2021-08-06T10:04:08.354Z</time>
      </trkpt>
      <trkpt lat="46.95964" lon="8.74325">
        <ele>1142</ele>
        <time>2021-08-06T10:04:09.355Z</time>
      </trkpt>
      <trkpt lat="46.95965" lon="8.74322">
        <ele>1142</ele>
        <time>2021-08-06T10:04:10.355Z</time>
      </trkpt>
      <trkpt lat="46.95966" lon="8.7432">
        <ele>1142</ele>
        <time>2021-08-06T10:04:11.354Z</time>
      </trkpt>
      <trkpt lat="46.95965" lon="8.74319">
        <ele>1142</ele>
        <time>2021-08-06T10:04:12.355Z</time>
      </trkpt>
      <trkpt lat="46.95965" lon="8.74317">
        <ele>1143</ele>
        <time>2021-08-06T10:04:13.355Z</time>
      </trkpt>
      <trkpt lat="46.95964" lon="8.74316">
        <ele>1143</ele>
        <time>2021-08-06T10:04:14.354Z</time>
      </trkpt>
      <trkpt lat="46.95964" lon="8.74315">
        <ele>1143</ele>
        <time>2021-08-06T10:04:15.355Z</time>
      </trkpt>
      <trkpt lat="46.95964" lon="8.74314">
        <ele>1144</ele>
        <time>2021-08-06T10:04:16.354Z</time>
      </trkpt>
      <trkpt lat="46.95964" lon="8.74313">
        <ele>1144</ele>
        <time>2021-08-06T10:04:17.354Z</time>
      </trkpt>
      <trkpt lat="46.95965" lon="8.74312">
        <ele>1144</ele>
        <time>2021-08-06T10:04:18.355Z</time>
      </trkpt>
      <trkpt lat="46.95965" lon="8.74311">
        <ele>1145</ele>
        <time>2021-08-06T10:04:19.355Z</time>
      </trkpt>
      <trkpt lat="46.95965" lon="8.74311">
        <ele>1145</ele>
        <time>2021-08-06T10:04:20.355Z</time>
      </trkpt>
      <trkpt lat="46.95965" lon="8.74309">
        <ele>1145</ele>
        <time>2021-08-06T10:04:21.355Z</time>
      </trkpt>
      <trkpt lat="46.95964" lon="8.74308">
        <ele>1145</ele>
        <time>2021-08-06T10:04:22.355Z</time>
      </trkpt>
      <trkpt lat="46.95963" lon="8.74307">
        <ele>1145</ele>
        <time>2021-08-06T10:04:23.355Z</time>
      </trkpt>
      <trkpt lat="46.95963" lon="8.74306">
        <ele>1144</ele>
        <time>2021-08-06T10:04:24.355Z</time>
      </trkpt>
      <trkpt lat="46.95963" lon="8.74305">
        <ele>1144</ele>
        <time>2021-08-06T10:04:25.355Z</time>
      </trkpt>
      <trkpt lat="46.95963" lon="8.74303">
        <ele>1144</ele>
        <time>2021-08-06T10:04:26.354Z</time>
      </trkpt>
      <trkpt lat="46.95963" lon="8.74302">
        <ele>1144</ele>
        <time>2021-08-06T10:04:27.354Z</time>
      </trkpt>
      <trkpt lat="46.95963" lon="8.74301">
        <ele>1144</ele>
        <time>2021-08-06T10:04:28.355Z</time>
      </trkpt>
      <trkpt lat="46.95963" lon="8.74299">
        <ele>1144</ele>
        <time>2021-08-06T10:04:29.355Z</time>
      </trkpt>
      <trkpt lat="46.95964" lon="8.74298">
        <ele>1145</ele>
        <time>2021-08-06T10:04:30.355Z</time>
      </trkpt>
      <trkpt lat="46.95964" lon="8.74296">
        <ele>1145</ele>
        <time>2021-08-06T10:04:31.354Z</time>
      </trkpt>
      <trkpt lat="46.95964" lon="8.74295">
        <ele>1145</ele>
        <time>2021-08-06T10:04:32.355Z</time>
      </trkpt>
      <trkpt lat="46.95964" lon="8.74294">
        <ele>1146</ele>
        <time>2021-08-06T10:04:33.354Z</time>
      </trkpt>
      <trkpt lat="46.95964" lon="8.74292">
        <ele>1146</ele>
        <time>2021-08-06T10:04:34.355Z</time>
      </trkpt>
      <trkpt lat="46.95964" lon="8.74291">
        <ele>1146</ele>
        <time>2021-08-06T10:04:35.355Z</time>
      </trkpt>
      <trkpt lat="46.95964" lon="8.74289">
        <ele>1147</ele>
        <time>2021-08-06T10:04:36.355Z</time>
      </trkpt>
      <trkpt lat="46.95964" lon="8.74288">
        <ele>1147</ele>
        <time>2021-08-06T10:04:37.355Z</time>
      </trkpt>
      <trkpt lat="46.95964" lon="8.74287">
        <ele>1147</ele>
        <time>2021-08-06T10:04:38.354Z</time>
      </trkpt>
      <trkpt lat="46.95965" lon="8.74286">
        <ele>1147</ele>
        <time>2021-08-06T10:04:39.355Z</time>
      </trkpt>
      <trkpt lat="46.95966" lon="8.74284">
        <ele>1147</ele>
        <time>2021-08-06T10:04:40.355Z</time>
      </trkpt>
      <trkpt lat="46.95965" lon="8.74283">
        <ele>1148</ele>
        <time>2021-08-06T10:04:41.355Z</time>
      </trkpt>
      <trkpt lat="46.95966" lon="8.74281">
        <ele>1149</ele>
        <time>2021-08-06T10:04:42.355Z</time>
      </trkpt>
      <trkpt lat="46.95966" lon="8.7428">
        <ele>1149</ele>
        <time>2021-08-06T10:04:43.355Z</time>
      </trkpt>
      <trkpt lat="46.95967" lon="8.74279">
        <ele>1149</ele>
        <time>2021-08-06T10:04:44.354Z</time>
      </trkpt>
      <trkpt lat="46.95967" lon="8.74277">
        <ele>1150</ele>
        <time>2021-08-06T10:04:45.354Z</time>
      </trkpt>
      <trkpt lat="46.95968" lon="8.74275">
        <ele>1150</ele>
        <time>2021-08-06T10:04:46.355Z</time>
      </trkpt>
      <trkpt lat="46.95967" lon="8.74273">
        <ele>1151</ele>
        <time>2021-08-06T10:04:47.355Z</time>
      </trkpt>
      <trkpt lat="46.95967" lon="8.74271">
        <ele>1151</ele>
        <time>2021-08-06T10:04:48.354Z</time>
      </trkpt>
      <trkpt lat="46.95967" lon="8.7427">
        <ele>1151</ele>
        <time>2021-08-06T10:04:49.355Z</time>
      </trkpt>
      <trkpt lat="46.95966" lon="8.74268">
        <ele>1152</ele>
        <time>2021-08-06T10:04:50.354Z</time>
      </trkpt>
      <trkpt lat="46.95965" lon="8.74267">
        <ele>1152</ele>
        <time>2021-08-06T10:04:51.354Z</time>
      </trkpt>
      <trkpt lat="46.95965" lon="8.74266">
        <ele>1152</ele>
        <time>2021-08-06T10:04:52.354Z</time>
      </trkpt>
      <trkpt lat="46.95964" lon="8.74265">
        <ele>1152</ele>
        <time>2021-08-06T10:04:53.355Z</time>
      </trkpt>
      <trkpt lat="46.95963" lon="8.74263">
        <ele>1153</ele>
        <time>2021-08-06T10:04:54.355Z</time>
      </trkpt>
      <trkpt lat="46.95963" lon="8.74262">
        <ele>1153</ele>
        <time>2021-08-06T10:04:55.354Z</time>
      </trkpt>
      <trkpt lat="46.95963" lon="8.74261">
        <ele>1153</ele>
        <time>2021-08-06T10:04:56.354Z</time>
      </trkpt>
      <trkpt lat="46.95963" lon="8.7426">
        <ele>1153</ele>
        <time>2021-08-06T10:04:57.355Z</time>
      </trkpt>
      <trkpt lat="46.95962" lon="8.74258">
        <ele>1153</ele>
        <time>2021-08-06T10:04:58.355Z</time>
      </trkpt>
      <trkpt lat="46.95962" lon="8.74257">
        <ele>1154</ele>
        <time>2021-08-06T10:04:59.355Z</time>
      </trkpt>
      <trkpt lat="46.95962" lon="8.74255">
        <ele>1154</ele>
        <time>2021-08-06T10:05:00.354Z</time>
      </trkpt>
      <trkpt lat="46.95961" lon="8.74254">
        <ele>1155</ele>
        <time>2021-08-06T10:05:01.354Z</time>
      </trkpt>
      <trkpt lat="46.95961" lon="8.74253">
        <ele>1155</ele>
        <time>2021-08-06T10:05:02.355Z</time>
      </trkpt>
      <trkpt lat="46.9596" lon="8.74252">
        <ele>1155</ele>
        <time>2021-08-06T10:05:03.355Z</time>
      </trkpt>
      <trkpt lat="46.95959" lon="8.7425">
        <ele>1155</ele>
        <time>2021-08-06T10:05:04.354Z</time>
      </trkpt>
      <trkpt lat="46.95958" lon="8.74248">
        <ele>1156</ele>
        <time>2021-08-06T10:05:05.355Z</time>
      </trkpt>
      <trkpt lat="46.95958" lon="8.74247">
        <ele>1156</ele>
        <time>2021-08-06T10:05:06.355Z</time>
      </trkpt>
      <trkpt lat="46.95958" lon="8.74245">
        <ele>1156</ele>
        <time>2021-08-06T10:05:07.354Z</time>
      </trkpt>
      <trkpt lat="46.95958" lon="8.74244">
        <ele>1156</ele>
        <time>2021-08-06T10:05:08.355Z</time>
      </trkpt>
      <trkpt lat="46.95958" lon="8.74243">
        <ele>1156</ele>
        <time>2021-08-06T10:05:09.355Z</time>
      </trkpt>
      <trkpt lat="46.95958" lon="8.74242">
        <ele>1156</ele>
        <time>2021-08-06T10:05:10.355Z</time>
      </trkpt>
      <trkpt lat="46.95959" lon="8.7424">
        <ele>1156</ele>
        <time>2021-08-06T10:05:11.354Z</time>
      </trkpt>
      <trkpt lat="46.95959" lon="8.74239">
        <ele>1156</ele>
        <time>2021-08-06T10:05:12.355Z</time>
      </trkpt>
      <trkpt lat="46.95959" lon="8.74237">
        <ele>1155</ele>
        <time>2021-08-06T10:05:13.355Z</time>
      </trkpt>
      <trkpt lat="46.95959" lon="8.74236">
        <ele>1155</ele>
        <time>2021-08-06T10:05:14.355Z</time>
      </trkpt>
      <trkpt lat="46.95959" lon="8.74234">
        <ele>1155</ele>
        <time>2021-08-06T10:05:15.355Z</time>
      </trkpt>
      <trkpt lat="46.9596" lon="8.74232">
        <ele>1155</ele>
        <time>2021-08-06T10:05:16.355Z</time>
      </trkpt>
      <trkpt lat="46.95959" lon="8.7423">
        <ele>1155</ele>
        <time>2021-08-06T10:05:17.355Z</time>
      </trkpt>
      <trkpt lat="46.95959" lon="8.74229">
        <ele>1155</ele>
        <time>2021-08-06T10:05:18.355Z</time>
      </trkpt>
      <trkpt lat="46.9596" lon="8.74227">
        <ele>1155</ele>
        <time>2021-08-06T10:05:19.355Z</time>
      </trkpt>
      <trkpt lat="46.95961" lon="8.74225">
        <ele>1155</ele>
        <time>2021-08-06T10:05:20.354Z</time>
      </trkpt>
      <trkpt lat="46.95961" lon="8.74223">
        <ele>1155</ele>
        <time>2021-08-06T10:05:21.354Z</time>
      </trkpt>
      <trkpt lat="46.95961" lon="8.74221">
        <ele>1155</ele>
        <time>2021-08-06T10:05:22.354Z</time>
      </trkpt>
      <trkpt lat="46.95961" lon="8.74219">
        <ele>1155</ele>
        <time>2021-08-06T10:05:23.354Z</time>
      </trkpt>
      <trkpt lat="46.9596" lon="8.74218">
        <ele>1155</ele>
        <time>2021-08-06T10:05:24.355Z</time>
      </trkpt>
      <trkpt lat="46.9596" lon="8.74217">
        <ele>1155</ele>
        <time>2021-08-06T10:05:25.355Z</time>
      </trkpt>
      <trkpt lat="46.9596" lon="8.74215">
        <ele>1155</ele>
        <time>2021-08-06T10:05:26.355Z</time>
      </trkpt>
      <trkpt lat="46.9596" lon="8.74214">
        <ele>1155</ele>
        <time>2021-08-06T10:05:27.354Z</time>
      </trkpt>
      <trkpt lat="46.95959" lon="8.74212">
        <ele>1156</ele>
        <time>2021-08-06T10:05:28.354Z</time>
      </trkpt>
      <trkpt lat="46.95959" lon="8.74212">
        <ele>1156</ele>
        <time>2021-08-06T10:05:29.354Z</time>
      </trkpt>
      <trkpt lat="46.95958" lon="8.74211">
        <ele>1157</ele>
        <time>2021-08-06T10:05:30.355Z</time>
      </trkpt>
      <trkpt lat="46.95959" lon="8.74209">
        <ele>1158</ele>
        <time>2021-08-06T10:05:31.354Z</time>
      </trkpt>
      <trkpt lat="46.9596" lon="8.74207">
        <ele>1158</ele>
        <time>2021-08-06T10:05:32.354Z</time>
      </trkpt>
      <trkpt lat="46.9596" lon="8.74206">
        <ele>1159</ele>
        <time>2021-08-06T10:05:33.355Z</time>
      </trkpt>
      <trkpt lat="46.9596" lon="8.74204">
        <ele>1159</ele>
        <time>2021-08-06T10:05:34.355Z</time>
      </trkpt>
      <trkpt lat="46.95959" lon="8.74203">
        <ele>1160</ele>
        <time>2021-08-06T10:05:35.354Z</time>
      </trkpt>
      <trkpt lat="46.95958" lon="8.74202">
        <ele>1160</ele>
        <time>2021-08-06T10:05:36.354Z</time>
      </trkpt>
      <trkpt lat="46.95957" lon="8.74201">
        <ele>1160</ele>
        <time>2021-08-06T10:05:37.354Z</time>
      </trkpt>
      <trkpt lat="46.95956" lon="8.742">
        <ele>1160</ele>
        <time>2021-08-06T10:05:38.355Z</time>
      </trkpt>
      <trkpt lat="46.95956" lon="8.74198">
        <ele>1160</ele>
        <time>2021-08-06T10:05:39.354Z</time>
      </trkpt>
      <trkpt lat="46.95955" lon="8.74197">
        <ele>1160</ele>
        <time>2021-08-06T10:05:40.355Z</time>
      </trkpt>
      <trkpt lat="46.95955" lon="8.74196">
        <ele>1160</ele>
        <time>2021-08-06T10:05:41.354Z</time>
      </trkpt>
      <trkpt lat="46.95955" lon="8.74194">
        <ele>1161</ele>
        <time>2021-08-06T10:05:42.355Z</time>
      </trkpt>
      <trkpt lat="46.95955" lon="8.74193">
        <ele>1160</ele>
        <time>2021-08-06T10:05:43.355Z</time>
      </trkpt>
      <trkpt lat="46.95955" lon="8.74191">
        <ele>1160</ele>
        <time>2021-08-06T10:05:44.354Z</time>
      </trkpt>
      <trkpt lat="46.95954" lon="8.7419">
        <ele>1160</ele>
        <time>2021-08-06T10:05:45.354Z</time>
      </trkpt>
      <trkpt lat="46.95954" lon="8.74189">
        <ele>1160</ele>
        <time>2021-08-06T10:05:46.355Z</time>
      </trkpt>
      <trkpt lat="46.95954" lon="8.74188">
        <ele>1160</ele>
        <time>2021-08-06T10:05:47.355Z</time>
      </trkpt>
      <trkpt lat="46.95953" lon="8.74187">
        <ele>1160</ele>
        <time>2021-08-06T10:05:48.354Z</time>
      </trkpt>
      <trkpt lat="46.95952" lon="8.74186">
        <ele>1160</ele>
        <time>2021-08-06T10:05:49.354Z</time>
      </trkpt>
      <trkpt lat="46.95952" lon="8.74184">
        <ele>1159</ele>
        <time>2021-08-06T10:05:50.354Z</time>
      </trkpt>
      <trkpt lat="46.95952" lon="8.74183">
        <ele>1159</ele>
        <time>2021-08-06T10:05:51.355Z</time>
      </trkpt>
      <trkpt lat="46.95953" lon="8.74181">
        <ele>1159</ele>
        <time>2021-08-06T10:05:52.354Z</time>
      </trkpt>
      <trkpt lat="46.95953" lon="8.7418">
        <ele>1159</ele>
        <time>2021-08-06T10:05:53.354Z</time>
      </trkpt>
      <trkpt lat="46.95953" lon="8.74178">
        <ele>1159</ele>
        <time>2021-08-06T10:05:54.355Z</time>
      </trkpt>
      <trkpt lat="46.95954" lon="8.74177">
        <ele>1159</ele>
        <time>2021-08-06T10:05:55.355Z</time>
      </trkpt>
      <trkpt lat="46.95954" lon="8.74175">
        <ele>1159</ele>
        <time>2021-08-06T10:05:56.354Z</time>
      </trkpt>
      <trkpt lat="46.95954" lon="8.74174">
        <ele>1160</ele>
        <time>2021-08-06T10:05:57.354Z</time>
      </trkpt>
      <trkpt lat="46.95953" lon="8.74174">
        <ele>1160</ele>
        <time>2021-08-06T10:05:58.354Z</time>
      </trkpt>
      <trkpt lat="46.95952" lon="8.74173">
        <ele>1160</ele>
        <time>2021-08-06T10:05:59.355Z</time>
      </trkpt>
      <trkpt lat="46.95952" lon="8.74171">
        <ele>1161</ele>
        <time>2021-08-06T10:06:00.355Z</time>
      </trkpt>
      <trkpt lat="46.95953" lon="8.7417">
        <ele>1161</ele>
        <time>2021-08-06T10:06:01.354Z</time>
      </trkpt>
      <trkpt lat="46.95953" lon="8.74169">
        <ele>1162</ele>
        <time>2021-08-06T10:06:02.354Z</time>
      </trkpt>
      <trkpt lat="46.95954" lon="8.74168">
        <ele>1163</ele>
        <time>2021-08-06T10:06:03.354Z</time>
      </trkpt>
      <trkpt lat="46.95954" lon="8.74168">
        <ele>1163</ele>
        <time>2021-08-06T10:06:04.354Z</time>
      </trkpt>
      <trkpt lat="46.95953" lon="8.74168">
        <ele>1164</ele>
        <time>2021-08-06T10:06:05.355Z</time>
      </trkpt>
      <trkpt lat="46.95951" lon="8.74167">
        <ele>1165</ele>
        <time>2021-08-06T10:06:06.355Z</time>
      </trkpt>
      <trkpt lat="46.9595" lon="8.74166">
        <ele>1165</ele>
        <time>2021-08-06T10:06:07.354Z</time>
      </trkpt>
      <trkpt lat="46.95949" lon="8.74165">
        <ele>1166</ele>
        <time>2021-08-06T10:06:08.354Z</time>
      </trkpt>
      <trkpt lat="46.95949" lon="8.74165">
        <ele>1166</ele>
        <time>2021-08-06T10:06:09.354Z</time>
      </trkpt>
      <trkpt lat="46.95948" lon="8.74164">
        <ele>1166</ele>
        <time>2021-08-06T10:06:10.355Z</time>
      </trkpt>
      <trkpt lat="46.95948" lon="8.74163">
        <ele>1166</ele>
        <time>2021-08-06T10:06:11.354Z</time>
      </trkpt>
      <trkpt lat="46.95947" lon="8.74162">
        <ele>1166</ele>
        <time>2021-08-06T10:06:12.354Z</time>
      </trkpt>
      <trkpt lat="46.95947" lon="8.7416">
        <ele>1166</ele>
        <time>2021-08-06T10:06:13.354Z</time>
      </trkpt>
      <trkpt lat="46.95946" lon="8.74159">
        <ele>1166</ele>
        <time>2021-08-06T10:06:14.354Z</time>
      </trkpt>
      <trkpt lat="46.95946" lon="8.74158">
        <ele>1166</ele>
        <time>2021-08-06T10:06:15.354Z</time>
      </trkpt>
      <trkpt lat="46.95945" lon="8.74156">
        <ele>1166</ele>
        <time>2021-08-06T10:06:16.354Z</time>
      </trkpt>
      <trkpt lat="46.95945" lon="8.74154">
        <ele>1166</ele>
        <time>2021-08-06T10:06:17.354Z</time>
      </trkpt>
      <trkpt lat="46.95945" lon="8.74153">
        <ele>1166</ele>
        <time>2021-08-06T10:06:18.355Z</time>
      </trkpt>
      <trkpt lat="46.95945" lon="8.74152">
        <ele>1166</ele>
        <time>2021-08-06T10:06:19.354Z</time>
      </trkpt>
      <trkpt lat="46.95945" lon="8.7415">
        <ele>1166</ele>
        <time>2021-08-06T10:06:20.354Z</time>
      </trkpt>
      <trkpt lat="46.95945" lon="8.74148">
        <ele>1166</ele>
        <time>2021-08-06T10:06:21.354Z</time>
      </trkpt>
      <trkpt lat="46.95945" lon="8.74146">
        <ele>1166</ele>
        <time>2021-08-06T10:06:22.354Z</time>
      </trkpt>
      <trkpt lat="46.95943" lon="8.74144">
        <ele>1166</ele>
        <time>2021-08-06T10:06:23.354Z</time>
      </trkpt>
      <trkpt lat="46.95942" lon="8.74142">
        <ele>1166</ele>
        <time>2021-08-06T10:06:24.354Z</time>
      </trkpt>
      <trkpt lat="46.95941" lon="8.7414">
        <ele>1166</ele>
        <time>2021-08-06T10:06:25.354Z</time>
      </trkpt>
      <trkpt lat="46.9594" lon="8.74138">
        <ele>1166</ele>
        <time>2021-08-06T10:06:26.354Z</time>
      </trkpt>
      <trkpt lat="46.95939" lon="8.74135">
        <ele>1166</ele>
        <time>2021-08-06T10:06:27.354Z</time>
      </trkpt>
      <trkpt lat="46.9594" lon="8.74134">
        <ele>1165</ele>
        <time>2021-08-06T10:06:28.354Z</time>
      </trkpt>
      <trkpt lat="46.95939" lon="8.74132">
        <ele>1165</ele>
        <time>2021-08-06T10:06:29.354Z</time>
      </trkpt>
      <trkpt lat="46.95939" lon="8.74131">
        <ele>1165</ele>
        <time>2021-08-06T10:06:30.354Z</time>
      </trkpt>
      <trkpt lat="46.95938" lon="8.74129">
        <ele>1165</ele>
        <time>2021-08-06T10:06:31.354Z</time>
      </trkpt>
      <trkpt lat="46.95938" lon="8.74128">
        <ele>1164</ele>
        <time>2021-08-06T10:06:32.355Z</time>
      </trkpt>
      <trkpt lat="46.95937" lon="8.74126">
        <ele>1164</ele>
        <time>2021-08-06T10:06:33.354Z</time>
      </trkpt>
      <trkpt lat="46.95937" lon="8.74125">
        <ele>1164</ele>
        <time>2021-08-06T10:06:34.354Z</time>
      </trkpt>
      <trkpt lat="46.95937" lon="8.74123">
        <ele>1165</ele>
        <time>2021-08-06T10:06:35.354Z</time>
      </trkpt>
      <trkpt lat="46.95937" lon="8.74122">
        <ele>1165</ele>
        <time>2021-08-06T10:06:36.355Z</time>
      </trkpt>
      <trkpt lat="46.95937" lon="8.74121">
        <ele>1165</ele>
        <time>2021-08-06T10:06:37.354Z</time>
      </trkpt>
      <trkpt lat="46.95936" lon="8.7412">
        <ele>1165</ele>
        <time>2021-08-06T10:06:38.355Z</time>
      </trkpt>
      <trkpt lat="46.95936" lon="8.74119">
        <ele>1165</ele>
        <time>2021-08-06T10:06:39.354Z</time>
      </trkpt>
      <trkpt lat="46.95936" lon="8.74118">
        <ele>1165</ele>
        <time>2021-08-06T10:06:40.354Z</time>
      </trkpt>
      <trkpt lat="46.95936" lon="8.74116">
        <ele>1165</ele>
        <time>2021-08-06T10:06:41.354Z</time>
      </trkpt>
      <trkpt lat="46.95935" lon="8.74114">
        <ele>1165</ele>
        <time>2021-08-06T10:06:42.354Z</time>
      </trkpt>
      <trkpt lat="46.95935" lon="8.74112">
        <ele>1165</ele>
        <time>2021-08-06T10:06:43.354Z</time>
      </trkpt>
      <trkpt lat="46.95935" lon="8.74109">
        <ele>1165</ele>
        <time>2021-08-06T10:06:44.355Z</time>
      </trkpt>
      <trkpt lat="46.95935" lon="8.74107">
        <ele>1165</ele>
        <time>2021-08-06T10:06:45.354Z</time>
      </trkpt>
      <trkpt lat="46.95936" lon="8.74106">
        <ele>1165</ele>
        <time>2021-08-06T10:06:46.354Z</time>
      </trkpt>
      <trkpt lat="46.95936" lon="8.74104">
        <ele>1166</ele>
        <time>2021-08-06T10:06:47.354Z</time>
      </trkpt>
      <trkpt lat="46.95935" lon="8.74102">
        <ele>1166</ele>
        <time>2021-08-06T10:06:48.354Z</time>
      </trkpt>
      <trkpt lat="46.95935" lon="8.74101">
        <ele>1167</ele>
        <time>2021-08-06T10:06:49.355Z</time>
      </trkpt>
      <trkpt lat="46.95936" lon="8.74099">
        <ele>1167</ele>
        <time>2021-08-06T10:06:50.355Z</time>
      </trkpt>
      <trkpt lat="46.95935" lon="8.74098">
        <ele>1168</ele>
        <time>2021-08-06T10:06:51.354Z</time>
      </trkpt>
      <trkpt lat="46.95935" lon="8.74097">
        <ele>1168</ele>
        <time>2021-08-06T10:06:52.355Z</time>
      </trkpt>
      <trkpt lat="46.95935" lon="8.74095">
        <ele>1169</ele>
        <time>2021-08-06T10:06:53.355Z</time>
      </trkpt>
      <trkpt lat="46.95936" lon="8.74093">
        <ele>1169</ele>
        <time>2021-08-06T10:06:54.355Z</time>
      </trkpt>
      <trkpt lat="46.95936" lon="8.74092">
        <ele>1170</ele>
        <time>2021-08-06T10:06:55.355Z</time>
      </trkpt>
      <trkpt lat="46.95935" lon="8.7409">
        <ele>1171</ele>
        <time>2021-08-06T10:06:56.355Z</time>
      </trkpt>
      <trkpt lat="46.95934" lon="8.74088">
        <ele>1172</ele>
        <time>2021-08-06T10:06:57.355Z</time>
      </trkpt>
      <trkpt lat="46.95932" lon="8.74086">
        <ele>1172</ele>
        <time>2021-08-06T10:06:58.355Z</time>
      </trkpt>
      <trkpt lat="46.9593" lon="8.74084">
        <ele>1173</ele>
        <time>2021-08-06T10:06:59.355Z</time>
      </trkpt>
      <trkpt lat="46.9593" lon="8.74082">
        <ele>1174</ele>
        <time>2021-08-06T10:07:00.355Z</time>
      </trkpt>
      <trkpt lat="46.95929" lon="8.7408">
        <ele>1175</ele>
        <time>2021-08-06T10:07:01.355Z</time>
      </trkpt>
      <trkpt lat="46.95928" lon="8.74079">
        <ele>1175</ele>
        <time>2021-08-06T10:07:02.355Z</time>
      </trkpt>
      <trkpt lat="46.95928" lon="8.74078">
        <ele>1176</ele>
        <time>2021-08-06T10:07:03.354Z</time>
      </trkpt>
      <trkpt lat="46.95928" lon="8.74076">
        <ele>1176</ele>
        <time>2021-08-06T10:07:04.354Z</time>
      </trkpt>
      <trkpt lat="46.95928" lon="8.74075">
        <ele>1177</ele>
        <time>2021-08-06T10:07:05.355Z</time>
      </trkpt>
      <trkpt lat="46.95927" lon="8.74073">
        <ele>1177</ele>
        <time>2021-08-06T10:07:06.354Z</time>
      </trkpt>
      <trkpt lat="46.95927" lon="8.74073">
        <ele>1177</ele>
        <time>2021-08-06T10:07:07.355Z</time>
      </trkpt>
      <trkpt lat="46.95926" lon="8.74072">
        <ele>1177</ele>
        <time>2021-08-06T10:07:08.354Z</time>
      </trkpt>
      <trkpt lat="46.95926" lon="8.74072">
        <ele>1177</ele>
        <time>2021-08-06T10:07:09.354Z</time>
      </trkpt>
      <trkpt lat="46.95926" lon="8.74071">
        <ele>1177</ele>
        <time>2021-08-06T10:07:10.355Z</time>
      </trkpt>
      <trkpt lat="46.95926" lon="8.7407">
        <ele>1177</ele>
        <time>2021-08-06T10:07:11.354Z</time>
      </trkpt>
      <trkpt lat="46.95925" lon="8.7407">
        <ele>1177</ele>
        <time>2021-08-06T10:07:12.354Z</time>
      </trkpt>
      <trkpt lat="46.95924" lon="8.74069">
        <ele>1177</ele>
        <time>2021-08-06T10:07:13.354Z</time>
      </trkpt>
      <trkpt lat="46.95922" lon="8.74069">
        <ele>1176</ele>
        <time>2021-08-06T10:07:14.355Z</time>
      </trkpt>
      <trkpt lat="46.95922" lon="8.74068">
        <ele>1176</ele>
        <time>2021-08-06T10:07:15.355Z</time>
      </trkpt>
      <trkpt lat="46.95922" lon="8.74066">
        <ele>1176</ele>
        <time>2021-08-06T10:07:16.355Z</time>
      </trkpt>
      <trkpt lat="46.95922" lon="8.74065">
        <ele>1176</ele>
        <time>2021-08-06T10:07:17.355Z</time>
      </trkpt>
      <trkpt lat="46.95922" lon="8.74064">
        <ele>1175</ele>
        <time>2021-08-06T10:07:18.354Z</time>
      </trkpt>
      <trkpt lat="46.95923" lon="8.74062">
        <ele>1175</ele>
        <time>2021-08-06T10:07:19.355Z</time>
      </trkpt>
      <trkpt lat="46.95924" lon="8.7406">
        <ele>1175</ele>
        <time>2021-08-06T10:07:20.355Z</time>
      </trkpt>
      <trkpt lat="46.95924" lon="8.74059">
        <ele>1175</ele>
        <time>2021-08-06T10:07:21.355Z</time>
      </trkpt>
      <trkpt lat="46.95924" lon="8.74058">
        <ele>1175</ele>
        <time>2021-08-06T10:07:22.355Z</time>
      </trkpt>
      <trkpt lat="46.95925" lon="8.74056">
        <ele>1175</ele>
        <time>2021-08-06T10:07:23.355Z</time>
      </trkpt>
      <trkpt lat="46.95925" lon="8.74054">
        <ele>1175</ele>
        <time>2021-08-06T10:07:24.354Z</time>
      </trkpt>
      <trkpt lat="46.95925" lon="8.74053">
        <ele>1175</ele>
        <time>2021-08-06T10:07:25.355Z</time>
      </trkpt>
      <trkpt lat="46.95924" lon="8.74052">
        <ele>1174</ele>
        <time>2021-08-06T10:07:26.354Z</time>
      </trkpt>
      <trkpt lat="46.95924" lon="8.74051">
        <ele>1174</ele>
        <time>2021-08-06T10:07:27.354Z</time>
      </trkpt>
      <trkpt lat="46.95922" lon="8.74051">
        <ele>1173</ele>
        <time>2021-08-06T10:07:28.354Z</time>
      </trkpt>
      <trkpt lat="46.9592" lon="8.74051">
        <ele>1173</ele>
        <time>2021-08-06T10:07:29.354Z</time>
      </trkpt>
      <trkpt lat="46.95919" lon="8.74051">
        <ele>1172</ele>
        <time>2021-08-06T10:07:30.355Z</time>
      </trkpt>
      <trkpt lat="46.95918" lon="8.7405">
        <ele>1171</ele>
        <time>2021-08-06T10:07:31.354Z</time>
      </trkpt>
      <trkpt lat="46.95917" lon="8.7405">
        <ele>1171</ele>
        <time>2021-08-06T10:07:32.355Z</time>
      </trkpt>
      <trkpt lat="46.95917" lon="8.74048">
        <ele>1170</ele>
        <time>2021-08-06T10:07:33.354Z</time>
      </trkpt>
      <trkpt lat="46.95917" lon="8.74047">
        <ele>1169</ele>
        <time>2021-08-06T10:07:34.354Z</time>
      </trkpt>
      <trkpt lat="46.95916" lon="8.74045">
        <ele>1168</ele>
        <time>2021-08-06T10:07:35.355Z</time>
      </trkpt>
      <trkpt lat="46.95915" lon="8.74044">
        <ele>1167</ele>
        <time>2021-08-06T10:07:36.355Z</time>
      </trkpt>
      <trkpt lat="46.95915" lon="8.74043">
        <ele>1167</ele>
        <time>2021-08-06T10:07:37.355Z</time>
      </trkpt>
      <trkpt lat="46.95916" lon="8.74042">
        <ele>1167</ele>
        <time>2021-08-06T10:07:38.354Z</time>
      </trkpt>
      <trkpt lat="46.95916" lon="8.7404">
        <ele>1166</ele>
        <time>2021-08-06T10:07:39.355Z</time>
      </trkpt>
      <trkpt lat="46.95916" lon="8.74038">
        <ele>1167</ele>
        <time>2021-08-06T10:07:40.354Z</time>
      </trkpt>
      <trkpt lat="46.95916" lon="8.74037">
        <ele>1167</ele>
        <time>2021-08-06T10:07:41.354Z</time>
      </trkpt>
      <trkpt lat="46.95916" lon="8.74035">
        <ele>1167</ele>
        <time>2021-08-06T10:07:42.354Z</time>
      </trkpt>
      <trkpt lat="46.95915" lon="8.74034">
        <ele>1167</ele>
        <time>2021-08-06T10:07:43.354Z</time>
      </trkpt>
      <trkpt lat="46.95914" lon="8.74033">
        <ele>1167</ele>
        <time>2021-08-06T10:07:44.355Z</time>
      </trkpt>
      <trkpt lat="46.95913" lon="8.74032">
        <ele>1168</ele>
        <time>2021-08-06T10:07:45.355Z</time>
      </trkpt>
      <trkpt lat="46.95913" lon="8.7403">
        <ele>1168</ele>
        <time>2021-08-06T10:07:46.355Z</time>
      </trkpt>
      <trkpt lat="46.95912" lon="8.74029">
        <ele>1169</ele>
        <time>2021-08-06T10:07:47.355Z</time>
      </trkpt>
      <trkpt lat="46.95911" lon="8.74028">
        <ele>1169</ele>
        <time>2021-08-06T10:07:48.355Z</time>
      </trkpt>
      <trkpt lat="46.9591" lon="8.74027">
        <ele>1169</ele>
        <time>2021-08-06T10:07:49.355Z</time>
      </trkpt>
      <trkpt lat="46.95909" lon="8.74026">
        <ele>1170</ele>
        <time>2021-08-06T10:07:50.355Z</time>
      </trkpt>
      <trkpt lat="46.95908" lon="8.74025">
        <ele>1170</ele>
        <time>2021-08-06T10:07:51.355Z</time>
      </trkpt>
      <trkpt lat="46.95908" lon="8.74024">
        <ele>1171</ele>
        <time>2021-08-06T10:07:52.355Z</time>
      </trkpt>
      <trkpt lat="46.95907" lon="8.74022">
        <ele>1172</ele>
        <time>2021-08-06T10:07:53.355Z</time>
      </trkpt>
      <trkpt lat="46.95906" lon="8.74022">
        <ele>1172</ele>
        <time>2021-08-06T10:07:54.354Z</time>
      </trkpt>
      <trkpt lat="46.95905" lon="8.74021">
        <ele>1172</ele>
        <time>2021-08-06T10:07:55.355Z</time>
      </trkpt>
      <trkpt lat="46.95904" lon="8.7402">
        <ele>1173</ele>
        <time>2021-08-06T10:07:56.355Z</time>
      </trkpt>
      <trkpt lat="46.95903" lon="8.74019">
        <ele>1173</ele>
        <time>2021-08-06T10:07:57.355Z</time>
      </trkpt>
      <trkpt lat="46.95902" lon="8.74019">
        <ele>1173</ele>
        <time>2021-08-06T10:07:58.355Z</time>
      </trkpt>
      <trkpt lat="46.95902" lon="8.74017">
        <ele>1174</ele>
        <time>2021-08-06T10:07:59.354Z</time>
      </trkpt>
      <trkpt lat="46.95901" lon="8.74016">
        <ele>1174</ele>
        <time>2021-08-06T10:08:00.355Z</time>
      </trkpt>
      <trkpt lat="46.959" lon="8.74016">
        <ele>1174</ele>
        <time>2021-08-06T10:08:01.354Z</time>
      </trkpt>
      <trkpt lat="46.95897" lon="8.74015">
        <ele>1174</ele>
        <time>2021-08-06T10:08:02.355Z</time>
      </trkpt>
      <trkpt lat="46.95895" lon="8.74015">
        <ele>1174</ele>
        <time>2021-08-06T10:08:03.355Z</time>
      </trkpt>
      <trkpt lat="46.95894" lon="8.74014">
        <ele>1174</ele>
        <time>2021-08-06T10:08:04.355Z</time>
      </trkpt>
      <trkpt lat="46.95893" lon="8.74013">
        <ele>1173</ele>
        <time>2021-08-06T10:08:05.355Z</time>
      </trkpt>
      <trkpt lat="46.95893" lon="8.74012">
        <ele>1173</ele>
        <time>2021-08-06T10:08:06.354Z</time>
      </trkpt>
      <trkpt lat="46.95894" lon="8.7401">
        <ele>1173</ele>
        <time>2021-08-06T10:08:07.355Z</time>
      </trkpt>
      <trkpt lat="46.95893" lon="8.74009">
        <ele>1174</ele>
        <time>2021-08-06T10:08:08.355Z</time>
      </trkpt>
      <trkpt lat="46.95892" lon="8.74008">
        <ele>1174</ele>
        <time>2021-08-06T10:08:09.354Z</time>
      </trkpt>
      <trkpt lat="46.95891" lon="8.74008">
        <ele>1174</ele>
        <time>2021-08-06T10:08:10.355Z</time>
      </trkpt>
      <trkpt lat="46.95891" lon="8.74008">
        <ele>1174</ele>
        <time>2021-08-06T10:08:11.354Z</time>
      </trkpt>
      <trkpt lat="46.9589" lon="8.74007">
        <ele>1174</ele>
        <time>2021-08-06T10:08:12.355Z</time>
      </trkpt>
      <trkpt lat="46.9589" lon="8.74007">
        <ele>1174</ele>
        <time>2021-08-06T10:08:13.355Z</time>
      </trkpt>
      <trkpt lat="46.95888" lon="8.74007">
        <ele>1174</ele>
        <time>2021-08-06T10:08:14.355Z</time>
      </trkpt>
      <trkpt lat="46.95887" lon="8.74006">
        <ele>1174</ele>
        <time>2021-08-06T10:08:15.355Z</time>
      </trkpt>
      <trkpt lat="46.95886" lon="8.74006">
        <ele>1174</ele>
        <time>2021-08-06T10:08:16.355Z</time>
      </trkpt>
      <trkpt lat="46.95886" lon="8.74005">
        <ele>1175</ele>
        <time>2021-08-06T10:08:17.354Z</time>
      </trkpt>
      <trkpt lat="46.95886" lon="8.74004">
        <ele>1175</ele>
        <time>2021-08-06T10:08:18.354Z</time>
      </trkpt>
      <trkpt lat="46.95884" lon="8.74003">
        <ele>1176</ele>
        <time>2021-08-06T10:08:19.355Z</time>
      </trkpt>
      <trkpt lat="46.95883" lon="8.74002">
        <ele>1176</ele>
        <time>2021-08-06T10:08:20.355Z</time>
      </trkpt>
      <trkpt lat="46.95882" lon="8.74001">
        <ele>1177</ele>
        <time>2021-08-06T10:08:21.354Z</time>
      </trkpt>
      <trkpt lat="46.95881" lon="8.74001">
        <ele>1177</ele>
        <time>2021-08-06T10:08:22.354Z</time>
      </trkpt>
      <trkpt lat="46.9588" lon="8.74001">
        <ele>1177</ele>
        <time>2021-08-06T10:08:23.355Z</time>
      </trkpt>
      <trkpt lat="46.95878" lon="8.74001">
        <ele>1176</ele>
        <time>2021-08-06T10:08:24.354Z</time>
      </trkpt>
      <trkpt lat="46.95877" lon="8.74">
        <ele>1176</ele>
        <time>2021-08-06T10:08:25.355Z</time>
      </trkpt>
      <trkpt lat="46.95877" lon="8.73999">
        <ele>1175</ele>
        <time>2021-08-06T10:08:26.354Z</time>
      </trkpt>
      <trkpt lat="46.95876" lon="8.73998">
        <ele>1175</ele>
        <time>2021-08-06T10:08:27.355Z</time>
      </trkpt>
      <trkpt lat="46.95876" lon="8.73997">
        <ele>1175</ele>
        <time>2021-08-06T10:08:28.355Z</time>
      </trkpt>
      <trkpt lat="46.95875" lon="8.73996">
        <ele>1175</ele>
        <time>2021-08-06T10:08:29.355Z</time>
      </trkpt>
      <trkpt lat="46.95874" lon="8.73996">
        <ele>1175</ele>
        <time>2021-08-06T10:08:30.355Z</time>
      </trkpt>
      <trkpt lat="46.95874" lon="8.73995">
        <ele>1175</ele>
        <time>2021-08-06T10:08:31.355Z</time>
      </trkpt>
      <trkpt lat="46.95873" lon="8.73994">
        <ele>1175</ele>
        <time>2021-08-06T10:08:32.355Z</time>
      </trkpt>
      <trkpt lat="46.95871" lon="8.73994">
        <ele>1175</ele>
        <time>2021-08-06T10:08:33.355Z</time>
      </trkpt>
      <trkpt lat="46.9587" lon="8.73994">
        <ele>1175</ele>
        <time>2021-08-06T10:08:34.354Z</time>
      </trkpt>
      <trkpt lat="46.95869" lon="8.73993">
        <ele>1175</ele>
        <time>2021-08-06T10:08:35.354Z</time>
      </trkpt>
      <trkpt lat="46.95868" lon="8.73992">
        <ele>1175</ele>
        <time>2021-08-06T10:08:36.354Z</time>
      </trkpt>
      <trkpt lat="46.95868" lon="8.73992">
        <ele>1175</ele>
        <time>2021-08-06T10:08:37.354Z</time>
      </trkpt>
      <trkpt lat="46.95867" lon="8.73991">
        <ele>1175</ele>
        <time>2021-08-06T10:08:38.355Z</time>
      </trkpt>
      <trkpt lat="46.95867" lon="8.73991">
        <ele>1175</ele>
        <time>2021-08-06T10:08:39.355Z</time>
      </trkpt>
      <trkpt lat="46.95865" lon="8.7399">
        <ele>1175</ele>
        <time>2021-08-06T10:08:40.355Z</time>
      </trkpt>
      <trkpt lat="46.95864" lon="8.7399">
        <ele>1175</ele>
        <time>2021-08-06T10:08:41.355Z</time>
      </trkpt>
      <trkpt lat="46.95863" lon="8.73989">
        <ele>1175</ele>
        <time>2021-08-06T10:08:42.354Z</time>
      </trkpt>
      <trkpt lat="46.95862" lon="8.73989">
        <ele>1175</ele>
        <time>2021-08-06T10:08:43.355Z</time>
      </trkpt>
      <trkpt lat="46.95861" lon="8.73988">
        <ele>1175</ele>
        <time>2021-08-06T10:08:44.355Z</time>
      </trkpt>
      <trkpt lat="46.95861" lon="8.73988">
        <ele>1175</ele>
        <time>2021-08-06T10:08:45.354Z</time>
      </trkpt>
      <trkpt lat="46.95862" lon="8.73987">
        <ele>1175</ele>
        <time>2021-08-06T10:08:46.354Z</time>
      </trkpt>
      <trkpt lat="46.95862" lon="8.73985">
        <ele>1175</ele>
        <time>2021-08-06T10:08:47.354Z</time>
      </trkpt>
      <trkpt lat="46.95861" lon="8.73984">
        <ele>1175</ele>
        <time>2021-08-06T10:08:48.354Z</time>
      </trkpt>
      <trkpt lat="46.95861" lon="8.73983">
        <ele>1175</ele>
        <time>2021-08-06T10:08:49.354Z</time>
      </trkpt>
      <trkpt lat="46.95861" lon="8.73982">
        <ele>1174</ele>
        <time>2021-08-06T10:08:50.354Z</time>
      </trkpt>
      <trkpt lat="46.95861" lon="8.7398">
        <ele>1174</ele>
        <time>2021-08-06T10:08:51.354Z</time>
      </trkpt>
      <trkpt lat="46.95861" lon="8.73979">
        <ele>1174</ele>
        <time>2021-08-06T10:08:52.354Z</time>
      </trkpt>
      <trkpt lat="46.95861" lon="8.73978">
        <ele>1174</ele>
        <time>2021-08-06T10:08:53.354Z</time>
      </trkpt>
      <trkpt lat="46.95861" lon="8.73977">
        <ele>1174</ele>
        <time>2021-08-06T10:08:54.354Z</time>
      </trkpt>
      <trkpt lat="46.9586" lon="8.73976">
        <ele>1174</ele>
        <time>2021-08-06T10:08:55.355Z</time>
      </trkpt>
      <trkpt lat="46.95859" lon="8.73976">
        <ele>1174</ele>
        <time>2021-08-06T10:08:56.355Z</time>
      </trkpt>
      <trkpt lat="46.95859" lon="8.73975">
        <ele>1175</ele>
        <time>2021-08-06T10:08:57.354Z</time>
      </trkpt>
      <trkpt lat="46.95858" lon="8.73974">
        <ele>1175</ele>
        <time>2021-08-06T10:08:58.355Z</time>
      </trkpt>
      <trkpt lat="46.95858" lon="8.73973">
        <ele>1176</ele>
        <time>2021-08-06T10:08:59.354Z</time>
      </trkpt>
      <trkpt lat="46.95858" lon="8.73972">
        <ele>1176</ele>
        <time>2021-08-06T10:09:00.355Z</time>
      </trkpt>
      <trkpt lat="46.95858" lon="8.73971">
        <ele>1177</ele>
        <time>2021-08-06T10:09:01.355Z</time>
      </trkpt>
      <trkpt lat="46.95858" lon="8.73971">
        <ele>1177</ele>
        <time>2021-08-06T10:09:02.354Z</time>
      </trkpt>
      <trkpt lat="46.95858" lon="8.7397">
        <ele>1178</ele>
        <time>2021-08-06T10:09:03.355Z</time>
      </trkpt>
      <trkpt lat="46.95858" lon="8.73969">
        <ele>1178</ele>
        <time>2021-08-06T10:09:04.355Z</time>
      </trkpt>
      <trkpt lat="46.95858" lon="8.73968">
        <ele>1179</ele>
        <time>2021-08-06T10:09:05.354Z</time>
      </trkpt>
      <trkpt lat="46.95857" lon="8.73967">
        <ele>1180</ele>
        <time>2021-08-06T10:09:06.354Z</time>
      </trkpt>
      <trkpt lat="46.95857" lon="8.73966">
        <ele>1180</ele>
        <time>2021-08-06T10:09:07.355Z</time>
      </trkpt>
      <trkpt lat="46.95857" lon="8.73965">
        <ele>1181</ele>
        <time>2021-08-06T10:09:08.354Z</time>
      </trkpt>
      <trkpt lat="46.95856" lon="8.73964">
        <ele>1181</ele>
        <time>2021-08-06T10:09:09.354Z</time>
      </trkpt>
      <trkpt lat="46.95854" lon="8.73964">
        <ele>1182</ele>
        <time>2021-08-06T10:09:10.354Z</time>
      </trkpt>
      <trkpt lat="46.95853" lon="8.73963">
        <ele>1182</ele>
        <time>2021-08-06T10:09:11.354Z</time>
      </trkpt>
      <trkpt lat="46.95854" lon="8.73962">
        <ele>1182</ele>
        <time>2021-08-06T10:09:12.354Z</time>
      </trkpt>
      <trkpt lat="46.95854" lon="8.73961">
        <ele>1183</ele>
        <time>2021-08-06T10:09:13.354Z</time>
      </trkpt>
      <trkpt lat="46.95854" lon="8.7396">
        <ele>1183</ele>
        <time>2021-08-06T10:09:14.354Z</time>
      </trkpt>
      <trkpt lat="46.95855" lon="8.73959">
        <ele>1184</ele>
        <time>2021-08-06T10:09:15.354Z</time>
      </trkpt>
      <trkpt lat="46.95854" lon="8.73958">
        <ele>1185</ele>
        <time>2021-08-06T10:09:16.354Z</time>
      </trkpt>
      <trkpt lat="46.95854" lon="8.73958">
        <ele>1185</ele>
        <time>2021-08-06T10:09:17.355Z</time>
      </trkpt>
      <trkpt lat="46.95853" lon="8.73957">
        <ele>1185</ele>
        <time>2021-08-06T10:09:18.355Z</time>
      </trkpt>
      <trkpt lat="46.95852" lon="8.73956">
        <ele>1185</ele>
        <time>2021-08-06T10:09:19.354Z</time>
      </trkpt>
      <trkpt lat="46.95852" lon="8.73955">
        <ele>1186</ele>
        <time>2021-08-06T10:09:20.355Z</time>
      </trkpt>
      <trkpt lat="46.95852" lon="8.73954">
        <ele>1186</ele>
        <time>2021-08-06T10:09:21.355Z</time>
      </trkpt>
      <trkpt lat="46.95851" lon="8.73953">
        <ele>1186</ele>
        <time>2021-08-06T10:09:22.355Z</time>
      </trkpt>
      <trkpt lat="46.9585" lon="8.73952">
        <ele>1186</ele>
        <time>2021-08-06T10:09:23.354Z</time>
      </trkpt>
      <trkpt lat="46.95849" lon="8.73952">
        <ele>1186</ele>
        <time>2021-08-06T10:09:24.355Z</time>
      </trkpt>
      <trkpt lat="46.95848" lon="8.73951">
        <ele>1185</ele>
        <time>2021-08-06T10:09:25.354Z</time>
      </trkpt>
      <trkpt lat="46.95848" lon="8.7395">
        <ele>1185</ele>
        <time>2021-08-06T10:09:26.355Z</time>
      </trkpt>
      <trkpt lat="46.95848" lon="8.73949">
        <ele>1185</ele>
        <time>2021-08-06T10:09:27.354Z</time>
      </trkpt>
      <trkpt lat="46.95848" lon="8.73948">
        <ele>1185</ele>
        <time>2021-08-06T10:09:28.354Z</time>
      </trkpt>
      <trkpt lat="46.95848" lon="8.73947">
        <ele>1185</ele>
        <time>2021-08-06T10:09:29.355Z</time>
      </trkpt>
      <trkpt lat="46.95848" lon="8.73946">
        <ele>1185</ele>
        <time>2021-08-06T10:09:30.355Z</time>
      </trkpt>
      <trkpt lat="46.95847" lon="8.73945">
        <ele>1185</ele>
        <time>2021-08-06T10:09:31.354Z</time>
      </trkpt>
      <trkpt lat="46.95847" lon="8.73944">
        <ele>1186</ele>
        <time>2021-08-06T10:09:32.355Z</time>
      </trkpt>
      <trkpt lat="46.95846" lon="8.73944">
        <ele>1186</ele>
        <time>2021-08-06T10:09:33.354Z</time>
      </trkpt>
      <trkpt lat="46.95846" lon="8.73943">
        <ele>1186</ele>
        <time>2021-08-06T10:09:34.355Z</time>
      </trkpt>
      <trkpt lat="46.95846" lon="8.73941">
        <ele>1187</ele>
        <time>2021-08-06T10:09:35.354Z</time>
      </trkpt>
      <trkpt lat="46.95846" lon="8.7394">
        <ele>1187</ele>
        <time>2021-08-06T10:09:36.355Z</time>
      </trkpt>
      <trkpt lat="46.95846" lon="8.73939">
        <ele>1188</ele>
        <time>2021-08-06T10:09:37.354Z</time>
      </trkpt>
      <trkpt lat="46.95846" lon="8.73939">
        <ele>1189</ele>
        <time>2021-08-06T10:09:38.355Z</time>
      </trkpt>
      <trkpt lat="46.95846" lon="8.73937">
        <ele>1190</ele>
        <time>2021-08-06T10:09:39.354Z</time>
      </trkpt>
      <trkpt lat="46.95845" lon="8.73937">
        <ele>1191</ele>
        <time>2021-08-06T10:09:40.355Z</time>
      </trkpt>
      <trkpt lat="46.95844" lon="8.73936">
        <ele>1192</ele>
        <time>2021-08-06T10:09:41.355Z</time>
      </trkpt>
      <trkpt lat="46.95844" lon="8.73935">
        <ele>1192</ele>
        <time>2021-08-06T10:09:42.354Z</time>
      </trkpt>
      <trkpt lat="46.95843" lon="8.73933">
        <ele>1192</ele>
        <time>2021-08-06T10:09:43.355Z</time>
      </trkpt>
      <trkpt lat="46.95843" lon="8.73932">
        <ele>1192</ele>
        <time>2021-08-06T10:09:44.355Z</time>
      </trkpt>
      <trkpt lat="46.95842" lon="8.73931">
        <ele>1192</ele>
        <time>2021-08-06T10:09:45.355Z</time>
      </trkpt>
      <trkpt lat="46.95841" lon="8.7393">
        <ele>1193</ele>
        <time>2021-08-06T10:09:46.354Z</time>
      </trkpt>
      <trkpt lat="46.95841" lon="8.73929">
        <ele>1193</ele>
        <time>2021-08-06T10:09:47.355Z</time>
      </trkpt>
      <trkpt lat="46.9584" lon="8.73928">
        <ele>1193</ele>
        <time>2021-08-06T10:09:48.355Z</time>
      </trkpt>
      <trkpt lat="46.9584" lon="8.73927">
        <ele>1193</ele>
        <time>2021-08-06T10:09:49.354Z</time>
      </trkpt>
      <trkpt lat="46.9584" lon="8.73926">
        <ele>1193</ele>
        <time>2021-08-06T10:09:50.355Z</time>
      </trkpt>
      <trkpt lat="46.9584" lon="8.73925">
        <ele>1193</ele>
        <time>2021-08-06T10:09:51.354Z</time>
      </trkpt>
      <trkpt lat="46.9584" lon="8.73924">
        <ele>1193</ele>
        <time>2021-08-06T10:09:52.355Z</time>
      </trkpt>
      <trkpt lat="46.95839" lon="8.73923">
        <ele>1192</ele>
        <time>2021-08-06T10:09:53.355Z</time>
      </trkpt>
      <trkpt lat="46.95839" lon="8.73922">
        <ele>1192</ele>
        <time>2021-08-06T10:09:54.355Z</time>
      </trkpt>
      <trkpt lat="46.95838" lon="8.73922">
        <ele>1192</ele>
        <time>2021-08-06T10:09:55.355Z</time>
      </trkpt>
      <trkpt lat="46.95837" lon="8.73922">
        <ele>1192</ele>
        <time>2021-08-06T10:09:56.354Z</time>
      </trkpt>
      <trkpt lat="46.95836" lon="8.73921">
        <ele>1192</ele>
        <time>2021-08-06T10:09:57.355Z</time>
      </trkpt>
      <trkpt lat="46.95834" lon="8.73921">
        <ele>1192</ele>
        <time>2021-08-06T10:09:58.355Z</time>
      </trkpt>
      <trkpt lat="46.95834" lon="8.7392">
        <ele>1191</ele>
        <time>2021-08-06T10:09:59.355Z</time>
      </trkpt>
      <trkpt lat="46.95834" lon="8.73919">
        <ele>1191</ele>
        <time>2021-08-06T10:10:00.354Z</time>
      </trkpt>
      <trkpt lat="46.95834" lon="8.73918">
        <ele>1191</ele>
        <time>2021-08-06T10:10:01.355Z</time>
      </trkpt>
      <trkpt lat="46.95833" lon="8.73917">
        <ele>1191</ele>
        <time>2021-08-06T10:10:02.354Z</time>
      </trkpt>
      <trkpt lat="46.95833" lon="8.73915">
        <ele>1191</ele>
        <time>2021-08-06T10:10:03.355Z</time>
      </trkpt>
      <trkpt lat="46.95832" lon="8.73914">
        <ele>1191</ele>
        <time>2021-08-06T10:10:04.354Z</time>
      </trkpt>
      <trkpt lat="46.95833" lon="8.73913">
        <ele>1191</ele>
        <time>2021-08-06T10:10:05.355Z</time>
      </trkpt>
      <trkpt lat="46.95833" lon="8.73912">
        <ele>1191</ele>
        <time>2021-08-06T10:10:06.355Z</time>
      </trkpt>
      <trkpt lat="46.95833" lon="8.73911">
        <ele>1191</ele>
        <time>2021-08-06T10:10:07.354Z</time>
      </trkpt>
      <trkpt lat="46.95833" lon="8.73909">
        <ele>1191</ele>
        <time>2021-08-06T10:10:08.355Z</time>
      </trkpt>
      <trkpt lat="46.95833" lon="8.73908">
        <ele>1191</ele>
        <time>2021-08-06T10:10:09.354Z</time>
      </trkpt>
      <trkpt lat="46.95832" lon="8.73907">
        <ele>1191</ele>
        <time>2021-08-06T10:10:10.355Z</time>
      </trkpt>
      <trkpt lat="46.95831" lon="8.73907">
        <ele>1191</ele>
        <time>2021-08-06T10:10:11.355Z</time>
      </trkpt>
      <trkpt lat="46.9583" lon="8.73907">
        <ele>1191</ele>
        <time>2021-08-06T10:10:12.354Z</time>
      </trkpt>
      <trkpt lat="46.95829" lon="8.73907">
        <ele>1190</ele>
        <time>2021-08-06T10:10:13.354Z</time>
      </trkpt>
      <trkpt lat="46.95828" lon="8.73907">
        <ele>1190</ele>
        <time>2021-08-06T10:10:14.355Z</time>
      </trkpt>
      <trkpt lat="46.95828" lon="8.73907">
        <ele>1190</ele>
        <time>2021-08-06T10:10:15.355Z</time>
      </trkpt>
      <trkpt lat="46.95828" lon="8.73906">
        <ele>1189</ele>
        <time>2021-08-06T10:10:16.355Z</time>
      </trkpt>
      <trkpt lat="46.95828" lon="8.73905">
        <ele>1189</ele>
        <time>2021-08-06T10:10:17.355Z</time>
      </trkpt>
      <trkpt lat="46.95829" lon="8.73904">
        <ele>1189</ele>
        <time>2021-08-06T10:10:18.354Z</time>
      </trkpt>
      <trkpt lat="46.9583" lon="8.73902">
        <ele>1189</ele>
        <time>2021-08-06T10:10:19.354Z</time>
      </trkpt>
      <trkpt lat="46.9583" lon="8.739">
        <ele>1189</ele>
        <time>2021-08-06T10:10:20.354Z</time>
      </trkpt>
      <trkpt lat="46.95829" lon="8.73898">
        <ele>1189</ele>
        <time>2021-08-06T10:10:21.354Z</time>
      </trkpt>
      <trkpt lat="46.95828" lon="8.73897">
        <ele>1189</ele>
        <time>2021-08-06T10:10:22.354Z</time>
      </trkpt>
      <trkpt lat="46.95827" lon="8.73895">
        <ele>1189</ele>
        <time>2021-08-06T10:10:23.354Z</time>
      </trkpt>
      <trkpt lat="46.95826" lon="8.73893">
        <ele>1189</ele>
        <time>2021-08-06T10:10:24.355Z</time>
      </trkpt>
      <trkpt lat="46.95824" lon="8.73892">
        <ele>1189</ele>
        <time>2021-08-06T10:10:25.354Z</time>
      </trkpt>
      <trkpt lat="46.95823" lon="8.7389">
        <ele>1189</ele>
        <time>2021-08-06T10:10:26.355Z</time>
      </trkpt>
      <trkpt lat="46.95822" lon="8.73889">
        <ele>1189</ele>
        <time>2021-08-06T10:10:27.355Z</time>
      </trkpt>
      <trkpt lat="46.95821" lon="8.73887">
        <ele>1189</ele>
        <time>2021-08-06T10:10:28.355Z</time>
      </trkpt>
      <trkpt lat="46.95821" lon="8.73886">
        <ele>1189</ele>
        <time>2021-08-06T10:10:29.355Z</time>
      </trkpt>
      <trkpt lat="46.9582" lon="8.73884">
        <ele>1189</ele>
        <time>2021-08-06T10:10:30.355Z</time>
      </trkpt>
      <trkpt lat="46.9582" lon="8.73883">
        <ele>1190</ele>
        <time>2021-08-06T10:10:31.355Z</time>
      </trkpt>
      <trkpt lat="46.9582" lon="8.73881">
        <ele>1190</ele>
        <time>2021-08-06T10:10:32.355Z</time>
      </trkpt>
      <trkpt lat="46.9582" lon="8.73879">
        <ele>1190</ele>
        <time>2021-08-06T10:10:33.355Z</time>
      </trkpt>
      <trkpt lat="46.9582" lon="8.73877">
        <ele>1191</ele>
        <time>2021-08-06T10:10:34.355Z</time>
      </trkpt>
      <trkpt lat="46.95819" lon="8.73876">
        <ele>1191</ele>
        <time>2021-08-06T10:10:35.354Z</time>
      </trkpt>
      <trkpt lat="46.95818" lon="8.73874">
        <ele>1192</ele>
        <time>2021-08-06T10:10:36.355Z</time>
      </trkpt>
      <trkpt lat="46.95818" lon="8.73872">
        <ele>1192</ele>
        <time>2021-08-06T10:10:37.355Z</time>
      </trkpt>
      <trkpt lat="46.95817" lon="8.73871">
        <ele>1193</ele>
        <time>2021-08-06T10:10:38.355Z</time>
      </trkpt>
      <trkpt lat="46.95816" lon="8.73869">
        <ele>1193</ele>
        <time>2021-08-06T10:10:39.354Z</time>
      </trkpt>
      <trkpt lat="46.95815" lon="8.73867">
        <ele>1194</ele>
        <time>2021-08-06T10:10:40.354Z</time>
      </trkpt>
      <trkpt lat="46.95814" lon="8.73866">
        <ele>1194</ele>
        <time>2021-08-06T10:10:41.355Z</time>
      </trkpt>
      <trkpt lat="46.95814" lon="8.73865">
        <ele>1194</ele>
        <time>2021-08-06T10:10:42.354Z</time>
      </trkpt>
      <trkpt lat="46.95814" lon="8.73864">
        <ele>1195</ele>
        <time>2021-08-06T10:10:43.355Z</time>
      </trkpt>
      <trkpt lat="46.95813" lon="8.73863">
        <ele>1195</ele>
        <time>2021-08-06T10:10:44.354Z</time>
      </trkpt>
      <trkpt lat="46.95814" lon="8.73862">
        <ele>1195</ele>
        <time>2021-08-06T10:10:45.355Z</time>
      </trkpt>
      <trkpt lat="46.95814" lon="8.7386">
        <ele>1195</ele>
        <time>2021-08-06T10:10:46.354Z</time>
      </trkpt>
      <trkpt lat="46.95814" lon="8.73858">
        <ele>1195</ele>
        <time>2021-08-06T10:10:47.355Z</time>
      </trkpt>
      <trkpt lat="46.95813" lon="8.73857">
        <ele>1195</ele>
        <time>2021-08-06T10:10:48.355Z</time>
      </trkpt>
      <trkpt lat="46.95813" lon="8.73856">
        <ele>1195</ele>
        <time>2021-08-06T10:10:49.354Z</time>
      </trkpt>
      <trkpt lat="46.95811" lon="8.73855">
        <ele>1196</ele>
        <time>2021-08-06T10:10:50.355Z</time>
      </trkpt>
      <trkpt lat="46.9581" lon="8.73855">
        <ele>1196</ele>
        <time>2021-08-06T10:10:51.354Z</time>
      </trkpt>
      <trkpt lat="46.95808" lon="8.73853">
        <ele>1197</ele>
        <time>2021-08-06T10:10:52.354Z</time>
      </trkpt>
      <trkpt lat="46.95807" lon="8.73852">
        <ele>1197</ele>
        <time>2021-08-06T10:10:53.355Z</time>
      </trkpt>
      <trkpt lat="46.95807" lon="8.7385">
        <ele>1198</ele>
        <time>2021-08-06T10:10:54.354Z</time>
      </trkpt>
      <trkpt lat="46.95806" lon="8.73849">
        <ele>1198</ele>
        <time>2021-08-06T10:10:55.355Z</time>
      </trkpt>
      <trkpt lat="46.95805" lon="8.73847">
        <ele>1199</ele>
        <time>2021-08-06T10:10:56.354Z</time>
      </trkpt>
      <trkpt lat="46.95805" lon="8.73846">
        <ele>1199</ele>
        <time>2021-08-06T10:10:57.355Z</time>
      </trkpt>
      <trkpt lat="46.95804" lon="8.73844">
        <ele>1200</ele>
        <time>2021-08-06T10:10:58.355Z</time>
      </trkpt>
      <trkpt lat="46.95803" lon="8.73843">
        <ele>1200</ele>
        <time>2021-08-06T10:10:59.355Z</time>
      </trkpt>
      <trkpt lat="46.95802" lon="8.73843">
        <ele>1201</ele>
        <time>2021-08-06T10:11:00.355Z</time>
      </trkpt>
      <trkpt lat="46.958" lon="8.73842">
        <ele>1201</ele>
        <time>2021-08-06T10:11:01.355Z</time>
      </trkpt>
      <trkpt lat="46.95799" lon="8.73841">
        <ele>1201</ele>
        <time>2021-08-06T10:11:02.354Z</time>
      </trkpt>
      <trkpt lat="46.95798" lon="8.7384">
        <ele>1202</ele>
        <time>2021-08-06T10:11:03.355Z</time>
      </trkpt>
      <trkpt lat="46.95797" lon="8.73839">
        <ele>1202</ele>
        <time>2021-08-06T10:11:04.354Z</time>
      </trkpt>
      <trkpt lat="46.95797" lon="8.73838">
        <ele>1203</ele>
        <time>2021-08-06T10:11:05.355Z</time>
      </trkpt>
      <trkpt lat="46.95796" lon="8.73837">
        <ele>1203</ele>
        <time>2021-08-06T10:11:06.355Z</time>
      </trkpt>
      <trkpt lat="46.95795" lon="8.73836">
        <ele>1203</ele>
        <time>2021-08-06T10:11:07.355Z</time>
      </trkpt>
      <trkpt lat="46.95795" lon="8.73835">
        <ele>1202</ele>
        <time>2021-08-06T10:11:08.354Z</time>
      </trkpt>
      <trkpt lat="46.95794" lon="8.73835">
        <ele>1202</ele>
        <time>2021-08-06T10:11:09.355Z</time>
      </trkpt>
      <trkpt lat="46.95793" lon="8.73834">
        <ele>1202</ele>
        <time>2021-08-06T10:11:10.355Z</time>
      </trkpt>
      <trkpt lat="46.95792" lon="8.73833">
        <ele>1201</ele>
        <time>2021-08-06T10:11:11.355Z</time>
      </trkpt>
      <trkpt lat="46.95791" lon="8.73832">
        <ele>1201</ele>
        <time>2021-08-06T10:11:12.354Z</time>
      </trkpt>
      <trkpt lat="46.95791" lon="8.73831">
        <ele>1200</ele>
        <time>2021-08-06T10:11:13.355Z</time>
      </trkpt>
      <trkpt lat="46.9579" lon="8.7383">
        <ele>1200</ele>
        <time>2021-08-06T10:11:14.355Z</time>
      </trkpt>
      <trkpt lat="46.95789" lon="8.7383">
        <ele>1199</ele>
        <time>2021-08-06T10:11:15.354Z</time>
      </trkpt>
      <trkpt lat="46.95788" lon="8.73829">
        <ele>1199</ele>
        <time>2021-08-06T10:11:16.355Z</time>
      </trkpt>
      <trkpt lat="46.95788" lon="8.73828">
        <ele>1199</ele>
        <time>2021-08-06T10:11:17.354Z</time>
      </trkpt>
      <trkpt lat="46.95787" lon="8.73828">
        <ele>1199</ele>
        <time>2021-08-06T10:11:18.355Z</time>
      </trkpt>
      <trkpt lat="46.95786" lon="8.73826">
        <ele>1199</ele>
        <time>2021-08-06T10:11:19.354Z</time>
      </trkpt>
      <trkpt lat="46.95785" lon="8.73825">
        <ele>1199</ele>
        <time>2021-08-06T10:11:20.354Z</time>
      </trkpt>
      <trkpt lat="46.95783" lon="8.73824">
        <ele>1198</ele>
        <time>2021-08-06T10:11:21.355Z</time>
      </trkpt>
      <trkpt lat="46.95782" lon="8.73823">
        <ele>1198</ele>
        <time>2021-08-06T10:11:22.355Z</time>
      </trkpt>
      <trkpt lat="46.9578" lon="8.73823">
        <ele>1198</ele>
        <time>2021-08-06T10:11:23.354Z</time>
      </trkpt>
      <trkpt lat="46.9578" lon="8.73822">
        <ele>1197</ele>
        <time>2021-08-06T10:11:24.355Z</time>
      </trkpt>
      <trkpt lat="46.95779" lon="8.73822">
        <ele>1197</ele>
        <time>2021-08-06T10:11:25.355Z</time>
      </trkpt>
      <trkpt lat="46.95778" lon="8.73821">
        <ele>1197</ele>
        <time>2021-08-06T10:11:26.355Z</time>
      </trkpt>
      <trkpt lat="46.95777" lon="8.7382">
        <ele>1197</ele>
        <time>2021-08-06T10:11:27.354Z</time>
      </trkpt>
      <trkpt lat="46.95777" lon="8.73819">
        <ele>1197</ele>
        <time>2021-08-06T10:11:28.355Z</time>
      </trkpt>
      <trkpt lat="46.95776" lon="8.73818">
        <ele>1197</ele>
        <time>2021-08-06T10:11:29.355Z</time>
      </trkpt>
      <trkpt lat="46.95775" lon="8.73818">
        <ele>1198</ele>
        <time>2021-08-06T10:11:30.355Z</time>
      </trkpt>
      <trkpt lat="46.95774" lon="8.73817">
        <ele>1198</ele>
        <time>2021-08-06T10:11:31.355Z</time>
      </trkpt>
      <trkpt lat="46.95773" lon="8.73816">
        <ele>1198</ele>
        <time>2021-08-06T10:11:32.355Z</time>
      </trkpt>
      <trkpt lat="46.95773" lon="8.73815">
        <ele>1198</ele>
        <time>2021-08-06T10:11:33.355Z</time>
      </trkpt>
      <trkpt lat="46.95772" lon="8.73814">
        <ele>1198</ele>
        <time>2021-08-06T10:11:34.355Z</time>
      </trkpt>
      <trkpt lat="46.95772" lon="8.73813">
        <ele>1199</ele>
        <time>2021-08-06T10:11:35.354Z</time>
      </trkpt>
      <trkpt lat="46.95771" lon="8.73812">
        <ele>1199</ele>
        <time>2021-08-06T10:11:36.355Z</time>
      </trkpt>
      <trkpt lat="46.9577" lon="8.73811">
        <ele>1200</ele>
        <time>2021-08-06T10:11:37.355Z</time>
      </trkpt>
      <trkpt lat="46.95768" lon="8.73809">
        <ele>1200</ele>
        <time>2021-08-06T10:11:38.355Z</time>
      </trkpt>
      <trkpt lat="46.95768" lon="8.73809">
        <ele>1200</ele>
        <time>2021-08-06T10:11:39.355Z</time>
      </trkpt>
      <trkpt lat="46.95766" lon="8.73808">
        <ele>1200</ele>
        <time>2021-08-06T10:11:40.355Z</time>
      </trkpt>
      <trkpt lat="46.95765" lon="8.73808">
        <ele>1200</ele>
        <time>2021-08-06T10:11:41.354Z</time>
      </trkpt>
      <trkpt lat="46.95765" lon="8.73808">
        <ele>1201</ele>
        <time>2021-08-06T10:11:42.354Z</time>
      </trkpt>
      <trkpt lat="46.95764" lon="8.73808">
        <ele>1201</ele>
        <time>2021-08-06T10:11:43.355Z</time>
      </trkpt>
      <trkpt lat="46.95763" lon="8.73806">
        <ele>1201</ele>
        <time>2021-08-06T10:11:44.355Z</time>
      </trkpt>
      <trkpt lat="46.95763" lon="8.73804">
        <ele>1201</ele>
        <time>2021-08-06T10:11:45.355Z</time>
      </trkpt>
      <trkpt lat="46.95763" lon="8.73802">
        <ele>1201</ele>
        <time>2021-08-06T10:11:46.355Z</time>
      </trkpt>
      <trkpt lat="46.95762" lon="8.73801">
        <ele>1201</ele>
        <time>2021-08-06T10:11:47.355Z</time>
      </trkpt>
      <trkpt lat="46.95761" lon="8.73801">
        <ele>1201</ele>
        <time>2021-08-06T10:11:48.355Z</time>
      </trkpt>
      <trkpt lat="46.9576" lon="8.73801">
        <ele>1201</ele>
        <time>2021-08-06T10:11:49.354Z</time>
      </trkpt>
      <trkpt lat="46.95759" lon="8.738">
        <ele>1202</ele>
        <time>2021-08-06T10:11:50.355Z</time>
      </trkpt>
      <trkpt lat="46.95759" lon="8.73798">
        <ele>1202</ele>
        <time>2021-08-06T10:11:51.355Z</time>
      </trkpt>
      <trkpt lat="46.95759" lon="8.73797">
        <ele>1202</ele>
        <time>2021-08-06T10:11:52.354Z</time>
      </trkpt>
      <trkpt lat="46.95759" lon="8.73796">
        <ele>1203</ele>
        <time>2021-08-06T10:11:53.355Z</time>
      </trkpt>
      <trkpt lat="46.95759" lon="8.73795">
        <ele>1203</ele>
        <time>2021-08-06T10:11:54.355Z</time>
      </trkpt>
      <trkpt lat="46.95759" lon="8.73794">
        <ele>1204</ele>
        <time>2021-08-06T10:11:55.355Z</time>
      </trkpt>
      <trkpt lat="46.95758" lon="8.73793">
        <ele>1204</ele>
        <time>2021-08-06T10:11:56.354Z</time>
      </trkpt>
      <trkpt lat="46.95757" lon="8.73792">
        <ele>1204</ele>
        <time>2021-08-06T10:11:57.354Z</time>
      </trkpt>
      <trkpt lat="46.95756" lon="8.73792">
        <ele>1204</ele>
        <time>2021-08-06T10:11:58.355Z</time>
      </trkpt>
      <trkpt lat="46.95755" lon="8.73791">
        <ele>1205</ele>
        <time>2021-08-06T10:11:59.354Z</time>
      </trkpt>
      <trkpt lat="46.95754" lon="8.7379">
        <ele>1205</ele>
        <time>2021-08-06T10:12:00.355Z</time>
      </trkpt>
      <trkpt lat="46.95753" lon="8.73789">
        <ele>1205</ele>
        <time>2021-08-06T10:12:01.355Z</time>
      </trkpt>
      <trkpt lat="46.95752" lon="8.73788">
        <ele>1206</ele>
        <time>2021-08-06T10:12:02.355Z</time>
      </trkpt>
      <trkpt lat="46.95751" lon="8.73787">
        <ele>1206</ele>
        <time>2021-08-06T10:12:03.354Z</time>
      </trkpt>
      <trkpt lat="46.95751" lon="8.73786">
        <ele>1206</ele>
        <time>2021-08-06T10:12:04.355Z</time>
      </trkpt>
      <trkpt lat="46.9575" lon="8.73785">
        <ele>1206</ele>
        <time>2021-08-06T10:12:05.354Z</time>
      </trkpt>
      <trkpt lat="46.95749" lon="8.73784">
        <ele>1207</ele>
        <time>2021-08-06T10:12:06.355Z</time>
      </trkpt>
      <trkpt lat="46.95749" lon="8.73783">
        <ele>1208</ele>
        <time>2021-08-06T10:12:07.355Z</time>
      </trkpt>
      <trkpt lat="46.95748" lon="8.73782">
        <ele>1208</ele>
        <time>2021-08-06T10:12:08.354Z</time>
      </trkpt>
      <trkpt lat="46.95748" lon="8.73781">
        <ele>1209</ele>
        <time>2021-08-06T10:12:09.355Z</time>
      </trkpt>
      <trkpt lat="46.95748" lon="8.7378">
        <ele>1209</ele>
        <time>2021-08-06T10:12:10.354Z</time>
      </trkpt>
      <trkpt lat="46.95748" lon="8.73779">
        <ele>1210</ele>
        <time>2021-08-06T10:12:11.354Z</time>
      </trkpt>
      <trkpt lat="46.95748" lon="8.73777">
        <ele>1210</ele>
        <time>2021-08-06T10:12:12.354Z</time>
      </trkpt>
      <trkpt lat="46.95748" lon="8.73776">
        <ele>1210</ele>
        <time>2021-08-06T10:12:13.355Z</time>
      </trkpt>
      <trkpt lat="46.95748" lon="8.73775">
        <ele>1211</ele>
        <time>2021-08-06T10:12:14.355Z</time>
      </trkpt>
      <trkpt lat="46.95748" lon="8.73774">
        <ele>1212</ele>
        <time>2021-08-06T10:12:15.355Z</time>
      </trkpt>
      <trkpt lat="46.95748" lon="8.73773">
        <ele>1212</ele>
        <time>2021-08-06T10:12:16.355Z</time>
      </trkpt>
      <trkpt lat="46.95748" lon="8.73772">
        <ele>1213</ele>
        <time>2021-08-06T10:12:17.355Z</time>
      </trkpt>
      <trkpt lat="46.95747" lon="8.73771">
        <ele>1214</ele>
        <time>2021-08-06T10:12:18.355Z</time>
      </trkpt>
      <trkpt lat="46.95746" lon="8.7377">
        <ele>1214</ele>
        <time>2021-08-06T10:12:19.355Z</time>
      </trkpt>
      <trkpt lat="46.95745" lon="8.73769">
        <ele>1214</ele>
        <time>2021-08-06T10:12:20.355Z</time>
      </trkpt>
      <trkpt lat="46.95744" lon="8.73768">
        <ele>1214</ele>
        <time>2021-08-06T10:12:21.354Z</time>
      </trkpt>
      <trkpt lat="46.95744" lon="8.73767">
        <ele>1215</ele>
        <time>2021-08-06T10:12:22.354Z</time>
      </trkpt>
      <trkpt lat="46.95743" lon="8.73766">
        <ele>1215</ele>
        <time>2021-08-06T10:12:23.354Z</time>
      </trkpt>
      <trkpt lat="46.95743" lon="8.73765">
        <ele>1216</ele>
        <time>2021-08-06T10:12:24.355Z</time>
      </trkpt>
      <trkpt lat="46.95742" lon="8.73763">
        <ele>1216</ele>
        <time>2021-08-06T10:12:25.354Z</time>
      </trkpt>
      <trkpt lat="46.95742" lon="8.73762">
        <ele>1217</ele>
        <time>2021-08-06T10:12:26.354Z</time>
      </trkpt>
      <trkpt lat="46.95741" lon="8.7376">
        <ele>1217</ele>
        <time>2021-08-06T10:12:27.354Z</time>
      </trkpt>
      <trkpt lat="46.95741" lon="8.73759">
        <ele>1217</ele>
        <time>2021-08-06T10:12:28.354Z</time>
      </trkpt>
      <trkpt lat="46.9574" lon="8.73757">
        <ele>1218</ele>
        <time>2021-08-06T10:12:29.354Z</time>
      </trkpt>
      <trkpt lat="46.9574" lon="8.73756">
        <ele>1218</ele>
        <time>2021-08-06T10:12:30.355Z</time>
      </trkpt>
      <trkpt lat="46.95739" lon="8.73755">
        <ele>1219</ele>
        <time>2021-08-06T10:12:31.354Z</time>
      </trkpt>
      <trkpt lat="46.95738" lon="8.73754">
        <ele>1219</ele>
        <time>2021-08-06T10:12:32.355Z</time>
      </trkpt>
      <trkpt lat="46.95736" lon="8.73753">
        <ele>1219</ele>
        <time>2021-08-06T10:12:33.354Z</time>
      </trkpt>
      <trkpt lat="46.95734" lon="8.73752">
        <ele>1220</ele>
        <time>2021-08-06T10:12:34.355Z</time>
      </trkpt>
      <trkpt lat="46.95733" lon="8.7375">
        <ele>1220</ele>
        <time>2021-08-06T10:12:35.355Z</time>
      </trkpt>
      <trkpt lat="46.95731" lon="8.73748">
        <ele>1220</ele>
        <time>2021-08-06T10:12:36.355Z</time>
      </trkpt>
      <trkpt lat="46.95731" lon="8.73746">
        <ele>1220</ele>
        <time>2021-08-06T10:12:37.355Z</time>
      </trkpt>
      <trkpt lat="46.9573" lon="8.73744">
        <ele>1220</ele>
        <time>2021-08-06T10:12:38.354Z</time>
      </trkpt>
      <trkpt lat="46.95729" lon="8.73742">
        <ele>1219</ele>
        <time>2021-08-06T10:12:39.354Z</time>
      </trkpt>
      <trkpt lat="46.95727" lon="8.7374">
        <ele>1219</ele>
        <time>2021-08-06T10:12:40.355Z</time>
      </trkpt>
      <trkpt lat="46.95726" lon="8.73739">
        <ele>1219</ele>
        <time>2021-08-06T10:12:41.355Z</time>
      </trkpt>
      <trkpt lat="46.95726" lon="8.73737">
        <ele>1218</ele>
        <time>2021-08-06T10:12:42.355Z</time>
      </trkpt>
      <trkpt lat="46.95725" lon="8.73736">
        <ele>1218</ele>
        <time>2021-08-06T10:12:43.355Z</time>
      </trkpt>
      <trkpt lat="46.95723" lon="8.73734">
        <ele>1218</ele>
        <time>2021-08-06T10:12:44.355Z</time>
      </trkpt>
      <trkpt lat="46.95722" lon="8.73733">
        <ele>1218</ele>
        <time>2021-08-06T10:12:45.354Z</time>
      </trkpt>
      <trkpt lat="46.95721" lon="8.73732">
        <ele>1217</ele>
        <time>2021-08-06T10:12:46.355Z</time>
      </trkpt>
      <trkpt lat="46.95719" lon="8.73732">
        <ele>1217</ele>
        <time>2021-08-06T10:12:47.355Z</time>
      </trkpt>
      <trkpt lat="46.95718" lon="8.73732">
        <ele>1216</ele>
        <time>2021-08-06T10:12:48.355Z</time>
      </trkpt>
      <trkpt lat="46.95717" lon="8.73731">
        <ele>1216</ele>
        <time>2021-08-06T10:12:49.355Z</time>
      </trkpt>
      <trkpt lat="46.95717" lon="8.7373">
        <ele>1215</ele>
        <time>2021-08-06T10:12:50.355Z</time>
      </trkpt>
      <trkpt lat="46.95716" lon="8.73728">
        <ele>1215</ele>
        <time>2021-08-06T10:12:51.355Z</time>
      </trkpt>
      <trkpt lat="46.95715" lon="8.73726">
        <ele>1214</ele>
        <time>2021-08-06T10:12:52.355Z</time>
      </trkpt>
      <trkpt lat="46.95714" lon="8.73724">
        <ele>1214</ele>
        <time>2021-08-06T10:12:53.355Z</time>
      </trkpt>
      <trkpt lat="46.95713" lon="8.73722">
        <ele>1214</ele>
        <time>2021-08-06T10:12:54.355Z</time>
      </trkpt>
      <trkpt lat="46.95712" lon="8.7372">
        <ele>1214</ele>
        <time>2021-08-06T10:12:55.355Z</time>
      </trkpt>
      <trkpt lat="46.95711" lon="8.73719">
        <ele>1213</ele>
        <time>2021-08-06T10:12:56.355Z</time>
      </trkpt>
      <trkpt lat="46.95711" lon="8.73717">
        <ele>1213</ele>
        <time>2021-08-06T10:12:57.355Z</time>
      </trkpt>
      <trkpt lat="46.95711" lon="8.73715">
        <ele>1213</ele>
        <time>2021-08-06T10:12:58.355Z</time>
      </trkpt>
      <trkpt lat="46.9571" lon="8.73714">
        <ele>1213</ele>
        <time>2021-08-06T10:12:59.354Z</time>
      </trkpt>
      <trkpt lat="46.9571" lon="8.73713">
        <ele>1213</ele>
        <time>2021-08-06T10:13:00.355Z</time>
      </trkpt>
      <trkpt lat="46.9571" lon="8.73711">
        <ele>1212</ele>
        <time>2021-08-06T10:13:01.355Z</time>
      </trkpt>
      <trkpt lat="46.95709" lon="8.73709">
        <ele>1213</ele>
        <time>2021-08-06T10:13:02.354Z</time>
      </trkpt>
      <trkpt lat="46.95709" lon="8.73707">
        <ele>1213</ele>
        <time>2021-08-06T10:13:03.355Z</time>
      </trkpt>
      <trkpt lat="46.95708" lon="8.73706">
        <ele>1212</ele>
        <time>2021-08-06T10:13:04.355Z</time>
      </trkpt>
      <trkpt lat="46.95708" lon="8.73705">
        <ele>1212</ele>
        <time>2021-08-06T10:13:05.355Z</time>
      </trkpt>
      <trkpt lat="46.95708" lon="8.73703">
        <ele>1212</ele>
        <time>2021-08-06T10:13:06.355Z</time>
      </trkpt>
      <trkpt lat="46.95709" lon="8.73701">
        <ele>1212</ele>
        <time>2021-08-06T10:13:07.354Z</time>
      </trkpt>
      <trkpt lat="46.9571" lon="8.737">
        <ele>1212</ele>
        <time>2021-08-06T10:13:08.355Z</time>
      </trkpt>
      <trkpt lat="46.95711" lon="8.73698">
        <ele>1212</ele>
        <time>2021-08-06T10:13:09.354Z</time>
      </trkpt>
      <trkpt lat="46.95711" lon="8.73696">
        <ele>1212</ele>
        <time>2021-08-06T10:13:10.355Z</time>
      </trkpt>
      <trkpt lat="46.95711" lon="8.73694">
        <ele>1212</ele>
        <time>2021-08-06T10:13:11.355Z</time>
      </trkpt>
      <trkpt lat="46.95711" lon="8.73692">
        <ele>1212</ele>
        <time>2021-08-06T10:13:12.354Z</time>
      </trkpt>
      <trkpt lat="46.95711" lon="8.7369">
        <ele>1212</ele>
        <time>2021-08-06T10:13:13.355Z</time>
      </trkpt>
      <trkpt lat="46.95712" lon="8.73689">
        <ele>1212</ele>
        <time>2021-08-06T10:13:14.355Z</time>
      </trkpt>
      <trkpt lat="46.95712" lon="8.73687">
        <ele>1212</ele>
        <time>2021-08-06T10:13:15.355Z</time>
      </trkpt>
      <trkpt lat="46.95713" lon="8.73686">
        <ele>1211</ele>
        <time>2021-08-06T10:13:16.355Z</time>
      </trkpt>
      <trkpt lat="46.95713" lon="8.73685">
        <ele>1211</ele>
        <time>2021-08-06T10:13:17.355Z</time>
      </trkpt>
      <trkpt lat="46.95714" lon="8.73684">
        <ele>1211</ele>
        <time>2021-08-06T10:13:18.354Z</time>
      </trkpt>
      <trkpt lat="46.95715" lon="8.73682">
        <ele>1211</ele>
        <time>2021-08-06T10:13:19.354Z</time>
      </trkpt>
      <trkpt lat="46.95716" lon="8.73681">
        <ele>1211</ele>
        <time>2021-08-06T10:13:20.354Z</time>
      </trkpt>
      <trkpt lat="46.95716" lon="8.73681">
        <ele>1211</ele>
        <time>2021-08-06T10:13:21.354Z</time>
      </trkpt>
      <trkpt lat="46.95717" lon="8.73681">
        <ele>1210</ele>
        <time>2021-08-06T10:13:22.355Z</time>
      </trkpt>
      <trkpt lat="46.95718" lon="8.7368">
        <ele>1210</ele>
        <time>2021-08-06T10:13:23.354Z</time>
      </trkpt>
      <trkpt lat="46.95719" lon="8.73679">
        <ele>1210</ele>
        <time>2021-08-06T10:13:24.355Z</time>
      </trkpt>
      <trkpt lat="46.9572" lon="8.73679">
        <ele>1210</ele>
        <time>2021-08-06T10:13:25.354Z</time>
      </trkpt>
      <trkpt lat="46.95721" lon="8.73678">
        <ele>1210</ele>
        <time>2021-08-06T10:13:26.355Z</time>
      </trkpt>
      <trkpt lat="46.95722" lon="8.73677">
        <ele>1210</ele>
        <time>2021-08-06T10:13:27.354Z</time>
      </trkpt>
      <trkpt lat="46.95723" lon="8.73676">
        <ele>1210</ele>
        <time>2021-08-06T10:13:28.354Z</time>
      </trkpt>
      <trkpt lat="46.95724" lon="8.73674">
        <ele>1210</ele>
        <time>2021-08-06T10:13:29.354Z</time>
      </trkpt>
      <trkpt lat="46.95726" lon="8.73673">
        <ele>1210</ele>
        <time>2021-08-06T10:13:30.355Z</time>
      </trkpt>
      <trkpt lat="46.95727" lon="8.73671">
        <ele>1210</ele>
        <time>2021-08-06T10:13:31.355Z</time>
      </trkpt>
      <trkpt lat="46.95728" lon="8.7367">
        <ele>1210</ele>
        <time>2021-08-06T10:13:32.354Z</time>
      </trkpt>
      <trkpt lat="46.95728" lon="8.73667">
        <ele>1210</ele>
        <time>2021-08-06T10:13:33.355Z</time>
      </trkpt>
      <trkpt lat="46.95729" lon="8.73665">
        <ele>1210</ele>
        <time>2021-08-06T10:13:34.355Z</time>
      </trkpt>
      <trkpt lat="46.9573" lon="8.73663">
        <ele>1210</ele>
        <time>2021-08-06T10:13:35.354Z</time>
      </trkpt>
      <trkpt lat="46.9573" lon="8.73661">
        <ele>1210</ele>
        <time>2021-08-06T10:13:36.355Z</time>
      </trkpt>
      <trkpt lat="46.9573" lon="8.73659">
        <ele>1210</ele>
        <time>2021-08-06T10:13:37.355Z</time>
      </trkpt>
      <trkpt lat="46.9573" lon="8.73657">
        <ele>1211</ele>
        <time>2021-08-06T10:13:38.355Z</time>
      </trkpt>
      <trkpt lat="46.95729" lon="8.73655">
        <ele>1211</ele>
        <time>2021-08-06T10:13:39.354Z</time>
      </trkpt>
      <trkpt lat="46.95728" lon="8.73653">
        <ele>1211</ele>
        <time>2021-08-06T10:13:40.355Z</time>
      </trkpt>
      <trkpt lat="46.95727" lon="8.73651">
        <ele>1211</ele>
        <time>2021-08-06T10:13:41.354Z</time>
      </trkpt>
      <trkpt lat="46.95726" lon="8.7365">
        <ele>1211</ele>
        <time>2021-08-06T10:13:42.355Z</time>
      </trkpt>
      <trkpt lat="46.95725" lon="8.73648">
        <ele>1212</ele>
        <time>2021-08-06T10:13:43.354Z</time>
      </trkpt>
      <trkpt lat="46.95724" lon="8.73647">
        <ele>1212</ele>
        <time>2021-08-06T10:13:44.355Z</time>
      </trkpt>
      <trkpt lat="46.95723" lon="8.73646">
        <ele>1212</ele>
        <time>2021-08-06T10:13:45.355Z</time>
      </trkpt>
      <trkpt lat="46.95722" lon="8.73644">
        <ele>1212</ele>
        <time>2021-08-06T10:13:46.355Z</time>
      </trkpt>
      <trkpt lat="46.95722" lon="8.73643">
        <ele>1212</ele>
        <time>2021-08-06T10:13:47.354Z</time>
      </trkpt>
      <trkpt lat="46.9572" lon="8.73642">
        <ele>1212</ele>
        <time>2021-08-06T10:13:48.354Z</time>
      </trkpt>
      <trkpt lat="46.95719" lon="8.73641">
        <ele>1212</ele>
        <time>2021-08-06T10:13:49.355Z</time>
      </trkpt>
      <trkpt lat="46.95717" lon="8.7364">
        <ele>1213</ele>
        <time>2021-08-06T10:13:50.355Z</time>
      </trkpt>
      <trkpt lat="46.95716" lon="8.73639">
        <ele>1213</ele>
        <time>2021-08-06T10:13:51.355Z</time>
      </trkpt>
      <trkpt lat="46.95715" lon="8.73638">
        <ele>1213</ele>
        <time>2021-08-06T10:13:52.355Z</time>
      </trkpt>
      <trkpt lat="46.95714" lon="8.73638">
        <ele>1214</ele>
        <time>2021-08-06T10:13:53.354Z</time>
      </trkpt>
      <trkpt lat="46.95713" lon="8.73637">
        <ele>1214</ele>
        <time>2021-08-06T10:13:54.355Z</time>
      </trkpt>
      <trkpt lat="46.95712" lon="8.73636">
        <ele>1215</ele>
        <time>2021-08-06T10:13:55.355Z</time>
      </trkpt>
      <trkpt lat="46.95711" lon="8.73635">
        <ele>1215</ele>
        <time>2021-08-06T10:13:56.354Z</time>
      </trkpt>
      <trkpt lat="46.9571" lon="8.73635">
        <ele>1215</ele>
        <time>2021-08-06T10:13:57.355Z</time>
      </trkpt>
      <trkpt lat="46.95709" lon="8.73634">
        <ele>1215</ele>
        <time>2021-08-06T10:13:58.354Z</time>
      </trkpt>
      <trkpt lat="46.95708" lon="8.73634">
        <ele>1215</ele>
        <time>2021-08-06T10:13:59.355Z</time>
      </trkpt>
      <trkpt lat="46.95707" lon="8.73634">
        <ele>1215</ele>
        <time>2021-08-06T10:14:00.354Z</time>
      </trkpt>
      <trkpt lat="46.95707" lon="8.73633">
        <ele>1215</ele>
        <time>2021-08-06T10:14:01.355Z</time>
      </trkpt>
      <trkpt lat="46.95707" lon="8.73632">
        <ele>1215</ele>
        <time>2021-08-06T10:14:02.355Z</time>
      </trkpt>
      <trkpt lat="46.95706" lon="8.73631">
        <ele>1215</ele>
        <time>2021-08-06T10:14:03.355Z</time>
      </trkpt>
      <trkpt lat="46.95706" lon="8.7363">
        <ele>1215</ele>
        <time>2021-08-06T10:14:04.355Z</time>
      </trkpt>
      <trkpt lat="46.95704" lon="8.7363">
        <ele>1215</ele>
        <time>2021-08-06T10:14:05.354Z</time>
      </trkpt>
      <trkpt lat="46.95703" lon="8.73629">
        <ele>1215</ele>
        <time>2021-08-06T10:14:06.354Z</time>
      </trkpt>
      <trkpt lat="46.95702" lon="8.73628">
        <ele>1215</ele>
        <time>2021-08-06T10:14:07.354Z</time>
      </trkpt>
      <trkpt lat="46.95701" lon="8.73627">
        <ele>1215</ele>
        <time>2021-08-06T10:14:08.354Z</time>
      </trkpt>
      <trkpt lat="46.957" lon="8.73626">
        <ele>1215</ele>
        <time>2021-08-06T10:14:09.355Z</time>
      </trkpt>
      <trkpt lat="46.95699" lon="8.73625">
        <ele>1216</ele>
        <time>2021-08-06T10:14:10.355Z</time>
      </trkpt>
      <trkpt lat="46.95699" lon="8.73623">
        <ele>1216</ele>
        <time>2021-08-06T10:14:11.354Z</time>
      </trkpt>
      <trkpt lat="46.95699" lon="8.73622">
        <ele>1216</ele>
        <time>2021-08-06T10:14:12.355Z</time>
      </trkpt>
      <trkpt lat="46.95699" lon="8.73621">
        <ele>1217</ele>
        <time>2021-08-06T10:14:13.354Z</time>
      </trkpt>
      <trkpt lat="46.95699" lon="8.73619">
        <ele>1217</ele>
        <time>2021-08-06T10:14:14.354Z</time>
      </trkpt>
      <trkpt lat="46.95698" lon="8.73618">
        <ele>1217</ele>
        <time>2021-08-06T10:14:15.355Z</time>
      </trkpt>
      <trkpt lat="46.95697" lon="8.73617">
        <ele>1218</ele>
        <time>2021-08-06T10:14:16.354Z</time>
      </trkpt>
      <trkpt lat="46.95697" lon="8.73616">
        <ele>1218</ele>
        <time>2021-08-06T10:14:17.354Z</time>
      </trkpt>
      <trkpt lat="46.95696" lon="8.73615">
        <ele>1218</ele>
        <time>2021-08-06T10:14:18.354Z</time>
      </trkpt>
      <trkpt lat="46.95696" lon="8.73613">
        <ele>1218</ele>
        <time>2021-08-06T10:14:19.355Z</time>
      </trkpt>
      <trkpt lat="46.95695" lon="8.73612">
        <ele>1218</ele>
        <time>2021-08-06T10:14:20.354Z</time>
      </trkpt>
      <trkpt lat="46.95694" lon="8.73611">
        <ele>1219</ele>
        <time>2021-08-06T10:14:21.355Z</time>
      </trkpt>
      <trkpt lat="46.95693" lon="8.73609">
        <ele>1219</ele>
        <time>2021-08-06T10:14:22.354Z</time>
      </trkpt>
      <trkpt lat="46.95693" lon="8.73608">
        <ele>1220</ele>
        <time>2021-08-06T10:14:23.354Z</time>
      </trkpt>
      <trkpt lat="46.95692" lon="8.73607">
        <ele>1220</ele>
        <time>2021-08-06T10:14:24.354Z</time>
      </trkpt>
      <trkpt lat="46.95692" lon="8.73606">
        <ele>1221</ele>
        <time>2021-08-06T10:14:25.355Z</time>
      </trkpt>
      <trkpt lat="46.95692" lon="8.73604">
        <ele>1221</ele>
        <time>2021-08-06T10:14:26.354Z</time>
      </trkpt>
      <trkpt lat="46.95692" lon="8.73603">
        <ele>1222</ele>
        <time>2021-08-06T10:14:27.355Z</time>
      </trkpt>
      <trkpt lat="46.95692" lon="8.73602">
        <ele>1223</ele>
        <time>2021-08-06T10:14:28.354Z</time>
      </trkpt>
      <trkpt lat="46.95692" lon="8.736">
        <ele>1223</ele>
        <time>2021-08-06T10:14:29.355Z</time>
      </trkpt>
      <trkpt lat="46.95692" lon="8.73598">
        <ele>1224</ele>
        <time>2021-08-06T10:14:30.355Z</time>
      </trkpt>
      <trkpt lat="46.95692" lon="8.73596">
        <ele>1224</ele>
        <time>2021-08-06T10:14:31.355Z</time>
      </trkpt>
      <trkpt lat="46.95692" lon="8.73594">
        <ele>1225</ele>
        <time>2021-08-06T10:14:32.354Z</time>
      </trkpt>
      <trkpt lat="46.95692" lon="8.73592">
        <ele>1225</ele>
        <time>2021-08-06T10:14:33.354Z</time>
      </trkpt>
      <trkpt lat="46.95693" lon="8.7359">
        <ele>1225</ele>
        <time>2021-08-06T10:14:34.355Z</time>
      </trkpt>
      <trkpt lat="46.95693" lon="8.73588">
        <ele>1226</ele>
        <time>2021-08-06T10:14:35.355Z</time>
      </trkpt>
      <trkpt lat="46.95694" lon="8.73586">
        <ele>1227</ele>
        <time>2021-08-06T10:14:36.355Z</time>
      </trkpt>
      <trkpt lat="46.95695" lon="8.73584">
        <ele>1228</ele>
        <time>2021-08-06T10:14:37.355Z</time>
      </trkpt>
      <trkpt lat="46.95695" lon="8.73583">
        <ele>1229</ele>
        <time>2021-08-06T10:14:38.355Z</time>
      </trkpt>
      <trkpt lat="46.95695" lon="8.73581">
        <ele>1230</ele>
        <time>2021-08-06T10:14:39.355Z</time>
      </trkpt>
      <trkpt lat="46.95696" lon="8.7358">
        <ele>1230</ele>
        <time>2021-08-06T10:14:40.355Z</time>
      </trkpt>
      <trkpt lat="46.95696" lon="8.73579">
        <ele>1231</ele>
        <time>2021-08-06T10:14:41.355Z</time>
      </trkpt>
      <trkpt lat="46.95698" lon="8.73578">
        <ele>1231</ele>
        <time>2021-08-06T10:14:42.355Z</time>
      </trkpt>
      <trkpt lat="46.95699" lon="8.73577">
        <ele>1231</ele>
        <time>2021-08-06T10:14:43.354Z</time>
      </trkpt>
      <trkpt lat="46.95699" lon="8.73576">
        <ele>1231</ele>
        <time>2021-08-06T10:14:44.355Z</time>
      </trkpt>
      <trkpt lat="46.957" lon="8.73575">
        <ele>1231</ele>
        <time>2021-08-06T10:14:45.354Z</time>
      </trkpt>
      <trkpt lat="46.95701" lon="8.73574">
        <ele>1232</ele>
        <time>2021-08-06T10:14:46.354Z</time>
      </trkpt>
      <trkpt lat="46.95701" lon="8.73573">
        <ele>1232</ele>
        <time>2021-08-06T10:14:47.354Z</time>
      </trkpt>
      <trkpt lat="46.957" lon="8.73572">
        <ele>1232</ele>
        <time>2021-08-06T10:14:48.354Z</time>
      </trkpt>
      <trkpt lat="46.957" lon="8.7357">
        <ele>1233</ele>
        <time>2021-08-06T10:14:49.355Z</time>
      </trkpt>
      <trkpt lat="46.95701" lon="8.73569">
        <ele>1233</ele>
        <time>2021-08-06T10:14:50.355Z</time>
      </trkpt>
      <trkpt lat="46.95701" lon="8.73567">
        <ele>1233</ele>
        <time>2021-08-06T10:14:51.354Z</time>
      </trkpt>
      <trkpt lat="46.95702" lon="8.73566">
        <ele>1233</ele>
        <time>2021-08-06T10:14:52.355Z</time>
      </trkpt>
      <trkpt lat="46.95701" lon="8.73564">
        <ele>1234</ele>
        <time>2021-08-06T10:14:53.355Z</time>
      </trkpt>
      <trkpt lat="46.95701" lon="8.73563">
        <ele>1234</ele>
        <time>2021-08-06T10:14:54.355Z</time>
      </trkpt>
      <trkpt lat="46.957" lon="8.73561">
        <ele>1234</ele>
        <time>2021-08-06T10:14:55.354Z</time>
      </trkpt>
      <trkpt lat="46.957" lon="8.7356">
        <ele>1235</ele>
        <time>2021-08-06T10:14:56.355Z</time>
      </trkpt>
      <trkpt lat="46.957" lon="8.73558">
        <ele>1235</ele>
        <time>2021-08-06T10:14:57.355Z</time>
      </trkpt>
      <trkpt lat="46.957" lon="8.73557">
        <ele>1235</ele>
        <time>2021-08-06T10:14:58.355Z</time>
      </trkpt>
      <trkpt lat="46.957" lon="8.73556">
        <ele>1235</ele>
        <time>2021-08-06T10:14:59.355Z</time>
      </trkpt>
      <trkpt lat="46.95699" lon="8.73555">
        <ele>1235</ele>
        <time>2021-08-06T10:15:00.355Z</time>
      </trkpt>
      <trkpt lat="46.957" lon="8.73554">
        <ele>1235</ele>
        <time>2021-08-06T10:15:01.354Z</time>
      </trkpt>
      <trkpt lat="46.957" lon="8.73553">
        <ele>1235</ele>
        <time>2021-08-06T10:15:02.355Z</time>
      </trkpt>
      <trkpt lat="46.95701" lon="8.73552">
        <ele>1235</ele>
        <time>2021-08-06T10:15:03.355Z</time>
      </trkpt>
      <trkpt lat="46.95701" lon="8.7355">
        <ele>1234</ele>
        <time>2021-08-06T10:15:04.355Z</time>
      </trkpt>
      <trkpt lat="46.95701" lon="8.7355">
        <ele>1234</ele>
        <time>2021-08-06T10:15:05.355Z</time>
      </trkpt>
      <trkpt lat="46.957" lon="8.73549">
        <ele>1234</ele>
        <time>2021-08-06T10:15:06.355Z</time>
      </trkpt>
      <trkpt lat="46.95699" lon="8.73549">
        <ele>1233</ele>
        <time>2021-08-06T10:15:07.354Z</time>
      </trkpt>
      <trkpt lat="46.95697" lon="8.73548">
        <ele>1233</ele>
        <time>2021-08-06T10:15:08.355Z</time>
      </trkpt>
      <trkpt lat="46.95698" lon="8.73548">
        <ele>1232</ele>
        <time>2021-08-06T10:15:09.354Z</time>
      </trkpt>
      <trkpt lat="46.95697" lon="8.73547">
        <ele>1232</ele>
        <time>2021-08-06T10:15:10.355Z</time>
      </trkpt>
      <trkpt lat="46.95697" lon="8.73546">
        <ele>1232</ele>
        <time>2021-08-06T10:15:11.355Z</time>
      </trkpt>
      <trkpt lat="46.95697" lon="8.73545">
        <ele>1232</ele>
        <time>2021-08-06T10:15:12.355Z</time>
      </trkpt>
      <trkpt lat="46.95697" lon="8.73544">
        <ele>1232</ele>
        <time>2021-08-06T10:15:13.355Z</time>
      </trkpt>
      <trkpt lat="46.95697" lon="8.73543">
        <ele>1232</ele>
        <time>2021-08-06T10:15:14.355Z</time>
      </trkpt>
      <trkpt lat="46.95696" lon="8.73542">
        <ele>1232</ele>
        <time>2021-08-06T10:15:15.355Z</time>
      </trkpt>
      <trkpt lat="46.95696" lon="8.73541">
        <ele>1232</ele>
        <time>2021-08-06T10:15:16.354Z</time>
      </trkpt>
      <trkpt lat="46.95696" lon="8.7354">
        <ele>1232</ele>
        <time>2021-08-06T10:15:17.355Z</time>
      </trkpt>
      <trkpt lat="46.95696" lon="8.73539">
        <ele>1232</ele>
        <time>2021-08-06T10:15:18.354Z</time>
      </trkpt>
      <trkpt lat="46.95695" lon="8.73538">
        <ele>1232</ele>
        <time>2021-08-06T10:15:19.355Z</time>
      </trkpt>
      <trkpt lat="46.95696" lon="8.73537">
        <ele>1232</ele>
        <time>2021-08-06T10:15:20.355Z</time>
      </trkpt>
      <trkpt lat="46.95696" lon="8.73536">
        <ele>1232</ele>
        <time>2021-08-06T10:15:21.355Z</time>
      </trkpt>
      <trkpt lat="46.95696" lon="8.73534">
        <ele>1231</ele>
        <time>2021-08-06T10:15:22.355Z</time>
      </trkpt>
      <trkpt lat="46.95696" lon="8.73533">
        <ele>1231</ele>
        <time>2021-08-06T10:15:23.355Z</time>
      </trkpt>
      <trkpt lat="46.95696" lon="8.73532">
        <ele>1231</ele>
        <time>2021-08-06T10:15:24.355Z</time>
      </trkpt>
      <trkpt lat="46.95696" lon="8.7353">
        <ele>1231</ele>
        <time>2021-08-06T10:15:25.354Z</time>
      </trkpt>
      <trkpt lat="46.95697" lon="8.73529">
        <ele>1231</ele>
        <time>2021-08-06T10:15:26.355Z</time>
      </trkpt>
      <trkpt lat="46.95698" lon="8.73528">
        <ele>1231</ele>
        <time>2021-08-06T10:15:27.355Z</time>
      </trkpt>
      <trkpt lat="46.95698" lon="8.73527">
        <ele>1231</ele>
        <time>2021-08-06T10:15:28.355Z</time>
      </trkpt>
      <trkpt lat="46.95697" lon="8.73526">
        <ele>1231</ele>
        <time>2021-08-06T10:15:29.355Z</time>
      </trkpt>
      <trkpt lat="46.95696" lon="8.73525">
        <ele>1231</ele>
        <time>2021-08-06T10:15:30.354Z</time>
      </trkpt>
      <trkpt lat="46.95696" lon="8.73523">
        <ele>1231</ele>
        <time>2021-08-06T10:15:31.354Z</time>
      </trkpt>
      <trkpt lat="46.95696" lon="8.73521">
        <ele>1231</ele>
        <time>2021-08-06T10:15:32.354Z</time>
      </trkpt>
      <trkpt lat="46.95696" lon="8.73519">
        <ele>1231</ele>
        <time>2021-08-06T10:15:33.354Z</time>
      </trkpt>
      <trkpt lat="46.95696" lon="8.73518">
        <ele>1231</ele>
        <time>2021-08-06T10:15:34.355Z</time>
      </trkpt>
      <trkpt lat="46.95696" lon="8.73517">
        <ele>1231</ele>
        <time>2021-08-06T10:15:35.354Z</time>
      </trkpt>
      <trkpt lat="46.95696" lon="8.73515">
        <ele>1232</ele>
        <time>2021-08-06T10:15:36.354Z</time>
      </trkpt>
      <trkpt lat="46.95695" lon="8.73515">
        <ele>1232</ele>
        <time>2021-08-06T10:15:37.355Z</time>
      </trkpt>
      <trkpt lat="46.95692" lon="8.73514">
        <ele>1233</ele>
        <time>2021-08-06T10:15:38.355Z</time>
      </trkpt>
      <trkpt lat="46.9569" lon="8.73513">
        <ele>1233</ele>
        <time>2021-08-06T10:15:39.354Z</time>
      </trkpt>
      <trkpt lat="46.9569" lon="8.73514">
        <ele>1233</ele>
        <time>2021-08-06T10:15:40.355Z</time>
      </trkpt>
      <trkpt lat="46.95689" lon="8.73514">
        <ele>1233</ele>
        <time>2021-08-06T10:15:41.354Z</time>
      </trkpt>
      <trkpt lat="46.95688" lon="8.73514">
        <ele>1233</ele>
        <time>2021-08-06T10:15:42.354Z</time>
      </trkpt>
      <trkpt lat="46.95687" lon="8.73514">
        <ele>1233</ele>
        <time>2021-08-06T10:15:43.354Z</time>
      </trkpt>
      <trkpt lat="46.95685" lon="8.73513">
        <ele>1233</ele>
        <time>2021-08-06T10:15:44.355Z</time>
      </trkpt>
      <trkpt lat="46.95684" lon="8.73513">
        <ele>1233</ele>
        <time>2021-08-06T10:15:45.354Z</time>
      </trkpt>
      <trkpt lat="46.95683" lon="8.73512">
        <ele>1233</ele>
        <time>2021-08-06T10:15:46.355Z</time>
      </trkpt>
      <trkpt lat="46.95683" lon="8.73513">
        <ele>1233</ele>
        <time>2021-08-06T10:15:47.355Z</time>
      </trkpt>
      <trkpt lat="46.95683" lon="8.73513">
        <ele>1233</ele>
        <time>2021-08-06T10:15:48.355Z</time>
      </trkpt>
      <trkpt lat="46.95682" lon="8.73513">
        <ele>1233</ele>
        <time>2021-08-06T10:15:49.355Z</time>
      </trkpt>
      <trkpt lat="46.95682" lon="8.73513">
        <ele>1233</ele>
        <time>2021-08-06T10:15:50.355Z</time>
      </trkpt>
      <trkpt lat="46.9568" lon="8.73512">
        <ele>1233</ele>
        <time>2021-08-06T10:15:51.355Z</time>
      </trkpt>
      <trkpt lat="46.9568" lon="8.73512">
        <ele>1233</ele>
        <time>2021-08-06T10:15:52.354Z</time>
      </trkpt>
      <trkpt lat="46.9568" lon="8.73512">
        <ele>1232</ele>
        <time>2021-08-06T10:15:53.355Z</time>
      </trkpt>
      <trkpt lat="46.95678" lon="8.73511">
        <ele>1232</ele>
        <time>2021-08-06T10:15:54.354Z</time>
      </trkpt>
      <trkpt lat="46.95678" lon="8.7351">
        <ele>1232</ele>
        <time>2021-08-06T10:15:55.355Z</time>
      </trkpt>
      <trkpt lat="46.95677" lon="8.7351">
        <ele>1232</ele>
        <time>2021-08-06T10:15:56.354Z</time>
      </trkpt>
      <trkpt lat="46.95676" lon="8.73509">
        <ele>1232</ele>
        <time>2021-08-06T10:15:57.354Z</time>
      </trkpt>
      <trkpt lat="46.95675" lon="8.73508">
        <ele>1232</ele>
        <time>2021-08-06T10:15:58.354Z</time>
      </trkpt>
      <trkpt lat="46.95674" lon="8.73508">
        <ele>1232</ele>
        <time>2021-08-06T10:15:59.355Z</time>
      </trkpt>
      <trkpt lat="46.95673" lon="8.73507">
        <ele>1232</ele>
        <time>2021-08-06T10:16:00.355Z</time>
      </trkpt>
      <trkpt lat="46.95672" lon="8.73507">
        <ele>1233</ele>
        <time>2021-08-06T10:16:01.354Z</time>
      </trkpt>
      <trkpt lat="46.95672" lon="8.73506">
        <ele>1233</ele>
        <time>2021-08-06T10:16:02.354Z</time>
      </trkpt>
      <trkpt lat="46.95672" lon="8.73505">
        <ele>1234</ele>
        <time>2021-08-06T10:16:03.355Z</time>
      </trkpt>
      <trkpt lat="46.95673" lon="8.73504">
        <ele>1234</ele>
        <time>2021-08-06T10:16:04.355Z</time>
      </trkpt>
      <trkpt lat="46.95673" lon="8.73504">
        <ele>1234</ele>
        <time>2021-08-06T10:16:05.355Z</time>
      </trkpt>
      <trkpt lat="46.95674" lon="8.73504">
        <ele>1235</ele>
        <time>2021-08-06T10:16:06.354Z</time>
      </trkpt>
      <trkpt lat="46.95676" lon="8.73503">
        <ele>1235</ele>
        <time>2021-08-06T10:16:07.355Z</time>
      </trkpt>
      <trkpt lat="46.95677" lon="8.73503">
        <ele>1236</ele>
        <time>2021-08-06T10:16:08.354Z</time>
      </trkpt>
      <trkpt lat="46.95678" lon="8.73502">
        <ele>1236</ele>
        <time>2021-08-06T10:16:09.355Z</time>
      </trkpt>
      <trkpt lat="46.95678" lon="8.73502">
        <ele>1237</ele>
        <time>2021-08-06T10:16:10.355Z</time>
      </trkpt>
      <trkpt lat="46.95679" lon="8.73501">
        <ele>1237</ele>
        <time>2021-08-06T10:16:11.354Z</time>
      </trkpt>
      <trkpt lat="46.9568" lon="8.73501">
        <ele>1238</ele>
        <time>2021-08-06T10:16:12.354Z</time>
      </trkpt>
      <trkpt lat="46.95682" lon="8.73502">
        <ele>1238</ele>
        <time>2021-08-06T10:16:13.354Z</time>
      </trkpt>
      <trkpt lat="46.95683" lon="8.73501">
        <ele>1239</ele>
        <time>2021-08-06T10:16:14.355Z</time>
      </trkpt>
      <trkpt lat="46.95684" lon="8.73501">
        <ele>1240</ele>
        <time>2021-08-06T10:16:15.354Z</time>
      </trkpt>
      <trkpt lat="46.95684" lon="8.735">
        <ele>1241</ele>
        <time>2021-08-06T10:16:16.355Z</time>
      </trkpt>
      <trkpt lat="46.95685" lon="8.73499">
        <ele>1241</ele>
        <time>2021-08-06T10:16:17.354Z</time>
      </trkpt>
      <trkpt lat="46.95686" lon="8.73498">
        <ele>1242</ele>
        <time>2021-08-06T10:16:18.354Z</time>
      </trkpt>
      <trkpt lat="46.95688" lon="8.73497">
        <ele>1242</ele>
        <time>2021-08-06T10:16:19.354Z</time>
      </trkpt>
      <trkpt lat="46.95689" lon="8.73496">
        <ele>1243</ele>
        <time>2021-08-06T10:16:20.354Z</time>
      </trkpt>
      <trkpt lat="46.9569" lon="8.73496">
        <ele>1244</ele>
        <time>2021-08-06T10:16:21.354Z</time>
      </trkpt>
      <trkpt lat="46.95691" lon="8.73495">
        <ele>1244</ele>
        <time>2021-08-06T10:16:22.354Z</time>
      </trkpt>
      <trkpt lat="46.95692" lon="8.73494">
        <ele>1245</ele>
        <time>2021-08-06T10:16:23.354Z</time>
      </trkpt>
      <trkpt lat="46.95693" lon="8.73493">
        <ele>1245</ele>
        <time>2021-08-06T10:16:24.355Z</time>
      </trkpt>
      <trkpt lat="46.95694" lon="8.73492">
        <ele>1245</ele>
        <time>2021-08-06T10:16:25.355Z</time>
      </trkpt>
      <trkpt lat="46.95695" lon="8.73492">
        <ele>1246</ele>
        <time>2021-08-06T10:16:26.354Z</time>
      </trkpt>
      <trkpt lat="46.95696" lon="8.73491">
        <ele>1246</ele>
        <time>2021-08-06T10:16:27.355Z</time>
      </trkpt>
      <trkpt lat="46.95696" lon="8.73491">
        <ele>1246</ele>
        <time>2021-08-06T10:16:28.354Z</time>
      </trkpt>
      <trkpt lat="46.95696" lon="8.7349">
        <ele>1245</ele>
        <time>2021-08-06T10:16:29.355Z</time>
      </trkpt>
      <trkpt lat="46.95697" lon="8.7349">
        <ele>1245</ele>
        <time>2021-08-06T10:16:30.355Z</time>
      </trkpt>
      <trkpt lat="46.95697" lon="8.73489">
        <ele>1245</ele>
        <time>2021-08-06T10:16:31.354Z</time>
      </trkpt>
      <trkpt lat="46.95698" lon="8.73488">
        <ele>1244</ele>
        <time>2021-08-06T10:16:32.355Z</time>
      </trkpt>
      <trkpt lat="46.957" lon="8.73488">
        <ele>1244</ele>
        <time>2021-08-06T10:16:33.355Z</time>
      </trkpt>
      <trkpt lat="46.95701" lon="8.73487">
        <ele>1243</ele>
        <time>2021-08-06T10:16:34.355Z</time>
      </trkpt>
      <trkpt lat="46.95702" lon="8.73486">
        <ele>1243</ele>
        <time>2021-08-06T10:16:35.355Z</time>
      </trkpt>
      <trkpt lat="46.95702" lon="8.73486">
        <ele>1242</ele>
        <time>2021-08-06T10:16:36.355Z</time>
      </trkpt>
      <trkpt lat="46.95703" lon="8.73485">
        <ele>1241</ele>
        <time>2021-08-06T10:16:37.355Z</time>
      </trkpt>
      <trkpt lat="46.95704" lon="8.73484">
        <ele>1240</ele>
        <time>2021-08-06T10:16:38.354Z</time>
      </trkpt>
      <trkpt lat="46.95705" lon="8.73484">
        <ele>1240</ele>
        <time>2021-08-06T10:16:39.354Z</time>
      </trkpt>
      <trkpt lat="46.95706" lon="8.73484">
        <ele>1239</ele>
        <time>2021-08-06T10:16:40.355Z</time>
      </trkpt>
      <trkpt lat="46.95706" lon="8.73483">
        <ele>1239</ele>
        <time>2021-08-06T10:16:41.355Z</time>
      </trkpt>
      <trkpt lat="46.95707" lon="8.73483">
        <ele>1238</ele>
        <time>2021-08-06T10:16:42.355Z</time>
      </trkpt>
      <trkpt lat="46.95707" lon="8.73483">
        <ele>1237</ele>
        <time>2021-08-06T10:16:43.355Z</time>
      </trkpt>
      <trkpt lat="46.95708" lon="8.73483">
        <ele>1237</ele>
        <time>2021-08-06T10:16:44.355Z</time>
      </trkpt>
      <trkpt lat="46.95708" lon="8.73483">
        <ele>1236</ele>
        <time>2021-08-06T10:16:45.354Z</time>
      </trkpt>
      <trkpt lat="46.95709" lon="8.73482">
        <ele>1236</ele>
        <time>2021-08-06T10:16:46.355Z</time>
      </trkpt>
      <trkpt lat="46.9571" lon="8.73482">
        <ele>1236</ele>
        <time>2021-08-06T10:16:47.354Z</time>
      </trkpt>
      <trkpt lat="46.95711" lon="8.73482">
        <ele>1236</ele>
        <time>2021-08-06T10:16:48.354Z</time>
      </trkpt>
      <trkpt lat="46.95712" lon="8.73482">
        <ele>1236</ele>
        <time>2021-08-06T10:16:49.355Z</time>
      </trkpt>
      <trkpt lat="46.95712" lon="8.73482">
        <ele>1236</ele>
        <time>2021-08-06T10:16:50.355Z</time>
      </trkpt>
      <trkpt lat="46.95713" lon="8.73482">
        <ele>1236</ele>
        <time>2021-08-06T10:16:51.355Z</time>
      </trkpt>
      <trkpt lat="46.95714" lon="8.73481">
        <ele>1236</ele>
        <time>2021-08-06T10:16:52.355Z</time>
      </trkpt>
      <trkpt lat="46.95715" lon="8.73479">
        <ele>1236</ele>
        <time>2021-08-06T10:16:53.355Z</time>
      </trkpt>
      <trkpt lat="46.95716" lon="8.73477">
        <ele>1236</ele>
        <time>2021-08-06T10:16:54.354Z</time>
      </trkpt>
      <trkpt lat="46.95717" lon="8.73476">
        <ele>1236</ele>
        <time>2021-08-06T10:16:55.355Z</time>
      </trkpt>
      <trkpt lat="46.95718" lon="8.73474">
        <ele>1236</ele>
        <time>2021-08-06T10:16:56.355Z</time>
      </trkpt>
      <trkpt lat="46.95718" lon="8.73472">
        <ele>1237</ele>
        <time>2021-08-06T10:16:57.355Z</time>
      </trkpt>
      <trkpt lat="46.95717" lon="8.73471">
        <ele>1237</ele>
        <time>2021-08-06T10:16:58.355Z</time>
      </trkpt>
      <trkpt lat="46.95715" lon="8.7347">
        <ele>1238</ele>
        <time>2021-08-06T10:16:59.355Z</time>
      </trkpt>
      <trkpt lat="46.95714" lon="8.73469">
        <ele>1238</ele>
        <time>2021-08-06T10:17:00.355Z</time>
      </trkpt>
      <trkpt lat="46.95714" lon="8.73467">
        <ele>1239</ele>
        <time>2021-08-06T10:17:01.354Z</time>
      </trkpt>
      <trkpt lat="46.95712" lon="8.73467">
        <ele>1239</ele>
        <time>2021-08-06T10:17:02.355Z</time>
      </trkpt>
      <trkpt lat="46.95711" lon="8.73466">
        <ele>1240</ele>
        <time>2021-08-06T10:17:03.355Z</time>
      </trkpt>
      <trkpt lat="46.95709" lon="8.73466">
        <ele>1241</ele>
        <time>2021-08-06T10:17:04.355Z</time>
      </trkpt>
      <trkpt lat="46.95707" lon="8.73465">
        <ele>1241</ele>
        <time>2021-08-06T10:17:05.355Z</time>
      </trkpt>
      <trkpt lat="46.95706" lon="8.73464">
        <ele>1242</ele>
        <time>2021-08-06T10:17:06.355Z</time>
      </trkpt>
      <trkpt lat="46.95704" lon="8.73463">
        <ele>1243</ele>
        <time>2021-08-06T10:17:07.354Z</time>
      </trkpt>
      <trkpt lat="46.95703" lon="8.73462">
        <ele>1243</ele>
        <time>2021-08-06T10:17:08.354Z</time>
      </trkpt>
      <trkpt lat="46.95702" lon="8.73462">
        <ele>1244</ele>
        <time>2021-08-06T10:17:09.354Z</time>
      </trkpt>
      <trkpt lat="46.95701" lon="8.73461">
        <ele>1246</ele>
        <time>2021-08-06T10:17:10.354Z</time>
      </trkpt>
      <trkpt lat="46.95701" lon="8.7346">
        <ele>1246</ele>
        <time>2021-08-06T10:17:11.354Z</time>
      </trkpt>
      <trkpt lat="46.957" lon="8.73459">
        <ele>1247</ele>
        <time>2021-08-06T10:17:12.355Z</time>
      </trkpt>
      <trkpt lat="46.95699" lon="8.73458">
        <ele>1248</ele>
        <time>2021-08-06T10:17:13.355Z</time>
      </trkpt>
      <trkpt lat="46.95699" lon="8.73457">
        <ele>1248</ele>
        <time>2021-08-06T10:17:14.355Z</time>
      </trkpt>
      <trkpt lat="46.95699" lon="8.73457">
        <ele>1249</ele>
        <time>2021-08-06T10:17:15.354Z</time>
      </trkpt>
      <trkpt lat="46.95698" lon="8.73456">
        <ele>1249</ele>
        <time>2021-08-06T10:17:16.355Z</time>
      </trkpt>
      <trkpt lat="46.95697" lon="8.73456">
        <ele>1250</ele>
        <time>2021-08-06T10:17:17.355Z</time>
      </trkpt>
      <trkpt lat="46.95695" lon="8.73455">
        <ele>1250</ele>
        <time>2021-08-06T10:17:18.355Z</time>
      </trkpt>
      <trkpt lat="46.95694" lon="8.73454">
        <ele>1251</ele>
        <time>2021-08-06T10:17:19.355Z</time>
      </trkpt>
      <trkpt lat="46.95694" lon="8.73454">
        <ele>1251</ele>
        <time>2021-08-06T10:17:20.354Z</time>
      </trkpt>
      <trkpt lat="46.95694" lon="8.73454">
        <ele>1252</ele>
        <time>2021-08-06T10:17:21.355Z</time>
      </trkpt>
      <trkpt lat="46.95693" lon="8.73453">
        <ele>1252</ele>
        <time>2021-08-06T10:17:22.355Z</time>
      </trkpt>
      <trkpt lat="46.95692" lon="8.73453">
        <ele>1252</ele>
        <time>2021-08-06T10:17:23.354Z</time>
      </trkpt>
      <trkpt lat="46.95691" lon="8.73453">
        <ele>1252</ele>
        <time>2021-08-06T10:17:24.355Z</time>
      </trkpt>
      <trkpt lat="46.9569" lon="8.73452">
        <ele>1252</ele>
        <time>2021-08-06T10:17:25.355Z</time>
      </trkpt>
      <trkpt lat="46.9569" lon="8.73452">
        <ele>1252</ele>
        <time>2021-08-06T10:17:26.355Z</time>
      </trkpt>
      <trkpt lat="46.95689" lon="8.73451">
        <ele>1253</ele>
        <time>2021-08-06T10:17:27.354Z</time>
      </trkpt>
      <trkpt lat="46.95689" lon="8.7345">
        <ele>1253</ele>
        <time>2021-08-06T10:17:28.354Z</time>
      </trkpt>
      <trkpt lat="46.95688" lon="8.7345">
        <ele>1253</ele>
        <time>2021-08-06T10:17:29.355Z</time>
      </trkpt>
      <trkpt lat="46.95687" lon="8.73449">
        <ele>1254</ele>
        <time>2021-08-06T10:17:30.354Z</time>
      </trkpt>
      <trkpt lat="46.95686" lon="8.73449">
        <ele>1254</ele>
        <time>2021-08-06T10:17:31.354Z</time>
      </trkpt>
      <trkpt lat="46.95685" lon="8.73449">
        <ele>1254</ele>
        <time>2021-08-06T10:17:32.354Z</time>
      </trkpt>
      <trkpt lat="46.95685" lon="8.73449">
        <ele>1254</ele>
        <time>2021-08-06T10:17:33.354Z</time>
      </trkpt>
      <trkpt lat="46.95684" lon="8.73447">
        <ele>1254</ele>
        <time>2021-08-06T10:17:34.355Z</time>
      </trkpt>
      <trkpt lat="46.95684" lon="8.73446">
        <ele>1254</ele>
        <time>2021-08-06T10:17:35.354Z</time>
      </trkpt>
      <trkpt lat="46.95683" lon="8.73445">
        <ele>1255</ele>
        <time>2021-08-06T10:17:36.354Z</time>
      </trkpt>
      <trkpt lat="46.95682" lon="8.73445">
        <ele>1255</ele>
        <time>2021-08-06T10:17:37.355Z</time>
      </trkpt>
      <trkpt lat="46.95681" lon="8.73445">
        <ele>1255</ele>
        <time>2021-08-06T10:17:38.354Z</time>
      </trkpt>
      <trkpt lat="46.95681" lon="8.73444">
        <ele>1255</ele>
        <time>2021-08-06T10:17:39.354Z</time>
      </trkpt>
      <trkpt lat="46.9568" lon="8.73444">
        <ele>1256</ele>
        <time>2021-08-06T10:17:40.354Z</time>
      </trkpt>
      <trkpt lat="46.95679" lon="8.73443">
        <ele>1256</ele>
        <time>2021-08-06T10:17:41.355Z</time>
      </trkpt>
      <trkpt lat="46.95678" lon="8.73443">
        <ele>1256</ele>
        <time>2021-08-06T10:17:42.355Z</time>
      </trkpt>
      <trkpt lat="46.95678" lon="8.73442">
        <ele>1256</ele>
        <time>2021-08-06T10:17:43.355Z</time>
      </trkpt>
      <trkpt lat="46.95677" lon="8.73441">
        <ele>1256</ele>
        <time>2021-08-06T10:17:44.355Z</time>
      </trkpt>
      <trkpt lat="46.95677" lon="8.7344">
        <ele>1256</ele>
        <time>2021-08-06T10:17:45.355Z</time>
      </trkpt>
      <trkpt lat="46.95677" lon="8.73439">
        <ele>1257</ele>
        <time>2021-08-06T10:17:46.355Z</time>
      </trkpt>
      <trkpt lat="46.95677" lon="8.73438">
        <ele>1257</ele>
        <time>2021-08-06T10:17:47.355Z</time>
      </trkpt>
      <trkpt lat="46.95677" lon="8.73437">
        <ele>1257</ele>
        <time>2021-08-06T10:17:48.355Z</time>
      </trkpt>
      <trkpt lat="46.95677" lon="8.73436">
        <ele>1257</ele>
        <time>2021-08-06T10:17:49.355Z</time>
      </trkpt>
      <trkpt lat="46.95677" lon="8.73436">
        <ele>1258</ele>
        <time>2021-08-06T10:17:50.355Z</time>
      </trkpt>
      <trkpt lat="46.95676" lon="8.73435">
        <ele>1258</ele>
        <time>2021-08-06T10:17:51.354Z</time>
      </trkpt>
      <trkpt lat="46.95676" lon="8.73434">
        <ele>1258</ele>
        <time>2021-08-06T10:17:52.355Z</time>
      </trkpt>
      <trkpt lat="46.95677" lon="8.73433">
        <ele>1257</ele>
        <time>2021-08-06T10:17:53.355Z</time>
      </trkpt>
      <trkpt lat="46.95676" lon="8.73431">
        <ele>1257</ele>
        <time>2021-08-06T10:17:54.355Z</time>
      </trkpt>
      <trkpt lat="46.95676" lon="8.73431">
        <ele>1257</ele>
        <time>2021-08-06T10:17:55.354Z</time>
      </trkpt>
      <trkpt lat="46.95675" lon="8.73429">
        <ele>1258</ele>
        <time>2021-08-06T10:17:56.355Z</time>
      </trkpt>
      <trkpt lat="46.95674" lon="8.73428">
        <ele>1258</ele>
        <time>2021-08-06T10:17:57.355Z</time>
      </trkpt>
      <trkpt lat="46.95674" lon="8.73427">
        <ele>1258</ele>
        <time>2021-08-06T10:17:58.355Z</time>
      </trkpt>
      <trkpt lat="46.95673" lon="8.73426">
        <ele>1258</ele>
        <time>2021-08-06T10:17:59.354Z</time>
      </trkpt>
      <trkpt lat="46.95673" lon="8.73425">
        <ele>1258</ele>
        <time>2021-08-06T10:18:00.355Z</time>
      </trkpt>
      <trkpt lat="46.95673" lon="8.73425">
        <ele>1258</ele>
        <time>2021-08-06T10:18:01.355Z</time>
      </trkpt>
      <trkpt lat="46.95673" lon="8.73423">
        <ele>1257</ele>
        <time>2021-08-06T10:18:02.355Z</time>
      </trkpt>
      <trkpt lat="46.95673" lon="8.73422">
        <ele>1257</ele>
        <time>2021-08-06T10:18:03.355Z</time>
      </trkpt>
      <trkpt lat="46.95673" lon="8.73421">
        <ele>1257</ele>
        <time>2021-08-06T10:18:04.354Z</time>
      </trkpt>
      <trkpt lat="46.95673" lon="8.7342">
        <ele>1257</ele>
        <time>2021-08-06T10:18:05.354Z</time>
      </trkpt>
      <trkpt lat="46.95673" lon="8.73419">
        <ele>1257</ele>
        <time>2021-08-06T10:18:06.355Z</time>
      </trkpt>
      <trkpt lat="46.95673" lon="8.73418">
        <ele>1256</ele>
        <time>2021-08-06T10:18:07.355Z</time>
      </trkpt>
      <trkpt lat="46.95674" lon="8.73416">
        <ele>1256</ele>
        <time>2021-08-06T10:18:08.354Z</time>
      </trkpt>
      <trkpt lat="46.95673" lon="8.73415">
        <ele>1256</ele>
        <time>2021-08-06T10:18:09.355Z</time>
      </trkpt>
      <trkpt lat="46.95672" lon="8.73414">
        <ele>1255</ele>
        <time>2021-08-06T10:18:10.354Z</time>
      </trkpt>
      <trkpt lat="46.95671" lon="8.73413">
        <ele>1255</ele>
        <time>2021-08-06T10:18:11.354Z</time>
      </trkpt>
      <trkpt lat="46.9567" lon="8.73412">
        <ele>1255</ele>
        <time>2021-08-06T10:18:12.355Z</time>
      </trkpt>
      <trkpt lat="46.9567" lon="8.73412">
        <ele>1255</ele>
        <time>2021-08-06T10:18:13.355Z</time>
      </trkpt>
      <trkpt lat="46.95669" lon="8.73411">
        <ele>1255</ele>
        <time>2021-08-06T10:18:14.354Z</time>
      </trkpt>
      <trkpt lat="46.95668" lon="8.7341">
        <ele>1256</ele>
        <time>2021-08-06T10:18:15.355Z</time>
      </trkpt>
      <trkpt lat="46.95668" lon="8.73409">
        <ele>1256</ele>
        <time>2021-08-06T10:18:16.355Z</time>
      </trkpt>
      <trkpt lat="46.95667" lon="8.73407">
        <ele>1256</ele>
        <time>2021-08-06T10:18:17.355Z</time>
      </trkpt>
      <trkpt lat="46.95666" lon="8.73406">
        <ele>1256</ele>
        <time>2021-08-06T10:18:18.355Z</time>
      </trkpt>
      <trkpt lat="46.95664" lon="8.73405">
        <ele>1256</ele>
        <time>2021-08-06T10:18:19.355Z</time>
      </trkpt>
      <trkpt lat="46.95664" lon="8.73404">
        <ele>1256</ele>
        <time>2021-08-06T10:18:20.355Z</time>
      </trkpt>
      <trkpt lat="46.95663" lon="8.73403">
        <ele>1257</ele>
        <time>2021-08-06T10:18:21.355Z</time>
      </trkpt>
      <trkpt lat="46.95663" lon="8.73402">
        <ele>1257</ele>
        <time>2021-08-06T10:18:22.355Z</time>
      </trkpt>
      <trkpt lat="46.95663" lon="8.73401">
        <ele>1258</ele>
        <time>2021-08-06T10:18:23.355Z</time>
      </trkpt>
      <trkpt lat="46.95662" lon="8.734">
        <ele>1258</ele>
        <time>2021-08-06T10:18:24.355Z</time>
      </trkpt>
      <trkpt lat="46.95662" lon="8.734">
        <ele>1259</ele>
        <time>2021-08-06T10:18:25.355Z</time>
      </trkpt>
      <trkpt lat="46.95661" lon="8.73399">
        <ele>1259</ele>
        <time>2021-08-06T10:18:26.355Z</time>
      </trkpt>
      <trkpt lat="46.9566" lon="8.73398">
        <ele>1259</ele>
        <time>2021-08-06T10:18:27.355Z</time>
      </trkpt>
      <trkpt lat="46.95659" lon="8.73396">
        <ele>1260</ele>
        <time>2021-08-06T10:18:28.355Z</time>
      </trkpt>
      <trkpt lat="46.95658" lon="8.73395">
        <ele>1260</ele>
        <time>2021-08-06T10:18:29.354Z</time>
      </trkpt>
      <trkpt lat="46.95657" lon="8.73394">
        <ele>1260</ele>
        <time>2021-08-06T10:18:30.354Z</time>
      </trkpt>
      <trkpt lat="46.95656" lon="8.73394">
        <ele>1260</ele>
        <time>2021-08-06T10:18:31.355Z</time>
      </trkpt>
      <trkpt lat="46.95655" lon="8.73394">
        <ele>1260</ele>
        <time>2021-08-06T10:18:32.355Z</time>
      </trkpt>
      <trkpt lat="46.95654" lon="8.73393">
        <ele>1260</ele>
        <time>2021-08-06T10:18:33.355Z</time>
      </trkpt>
      <trkpt lat="46.95652" lon="8.73391">
        <ele>1260</ele>
        <time>2021-08-06T10:18:34.355Z</time>
      </trkpt>
      <trkpt lat="46.95652" lon="8.73391">
        <ele>1260</ele>
        <time>2021-08-06T10:18:35.356Z</time>
      </trkpt>
      <trkpt lat="46.95653" lon="8.73391">
        <ele>1259</ele>
        <time>2021-08-06T10:18:36.355Z</time>
      </trkpt>
      <trkpt lat="46.95653" lon="8.7339">
        <ele>1259</ele>
        <time>2021-08-06T10:18:37.356Z</time>
      </trkpt>
      <trkpt lat="46.95654" lon="8.73389">
        <ele>1259</ele>
        <time>2021-08-06T10:18:38.355Z</time>
      </trkpt>
      <trkpt lat="46.95654" lon="8.73389">
        <ele>1259</ele>
        <time>2021-08-06T10:18:39.355Z</time>
      </trkpt>
      <trkpt lat="46.95654" lon="8.73388">
        <ele>1258</ele>
        <time>2021-08-06T10:18:40.356Z</time>
      </trkpt>
      <trkpt lat="46.95654" lon="8.73387">
        <ele>1258</ele>
        <time>2021-08-06T10:18:41.356Z</time>
      </trkpt>
      <trkpt lat="46.95654" lon="8.73386">
        <ele>1258</ele>
        <time>2021-08-06T10:18:42.356Z</time>
      </trkpt>
      <trkpt lat="46.95653" lon="8.73385">
        <ele>1258</ele>
        <time>2021-08-06T10:18:43.356Z</time>
      </trkpt>
      <trkpt lat="46.95653" lon="8.73384">
        <ele>1258</ele>
        <time>2021-08-06T10:18:44.355Z</time>
      </trkpt>
      <trkpt lat="46.95652" lon="8.73383">
        <ele>1258</ele>
        <time>2021-08-06T10:18:45.356Z</time>
      </trkpt>
      <trkpt lat="46.95651" lon="8.73382">
        <ele>1258</ele>
        <time>2021-08-06T10:18:46.356Z</time>
      </trkpt>
      <trkpt lat="46.95651" lon="8.73382">
        <ele>1259</ele>
        <time>2021-08-06T10:18:47.355Z</time>
      </trkpt>
      <trkpt lat="46.9565" lon="8.73381">
        <ele>1259</ele>
        <time>2021-08-06T10:18:48.356Z</time>
      </trkpt>
      <trkpt lat="46.9565" lon="8.7338">
        <ele>1259</ele>
        <time>2021-08-06T10:18:49.356Z</time>
      </trkpt>
      <trkpt lat="46.9565" lon="8.73379">
        <ele>1259</ele>
        <time>2021-08-06T10:18:50.356Z</time>
      </trkpt>
      <trkpt lat="46.95651" lon="8.73379">
        <ele>1260</ele>
        <time>2021-08-06T10:18:51.356Z</time>
      </trkpt>
      <trkpt lat="46.95651" lon="8.73378">
        <ele>1260</ele>
        <time>2021-08-06T10:18:52.355Z</time>
      </trkpt>
      <trkpt lat="46.95651" lon="8.73377">
        <ele>1260</ele>
        <time>2021-08-06T10:18:53.355Z</time>
      </trkpt>
      <trkpt lat="46.9565" lon="8.73376">
        <ele>1260</ele>
        <time>2021-08-06T10:18:54.356Z</time>
      </trkpt>
      <trkpt lat="46.95649" lon="8.73376">
        <ele>1260</ele>
        <time>2021-08-06T10:18:55.356Z</time>
      </trkpt>
      <trkpt lat="46.95648" lon="8.73375">
        <ele>1261</ele>
        <time>2021-08-06T10:18:56.355Z</time>
      </trkpt>
      <trkpt lat="46.95647" lon="8.73374">
        <ele>1261</ele>
        <time>2021-08-06T10:18:57.355Z</time>
      </trkpt>
      <trkpt lat="46.95647" lon="8.73373">
        <ele>1261</ele>
        <time>2021-08-06T10:18:58.356Z</time>
      </trkpt>
      <trkpt lat="46.95646" lon="8.73373">
        <ele>1261</ele>
        <time>2021-08-06T10:18:59.356Z</time>
      </trkpt>
      <trkpt lat="46.95646" lon="8.73372">
        <ele>1261</ele>
        <time>2021-08-06T10:19:00.355Z</time>
      </trkpt>
      <trkpt lat="46.95646" lon="8.73371">
        <ele>1261</ele>
        <time>2021-08-06T10:19:01.355Z</time>
      </trkpt>
      <trkpt lat="46.95645" lon="8.73371">
        <ele>1261</ele>
        <time>2021-08-06T10:19:02.355Z</time>
      </trkpt>
      <trkpt lat="46.95645" lon="8.7337">
        <ele>1262</ele>
        <time>2021-08-06T10:19:03.356Z</time>
      </trkpt>
      <trkpt lat="46.95645" lon="8.7337">
        <ele>1262</ele>
        <time>2021-08-06T10:19:04.356Z</time>
      </trkpt>
      <trkpt lat="46.95645" lon="8.73369">
        <ele>1262</ele>
        <time>2021-08-06T10:19:05.356Z</time>
      </trkpt>
      <trkpt lat="46.95645" lon="8.73369">
        <ele>1262</ele>
        <time>2021-08-06T10:19:06.356Z</time>
      </trkpt>
      <trkpt lat="46.95645" lon="8.73368">
        <ele>1262</ele>
        <time>2021-08-06T10:19:07.355Z</time>
      </trkpt>
      <trkpt lat="46.95645" lon="8.73367">
        <ele>1262</ele>
        <time>2021-08-06T10:19:08.355Z</time>
      </trkpt>
      <trkpt lat="46.95645" lon="8.73367">
        <ele>1262</ele>
        <time>2021-08-06T10:19:09.355Z</time>
      </trkpt>
      <trkpt lat="46.95644" lon="8.73366">
        <ele>1262</ele>
        <time>2021-08-06T10:19:10.356Z</time>
      </trkpt>
      <trkpt lat="46.95643" lon="8.73366">
        <ele>1262</ele>
        <time>2021-08-06T10:19:11.355Z</time>
      </trkpt>
      <trkpt lat="46.95643" lon="8.73365">
        <ele>1263</ele>
        <time>2021-08-06T10:19:12.355Z</time>
      </trkpt>
      <trkpt lat="46.95643" lon="8.73365">
        <ele>1264</ele>
        <time>2021-08-06T10:19:13.356Z</time>
      </trkpt>
      <trkpt lat="46.95643" lon="8.73363">
        <ele>1264</ele>
        <time>2021-08-06T10:19:14.356Z</time>
      </trkpt>
      <trkpt lat="46.95644" lon="8.73363">
        <ele>1264</ele>
        <time>2021-08-06T10:19:15.356Z</time>
      </trkpt>
      <trkpt lat="46.95643" lon="8.73362">
        <ele>1264</ele>
        <time>2021-08-06T10:19:16.356Z</time>
      </trkpt>
      <trkpt lat="46.95643" lon="8.7336">
        <ele>1264</ele>
        <time>2021-08-06T10:19:17.356Z</time>
      </trkpt>
      <trkpt lat="46.95643" lon="8.7336">
        <ele>1264</ele>
        <time>2021-08-06T10:19:18.356Z</time>
      </trkpt>
      <trkpt lat="46.95643" lon="8.73359">
        <ele>1264</ele>
        <time>2021-08-06T10:19:19.356Z</time>
      </trkpt>
      <trkpt lat="46.95643" lon="8.73359">
        <ele>1264</ele>
        <time>2021-08-06T10:19:20.356Z</time>
      </trkpt>
      <trkpt lat="46.95642" lon="8.73359">
        <ele>1263</ele>
        <time>2021-08-06T10:19:21.356Z</time>
      </trkpt>
      <trkpt lat="46.95642" lon="8.73358">
        <ele>1263</ele>
        <time>2021-08-06T10:19:22.355Z</time>
      </trkpt>
      <trkpt lat="46.95642" lon="8.73357">
        <ele>1263</ele>
        <time>2021-08-06T10:19:23.355Z</time>
      </trkpt>
      <trkpt lat="46.95642" lon="8.73357">
        <ele>1263</ele>
        <time>2021-08-06T10:19:24.355Z</time>
      </trkpt>
      <trkpt lat="46.95642" lon="8.73356">
        <ele>1263</ele>
        <time>2021-08-06T10:19:25.355Z</time>
      </trkpt>
      <trkpt lat="46.95641" lon="8.73356">
        <ele>1263</ele>
        <time>2021-08-06T10:19:26.356Z</time>
      </trkpt>
      <trkpt lat="46.95641" lon="8.73355">
        <ele>1263</ele>
        <time>2021-08-06T10:19:27.355Z</time>
      </trkpt>
      <trkpt lat="46.9564" lon="8.73354">
        <ele>1263</ele>
        <time>2021-08-06T10:19:28.356Z</time>
      </trkpt>
      <trkpt lat="46.95639" lon="8.73354">
        <ele>1263</ele>
        <time>2021-08-06T10:19:29.355Z</time>
      </trkpt>
      <trkpt lat="46.95639" lon="8.73353">
        <ele>1263</ele>
        <time>2021-08-06T10:19:30.356Z</time>
      </trkpt>
      <trkpt lat="46.95639" lon="8.73352">
        <ele>1263</ele>
        <time>2021-08-06T10:19:31.356Z</time>
      </trkpt>
      <trkpt lat="46.95639" lon="8.73351">
        <ele>1263</ele>
        <time>2021-08-06T10:19:32.356Z</time>
      </trkpt>
      <trkpt lat="46.95638" lon="8.7335">
        <ele>1263</ele>
        <time>2021-08-06T10:19:33.355Z</time>
      </trkpt>
      <trkpt lat="46.95636" lon="8.73349">
        <ele>1264</ele>
        <time>2021-08-06T10:19:34.356Z</time>
      </trkpt>
      <trkpt lat="46.95636" lon="8.73349">
        <ele>1264</ele>
        <time>2021-08-06T10:19:35.355Z</time>
      </trkpt>
      <trkpt lat="46.95635" lon="8.73348">
        <ele>1264</ele>
        <time>2021-08-06T10:19:36.355Z</time>
      </trkpt>
      <trkpt lat="46.95635" lon="8.73347">
        <ele>1264</ele>
        <time>2021-08-06T10:19:37.355Z</time>
      </trkpt>
      <trkpt lat="46.95636" lon="8.73346">
        <ele>1264</ele>
        <time>2021-08-06T10:19:38.355Z</time>
      </trkpt>
      <trkpt lat="46.95636" lon="8.73345">
        <ele>1264</ele>
        <time>2021-08-06T10:19:39.356Z</time>
      </trkpt>
      <trkpt lat="46.95636" lon="8.73344">
        <ele>1264</ele>
        <time>2021-08-06T10:19:40.355Z</time>
      </trkpt>
      <trkpt lat="46.95636" lon="8.73343">
        <ele>1264</ele>
        <time>2021-08-06T10:19:41.356Z</time>
      </trkpt>
      <trkpt lat="46.95635" lon="8.73342">
        <ele>1265</ele>
        <time>2021-08-06T10:19:42.355Z</time>
      </trkpt>
      <trkpt lat="46.95635" lon="8.73341">
        <ele>1265</ele>
        <time>2021-08-06T10:19:43.355Z</time>
      </trkpt>
      <trkpt lat="46.95634" lon="8.7334">
        <ele>1265</ele>
        <time>2021-08-06T10:19:44.356Z</time>
      </trkpt>
      <trkpt lat="46.95633" lon="8.73339">
        <ele>1265</ele>
        <time>2021-08-06T10:19:45.355Z</time>
      </trkpt>
      <trkpt lat="46.95632" lon="8.73338">
        <ele>1265</ele>
        <time>2021-08-06T10:19:46.355Z</time>
      </trkpt>
      <trkpt lat="46.95631" lon="8.73336">
        <ele>1265</ele>
        <time>2021-08-06T10:19:47.356Z</time>
      </trkpt>
      <trkpt lat="46.95631" lon="8.73335">
        <ele>1265</ele>
        <time>2021-08-06T10:19:48.355Z</time>
      </trkpt>
      <trkpt lat="46.9563" lon="8.73333">
        <ele>1266</ele>
        <time>2021-08-06T10:19:49.356Z</time>
      </trkpt>
      <trkpt lat="46.95629" lon="8.73331">
        <ele>1266</ele>
        <time>2021-08-06T10:19:50.355Z</time>
      </trkpt>
      <trkpt lat="46.95628" lon="8.73329">
        <ele>1266</ele>
        <time>2021-08-06T10:19:51.355Z</time>
      </trkpt>
      <trkpt lat="46.95628" lon="8.73328">
        <ele>1266</ele>
        <time>2021-08-06T10:19:52.355Z</time>
      </trkpt>
      <trkpt lat="46.95627" lon="8.73326">
        <ele>1266</ele>
        <time>2021-08-06T10:19:53.356Z</time>
      </trkpt>
      <trkpt lat="46.95627" lon="8.73325">
        <ele>1267</ele>
        <time>2021-08-06T10:19:54.356Z</time>
      </trkpt>
      <trkpt lat="46.95627" lon="8.73325">
        <ele>1267</ele>
        <time>2021-08-06T10:19:55.356Z</time>
      </trkpt>
      <trkpt lat="46.95628" lon="8.73324">
        <ele>1267</ele>
        <time>2021-08-06T10:19:56.356Z</time>
      </trkpt>
      <trkpt lat="46.95628" lon="8.73324">
        <ele>1267</ele>
        <time>2021-08-06T10:19:57.356Z</time>
      </trkpt>
      <trkpt lat="46.95628" lon="8.73324">
        <ele>1267</ele>
        <time>2021-08-06T10:19:58.355Z</time>
      </trkpt>
      <trkpt lat="46.95628" lon="8.73323">
        <ele>1267</ele>
        <time>2021-08-06T10:19:59.355Z</time>
      </trkpt>
      <trkpt lat="46.95628" lon="8.73322">
        <ele>1267</ele>
        <time>2021-08-06T10:20:00.356Z</time>
      </trkpt>
      <trkpt lat="46.95628" lon="8.73321">
        <ele>1267</ele>
        <time>2021-08-06T10:20:01.355Z</time>
      </trkpt>
      <trkpt lat="46.95628" lon="8.7332">
        <ele>1267</ele>
        <time>2021-08-06T10:20:02.356Z</time>
      </trkpt>
      <trkpt lat="46.95628" lon="8.73319">
        <ele>1266</ele>
        <time>2021-08-06T10:20:03.356Z</time>
      </trkpt>
      <trkpt lat="46.95627" lon="8.73318">
        <ele>1266</ele>
        <time>2021-08-06T10:20:04.355Z</time>
      </trkpt>
      <trkpt lat="46.95627" lon="8.73317">
        <ele>1266</ele>
        <time>2021-08-06T10:20:05.356Z</time>
      </trkpt>
      <trkpt lat="46.95626" lon="8.73317">
        <ele>1266</ele>
        <time>2021-08-06T10:20:06.355Z</time>
      </trkpt>
      <trkpt lat="46.95626" lon="8.73316">
        <ele>1266</ele>
        <time>2021-08-06T10:20:07.356Z</time>
      </trkpt>
      <trkpt lat="46.95626" lon="8.73316">
        <ele>1266</ele>
        <time>2021-08-06T10:20:08.355Z</time>
      </trkpt>
      <trkpt lat="46.95625" lon="8.73315">
        <ele>1266</ele>
        <time>2021-08-06T10:20:09.355Z</time>
      </trkpt>
      <trkpt lat="46.95625" lon="8.73314">
        <ele>1266</ele>
        <time>2021-08-06T10:20:10.355Z</time>
      </trkpt>
      <trkpt lat="46.95625" lon="8.73313">
        <ele>1266</ele>
        <time>2021-08-06T10:20:11.355Z</time>
      </trkpt>
      <trkpt lat="46.95624" lon="8.73312">
        <ele>1266</ele>
        <time>2021-08-06T10:20:12.355Z</time>
      </trkpt>
      <trkpt lat="46.95623" lon="8.73312">
        <ele>1266</ele>
        <time>2021-08-06T10:20:13.356Z</time>
      </trkpt>
      <trkpt lat="46.95623" lon="8.7331">
        <ele>1267</ele>
        <time>2021-08-06T10:20:14.355Z</time>
      </trkpt>
      <trkpt lat="46.95623" lon="8.7331">
        <ele>1267</ele>
        <time>2021-08-06T10:20:15.356Z</time>
      </trkpt>
      <trkpt lat="46.95623" lon="8.73308">
        <ele>1267</ele>
        <time>2021-08-06T10:20:16.355Z</time>
      </trkpt>
      <trkpt lat="46.95622" lon="8.73307">
        <ele>1267</ele>
        <time>2021-08-06T10:20:17.356Z</time>
      </trkpt>
      <trkpt lat="46.95622" lon="8.73305">
        <ele>1267</ele>
        <time>2021-08-06T10:20:18.356Z</time>
      </trkpt>
      <trkpt lat="46.95621" lon="8.73304">
        <ele>1267</ele>
        <time>2021-08-06T10:20:19.355Z</time>
      </trkpt>
      <trkpt lat="46.95621" lon="8.73304">
        <ele>1267</ele>
        <time>2021-08-06T10:20:20.355Z</time>
      </trkpt>
      <trkpt lat="46.9562" lon="8.73303">
        <ele>1268</ele>
        <time>2021-08-06T10:20:21.355Z</time>
      </trkpt>
      <trkpt lat="46.9562" lon="8.73302">
        <ele>1268</ele>
        <time>2021-08-06T10:20:22.356Z</time>
      </trkpt>
      <trkpt lat="46.95619" lon="8.73301">
        <ele>1269</ele>
        <time>2021-08-06T10:20:23.356Z</time>
      </trkpt>
      <trkpt lat="46.95619" lon="8.733">
        <ele>1269</ele>
        <time>2021-08-06T10:20:24.355Z</time>
      </trkpt>
      <trkpt lat="46.95618" lon="8.733">
        <ele>1270</ele>
        <time>2021-08-06T10:20:25.356Z</time>
      </trkpt>
      <trkpt lat="46.95618" lon="8.73299">
        <ele>1271</ele>
        <time>2021-08-06T10:20:26.355Z</time>
      </trkpt>
      <trkpt lat="46.95618" lon="8.73298">
        <ele>1272</ele>
        <time>2021-08-06T10:20:27.356Z</time>
      </trkpt>
      <trkpt lat="46.95618" lon="8.73297">
        <ele>1272</ele>
        <time>2021-08-06T10:20:28.355Z</time>
      </trkpt>
      <trkpt lat="46.95618" lon="8.73296">
        <ele>1273</ele>
        <time>2021-08-06T10:20:29.355Z</time>
      </trkpt>
      <trkpt lat="46.95618" lon="8.73294">
        <ele>1274</ele>
        <time>2021-08-06T10:20:30.356Z</time>
      </trkpt>
      <trkpt lat="46.95618" lon="8.73293">
        <ele>1274</ele>
        <time>2021-08-06T10:20:31.355Z</time>
      </trkpt>
      <trkpt lat="46.95617" lon="8.73292">
        <ele>1274</ele>
        <time>2021-08-06T10:20:32.356Z</time>
      </trkpt>
      <trkpt lat="46.95617" lon="8.73291">
        <ele>1274</ele>
        <time>2021-08-06T10:20:33.355Z</time>
      </trkpt>
      <trkpt lat="46.95617" lon="8.73291">
        <ele>1275</ele>
        <time>2021-08-06T10:20:34.355Z</time>
      </trkpt>
      <trkpt lat="46.95617" lon="8.7329">
        <ele>1275</ele>
        <time>2021-08-06T10:20:35.356Z</time>
      </trkpt>
      <trkpt lat="46.95616" lon="8.7329">
        <ele>1275</ele>
        <time>2021-08-06T10:20:36.355Z</time>
      </trkpt>
      <trkpt lat="46.95616" lon="8.73289">
        <ele>1275</ele>
        <time>2021-08-06T10:20:37.355Z</time>
      </trkpt>
      <trkpt lat="46.95616" lon="8.73288">
        <ele>1275</ele>
        <time>2021-08-06T10:20:38.355Z</time>
      </trkpt>
      <trkpt lat="46.95615" lon="8.73287">
        <ele>1276</ele>
        <time>2021-08-06T10:20:39.355Z</time>
      </trkpt>
      <trkpt lat="46.95614" lon="8.73286">
        <ele>1276</ele>
        <time>2021-08-06T10:20:40.355Z</time>
      </trkpt>
      <trkpt lat="46.95614" lon="8.73285">
        <ele>1277</ele>
        <time>2021-08-06T10:20:41.355Z</time>
      </trkpt>
      <trkpt lat="46.95613" lon="8.73285">
        <ele>1277</ele>
        <time>2021-08-06T10:20:42.356Z</time>
      </trkpt>
      <trkpt lat="46.95613" lon="8.73284">
        <ele>1277</ele>
        <time>2021-08-06T10:20:43.355Z</time>
      </trkpt>
      <trkpt lat="46.95613" lon="8.73284">
        <ele>1277</ele>
        <time>2021-08-06T10:20:44.356Z</time>
      </trkpt>
      <trkpt lat="46.95613" lon="8.73283">
        <ele>1277</ele>
        <time>2021-08-06T10:20:45.355Z</time>
      </trkpt>
      <trkpt lat="46.95613" lon="8.73282">
        <ele>1277</ele>
        <time>2021-08-06T10:20:46.355Z</time>
      </trkpt>
      <trkpt lat="46.95614" lon="8.73281">
        <ele>1277</ele>
        <time>2021-08-06T10:20:47.355Z</time>
      </trkpt>
      <trkpt lat="46.95614" lon="8.73281">
        <ele>1276</ele>
        <time>2021-08-06T10:20:48.355Z</time>
      </trkpt>
      <trkpt lat="46.95613" lon="8.73279">
        <ele>1276</ele>
        <time>2021-08-06T10:20:49.355Z</time>
      </trkpt>
      <trkpt lat="46.95613" lon="8.73278">
        <ele>1275</ele>
        <time>2021-08-06T10:20:50.355Z</time>
      </trkpt>
      <trkpt lat="46.95612" lon="8.73277">
        <ele>1275</ele>
        <time>2021-08-06T10:20:51.355Z</time>
      </trkpt>
      <trkpt lat="46.95611" lon="8.73276">
        <ele>1275</ele>
        <time>2021-08-06T10:20:52.355Z</time>
      </trkpt>
      <trkpt lat="46.95611" lon="8.73276">
        <ele>1275</ele>
        <time>2021-08-06T10:20:53.356Z</time>
      </trkpt>
      <trkpt lat="46.9561" lon="8.73275">
        <ele>1275</ele>
        <time>2021-08-06T10:20:54.355Z</time>
      </trkpt>
      <trkpt lat="46.95609" lon="8.73274">
        <ele>1276</ele>
        <time>2021-08-06T10:20:55.355Z</time>
      </trkpt>
      <trkpt lat="46.95607" lon="8.73273">
        <ele>1277</ele>
        <time>2021-08-06T10:20:56.355Z</time>
      </trkpt>
      <trkpt lat="46.95607" lon="8.73272">
        <ele>1277</ele>
        <time>2021-08-06T10:20:57.356Z</time>
      </trkpt>
      <trkpt lat="46.95606" lon="8.73272">
        <ele>1278</ele>
        <time>2021-08-06T10:20:58.356Z</time>
      </trkpt>
      <trkpt lat="46.95606" lon="8.73271">
        <ele>1278</ele>
        <time>2021-08-06T10:20:59.356Z</time>
      </trkpt>
      <trkpt lat="46.95606" lon="8.7327">
        <ele>1278</ele>
        <time>2021-08-06T10:21:00.355Z</time>
      </trkpt>
      <trkpt lat="46.95606" lon="8.73269">
        <ele>1278</ele>
        <time>2021-08-06T10:21:01.355Z</time>
      </trkpt>
      <trkpt lat="46.95606" lon="8.73268">
        <ele>1277</ele>
        <time>2021-08-06T10:21:02.356Z</time>
      </trkpt>
      <trkpt lat="46.95605" lon="8.73267">
        <ele>1277</ele>
        <time>2021-08-06T10:21:03.355Z</time>
      </trkpt>
      <trkpt lat="46.95605" lon="8.73265">
        <ele>1277</ele>
        <time>2021-08-06T10:21:04.356Z</time>
      </trkpt>
      <trkpt lat="46.95605" lon="8.73264">
        <ele>1276</ele>
        <time>2021-08-06T10:21:05.356Z</time>
      </trkpt>
      <trkpt lat="46.95606" lon="8.73263">
        <ele>1276</ele>
        <time>2021-08-06T10:21:06.355Z</time>
      </trkpt>
      <trkpt lat="46.95606" lon="8.73262">
        <ele>1275</ele>
        <time>2021-08-06T10:21:07.356Z</time>
      </trkpt>
      <trkpt lat="46.95606" lon="8.73261">
        <ele>1275</ele>
        <time>2021-08-06T10:21:08.356Z</time>
      </trkpt>
      <trkpt lat="46.95607" lon="8.73261">
        <ele>1275</ele>
        <time>2021-08-06T10:21:09.355Z</time>
      </trkpt>
      <trkpt lat="46.95607" lon="8.7326">
        <ele>1275</ele>
        <time>2021-08-06T10:21:10.355Z</time>
      </trkpt>
      <trkpt lat="46.95606" lon="8.73261">
        <ele>1276</ele>
        <time>2021-08-06T10:21:11.356Z</time>
      </trkpt>
      <trkpt lat="46.95605" lon="8.73262">
        <ele>1277</ele>
        <time>2021-08-06T10:21:12.356Z</time>
      </trkpt>
      <trkpt lat="46.95605" lon="8.73263">
        <ele>1278</ele>
        <time>2021-08-06T10:21:13.356Z</time>
      </trkpt>
      <trkpt lat="46.95605" lon="8.73263">
        <ele>1279</ele>
        <time>2021-08-06T10:21:14.355Z</time>
      </trkpt>
      <trkpt lat="46.95606" lon="8.73264">
        <ele>1281</ele>
        <time>2021-08-06T10:21:15.355Z</time>
      </trkpt>
      <trkpt lat="46.95607" lon="8.73264">
        <ele>1282</ele>
        <time>2021-08-06T10:21:16.355Z</time>
      </trkpt>
      <trkpt lat="46.95607" lon="8.73264">
        <ele>1283</ele>
        <time>2021-08-06T10:21:17.356Z</time>
      </trkpt>
      <trkpt lat="46.95608" lon="8.73263">
        <ele>1285</ele>
        <time>2021-08-06T10:21:18.355Z</time>
      </trkpt>
      <trkpt lat="46.95608" lon="8.73263">
        <ele>1286</ele>
        <time>2021-08-06T10:21:19.356Z</time>
      </trkpt>
      <trkpt lat="46.95608" lon="8.73264">
        <ele>1287</ele>
        <time>2021-08-06T10:21:20.356Z</time>
      </trkpt>
      <trkpt lat="46.95607" lon="8.73263">
        <ele>1287</ele>
        <time>2021-08-06T10:21:21.355Z</time>
      </trkpt>
      <trkpt lat="46.95606" lon="8.73262">
        <ele>1288</ele>
        <time>2021-08-06T10:21:22.356Z</time>
      </trkpt>
      <trkpt lat="46.95606" lon="8.73261">
        <ele>1288</ele>
        <time>2021-08-06T10:21:23.356Z</time>
      </trkpt>
      <trkpt lat="46.95607" lon="8.7326">
        <ele>1285</ele>
        <time>2021-08-06T10:21:24.355Z</time>
      </trkpt>
      <trkpt lat="46.95607" lon="8.7326">
        <ele>1285</ele>
        <time>2021-08-06T10:21:25.356Z</time>
      </trkpt>
      <trkpt lat="46.95606" lon="8.73259">
        <ele>1285</ele>
        <time>2021-08-06T10:21:26.355Z</time>
      </trkpt>
      <trkpt lat="46.95605" lon="8.73259">
        <ele>1285</ele>
        <time>2021-08-06T10:21:27.355Z</time>
      </trkpt>
      <trkpt lat="46.95605" lon="8.73259">
        <ele>1285</ele>
        <time>2021-08-06T10:21:28.356Z</time>
      </trkpt>
      <trkpt lat="46.95604" lon="8.73259">
        <ele>1285</ele>
        <time>2021-08-06T10:21:29.355Z</time>
      </trkpt>
      <trkpt lat="46.95604" lon="8.73259">
        <ele>1285</ele>
        <time>2021-08-06T10:21:30.355Z</time>
      </trkpt>
      <trkpt lat="46.95604" lon="8.7326">
        <ele>1288</ele>
        <time>2021-08-06T10:21:31.355Z</time>
      </trkpt>
      <trkpt lat="46.95604" lon="8.7326">
        <ele>1288</ele>
        <time>2021-08-06T10:21:32.356Z</time>
      </trkpt>
      <trkpt lat="46.95604" lon="8.7326">
        <ele>1288</ele>
        <time>2021-08-06T10:21:33.355Z</time>
      </trkpt>
      <trkpt lat="46.95604" lon="8.7326">
        <ele>1288</ele>
        <time>2021-08-06T10:21:34.356Z</time>
      </trkpt>
      <trkpt lat="46.95604" lon="8.7326">
        <ele>1288</ele>
        <time>2021-08-06T10:21:35.355Z</time>
      </trkpt>
      <trkpt lat="46.95605" lon="8.73261">
        <ele>1285</ele>
        <time>2021-08-06T10:21:36.356Z</time>
      </trkpt>
      <trkpt lat="46.95605" lon="8.73261">
        <ele>1285</ele>
        <time>2021-08-06T10:21:37.355Z</time>
      </trkpt>
      <trkpt lat="46.95605" lon="8.73261">
        <ele>1285</ele>
        <time>2021-08-06T10:21:38.356Z</time>
      </trkpt>
      <trkpt lat="46.95605" lon="8.73261">
        <ele>1285</ele>
        <time>2021-08-06T10:21:39.356Z</time>
      </trkpt>
      <trkpt lat="46.95605" lon="8.73261">
        <ele>1285</ele>
        <time>2021-08-06T10:21:40.356Z</time>
      </trkpt>
      <trkpt lat="46.95603" lon="8.73258">
        <ele>1284</ele>
        <time>2021-08-06T10:21:41.356Z</time>
      </trkpt>
      <trkpt lat="46.95604" lon="8.73258">
        <ele>1283</ele>
        <time>2021-08-06T10:21:42.356Z</time>
      </trkpt>
      <trkpt lat="46.95604" lon="8.73259">
        <ele>1283</ele>
        <time>2021-08-06T10:21:43.356Z</time>
      </trkpt>
      <trkpt lat="46.95602" lon="8.73262">
        <ele>1284</ele>
        <time>2021-08-06T10:21:44.357Z</time>
      </trkpt>
      <trkpt lat="46.95601" lon="8.73262">
        <ele>1284</ele>
        <time>2021-08-06T10:21:45.356Z</time>
      </trkpt>
      <trkpt lat="46.95601" lon="8.73262">
        <ele>1283</ele>
        <time>2021-08-06T10:21:46.356Z</time>
      </trkpt>
      <trkpt lat="46.95601" lon="8.73262">
        <ele>1283</ele>
        <time>2021-08-06T10:21:47.356Z</time>
      </trkpt>
      <trkpt lat="46.956" lon="8.73258">
        <ele>1282</ele>
        <time>2021-08-06T10:21:48.356Z</time>
      </trkpt>
      <trkpt lat="46.95599" lon="8.73257">
        <ele>1282</ele>
        <time>2021-08-06T10:21:49.356Z</time>
      </trkpt>
      <trkpt lat="46.95599" lon="8.73256">
        <ele>1282</ele>
        <time>2021-08-06T10:21:50.357Z</time>
      </trkpt>
      <trkpt lat="46.95599" lon="8.73255">
        <ele>1282</ele>
        <time>2021-08-06T10:21:51.356Z</time>
      </trkpt>
      <trkpt lat="46.95599" lon="8.73254">
        <ele>1282</ele>
        <time>2021-08-06T10:21:52.356Z</time>
      </trkpt>
      <trkpt lat="46.95599" lon="8.73253">
        <ele>1282</ele>
        <time>2021-08-06T10:21:53.356Z</time>
      </trkpt>
      <trkpt lat="46.95598" lon="8.73251">
        <ele>1282</ele>
        <time>2021-08-06T10:21:54.356Z</time>
      </trkpt>
      <trkpt lat="46.95598" lon="8.7325">
        <ele>1282</ele>
        <time>2021-08-06T10:21:55.356Z</time>
      </trkpt>
      <trkpt lat="46.95597" lon="8.73249">
        <ele>1282</ele>
        <time>2021-08-06T10:21:56.356Z</time>
      </trkpt>
      <trkpt lat="46.95597" lon="8.73249">
        <ele>1282</ele>
        <time>2021-08-06T10:21:57.356Z</time>
      </trkpt>
      <trkpt lat="46.95597" lon="8.73248">
        <ele>1282</ele>
        <time>2021-08-06T10:21:58.356Z</time>
      </trkpt>
      <trkpt lat="46.95597" lon="8.73247">
        <ele>1282</ele>
        <time>2021-08-06T10:21:59.357Z</time>
      </trkpt>
      <trkpt lat="46.95597" lon="8.73247">
        <ele>1282</ele>
        <time>2021-08-06T10:22:00.356Z</time>
      </trkpt>
      <trkpt lat="46.95598" lon="8.73247">
        <ele>1282</ele>
        <time>2021-08-06T10:22:01.356Z</time>
      </trkpt>
      <trkpt lat="46.95598" lon="8.73247">
        <ele>1282</ele>
        <time>2021-08-06T10:22:02.356Z</time>
      </trkpt>
      <trkpt lat="46.95598" lon="8.73246">
        <ele>1282</ele>
        <time>2021-08-06T10:22:03.356Z</time>
      </trkpt>
      <trkpt lat="46.95598" lon="8.73244">
        <ele>1282</ele>
        <time>2021-08-06T10:22:04.357Z</time>
      </trkpt>
      <trkpt lat="46.95597" lon="8.73243">
        <ele>1281</ele>
        <time>2021-08-06T10:22:05.357Z</time>
      </trkpt>
      <trkpt lat="46.95596" lon="8.73242">
        <ele>1282</ele>
        <time>2021-08-06T10:22:06.356Z</time>
      </trkpt>
      <trkpt lat="46.95596" lon="8.73241">
        <ele>1282</ele>
        <time>2021-08-06T10:22:07.356Z</time>
      </trkpt>
      <trkpt lat="46.95595" lon="8.7324">
        <ele>1282</ele>
        <time>2021-08-06T10:22:08.356Z</time>
      </trkpt>
      <trkpt lat="46.95595" lon="8.7324">
        <ele>1283</ele>
        <time>2021-08-06T10:22:09.356Z</time>
      </trkpt>
      <trkpt lat="46.95594" lon="8.73239">
        <ele>1283</ele>
        <time>2021-08-06T10:22:10.356Z</time>
      </trkpt>
      <trkpt lat="46.95594" lon="8.73239">
        <ele>1283</ele>
        <time>2021-08-06T10:22:11.356Z</time>
      </trkpt>
      <trkpt lat="46.95594" lon="8.73238">
        <ele>1283</ele>
        <time>2021-08-06T10:22:12.356Z</time>
      </trkpt>
      <trkpt lat="46.95594" lon="8.73237">
        <ele>1282</ele>
        <time>2021-08-06T10:22:13.356Z</time>
      </trkpt>
      <trkpt lat="46.95594" lon="8.73237">
        <ele>1282</ele>
        <time>2021-08-06T10:22:14.356Z</time>
      </trkpt>
      <trkpt lat="46.95594" lon="8.73237">
        <ele>1282</ele>
        <time>2021-08-06T10:22:15.357Z</time>
      </trkpt>
      <trkpt lat="46.95593" lon="8.73236">
        <ele>1282</ele>
        <time>2021-08-06T10:22:16.356Z</time>
      </trkpt>
      <trkpt lat="46.95593" lon="8.73235">
        <ele>1283</ele>
        <time>2021-08-06T10:22:17.356Z</time>
      </trkpt>
      <trkpt lat="46.95593" lon="8.73235">
        <ele>1283</ele>
        <time>2021-08-06T10:22:18.356Z</time>
      </trkpt>
      <trkpt lat="46.95592" lon="8.73234">
        <ele>1283</ele>
        <time>2021-08-06T10:22:19.356Z</time>
      </trkpt>
      <trkpt lat="46.95592" lon="8.73234">
        <ele>1283</ele>
        <time>2021-08-06T10:22:20.357Z</time>
      </trkpt>
      <trkpt lat="46.95592" lon="8.73233">
        <ele>1283</ele>
        <time>2021-08-06T10:22:21.356Z</time>
      </trkpt>
      <trkpt lat="46.95592" lon="8.73232">
        <ele>1282</ele>
        <time>2021-08-06T10:22:22.356Z</time>
      </trkpt>
      <trkpt lat="46.95591" lon="8.73231">
        <ele>1281</ele>
        <time>2021-08-06T10:22:23.356Z</time>
      </trkpt>
      <trkpt lat="46.95591" lon="8.73231">
        <ele>1281</ele>
        <time>2021-08-06T10:22:24.357Z</time>
      </trkpt>
      <trkpt lat="46.95591" lon="8.7323">
        <ele>1281</ele>
        <time>2021-08-06T10:22:25.356Z</time>
      </trkpt>
      <trkpt lat="46.9559" lon="8.7323">
        <ele>1281</ele>
        <time>2021-08-06T10:22:26.356Z</time>
      </trkpt>
      <trkpt lat="46.9559" lon="8.73229">
        <ele>1281</ele>
        <time>2021-08-06T10:22:27.356Z</time>
      </trkpt>
      <trkpt lat="46.9559" lon="8.73229">
        <ele>1281</ele>
        <time>2021-08-06T10:22:28.356Z</time>
      </trkpt>
      <trkpt lat="46.9559" lon="8.73228">
        <ele>1281</ele>
        <time>2021-08-06T10:22:29.356Z</time>
      </trkpt>
      <trkpt lat="46.9559" lon="8.73227">
        <ele>1282</ele>
        <time>2021-08-06T10:22:30.356Z</time>
      </trkpt>
      <trkpt lat="46.9559" lon="8.73226">
        <ele>1282</ele>
        <time>2021-08-06T10:22:31.356Z</time>
      </trkpt>
      <trkpt lat="46.95589" lon="8.73226">
        <ele>1282</ele>
        <time>2021-08-06T10:22:32.357Z</time>
      </trkpt>
      <trkpt lat="46.95589" lon="8.73225">
        <ele>1282</ele>
        <time>2021-08-06T10:22:33.356Z</time>
      </trkpt>
      <trkpt lat="46.95589" lon="8.73225">
        <ele>1281</ele>
        <time>2021-08-06T10:22:34.356Z</time>
      </trkpt>
      <trkpt lat="46.95588" lon="8.73224">
        <ele>1281</ele>
        <time>2021-08-06T10:22:35.356Z</time>
      </trkpt>
      <trkpt lat="46.95588" lon="8.73224">
        <ele>1280</ele>
        <time>2021-08-06T10:22:36.356Z</time>
      </trkpt>
      <trkpt lat="46.95588" lon="8.73224">
        <ele>1279</ele>
        <time>2021-08-06T10:22:37.356Z</time>
      </trkpt>
      <trkpt lat="46.95588" lon="8.73224">
        <ele>1279</ele>
        <time>2021-08-06T10:22:38.356Z</time>
      </trkpt>
      <trkpt lat="46.95588" lon="8.73223">
        <ele>1279</ele>
        <time>2021-08-06T10:22:39.357Z</time>
      </trkpt>
      <trkpt lat="46.95587" lon="8.73223">
        <ele>1278</ele>
        <time>2021-08-06T10:22:40.356Z</time>
      </trkpt>
      <trkpt lat="46.95587" lon="8.73222">
        <ele>1278</ele>
        <time>2021-08-06T10:22:41.356Z</time>
      </trkpt>
      <trkpt lat="46.95587" lon="8.73222">
        <ele>1278</ele>
        <time>2021-08-06T10:22:42.357Z</time>
      </trkpt>
      <trkpt lat="46.95587" lon="8.73221">
        <ele>1278</ele>
        <time>2021-08-06T10:22:43.356Z</time>
      </trkpt>
      <trkpt lat="46.95586" lon="8.7322">
        <ele>1278</ele>
        <time>2021-08-06T10:22:44.357Z</time>
      </trkpt>
      <trkpt lat="46.95586" lon="8.7322">
        <ele>1279</ele>
        <time>2021-08-06T10:22:45.356Z</time>
      </trkpt>
      <trkpt lat="46.95586" lon="8.73219">
        <ele>1279</ele>
        <time>2021-08-06T10:22:46.356Z</time>
      </trkpt>
      <trkpt lat="46.95586" lon="8.73218">
        <ele>1280</ele>
        <time>2021-08-06T10:22:47.356Z</time>
      </trkpt>
      <trkpt lat="46.95585" lon="8.73217">
        <ele>1281</ele>
        <time>2021-08-06T10:22:48.356Z</time>
      </trkpt>
      <trkpt lat="46.95585" lon="8.73217">
        <ele>1282</ele>
        <time>2021-08-06T10:22:49.356Z</time>
      </trkpt>
      <trkpt lat="46.95585" lon="8.73216">
        <ele>1282</ele>
        <time>2021-08-06T10:22:50.356Z</time>
      </trkpt>
      <trkpt lat="46.95585" lon="8.73216">
        <ele>1283</ele>
        <time>2021-08-06T10:22:51.356Z</time>
      </trkpt>
      <trkpt lat="46.95585" lon="8.73215">
        <ele>1283</ele>
        <time>2021-08-06T10:22:52.357Z</time>
      </trkpt>
      <trkpt lat="46.95585" lon="8.73214">
        <ele>1283</ele>
        <time>2021-08-06T10:22:53.356Z</time>
      </trkpt>
      <trkpt lat="46.95585" lon="8.73213">
        <ele>1283</ele>
        <time>2021-08-06T10:22:54.356Z</time>
      </trkpt>
      <trkpt lat="46.95584" lon="8.73213">
        <ele>1284</ele>
        <time>2021-08-06T10:22:55.357Z</time>
      </trkpt>
      <trkpt lat="46.95584" lon="8.73212">
        <ele>1284</ele>
        <time>2021-08-06T10:22:56.356Z</time>
      </trkpt>
      <trkpt lat="46.95584" lon="8.73212">
        <ele>1285</ele>
        <time>2021-08-06T10:22:57.357Z</time>
      </trkpt>
      <trkpt lat="46.95584" lon="8.73211">
        <ele>1285</ele>
        <time>2021-08-06T10:22:58.356Z</time>
      </trkpt>
      <trkpt lat="46.95584" lon="8.7321">
        <ele>1285</ele>
        <time>2021-08-06T10:22:59.357Z</time>
      </trkpt>
      <trkpt lat="46.95583" lon="8.7321">
        <ele>1284</ele>
        <time>2021-08-06T10:23:00.356Z</time>
      </trkpt>
      <trkpt lat="46.95583" lon="8.73209">
        <ele>1284</ele>
        <time>2021-08-06T10:23:01.356Z</time>
      </trkpt>
      <trkpt lat="46.95583" lon="8.73209">
        <ele>1284</ele>
        <time>2021-08-06T10:23:02.356Z</time>
      </trkpt>
      <trkpt lat="46.95583" lon="8.73208">
        <ele>1283</ele>
        <time>2021-08-06T10:23:03.356Z</time>
      </trkpt>
      <trkpt lat="46.95583" lon="8.73207">
        <ele>1283</ele>
        <time>2021-08-06T10:23:04.356Z</time>
      </trkpt>
      <trkpt lat="46.95583" lon="8.73206">
        <ele>1283</ele>
        <time>2021-08-06T10:23:05.356Z</time>
      </trkpt>
      <trkpt lat="46.95582" lon="8.73206">
        <ele>1283</ele>
        <time>2021-08-06T10:23:06.356Z</time>
      </trkpt>
      <trkpt lat="46.95582" lon="8.73205">
        <ele>1283</ele>
        <time>2021-08-06T10:23:07.356Z</time>
      </trkpt>
      <trkpt lat="46.95581" lon="8.73205">
        <ele>1283</ele>
        <time>2021-08-06T10:23:08.356Z</time>
      </trkpt>
      <trkpt lat="46.9558" lon="8.73205">
        <ele>1282</ele>
        <time>2021-08-06T10:23:09.356Z</time>
      </trkpt>
      <trkpt lat="46.9558" lon="8.73204">
        <ele>1282</ele>
        <time>2021-08-06T10:23:10.356Z</time>
      </trkpt>
      <trkpt lat="46.9558" lon="8.73203">
        <ele>1281</ele>
        <time>2021-08-06T10:23:11.356Z</time>
      </trkpt>
      <trkpt lat="46.9558" lon="8.73203">
        <ele>1281</ele>
        <time>2021-08-06T10:23:12.356Z</time>
      </trkpt>
      <trkpt lat="46.9558" lon="8.73202">
        <ele>1280</ele>
        <time>2021-08-06T10:23:13.357Z</time>
      </trkpt>
      <trkpt lat="46.95579" lon="8.73202">
        <ele>1280</ele>
        <time>2021-08-06T10:23:14.357Z</time>
      </trkpt>
      <trkpt lat="46.95579" lon="8.73201">
        <ele>1280</ele>
        <time>2021-08-06T10:23:15.356Z</time>
      </trkpt>
      <trkpt lat="46.9558" lon="8.73201">
        <ele>1280</ele>
        <time>2021-08-06T10:23:16.356Z</time>
      </trkpt>
      <trkpt lat="46.95579" lon="8.732">
        <ele>1283</ele>
        <time>2021-08-06T10:23:17.356Z</time>
      </trkpt>
      <trkpt lat="46.95578" lon="8.732">
        <ele>1284</ele>
        <time>2021-08-06T10:23:18.357Z</time>
      </trkpt>
      <trkpt lat="46.95578" lon="8.73199">
        <ele>1284</ele>
        <time>2021-08-06T10:23:19.357Z</time>
      </trkpt>
      <trkpt lat="46.95577" lon="8.73198">
        <ele>1285</ele>
        <time>2021-08-06T10:23:20.357Z</time>
      </trkpt>
      <trkpt lat="46.95577" lon="8.73197">
        <ele>1285</ele>
        <time>2021-08-06T10:23:21.356Z</time>
      </trkpt>
      <trkpt lat="46.95576" lon="8.73197">
        <ele>1285</ele>
        <time>2021-08-06T10:23:22.356Z</time>
      </trkpt>
      <trkpt lat="46.95576" lon="8.73196">
        <ele>1285</ele>
        <time>2021-08-06T10:23:23.357Z</time>
      </trkpt>
      <trkpt lat="46.95576" lon="8.73196">
        <ele>1285</ele>
        <time>2021-08-06T10:23:24.356Z</time>
      </trkpt>
      <trkpt lat="46.95575" lon="8.73195">
        <ele>1284</ele>
        <time>2021-08-06T10:23:25.356Z</time>
      </trkpt>
      <trkpt lat="46.95575" lon="8.73194">
        <ele>1284</ele>
        <time>2021-08-06T10:23:26.356Z</time>
      </trkpt>
      <trkpt lat="46.95575" lon="8.73194">
        <ele>1284</ele>
        <time>2021-08-06T10:23:27.356Z</time>
      </trkpt>
      <trkpt lat="46.95575" lon="8.73193">
        <ele>1284</ele>
        <time>2021-08-06T10:23:28.357Z</time>
      </trkpt>
      <trkpt lat="46.95575" lon="8.73192">
        <ele>1284</ele>
        <time>2021-08-06T10:23:29.356Z</time>
      </trkpt>
      <trkpt lat="46.95575" lon="8.73191">
        <ele>1285</ele>
        <time>2021-08-06T10:23:30.357Z</time>
      </trkpt>
      <trkpt lat="46.95574" lon="8.73191">
        <ele>1285</ele>
        <time>2021-08-06T10:23:31.356Z</time>
      </trkpt>
      <trkpt lat="46.95574" lon="8.7319">
        <ele>1286</ele>
        <time>2021-08-06T10:23:32.356Z</time>
      </trkpt>
      <trkpt lat="46.95574" lon="8.73189">
        <ele>1286</ele>
        <time>2021-08-06T10:23:33.357Z</time>
      </trkpt>
      <trkpt lat="46.95574" lon="8.73188">
        <ele>1286</ele>
        <time>2021-08-06T10:23:34.356Z</time>
      </trkpt>
      <trkpt lat="46.95574" lon="8.73187">
        <ele>1286</ele>
        <time>2021-08-06T10:23:35.357Z</time>
      </trkpt>
      <trkpt lat="46.95574" lon="8.73186">
        <ele>1286</ele>
        <time>2021-08-06T10:23:36.356Z</time>
      </trkpt>
      <trkpt lat="46.95574" lon="8.73185">
        <ele>1286</ele>
        <time>2021-08-06T10:23:37.357Z</time>
      </trkpt>
      <trkpt lat="46.95574" lon="8.73184">
        <ele>1286</ele>
        <time>2021-08-06T10:23:38.356Z</time>
      </trkpt>
      <trkpt lat="46.95574" lon="8.73183">
        <ele>1286</ele>
        <time>2021-08-06T10:23:39.356Z</time>
      </trkpt>
      <trkpt lat="46.95574" lon="8.73182">
        <ele>1287</ele>
        <time>2021-08-06T10:23:40.356Z</time>
      </trkpt>
      <trkpt lat="46.95573" lon="8.73182">
        <ele>1287</ele>
        <time>2021-08-06T10:23:41.356Z</time>
      </trkpt>
      <trkpt lat="46.95573" lon="8.73181">
        <ele>1287</ele>
        <time>2021-08-06T10:23:42.356Z</time>
      </trkpt>
      <trkpt lat="46.95573" lon="8.73181">
        <ele>1288</ele>
        <time>2021-08-06T10:23:43.356Z</time>
      </trkpt>
      <trkpt lat="46.95573" lon="8.7318">
        <ele>1288</ele>
        <time>2021-08-06T10:23:44.356Z</time>
      </trkpt>
      <trkpt lat="46.95573" lon="8.73179">
        <ele>1289</ele>
        <time>2021-08-06T10:23:45.357Z</time>
      </trkpt>
      <trkpt lat="46.95573" lon="8.73178">
        <ele>1290</ele>
        <time>2021-08-06T10:23:46.356Z</time>
      </trkpt>
      <trkpt lat="46.95573" lon="8.73177">
        <ele>1290</ele>
        <time>2021-08-06T10:23:47.356Z</time>
      </trkpt>
      <trkpt lat="46.95573" lon="8.73176">
        <ele>1289</ele>
        <time>2021-08-06T10:23:48.356Z</time>
      </trkpt>
      <trkpt lat="46.95573" lon="8.73175">
        <ele>1289</ele>
        <time>2021-08-06T10:23:49.357Z</time>
      </trkpt>
      <trkpt lat="46.95572" lon="8.73174">
        <ele>1289</ele>
        <time>2021-08-06T10:23:50.357Z</time>
      </trkpt>
      <trkpt lat="46.95572" lon="8.73173">
        <ele>1288</ele>
        <time>2021-08-06T10:23:51.357Z</time>
      </trkpt>
      <trkpt lat="46.95572" lon="8.73171">
        <ele>1287</ele>
        <time>2021-08-06T10:23:52.356Z</time>
      </trkpt>
      <trkpt lat="46.95572" lon="8.73171">
        <ele>1286</ele>
        <time>2021-08-06T10:23:53.357Z</time>
      </trkpt>
      <trkpt lat="46.95571" lon="8.7317">
        <ele>1287</ele>
        <time>2021-08-06T10:23:54.356Z</time>
      </trkpt>
      <trkpt lat="46.95571" lon="8.73169">
        <ele>1287</ele>
        <time>2021-08-06T10:23:55.356Z</time>
      </trkpt>
      <trkpt lat="46.95571" lon="8.73168">
        <ele>1288</ele>
        <time>2021-08-06T10:23:56.357Z</time>
      </trkpt>
      <trkpt lat="46.95571" lon="8.73167">
        <ele>1288</ele>
        <time>2021-08-06T10:23:57.357Z</time>
      </trkpt>
      <trkpt lat="46.95571" lon="8.73166">
        <ele>1288</ele>
        <time>2021-08-06T10:23:58.356Z</time>
      </trkpt>
      <trkpt lat="46.95571" lon="8.73165">
        <ele>1289</ele>
        <time>2021-08-06T10:23:59.357Z</time>
      </trkpt>
      <trkpt lat="46.95571" lon="8.73163">
        <ele>1289</ele>
        <time>2021-08-06T10:24:00.356Z</time>
      </trkpt>
      <trkpt lat="46.95571" lon="8.73162">
        <ele>1289</ele>
        <time>2021-08-06T10:24:01.356Z</time>
      </trkpt>
      <trkpt lat="46.95571" lon="8.73161">
        <ele>1289</ele>
        <time>2021-08-06T10:24:02.356Z</time>
      </trkpt>
      <trkpt lat="46.95571" lon="8.7316">
        <ele>1289</ele>
        <time>2021-08-06T10:24:03.356Z</time>
      </trkpt>
      <trkpt lat="46.9557" lon="8.73159">
        <ele>1289</ele>
        <time>2021-08-06T10:24:04.357Z</time>
      </trkpt>
      <trkpt lat="46.9557" lon="8.73158">
        <ele>1289</ele>
        <time>2021-08-06T10:24:05.357Z</time>
      </trkpt>
      <trkpt lat="46.95568" lon="8.73157">
        <ele>1290</ele>
        <time>2021-08-06T10:24:06.356Z</time>
      </trkpt>
      <trkpt lat="46.95568" lon="8.73156">
        <ele>1290</ele>
        <time>2021-08-06T10:24:07.356Z</time>
      </trkpt>
      <trkpt lat="46.95568" lon="8.73155">
        <ele>1291</ele>
        <time>2021-08-06T10:24:08.357Z</time>
      </trkpt>
      <trkpt lat="46.95568" lon="8.73154">
        <ele>1292</ele>
        <time>2021-08-06T10:24:09.357Z</time>
      </trkpt>
      <trkpt lat="46.95568" lon="8.73153">
        <ele>1292</ele>
        <time>2021-08-06T10:24:10.356Z</time>
      </trkpt>
      <trkpt lat="46.95568" lon="8.73152">
        <ele>1293</ele>
        <time>2021-08-06T10:24:11.357Z</time>
      </trkpt>
      <trkpt lat="46.95568" lon="8.7315">
        <ele>1293</ele>
        <time>2021-08-06T10:24:12.357Z</time>
      </trkpt>
      <trkpt lat="46.95568" lon="8.73149">
        <ele>1294</ele>
        <time>2021-08-06T10:24:13.356Z</time>
      </trkpt>
      <trkpt lat="46.95568" lon="8.73147">
        <ele>1294</ele>
        <time>2021-08-06T10:24:14.357Z</time>
      </trkpt>
      <trkpt lat="46.95567" lon="8.73146">
        <ele>1294</ele>
        <time>2021-08-06T10:24:15.356Z</time>
      </trkpt>
      <trkpt lat="46.95567" lon="8.73146">
        <ele>1295</ele>
        <time>2021-08-06T10:24:16.356Z</time>
      </trkpt>
      <trkpt lat="46.95567" lon="8.73145">
        <ele>1295</ele>
        <time>2021-08-06T10:24:17.357Z</time>
      </trkpt>
      <trkpt lat="46.95567" lon="8.73144">
        <ele>1295</ele>
        <time>2021-08-06T10:24:18.357Z</time>
      </trkpt>
      <trkpt lat="46.95567" lon="8.73144">
        <ele>1295</ele>
        <time>2021-08-06T10:24:19.357Z</time>
      </trkpt>
      <trkpt lat="46.95567" lon="8.73143">
        <ele>1295</ele>
        <time>2021-08-06T10:24:20.356Z</time>
      </trkpt>
      <trkpt lat="46.95567" lon="8.73142">
        <ele>1294</ele>
        <time>2021-08-06T10:24:21.356Z</time>
      </trkpt>
      <trkpt lat="46.95567" lon="8.73142">
        <ele>1294</ele>
        <time>2021-08-06T10:24:22.357Z</time>
      </trkpt>
      <trkpt lat="46.95567" lon="8.73141">
        <ele>1293</ele>
        <time>2021-08-06T10:24:23.356Z</time>
      </trkpt>
      <trkpt lat="46.95566" lon="8.7314">
        <ele>1292</ele>
        <time>2021-08-06T10:24:24.357Z</time>
      </trkpt>
      <trkpt lat="46.95566" lon="8.73139">
        <ele>1292</ele>
        <time>2021-08-06T10:24:25.357Z</time>
      </trkpt>
      <trkpt lat="46.95566" lon="8.73139">
        <ele>1291</ele>
        <time>2021-08-06T10:24:26.356Z</time>
      </trkpt>
      <trkpt lat="46.95566" lon="8.73138">
        <ele>1291</ele>
        <time>2021-08-06T10:24:27.356Z</time>
      </trkpt>
      <trkpt lat="46.95566" lon="8.73137">
        <ele>1291</ele>
        <time>2021-08-06T10:24:28.357Z</time>
      </trkpt>
      <trkpt lat="46.95566" lon="8.73135">
        <ele>1292</ele>
        <time>2021-08-06T10:24:29.357Z</time>
      </trkpt>
      <trkpt lat="46.95566" lon="8.73135">
        <ele>1292</ele>
        <time>2021-08-06T10:24:30.357Z</time>
      </trkpt>
      <trkpt lat="46.95565" lon="8.73134">
        <ele>1293</ele>
        <time>2021-08-06T10:24:31.356Z</time>
      </trkpt>
      <trkpt lat="46.95565" lon="8.73133">
        <ele>1293</ele>
        <time>2021-08-06T10:24:32.356Z</time>
      </trkpt>
      <trkpt lat="46.95565" lon="8.73133">
        <ele>1294</ele>
        <time>2021-08-06T10:24:33.357Z</time>
      </trkpt>
      <trkpt lat="46.95565" lon="8.73132">
        <ele>1295</ele>
        <time>2021-08-06T10:24:34.357Z</time>
      </trkpt>
      <trkpt lat="46.95564" lon="8.73131">
        <ele>1295</ele>
        <time>2021-08-06T10:24:35.356Z</time>
      </trkpt>
      <trkpt lat="46.95564" lon="8.7313">
        <ele>1296</ele>
        <time>2021-08-06T10:24:36.357Z</time>
      </trkpt>
      <trkpt lat="46.95564" lon="8.73128">
        <ele>1296</ele>
        <time>2021-08-06T10:24:37.356Z</time>
      </trkpt>
      <trkpt lat="46.95564" lon="8.73127">
        <ele>1296</ele>
        <time>2021-08-06T10:24:38.356Z</time>
      </trkpt>
      <trkpt lat="46.95563" lon="8.73127">
        <ele>1297</ele>
        <time>2021-08-06T10:24:39.356Z</time>
      </trkpt>
      <trkpt lat="46.95562" lon="8.73127">
        <ele>1297</ele>
        <time>2021-08-06T10:24:40.357Z</time>
      </trkpt>
      <trkpt lat="46.95562" lon="8.73127">
        <ele>1297</ele>
        <time>2021-08-06T10:24:41.357Z</time>
      </trkpt>
      <trkpt lat="46.95562" lon="8.73126">
        <ele>1297</ele>
        <time>2021-08-06T10:24:42.357Z</time>
      </trkpt>
      <trkpt lat="46.95562" lon="8.73125">
        <ele>1297</ele>
        <time>2021-08-06T10:24:43.357Z</time>
      </trkpt>
      <trkpt lat="46.95561" lon="8.73124">
        <ele>1297</ele>
        <time>2021-08-06T10:24:44.356Z</time>
      </trkpt>
      <trkpt lat="46.95561" lon="8.73123">
        <ele>1298</ele>
        <time>2021-08-06T10:24:45.356Z</time>
      </trkpt>
      <trkpt lat="46.95561" lon="8.73122">
        <ele>1299</ele>
        <time>2021-08-06T10:24:46.356Z</time>
      </trkpt>
      <trkpt lat="46.9556" lon="8.7312">
        <ele>1300</ele>
        <time>2021-08-06T10:24:47.356Z</time>
      </trkpt>
      <trkpt lat="46.9556" lon="8.73119">
        <ele>1300</ele>
        <time>2021-08-06T10:24:48.357Z</time>
      </trkpt>
      <trkpt lat="46.9556" lon="8.73118">
        <ele>1301</ele>
        <time>2021-08-06T10:24:49.357Z</time>
      </trkpt>
      <trkpt lat="46.95559" lon="8.73117">
        <ele>1301</ele>
        <time>2021-08-06T10:24:50.357Z</time>
      </trkpt>
      <trkpt lat="46.95559" lon="8.73117">
        <ele>1301</ele>
        <time>2021-08-06T10:24:51.356Z</time>
      </trkpt>
      <trkpt lat="46.95559" lon="8.73115">
        <ele>1301</ele>
        <time>2021-08-06T10:24:52.356Z</time>
      </trkpt>
      <trkpt lat="46.95559" lon="8.73114">
        <ele>1301</ele>
        <time>2021-08-06T10:24:53.356Z</time>
      </trkpt>
      <trkpt lat="46.95559" lon="8.73113">
        <ele>1301</ele>
        <time>2021-08-06T10:24:54.356Z</time>
      </trkpt>
      <trkpt lat="46.95559" lon="8.73111">
        <ele>1301</ele>
        <time>2021-08-06T10:24:55.357Z</time>
      </trkpt>
      <trkpt lat="46.95559" lon="8.7311">
        <ele>1301</ele>
        <time>2021-08-06T10:24:56.356Z</time>
      </trkpt>
      <trkpt lat="46.95559" lon="8.73109">
        <ele>1302</ele>
        <time>2021-08-06T10:24:57.357Z</time>
      </trkpt>
      <trkpt lat="46.95558" lon="8.73109">
        <ele>1302</ele>
        <time>2021-08-06T10:24:58.357Z</time>
      </trkpt>
      <trkpt lat="46.95558" lon="8.73108">
        <ele>1302</ele>
        <time>2021-08-06T10:24:59.356Z</time>
      </trkpt>
      <trkpt lat="46.95557" lon="8.73107">
        <ele>1302</ele>
        <time>2021-08-06T10:25:00.357Z</time>
      </trkpt>
      <trkpt lat="46.95556" lon="8.73106">
        <ele>1302</ele>
        <time>2021-08-06T10:25:01.357Z</time>
      </trkpt>
      <trkpt lat="46.95556" lon="8.73105">
        <ele>1301</ele>
        <time>2021-08-06T10:25:02.356Z</time>
      </trkpt>
      <trkpt lat="46.95555" lon="8.73104">
        <ele>1301</ele>
        <time>2021-08-06T10:25:03.356Z</time>
      </trkpt>
      <trkpt lat="46.95554" lon="8.73104">
        <ele>1300</ele>
        <time>2021-08-06T10:25:04.357Z</time>
      </trkpt>
      <trkpt lat="46.95553" lon="8.73103">
        <ele>1300</ele>
        <time>2021-08-06T10:25:05.356Z</time>
      </trkpt>
      <trkpt lat="46.95553" lon="8.73102">
        <ele>1300</ele>
        <time>2021-08-06T10:25:06.356Z</time>
      </trkpt>
      <trkpt lat="46.95552" lon="8.731">
        <ele>1300</ele>
        <time>2021-08-06T10:25:07.356Z</time>
      </trkpt>
      <trkpt lat="46.95552" lon="8.73099">
        <ele>1299</ele>
        <time>2021-08-06T10:25:08.356Z</time>
      </trkpt>
      <trkpt lat="46.95552" lon="8.73098">
        <ele>1299</ele>
        <time>2021-08-06T10:25:09.356Z</time>
      </trkpt>
      <trkpt lat="46.95552" lon="8.73096">
        <ele>1299</ele>
        <time>2021-08-06T10:25:10.356Z</time>
      </trkpt>
      <trkpt lat="46.95551" lon="8.73095">
        <ele>1298</ele>
        <time>2021-08-06T10:25:11.356Z</time>
      </trkpt>
      <trkpt lat="46.95551" lon="8.73094">
        <ele>1298</ele>
        <time>2021-08-06T10:25:12.356Z</time>
      </trkpt>
      <trkpt lat="46.9555" lon="8.73093">
        <ele>1299</ele>
        <time>2021-08-06T10:25:13.357Z</time>
      </trkpt>
      <trkpt lat="46.9555" lon="8.73093">
        <ele>1299</ele>
        <time>2021-08-06T10:25:14.357Z</time>
      </trkpt>
      <trkpt lat="46.95549" lon="8.73092">
        <ele>1300</ele>
        <time>2021-08-06T10:25:15.356Z</time>
      </trkpt>
      <trkpt lat="46.95549" lon="8.73091">
        <ele>1300</ele>
        <time>2021-08-06T10:25:16.357Z</time>
      </trkpt>
      <trkpt lat="46.95549" lon="8.7309">
        <ele>1301</ele>
        <time>2021-08-06T10:25:17.356Z</time>
      </trkpt>
      <trkpt lat="46.95548" lon="8.73089">
        <ele>1302</ele>
        <time>2021-08-06T10:25:18.357Z</time>
      </trkpt>
      <trkpt lat="46.95548" lon="8.73088">
        <ele>1303</ele>
        <time>2021-08-06T10:25:19.357Z</time>
      </trkpt>
      <trkpt lat="46.95548" lon="8.73087">
        <ele>1303</ele>
        <time>2021-08-06T10:25:20.356Z</time>
      </trkpt>
      <trkpt lat="46.95547" lon="8.73085">
        <ele>1303</ele>
        <time>2021-08-06T10:25:21.356Z</time>
      </trkpt>
      <trkpt lat="46.95547" lon="8.73084">
        <ele>1303</ele>
        <time>2021-08-06T10:25:22.357Z</time>
      </trkpt>
      <trkpt lat="46.95547" lon="8.73083">
        <ele>1303</ele>
        <time>2021-08-06T10:25:23.357Z</time>
      </trkpt>
      <trkpt lat="46.95546" lon="8.73082">
        <ele>1303</ele>
        <time>2021-08-06T10:25:24.356Z</time>
      </trkpt>
      <trkpt lat="46.95545" lon="8.73081">
        <ele>1303</ele>
        <time>2021-08-06T10:25:25.356Z</time>
      </trkpt>
      <trkpt lat="46.95544" lon="8.73081">
        <ele>1303</ele>
        <time>2021-08-06T10:25:26.356Z</time>
      </trkpt>
      <trkpt lat="46.95544" lon="8.7308">
        <ele>1304</ele>
        <time>2021-08-06T10:25:27.357Z</time>
      </trkpt>
      <trkpt lat="46.95543" lon="8.73079">
        <ele>1304</ele>
        <time>2021-08-06T10:25:28.357Z</time>
      </trkpt>
      <trkpt lat="46.95542" lon="8.73078">
        <ele>1304</ele>
        <time>2021-08-06T10:25:29.356Z</time>
      </trkpt>
      <trkpt lat="46.95541" lon="8.73077">
        <ele>1304</ele>
        <time>2021-08-06T10:25:30.356Z</time>
      </trkpt>
      <trkpt lat="46.9554" lon="8.73076">
        <ele>1304</ele>
        <time>2021-08-06T10:25:31.356Z</time>
      </trkpt>
      <trkpt lat="46.95539" lon="8.73075">
        <ele>1304</ele>
        <time>2021-08-06T10:25:32.356Z</time>
      </trkpt>
      <trkpt lat="46.95538" lon="8.73075">
        <ele>1304</ele>
        <time>2021-08-06T10:25:33.356Z</time>
      </trkpt>
      <trkpt lat="46.95537" lon="8.73074">
        <ele>1304</ele>
        <time>2021-08-06T10:25:34.356Z</time>
      </trkpt>
      <trkpt lat="46.95536" lon="8.73073">
        <ele>1304</ele>
        <time>2021-08-06T10:25:35.357Z</time>
      </trkpt>
      <trkpt lat="46.95535" lon="8.73072">
        <ele>1305</ele>
        <time>2021-08-06T10:25:36.356Z</time>
      </trkpt>
      <trkpt lat="46.95534" lon="8.73071">
        <ele>1306</ele>
        <time>2021-08-06T10:25:37.357Z</time>
      </trkpt>
      <trkpt lat="46.95533" lon="8.7307">
        <ele>1306</ele>
        <time>2021-08-06T10:25:38.356Z</time>
      </trkpt>
      <trkpt lat="46.95531" lon="8.7307">
        <ele>1306</ele>
        <time>2021-08-06T10:25:39.356Z</time>
      </trkpt>
      <trkpt lat="46.9553" lon="8.7307">
        <ele>1306</ele>
        <time>2021-08-06T10:25:40.356Z</time>
      </trkpt>
      <trkpt lat="46.95529" lon="8.73069">
        <ele>1305</ele>
        <time>2021-08-06T10:25:41.356Z</time>
      </trkpt>
      <trkpt lat="46.95528" lon="8.73069">
        <ele>1305</ele>
        <time>2021-08-06T10:25:42.356Z</time>
      </trkpt>
      <trkpt lat="46.95527" lon="8.73069">
        <ele>1306</ele>
        <time>2021-08-06T10:25:43.357Z</time>
      </trkpt>
      <trkpt lat="46.95526" lon="8.73069">
        <ele>1306</ele>
        <time>2021-08-06T10:25:44.356Z</time>
      </trkpt>
      <trkpt lat="46.95525" lon="8.73068">
        <ele>1306</ele>
        <time>2021-08-06T10:25:45.357Z</time>
      </trkpt>
      <trkpt lat="46.95525" lon="8.73068">
        <ele>1306</ele>
        <time>2021-08-06T10:26:11.474Z</time>
      </trkpt>
      <trkpt lat="46.95524" lon="8.73068">
        <ele>1306</ele>
        <time>2021-08-06T10:26:12.474Z</time>
      </trkpt>
      <trkpt lat="46.95522" lon="8.73068">
        <ele>1306</ele>
        <time>2021-08-06T10:26:27.355Z</time>
      </trkpt>
      <trkpt lat="46.95521" lon="8.73068">
        <ele>1306</ele>
        <time>2021-08-06T10:26:38.216Z</time>
      </trkpt>
      <trkpt lat="46.9552" lon="8.73067">
        <ele>1305</ele>
        <time>2021-08-06T10:26:39.217Z</time>
      </trkpt>
      <trkpt lat="46.9552" lon="8.73067">
        <ele>1305</ele>
        <time>2021-08-06T10:26:40.217Z</time>
      </trkpt>
      <trkpt lat="46.95519" lon="8.73067">
        <ele>1304</ele>
        <time>2021-08-06T10:26:41.216Z</time>
      </trkpt>
      <trkpt lat="46.95518" lon="8.73067">
        <ele>1303</ele>
        <time>2021-08-06T10:26:42.216Z</time>
      </trkpt>
      <trkpt lat="46.95517" lon="8.73067">
        <ele>1303</ele>
        <time>2021-08-06T10:26:56.342Z</time>
      </trkpt>
      <trkpt lat="46.95516" lon="8.73066">
        <ele>1302</ele>
        <time>2021-08-06T10:26:57.342Z</time>
      </trkpt>
      <trkpt lat="46.95516" lon="8.73066">
        <ele>1302</ele>
        <time>2021-08-06T10:26:58.343Z</time>
      </trkpt>
      <trkpt lat="46.95515" lon="8.73066">
        <ele>1302</ele>
        <time>2021-08-06T10:27:23.461Z</time>
      </trkpt>
      <trkpt lat="46.95514" lon="8.73065">
        <ele>1302</ele>
        <time>2021-08-06T10:27:24.462Z</time>
      </trkpt>
      <trkpt lat="46.95513" lon="8.73065">
        <ele>1302</ele>
        <time>2021-08-06T10:27:25.462Z</time>
      </trkpt>
      <trkpt lat="46.95513" lon="8.73064">
        <ele>1302</ele>
        <time>2021-08-06T10:27:26.461Z</time>
      </trkpt>
      <trkpt lat="46.95512" lon="8.73063">
        <ele>1303</ele>
        <time>2021-08-06T10:27:27.462Z</time>
      </trkpt>
      <trkpt lat="46.95511" lon="8.73062">
        <ele>1304</ele>
        <time>2021-08-06T10:27:30.578Z</time>
      </trkpt>
      <trkpt lat="46.95511" lon="8.73062">
        <ele>1304</ele>
        <time>2021-08-06T10:27:31.579Z</time>
      </trkpt>
      <trkpt lat="46.9551" lon="8.73061">
        <ele>1305</ele>
        <time>2021-08-06T10:27:38.487Z</time>
      </trkpt>
      <trkpt lat="46.95509" lon="8.7306">
        <ele>1306</ele>
        <time>2021-08-06T10:27:39.488Z</time>
      </trkpt>
      <trkpt lat="46.95509" lon="8.73059">
        <ele>1306</ele>
        <time>2021-08-06T10:27:40.487Z</time>
      </trkpt>
      <trkpt lat="46.95508" lon="8.73059">
        <ele>1307</ele>
        <time>2021-08-06T10:27:41.488Z</time>
      </trkpt>
      <trkpt lat="46.95508" lon="8.73058">
        <ele>1307</ele>
        <time>2021-08-06T10:27:42.487Z</time>
      </trkpt>
      <trkpt lat="46.95507" lon="8.73057">
        <ele>1307</ele>
        <time>2021-08-06T10:27:43.487Z</time>
      </trkpt>
      <trkpt lat="46.95507" lon="8.73057">
        <ele>1307</ele>
        <time>2021-08-06T10:27:44.487Z</time>
      </trkpt>
      <trkpt lat="46.95506" lon="8.73056">
        <ele>1308</ele>
        <time>2021-08-06T10:27:49.592Z</time>
      </trkpt>
      <trkpt lat="46.95506" lon="8.73055">
        <ele>1307</ele>
        <time>2021-08-06T10:27:50.593Z</time>
      </trkpt>
      <trkpt lat="46.95506" lon="8.73054">
        <ele>1307</ele>
        <time>2021-08-06T10:28:00.471Z</time>
      </trkpt>
      <trkpt lat="46.95505" lon="8.73053">
        <ele>1307</ele>
        <time>2021-08-06T10:28:01.471Z</time>
      </trkpt>
      <trkpt lat="46.95505" lon="8.73053">
        <ele>1306</ele>
        <time>2021-08-06T10:28:02.471Z</time>
      </trkpt>
      <trkpt lat="46.95504" lon="8.73052">
        <ele>1305</ele>
        <time>2021-08-06T10:28:03.472Z</time>
      </trkpt>
      <trkpt lat="46.95504" lon="8.73052">
        <ele>1305</ele>
        <time>2021-08-06T10:28:04.471Z</time>
      </trkpt>
      <trkpt lat="46.95503" lon="8.73051">
        <ele>1305</ele>
        <time>2021-08-06T10:28:05.472Z</time>
      </trkpt>
      <trkpt lat="46.95503" lon="8.73051">
        <ele>1305</ele>
        <time>2021-08-06T10:28:06.471Z</time>
      </trkpt>
      <trkpt lat="46.95503" lon="8.7305">
        <ele>1305</ele>
        <time>2021-08-06T10:28:07.472Z</time>
      </trkpt>
      <trkpt lat="46.95502" lon="8.73049">
        <ele>1305</ele>
        <time>2021-08-06T10:28:08.472Z</time>
      </trkpt>
      <trkpt lat="46.95502" lon="8.73048">
        <ele>1305</ele>
        <time>2021-08-06T10:28:09.471Z</time>
      </trkpt>
      <trkpt lat="46.95502" lon="8.73048">
        <ele>1305</ele>
        <time>2021-08-06T10:28:10.472Z</time>
      </trkpt>
      <trkpt lat="46.95501" lon="8.73047">
        <ele>1306</ele>
        <time>2021-08-06T10:28:11.471Z</time>
      </trkpt>
      <trkpt lat="46.95501" lon="8.73047">
        <ele>1306</ele>
        <time>2021-08-06T10:28:12.471Z</time>
      </trkpt>
      <trkpt lat="46.95501" lon="8.73046">
        <ele>1307</ele>
        <time>2021-08-06T10:28:13.472Z</time>
      </trkpt>
      <trkpt lat="46.955" lon="8.73046">
        <ele>1307</ele>
        <time>2021-08-06T10:28:14.471Z</time>
      </trkpt>
      <trkpt lat="46.955" lon="8.73045">
        <ele>1307</ele>
        <time>2021-08-06T10:28:15.472Z</time>
      </trkpt>
      <trkpt lat="46.955" lon="8.73045">
        <ele>1307</ele>
        <time>2021-08-06T10:28:16.472Z</time>
      </trkpt>
      <trkpt lat="46.95499" lon="8.73044">
        <ele>1307</ele>
        <time>2021-08-06T10:28:17.472Z</time>
      </trkpt>
      <trkpt lat="46.95499" lon="8.73043">
        <ele>1307</ele>
        <time>2021-08-06T10:28:18.471Z</time>
      </trkpt>
      <trkpt lat="46.95499" lon="8.73043">
        <ele>1306</ele>
        <time>2021-08-06T10:28:19.471Z</time>
      </trkpt>
      <trkpt lat="46.95499" lon="8.73042">
        <ele>1306</ele>
        <time>2021-08-06T10:28:20.472Z</time>
      </trkpt>
      <trkpt lat="46.95498" lon="8.73041">
        <ele>1306</ele>
        <time>2021-08-06T10:28:21.471Z</time>
      </trkpt>
      <trkpt lat="46.95498" lon="8.7304">
        <ele>1305</ele>
        <time>2021-08-06T10:28:22.471Z</time>
      </trkpt>
      <trkpt lat="46.95497" lon="8.73039">
        <ele>1305</ele>
        <time>2021-08-06T10:28:23.472Z</time>
      </trkpt>
      <trkpt lat="46.95497" lon="8.73038">
        <ele>1305</ele>
        <time>2021-08-06T10:28:24.471Z</time>
      </trkpt>
      <trkpt lat="46.95496" lon="8.73037">
        <ele>1305</ele>
        <time>2021-08-06T10:28:25.471Z</time>
      </trkpt>
      <trkpt lat="46.95496" lon="8.73036">
        <ele>1305</ele>
        <time>2021-08-06T10:28:26.471Z</time>
      </trkpt>
      <trkpt lat="46.95496" lon="8.73034">
        <ele>1306</ele>
        <time>2021-08-06T10:28:27.471Z</time>
      </trkpt>
      <trkpt lat="46.95496" lon="8.73033">
        <ele>1306</ele>
        <time>2021-08-06T10:28:28.471Z</time>
      </trkpt>
      <trkpt lat="46.95496" lon="8.73032">
        <ele>1306</ele>
        <time>2021-08-06T10:28:29.471Z</time>
      </trkpt>
      <trkpt lat="46.95496" lon="8.73032">
        <ele>1306</ele>
        <time>2021-08-06T10:28:30.472Z</time>
      </trkpt>
      <trkpt lat="46.95495" lon="8.73031">
        <ele>1306</ele>
        <time>2021-08-06T10:28:31.471Z</time>
      </trkpt>
      <trkpt lat="46.95495" lon="8.73031">
        <ele>1306</ele>
        <time>2021-08-06T10:28:40.590Z</time>
      </trkpt>
      <trkpt lat="46.95495" lon="8.7303">
        <ele>1305</ele>
        <time>2021-08-06T10:28:41.590Z</time>
      </trkpt>
      <trkpt lat="46.95495" lon="8.73029">
        <ele>1306</ele>
        <time>2021-08-06T10:28:42.590Z</time>
      </trkpt>
      <trkpt lat="46.95495" lon="8.73028">
        <ele>1307</ele>
        <time>2021-08-06T10:28:43.590Z</time>
      </trkpt>
      <trkpt lat="46.95495" lon="8.73026">
        <ele>1307</ele>
        <time>2021-08-06T10:28:53.690Z</time>
      </trkpt>
      <trkpt lat="46.95494" lon="8.73026">
        <ele>1308</ele>
        <time>2021-08-06T10:28:54.690Z</time>
      </trkpt>
      <trkpt lat="46.95494" lon="8.73025">
        <ele>1309</ele>
        <time>2021-08-06T10:28:55.691Z</time>
      </trkpt>
      <trkpt lat="46.95494" lon="8.73024">
        <ele>1309</ele>
        <time>2021-08-06T10:28:56.691Z</time>
      </trkpt>
      <trkpt lat="46.95494" lon="8.73024">
        <ele>1310</ele>
        <time>2021-08-06T10:28:57.690Z</time>
      </trkpt>
      <trkpt lat="46.95494" lon="8.73024">
        <ele>1310</ele>
        <time>2021-08-06T10:28:58.691Z</time>
      </trkpt>
      <trkpt lat="46.95494" lon="8.73023">
        <ele>1310</ele>
        <time>2021-08-06T10:28:59.691Z</time>
      </trkpt>
      <trkpt lat="46.95494" lon="8.73022">
        <ele>1309</ele>
        <time>2021-08-06T10:29:00.690Z</time>
      </trkpt>
      <trkpt lat="46.95493" lon="8.73022">
        <ele>1310</ele>
        <time>2021-08-06T10:29:01.691Z</time>
      </trkpt>
      <trkpt lat="46.95493" lon="8.73021">
        <ele>1310</ele>
        <time>2021-08-06T10:29:02.690Z</time>
      </trkpt>
      <trkpt lat="46.95493" lon="8.73021">
        <ele>1310</ele>
        <time>2021-08-06T10:29:11.715Z</time>
      </trkpt>
      <trkpt lat="46.95493" lon="8.7302">
        <ele>1309</ele>
        <time>2021-08-06T10:29:12.715Z</time>
      </trkpt>
      <trkpt lat="46.95492" lon="8.73019">
        <ele>1309</ele>
        <time>2021-08-06T10:29:13.715Z</time>
      </trkpt>
      <trkpt lat="46.95492" lon="8.73018">
        <ele>1309</ele>
        <time>2021-08-06T10:29:14.715Z</time>
      </trkpt>
      <trkpt lat="46.95492" lon="8.73017">
        <ele>1309</ele>
        <time>2021-08-06T10:29:15.715Z</time>
      </trkpt>
      <trkpt lat="46.95492" lon="8.73016">
        <ele>1308</ele>
        <time>2021-08-06T10:29:16.715Z</time>
      </trkpt>
      <trkpt lat="46.95491" lon="8.73015">
        <ele>1308</ele>
        <time>2021-08-06T10:29:17.715Z</time>
      </trkpt>
      <trkpt lat="46.95491" lon="8.73014">
        <ele>1309</ele>
        <time>2021-08-06T10:29:18.715Z</time>
      </trkpt>
      <trkpt lat="46.9549" lon="8.73013">
        <ele>1310</ele>
        <time>2021-08-06T10:29:19.715Z</time>
      </trkpt>
      <trkpt lat="46.9549" lon="8.73012">
        <ele>1310</ele>
        <time>2021-08-06T10:29:20.715Z</time>
      </trkpt>
      <trkpt lat="46.95489" lon="8.73012">
        <ele>1311</ele>
        <time>2021-08-06T10:29:21.716Z</time>
      </trkpt>
      <trkpt lat="46.95489" lon="8.73011">
        <ele>1311</ele>
        <time>2021-08-06T10:29:22.715Z</time>
      </trkpt>
      <trkpt lat="46.95488" lon="8.7301">
        <ele>1311</ele>
        <time>2021-08-06T10:29:23.715Z</time>
      </trkpt>
      <trkpt lat="46.95488" lon="8.73009">
        <ele>1312</ele>
        <time>2021-08-06T10:29:24.715Z</time>
      </trkpt>
      <trkpt lat="46.95488" lon="8.73008">
        <ele>1312</ele>
        <time>2021-08-06T10:29:25.715Z</time>
      </trkpt>
      <trkpt lat="46.95487" lon="8.73007">
        <ele>1313</ele>
        <time>2021-08-06T10:29:26.716Z</time>
      </trkpt>
      <trkpt lat="46.95487" lon="8.73006">
        <ele>1313</ele>
        <time>2021-08-06T10:29:27.715Z</time>
      </trkpt>
      <trkpt lat="46.95487" lon="8.73005">
        <ele>1313</ele>
        <time>2021-08-06T10:29:28.715Z</time>
      </trkpt>
      <trkpt lat="46.95486" lon="8.73004">
        <ele>1313</ele>
        <time>2021-08-06T10:29:29.715Z</time>
      </trkpt>
      <trkpt lat="46.95485" lon="8.73003">
        <ele>1313</ele>
        <time>2021-08-06T10:29:30.716Z</time>
      </trkpt>
      <trkpt lat="46.95485" lon="8.73003">
        <ele>1313</ele>
        <time>2021-08-06T10:29:31.715Z</time>
      </trkpt>
      <trkpt lat="46.95485" lon="8.73002">
        <ele>1313</ele>
        <time>2021-08-06T10:29:32.715Z</time>
      </trkpt>
      <trkpt lat="46.95484" lon="8.73001">
        <ele>1313</ele>
        <time>2021-08-06T10:29:33.715Z</time>
      </trkpt>
      <trkpt lat="46.95484" lon="8.73">
        <ele>1313</ele>
        <time>2021-08-06T10:29:34.715Z</time>
      </trkpt>
      <trkpt lat="46.95483" lon="8.73">
        <ele>1313</ele>
        <time>2021-08-06T10:29:35.715Z</time>
      </trkpt>
      <trkpt lat="46.95483" lon="8.72999">
        <ele>1313</ele>
        <time>2021-08-06T10:29:36.715Z</time>
      </trkpt>
      <trkpt lat="46.95483" lon="8.72999">
        <ele>1313</ele>
        <time>2021-08-06T10:29:37.716Z</time>
      </trkpt>
      <trkpt lat="46.95482" lon="8.72998">
        <ele>1314</ele>
        <time>2021-08-06T10:29:38.716Z</time>
      </trkpt>
      <trkpt lat="46.95482" lon="8.72998">
        <ele>1314</ele>
        <time>2021-08-06T10:29:39.715Z</time>
      </trkpt>
      <trkpt lat="46.95481" lon="8.72997">
        <ele>1315</ele>
        <time>2021-08-06T10:29:40.716Z</time>
      </trkpt>
      <trkpt lat="46.95481" lon="8.72996">
        <ele>1315</ele>
        <time>2021-08-06T10:29:41.716Z</time>
      </trkpt>
      <trkpt lat="46.95481" lon="8.72995">
        <ele>1315</ele>
        <time>2021-08-06T10:29:42.715Z</time>
      </trkpt>
      <trkpt lat="46.9548" lon="8.72994">
        <ele>1315</ele>
        <time>2021-08-06T10:29:43.715Z</time>
      </trkpt>
      <trkpt lat="46.9548" lon="8.72993">
        <ele>1315</ele>
        <time>2021-08-06T10:29:44.715Z</time>
      </trkpt>
      <trkpt lat="46.95479" lon="8.72993">
        <ele>1315</ele>
        <time>2021-08-06T10:29:45.716Z</time>
      </trkpt>
      <trkpt lat="46.95479" lon="8.72992">
        <ele>1316</ele>
        <time>2021-08-06T10:29:46.716Z</time>
      </trkpt>
      <trkpt lat="46.95479" lon="8.72991">
        <ele>1316</ele>
        <time>2021-08-06T10:29:47.716Z</time>
      </trkpt>
      <trkpt lat="46.95478" lon="8.7299">
        <ele>1316</ele>
        <time>2021-08-06T10:29:48.716Z</time>
      </trkpt>
      <trkpt lat="46.95478" lon="8.72989">
        <ele>1316</ele>
        <time>2021-08-06T10:29:49.715Z</time>
      </trkpt>
      <trkpt lat="46.95477" lon="8.72989">
        <ele>1316</ele>
        <time>2021-08-06T10:29:50.715Z</time>
      </trkpt>
      <trkpt lat="46.95477" lon="8.72988">
        <ele>1315</ele>
        <time>2021-08-06T10:29:51.715Z</time>
      </trkpt>
      <trkpt lat="46.95477" lon="8.72987">
        <ele>1315</ele>
        <time>2021-08-06T10:29:52.716Z</time>
      </trkpt>
      <trkpt lat="46.95476" lon="8.72986">
        <ele>1316</ele>
        <time>2021-08-06T10:29:53.715Z</time>
      </trkpt>
      <trkpt lat="46.95476" lon="8.72985">
        <ele>1316</ele>
        <time>2021-08-06T10:29:54.716Z</time>
      </trkpt>
      <trkpt lat="46.95476" lon="8.72985">
        <ele>1317</ele>
        <time>2021-08-06T10:29:55.715Z</time>
      </trkpt>
      <trkpt lat="46.95476" lon="8.72984">
        <ele>1317</ele>
        <time>2021-08-06T10:29:56.715Z</time>
      </trkpt>
      <trkpt lat="46.95475" lon="8.72983">
        <ele>1318</ele>
        <time>2021-08-06T10:29:57.715Z</time>
      </trkpt>
      <trkpt lat="46.95475" lon="8.72983">
        <ele>1318</ele>
        <time>2021-08-06T10:29:58.716Z</time>
      </trkpt>
      <trkpt lat="46.95474" lon="8.72982">
        <ele>1317</ele>
        <time>2021-08-06T10:29:59.715Z</time>
      </trkpt>
      <trkpt lat="46.95474" lon="8.72981">
        <ele>1317</ele>
        <time>2021-08-06T10:30:00.716Z</time>
      </trkpt>
      <trkpt lat="46.95474" lon="8.72981">
        <ele>1317</ele>
        <time>2021-08-06T10:30:01.716Z</time>
      </trkpt>
      <trkpt lat="46.95474" lon="8.7298">
        <ele>1317</ele>
        <time>2021-08-06T10:30:02.715Z</time>
      </trkpt>
      <trkpt lat="46.95473" lon="8.72979">
        <ele>1317</ele>
        <time>2021-08-06T10:30:03.715Z</time>
      </trkpt>
      <trkpt lat="46.95473" lon="8.72978">
        <ele>1317</ele>
        <time>2021-08-06T10:30:04.715Z</time>
      </trkpt>
      <trkpt lat="46.95473" lon="8.72977">
        <ele>1316</ele>
        <time>2021-08-06T10:30:05.715Z</time>
      </trkpt>
      <trkpt lat="46.95472" lon="8.72977">
        <ele>1316</ele>
        <time>2021-08-06T10:30:06.716Z</time>
      </trkpt>
      <trkpt lat="46.95472" lon="8.72976">
        <ele>1315</ele>
        <time>2021-08-06T10:30:07.715Z</time>
      </trkpt>
      <trkpt lat="46.95472" lon="8.72975">
        <ele>1315</ele>
        <time>2021-08-06T10:30:08.715Z</time>
      </trkpt>
      <trkpt lat="46.95472" lon="8.72974">
        <ele>1314</ele>
        <time>2021-08-06T10:30:09.716Z</time>
      </trkpt>
      <trkpt lat="46.95472" lon="8.72973">
        <ele>1314</ele>
        <time>2021-08-06T10:30:10.715Z</time>
      </trkpt>
      <trkpt lat="46.95472" lon="8.72972">
        <ele>1314</ele>
        <time>2021-08-06T10:30:11.715Z</time>
      </trkpt>
      <trkpt lat="46.95471" lon="8.72972">
        <ele>1315</ele>
        <time>2021-08-06T10:30:12.716Z</time>
      </trkpt>
      <trkpt lat="46.95471" lon="8.72971">
        <ele>1315</ele>
        <time>2021-08-06T10:30:13.715Z</time>
      </trkpt>
      <trkpt lat="46.95471" lon="8.7297">
        <ele>1315</ele>
        <time>2021-08-06T10:30:14.716Z</time>
      </trkpt>
      <trkpt lat="46.95471" lon="8.72969">
        <ele>1315</ele>
        <time>2021-08-06T10:30:15.715Z</time>
      </trkpt>
      <trkpt lat="46.9547" lon="8.72968">
        <ele>1315</ele>
        <time>2021-08-06T10:30:16.715Z</time>
      </trkpt>
      <trkpt lat="46.9547" lon="8.72967">
        <ele>1315</ele>
        <time>2021-08-06T10:30:17.716Z</time>
      </trkpt>
      <trkpt lat="46.9547" lon="8.72966">
        <ele>1315</ele>
        <time>2021-08-06T10:30:18.716Z</time>
      </trkpt>
      <trkpt lat="46.9547" lon="8.72966">
        <ele>1316</ele>
        <time>2021-08-06T10:30:19.716Z</time>
      </trkpt>
      <trkpt lat="46.9547" lon="8.72964">
        <ele>1316</ele>
        <time>2021-08-06T10:30:20.716Z</time>
      </trkpt>
      <trkpt lat="46.9547" lon="8.72963">
        <ele>1316</ele>
        <time>2021-08-06T10:30:21.715Z</time>
      </trkpt>
      <trkpt lat="46.9547" lon="8.72962">
        <ele>1317</ele>
        <time>2021-08-06T10:30:22.716Z</time>
      </trkpt>
      <trkpt lat="46.9547" lon="8.72961">
        <ele>1318</ele>
        <time>2021-08-06T10:30:23.715Z</time>
      </trkpt>
      <trkpt lat="46.9547" lon="8.7296">
        <ele>1319</ele>
        <time>2021-08-06T10:30:24.715Z</time>
      </trkpt>
      <trkpt lat="46.9547" lon="8.7296">
        <ele>1319</ele>
        <time>2021-08-06T10:30:25.715Z</time>
      </trkpt>
      <trkpt lat="46.9547" lon="8.72959">
        <ele>1320</ele>
        <time>2021-08-06T10:30:26.716Z</time>
      </trkpt>
      <trkpt lat="46.9547" lon="8.72958">
        <ele>1321</ele>
        <time>2021-08-06T10:30:27.715Z</time>
      </trkpt>
      <trkpt lat="46.9547" lon="8.72958">
        <ele>1322</ele>
        <time>2021-08-06T10:30:28.716Z</time>
      </trkpt>
      <trkpt lat="46.9547" lon="8.72957">
        <ele>1323</ele>
        <time>2021-08-06T10:30:29.715Z</time>
      </trkpt>
      <trkpt lat="46.9547" lon="8.72956">
        <ele>1323</ele>
        <time>2021-08-06T10:30:30.715Z</time>
      </trkpt>
      <trkpt lat="46.95469" lon="8.72955">
        <ele>1324</ele>
        <time>2021-08-06T10:30:31.715Z</time>
      </trkpt>
      <trkpt lat="46.95469" lon="8.72954">
        <ele>1324</ele>
        <time>2021-08-06T10:30:32.715Z</time>
      </trkpt>
      <trkpt lat="46.95469" lon="8.72953">
        <ele>1325</ele>
        <time>2021-08-06T10:30:33.715Z</time>
      </trkpt>
      <trkpt lat="46.95469" lon="8.72952">
        <ele>1325</ele>
        <time>2021-08-06T10:30:34.715Z</time>
      </trkpt>
      <trkpt lat="46.95469" lon="8.72951">
        <ele>1325</ele>
        <time>2021-08-06T10:30:35.715Z</time>
      </trkpt>
      <trkpt lat="46.9547" lon="8.7295">
        <ele>1324</ele>
        <time>2021-08-06T10:30:36.715Z</time>
      </trkpt>
      <trkpt lat="46.9547" lon="8.72949">
        <ele>1324</ele>
        <time>2021-08-06T10:30:37.715Z</time>
      </trkpt>
      <trkpt lat="46.95469" lon="8.72948">
        <ele>1323</ele>
        <time>2021-08-06T10:30:38.716Z</time>
      </trkpt>
      <trkpt lat="46.95469" lon="8.72947">
        <ele>1322</ele>
        <time>2021-08-06T10:30:39.715Z</time>
      </trkpt>
      <trkpt lat="46.95469" lon="8.72946">
        <ele>1321</ele>
        <time>2021-08-06T10:30:40.716Z</time>
      </trkpt>
      <trkpt lat="46.95469" lon="8.72945">
        <ele>1321</ele>
        <time>2021-08-06T10:30:41.715Z</time>
      </trkpt>
      <trkpt lat="46.95469" lon="8.72944">
        <ele>1320</ele>
        <time>2021-08-06T10:30:42.715Z</time>
      </trkpt>
      <trkpt lat="46.95469" lon="8.72943">
        <ele>1319</ele>
        <time>2021-08-06T10:30:43.715Z</time>
      </trkpt>
      <trkpt lat="46.95469" lon="8.72942">
        <ele>1318</ele>
        <time>2021-08-06T10:30:44.715Z</time>
      </trkpt>
      <trkpt lat="46.95469" lon="8.72941">
        <ele>1318</ele>
        <time>2021-08-06T10:30:45.715Z</time>
      </trkpt>
      <trkpt lat="46.95469" lon="8.7294">
        <ele>1317</ele>
        <time>2021-08-06T10:30:46.715Z</time>
      </trkpt>
      <trkpt lat="46.95469" lon="8.72938">
        <ele>1316</ele>
        <time>2021-08-06T10:30:47.715Z</time>
      </trkpt>
      <trkpt lat="46.95469" lon="8.72937">
        <ele>1316</ele>
        <time>2021-08-06T10:30:48.715Z</time>
      </trkpt>
      <trkpt lat="46.95469" lon="8.72936">
        <ele>1315</ele>
        <time>2021-08-06T10:30:49.715Z</time>
      </trkpt>
      <trkpt lat="46.95469" lon="8.72935">
        <ele>1314</ele>
        <time>2021-08-06T10:30:50.716Z</time>
      </trkpt>
      <trkpt lat="46.95469" lon="8.72935">
        <ele>1314</ele>
        <time>2021-08-06T10:30:51.715Z</time>
      </trkpt>
      <trkpt lat="46.95469" lon="8.72934">
        <ele>1314</ele>
        <time>2021-08-06T10:30:52.715Z</time>
      </trkpt>
      <trkpt lat="46.95469" lon="8.72933">
        <ele>1314</ele>
        <time>2021-08-06T10:30:53.715Z</time>
      </trkpt>
      <trkpt lat="46.95469" lon="8.72932">
        <ele>1315</ele>
        <time>2021-08-06T10:30:54.715Z</time>
      </trkpt>
      <trkpt lat="46.95469" lon="8.72931">
        <ele>1316</ele>
        <time>2021-08-06T10:30:55.715Z</time>
      </trkpt>
      <trkpt lat="46.95469" lon="8.7293">
        <ele>1317</ele>
        <time>2021-08-06T10:30:56.715Z</time>
      </trkpt>
      <trkpt lat="46.95468" lon="8.72929">
        <ele>1318</ele>
        <time>2021-08-06T10:30:57.716Z</time>
      </trkpt>
      <trkpt lat="46.95468" lon="8.72929">
        <ele>1319</ele>
        <time>2021-08-06T10:30:58.716Z</time>
      </trkpt>
      <trkpt lat="46.95468" lon="8.72928">
        <ele>1320</ele>
        <time>2021-08-06T10:30:59.715Z</time>
      </trkpt>
      <trkpt lat="46.95468" lon="8.72927">
        <ele>1321</ele>
        <time>2021-08-06T10:31:00.715Z</time>
      </trkpt>
      <trkpt lat="46.95468" lon="8.72926">
        <ele>1322</ele>
        <time>2021-08-06T10:31:01.715Z</time>
      </trkpt>
      <trkpt lat="46.95467" lon="8.72925">
        <ele>1323</ele>
        <time>2021-08-06T10:31:02.716Z</time>
      </trkpt>
      <trkpt lat="46.95467" lon="8.72924">
        <ele>1324</ele>
        <time>2021-08-06T10:31:03.715Z</time>
      </trkpt>
      <trkpt lat="46.95467" lon="8.72923">
        <ele>1324</ele>
        <time>2021-08-06T10:31:04.715Z</time>
      </trkpt>
      <trkpt lat="46.95466" lon="8.72921">
        <ele>1324</ele>
        <time>2021-08-06T10:31:05.716Z</time>
      </trkpt>
      <trkpt lat="46.95466" lon="8.7292">
        <ele>1324</ele>
        <time>2021-08-06T10:31:06.715Z</time>
      </trkpt>
      <trkpt lat="46.95466" lon="8.7292">
        <ele>1325</ele>
        <time>2021-08-06T10:31:07.715Z</time>
      </trkpt>
      <trkpt lat="46.95465" lon="8.72919">
        <ele>1325</ele>
        <time>2021-08-06T10:31:08.715Z</time>
      </trkpt>
      <trkpt lat="46.95465" lon="8.72918">
        <ele>1325</ele>
        <time>2021-08-06T10:31:09.716Z</time>
      </trkpt>
      <trkpt lat="46.95464" lon="8.72917">
        <ele>1326</ele>
        <time>2021-08-06T10:31:10.715Z</time>
      </trkpt>
      <trkpt lat="46.95464" lon="8.72916">
        <ele>1326</ele>
        <time>2021-08-06T10:31:11.715Z</time>
      </trkpt>
      <trkpt lat="46.95463" lon="8.72916">
        <ele>1326</ele>
        <time>2021-08-06T10:31:12.715Z</time>
      </trkpt>
      <trkpt lat="46.95463" lon="8.72915">
        <ele>1327</ele>
        <time>2021-08-06T10:31:13.715Z</time>
      </trkpt>
      <trkpt lat="46.95462" lon="8.72914">
        <ele>1327</ele>
        <time>2021-08-06T10:31:14.716Z</time>
      </trkpt>
      <trkpt lat="46.95462" lon="8.72914">
        <ele>1327</ele>
        <time>2021-08-06T10:31:15.715Z</time>
      </trkpt>
      <trkpt lat="46.95462" lon="8.72912">
        <ele>1327</ele>
        <time>2021-08-06T10:31:16.716Z</time>
      </trkpt>
      <trkpt lat="46.95462" lon="8.72911">
        <ele>1327</ele>
        <time>2021-08-06T10:31:17.716Z</time>
      </trkpt>
      <trkpt lat="46.95461" lon="8.72911">
        <ele>1327</ele>
        <time>2021-08-06T10:31:18.715Z</time>
      </trkpt>
      <trkpt lat="46.9546" lon="8.7291">
        <ele>1327</ele>
        <time>2021-08-06T10:31:19.715Z</time>
      </trkpt>
      <trkpt lat="46.9546" lon="8.72909">
        <ele>1327</ele>
        <time>2021-08-06T10:31:20.715Z</time>
      </trkpt>
      <trkpt lat="46.95459" lon="8.72908">
        <ele>1327</ele>
        <time>2021-08-06T10:31:21.715Z</time>
      </trkpt>
      <trkpt lat="46.95458" lon="8.72907">
        <ele>1327</ele>
        <time>2021-08-06T10:31:22.716Z</time>
      </trkpt>
      <trkpt lat="46.95458" lon="8.72906">
        <ele>1327</ele>
        <time>2021-08-06T10:31:23.715Z</time>
      </trkpt>
      <trkpt lat="46.95457" lon="8.72905">
        <ele>1327</ele>
        <time>2021-08-06T10:31:24.715Z</time>
      </trkpt>
      <trkpt lat="46.95456" lon="8.72904">
        <ele>1326</ele>
        <time>2021-08-06T10:31:25.715Z</time>
      </trkpt>
      <trkpt lat="46.95456" lon="8.72903">
        <ele>1326</ele>
        <time>2021-08-06T10:31:26.715Z</time>
      </trkpt>
      <trkpt lat="46.95455" lon="8.72902">
        <ele>1326</ele>
        <time>2021-08-06T10:31:27.715Z</time>
      </trkpt>
      <trkpt lat="46.95455" lon="8.72901">
        <ele>1326</ele>
        <time>2021-08-06T10:31:28.716Z</time>
      </trkpt>
      <trkpt lat="46.95454" lon="8.729">
        <ele>1326</ele>
        <time>2021-08-06T10:31:29.715Z</time>
      </trkpt>
      <trkpt lat="46.95454" lon="8.72899">
        <ele>1327</ele>
        <time>2021-08-06T10:31:30.715Z</time>
      </trkpt>
      <trkpt lat="46.95453" lon="8.72898">
        <ele>1327</ele>
        <time>2021-08-06T10:31:31.716Z</time>
      </trkpt>
      <trkpt lat="46.95453" lon="8.72897">
        <ele>1326</ele>
        <time>2021-08-06T10:31:32.715Z</time>
      </trkpt>
      <trkpt lat="46.95452" lon="8.72896">
        <ele>1326</ele>
        <time>2021-08-06T10:31:33.715Z</time>
      </trkpt>
      <trkpt lat="46.95452" lon="8.72895">
        <ele>1326</ele>
        <time>2021-08-06T10:31:34.715Z</time>
      </trkpt>
      <trkpt lat="46.95451" lon="8.72893">
        <ele>1326</ele>
        <time>2021-08-06T10:31:35.715Z</time>
      </trkpt>
      <trkpt lat="46.95451" lon="8.72892">
        <ele>1326</ele>
        <time>2021-08-06T10:31:36.716Z</time>
      </trkpt>
      <trkpt lat="46.95451" lon="8.72891">
        <ele>1326</ele>
        <time>2021-08-06T10:31:37.716Z</time>
      </trkpt>
      <trkpt lat="46.9545" lon="8.7289">
        <ele>1325</ele>
        <time>2021-08-06T10:31:38.716Z</time>
      </trkpt>
      <trkpt lat="46.95449" lon="8.72888">
        <ele>1325</ele>
        <time>2021-08-06T10:31:39.715Z</time>
      </trkpt>
      <trkpt lat="46.95449" lon="8.72887">
        <ele>1325</ele>
        <time>2021-08-06T10:31:40.715Z</time>
      </trkpt>
      <trkpt lat="46.95448" lon="8.72886">
        <ele>1325</ele>
        <time>2021-08-06T10:31:41.715Z</time>
      </trkpt>
      <trkpt lat="46.95448" lon="8.72884">
        <ele>1325</ele>
        <time>2021-08-06T10:31:42.716Z</time>
      </trkpt>
      <trkpt lat="46.95447" lon="8.72883">
        <ele>1325</ele>
        <time>2021-08-06T10:31:43.715Z</time>
      </trkpt>
      <trkpt lat="46.95447" lon="8.72882">
        <ele>1325</ele>
        <time>2021-08-06T10:31:44.715Z</time>
      </trkpt>
      <trkpt lat="46.95446" lon="8.72881">
        <ele>1325</ele>
        <time>2021-08-06T10:31:45.716Z</time>
      </trkpt>
      <trkpt lat="46.95446" lon="8.7288">
        <ele>1325</ele>
        <time>2021-08-06T10:31:46.716Z</time>
      </trkpt>
      <trkpt lat="46.95445" lon="8.7288">
        <ele>1325</ele>
        <time>2021-08-06T10:31:47.715Z</time>
      </trkpt>
      <trkpt lat="46.95445" lon="8.72879">
        <ele>1325</ele>
        <time>2021-08-06T10:31:48.715Z</time>
      </trkpt>
      <trkpt lat="46.95444" lon="8.72878">
        <ele>1325</ele>
        <time>2021-08-06T10:31:49.715Z</time>
      </trkpt>
      <trkpt lat="46.95444" lon="8.72877">
        <ele>1325</ele>
        <time>2021-08-06T10:31:50.715Z</time>
      </trkpt>
      <trkpt lat="46.95443" lon="8.72876">
        <ele>1325</ele>
        <time>2021-08-06T10:31:51.715Z</time>
      </trkpt>
      <trkpt lat="46.95443" lon="8.72875">
        <ele>1325</ele>
        <time>2021-08-06T10:31:52.715Z</time>
      </trkpt>
      <trkpt lat="46.95443" lon="8.72874">
        <ele>1326</ele>
        <time>2021-08-06T10:31:53.716Z</time>
      </trkpt>
      <trkpt lat="46.95442" lon="8.72874">
        <ele>1327</ele>
        <time>2021-08-06T10:31:54.716Z</time>
      </trkpt>
      <trkpt lat="46.95442" lon="8.72873">
        <ele>1327</ele>
        <time>2021-08-06T10:31:55.716Z</time>
      </trkpt>
      <trkpt lat="46.95441" lon="8.72872">
        <ele>1328</ele>
        <time>2021-08-06T10:31:56.715Z</time>
      </trkpt>
      <trkpt lat="46.95441" lon="8.72872">
        <ele>1328</ele>
        <time>2021-08-06T10:31:57.716Z</time>
      </trkpt>
      <trkpt lat="46.9544" lon="8.72871">
        <ele>1328</ele>
        <time>2021-08-06T10:31:58.715Z</time>
      </trkpt>
      <trkpt lat="46.95439" lon="8.7287">
        <ele>1329</ele>
        <time>2021-08-06T10:31:59.715Z</time>
      </trkpt>
      <trkpt lat="46.95439" lon="8.72869">
        <ele>1329</ele>
        <time>2021-08-06T10:32:00.715Z</time>
      </trkpt>
      <trkpt lat="46.95438" lon="8.72868">
        <ele>1329</ele>
        <time>2021-08-06T10:32:01.715Z</time>
      </trkpt>
      <trkpt lat="46.95438" lon="8.72867">
        <ele>1328</ele>
        <time>2021-08-06T10:32:02.716Z</time>
      </trkpt>
      <trkpt lat="46.95437" lon="8.72866">
        <ele>1329</ele>
        <time>2021-08-06T10:32:03.715Z</time>
      </trkpt>
      <trkpt lat="46.95436" lon="8.72865">
        <ele>1329</ele>
        <time>2021-08-06T10:32:24.814Z</time>
      </trkpt>
      <trkpt lat="46.95436" lon="8.72865">
        <ele>1329</ele>
        <time>2021-08-06T10:32:25.814Z</time>
      </trkpt>
      <trkpt lat="46.95436" lon="8.72864">
        <ele>1328</ele>
        <time>2021-08-06T10:32:32.744Z</time>
      </trkpt>
      <trkpt lat="46.95435" lon="8.72863">
        <ele>1328</ele>
        <time>2021-08-06T10:32:36.569Z</time>
      </trkpt>
      <trkpt lat="46.95434" lon="8.72862">
        <ele>1327</ele>
        <time>2021-08-06T10:32:37.569Z</time>
      </trkpt>
      <trkpt lat="46.95434" lon="8.72861">
        <ele>1328</ele>
        <time>2021-08-06T10:32:38.568Z</time>
      </trkpt>
      <trkpt lat="46.95434" lon="8.7286">
        <ele>1328</ele>
        <time>2021-08-06T10:32:39.568Z</time>
      </trkpt>
      <trkpt lat="46.95433" lon="8.7286">
        <ele>1328</ele>
        <time>2021-08-06T10:32:40.568Z</time>
      </trkpt>
      <trkpt lat="46.95433" lon="8.72859">
        <ele>1328</ele>
        <time>2021-08-06T10:32:41.568Z</time>
      </trkpt>
      <trkpt lat="46.95432" lon="8.72858">
        <ele>1328</ele>
        <time>2021-08-06T10:32:42.569Z</time>
      </trkpt>
      <trkpt lat="46.95432" lon="8.72858">
        <ele>1327</ele>
        <time>2021-08-06T10:32:43.568Z</time>
      </trkpt>
      <trkpt lat="46.95432" lon="8.72858">
        <ele>1327</ele>
        <time>2021-08-06T10:32:44.569Z</time>
      </trkpt>
      <trkpt lat="46.95433" lon="8.72857">
        <ele>1326</ele>
        <time>2021-08-06T10:32:45.570Z</time>
      </trkpt>
      <trkpt lat="46.95433" lon="8.72856">
        <ele>1326</ele>
        <time>2021-08-06T10:32:46.570Z</time>
      </trkpt>
      <trkpt lat="46.95432" lon="8.72855">
        <ele>1326</ele>
        <time>2021-08-06T10:32:47.569Z</time>
      </trkpt>
      <trkpt lat="46.95431" lon="8.72854">
        <ele>1326</ele>
        <time>2021-08-06T10:32:48.570Z</time>
      </trkpt>
      <trkpt lat="46.95431" lon="8.72854">
        <ele>1327</ele>
        <time>2021-08-06T10:32:49.569Z</time>
      </trkpt>
      <trkpt lat="46.9543" lon="8.72854">
        <ele>1327</ele>
        <time>2021-08-06T10:32:50.569Z</time>
      </trkpt>
      <trkpt lat="46.9543" lon="8.72854">
        <ele>1327</ele>
        <time>2021-08-06T10:32:51.570Z</time>
      </trkpt>
      <trkpt lat="46.95431" lon="8.72852">
        <ele>1329</ele>
        <time>2021-08-06T10:32:52.569Z</time>
      </trkpt>
      <trkpt lat="46.95431" lon="8.72851">
        <ele>1329</ele>
        <time>2021-08-06T10:32:53.569Z</time>
      </trkpt>
      <trkpt lat="46.95431" lon="8.7285">
        <ele>1329</ele>
        <time>2021-08-06T10:32:54.569Z</time>
      </trkpt>
      <trkpt lat="46.95431" lon="8.72849">
        <ele>1329</ele>
        <time>2021-08-06T10:32:55.570Z</time>
      </trkpt>
      <trkpt lat="46.95431" lon="8.72848">
        <ele>1330</ele>
        <time>2021-08-06T10:32:56.570Z</time>
      </trkpt>
      <trkpt lat="46.95431" lon="8.72847">
        <ele>1330</ele>
        <time>2021-08-06T10:32:57.569Z</time>
      </trkpt>
      <trkpt lat="46.95431" lon="8.72846">
        <ele>1330</ele>
        <time>2021-08-06T10:32:58.570Z</time>
      </trkpt>
      <trkpt lat="46.9543" lon="8.72845">
        <ele>1331</ele>
        <time>2021-08-06T10:32:59.570Z</time>
      </trkpt>
      <trkpt lat="46.9543" lon="8.72844">
        <ele>1331</ele>
        <time>2021-08-06T10:33:00.570Z</time>
      </trkpt>
      <trkpt lat="46.95429" lon="8.72844">
        <ele>1331</ele>
        <time>2021-08-06T10:33:01.570Z</time>
      </trkpt>
      <trkpt lat="46.95429" lon="8.72843">
        <ele>1331</ele>
        <time>2021-08-06T10:33:02.570Z</time>
      </trkpt>
      <trkpt lat="46.95429" lon="8.72842">
        <ele>1331</ele>
        <time>2021-08-06T10:33:03.570Z</time>
      </trkpt>
      <trkpt lat="46.95429" lon="8.72841">
        <ele>1332</ele>
        <time>2021-08-06T10:33:04.569Z</time>
      </trkpt>
      <trkpt lat="46.95429" lon="8.7284">
        <ele>1332</ele>
        <time>2021-08-06T10:33:05.569Z</time>
      </trkpt>
      <trkpt lat="46.95429" lon="8.72839">
        <ele>1332</ele>
        <time>2021-08-06T10:33:06.570Z</time>
      </trkpt>
      <trkpt lat="46.95429" lon="8.72838">
        <ele>1333</ele>
        <time>2021-08-06T10:33:07.570Z</time>
      </trkpt>
      <trkpt lat="46.95428" lon="8.72837">
        <ele>1333</ele>
        <time>2021-08-06T10:33:08.569Z</time>
      </trkpt>
      <trkpt lat="46.95428" lon="8.72836">
        <ele>1334</ele>
        <time>2021-08-06T10:33:09.570Z</time>
      </trkpt>
      <trkpt lat="46.95428" lon="8.72835">
        <ele>1334</ele>
        <time>2021-08-06T10:33:10.569Z</time>
      </trkpt>
      <trkpt lat="46.95427" lon="8.72834">
        <ele>1334</ele>
        <time>2021-08-06T10:33:11.569Z</time>
      </trkpt>
      <trkpt lat="46.95427" lon="8.72833">
        <ele>1334</ele>
        <time>2021-08-06T10:33:12.569Z</time>
      </trkpt>
      <trkpt lat="46.95427" lon="8.72832">
        <ele>1335</ele>
        <time>2021-08-06T10:33:13.570Z</time>
      </trkpt>
      <trkpt lat="46.95427" lon="8.72831">
        <ele>1335</ele>
        <time>2021-08-06T10:33:14.569Z</time>
      </trkpt>
      <trkpt lat="46.95427" lon="8.7283">
        <ele>1335</ele>
        <time>2021-08-06T10:33:15.569Z</time>
      </trkpt>
      <trkpt lat="46.95426" lon="8.72829">
        <ele>1336</ele>
        <time>2021-08-06T10:33:16.570Z</time>
      </trkpt>
      <trkpt lat="46.95425" lon="8.72828">
        <ele>1336</ele>
        <time>2021-08-06T10:33:17.569Z</time>
      </trkpt>
      <trkpt lat="46.95425" lon="8.72827">
        <ele>1335</ele>
        <time>2021-08-06T10:33:18.569Z</time>
      </trkpt>
      <trkpt lat="46.95425" lon="8.72826">
        <ele>1335</ele>
        <time>2021-08-06T10:33:19.570Z</time>
      </trkpt>
      <trkpt lat="46.95424" lon="8.72825">
        <ele>1335</ele>
        <time>2021-08-06T10:33:20.570Z</time>
      </trkpt>
      <trkpt lat="46.95424" lon="8.72824">
        <ele>1335</ele>
        <time>2021-08-06T10:33:21.569Z</time>
      </trkpt>
      <trkpt lat="46.95424" lon="8.72823">
        <ele>1334</ele>
        <time>2021-08-06T10:33:22.570Z</time>
      </trkpt>
      <trkpt lat="46.95423" lon="8.72822">
        <ele>1334</ele>
        <time>2021-08-06T10:33:23.570Z</time>
      </trkpt>
      <trkpt lat="46.95422" lon="8.72821">
        <ele>1334</ele>
        <time>2021-08-06T10:33:24.570Z</time>
      </trkpt>
      <trkpt lat="46.95422" lon="8.7282">
        <ele>1334</ele>
        <time>2021-08-06T10:33:25.570Z</time>
      </trkpt>
      <trkpt lat="46.95421" lon="8.72819">
        <ele>1334</ele>
        <time>2021-08-06T10:33:26.569Z</time>
      </trkpt>
      <trkpt lat="46.9542" lon="8.72818">
        <ele>1335</ele>
        <time>2021-08-06T10:33:27.570Z</time>
      </trkpt>
      <trkpt lat="46.9542" lon="8.72817">
        <ele>1334</ele>
        <time>2021-08-06T10:33:28.570Z</time>
      </trkpt>
      <trkpt lat="46.95419" lon="8.72816">
        <ele>1334</ele>
        <time>2021-08-06T10:33:29.570Z</time>
      </trkpt>
      <trkpt lat="46.95419" lon="8.72815">
        <ele>1334</ele>
        <time>2021-08-06T10:33:30.570Z</time>
      </trkpt>
      <trkpt lat="46.95419" lon="8.72814">
        <ele>1334</ele>
        <time>2021-08-06T10:33:31.570Z</time>
      </trkpt>
      <trkpt lat="46.95418" lon="8.72813">
        <ele>1334</ele>
        <time>2021-08-06T10:33:32.570Z</time>
      </trkpt>
      <trkpt lat="46.95417" lon="8.72812">
        <ele>1334</ele>
        <time>2021-08-06T10:33:33.570Z</time>
      </trkpt>
      <trkpt lat="46.95417" lon="8.72811">
        <ele>1333</ele>
        <time>2021-08-06T10:33:34.569Z</time>
      </trkpt>
      <trkpt lat="46.95416" lon="8.7281">
        <ele>1333</ele>
        <time>2021-08-06T10:33:35.570Z</time>
      </trkpt>
      <trkpt lat="46.95416" lon="8.72808">
        <ele>1332</ele>
        <time>2021-08-06T10:33:36.570Z</time>
      </trkpt>
      <trkpt lat="46.95415" lon="8.72807">
        <ele>1332</ele>
        <time>2021-08-06T10:33:37.570Z</time>
      </trkpt>
      <trkpt lat="46.95415" lon="8.72806">
        <ele>1332</ele>
        <time>2021-08-06T10:33:38.570Z</time>
      </trkpt>
      <trkpt lat="46.95414" lon="8.72804">
        <ele>1332</ele>
        <time>2021-08-06T10:33:39.569Z</time>
      </trkpt>
      <trkpt lat="46.95413" lon="8.72803">
        <ele>1332</ele>
        <time>2021-08-06T10:33:40.569Z</time>
      </trkpt>
      <trkpt lat="46.95413" lon="8.72802">
        <ele>1332</ele>
        <time>2021-08-06T10:33:41.570Z</time>
      </trkpt>
      <trkpt lat="46.95412" lon="8.72801">
        <ele>1332</ele>
        <time>2021-08-06T10:33:42.570Z</time>
      </trkpt>
      <trkpt lat="46.95412" lon="8.728">
        <ele>1333</ele>
        <time>2021-08-06T10:33:43.570Z</time>
      </trkpt>
      <trkpt lat="46.95411" lon="8.72798">
        <ele>1333</ele>
        <time>2021-08-06T10:33:44.569Z</time>
      </trkpt>
      <trkpt lat="46.9541" lon="8.72797">
        <ele>1333</ele>
        <time>2021-08-06T10:33:45.570Z</time>
      </trkpt>
      <trkpt lat="46.9541" lon="8.72797">
        <ele>1333</ele>
        <time>2021-08-06T10:33:46.569Z</time>
      </trkpt>
      <trkpt lat="46.9541" lon="8.72796">
        <ele>1333</ele>
        <time>2021-08-06T10:33:47.570Z</time>
      </trkpt>
      <trkpt lat="46.9541" lon="8.72795">
        <ele>1332</ele>
        <time>2021-08-06T10:33:48.570Z</time>
      </trkpt>
      <trkpt lat="46.95409" lon="8.72794">
        <ele>1332</ele>
        <time>2021-08-06T10:33:49.570Z</time>
      </trkpt>
      <trkpt lat="46.95409" lon="8.72793">
        <ele>1331</ele>
        <time>2021-08-06T10:33:50.570Z</time>
      </trkpt>
      <trkpt lat="46.95409" lon="8.72792">
        <ele>1331</ele>
        <time>2021-08-06T10:33:51.570Z</time>
      </trkpt>
      <trkpt lat="46.95408" lon="8.72791">
        <ele>1330</ele>
        <time>2021-08-06T10:33:52.569Z</time>
      </trkpt>
      <trkpt lat="46.95408" lon="8.7279">
        <ele>1330</ele>
        <time>2021-08-06T10:33:53.569Z</time>
      </trkpt>
      <trkpt lat="46.95408" lon="8.7279">
        <ele>1330</ele>
        <time>2021-08-06T10:33:54.570Z</time>
      </trkpt>
      <trkpt lat="46.95407" lon="8.72789">
        <ele>1329</ele>
        <time>2021-08-06T10:33:55.570Z</time>
      </trkpt>
      <trkpt lat="46.95407" lon="8.72788">
        <ele>1329</ele>
        <time>2021-08-06T10:33:56.569Z</time>
      </trkpt>
      <trkpt lat="46.95407" lon="8.72787">
        <ele>1329</ele>
        <time>2021-08-06T10:33:57.570Z</time>
      </trkpt>
      <trkpt lat="46.95406" lon="8.72786">
        <ele>1329</ele>
        <time>2021-08-06T10:33:58.569Z</time>
      </trkpt>
      <trkpt lat="46.95406" lon="8.72785">
        <ele>1329</ele>
        <time>2021-08-06T10:33:59.570Z</time>
      </trkpt>
      <trkpt lat="46.95405" lon="8.72785">
        <ele>1329</ele>
        <time>2021-08-06T10:34:00.569Z</time>
      </trkpt>
      <trkpt lat="46.95405" lon="8.72784">
        <ele>1329</ele>
        <time>2021-08-06T10:34:01.570Z</time>
      </trkpt>
      <trkpt lat="46.95404" lon="8.72783">
        <ele>1330</ele>
        <time>2021-08-06T10:34:02.569Z</time>
      </trkpt>
      <trkpt lat="46.95404" lon="8.72783">
        <ele>1330</ele>
        <time>2021-08-06T10:34:03.570Z</time>
      </trkpt>
      <trkpt lat="46.95404" lon="8.72782">
        <ele>1331</ele>
        <time>2021-08-06T10:34:04.570Z</time>
      </trkpt>
      <trkpt lat="46.95403" lon="8.72781">
        <ele>1331</ele>
        <time>2021-08-06T10:34:05.569Z</time>
      </trkpt>
      <trkpt lat="46.95403" lon="8.7278">
        <ele>1332</ele>
        <time>2021-08-06T10:34:06.569Z</time>
      </trkpt>
      <trkpt lat="46.95402" lon="8.72779">
        <ele>1332</ele>
        <time>2021-08-06T10:34:07.570Z</time>
      </trkpt>
      <trkpt lat="46.95402" lon="8.72778">
        <ele>1332</ele>
        <time>2021-08-06T10:34:08.569Z</time>
      </trkpt>
      <trkpt lat="46.95402" lon="8.72777">
        <ele>1333</ele>
        <time>2021-08-06T10:34:09.569Z</time>
      </trkpt>
      <trkpt lat="46.95401" lon="8.72776">
        <ele>1333</ele>
        <time>2021-08-06T10:34:10.570Z</time>
      </trkpt>
      <trkpt lat="46.954" lon="8.72775">
        <ele>1333</ele>
        <time>2021-08-06T10:34:11.570Z</time>
      </trkpt>
      <trkpt lat="46.954" lon="8.72774">
        <ele>1333</ele>
        <time>2021-08-06T10:34:12.569Z</time>
      </trkpt>
      <trkpt lat="46.954" lon="8.72773">
        <ele>1333</ele>
        <time>2021-08-06T10:34:13.570Z</time>
      </trkpt>
      <trkpt lat="46.95399" lon="8.72773">
        <ele>1333</ele>
        <time>2021-08-06T10:34:14.569Z</time>
      </trkpt>
      <trkpt lat="46.95398" lon="8.72772">
        <ele>1334</ele>
        <time>2021-08-06T10:34:15.570Z</time>
      </trkpt>
      <trkpt lat="46.95398" lon="8.72771">
        <ele>1335</ele>
        <time>2021-08-06T10:34:16.569Z</time>
      </trkpt>
      <trkpt lat="46.95397" lon="8.7277">
        <ele>1336</ele>
        <time>2021-08-06T10:34:17.570Z</time>
      </trkpt>
      <trkpt lat="46.95396" lon="8.72769">
        <ele>1336</ele>
        <time>2021-08-06T10:34:18.569Z</time>
      </trkpt>
      <trkpt lat="46.95396" lon="8.72769">
        <ele>1336</ele>
        <time>2021-08-06T10:34:19.570Z</time>
      </trkpt>
      <trkpt lat="46.95396" lon="8.72767">
        <ele>1336</ele>
        <time>2021-08-06T10:34:20.569Z</time>
      </trkpt>
      <trkpt lat="46.95395" lon="8.72766">
        <ele>1336</ele>
        <time>2021-08-06T10:34:21.570Z</time>
      </trkpt>
      <trkpt lat="46.95394" lon="8.72765">
        <ele>1336</ele>
        <time>2021-08-06T10:34:22.570Z</time>
      </trkpt>
      <trkpt lat="46.95394" lon="8.72763">
        <ele>1335</ele>
        <time>2021-08-06T10:34:23.569Z</time>
      </trkpt>
      <trkpt lat="46.95393" lon="8.72762">
        <ele>1335</ele>
        <time>2021-08-06T10:34:24.569Z</time>
      </trkpt>
      <trkpt lat="46.95393" lon="8.72762">
        <ele>1335</ele>
        <time>2021-08-06T10:34:25.570Z</time>
      </trkpt>
      <trkpt lat="46.95393" lon="8.72761">
        <ele>1335</ele>
        <time>2021-08-06T10:34:26.569Z</time>
      </trkpt>
      <trkpt lat="46.95394" lon="8.72762">
        <ele>1341</ele>
        <time>2021-08-06T10:34:27.570Z</time>
      </trkpt>
      <trkpt lat="46.95393" lon="8.72762">
        <ele>1343</ele>
        <time>2021-08-06T10:34:28.570Z</time>
      </trkpt>
      <trkpt lat="46.95392" lon="8.72761">
        <ele>1339</ele>
        <time>2021-08-06T10:34:29.571Z</time>
      </trkpt>
      <trkpt lat="46.95391" lon="8.7276">
        <ele>1338</ele>
        <time>2021-08-06T10:34:30.571Z</time>
      </trkpt>
      <trkpt lat="46.95391" lon="8.72758">
        <ele>1336</ele>
        <time>2021-08-06T10:34:31.571Z</time>
      </trkpt>
      <trkpt lat="46.95391" lon="8.72756">
        <ele>1336</ele>
        <time>2021-08-06T10:34:32.571Z</time>
      </trkpt>
      <trkpt lat="46.9539" lon="8.72755">
        <ele>1335</ele>
        <time>2021-08-06T10:34:33.571Z</time>
      </trkpt>
      <trkpt lat="46.95389" lon="8.72754">
        <ele>1335</ele>
        <time>2021-08-06T10:34:34.570Z</time>
      </trkpt>
      <trkpt lat="46.95388" lon="8.72753">
        <ele>1335</ele>
        <time>2021-08-06T10:34:35.571Z</time>
      </trkpt>
      <trkpt lat="46.95388" lon="8.72752">
        <ele>1334</ele>
        <time>2021-08-06T10:34:36.570Z</time>
      </trkpt>
      <trkpt lat="46.95387" lon="8.72751">
        <ele>1334</ele>
        <time>2021-08-06T10:34:37.571Z</time>
      </trkpt>
      <trkpt lat="46.95386" lon="8.72751">
        <ele>1334</ele>
        <time>2021-08-06T10:34:38.571Z</time>
      </trkpt>
      <trkpt lat="46.95386" lon="8.7275">
        <ele>1333</ele>
        <time>2021-08-06T10:34:39.571Z</time>
      </trkpt>
      <trkpt lat="46.95386" lon="8.7275">
        <ele>1332</ele>
        <time>2021-08-06T10:34:40.570Z</time>
      </trkpt>
      <trkpt lat="46.95385" lon="8.72749">
        <ele>1331</ele>
        <time>2021-08-06T10:34:41.570Z</time>
      </trkpt>
      <trkpt lat="46.95385" lon="8.72748">
        <ele>1331</ele>
        <time>2021-08-06T10:34:42.570Z</time>
      </trkpt>
      <trkpt lat="46.95384" lon="8.72747">
        <ele>1330</ele>
        <time>2021-08-06T10:34:43.571Z</time>
      </trkpt>
      <trkpt lat="46.95383" lon="8.72746">
        <ele>1330</ele>
        <time>2021-08-06T10:34:44.570Z</time>
      </trkpt>
      <trkpt lat="46.95382" lon="8.72746">
        <ele>1330</ele>
        <time>2021-08-06T10:34:45.571Z</time>
      </trkpt>
      <trkpt lat="46.95381" lon="8.72745">
        <ele>1331</ele>
        <time>2021-08-06T10:34:46.570Z</time>
      </trkpt>
      <trkpt lat="46.9538" lon="8.72744">
        <ele>1332</ele>
        <time>2021-08-06T10:34:47.571Z</time>
      </trkpt>
      <trkpt lat="46.9538" lon="8.72743">
        <ele>1333</ele>
        <time>2021-08-06T10:34:48.570Z</time>
      </trkpt>
      <trkpt lat="46.95379" lon="8.72742">
        <ele>1334</ele>
        <time>2021-08-06T10:34:49.571Z</time>
      </trkpt>
      <trkpt lat="46.95378" lon="8.72741">
        <ele>1335</ele>
        <time>2021-08-06T10:34:50.571Z</time>
      </trkpt>
      <trkpt lat="46.95377" lon="8.7274">
        <ele>1336</ele>
        <time>2021-08-06T10:34:51.571Z</time>
      </trkpt>
      <trkpt lat="46.95376" lon="8.72739">
        <ele>1337</ele>
        <time>2021-08-06T10:34:52.571Z</time>
      </trkpt>
      <trkpt lat="46.95375" lon="8.72738">
        <ele>1338</ele>
        <time>2021-08-06T10:34:53.570Z</time>
      </trkpt>
      <trkpt lat="46.95374" lon="8.72738">
        <ele>1339</ele>
        <time>2021-08-06T10:34:54.571Z</time>
      </trkpt>
      <trkpt lat="46.95373" lon="8.72737">
        <ele>1339</ele>
        <time>2021-08-06T10:34:55.571Z</time>
      </trkpt>
      <trkpt lat="46.95372" lon="8.72737">
        <ele>1340</ele>
        <time>2021-08-06T10:34:56.571Z</time>
      </trkpt>
      <trkpt lat="46.95371" lon="8.72736">
        <ele>1340</ele>
        <time>2021-08-06T10:34:57.571Z</time>
      </trkpt>
      <trkpt lat="46.9537" lon="8.72735">
        <ele>1341</ele>
        <time>2021-08-06T10:34:58.571Z</time>
      </trkpt>
      <trkpt lat="46.9537" lon="8.72735">
        <ele>1341</ele>
        <time>2021-08-06T10:34:59.570Z</time>
      </trkpt>
      <trkpt lat="46.95369" lon="8.72734">
        <ele>1341</ele>
        <time>2021-08-06T10:35:00.570Z</time>
      </trkpt>
      <trkpt lat="46.95368" lon="8.72734">
        <ele>1340</ele>
        <time>2021-08-06T10:35:01.570Z</time>
      </trkpt>
      <trkpt lat="46.95367" lon="8.72733">
        <ele>1339</ele>
        <time>2021-08-06T10:35:02.571Z</time>
      </trkpt>
      <trkpt lat="46.95366" lon="8.72732">
        <ele>1339</ele>
        <time>2021-08-06T10:35:03.570Z</time>
      </trkpt>
      <trkpt lat="46.95366" lon="8.72731">
        <ele>1339</ele>
        <time>2021-08-06T10:35:04.570Z</time>
      </trkpt>
      <trkpt lat="46.95365" lon="8.72731">
        <ele>1339</ele>
        <time>2021-08-06T10:35:05.570Z</time>
      </trkpt>
      <trkpt lat="46.95364" lon="8.7273">
        <ele>1339</ele>
        <time>2021-08-06T10:35:06.571Z</time>
      </trkpt>
      <trkpt lat="46.95363" lon="8.72729">
        <ele>1340</ele>
        <time>2021-08-06T10:35:07.570Z</time>
      </trkpt>
      <trkpt lat="46.95362" lon="8.72729">
        <ele>1340</ele>
        <time>2021-08-06T10:35:08.571Z</time>
      </trkpt>
      <trkpt lat="46.95361" lon="8.72728">
        <ele>1341</ele>
        <time>2021-08-06T10:35:09.571Z</time>
      </trkpt>
      <trkpt lat="46.9536" lon="8.72728">
        <ele>1341</ele>
        <time>2021-08-06T10:35:10.571Z</time>
      </trkpt>
      <trkpt lat="46.95359" lon="8.72727">
        <ele>1340</ele>
        <time>2021-08-06T10:35:11.571Z</time>
      </trkpt>
      <trkpt lat="46.95358" lon="8.72726">
        <ele>1340</ele>
        <time>2021-08-06T10:35:12.570Z</time>
      </trkpt>
      <trkpt lat="46.95357" lon="8.72725">
        <ele>1340</ele>
        <time>2021-08-06T10:35:13.570Z</time>
      </trkpt>
      <trkpt lat="46.95357" lon="8.72724">
        <ele>1341</ele>
        <time>2021-08-06T10:35:14.571Z</time>
      </trkpt>
      <trkpt lat="46.95356" lon="8.72724">
        <ele>1341</ele>
        <time>2021-08-06T10:35:15.571Z</time>
      </trkpt>
      <trkpt lat="46.95355" lon="8.72723">
        <ele>1341</ele>
        <time>2021-08-06T10:35:16.571Z</time>
      </trkpt>
      <trkpt lat="46.95354" lon="8.72722">
        <ele>1341</ele>
        <time>2021-08-06T10:35:17.571Z</time>
      </trkpt>
      <trkpt lat="46.95353" lon="8.72722">
        <ele>1342</ele>
        <time>2021-08-06T10:35:18.571Z</time>
      </trkpt>
      <trkpt lat="46.95352" lon="8.72721">
        <ele>1342</ele>
        <time>2021-08-06T10:35:19.571Z</time>
      </trkpt>
      <trkpt lat="46.95351" lon="8.72721">
        <ele>1343</ele>
        <time>2021-08-06T10:35:20.571Z</time>
      </trkpt>
      <trkpt lat="46.9535" lon="8.72721">
        <ele>1343</ele>
        <time>2021-08-06T10:35:21.570Z</time>
      </trkpt>
      <trkpt lat="46.95349" lon="8.7272">
        <ele>1344</ele>
        <time>2021-08-06T10:35:22.571Z</time>
      </trkpt>
      <trkpt lat="46.95348" lon="8.7272">
        <ele>1344</ele>
        <time>2021-08-06T10:35:23.571Z</time>
      </trkpt>
      <trkpt lat="46.95347" lon="8.7272">
        <ele>1344</ele>
        <time>2021-08-06T10:35:24.571Z</time>
      </trkpt>
      <trkpt lat="46.95346" lon="8.72719">
        <ele>1345</ele>
        <time>2021-08-06T10:35:25.571Z</time>
      </trkpt>
      <trkpt lat="46.95345" lon="8.72719">
        <ele>1345</ele>
        <time>2021-08-06T10:35:26.571Z</time>
      </trkpt>
      <trkpt lat="46.95344" lon="8.72719">
        <ele>1345</ele>
        <time>2021-08-06T10:35:27.570Z</time>
      </trkpt>
      <trkpt lat="46.95343" lon="8.72719">
        <ele>1345</ele>
        <time>2021-08-06T10:35:28.571Z</time>
      </trkpt>
      <trkpt lat="46.95342" lon="8.72718">
        <ele>1346</ele>
        <time>2021-08-06T10:35:29.570Z</time>
      </trkpt>
      <trkpt lat="46.95341" lon="8.72717">
        <ele>1345</ele>
        <time>2021-08-06T10:35:30.571Z</time>
      </trkpt>
      <trkpt lat="46.95341" lon="8.72717">
        <ele>1346</ele>
        <time>2021-08-06T10:35:31.571Z</time>
      </trkpt>
      <trkpt lat="46.9534" lon="8.72716">
        <ele>1346</ele>
        <time>2021-08-06T10:35:32.571Z</time>
      </trkpt>
      <trkpt lat="46.95339" lon="8.72716">
        <ele>1346</ele>
        <time>2021-08-06T10:35:33.571Z</time>
      </trkpt>
      <trkpt lat="46.95338" lon="8.72716">
        <ele>1345</ele>
        <time>2021-08-06T10:35:34.571Z</time>
      </trkpt>
      <trkpt lat="46.95337" lon="8.72716">
        <ele>1345</ele>
        <time>2021-08-06T10:35:35.571Z</time>
      </trkpt>
      <trkpt lat="46.95337" lon="8.72715">
        <ele>1345</ele>
        <time>2021-08-06T10:35:36.571Z</time>
      </trkpt>
      <trkpt lat="46.95336" lon="8.72715">
        <ele>1345</ele>
        <time>2021-08-06T10:35:37.571Z</time>
      </trkpt>
      <trkpt lat="46.95335" lon="8.72715">
        <ele>1345</ele>
        <time>2021-08-06T10:35:38.571Z</time>
      </trkpt>
      <trkpt lat="46.95334" lon="8.72715">
        <ele>1346</ele>
        <time>2021-08-06T10:35:39.571Z</time>
      </trkpt>
      <trkpt lat="46.95333" lon="8.72714">
        <ele>1346</ele>
        <time>2021-08-06T10:35:40.571Z</time>
      </trkpt>
      <trkpt lat="46.95333" lon="8.72714">
        <ele>1345</ele>
        <time>2021-08-06T10:35:41.571Z</time>
      </trkpt>
      <trkpt lat="46.95332" lon="8.72713">
        <ele>1345</ele>
        <time>2021-08-06T10:35:42.571Z</time>
      </trkpt>
      <trkpt lat="46.95331" lon="8.72713">
        <ele>1346</ele>
        <time>2021-08-06T10:35:43.571Z</time>
      </trkpt>
      <trkpt lat="46.9533" lon="8.72713">
        <ele>1346</ele>
        <time>2021-08-06T10:35:44.570Z</time>
      </trkpt>
      <trkpt lat="46.9533" lon="8.72712">
        <ele>1346</ele>
        <time>2021-08-06T10:35:45.570Z</time>
      </trkpt>
      <trkpt lat="46.95329" lon="8.72712">
        <ele>1346</ele>
        <time>2021-08-06T10:35:46.571Z</time>
      </trkpt>
      <trkpt lat="46.95328" lon="8.72711">
        <ele>1346</ele>
        <time>2021-08-06T10:35:47.571Z</time>
      </trkpt>
      <trkpt lat="46.95328" lon="8.72711">
        <ele>1347</ele>
        <time>2021-08-06T10:35:48.571Z</time>
      </trkpt>
      <trkpt lat="46.95327" lon="8.7271">
        <ele>1347</ele>
        <time>2021-08-06T10:35:49.571Z</time>
      </trkpt>
      <trkpt lat="46.95327" lon="8.7271">
        <ele>1348</ele>
        <time>2021-08-06T10:35:50.570Z</time>
      </trkpt>
      <trkpt lat="46.95326" lon="8.72709">
        <ele>1348</ele>
        <time>2021-08-06T10:35:51.571Z</time>
      </trkpt>
      <trkpt lat="46.95326" lon="8.72708">
        <ele>1349</ele>
        <time>2021-08-06T10:35:52.571Z</time>
      </trkpt>
      <trkpt lat="46.95325" lon="8.72708">
        <ele>1349</ele>
        <time>2021-08-06T10:35:53.571Z</time>
      </trkpt>
      <trkpt lat="46.95324" lon="8.72708">
        <ele>1348</ele>
        <time>2021-08-06T10:35:54.570Z</time>
      </trkpt>
      <trkpt lat="46.95324" lon="8.72708">
        <ele>1349</ele>
        <time>2021-08-06T10:35:55.571Z</time>
      </trkpt>
      <trkpt lat="46.95323" lon="8.72708">
        <ele>1349</ele>
        <time>2021-08-06T10:35:56.570Z</time>
      </trkpt>
      <trkpt lat="46.95322" lon="8.72707">
        <ele>1348</ele>
        <time>2021-08-06T10:35:57.571Z</time>
      </trkpt>
      <trkpt lat="46.95322" lon="8.72706">
        <ele>1348</ele>
        <time>2021-08-06T10:35:58.570Z</time>
      </trkpt>
      <trkpt lat="46.95321" lon="8.72706">
        <ele>1347</ele>
        <time>2021-08-06T10:35:59.570Z</time>
      </trkpt>
      <trkpt lat="46.9532" lon="8.72705">
        <ele>1347</ele>
        <time>2021-08-06T10:36:00.571Z</time>
      </trkpt>
      <trkpt lat="46.9532" lon="8.72704">
        <ele>1347</ele>
        <time>2021-08-06T10:36:01.570Z</time>
      </trkpt>
      <trkpt lat="46.95319" lon="8.72704">
        <ele>1346</ele>
        <time>2021-08-06T10:36:02.570Z</time>
      </trkpt>
      <trkpt lat="46.95319" lon="8.72703">
        <ele>1346</ele>
        <time>2021-08-06T10:36:03.570Z</time>
      </trkpt>
      <trkpt lat="46.95318" lon="8.72702">
        <ele>1347</ele>
        <time>2021-08-06T10:36:04.571Z</time>
      </trkpt>
      <trkpt lat="46.95318" lon="8.72701">
        <ele>1347</ele>
        <time>2021-08-06T10:36:05.571Z</time>
      </trkpt>
      <trkpt lat="46.95317" lon="8.727">
        <ele>1346</ele>
        <time>2021-08-06T10:36:06.570Z</time>
      </trkpt>
      <trkpt lat="46.95316" lon="8.72698">
        <ele>1346</ele>
        <time>2021-08-06T10:36:07.570Z</time>
      </trkpt>
      <trkpt lat="46.95315" lon="8.72697">
        <ele>1345</ele>
        <time>2021-08-06T10:36:08.571Z</time>
      </trkpt>
      <trkpt lat="46.95315" lon="8.72696">
        <ele>1345</ele>
        <time>2021-08-06T10:36:09.570Z</time>
      </trkpt>
      <trkpt lat="46.95314" lon="8.72696">
        <ele>1345</ele>
        <time>2021-08-06T10:36:10.571Z</time>
      </trkpt>
      <trkpt lat="46.95313" lon="8.72695">
        <ele>1345</ele>
        <time>2021-08-06T10:36:11.571Z</time>
      </trkpt>
      <trkpt lat="46.95313" lon="8.72694">
        <ele>1344</ele>
        <time>2021-08-06T10:36:12.571Z</time>
      </trkpt>
      <trkpt lat="46.95311" lon="8.72693">
        <ele>1345</ele>
        <time>2021-08-06T10:36:13.570Z</time>
      </trkpt>
      <trkpt lat="46.9531" lon="8.72692">
        <ele>1345</ele>
        <time>2021-08-06T10:36:14.571Z</time>
      </trkpt>
      <trkpt lat="46.95309" lon="8.72691">
        <ele>1345</ele>
        <time>2021-08-06T10:36:15.571Z</time>
      </trkpt>
      <trkpt lat="46.95309" lon="8.7269">
        <ele>1346</ele>
        <time>2021-08-06T10:36:18.721Z</time>
      </trkpt>
      <trkpt lat="46.95308" lon="8.72689">
        <ele>1347</ele>
        <time>2021-08-06T10:36:19.722Z</time>
      </trkpt>
      <trkpt lat="46.95307" lon="8.72688">
        <ele>1347</ele>
        <time>2021-08-06T10:36:20.721Z</time>
      </trkpt>
      <trkpt lat="46.95307" lon="8.72687">
        <ele>1347</ele>
        <time>2021-08-06T10:36:28.891Z</time>
      </trkpt>
      <trkpt lat="46.95306" lon="8.72686">
        <ele>1347</ele>
        <time>2021-08-06T10:36:29.891Z</time>
      </trkpt>
      <trkpt lat="46.95306" lon="8.72685">
        <ele>1347</ele>
        <time>2021-08-06T10:36:30.892Z</time>
      </trkpt>
      <trkpt lat="46.95305" lon="8.72684">
        <ele>1347</ele>
        <time>2021-08-06T10:36:42.972Z</time>
      </trkpt>
      <trkpt lat="46.95305" lon="8.72683">
        <ele>1347</ele>
        <time>2021-08-06T10:36:43.972Z</time>
      </trkpt>
      <trkpt lat="46.95305" lon="8.72682">
        <ele>1347</ele>
        <time>2021-08-06T10:37:05.856Z</time>
      </trkpt>
      <trkpt lat="46.95304" lon="8.72681">
        <ele>1346</ele>
        <time>2021-08-06T10:37:06.856Z</time>
      </trkpt>
      <trkpt lat="46.95304" lon="8.7268">
        <ele>1346</ele>
        <time>2021-08-06T10:37:07.857Z</time>
      </trkpt>
      <trkpt lat="46.95303" lon="8.72679">
        <ele>1346</ele>
        <time>2021-08-06T10:37:08.857Z</time>
      </trkpt>
      <trkpt lat="46.95303" lon="8.72678">
        <ele>1346</ele>
        <time>2021-08-06T10:37:09.857Z</time>
      </trkpt>
      <trkpt lat="46.95302" lon="8.72677">
        <ele>1346</ele>
        <time>2021-08-06T10:37:10.857Z</time>
      </trkpt>
      <trkpt lat="46.95302" lon="8.72676">
        <ele>1347</ele>
        <time>2021-08-06T10:37:11.857Z</time>
      </trkpt>
      <trkpt lat="46.95302" lon="8.72675">
        <ele>1346</ele>
        <time>2021-08-06T10:37:12.857Z</time>
      </trkpt>
      <trkpt lat="46.95302" lon="8.72674">
        <ele>1346</ele>
        <time>2021-08-06T10:37:13.857Z</time>
      </trkpt>
      <trkpt lat="46.95301" lon="8.72674">
        <ele>1346</ele>
        <time>2021-08-06T10:37:14.857Z</time>
      </trkpt>
      <trkpt lat="46.95302" lon="8.72673">
        <ele>1346</ele>
        <time>2021-08-06T10:37:15.857Z</time>
      </trkpt>
      <trkpt lat="46.95302" lon="8.72673">
        <ele>1346</ele>
        <time>2021-08-06T10:37:16.856Z</time>
      </trkpt>
      <trkpt lat="46.95302" lon="8.72672">
        <ele>1346</ele>
        <time>2021-08-06T10:37:17.857Z</time>
      </trkpt>
      <trkpt lat="46.95303" lon="8.72672">
        <ele>1345</ele>
        <time>2021-08-06T10:37:18.857Z</time>
      </trkpt>
      <trkpt lat="46.95303" lon="8.72671">
        <ele>1345</ele>
        <time>2021-08-06T10:37:19.856Z</time>
      </trkpt>
      <trkpt lat="46.95302" lon="8.72671">
        <ele>1345</ele>
        <time>2021-08-06T10:37:20.857Z</time>
      </trkpt>
      <trkpt lat="46.95302" lon="8.72672">
        <ele>1345</ele>
        <time>2021-08-06T10:37:21.856Z</time>
      </trkpt>
      <trkpt lat="46.95301" lon="8.72672">
        <ele>1345</ele>
        <time>2021-08-06T10:37:22.856Z</time>
      </trkpt>
      <trkpt lat="46.95301" lon="8.72672">
        <ele>1345</ele>
        <time>2021-08-06T10:37:23.857Z</time>
      </trkpt>
      <trkpt lat="46.953" lon="8.72672">
        <ele>1344</ele>
        <time>2021-08-06T10:37:24.856Z</time>
      </trkpt>
      <trkpt lat="46.95299" lon="8.72671">
        <ele>1344</ele>
        <time>2021-08-06T10:37:25.856Z</time>
      </trkpt>
      <trkpt lat="46.95298" lon="8.72671">
        <ele>1344</ele>
        <time>2021-08-06T10:37:26.856Z</time>
      </trkpt>
      <trkpt lat="46.95296" lon="8.72671">
        <ele>1344</ele>
        <time>2021-08-06T10:37:27.856Z</time>
      </trkpt>
      <trkpt lat="46.95295" lon="8.72671">
        <ele>1344</ele>
        <time>2021-08-06T10:37:28.856Z</time>
      </trkpt>
      <trkpt lat="46.95295" lon="8.7267">
        <ele>1344</ele>
        <time>2021-08-06T10:37:29.856Z</time>
      </trkpt>
      <trkpt lat="46.95294" lon="8.72669">
        <ele>1344</ele>
        <time>2021-08-06T10:37:30.857Z</time>
      </trkpt>
      <trkpt lat="46.95293" lon="8.72667">
        <ele>1345</ele>
        <time>2021-08-06T10:37:31.856Z</time>
      </trkpt>
      <trkpt lat="46.95292" lon="8.72667">
        <ele>1346</ele>
        <time>2021-08-06T10:37:32.856Z</time>
      </trkpt>
      <trkpt lat="46.9529" lon="8.72666">
        <ele>1346</ele>
        <time>2021-08-06T10:37:33.856Z</time>
      </trkpt>
      <trkpt lat="46.95289" lon="8.72665">
        <ele>1347</ele>
        <time>2021-08-06T10:37:34.857Z</time>
      </trkpt>
      <trkpt lat="46.95288" lon="8.72664">
        <ele>1347</ele>
        <time>2021-08-06T10:37:35.856Z</time>
      </trkpt>
      <trkpt lat="46.95288" lon="8.72663">
        <ele>1348</ele>
        <time>2021-08-06T10:37:36.856Z</time>
      </trkpt>
      <trkpt lat="46.95287" lon="8.72663">
        <ele>1349</ele>
        <time>2021-08-06T10:37:37.856Z</time>
      </trkpt>
      <trkpt lat="46.95286" lon="8.72662">
        <ele>1349</ele>
        <time>2021-08-06T10:37:38.856Z</time>
      </trkpt>
      <trkpt lat="46.95285" lon="8.72662">
        <ele>1350</ele>
        <time>2021-08-06T10:37:39.857Z</time>
      </trkpt>
      <trkpt lat="46.95284" lon="8.72662">
        <ele>1350</ele>
        <time>2021-08-06T10:37:40.856Z</time>
      </trkpt>
      <trkpt lat="46.95283" lon="8.72662">
        <ele>1350</ele>
        <time>2021-08-06T10:37:41.856Z</time>
      </trkpt>
      <trkpt lat="46.95282" lon="8.72662">
        <ele>1349</ele>
        <time>2021-08-06T10:37:42.856Z</time>
      </trkpt>
      <trkpt lat="46.95281" lon="8.72661">
        <ele>1349</ele>
        <time>2021-08-06T10:37:43.856Z</time>
      </trkpt>
      <trkpt lat="46.9528" lon="8.72661">
        <ele>1349</ele>
        <time>2021-08-06T10:37:44.856Z</time>
      </trkpt>
      <trkpt lat="46.95279" lon="8.72661">
        <ele>1350</ele>
        <time>2021-08-06T10:37:45.856Z</time>
      </trkpt>
      <trkpt lat="46.95278" lon="8.7266">
        <ele>1350</ele>
        <time>2021-08-06T10:37:46.856Z</time>
      </trkpt>
      <trkpt lat="46.95277" lon="8.7266">
        <ele>1350</ele>
        <time>2021-08-06T10:37:47.856Z</time>
      </trkpt>
      <trkpt lat="46.95277" lon="8.7266">
        <ele>1351</ele>
        <time>2021-08-06T10:37:48.856Z</time>
      </trkpt>
      <trkpt lat="46.95277" lon="8.7266">
        <ele>1351</ele>
        <time>2021-08-06T10:37:49.856Z</time>
      </trkpt>
      <trkpt lat="46.95276" lon="8.7266">
        <ele>1351</ele>
        <time>2021-08-06T10:37:50.856Z</time>
      </trkpt>
      <trkpt lat="46.95276" lon="8.7266">
        <ele>1351</ele>
        <time>2021-08-06T10:37:51.856Z</time>
      </trkpt>
      <trkpt lat="46.95275" lon="8.7266">
        <ele>1356</ele>
        <time>2021-08-06T10:37:52.857Z</time>
      </trkpt>
      <trkpt lat="46.95275" lon="8.72661">
        <ele>1356</ele>
        <time>2021-08-06T10:37:53.857Z</time>
      </trkpt>
      <trkpt lat="46.95274" lon="8.72661">
        <ele>1356</ele>
        <time>2021-08-06T10:37:54.857Z</time>
      </trkpt>
      <trkpt lat="46.95273" lon="8.72661">
        <ele>1355</ele>
        <time>2021-08-06T10:37:55.857Z</time>
      </trkpt>
      <trkpt lat="46.95272" lon="8.7266">
        <ele>1355</ele>
        <time>2021-08-06T10:37:56.857Z</time>
      </trkpt>
      <trkpt lat="46.9527" lon="8.7266">
        <ele>1355</ele>
        <time>2021-08-06T10:37:57.857Z</time>
      </trkpt>
      <trkpt lat="46.9527" lon="8.7266">
        <ele>1354</ele>
        <time>2021-08-06T10:37:58.856Z</time>
      </trkpt>
      <trkpt lat="46.95269" lon="8.72659">
        <ele>1354</ele>
        <time>2021-08-06T10:37:59.857Z</time>
      </trkpt>
      <trkpt lat="46.95268" lon="8.72659">
        <ele>1353</ele>
        <time>2021-08-06T10:38:00.857Z</time>
      </trkpt>
      <trkpt lat="46.95267" lon="8.72659">
        <ele>1352</ele>
        <time>2021-08-06T10:38:01.857Z</time>
      </trkpt>
      <trkpt lat="46.95266" lon="8.72658">
        <ele>1352</ele>
        <time>2021-08-06T10:38:02.857Z</time>
      </trkpt>
      <trkpt lat="46.95265" lon="8.72658">
        <ele>1351</ele>
        <time>2021-08-06T10:38:03.857Z</time>
      </trkpt>
      <trkpt lat="46.95264" lon="8.72657">
        <ele>1351</ele>
        <time>2021-08-06T10:38:04.857Z</time>
      </trkpt>
      <trkpt lat="46.95263" lon="8.72657">
        <ele>1350</ele>
        <time>2021-08-06T10:38:05.857Z</time>
      </trkpt>
      <trkpt lat="46.95263" lon="8.72656">
        <ele>1350</ele>
        <time>2021-08-06T10:38:06.857Z</time>
      </trkpt>
      <trkpt lat="46.95262" lon="8.72656">
        <ele>1350</ele>
        <time>2021-08-06T10:38:07.856Z</time>
      </trkpt>
      <trkpt lat="46.95262" lon="8.72655">
        <ele>1351</ele>
        <time>2021-08-06T10:38:08.857Z</time>
      </trkpt>
      <trkpt lat="46.95261" lon="8.72654">
        <ele>1351</ele>
        <time>2021-08-06T10:38:09.857Z</time>
      </trkpt>
      <trkpt lat="46.9526" lon="8.72653">
        <ele>1351</ele>
        <time>2021-08-06T10:38:10.857Z</time>
      </trkpt>
      <trkpt lat="46.95259" lon="8.72652">
        <ele>1351</ele>
        <time>2021-08-06T10:38:11.857Z</time>
      </trkpt>
      <trkpt lat="46.95258" lon="8.72652">
        <ele>1351</ele>
        <time>2021-08-06T10:38:12.857Z</time>
      </trkpt>
      <trkpt lat="46.95257" lon="8.72651">
        <ele>1351</ele>
        <time>2021-08-06T10:38:13.857Z</time>
      </trkpt>
      <trkpt lat="46.95256" lon="8.7265">
        <ele>1351</ele>
        <time>2021-08-06T10:38:14.856Z</time>
      </trkpt>
      <trkpt lat="46.95255" lon="8.72649">
        <ele>1352</ele>
        <time>2021-08-06T10:38:15.856Z</time>
      </trkpt>
      <trkpt lat="46.95254" lon="8.72649">
        <ele>1352</ele>
        <time>2021-08-06T10:38:16.857Z</time>
      </trkpt>
      <trkpt lat="46.95253" lon="8.72648">
        <ele>1353</ele>
        <time>2021-08-06T10:38:17.857Z</time>
      </trkpt>
      <trkpt lat="46.95252" lon="8.72646">
        <ele>1353</ele>
        <time>2021-08-06T10:38:18.857Z</time>
      </trkpt>
      <trkpt lat="46.95251" lon="8.72646">
        <ele>1353</ele>
        <time>2021-08-06T10:38:19.856Z</time>
      </trkpt>
      <trkpt lat="46.9525" lon="8.72645">
        <ele>1353</ele>
        <time>2021-08-06T10:38:20.856Z</time>
      </trkpt>
      <trkpt lat="46.9525" lon="8.72644">
        <ele>1353</ele>
        <time>2021-08-06T10:38:21.857Z</time>
      </trkpt>
      <trkpt lat="46.95249" lon="8.72643">
        <ele>1353</ele>
        <time>2021-08-06T10:38:22.857Z</time>
      </trkpt>
      <trkpt lat="46.95248" lon="8.72642">
        <ele>1352</ele>
        <time>2021-08-06T10:38:23.856Z</time>
      </trkpt>
      <trkpt lat="46.95247" lon="8.72642">
        <ele>1352</ele>
        <time>2021-08-06T10:38:24.857Z</time>
      </trkpt>
      <trkpt lat="46.95246" lon="8.72641">
        <ele>1352</ele>
        <time>2021-08-06T10:38:25.857Z</time>
      </trkpt>
      <trkpt lat="46.95245" lon="8.7264">
        <ele>1352</ele>
        <time>2021-08-06T10:38:26.857Z</time>
      </trkpt>
      <trkpt lat="46.95244" lon="8.72639">
        <ele>1352</ele>
        <time>2021-08-06T10:38:27.856Z</time>
      </trkpt>
      <trkpt lat="46.95244" lon="8.72638">
        <ele>1352</ele>
        <time>2021-08-06T10:38:28.857Z</time>
      </trkpt>
      <trkpt lat="46.95243" lon="8.72638">
        <ele>1351</ele>
        <time>2021-08-06T10:38:29.856Z</time>
      </trkpt>
      <trkpt lat="46.95242" lon="8.72637">
        <ele>1351</ele>
        <time>2021-08-06T10:38:30.857Z</time>
      </trkpt>
      <trkpt lat="46.95241" lon="8.72636">
        <ele>1351</ele>
        <time>2021-08-06T10:38:31.856Z</time>
      </trkpt>
      <trkpt lat="46.9524" lon="8.72635">
        <ele>1352</ele>
        <time>2021-08-06T10:38:32.857Z</time>
      </trkpt>
      <trkpt lat="46.95239" lon="8.72634">
        <ele>1353</ele>
        <time>2021-08-06T10:38:33.857Z</time>
      </trkpt>
      <trkpt lat="46.95238" lon="8.72633">
        <ele>1353</ele>
        <time>2021-08-06T10:38:34.856Z</time>
      </trkpt>
      <trkpt lat="46.95238" lon="8.72633">
        <ele>1353</ele>
        <time>2021-08-06T10:38:35.856Z</time>
      </trkpt>
      <trkpt lat="46.95237" lon="8.72632">
        <ele>1353</ele>
        <time>2021-08-06T10:38:36.857Z</time>
      </trkpt>
      <trkpt lat="46.95237" lon="8.72631">
        <ele>1352</ele>
        <time>2021-08-06T10:38:37.856Z</time>
      </trkpt>
      <trkpt lat="46.95236" lon="8.7263">
        <ele>1352</ele>
        <time>2021-08-06T10:38:38.857Z</time>
      </trkpt>
      <trkpt lat="46.95235" lon="8.72629">
        <ele>1352</ele>
        <time>2021-08-06T10:38:39.857Z</time>
      </trkpt>
      <trkpt lat="46.95234" lon="8.72628">
        <ele>1352</ele>
        <time>2021-08-06T10:38:40.857Z</time>
      </trkpt>
      <trkpt lat="46.95233" lon="8.72627">
        <ele>1352</ele>
        <time>2021-08-06T10:38:41.857Z</time>
      </trkpt>
      <trkpt lat="46.95232" lon="8.72627">
        <ele>1353</ele>
        <time>2021-08-06T10:38:42.857Z</time>
      </trkpt>
      <trkpt lat="46.95231" lon="8.72626">
        <ele>1353</ele>
        <time>2021-08-06T10:38:43.857Z</time>
      </trkpt>
      <trkpt lat="46.95231" lon="8.72625">
        <ele>1353</ele>
        <time>2021-08-06T10:38:44.856Z</time>
      </trkpt>
      <trkpt lat="46.9523" lon="8.72624">
        <ele>1353</ele>
        <time>2021-08-06T10:38:45.857Z</time>
      </trkpt>
      <trkpt lat="46.95229" lon="8.72624">
        <ele>1352</ele>
        <time>2021-08-06T10:38:46.857Z</time>
      </trkpt>
      <trkpt lat="46.95229" lon="8.72623">
        <ele>1352</ele>
        <time>2021-08-06T10:38:47.857Z</time>
      </trkpt>
      <trkpt lat="46.95228" lon="8.72623">
        <ele>1352</ele>
        <time>2021-08-06T10:38:48.857Z</time>
      </trkpt>
      <trkpt lat="46.95227" lon="8.72622">
        <ele>1352</ele>
        <time>2021-08-06T10:38:49.857Z</time>
      </trkpt>
      <trkpt lat="46.95226" lon="8.72621">
        <ele>1352</ele>
        <time>2021-08-06T10:38:50.857Z</time>
      </trkpt>
      <trkpt lat="46.95225" lon="8.72621">
        <ele>1353</ele>
        <time>2021-08-06T10:38:51.856Z</time>
      </trkpt>
      <trkpt lat="46.95224" lon="8.7262">
        <ele>1353</ele>
        <time>2021-08-06T10:38:52.857Z</time>
      </trkpt>
      <trkpt lat="46.95223" lon="8.7262">
        <ele>1353</ele>
        <time>2021-08-06T10:38:53.857Z</time>
      </trkpt>
      <trkpt lat="46.95222" lon="8.72619">
        <ele>1353</ele>
        <time>2021-08-06T10:38:54.857Z</time>
      </trkpt>
      <trkpt lat="46.95222" lon="8.72619">
        <ele>1353</ele>
        <time>2021-08-06T10:38:55.857Z</time>
      </trkpt>
      <trkpt lat="46.95221" lon="8.72618">
        <ele>1353</ele>
        <time>2021-08-06T10:38:56.857Z</time>
      </trkpt>
      <trkpt lat="46.9522" lon="8.72617">
        <ele>1353</ele>
        <time>2021-08-06T10:38:57.857Z</time>
      </trkpt>
      <trkpt lat="46.9522" lon="8.72617">
        <ele>1353</ele>
        <time>2021-08-06T10:38:58.857Z</time>
      </trkpt>
      <trkpt lat="46.95219" lon="8.72616">
        <ele>1353</ele>
        <time>2021-08-06T10:38:59.857Z</time>
      </trkpt>
      <trkpt lat="46.95218" lon="8.72616">
        <ele>1354</ele>
        <time>2021-08-06T10:39:00.857Z</time>
      </trkpt>
      <trkpt lat="46.95217" lon="8.72615">
        <ele>1354</ele>
        <time>2021-08-06T10:39:01.857Z</time>
      </trkpt>
      <trkpt lat="46.95216" lon="8.72615">
        <ele>1355</ele>
        <time>2021-08-06T10:39:02.857Z</time>
      </trkpt>
      <trkpt lat="46.95216" lon="8.72615">
        <ele>1355</ele>
        <time>2021-08-06T10:39:03.857Z</time>
      </trkpt>
      <trkpt lat="46.95215" lon="8.72615">
        <ele>1355</ele>
        <time>2021-08-06T10:39:04.857Z</time>
      </trkpt>
      <trkpt lat="46.95214" lon="8.72614">
        <ele>1355</ele>
        <time>2021-08-06T10:39:05.856Z</time>
      </trkpt>
      <trkpt lat="46.95213" lon="8.72614">
        <ele>1355</ele>
        <time>2021-08-06T10:39:06.856Z</time>
      </trkpt>
      <trkpt lat="46.95212" lon="8.72613">
        <ele>1355</ele>
        <time>2021-08-06T10:39:07.856Z</time>
      </trkpt>
      <trkpt lat="46.95211" lon="8.72613">
        <ele>1355</ele>
        <time>2021-08-06T10:39:08.856Z</time>
      </trkpt>
      <trkpt lat="46.9521" lon="8.72612">
        <ele>1355</ele>
        <time>2021-08-06T10:39:09.856Z</time>
      </trkpt>
      <trkpt lat="46.95209" lon="8.72612">
        <ele>1355</ele>
        <time>2021-08-06T10:39:10.856Z</time>
      </trkpt>
      <trkpt lat="46.95208" lon="8.72612">
        <ele>1355</ele>
        <time>2021-08-06T10:39:11.857Z</time>
      </trkpt>
      <trkpt lat="46.95206" lon="8.72612">
        <ele>1355</ele>
        <time>2021-08-06T10:39:12.857Z</time>
      </trkpt>
      <trkpt lat="46.95206" lon="8.72612">
        <ele>1355</ele>
        <time>2021-08-06T10:39:13.857Z</time>
      </trkpt>
      <trkpt lat="46.95204" lon="8.72612">
        <ele>1355</ele>
        <time>2021-08-06T10:39:14.856Z</time>
      </trkpt>
      <trkpt lat="46.95203" lon="8.72613">
        <ele>1356</ele>
        <time>2021-08-06T10:39:15.856Z</time>
      </trkpt>
      <trkpt lat="46.95202" lon="8.72614">
        <ele>1356</ele>
        <time>2021-08-06T10:39:16.856Z</time>
      </trkpt>
      <trkpt lat="46.95202" lon="8.72615">
        <ele>1356</ele>
        <time>2021-08-06T10:39:17.857Z</time>
      </trkpt>
      <trkpt lat="46.95201" lon="8.72616">
        <ele>1356</ele>
        <time>2021-08-06T10:39:18.856Z</time>
      </trkpt>
      <trkpt lat="46.952" lon="8.72618">
        <ele>1356</ele>
        <time>2021-08-06T10:39:19.857Z</time>
      </trkpt>
      <trkpt lat="46.95199" lon="8.72619">
        <ele>1356</ele>
        <time>2021-08-06T10:39:20.857Z</time>
      </trkpt>
      <trkpt lat="46.95199" lon="8.7262">
        <ele>1356</ele>
        <time>2021-08-06T10:39:21.857Z</time>
      </trkpt>
      <trkpt lat="46.95198" lon="8.72622">
        <ele>1356</ele>
        <time>2021-08-06T10:39:22.857Z</time>
      </trkpt>
      <trkpt lat="46.95198" lon="8.72624">
        <ele>1356</ele>
        <time>2021-08-06T10:39:23.857Z</time>
      </trkpt>
      <trkpt lat="46.95198" lon="8.72625">
        <ele>1357</ele>
        <time>2021-08-06T10:39:24.856Z</time>
      </trkpt>
      <trkpt lat="46.95198" lon="8.72627">
        <ele>1357</ele>
        <time>2021-08-06T10:39:25.857Z</time>
      </trkpt>
      <trkpt lat="46.95198" lon="8.72628">
        <ele>1356</ele>
        <time>2021-08-06T10:39:26.856Z</time>
      </trkpt>
      <trkpt lat="46.95198" lon="8.7263">
        <ele>1356</ele>
        <time>2021-08-06T10:39:27.857Z</time>
      </trkpt>
      <trkpt lat="46.95198" lon="8.72631">
        <ele>1355</ele>
        <time>2021-08-06T10:39:28.856Z</time>
      </trkpt>
      <trkpt lat="46.95198" lon="8.72633">
        <ele>1355</ele>
        <time>2021-08-06T10:39:29.856Z</time>
      </trkpt>
      <trkpt lat="46.95198" lon="8.72634">
        <ele>1355</ele>
        <time>2021-08-06T10:39:30.857Z</time>
      </trkpt>
      <trkpt lat="46.95199" lon="8.72636">
        <ele>1356</ele>
        <time>2021-08-06T10:39:31.857Z</time>
      </trkpt>
      <trkpt lat="46.95199" lon="8.72637">
        <ele>1357</ele>
        <time>2021-08-06T10:39:32.856Z</time>
      </trkpt>
      <trkpt lat="46.95199" lon="8.72638">
        <ele>1357</ele>
        <time>2021-08-06T10:39:33.856Z</time>
      </trkpt>
      <trkpt lat="46.952" lon="8.7264">
        <ele>1358</ele>
        <time>2021-08-06T10:39:34.856Z</time>
      </trkpt>
      <trkpt lat="46.952" lon="8.72641">
        <ele>1358</ele>
        <time>2021-08-06T10:39:35.856Z</time>
      </trkpt>
      <trkpt lat="46.95201" lon="8.72642">
        <ele>1358</ele>
        <time>2021-08-06T10:39:36.857Z</time>
      </trkpt>
      <trkpt lat="46.95201" lon="8.72644">
        <ele>1359</ele>
        <time>2021-08-06T10:39:37.857Z</time>
      </trkpt>
      <trkpt lat="46.95201" lon="8.72645">
        <ele>1359</ele>
        <time>2021-08-06T10:39:38.857Z</time>
      </trkpt>
      <trkpt lat="46.95202" lon="8.72646">
        <ele>1359</ele>
        <time>2021-08-06T10:39:39.857Z</time>
      </trkpt>
      <trkpt lat="46.95202" lon="8.72647">
        <ele>1359</ele>
        <time>2021-08-06T10:39:40.857Z</time>
      </trkpt>
      <trkpt lat="46.95203" lon="8.72648">
        <ele>1359</ele>
        <time>2021-08-06T10:39:41.856Z</time>
      </trkpt>
      <trkpt lat="46.95203" lon="8.72649">
        <ele>1358</ele>
        <time>2021-08-06T10:39:42.857Z</time>
      </trkpt>
      <trkpt lat="46.95204" lon="8.72651">
        <ele>1358</ele>
        <time>2021-08-06T10:39:43.856Z</time>
      </trkpt>
      <trkpt lat="46.95204" lon="8.72652">
        <ele>1358</ele>
        <time>2021-08-06T10:39:44.856Z</time>
      </trkpt>
      <trkpt lat="46.95204" lon="8.72653">
        <ele>1358</ele>
        <time>2021-08-06T10:39:45.857Z</time>
      </trkpt>
      <trkpt lat="46.95204" lon="8.72654">
        <ele>1358</ele>
        <time>2021-08-06T10:39:46.857Z</time>
      </trkpt>
      <trkpt lat="46.95205" lon="8.72655">
        <ele>1358</ele>
        <time>2021-08-06T10:39:47.857Z</time>
      </trkpt>
      <trkpt lat="46.95205" lon="8.72656">
        <ele>1358</ele>
        <time>2021-08-06T10:39:48.856Z</time>
      </trkpt>
      <trkpt lat="46.95205" lon="8.72657">
        <ele>1357</ele>
        <time>2021-08-06T10:39:49.857Z</time>
      </trkpt>
      <trkpt lat="46.95205" lon="8.72658">
        <ele>1357</ele>
        <time>2021-08-06T10:39:50.857Z</time>
      </trkpt>
      <trkpt lat="46.95205" lon="8.72659">
        <ele>1358</ele>
        <time>2021-08-06T10:39:51.857Z</time>
      </trkpt>
      <trkpt lat="46.95205" lon="8.7266">
        <ele>1358</ele>
        <time>2021-08-06T10:39:52.856Z</time>
      </trkpt>
      <trkpt lat="46.95205" lon="8.7266">
        <ele>1358</ele>
        <time>2021-08-06T10:39:53.857Z</time>
      </trkpt>
      <trkpt lat="46.95205" lon="8.72661">
        <ele>1358</ele>
        <time>2021-08-06T10:39:54.856Z</time>
      </trkpt>
      <trkpt lat="46.95205" lon="8.72662">
        <ele>1358</ele>
        <time>2021-08-06T10:39:55.857Z</time>
      </trkpt>
      <trkpt lat="46.95205" lon="8.72663">
        <ele>1359</ele>
        <time>2021-08-06T10:39:56.857Z</time>
      </trkpt>
      <trkpt lat="46.95205" lon="8.72664">
        <ele>1359</ele>
        <time>2021-08-06T10:39:57.857Z</time>
      </trkpt>
      <trkpt lat="46.95205" lon="8.72665">
        <ele>1360</ele>
        <time>2021-08-06T10:39:58.857Z</time>
      </trkpt>
      <trkpt lat="46.95206" lon="8.72666">
        <ele>1360</ele>
        <time>2021-08-06T10:39:59.857Z</time>
      </trkpt>
      <trkpt lat="46.95206" lon="8.72667">
        <ele>1361</ele>
        <time>2021-08-06T10:40:00.857Z</time>
      </trkpt>
      <trkpt lat="46.95206" lon="8.72667">
        <ele>1361</ele>
        <time>2021-08-06T10:40:01.857Z</time>
      </trkpt>
      <trkpt lat="46.95205" lon="8.72668">
        <ele>1362</ele>
        <time>2021-08-06T10:40:02.857Z</time>
      </trkpt>
      <trkpt lat="46.95205" lon="8.72669">
        <ele>1362</ele>
        <time>2021-08-06T10:40:03.856Z</time>
      </trkpt>
      <trkpt lat="46.95205" lon="8.7267">
        <ele>1362</ele>
        <time>2021-08-06T10:40:04.856Z</time>
      </trkpt>
      <trkpt lat="46.95205" lon="8.7267">
        <ele>1362</ele>
        <time>2021-08-06T10:40:05.857Z</time>
      </trkpt>
      <trkpt lat="46.95205" lon="8.72671">
        <ele>1362</ele>
        <time>2021-08-06T10:40:06.857Z</time>
      </trkpt>
      <trkpt lat="46.95205" lon="8.72672">
        <ele>1361</ele>
        <time>2021-08-06T10:40:07.856Z</time>
      </trkpt>
      <trkpt lat="46.95204" lon="8.72672">
        <ele>1362</ele>
        <time>2021-08-06T10:40:08.856Z</time>
      </trkpt>
      <trkpt lat="46.95204" lon="8.72673">
        <ele>1362</ele>
        <time>2021-08-06T10:40:09.857Z</time>
      </trkpt>
      <trkpt lat="46.95204" lon="8.72674">
        <ele>1362</ele>
        <time>2021-08-06T10:40:10.856Z</time>
      </trkpt>
      <trkpt lat="46.95204" lon="8.72675">
        <ele>1362</ele>
        <time>2021-08-06T10:40:11.857Z</time>
      </trkpt>
      <trkpt lat="46.95204" lon="8.72676">
        <ele>1362</ele>
        <time>2021-08-06T10:40:12.856Z</time>
      </trkpt>
      <trkpt lat="46.95204" lon="8.72677">
        <ele>1362</ele>
        <time>2021-08-06T10:40:13.857Z</time>
      </trkpt>
      <trkpt lat="46.95203" lon="8.72678">
        <ele>1362</ele>
        <time>2021-08-06T10:40:14.856Z</time>
      </trkpt>
      <trkpt lat="46.95203" lon="8.72679">
        <ele>1362</ele>
        <time>2021-08-06T10:40:15.857Z</time>
      </trkpt>
      <trkpt lat="46.95203" lon="8.7268">
        <ele>1362</ele>
        <time>2021-08-06T10:40:16.856Z</time>
      </trkpt>
      <trkpt lat="46.95202" lon="8.7268">
        <ele>1362</ele>
        <time>2021-08-06T10:40:17.857Z</time>
      </trkpt>
      <trkpt lat="46.95202" lon="8.72681">
        <ele>1362</ele>
        <time>2021-08-06T10:40:18.856Z</time>
      </trkpt>
      <trkpt lat="46.95202" lon="8.72682">
        <ele>1363</ele>
        <time>2021-08-06T10:40:19.857Z</time>
      </trkpt>
      <trkpt lat="46.95202" lon="8.72683">
        <ele>1362</ele>
        <time>2021-08-06T10:40:20.856Z</time>
      </trkpt>
      <trkpt lat="46.95202" lon="8.72684">
        <ele>1363</ele>
        <time>2021-08-06T10:40:21.856Z</time>
      </trkpt>
      <trkpt lat="46.95202" lon="8.72685">
        <ele>1363</ele>
        <time>2021-08-06T10:40:22.857Z</time>
      </trkpt>
      <trkpt lat="46.95202" lon="8.72685">
        <ele>1363</ele>
        <time>2021-08-06T10:40:23.857Z</time>
      </trkpt>
      <trkpt lat="46.95202" lon="8.72686">
        <ele>1363</ele>
        <time>2021-08-06T10:40:24.856Z</time>
      </trkpt>
      <trkpt lat="46.95202" lon="8.72687">
        <ele>1363</ele>
        <time>2021-08-06T10:40:25.857Z</time>
      </trkpt>
      <trkpt lat="46.95201" lon="8.72688">
        <ele>1362</ele>
        <time>2021-08-06T10:40:26.856Z</time>
      </trkpt>
      <trkpt lat="46.95201" lon="8.72689">
        <ele>1361</ele>
        <time>2021-08-06T10:40:27.857Z</time>
      </trkpt>
      <trkpt lat="46.95201" lon="8.7269">
        <ele>1361</ele>
        <time>2021-08-06T10:40:28.856Z</time>
      </trkpt>
      <trkpt lat="46.95201" lon="8.72691">
        <ele>1360</ele>
        <time>2021-08-06T10:40:29.857Z</time>
      </trkpt>
      <trkpt lat="46.952" lon="8.72692">
        <ele>1360</ele>
        <time>2021-08-06T10:40:30.856Z</time>
      </trkpt>
      <trkpt lat="46.952" lon="8.72693">
        <ele>1360</ele>
        <time>2021-08-06T10:40:31.856Z</time>
      </trkpt>
      <trkpt lat="46.952" lon="8.72694">
        <ele>1361</ele>
        <time>2021-08-06T10:40:32.856Z</time>
      </trkpt>
      <trkpt lat="46.952" lon="8.72694">
        <ele>1361</ele>
        <time>2021-08-06T10:40:33.856Z</time>
      </trkpt>
      <trkpt lat="46.952" lon="8.72695">
        <ele>1362</ele>
        <time>2021-08-06T10:40:34.857Z</time>
      </trkpt>
      <trkpt lat="46.952" lon="8.72696">
        <ele>1362</ele>
        <time>2021-08-06T10:40:35.856Z</time>
      </trkpt>
      <trkpt lat="46.952" lon="8.72696">
        <ele>1362</ele>
        <time>2021-08-06T10:40:36.857Z</time>
      </trkpt>
      <trkpt lat="46.952" lon="8.72698">
        <ele>1362</ele>
        <time>2021-08-06T10:40:37.856Z</time>
      </trkpt>
      <trkpt lat="46.952" lon="8.72698">
        <ele>1363</ele>
        <time>2021-08-06T10:40:38.857Z</time>
      </trkpt>
      <trkpt lat="46.952" lon="8.72699">
        <ele>1363</ele>
        <time>2021-08-06T10:40:39.856Z</time>
      </trkpt>
      <trkpt lat="46.952" lon="8.727">
        <ele>1363</ele>
        <time>2021-08-06T10:40:40.856Z</time>
      </trkpt>
      <trkpt lat="46.952" lon="8.72701">
        <ele>1364</ele>
        <time>2021-08-06T10:40:41.856Z</time>
      </trkpt>
      <trkpt lat="46.952" lon="8.72702">
        <ele>1364</ele>
        <time>2021-08-06T10:40:42.856Z</time>
      </trkpt>
      <trkpt lat="46.952" lon="8.72704">
        <ele>1364</ele>
        <time>2021-08-06T10:40:43.857Z</time>
      </trkpt>
      <trkpt lat="46.95199" lon="8.72704">
        <ele>1364</ele>
        <time>2021-08-06T10:40:44.856Z</time>
      </trkpt>
      <trkpt lat="46.95199" lon="8.72705">
        <ele>1365</ele>
        <time>2021-08-06T10:40:45.857Z</time>
      </trkpt>
      <trkpt lat="46.95199" lon="8.72707">
        <ele>1365</ele>
        <time>2021-08-06T10:40:46.856Z</time>
      </trkpt>
      <trkpt lat="46.95199" lon="8.72708">
        <ele>1365</ele>
        <time>2021-08-06T10:40:47.856Z</time>
      </trkpt>
      <trkpt lat="46.95199" lon="8.72709">
        <ele>1366</ele>
        <time>2021-08-06T10:40:48.857Z</time>
      </trkpt>
      <trkpt lat="46.95199" lon="8.7271">
        <ele>1366</ele>
        <time>2021-08-06T10:40:49.857Z</time>
      </trkpt>
      <trkpt lat="46.95199" lon="8.72711">
        <ele>1366</ele>
        <time>2021-08-06T10:40:50.856Z</time>
      </trkpt>
      <trkpt lat="46.95199" lon="8.72711">
        <ele>1366</ele>
        <time>2021-08-06T10:40:51.857Z</time>
      </trkpt>
      <trkpt lat="46.95199" lon="8.72712">
        <ele>1366</ele>
        <time>2021-08-06T10:40:52.856Z</time>
      </trkpt>
      <trkpt lat="46.95199" lon="8.72713">
        <ele>1366</ele>
        <time>2021-08-06T10:40:53.856Z</time>
      </trkpt>
      <trkpt lat="46.95199" lon="8.72714">
        <ele>1366</ele>
        <time>2021-08-06T10:40:54.856Z</time>
      </trkpt>
      <trkpt lat="46.95199" lon="8.72714">
        <ele>1367</ele>
        <time>2021-08-06T10:40:55.856Z</time>
      </trkpt>
      <trkpt lat="46.95199" lon="8.72715">
        <ele>1367</ele>
        <time>2021-08-06T10:40:56.857Z</time>
      </trkpt>
      <trkpt lat="46.95199" lon="8.72716">
        <ele>1367</ele>
        <time>2021-08-06T10:40:57.856Z</time>
      </trkpt>
      <trkpt lat="46.95199" lon="8.72717">
        <ele>1367</ele>
        <time>2021-08-06T10:40:58.856Z</time>
      </trkpt>
      <trkpt lat="46.95199" lon="8.72718">
        <ele>1367</ele>
        <time>2021-08-06T10:40:59.856Z</time>
      </trkpt>
      <trkpt lat="46.95199" lon="8.72719">
        <ele>1368</ele>
        <time>2021-08-06T10:41:00.856Z</time>
      </trkpt>
      <trkpt lat="46.95199" lon="8.72719">
        <ele>1369</ele>
        <time>2021-08-06T10:41:01.856Z</time>
      </trkpt>
      <trkpt lat="46.95198" lon="8.72721">
        <ele>1369</ele>
        <time>2021-08-06T10:41:02.856Z</time>
      </trkpt>
      <trkpt lat="46.95198" lon="8.72722">
        <ele>1370</ele>
        <time>2021-08-06T10:41:03.857Z</time>
      </trkpt>
      <trkpt lat="46.95198" lon="8.72723">
        <ele>1370</ele>
        <time>2021-08-06T10:41:04.856Z</time>
      </trkpt>
      <trkpt lat="46.95198" lon="8.72724">
        <ele>1370</ele>
        <time>2021-08-06T10:41:05.856Z</time>
      </trkpt>
      <trkpt lat="46.95198" lon="8.72725">
        <ele>1370</ele>
        <time>2021-08-06T10:41:06.856Z</time>
      </trkpt>
      <trkpt lat="46.95198" lon="8.72725">
        <ele>1370</ele>
        <time>2021-08-06T10:41:07.856Z</time>
      </trkpt>
      <trkpt lat="46.95198" lon="8.72726">
        <ele>1370</ele>
        <time>2021-08-06T10:41:08.856Z</time>
      </trkpt>
      <trkpt lat="46.95197" lon="8.72728">
        <ele>1370</ele>
        <time>2021-08-06T10:41:09.856Z</time>
      </trkpt>
      <trkpt lat="46.95197" lon="8.72728">
        <ele>1370</ele>
        <time>2021-08-06T10:41:10.856Z</time>
      </trkpt>
      <trkpt lat="46.95197" lon="8.7273">
        <ele>1371</ele>
        <time>2021-08-06T10:41:11.857Z</time>
      </trkpt>
      <trkpt lat="46.95196" lon="8.72731">
        <ele>1371</ele>
        <time>2021-08-06T10:41:12.857Z</time>
      </trkpt>
      <trkpt lat="46.95196" lon="8.72732">
        <ele>1371</ele>
        <time>2021-08-06T10:41:13.857Z</time>
      </trkpt>
      <trkpt lat="46.95195" lon="8.72733">
        <ele>1371</ele>
        <time>2021-08-06T10:41:14.857Z</time>
      </trkpt>
      <trkpt lat="46.95195" lon="8.72734">
        <ele>1371</ele>
        <time>2021-08-06T10:41:15.856Z</time>
      </trkpt>
      <trkpt lat="46.95195" lon="8.72735">
        <ele>1371</ele>
        <time>2021-08-06T10:41:16.857Z</time>
      </trkpt>
      <trkpt lat="46.95195" lon="8.72735">
        <ele>1372</ele>
        <time>2021-08-06T10:41:17.857Z</time>
      </trkpt>
      <trkpt lat="46.95195" lon="8.72736">
        <ele>1372</ele>
        <time>2021-08-06T10:41:18.857Z</time>
      </trkpt>
      <trkpt lat="46.95195" lon="8.72737">
        <ele>1372</ele>
        <time>2021-08-06T10:41:19.856Z</time>
      </trkpt>
      <trkpt lat="46.95196" lon="8.72738">
        <ele>1372</ele>
        <time>2021-08-06T10:41:20.857Z</time>
      </trkpt>
      <trkpt lat="46.95196" lon="8.72739">
        <ele>1372</ele>
        <time>2021-08-06T10:41:21.857Z</time>
      </trkpt>
      <trkpt lat="46.95195" lon="8.7274">
        <ele>1372</ele>
        <time>2021-08-06T10:41:22.857Z</time>
      </trkpt>
      <trkpt lat="46.95195" lon="8.72741">
        <ele>1372</ele>
        <time>2021-08-06T10:41:23.857Z</time>
      </trkpt>
      <trkpt lat="46.95195" lon="8.72742">
        <ele>1373</ele>
        <time>2021-08-06T10:41:24.856Z</time>
      </trkpt>
      <trkpt lat="46.95195" lon="8.72743">
        <ele>1373</ele>
        <time>2021-08-06T10:41:25.857Z</time>
      </trkpt>
      <trkpt lat="46.95195" lon="8.72744">
        <ele>1373</ele>
        <time>2021-08-06T10:41:26.857Z</time>
      </trkpt>
      <trkpt lat="46.95194" lon="8.72745">
        <ele>1373</ele>
        <time>2021-08-06T10:41:27.857Z</time>
      </trkpt>
      <trkpt lat="46.95194" lon="8.72746">
        <ele>1373</ele>
        <time>2021-08-06T10:41:28.857Z</time>
      </trkpt>
      <trkpt lat="46.95194" lon="8.72747">
        <ele>1373</ele>
        <time>2021-08-06T10:41:29.856Z</time>
      </trkpt>
      <trkpt lat="46.95194" lon="8.72749">
        <ele>1373</ele>
        <time>2021-08-06T10:41:30.857Z</time>
      </trkpt>
      <trkpt lat="46.95194" lon="8.72749">
        <ele>1373</ele>
        <time>2021-08-06T10:41:31.857Z</time>
      </trkpt>
      <trkpt lat="46.95194" lon="8.7275">
        <ele>1373</ele>
        <time>2021-08-06T10:41:32.857Z</time>
      </trkpt>
      <trkpt lat="46.95193" lon="8.72751">
        <ele>1373</ele>
        <time>2021-08-06T10:41:33.857Z</time>
      </trkpt>
      <trkpt lat="46.95194" lon="8.72752">
        <ele>1373</ele>
        <time>2021-08-06T10:41:34.857Z</time>
      </trkpt>
      <trkpt lat="46.95194" lon="8.72753">
        <ele>1373</ele>
        <time>2021-08-06T10:41:35.856Z</time>
      </trkpt>
      <trkpt lat="46.95194" lon="8.72754">
        <ele>1373</ele>
        <time>2021-08-06T10:41:36.857Z</time>
      </trkpt>
      <trkpt lat="46.95194" lon="8.72755">
        <ele>1373</ele>
        <time>2021-08-06T10:41:37.857Z</time>
      </trkpt>
      <trkpt lat="46.95194" lon="8.72757">
        <ele>1373</ele>
        <time>2021-08-06T10:41:38.856Z</time>
      </trkpt>
      <trkpt lat="46.95194" lon="8.72758">
        <ele>1373</ele>
        <time>2021-08-06T10:41:39.856Z</time>
      </trkpt>
      <trkpt lat="46.95194" lon="8.72759">
        <ele>1373</ele>
        <time>2021-08-06T10:41:40.857Z</time>
      </trkpt>
      <trkpt lat="46.95193" lon="8.72761">
        <ele>1374</ele>
        <time>2021-08-06T10:41:41.856Z</time>
      </trkpt>
      <trkpt lat="46.95193" lon="8.72762">
        <ele>1374</ele>
        <time>2021-08-06T10:41:42.856Z</time>
      </trkpt>
      <trkpt lat="46.95193" lon="8.72763">
        <ele>1375</ele>
        <time>2021-08-06T10:41:43.857Z</time>
      </trkpt>
      <trkpt lat="46.95193" lon="8.72764">
        <ele>1375</ele>
        <time>2021-08-06T10:41:44.857Z</time>
      </trkpt>
      <trkpt lat="46.95193" lon="8.72765">
        <ele>1375</ele>
        <time>2021-08-06T10:41:45.856Z</time>
      </trkpt>
      <trkpt lat="46.95193" lon="8.72766">
        <ele>1375</ele>
        <time>2021-08-06T10:41:46.856Z</time>
      </trkpt>
      <trkpt lat="46.95193" lon="8.72767">
        <ele>1375</ele>
        <time>2021-08-06T10:41:47.857Z</time>
      </trkpt>
      <trkpt lat="46.95193" lon="8.72768">
        <ele>1375</ele>
        <time>2021-08-06T10:41:48.857Z</time>
      </trkpt>
      <trkpt lat="46.95193" lon="8.72769">
        <ele>1374</ele>
        <time>2021-08-06T10:41:49.857Z</time>
      </trkpt>
      <trkpt lat="46.95194" lon="8.72769">
        <ele>1373</ele>
        <time>2021-08-06T10:41:50.857Z</time>
      </trkpt>
      <trkpt lat="46.95194" lon="8.7277">
        <ele>1373</ele>
        <time>2021-08-06T10:41:51.857Z</time>
      </trkpt>
      <trkpt lat="46.95194" lon="8.72771">
        <ele>1374</ele>
        <time>2021-08-06T10:41:52.856Z</time>
      </trkpt>
      <trkpt lat="46.95194" lon="8.72772">
        <ele>1374</ele>
        <time>2021-08-06T10:41:53.857Z</time>
      </trkpt>
      <trkpt lat="46.95194" lon="8.72773">
        <ele>1375</ele>
        <time>2021-08-06T10:41:54.857Z</time>
      </trkpt>
      <trkpt lat="46.95194" lon="8.72774">
        <ele>1375</ele>
        <time>2021-08-06T10:41:55.856Z</time>
      </trkpt>
      <trkpt lat="46.95195" lon="8.72775">
        <ele>1375</ele>
        <time>2021-08-06T10:41:56.857Z</time>
      </trkpt>
      <trkpt lat="46.95195" lon="8.72777">
        <ele>1375</ele>
        <time>2021-08-06T10:41:57.857Z</time>
      </trkpt>
      <trkpt lat="46.95195" lon="8.72778">
        <ele>1375</ele>
        <time>2021-08-06T10:41:58.857Z</time>
      </trkpt>
      <trkpt lat="46.95195" lon="8.72779">
        <ele>1375</ele>
        <time>2021-08-06T10:41:59.857Z</time>
      </trkpt>
      <trkpt lat="46.95196" lon="8.7278">
        <ele>1376</ele>
        <time>2021-08-06T10:42:00.857Z</time>
      </trkpt>
      <trkpt lat="46.95196" lon="8.72781">
        <ele>1376</ele>
        <time>2021-08-06T10:42:01.857Z</time>
      </trkpt>
      <trkpt lat="46.95196" lon="8.72782">
        <ele>1376</ele>
        <time>2021-08-06T10:42:02.857Z</time>
      </trkpt>
      <trkpt lat="46.95196" lon="8.72783">
        <ele>1376</ele>
        <time>2021-08-06T10:42:03.857Z</time>
      </trkpt>
      <trkpt lat="46.95197" lon="8.72784">
        <ele>1376</ele>
        <time>2021-08-06T10:42:04.856Z</time>
      </trkpt>
      <trkpt lat="46.95197" lon="8.72785">
        <ele>1376</ele>
        <time>2021-08-06T10:42:05.857Z</time>
      </trkpt>
      <trkpt lat="46.95197" lon="8.72786">
        <ele>1375</ele>
        <time>2021-08-06T10:42:06.857Z</time>
      </trkpt>
      <trkpt lat="46.95197" lon="8.72787">
        <ele>1375</ele>
        <time>2021-08-06T10:42:07.857Z</time>
      </trkpt>
      <trkpt lat="46.95197" lon="8.72788">
        <ele>1375</ele>
        <time>2021-08-06T10:42:08.856Z</time>
      </trkpt>
      <trkpt lat="46.95197" lon="8.72787">
        <ele>1375</ele>
        <time>2021-08-06T10:42:09.857Z</time>
      </trkpt>
      <trkpt lat="46.95197" lon="8.72787">
        <ele>1375</ele>
        <time>2021-08-06T10:42:10.856Z</time>
      </trkpt>
      <trkpt lat="46.95197" lon="8.72785">
        <ele>1375</ele>
        <time>2021-08-06T10:42:11.857Z</time>
      </trkpt>
      <trkpt lat="46.95197" lon="8.72786">
        <ele>1375</ele>
        <time>2021-08-06T10:42:12.858Z</time>
      </trkpt>
      <trkpt lat="46.95197" lon="8.72787">
        <ele>1375</ele>
        <time>2021-08-06T10:42:13.857Z</time>
      </trkpt>
      <trkpt lat="46.95196" lon="8.72791">
        <ele>1377</ele>
        <time>2021-08-06T10:42:14.858Z</time>
      </trkpt>
      <trkpt lat="46.95195" lon="8.72791">
        <ele>1377</ele>
        <time>2021-08-06T10:42:15.858Z</time>
      </trkpt>
      <trkpt lat="46.95195" lon="8.72791">
        <ele>1377</ele>
        <time>2021-08-06T10:42:16.857Z</time>
      </trkpt>
      <trkpt lat="46.95194" lon="8.72791">
        <ele>1378</ele>
        <time>2021-08-06T10:42:17.857Z</time>
      </trkpt>
      <trkpt lat="46.95193" lon="8.72791">
        <ele>1378</ele>
        <time>2021-08-06T10:42:18.858Z</time>
      </trkpt>
      <trkpt lat="46.95192" lon="8.72791">
        <ele>1378</ele>
        <time>2021-08-06T10:42:19.858Z</time>
      </trkpt>
      <trkpt lat="46.95192" lon="8.72791">
        <ele>1377</ele>
        <time>2021-08-06T10:42:20.857Z</time>
      </trkpt>
      <trkpt lat="46.95191" lon="8.72791">
        <ele>1377</ele>
        <time>2021-08-06T10:42:21.857Z</time>
      </trkpt>
      <trkpt lat="46.9519" lon="8.72791">
        <ele>1377</ele>
        <time>2021-08-06T10:42:22.858Z</time>
      </trkpt>
      <trkpt lat="46.9519" lon="8.72791">
        <ele>1377</ele>
        <time>2021-08-06T10:42:23.858Z</time>
      </trkpt>
      <trkpt lat="46.95189" lon="8.72789">
        <ele>1377</ele>
        <time>2021-08-06T10:42:24.858Z</time>
      </trkpt>
      <trkpt lat="46.95188" lon="8.72789">
        <ele>1377</ele>
        <time>2021-08-06T10:42:25.858Z</time>
      </trkpt>
      <trkpt lat="46.95188" lon="8.72788">
        <ele>1377</ele>
        <time>2021-08-06T10:42:26.857Z</time>
      </trkpt>
      <trkpt lat="46.95187" lon="8.72787">
        <ele>1377</ele>
        <time>2021-08-06T10:42:27.857Z</time>
      </trkpt>
      <trkpt lat="46.95186" lon="8.72787">
        <ele>1377</ele>
        <time>2021-08-06T10:42:28.858Z</time>
      </trkpt>
      <trkpt lat="46.95186" lon="8.72786">
        <ele>1378</ele>
        <time>2021-08-06T10:42:29.858Z</time>
      </trkpt>
      <trkpt lat="46.95186" lon="8.72785">
        <ele>1378</ele>
        <time>2021-08-06T10:42:30.858Z</time>
      </trkpt>
      <trkpt lat="46.95185" lon="8.72785">
        <ele>1378</ele>
        <time>2021-08-06T10:42:31.858Z</time>
      </trkpt>
      <trkpt lat="46.95185" lon="8.72784">
        <ele>1378</ele>
        <time>2021-08-06T10:42:32.857Z</time>
      </trkpt>
      <trkpt lat="46.95185" lon="8.72783">
        <ele>1378</ele>
        <time>2021-08-06T10:42:33.858Z</time>
      </trkpt>
      <trkpt lat="46.95184" lon="8.72782">
        <ele>1378</ele>
        <time>2021-08-06T10:42:34.858Z</time>
      </trkpt>
      <trkpt lat="46.95183" lon="8.72782">
        <ele>1378</ele>
        <time>2021-08-06T10:42:35.858Z</time>
      </trkpt>
      <trkpt lat="46.95183" lon="8.72781">
        <ele>1378</ele>
        <time>2021-08-06T10:42:36.858Z</time>
      </trkpt>
      <trkpt lat="46.95182" lon="8.72781">
        <ele>1378</ele>
        <time>2021-08-06T10:42:37.857Z</time>
      </trkpt>
      <trkpt lat="46.95182" lon="8.7278">
        <ele>1379</ele>
        <time>2021-08-06T10:42:38.857Z</time>
      </trkpt>
      <trkpt lat="46.95182" lon="8.72779">
        <ele>1379</ele>
        <time>2021-08-06T10:42:39.858Z</time>
      </trkpt>
      <trkpt lat="46.95181" lon="8.72778">
        <ele>1379</ele>
        <time>2021-08-06T10:42:40.858Z</time>
      </trkpt>
      <trkpt lat="46.95181" lon="8.72778">
        <ele>1379</ele>
        <time>2021-08-06T10:42:41.858Z</time>
      </trkpt>
      <trkpt lat="46.9518" lon="8.72777">
        <ele>1379</ele>
        <time>2021-08-06T10:42:42.858Z</time>
      </trkpt>
      <trkpt lat="46.9518" lon="8.72776">
        <ele>1380</ele>
        <time>2021-08-06T10:42:43.858Z</time>
      </trkpt>
      <trkpt lat="46.95179" lon="8.72776">
        <ele>1380</ele>
        <time>2021-08-06T10:42:44.858Z</time>
      </trkpt>
      <trkpt lat="46.95179" lon="8.72774">
        <ele>1381</ele>
        <time>2021-08-06T10:42:45.858Z</time>
      </trkpt>
      <trkpt lat="46.95179" lon="8.72774">
        <ele>1381</ele>
        <time>2021-08-06T10:42:46.858Z</time>
      </trkpt>
      <trkpt lat="46.95178" lon="8.72773">
        <ele>1381</ele>
        <time>2021-08-06T10:42:47.858Z</time>
      </trkpt>
      <trkpt lat="46.95177" lon="8.72772">
        <ele>1382</ele>
        <time>2021-08-06T10:42:48.858Z</time>
      </trkpt>
      <trkpt lat="46.95177" lon="8.7277">
        <ele>1382</ele>
        <time>2021-08-06T10:42:49.858Z</time>
      </trkpt>
      <trkpt lat="46.95176" lon="8.72769">
        <ele>1382</ele>
        <time>2021-08-06T10:42:50.858Z</time>
      </trkpt>
      <trkpt lat="46.95176" lon="8.72766">
        <ele>1383</ele>
        <time>2021-08-06T10:42:51.857Z</time>
      </trkpt>
      <trkpt lat="46.95177" lon="8.72765">
        <ele>1383</ele>
        <time>2021-08-06T10:42:52.857Z</time>
      </trkpt>
      <trkpt lat="46.95177" lon="8.72765">
        <ele>1384</ele>
        <time>2021-08-06T10:42:53.858Z</time>
      </trkpt>
      <trkpt lat="46.95177" lon="8.72764">
        <ele>1384</ele>
        <time>2021-08-06T10:42:54.857Z</time>
      </trkpt>
      <trkpt lat="46.95177" lon="8.72763">
        <ele>1385</ele>
        <time>2021-08-06T10:42:55.858Z</time>
      </trkpt>
      <trkpt lat="46.95177" lon="8.72761">
        <ele>1386</ele>
        <time>2021-08-06T10:42:56.857Z</time>
      </trkpt>
      <trkpt lat="46.95177" lon="8.7276">
        <ele>1386</ele>
        <time>2021-08-06T10:42:57.858Z</time>
      </trkpt>
      <trkpt lat="46.95177" lon="8.72759">
        <ele>1386</ele>
        <time>2021-08-06T10:42:58.857Z</time>
      </trkpt>
      <trkpt lat="46.95176" lon="8.72758">
        <ele>1387</ele>
        <time>2021-08-06T10:42:59.857Z</time>
      </trkpt>
      <trkpt lat="46.95176" lon="8.72757">
        <ele>1387</ele>
        <time>2021-08-06T10:43:00.857Z</time>
      </trkpt>
      <trkpt lat="46.95175" lon="8.72756">
        <ele>1387</ele>
        <time>2021-08-06T10:43:01.858Z</time>
      </trkpt>
      <trkpt lat="46.95175" lon="8.72755">
        <ele>1388</ele>
        <time>2021-08-06T10:43:02.857Z</time>
      </trkpt>
      <trkpt lat="46.95175" lon="8.72753">
        <ele>1388</ele>
        <time>2021-08-06T10:43:03.858Z</time>
      </trkpt>
      <trkpt lat="46.95174" lon="8.72752">
        <ele>1388</ele>
        <time>2021-08-06T10:43:04.858Z</time>
      </trkpt>
      <trkpt lat="46.95173" lon="8.72751">
        <ele>1388</ele>
        <time>2021-08-06T10:43:05.858Z</time>
      </trkpt>
      <trkpt lat="46.95173" lon="8.7275">
        <ele>1388</ele>
        <time>2021-08-06T10:43:06.858Z</time>
      </trkpt>
      <trkpt lat="46.95173" lon="8.72749">
        <ele>1387</ele>
        <time>2021-08-06T10:43:07.857Z</time>
      </trkpt>
      <trkpt lat="46.95172" lon="8.72748">
        <ele>1387</ele>
        <time>2021-08-06T10:43:08.858Z</time>
      </trkpt>
      <trkpt lat="46.95172" lon="8.72747">
        <ele>1386</ele>
        <time>2021-08-06T10:43:09.858Z</time>
      </trkpt>
      <trkpt lat="46.95172" lon="8.72746">
        <ele>1386</ele>
        <time>2021-08-06T10:43:10.857Z</time>
      </trkpt>
      <trkpt lat="46.95173" lon="8.72745">
        <ele>1386</ele>
        <time>2021-08-06T10:43:11.858Z</time>
      </trkpt>
      <trkpt lat="46.95173" lon="8.72745">
        <ele>1386</ele>
        <time>2021-08-06T10:43:12.858Z</time>
      </trkpt>
      <trkpt lat="46.95173" lon="8.72744">
        <ele>1386</ele>
        <time>2021-08-06T10:43:13.858Z</time>
      </trkpt>
      <trkpt lat="46.95172" lon="8.72742">
        <ele>1386</ele>
        <time>2021-08-06T10:43:14.858Z</time>
      </trkpt>
      <trkpt lat="46.95172" lon="8.72741">
        <ele>1385</ele>
        <time>2021-08-06T10:43:15.858Z</time>
      </trkpt>
      <trkpt lat="46.95172" lon="8.7274">
        <ele>1385</ele>
        <time>2021-08-06T10:43:16.858Z</time>
      </trkpt>
      <trkpt lat="46.95171" lon="8.72739">
        <ele>1385</ele>
        <time>2021-08-06T10:43:17.858Z</time>
      </trkpt>
      <trkpt lat="46.95171" lon="8.72738">
        <ele>1386</ele>
        <time>2021-08-06T10:43:18.857Z</time>
      </trkpt>
      <trkpt lat="46.9517" lon="8.72737">
        <ele>1386</ele>
        <time>2021-08-06T10:43:19.858Z</time>
      </trkpt>
      <trkpt lat="46.9517" lon="8.72736">
        <ele>1386</ele>
        <time>2021-08-06T10:43:20.857Z</time>
      </trkpt>
      <trkpt lat="46.95169" lon="8.72735">
        <ele>1386</ele>
        <time>2021-08-06T10:43:21.857Z</time>
      </trkpt>
      <trkpt lat="46.95169" lon="8.72734">
        <ele>1387</ele>
        <time>2021-08-06T10:43:22.858Z</time>
      </trkpt>
      <trkpt lat="46.95169" lon="8.72733">
        <ele>1387</ele>
        <time>2021-08-06T10:43:23.858Z</time>
      </trkpt>
      <trkpt lat="46.95168" lon="8.72732">
        <ele>1387</ele>
        <time>2021-08-06T10:43:24.858Z</time>
      </trkpt>
      <trkpt lat="46.95167" lon="8.72732">
        <ele>1388</ele>
        <time>2021-08-06T10:43:25.858Z</time>
      </trkpt>
      <trkpt lat="46.95167" lon="8.72731">
        <ele>1388</ele>
        <time>2021-08-06T10:43:26.858Z</time>
      </trkpt>
      <trkpt lat="46.95166" lon="8.7273">
        <ele>1389</ele>
        <time>2021-08-06T10:43:27.857Z</time>
      </trkpt>
      <trkpt lat="46.95166" lon="8.72729">
        <ele>1389</ele>
        <time>2021-08-06T10:43:28.858Z</time>
      </trkpt>
      <trkpt lat="46.95165" lon="8.72728">
        <ele>1389</ele>
        <time>2021-08-06T10:43:29.857Z</time>
      </trkpt>
      <trkpt lat="46.95164" lon="8.72727">
        <ele>1389</ele>
        <time>2021-08-06T10:43:30.858Z</time>
      </trkpt>
      <trkpt lat="46.95164" lon="8.72725">
        <ele>1389</ele>
        <time>2021-08-06T10:43:31.857Z</time>
      </trkpt>
      <trkpt lat="46.95164" lon="8.72724">
        <ele>1389</ele>
        <time>2021-08-06T10:43:32.857Z</time>
      </trkpt>
      <trkpt lat="46.95163" lon="8.72722">
        <ele>1389</ele>
        <time>2021-08-06T10:43:33.858Z</time>
      </trkpt>
      <trkpt lat="46.95163" lon="8.72721">
        <ele>1389</ele>
        <time>2021-08-06T10:43:34.858Z</time>
      </trkpt>
      <trkpt lat="46.95163" lon="8.72719">
        <ele>1389</ele>
        <time>2021-08-06T10:43:35.858Z</time>
      </trkpt>
      <trkpt lat="46.95163" lon="8.72719">
        <ele>1388</ele>
        <time>2021-08-06T10:43:36.857Z</time>
      </trkpt>
      <trkpt lat="46.95162" lon="8.72718">
        <ele>1388</ele>
        <time>2021-08-06T10:43:37.858Z</time>
      </trkpt>
      <trkpt lat="46.95162" lon="8.72716">
        <ele>1387</ele>
        <time>2021-08-06T10:43:38.858Z</time>
      </trkpt>
      <trkpt lat="46.95162" lon="8.72716">
        <ele>1387</ele>
        <time>2021-08-06T10:43:39.857Z</time>
      </trkpt>
      <trkpt lat="46.95161" lon="8.72715">
        <ele>1387</ele>
        <time>2021-08-06T10:43:40.858Z</time>
      </trkpt>
      <trkpt lat="46.95161" lon="8.72715">
        <ele>1387</ele>
        <time>2021-08-06T10:43:41.858Z</time>
      </trkpt>
      <trkpt lat="46.9516" lon="8.72714">
        <ele>1388</ele>
        <time>2021-08-06T10:43:42.858Z</time>
      </trkpt>
      <trkpt lat="46.9516" lon="8.72713">
        <ele>1388</ele>
        <time>2021-08-06T10:43:43.857Z</time>
      </trkpt>
      <trkpt lat="46.95159" lon="8.72712">
        <ele>1389</ele>
        <time>2021-08-06T10:43:44.858Z</time>
      </trkpt>
      <trkpt lat="46.95159" lon="8.72712">
        <ele>1389</ele>
        <time>2021-08-06T10:43:45.858Z</time>
      </trkpt>
      <trkpt lat="46.95158" lon="8.72711">
        <ele>1389</ele>
        <time>2021-08-06T10:43:46.858Z</time>
      </trkpt>
      <trkpt lat="46.95158" lon="8.7271">
        <ele>1389</ele>
        <time>2021-08-06T10:43:47.858Z</time>
      </trkpt>
      <trkpt lat="46.95158" lon="8.7271">
        <ele>1389</ele>
        <time>2021-08-06T10:43:48.858Z</time>
      </trkpt>
      <trkpt lat="46.95157" lon="8.72709">
        <ele>1389</ele>
        <time>2021-08-06T10:43:49.858Z</time>
      </trkpt>
      <trkpt lat="46.95157" lon="8.72708">
        <ele>1390</ele>
        <time>2021-08-06T10:43:50.858Z</time>
      </trkpt>
      <trkpt lat="46.95157" lon="8.72707">
        <ele>1390</ele>
        <time>2021-08-06T10:43:51.858Z</time>
      </trkpt>
      <trkpt lat="46.95156" lon="8.72707">
        <ele>1391</ele>
        <time>2021-08-06T10:43:52.858Z</time>
      </trkpt>
      <trkpt lat="46.95156" lon="8.72706">
        <ele>1391</ele>
        <time>2021-08-06T10:43:53.858Z</time>
      </trkpt>
      <trkpt lat="46.95155" lon="8.72705">
        <ele>1392</ele>
        <time>2021-08-06T10:43:54.857Z</time>
      </trkpt>
      <trkpt lat="46.95155" lon="8.72704">
        <ele>1392</ele>
        <time>2021-08-06T10:43:55.857Z</time>
      </trkpt>
      <trkpt lat="46.95155" lon="8.72703">
        <ele>1392</ele>
        <time>2021-08-06T10:43:56.857Z</time>
      </trkpt>
      <trkpt lat="46.95154" lon="8.72702">
        <ele>1391</ele>
        <time>2021-08-06T10:43:57.858Z</time>
      </trkpt>
      <trkpt lat="46.95154" lon="8.72702">
        <ele>1390</ele>
        <time>2021-08-06T10:43:58.857Z</time>
      </trkpt>
      <trkpt lat="46.95153" lon="8.72701">
        <ele>1390</ele>
        <time>2021-08-06T10:43:59.858Z</time>
      </trkpt>
      <trkpt lat="46.95153" lon="8.727">
        <ele>1389</ele>
        <time>2021-08-06T10:44:00.858Z</time>
      </trkpt>
      <trkpt lat="46.95152" lon="8.72699">
        <ele>1389</ele>
        <time>2021-08-06T10:44:01.858Z</time>
      </trkpt>
      <trkpt lat="46.95151" lon="8.72698">
        <ele>1389</ele>
        <time>2021-08-06T10:44:02.858Z</time>
      </trkpt>
      <trkpt lat="46.95151" lon="8.72697">
        <ele>1389</ele>
        <time>2021-08-06T10:44:03.857Z</time>
      </trkpt>
      <trkpt lat="46.9515" lon="8.72696">
        <ele>1389</ele>
        <time>2021-08-06T10:44:04.857Z</time>
      </trkpt>
      <trkpt lat="46.9515" lon="8.72695">
        <ele>1389</ele>
        <time>2021-08-06T10:44:05.858Z</time>
      </trkpt>
      <trkpt lat="46.95149" lon="8.72694">
        <ele>1389</ele>
        <time>2021-08-06T10:44:06.858Z</time>
      </trkpt>
      <trkpt lat="46.95149" lon="8.72694">
        <ele>1390</ele>
        <time>2021-08-06T10:44:07.858Z</time>
      </trkpt>
      <trkpt lat="46.95149" lon="8.72693">
        <ele>1390</ele>
        <time>2021-08-06T10:44:08.858Z</time>
      </trkpt>
      <trkpt lat="46.95149" lon="8.72693">
        <ele>1390</ele>
        <time>2021-08-06T10:44:09.858Z</time>
      </trkpt>
      <trkpt lat="46.95148" lon="8.72692">
        <ele>1390</ele>
        <time>2021-08-06T10:44:10.858Z</time>
      </trkpt>
      <trkpt lat="46.95148" lon="8.72691">
        <ele>1390</ele>
        <time>2021-08-06T10:44:11.858Z</time>
      </trkpt>
      <trkpt lat="46.95147" lon="8.72691">
        <ele>1390</ele>
        <time>2021-08-06T10:44:12.857Z</time>
      </trkpt>
      <trkpt lat="46.95147" lon="8.7269">
        <ele>1390</ele>
        <time>2021-08-06T10:44:13.858Z</time>
      </trkpt>
      <trkpt lat="46.95146" lon="8.7269">
        <ele>1390</ele>
        <time>2021-08-06T10:44:14.858Z</time>
      </trkpt>
      <trkpt lat="46.95145" lon="8.72689">
        <ele>1390</ele>
        <time>2021-08-06T10:44:15.858Z</time>
      </trkpt>
      <trkpt lat="46.95145" lon="8.72688">
        <ele>1391</ele>
        <time>2021-08-06T10:44:16.858Z</time>
      </trkpt>
      <trkpt lat="46.95144" lon="8.72687">
        <ele>1392</ele>
        <time>2021-08-06T10:44:17.858Z</time>
      </trkpt>
      <trkpt lat="46.95144" lon="8.72686">
        <ele>1393</ele>
        <time>2021-08-06T10:44:18.857Z</time>
      </trkpt>
      <trkpt lat="46.95143" lon="8.72685">
        <ele>1394</ele>
        <time>2021-08-06T10:44:19.857Z</time>
      </trkpt>
      <trkpt lat="46.95143" lon="8.72685">
        <ele>1394</ele>
        <time>2021-08-06T10:44:20.857Z</time>
      </trkpt>
      <trkpt lat="46.95142" lon="8.72684">
        <ele>1394</ele>
        <time>2021-08-06T10:44:21.858Z</time>
      </trkpt>
      <trkpt lat="46.95142" lon="8.72684">
        <ele>1395</ele>
        <time>2021-08-06T10:44:22.858Z</time>
      </trkpt>
      <trkpt lat="46.95141" lon="8.72684">
        <ele>1395</ele>
        <time>2021-08-06T10:44:23.858Z</time>
      </trkpt>
      <trkpt lat="46.95141" lon="8.72683">
        <ele>1396</ele>
        <time>2021-08-06T10:44:24.857Z</time>
      </trkpt>
      <trkpt lat="46.9514" lon="8.72682">
        <ele>1396</ele>
        <time>2021-08-06T10:44:25.858Z</time>
      </trkpt>
      <trkpt lat="46.95139" lon="8.72681">
        <ele>1397</ele>
        <time>2021-08-06T10:44:26.858Z</time>
      </trkpt>
      <trkpt lat="46.95139" lon="8.72681">
        <ele>1398</ele>
        <time>2021-08-06T10:44:27.857Z</time>
      </trkpt>
      <trkpt lat="46.95138" lon="8.7268">
        <ele>1398</ele>
        <time>2021-08-06T10:44:28.858Z</time>
      </trkpt>
      <trkpt lat="46.95138" lon="8.7268">
        <ele>1399</ele>
        <time>2021-08-06T10:44:29.857Z</time>
      </trkpt>
      <trkpt lat="46.95138" lon="8.72679">
        <ele>1399</ele>
        <time>2021-08-06T10:44:30.858Z</time>
      </trkpt>
      <trkpt lat="46.95137" lon="8.72679">
        <ele>1400</ele>
        <time>2021-08-06T10:44:31.857Z</time>
      </trkpt>
      <trkpt lat="46.95137" lon="8.72678">
        <ele>1401</ele>
        <time>2021-08-06T10:44:32.857Z</time>
      </trkpt>
      <trkpt lat="46.95137" lon="8.72677">
        <ele>1402</ele>
        <time>2021-08-06T10:44:33.858Z</time>
      </trkpt>
      <trkpt lat="46.95136" lon="8.72676">
        <ele>1402</ele>
        <time>2021-08-06T10:44:34.858Z</time>
      </trkpt>
      <trkpt lat="46.95136" lon="8.72676">
        <ele>1403</ele>
        <time>2021-08-06T10:44:35.857Z</time>
      </trkpt>
      <trkpt lat="46.95135" lon="8.72676">
        <ele>1403</ele>
        <time>2021-08-06T10:44:36.858Z</time>
      </trkpt>
      <trkpt lat="46.95135" lon="8.72675">
        <ele>1403</ele>
        <time>2021-08-06T10:44:37.858Z</time>
      </trkpt>
      <trkpt lat="46.95134" lon="8.72675">
        <ele>1403</ele>
        <time>2021-08-06T10:44:38.858Z</time>
      </trkpt>
      <trkpt lat="46.95134" lon="8.72674">
        <ele>1402</ele>
        <time>2021-08-06T10:44:39.858Z</time>
      </trkpt>
      <trkpt lat="46.95133" lon="8.72674">
        <ele>1402</ele>
        <time>2021-08-06T10:44:40.857Z</time>
      </trkpt>
      <trkpt lat="46.95133" lon="8.72673">
        <ele>1402</ele>
        <time>2021-08-06T10:44:41.858Z</time>
      </trkpt>
      <trkpt lat="46.95133" lon="8.72672">
        <ele>1402</ele>
        <time>2021-08-06T10:44:42.857Z</time>
      </trkpt>
      <trkpt lat="46.95132" lon="8.72671">
        <ele>1402</ele>
        <time>2021-08-06T10:44:43.858Z</time>
      </trkpt>
      <trkpt lat="46.95132" lon="8.72671">
        <ele>1402</ele>
        <time>2021-08-06T10:44:44.857Z</time>
      </trkpt>
      <trkpt lat="46.95132" lon="8.7267">
        <ele>1403</ele>
        <time>2021-08-06T10:44:45.858Z</time>
      </trkpt>
      <trkpt lat="46.95131" lon="8.72669">
        <ele>1403</ele>
        <time>2021-08-06T10:44:46.858Z</time>
      </trkpt>
      <trkpt lat="46.9513" lon="8.72668">
        <ele>1402</ele>
        <time>2021-08-06T10:44:47.858Z</time>
      </trkpt>
      <trkpt lat="46.9513" lon="8.72668">
        <ele>1402</ele>
        <time>2021-08-06T10:44:48.858Z</time>
      </trkpt>
      <trkpt lat="46.9513" lon="8.72667">
        <ele>1402</ele>
        <time>2021-08-06T10:44:49.858Z</time>
      </trkpt>
      <trkpt lat="46.95129" lon="8.72667">
        <ele>1402</ele>
        <time>2021-08-06T10:44:50.857Z</time>
      </trkpt>
      <trkpt lat="46.95128" lon="8.72666">
        <ele>1402</ele>
        <time>2021-08-06T10:44:51.858Z</time>
      </trkpt>
      <trkpt lat="46.95127" lon="8.72666">
        <ele>1401</ele>
        <time>2021-08-06T10:44:52.858Z</time>
      </trkpt>
      <trkpt lat="46.95127" lon="8.72665">
        <ele>1401</ele>
        <time>2021-08-06T10:44:53.857Z</time>
      </trkpt>
      <trkpt lat="46.95126" lon="8.72665">
        <ele>1401</ele>
        <time>2021-08-06T10:44:54.857Z</time>
      </trkpt>
      <trkpt lat="46.95126" lon="8.72664">
        <ele>1401</ele>
        <time>2021-08-06T10:44:55.858Z</time>
      </trkpt>
      <trkpt lat="46.95125" lon="8.72664">
        <ele>1401</ele>
        <time>2021-08-06T10:44:56.857Z</time>
      </trkpt>
      <trkpt lat="46.95125" lon="8.72663">
        <ele>1401</ele>
        <time>2021-08-06T10:44:57.858Z</time>
      </trkpt>
      <trkpt lat="46.95123" lon="8.72662">
        <ele>1402</ele>
        <time>2021-08-06T10:44:58.857Z</time>
      </trkpt>
      <trkpt lat="46.95123" lon="8.72661">
        <ele>1402</ele>
        <time>2021-08-06T10:44:59.858Z</time>
      </trkpt>
      <trkpt lat="46.95123" lon="8.72659">
        <ele>1403</ele>
        <time>2021-08-06T10:45:00.858Z</time>
      </trkpt>
      <trkpt lat="46.95123" lon="8.72658">
        <ele>1403</ele>
        <time>2021-08-06T10:45:01.858Z</time>
      </trkpt>
      <trkpt lat="46.95122" lon="8.72658">
        <ele>1404</ele>
        <time>2021-08-06T10:45:02.858Z</time>
      </trkpt>
      <trkpt lat="46.95122" lon="8.72657">
        <ele>1405</ele>
        <time>2021-08-06T10:45:03.858Z</time>
      </trkpt>
      <trkpt lat="46.95121" lon="8.72656">
        <ele>1405</ele>
        <time>2021-08-06T10:45:04.858Z</time>
      </trkpt>
      <trkpt lat="46.9512" lon="8.72655">
        <ele>1406</ele>
        <time>2021-08-06T10:45:05.857Z</time>
      </trkpt>
      <trkpt lat="46.95119" lon="8.72655">
        <ele>1406</ele>
        <time>2021-08-06T10:45:06.858Z</time>
      </trkpt>
      <trkpt lat="46.95118" lon="8.72655">
        <ele>1406</ele>
        <time>2021-08-06T10:45:07.858Z</time>
      </trkpt>
      <trkpt lat="46.95117" lon="8.72655">
        <ele>1406</ele>
        <time>2021-08-06T10:45:08.858Z</time>
      </trkpt>
      <trkpt lat="46.95117" lon="8.72654">
        <ele>1406</ele>
        <time>2021-08-06T10:45:09.857Z</time>
      </trkpt>
      <trkpt lat="46.95116" lon="8.72654">
        <ele>1406</ele>
        <time>2021-08-06T10:45:10.857Z</time>
      </trkpt>
      <trkpt lat="46.95115" lon="8.72653">
        <ele>1406</ele>
        <time>2021-08-06T10:45:11.858Z</time>
      </trkpt>
      <trkpt lat="46.95115" lon="8.72653">
        <ele>1407</ele>
        <time>2021-08-06T10:45:12.857Z</time>
      </trkpt>
      <trkpt lat="46.95114" lon="8.72652">
        <ele>1407</ele>
        <time>2021-08-06T10:45:13.858Z</time>
      </trkpt>
      <trkpt lat="46.95114" lon="8.72652">
        <ele>1408</ele>
        <time>2021-08-06T10:45:14.858Z</time>
      </trkpt>
      <trkpt lat="46.95114" lon="8.72652">
        <ele>1408</ele>
        <time>2021-08-06T10:45:15.858Z</time>
      </trkpt>
      <trkpt lat="46.95113" lon="8.72651">
        <ele>1409</ele>
        <time>2021-08-06T10:45:16.858Z</time>
      </trkpt>
      <trkpt lat="46.95113" lon="8.72651">
        <ele>1409</ele>
        <time>2021-08-06T10:45:17.858Z</time>
      </trkpt>
      <trkpt lat="46.95112" lon="8.72652">
        <ele>1409</ele>
        <time>2021-08-06T10:45:18.858Z</time>
      </trkpt>
      <trkpt lat="46.95112" lon="8.72652">
        <ele>1409</ele>
        <time>2021-08-06T10:45:19.858Z</time>
      </trkpt>
      <trkpt lat="46.95111" lon="8.72652">
        <ele>1409</ele>
        <time>2021-08-06T10:45:20.858Z</time>
      </trkpt>
      <trkpt lat="46.9511" lon="8.72652">
        <ele>1409</ele>
        <time>2021-08-06T10:45:21.858Z</time>
      </trkpt>
      <trkpt lat="46.9511" lon="8.72651">
        <ele>1409</ele>
        <time>2021-08-06T10:45:22.857Z</time>
      </trkpt>
      <trkpt lat="46.95109" lon="8.72651">
        <ele>1409</ele>
        <time>2021-08-06T10:45:23.858Z</time>
      </trkpt>
      <trkpt lat="46.95108" lon="8.7265">
        <ele>1409</ele>
        <time>2021-08-06T10:45:24.858Z</time>
      </trkpt>
      <trkpt lat="46.95108" lon="8.7265">
        <ele>1410</ele>
        <time>2021-08-06T10:45:25.858Z</time>
      </trkpt>
      <trkpt lat="46.95107" lon="8.72649">
        <ele>1410</ele>
        <time>2021-08-06T10:45:26.857Z</time>
      </trkpt>
      <trkpt lat="46.95107" lon="8.72648">
        <ele>1411</ele>
        <time>2021-08-06T10:45:27.858Z</time>
      </trkpt>
      <trkpt lat="46.95106" lon="8.72647">
        <ele>1411</ele>
        <time>2021-08-06T10:45:28.857Z</time>
      </trkpt>
      <trkpt lat="46.95106" lon="8.72646">
        <ele>1411</ele>
        <time>2021-08-06T10:45:29.858Z</time>
      </trkpt>
      <trkpt lat="46.95106" lon="8.72645">
        <ele>1412</ele>
        <time>2021-08-06T10:45:30.857Z</time>
      </trkpt>
      <trkpt lat="46.95105" lon="8.72644">
        <ele>1412</ele>
        <time>2021-08-06T10:45:31.858Z</time>
      </trkpt>
      <trkpt lat="46.95105" lon="8.72644">
        <ele>1413</ele>
        <time>2021-08-06T10:45:32.858Z</time>
      </trkpt>
      <trkpt lat="46.95105" lon="8.72643">
        <ele>1413</ele>
        <time>2021-08-06T10:45:33.857Z</time>
      </trkpt>
      <trkpt lat="46.95104" lon="8.72643">
        <ele>1414</ele>
        <time>2021-08-06T10:45:34.858Z</time>
      </trkpt>
      <trkpt lat="46.95104" lon="8.72642">
        <ele>1414</ele>
        <time>2021-08-06T10:45:35.858Z</time>
      </trkpt>
      <trkpt lat="46.95103" lon="8.7264">
        <ele>1414</ele>
        <time>2021-08-06T10:45:36.857Z</time>
      </trkpt>
      <trkpt lat="46.95103" lon="8.72638">
        <ele>1414</ele>
        <time>2021-08-06T10:45:37.857Z</time>
      </trkpt>
      <trkpt lat="46.95103" lon="8.72635">
        <ele>1414</ele>
        <time>2021-08-06T10:45:38.858Z</time>
      </trkpt>
      <trkpt lat="46.95102" lon="8.72633">
        <ele>1414</ele>
        <time>2021-08-06T10:45:39.858Z</time>
      </trkpt>
      <trkpt lat="46.95101" lon="8.72633">
        <ele>1414</ele>
        <time>2021-08-06T10:45:40.858Z</time>
      </trkpt>
      <trkpt lat="46.95101" lon="8.72633">
        <ele>1414</ele>
        <time>2021-08-06T10:45:41.857Z</time>
      </trkpt>
      <trkpt lat="46.95101" lon="8.72632">
        <ele>1414</ele>
        <time>2021-08-06T10:45:42.858Z</time>
      </trkpt>
      <trkpt lat="46.95101" lon="8.72631">
        <ele>1414</ele>
        <time>2021-08-06T10:45:43.858Z</time>
      </trkpt>
      <trkpt lat="46.95101" lon="8.7263">
        <ele>1413</ele>
        <time>2021-08-06T10:45:44.858Z</time>
      </trkpt>
      <trkpt lat="46.951" lon="8.7263">
        <ele>1413</ele>
        <time>2021-08-06T10:45:45.858Z</time>
      </trkpt>
      <trkpt lat="46.951" lon="8.72629">
        <ele>1412</ele>
        <time>2021-08-06T10:45:46.858Z</time>
      </trkpt>
      <trkpt lat="46.951" lon="8.72629">
        <ele>1411</ele>
        <time>2021-08-06T10:45:47.857Z</time>
      </trkpt>
      <trkpt lat="46.95099" lon="8.72629">
        <ele>1411</ele>
        <time>2021-08-06T10:45:48.858Z</time>
      </trkpt>
      <trkpt lat="46.95099" lon="8.72629">
        <ele>1410</ele>
        <time>2021-08-06T10:45:49.857Z</time>
      </trkpt>
      <trkpt lat="46.95098" lon="8.72628">
        <ele>1410</ele>
        <time>2021-08-06T10:45:50.857Z</time>
      </trkpt>
      <trkpt lat="46.95098" lon="8.72628">
        <ele>1410</ele>
        <time>2021-08-06T10:45:51.858Z</time>
      </trkpt>
      <trkpt lat="46.95097" lon="8.72627">
        <ele>1409</ele>
        <time>2021-08-06T10:45:52.858Z</time>
      </trkpt>
      <trkpt lat="46.95097" lon="8.72627">
        <ele>1409</ele>
        <time>2021-08-06T10:45:53.858Z</time>
      </trkpt>
      <trkpt lat="46.95097" lon="8.72627">
        <ele>1408</ele>
        <time>2021-08-06T10:45:54.858Z</time>
      </trkpt>
      <trkpt lat="46.95097" lon="8.72626">
        <ele>1408</ele>
        <time>2021-08-06T10:45:55.858Z</time>
      </trkpt>
      <trkpt lat="46.95096" lon="8.72625">
        <ele>1407</ele>
        <time>2021-08-06T10:45:56.858Z</time>
      </trkpt>
      <trkpt lat="46.95095" lon="8.72625">
        <ele>1407</ele>
        <time>2021-08-06T10:45:57.858Z</time>
      </trkpt>
      <trkpt lat="46.95095" lon="8.72625">
        <ele>1407</ele>
        <time>2021-08-06T10:45:58.858Z</time>
      </trkpt>
      <trkpt lat="46.95095" lon="8.72624">
        <ele>1407</ele>
        <time>2021-08-06T10:45:59.858Z</time>
      </trkpt>
      <trkpt lat="46.95094" lon="8.72624">
        <ele>1408</ele>
        <time>2021-08-06T10:46:00.857Z</time>
      </trkpt>
      <trkpt lat="46.95094" lon="8.72623">
        <ele>1408</ele>
        <time>2021-08-06T10:46:01.857Z</time>
      </trkpt>
      <trkpt lat="46.95094" lon="8.72622">
        <ele>1409</ele>
        <time>2021-08-06T10:46:02.858Z</time>
      </trkpt>
      <trkpt lat="46.95093" lon="8.7262">
        <ele>1409</ele>
        <time>2021-08-06T10:46:03.858Z</time>
      </trkpt>
      <trkpt lat="46.95091" lon="8.72619">
        <ele>1409</ele>
        <time>2021-08-06T10:46:04.857Z</time>
      </trkpt>
      <trkpt lat="46.95091" lon="8.72619">
        <ele>1409</ele>
        <time>2021-08-06T10:46:05.857Z</time>
      </trkpt>
      <trkpt lat="46.95091" lon="8.72617">
        <ele>1409</ele>
        <time>2021-08-06T10:46:06.858Z</time>
      </trkpt>
      <trkpt lat="46.9509" lon="8.72617">
        <ele>1410</ele>
        <time>2021-08-06T10:46:07.858Z</time>
      </trkpt>
      <trkpt lat="46.95089" lon="8.72615">
        <ele>1410</ele>
        <time>2021-08-06T10:46:08.858Z</time>
      </trkpt>
      <trkpt lat="46.95089" lon="8.72614">
        <ele>1411</ele>
        <time>2021-08-06T10:46:09.857Z</time>
      </trkpt>
      <trkpt lat="46.95088" lon="8.72613">
        <ele>1411</ele>
        <time>2021-08-06T10:46:10.858Z</time>
      </trkpt>
      <trkpt lat="46.95088" lon="8.72612">
        <ele>1412</ele>
        <time>2021-08-06T10:46:11.858Z</time>
      </trkpt>
      <trkpt lat="46.95088" lon="8.72611">
        <ele>1412</ele>
        <time>2021-08-06T10:46:12.858Z</time>
      </trkpt>
      <trkpt lat="46.95088" lon="8.72611">
        <ele>1412</ele>
        <time>2021-08-06T10:46:13.858Z</time>
      </trkpt>
      <trkpt lat="46.95088" lon="8.7261">
        <ele>1413</ele>
        <time>2021-08-06T10:46:14.857Z</time>
      </trkpt>
      <trkpt lat="46.95087" lon="8.7261">
        <ele>1413</ele>
        <time>2021-08-06T10:46:15.857Z</time>
      </trkpt>
      <trkpt lat="46.95086" lon="8.72609">
        <ele>1413</ele>
        <time>2021-08-06T10:46:16.858Z</time>
      </trkpt>
      <trkpt lat="46.95085" lon="8.72609">
        <ele>1413</ele>
        <time>2021-08-06T10:46:17.857Z</time>
      </trkpt>
      <trkpt lat="46.95085" lon="8.72608">
        <ele>1414</ele>
        <time>2021-08-06T10:46:18.858Z</time>
      </trkpt>
      <trkpt lat="46.95084" lon="8.72607">
        <ele>1414</ele>
        <time>2021-08-06T10:46:19.858Z</time>
      </trkpt>
      <trkpt lat="46.95084" lon="8.72606">
        <ele>1414</ele>
        <time>2021-08-06T10:46:20.857Z</time>
      </trkpt>
      <trkpt lat="46.95084" lon="8.72606">
        <ele>1415</ele>
        <time>2021-08-06T10:46:21.858Z</time>
      </trkpt>
      <trkpt lat="46.95084" lon="8.72605">
        <ele>1416</ele>
        <time>2021-08-06T10:46:22.858Z</time>
      </trkpt>
      <trkpt lat="46.95083" lon="8.72604">
        <ele>1416</ele>
        <time>2021-08-06T10:46:23.858Z</time>
      </trkpt>
      <trkpt lat="46.95083" lon="8.72603">
        <ele>1416</ele>
        <time>2021-08-06T10:46:24.857Z</time>
      </trkpt>
      <trkpt lat="46.95083" lon="8.72602">
        <ele>1417</ele>
        <time>2021-08-06T10:46:25.858Z</time>
      </trkpt>
      <trkpt lat="46.95082" lon="8.72602">
        <ele>1417</ele>
        <time>2021-08-06T10:46:26.857Z</time>
      </trkpt>
      <trkpt lat="46.95082" lon="8.72601">
        <ele>1416</ele>
        <time>2021-08-06T10:46:27.858Z</time>
      </trkpt>
      <trkpt lat="46.95082" lon="8.72601">
        <ele>1416</ele>
        <time>2021-08-06T10:46:28.857Z</time>
      </trkpt>
      <trkpt lat="46.95082" lon="8.726">
        <ele>1416</ele>
        <time>2021-08-06T10:46:29.858Z</time>
      </trkpt>
      <trkpt lat="46.95081" lon="8.72599">
        <ele>1416</ele>
        <time>2021-08-06T10:46:30.857Z</time>
      </trkpt>
      <trkpt lat="46.95081" lon="8.72598">
        <ele>1416</ele>
        <time>2021-08-06T10:46:31.858Z</time>
      </trkpt>
      <trkpt lat="46.9508" lon="8.72597">
        <ele>1417</ele>
        <time>2021-08-06T10:46:32.858Z</time>
      </trkpt>
      <trkpt lat="46.9508" lon="8.72596">
        <ele>1417</ele>
        <time>2021-08-06T10:46:33.858Z</time>
      </trkpt>
      <trkpt lat="46.9508" lon="8.72595">
        <ele>1417</ele>
        <time>2021-08-06T10:46:34.857Z</time>
      </trkpt>
      <trkpt lat="46.9508" lon="8.72595">
        <ele>1418</ele>
        <time>2021-08-06T10:46:35.857Z</time>
      </trkpt>
      <trkpt lat="46.95079" lon="8.72594">
        <ele>1417</ele>
        <time>2021-08-06T10:46:36.858Z</time>
      </trkpt>
      <trkpt lat="46.95078" lon="8.72593">
        <ele>1417</ele>
        <time>2021-08-06T10:46:37.858Z</time>
      </trkpt>
      <trkpt lat="46.95078" lon="8.72593">
        <ele>1417</ele>
        <time>2021-08-06T10:46:38.857Z</time>
      </trkpt>
      <trkpt lat="46.95078" lon="8.72591">
        <ele>1417</ele>
        <time>2021-08-06T10:46:39.858Z</time>
      </trkpt>
      <trkpt lat="46.95078" lon="8.7259">
        <ele>1417</ele>
        <time>2021-08-06T10:46:40.857Z</time>
      </trkpt>
      <trkpt lat="46.95078" lon="8.72588">
        <ele>1417</ele>
        <time>2021-08-06T10:46:41.858Z</time>
      </trkpt>
      <trkpt lat="46.95078" lon="8.72586">
        <ele>1416</ele>
        <time>2021-08-06T10:46:42.857Z</time>
      </trkpt>
      <trkpt lat="46.95078" lon="8.72585">
        <ele>1416</ele>
        <time>2021-08-06T10:46:43.858Z</time>
      </trkpt>
      <trkpt lat="46.95078" lon="8.72584">
        <ele>1416</ele>
        <time>2021-08-06T10:46:44.858Z</time>
      </trkpt>
      <trkpt lat="46.95078" lon="8.72583">
        <ele>1415</ele>
        <time>2021-08-06T10:46:45.858Z</time>
      </trkpt>
      <trkpt lat="46.95077" lon="8.72583">
        <ele>1415</ele>
        <time>2021-08-06T10:46:46.857Z</time>
      </trkpt>
      <trkpt lat="46.95077" lon="8.72582">
        <ele>1416</ele>
        <time>2021-08-06T10:46:47.858Z</time>
      </trkpt>
      <trkpt lat="46.95076" lon="8.72582">
        <ele>1416</ele>
        <time>2021-08-06T10:46:48.858Z</time>
      </trkpt>
      <trkpt lat="46.95076" lon="8.72581">
        <ele>1416</ele>
        <time>2021-08-06T10:46:49.858Z</time>
      </trkpt>
      <trkpt lat="46.95075" lon="8.7258">
        <ele>1416</ele>
        <time>2021-08-06T10:46:50.858Z</time>
      </trkpt>
      <trkpt lat="46.95074" lon="8.7258">
        <ele>1417</ele>
        <time>2021-08-06T10:46:51.858Z</time>
      </trkpt>
      <trkpt lat="46.95074" lon="8.7258">
        <ele>1417</ele>
        <time>2021-08-06T10:46:52.858Z</time>
      </trkpt>
      <trkpt lat="46.95073" lon="8.72579">
        <ele>1416</ele>
        <time>2021-08-06T10:46:53.858Z</time>
      </trkpt>
      <trkpt lat="46.95073" lon="8.72579">
        <ele>1416</ele>
        <time>2021-08-06T10:46:54.857Z</time>
      </trkpt>
      <trkpt lat="46.95073" lon="8.72578">
        <ele>1416</ele>
        <time>2021-08-06T10:46:55.857Z</time>
      </trkpt>
      <trkpt lat="46.95073" lon="8.72585">
        <ele>1414</ele>
        <time>2021-08-06T10:46:56.857Z</time>
      </trkpt>
      <trkpt lat="46.95073" lon="8.72585">
        <ele>1414</ele>
        <time>2021-08-06T10:46:57.858Z</time>
      </trkpt>
      <trkpt lat="46.95073" lon="8.72584">
        <ele>1414</ele>
        <time>2021-08-06T10:46:58.857Z</time>
      </trkpt>
      <trkpt lat="46.95072" lon="8.72582">
        <ele>1414</ele>
        <time>2021-08-06T10:46:59.858Z</time>
      </trkpt>
      <trkpt lat="46.95072" lon="8.72581">
        <ele>1414</ele>
        <time>2021-08-06T10:47:00.858Z</time>
      </trkpt>
      <trkpt lat="46.95072" lon="8.72581">
        <ele>1413</ele>
        <time>2021-08-06T10:47:01.858Z</time>
      </trkpt>
      <trkpt lat="46.95072" lon="8.7258">
        <ele>1413</ele>
        <time>2021-08-06T10:47:02.859Z</time>
      </trkpt>
      <trkpt lat="46.95071" lon="8.72579">
        <ele>1413</ele>
        <time>2021-08-06T10:47:03.859Z</time>
      </trkpt>
      <trkpt lat="46.9507" lon="8.72579">
        <ele>1414</ele>
        <time>2021-08-06T10:47:04.859Z</time>
      </trkpt>
      <trkpt lat="46.95069" lon="8.72577">
        <ele>1414</ele>
        <time>2021-08-06T10:47:05.858Z</time>
      </trkpt>
      <trkpt lat="46.95069" lon="8.72576">
        <ele>1415</ele>
        <time>2021-08-06T10:47:06.858Z</time>
      </trkpt>
      <trkpt lat="46.95068" lon="8.72575">
        <ele>1415</ele>
        <time>2021-08-06T10:47:07.859Z</time>
      </trkpt>
      <trkpt lat="46.95067" lon="8.72574">
        <ele>1416</ele>
        <time>2021-08-06T10:47:08.858Z</time>
      </trkpt>
      <trkpt lat="46.95066" lon="8.72574">
        <ele>1417</ele>
        <time>2021-08-06T10:47:09.859Z</time>
      </trkpt>
      <trkpt lat="46.95066" lon="8.72573">
        <ele>1418</ele>
        <time>2021-08-06T10:47:10.858Z</time>
      </trkpt>
      <trkpt lat="46.95066" lon="8.72572">
        <ele>1418</ele>
        <time>2021-08-06T10:47:11.858Z</time>
      </trkpt>
      <trkpt lat="46.95065" lon="8.72572">
        <ele>1418</ele>
        <time>2021-08-06T10:47:12.858Z</time>
      </trkpt>
      <trkpt lat="46.95064" lon="8.72572">
        <ele>1418</ele>
        <time>2021-08-06T10:47:20.008Z</time>
      </trkpt>
      <trkpt lat="46.95063" lon="8.72572">
        <ele>1418</ele>
        <time>2021-08-06T10:47:21.009Z</time>
      </trkpt>
      <trkpt lat="46.95063" lon="8.72572">
        <ele>1417</ele>
        <time>2021-08-06T10:47:22.008Z</time>
      </trkpt>
      <trkpt lat="46.95062" lon="8.72572">
        <ele>1417</ele>
        <time>2021-08-06T10:47:23.008Z</time>
      </trkpt>
      <trkpt lat="46.95062" lon="8.72572">
        <ele>1417</ele>
        <time>2021-08-06T10:47:24.008Z</time>
      </trkpt>
      <trkpt lat="46.95061" lon="8.72571">
        <ele>1417</ele>
        <time>2021-08-06T10:47:25.009Z</time>
      </trkpt>
      <trkpt lat="46.95061" lon="8.7257">
        <ele>1417</ele>
        <time>2021-08-06T10:47:26.009Z</time>
      </trkpt>
      <trkpt lat="46.9506" lon="8.72569">
        <ele>1417</ele>
        <time>2021-08-06T10:47:27.009Z</time>
      </trkpt>
      <trkpt lat="46.9506" lon="8.72568">
        <ele>1416</ele>
        <time>2021-08-06T10:47:28.008Z</time>
      </trkpt>
      <trkpt lat="46.95059" lon="8.72568">
        <ele>1416</ele>
        <time>2021-08-06T10:47:29.009Z</time>
      </trkpt>
      <trkpt lat="46.95059" lon="8.72567">
        <ele>1416</ele>
        <time>2021-08-06T10:47:30.009Z</time>
      </trkpt>
      <trkpt lat="46.95058" lon="8.72566">
        <ele>1416</ele>
        <time>2021-08-06T10:47:31.009Z</time>
      </trkpt>
      <trkpt lat="46.95058" lon="8.72565">
        <ele>1416</ele>
        <time>2021-08-06T10:47:32.008Z</time>
      </trkpt>
      <trkpt lat="46.95057" lon="8.72565">
        <ele>1416</ele>
        <time>2021-08-06T10:47:33.009Z</time>
      </trkpt>
      <trkpt lat="46.95057" lon="8.72564">
        <ele>1415</ele>
        <time>2021-08-06T10:47:34.009Z</time>
      </trkpt>
      <trkpt lat="46.95057" lon="8.72563">
        <ele>1415</ele>
        <time>2021-08-06T10:47:35.008Z</time>
      </trkpt>
      <trkpt lat="46.95056" lon="8.72563">
        <ele>1415</ele>
        <time>2021-08-06T10:47:36.009Z</time>
      </trkpt>
      <trkpt lat="46.95056" lon="8.72562">
        <ele>1415</ele>
        <time>2021-08-06T10:47:37.009Z</time>
      </trkpt>
      <trkpt lat="46.95055" lon="8.72561">
        <ele>1415</ele>
        <time>2021-08-06T10:47:38.009Z</time>
      </trkpt>
      <trkpt lat="46.95055" lon="8.7256">
        <ele>1415</ele>
        <time>2021-08-06T10:47:39.009Z</time>
      </trkpt>
      <trkpt lat="46.95054" lon="8.72559">
        <ele>1415</ele>
        <time>2021-08-06T10:47:40.009Z</time>
      </trkpt>
      <trkpt lat="46.95054" lon="8.72558">
        <ele>1416</ele>
        <time>2021-08-06T10:47:41.008Z</time>
      </trkpt>
      <trkpt lat="46.95053" lon="8.72557">
        <ele>1417</ele>
        <time>2021-08-06T10:47:42.008Z</time>
      </trkpt>
      <trkpt lat="46.95053" lon="8.72557">
        <ele>1417</ele>
        <time>2021-08-06T10:47:43.008Z</time>
      </trkpt>
      <trkpt lat="46.95053" lon="8.72556">
        <ele>1417</ele>
        <time>2021-08-06T10:47:44.008Z</time>
      </trkpt>
      <trkpt lat="46.95053" lon="8.72555">
        <ele>1417</ele>
        <time>2021-08-06T10:47:45.008Z</time>
      </trkpt>
      <trkpt lat="46.95052" lon="8.72554">
        <ele>1417</ele>
        <time>2021-08-06T10:47:46.008Z</time>
      </trkpt>
      <trkpt lat="46.95052" lon="8.72553">
        <ele>1418</ele>
        <time>2021-08-06T10:47:47.008Z</time>
      </trkpt>
      <trkpt lat="46.95051" lon="8.72552">
        <ele>1417</ele>
        <time>2021-08-06T10:47:48.008Z</time>
      </trkpt>
      <trkpt lat="46.95051" lon="8.72551">
        <ele>1417</ele>
        <time>2021-08-06T10:47:49.008Z</time>
      </trkpt>
      <trkpt lat="46.95051" lon="8.72551">
        <ele>1416</ele>
        <time>2021-08-06T10:47:50.009Z</time>
      </trkpt>
      <trkpt lat="46.95051" lon="8.7255">
        <ele>1416</ele>
        <time>2021-08-06T10:47:51.008Z</time>
      </trkpt>
      <trkpt lat="46.95051" lon="8.72549">
        <ele>1416</ele>
        <time>2021-08-06T10:47:52.009Z</time>
      </trkpt>
      <trkpt lat="46.95051" lon="8.72548">
        <ele>1416</ele>
        <time>2021-08-06T10:47:53.009Z</time>
      </trkpt>
      <trkpt lat="46.9505" lon="8.72547">
        <ele>1417</ele>
        <time>2021-08-06T10:47:54.009Z</time>
      </trkpt>
      <trkpt lat="46.95051" lon="8.72544">
        <ele>1417</ele>
        <time>2021-08-06T10:47:55.008Z</time>
      </trkpt>
      <trkpt lat="46.9505" lon="8.72543">
        <ele>1417</ele>
        <time>2021-08-06T10:47:56.008Z</time>
      </trkpt>
      <trkpt lat="46.9505" lon="8.72542">
        <ele>1417</ele>
        <time>2021-08-06T10:47:57.008Z</time>
      </trkpt>
      <trkpt lat="46.9505" lon="8.7254">
        <ele>1417</ele>
        <time>2021-08-06T10:47:58.008Z</time>
      </trkpt>
      <trkpt lat="46.95049" lon="8.7254">
        <ele>1417</ele>
        <time>2021-08-06T10:47:59.009Z</time>
      </trkpt>
      <trkpt lat="46.95049" lon="8.72539">
        <ele>1417</ele>
        <time>2021-08-06T10:48:00.009Z</time>
      </trkpt>
      <trkpt lat="46.95048" lon="8.72538">
        <ele>1418</ele>
        <time>2021-08-06T10:48:01.009Z</time>
      </trkpt>
      <trkpt lat="46.95049" lon="8.72536">
        <ele>1418</ele>
        <time>2021-08-06T10:48:02.008Z</time>
      </trkpt>
      <trkpt lat="46.95048" lon="8.72535">
        <ele>1418</ele>
        <time>2021-08-06T10:48:03.009Z</time>
      </trkpt>
      <trkpt lat="46.95047" lon="8.72535">
        <ele>1418</ele>
        <time>2021-08-06T10:48:04.009Z</time>
      </trkpt>
      <trkpt lat="46.95047" lon="8.72534">
        <ele>1418</ele>
        <time>2021-08-06T10:48:05.009Z</time>
      </trkpt>
      <trkpt lat="46.95046" lon="8.72533">
        <ele>1418</ele>
        <time>2021-08-06T10:48:06.008Z</time>
      </trkpt>
      <trkpt lat="46.95046" lon="8.72531">
        <ele>1418</ele>
        <time>2021-08-06T10:48:07.008Z</time>
      </trkpt>
      <trkpt lat="46.95046" lon="8.7253">
        <ele>1418</ele>
        <time>2021-08-06T10:48:08.009Z</time>
      </trkpt>
      <trkpt lat="46.95045" lon="8.72529">
        <ele>1418</ele>
        <time>2021-08-06T10:48:09.008Z</time>
      </trkpt>
      <trkpt lat="46.95044" lon="8.72528">
        <ele>1419</ele>
        <time>2021-08-06T10:48:10.008Z</time>
      </trkpt>
      <trkpt lat="46.95043" lon="8.72528">
        <ele>1419</ele>
        <time>2021-08-06T10:48:11.008Z</time>
      </trkpt>
      <trkpt lat="46.95042" lon="8.72528">
        <ele>1420</ele>
        <time>2021-08-06T10:48:12.009Z</time>
      </trkpt>
      <trkpt lat="46.95042" lon="8.72528">
        <ele>1421</ele>
        <time>2021-08-06T10:48:13.008Z</time>
      </trkpt>
      <trkpt lat="46.95041" lon="8.72527">
        <ele>1421</ele>
        <time>2021-08-06T10:48:14.009Z</time>
      </trkpt>
      <trkpt lat="46.95041" lon="8.72526">
        <ele>1422</ele>
        <time>2021-08-06T10:48:15.009Z</time>
      </trkpt>
      <trkpt lat="46.9504" lon="8.72525">
        <ele>1422</ele>
        <time>2021-08-06T10:48:16.008Z</time>
      </trkpt>
      <trkpt lat="46.9504" lon="8.72524">
        <ele>1422</ele>
        <time>2021-08-06T10:48:17.009Z</time>
      </trkpt>
      <trkpt lat="46.95039" lon="8.72524">
        <ele>1423</ele>
        <time>2021-08-06T10:48:18.008Z</time>
      </trkpt>
      <trkpt lat="46.95039" lon="8.72523">
        <ele>1422</ele>
        <time>2021-08-06T10:48:19.009Z</time>
      </trkpt>
      <trkpt lat="46.95038" lon="8.72522">
        <ele>1422</ele>
        <time>2021-08-06T10:48:20.008Z</time>
      </trkpt>
      <trkpt lat="46.95038" lon="8.72522">
        <ele>1422</ele>
        <time>2021-08-06T10:48:21.008Z</time>
      </trkpt>
      <trkpt lat="46.95037" lon="8.72522">
        <ele>1421</ele>
        <time>2021-08-06T10:48:22.009Z</time>
      </trkpt>
      <trkpt lat="46.95036" lon="8.72521">
        <ele>1421</ele>
        <time>2021-08-06T10:48:23.008Z</time>
      </trkpt>
      <trkpt lat="46.95035" lon="8.7252">
        <ele>1420</ele>
        <time>2021-08-06T10:48:24.008Z</time>
      </trkpt>
      <trkpt lat="46.95035" lon="8.7252">
        <ele>1420</ele>
        <time>2021-08-06T10:48:25.008Z</time>
      </trkpt>
      <trkpt lat="46.95034" lon="8.72519">
        <ele>1420</ele>
        <time>2021-08-06T10:48:26.009Z</time>
      </trkpt>
      <trkpt lat="46.95033" lon="8.72518">
        <ele>1421</ele>
        <time>2021-08-06T10:48:27.008Z</time>
      </trkpt>
      <trkpt lat="46.95032" lon="8.72518">
        <ele>1421</ele>
        <time>2021-08-06T10:48:28.009Z</time>
      </trkpt>
      <trkpt lat="46.95031" lon="8.72518">
        <ele>1422</ele>
        <time>2021-08-06T10:48:29.008Z</time>
      </trkpt>
      <trkpt lat="46.9503" lon="8.72518">
        <ele>1423</ele>
        <time>2021-08-06T10:48:30.009Z</time>
      </trkpt>
      <trkpt lat="46.9503" lon="8.72518">
        <ele>1424</ele>
        <time>2021-08-06T10:48:45.129Z</time>
      </trkpt>
      <trkpt lat="46.95029" lon="8.72517">
        <ele>1424</ele>
        <time>2021-08-06T10:48:46.129Z</time>
      </trkpt>
      <trkpt lat="46.95028" lon="8.72517">
        <ele>1425</ele>
        <time>2021-08-06T10:48:48.972Z</time>
      </trkpt>
      <trkpt lat="46.95027" lon="8.72516">
        <ele>1426</ele>
        <time>2021-08-06T10:48:49.971Z</time>
      </trkpt>
      <trkpt lat="46.95026" lon="8.72517">
        <ele>1427</ele>
        <time>2021-08-06T10:48:50.972Z</time>
      </trkpt>
      <trkpt lat="46.95025" lon="8.72517">
        <ele>1428</ele>
        <time>2021-08-06T10:48:51.972Z</time>
      </trkpt>
      <trkpt lat="46.95025" lon="8.72516">
        <ele>1429</ele>
        <time>2021-08-06T10:48:52.972Z</time>
      </trkpt>
      <trkpt lat="46.95024" lon="8.72516">
        <ele>1429</ele>
        <time>2021-08-06T10:48:53.971Z</time>
      </trkpt>
      <trkpt lat="46.95023" lon="8.72515">
        <ele>1429</ele>
        <time>2021-08-06T10:48:54.971Z</time>
      </trkpt>
      <trkpt lat="46.95022" lon="8.72513">
        <ele>1430</ele>
        <time>2021-08-06T10:48:55.972Z</time>
      </trkpt>
      <trkpt lat="46.95022" lon="8.72513">
        <ele>1430</ele>
        <time>2021-08-06T10:48:56.972Z</time>
      </trkpt>
      <trkpt lat="46.95021" lon="8.72513">
        <ele>1431</ele>
        <time>2021-08-06T10:48:57.971Z</time>
      </trkpt>
      <trkpt lat="46.95019" lon="8.72513">
        <ele>1432</ele>
        <time>2021-08-06T10:48:58.971Z</time>
      </trkpt>
      <trkpt lat="46.95019" lon="8.72513">
        <ele>1433</ele>
        <time>2021-08-06T10:48:59.972Z</time>
      </trkpt>
      <trkpt lat="46.95018" lon="8.72513">
        <ele>1433</ele>
        <time>2021-08-06T10:49:00.972Z</time>
      </trkpt>
      <trkpt lat="46.95018" lon="8.72514">
        <ele>1433</ele>
        <time>2021-08-06T10:49:01.972Z</time>
      </trkpt>
      <trkpt lat="46.95018" lon="8.72514">
        <ele>1434</ele>
        <time>2021-08-06T10:49:02.971Z</time>
      </trkpt>
      <trkpt lat="46.95017" lon="8.72513">
        <ele>1433</ele>
        <time>2021-08-06T10:49:03.972Z</time>
      </trkpt>
      <trkpt lat="46.95017" lon="8.72512">
        <ele>1433</ele>
        <time>2021-08-06T10:49:04.972Z</time>
      </trkpt>
      <trkpt lat="46.95016" lon="8.72512">
        <ele>1433</ele>
        <time>2021-08-06T10:49:05.971Z</time>
      </trkpt>
      <trkpt lat="46.95015" lon="8.72511">
        <ele>1433</ele>
        <time>2021-08-06T10:49:06.971Z</time>
      </trkpt>
      <trkpt lat="46.95014" lon="8.72511">
        <ele>1432</ele>
        <time>2021-08-06T10:49:07.971Z</time>
      </trkpt>
      <trkpt lat="46.95014" lon="8.7251">
        <ele>1432</ele>
        <time>2021-08-06T10:49:08.972Z</time>
      </trkpt>
      <trkpt lat="46.95013" lon="8.72509">
        <ele>1431</ele>
        <time>2021-08-06T10:49:09.972Z</time>
      </trkpt>
      <trkpt lat="46.95013" lon="8.72509">
        <ele>1431</ele>
        <time>2021-08-06T10:49:10.972Z</time>
      </trkpt>
      <trkpt lat="46.95012" lon="8.7251">
        <ele>1432</ele>
        <time>2021-08-06T10:49:11.971Z</time>
      </trkpt>
      <trkpt lat="46.95009" lon="8.72515">
        <ele>1430</ele>
        <time>2021-08-06T10:49:12.971Z</time>
      </trkpt>
      <trkpt lat="46.95005" lon="8.72513">
        <ele>1430</ele>
        <time>2021-08-06T10:49:13.972Z</time>
      </trkpt>
      <trkpt lat="46.95005" lon="8.72512">
        <ele>1430</ele>
        <time>2021-08-06T10:49:14.972Z</time>
      </trkpt>
      <trkpt lat="46.95006" lon="8.72512">
        <ele>1430</ele>
        <time>2021-08-06T10:49:15.973Z</time>
      </trkpt>
      <trkpt lat="46.95007" lon="8.72512">
        <ele>1430</ele>
        <time>2021-08-06T10:49:16.973Z</time>
      </trkpt>
      <trkpt lat="46.95008" lon="8.72512">
        <ele>1431</ele>
        <time>2021-08-06T10:49:17.972Z</time>
      </trkpt>
      <trkpt lat="46.95011" lon="8.72511">
        <ele>1440</ele>
        <time>2021-08-06T10:49:18.973Z</time>
      </trkpt>
      <trkpt lat="46.95011" lon="8.72511">
        <ele>1440</ele>
        <time>2021-08-06T10:49:19.973Z</time>
      </trkpt>
      <trkpt lat="46.9501" lon="8.72508">
        <ele>1445</ele>
        <time>2021-08-06T10:49:20.972Z</time>
      </trkpt>
      <trkpt lat="46.95011" lon="8.72509">
        <ele>1445</ele>
        <time>2021-08-06T10:49:21.972Z</time>
      </trkpt>
      <trkpt lat="46.95011" lon="8.72509">
        <ele>1446</ele>
        <time>2021-08-06T10:49:22.973Z</time>
      </trkpt>
      <trkpt lat="46.95011" lon="8.72509">
        <ele>1446</ele>
        <time>2021-08-06T10:49:23.972Z</time>
      </trkpt>
      <trkpt lat="46.9501" lon="8.72508">
        <ele>1446</ele>
        <time>2021-08-06T10:49:24.973Z</time>
      </trkpt>
      <trkpt lat="46.95009" lon="8.72507">
        <ele>1446</ele>
        <time>2021-08-06T10:49:25.972Z</time>
      </trkpt>
      <trkpt lat="46.95009" lon="8.72507">
        <ele>1447</ele>
        <time>2021-08-06T10:49:26.972Z</time>
      </trkpt>
      <trkpt lat="46.95009" lon="8.72507">
        <ele>1450</ele>
        <time>2021-08-06T10:49:27.974Z</time>
      </trkpt>
      <trkpt lat="46.95009" lon="8.72507">
        <ele>1449</ele>
        <time>2021-08-06T10:49:28.973Z</time>
      </trkpt>
      <trkpt lat="46.9501" lon="8.72506">
        <ele>1448</ele>
        <time>2021-08-06T10:49:29.974Z</time>
      </trkpt>
      <trkpt lat="46.9501" lon="8.72506">
        <ele>1447</ele>
        <time>2021-08-06T10:49:30.974Z</time>
      </trkpt>
      <trkpt lat="46.9501" lon="8.72505">
        <ele>1445</ele>
        <time>2021-08-06T10:49:31.974Z</time>
      </trkpt>
      <trkpt lat="46.9501" lon="8.72505">
        <ele>1444</ele>
        <time>2021-08-06T10:49:32.973Z</time>
      </trkpt>
      <trkpt lat="46.95009" lon="8.72504">
        <ele>1444</ele>
        <time>2021-08-06T10:49:33.973Z</time>
      </trkpt>
      <trkpt lat="46.95008" lon="8.72504">
        <ele>1443</ele>
        <time>2021-08-06T10:49:34.974Z</time>
      </trkpt>
      <trkpt lat="46.95007" lon="8.72504">
        <ele>1443</ele>
        <time>2021-08-06T10:49:35.974Z</time>
      </trkpt>
      <trkpt lat="46.95006" lon="8.72503">
        <ele>1443</ele>
        <time>2021-08-06T10:49:36.974Z</time>
      </trkpt>
      <trkpt lat="46.95005" lon="8.72503">
        <ele>1442</ele>
        <time>2021-08-06T10:49:37.974Z</time>
      </trkpt>
      <trkpt lat="46.95005" lon="8.72503">
        <ele>1442</ele>
        <time>2021-08-06T10:49:38.974Z</time>
      </trkpt>
      <trkpt lat="46.95004" lon="8.72503">
        <ele>1441</ele>
        <time>2021-08-06T10:49:39.974Z</time>
      </trkpt>
      <trkpt lat="46.95002" lon="8.72502">
        <ele>1440</ele>
        <time>2021-08-06T10:49:40.974Z</time>
      </trkpt>
      <trkpt lat="46.95001" lon="8.725">
        <ele>1440</ele>
        <time>2021-08-06T10:49:41.974Z</time>
      </trkpt>
      <trkpt lat="46.95" lon="8.72498">
        <ele>1439</ele>
        <time>2021-08-06T10:49:42.974Z</time>
      </trkpt>
      <trkpt lat="46.95" lon="8.72498">
        <ele>1438</ele>
        <time>2021-08-06T10:49:43.974Z</time>
      </trkpt>
      <trkpt lat="46.94999" lon="8.72498">
        <ele>1437</ele>
        <time>2021-08-06T10:49:44.974Z</time>
      </trkpt>
      <trkpt lat="46.94998" lon="8.72497">
        <ele>1437</ele>
        <time>2021-08-06T10:49:45.974Z</time>
      </trkpt>
      <trkpt lat="46.94997" lon="8.72496">
        <ele>1436</ele>
        <time>2021-08-06T10:49:46.974Z</time>
      </trkpt>
      <trkpt lat="46.94997" lon="8.72495">
        <ele>1436</ele>
        <time>2021-08-06T10:49:47.973Z</time>
      </trkpt>
      <trkpt lat="46.94996" lon="8.72494">
        <ele>1436</ele>
        <time>2021-08-06T10:49:48.974Z</time>
      </trkpt>
      <trkpt lat="46.94995" lon="8.72493">
        <ele>1436</ele>
        <time>2021-08-06T10:49:49.974Z</time>
      </trkpt>
      <trkpt lat="46.94994" lon="8.72492">
        <ele>1436</ele>
        <time>2021-08-06T10:49:50.973Z</time>
      </trkpt>
      <trkpt lat="46.94994" lon="8.72491">
        <ele>1435</ele>
        <time>2021-08-06T10:49:51.973Z</time>
      </trkpt>
      <trkpt lat="46.94993" lon="8.7249">
        <ele>1435</ele>
        <time>2021-08-06T10:49:52.973Z</time>
      </trkpt>
      <trkpt lat="46.94993" lon="8.72488">
        <ele>1435</ele>
        <time>2021-08-06T10:49:53.974Z</time>
      </trkpt>
      <trkpt lat="46.94992" lon="8.72488">
        <ele>1435</ele>
        <time>2021-08-06T10:49:54.973Z</time>
      </trkpt>
      <trkpt lat="46.94991" lon="8.72487">
        <ele>1435</ele>
        <time>2021-08-06T10:49:55.973Z</time>
      </trkpt>
      <trkpt lat="46.9499" lon="8.72487">
        <ele>1435</ele>
        <time>2021-08-06T10:49:56.973Z</time>
      </trkpt>
      <trkpt lat="46.94989" lon="8.72486">
        <ele>1435</ele>
        <time>2021-08-06T10:49:57.973Z</time>
      </trkpt>
      <trkpt lat="46.94988" lon="8.72484">
        <ele>1434</ele>
        <time>2021-08-06T10:49:58.974Z</time>
      </trkpt>
      <trkpt lat="46.94987" lon="8.72482">
        <ele>1434</ele>
        <time>2021-08-06T10:49:59.974Z</time>
      </trkpt>
      <trkpt lat="46.94986" lon="8.72481">
        <ele>1434</ele>
        <time>2021-08-06T10:50:00.974Z</time>
      </trkpt>
      <trkpt lat="46.94986" lon="8.7248">
        <ele>1433</ele>
        <time>2021-08-06T10:50:01.974Z</time>
      </trkpt>
      <trkpt lat="46.94986" lon="8.72478">
        <ele>1433</ele>
        <time>2021-08-06T10:50:02.974Z</time>
      </trkpt>
      <trkpt lat="46.94986" lon="8.72477">
        <ele>1433</ele>
        <time>2021-08-06T10:50:03.973Z</time>
      </trkpt>
      <trkpt lat="46.94985" lon="8.72476">
        <ele>1433</ele>
        <time>2021-08-06T10:50:04.973Z</time>
      </trkpt>
      <trkpt lat="46.94985" lon="8.72475">
        <ele>1433</ele>
        <time>2021-08-06T10:50:05.973Z</time>
      </trkpt>
      <trkpt lat="46.94984" lon="8.72474">
        <ele>1433</ele>
        <time>2021-08-06T10:50:06.973Z</time>
      </trkpt>
      <trkpt lat="46.94983" lon="8.72473">
        <ele>1433</ele>
        <time>2021-08-06T10:50:07.974Z</time>
      </trkpt>
      <trkpt lat="46.94983" lon="8.72472">
        <ele>1432</ele>
        <time>2021-08-06T10:50:08.973Z</time>
      </trkpt>
      <trkpt lat="46.94982" lon="8.7247">
        <ele>1432</ele>
        <time>2021-08-06T10:50:09.973Z</time>
      </trkpt>
      <trkpt lat="46.94982" lon="8.72469">
        <ele>1432</ele>
        <time>2021-08-06T10:50:10.973Z</time>
      </trkpt>
      <trkpt lat="46.94982" lon="8.72467">
        <ele>1431</ele>
        <time>2021-08-06T10:50:11.973Z</time>
      </trkpt>
      <trkpt lat="46.94981" lon="8.72465">
        <ele>1430</ele>
        <time>2021-08-06T10:50:12.973Z</time>
      </trkpt>
      <trkpt lat="46.94981" lon="8.72463">
        <ele>1428</ele>
        <time>2021-08-06T10:50:13.974Z</time>
      </trkpt>
      <trkpt lat="46.9498" lon="8.72461">
        <ele>1427</ele>
        <time>2021-08-06T10:50:14.973Z</time>
      </trkpt>
      <trkpt lat="46.94979" lon="8.7246">
        <ele>1426</ele>
        <time>2021-08-06T10:50:15.973Z</time>
      </trkpt>
      <trkpt lat="46.94978" lon="8.72459">
        <ele>1425</ele>
        <time>2021-08-06T10:50:16.974Z</time>
      </trkpt>
      <trkpt lat="46.94977" lon="8.72458">
        <ele>1425</ele>
        <time>2021-08-06T10:50:17.973Z</time>
      </trkpt>
      <trkpt lat="46.94977" lon="8.72457">
        <ele>1424</ele>
        <time>2021-08-06T10:50:18.973Z</time>
      </trkpt>
      <trkpt lat="46.94976" lon="8.72455">
        <ele>1424</ele>
        <time>2021-08-06T10:50:19.973Z</time>
      </trkpt>
      <trkpt lat="46.94976" lon="8.72454">
        <ele>1423</ele>
        <time>2021-08-06T10:50:20.974Z</time>
      </trkpt>
      <trkpt lat="46.94976" lon="8.72452">
        <ele>1423</ele>
        <time>2021-08-06T10:50:21.974Z</time>
      </trkpt>
      <trkpt lat="46.94975" lon="8.72451">
        <ele>1422</ele>
        <time>2021-08-06T10:50:22.974Z</time>
      </trkpt>
      <trkpt lat="46.94974" lon="8.7245">
        <ele>1421</ele>
        <time>2021-08-06T10:50:23.973Z</time>
      </trkpt>
      <trkpt lat="46.94973" lon="8.72448">
        <ele>1420</ele>
        <time>2021-08-06T10:50:24.974Z</time>
      </trkpt>
      <trkpt lat="46.94972" lon="8.72447">
        <ele>1419</ele>
        <time>2021-08-06T10:50:25.974Z</time>
      </trkpt>
      <trkpt lat="46.94972" lon="8.72445">
        <ele>1419</ele>
        <time>2021-08-06T10:50:26.974Z</time>
      </trkpt>
      <trkpt lat="46.94972" lon="8.72444">
        <ele>1418</ele>
        <time>2021-08-06T10:50:27.973Z</time>
      </trkpt>
      <trkpt lat="46.94972" lon="8.72443">
        <ele>1418</ele>
        <time>2021-08-06T10:50:28.974Z</time>
      </trkpt>
      <trkpt lat="46.94971" lon="8.72441">
        <ele>1419</ele>
        <time>2021-08-06T10:50:29.974Z</time>
      </trkpt>
      <trkpt lat="46.94971" lon="8.7244">
        <ele>1419</ele>
        <time>2021-08-06T10:50:30.974Z</time>
      </trkpt>
      <trkpt lat="46.94971" lon="8.72438">
        <ele>1419</ele>
        <time>2021-08-06T10:50:31.974Z</time>
      </trkpt>
      <trkpt lat="46.94972" lon="8.72436">
        <ele>1419</ele>
        <time>2021-08-06T10:50:32.973Z</time>
      </trkpt>
      <trkpt lat="46.94971" lon="8.72434">
        <ele>1419</ele>
        <time>2021-08-06T10:50:33.974Z</time>
      </trkpt>
      <trkpt lat="46.94971" lon="8.72432">
        <ele>1419</ele>
        <time>2021-08-06T10:50:34.974Z</time>
      </trkpt>
      <trkpt lat="46.9497" lon="8.7243">
        <ele>1419</ele>
        <time>2021-08-06T10:50:35.974Z</time>
      </trkpt>
      <trkpt lat="46.9497" lon="8.72429">
        <ele>1418</ele>
        <time>2021-08-06T10:50:36.973Z</time>
      </trkpt>
      <trkpt lat="46.94969" lon="8.72428">
        <ele>1418</ele>
        <time>2021-08-06T10:50:37.974Z</time>
      </trkpt>
      <trkpt lat="46.94968" lon="8.72427">
        <ele>1417</ele>
        <time>2021-08-06T10:50:38.974Z</time>
      </trkpt>
      <trkpt lat="46.94967" lon="8.72425">
        <ele>1417</ele>
        <time>2021-08-06T10:50:39.974Z</time>
      </trkpt>
      <trkpt lat="46.94967" lon="8.72423">
        <ele>1416</ele>
        <time>2021-08-06T10:50:40.974Z</time>
      </trkpt>
      <trkpt lat="46.94967" lon="8.72422">
        <ele>1416</ele>
        <time>2021-08-06T10:50:41.974Z</time>
      </trkpt>
      <trkpt lat="46.94966" lon="8.72421">
        <ele>1416</ele>
        <time>2021-08-06T10:50:42.973Z</time>
      </trkpt>
      <trkpt lat="46.94966" lon="8.72419">
        <ele>1416</ele>
        <time>2021-08-06T10:50:43.973Z</time>
      </trkpt>
      <trkpt lat="46.94965" lon="8.72417">
        <ele>1415</ele>
        <time>2021-08-06T10:50:44.974Z</time>
      </trkpt>
      <trkpt lat="46.94965" lon="8.72415">
        <ele>1415</ele>
        <time>2021-08-06T10:50:45.974Z</time>
      </trkpt>
      <trkpt lat="46.94964" lon="8.72414">
        <ele>1415</ele>
        <time>2021-08-06T10:50:46.974Z</time>
      </trkpt>
      <trkpt lat="46.94964" lon="8.72412">
        <ele>1415</ele>
        <time>2021-08-06T10:50:47.973Z</time>
      </trkpt>
      <trkpt lat="46.94963" lon="8.7241">
        <ele>1416</ele>
        <time>2021-08-06T10:50:48.974Z</time>
      </trkpt>
      <trkpt lat="46.94963" lon="8.72408">
        <ele>1416</ele>
        <time>2021-08-06T10:50:49.974Z</time>
      </trkpt>
      <trkpt lat="46.94963" lon="8.72406">
        <ele>1417</ele>
        <time>2021-08-06T10:50:50.974Z</time>
      </trkpt>
      <trkpt lat="46.94963" lon="8.72405">
        <ele>1417</ele>
        <time>2021-08-06T10:50:51.974Z</time>
      </trkpt>
      <trkpt lat="46.94963" lon="8.72403">
        <ele>1418</ele>
        <time>2021-08-06T10:50:52.974Z</time>
      </trkpt>
      <trkpt lat="46.94963" lon="8.72402">
        <ele>1418</ele>
        <time>2021-08-06T10:50:53.973Z</time>
      </trkpt>
      <trkpt lat="46.94963" lon="8.724">
        <ele>1419</ele>
        <time>2021-08-06T10:50:54.973Z</time>
      </trkpt>
      <trkpt lat="46.94962" lon="8.72398">
        <ele>1419</ele>
        <time>2021-08-06T10:50:55.973Z</time>
      </trkpt>
      <trkpt lat="46.94962" lon="8.72397">
        <ele>1419</ele>
        <time>2021-08-06T10:50:56.974Z</time>
      </trkpt>
      <trkpt lat="46.94962" lon="8.72395">
        <ele>1419</ele>
        <time>2021-08-06T10:50:57.974Z</time>
      </trkpt>
      <trkpt lat="46.94962" lon="8.72394">
        <ele>1419</ele>
        <time>2021-08-06T10:50:58.973Z</time>
      </trkpt>
      <trkpt lat="46.94962" lon="8.72392">
        <ele>1419</ele>
        <time>2021-08-06T10:50:59.974Z</time>
      </trkpt>
      <trkpt lat="46.94962" lon="8.72391">
        <ele>1418</ele>
        <time>2021-08-06T10:51:00.974Z</time>
      </trkpt>
      <trkpt lat="46.94961" lon="8.72389">
        <ele>1418</ele>
        <time>2021-08-06T10:51:01.973Z</time>
      </trkpt>
      <trkpt lat="46.94961" lon="8.72388">
        <ele>1418</ele>
        <time>2021-08-06T10:51:02.974Z</time>
      </trkpt>
      <trkpt lat="46.94961" lon="8.72387">
        <ele>1418</ele>
        <time>2021-08-06T10:51:03.974Z</time>
      </trkpt>
      <trkpt lat="46.94961" lon="8.72385">
        <ele>1418</ele>
        <time>2021-08-06T10:51:04.973Z</time>
      </trkpt>
      <trkpt lat="46.94961" lon="8.72383">
        <ele>1417</ele>
        <time>2021-08-06T10:51:05.974Z</time>
      </trkpt>
      <trkpt lat="46.94961" lon="8.72381">
        <ele>1417</ele>
        <time>2021-08-06T10:51:06.974Z</time>
      </trkpt>
      <trkpt lat="46.94961" lon="8.72379">
        <ele>1416</ele>
        <time>2021-08-06T10:51:07.974Z</time>
      </trkpt>
      <trkpt lat="46.94961" lon="8.72377">
        <ele>1415</ele>
        <time>2021-08-06T10:51:08.974Z</time>
      </trkpt>
      <trkpt lat="46.94961" lon="8.72376">
        <ele>1416</ele>
        <time>2021-08-06T10:51:09.973Z</time>
      </trkpt>
      <trkpt lat="46.9496" lon="8.72375">
        <ele>1416</ele>
        <time>2021-08-06T10:51:10.974Z</time>
      </trkpt>
      <trkpt lat="46.9496" lon="8.72374">
        <ele>1417</ele>
        <time>2021-08-06T10:51:11.974Z</time>
      </trkpt>
      <trkpt lat="46.9496" lon="8.72372">
        <ele>1417</ele>
        <time>2021-08-06T10:51:12.974Z</time>
      </trkpt>
      <trkpt lat="46.9496" lon="8.72371">
        <ele>1417</ele>
        <time>2021-08-06T10:51:13.974Z</time>
      </trkpt>
      <trkpt lat="46.9496" lon="8.72369">
        <ele>1418</ele>
        <time>2021-08-06T10:51:14.974Z</time>
      </trkpt>
      <trkpt lat="46.9496" lon="8.72367">
        <ele>1418</ele>
        <time>2021-08-06T10:51:15.974Z</time>
      </trkpt>
      <trkpt lat="46.94959" lon="8.72366">
        <ele>1418</ele>
        <time>2021-08-06T10:51:16.974Z</time>
      </trkpt>
      <trkpt lat="46.94959" lon="8.72364">
        <ele>1418</ele>
        <time>2021-08-06T10:51:17.974Z</time>
      </trkpt>
      <trkpt lat="46.94959" lon="8.72362">
        <ele>1418</ele>
        <time>2021-08-06T10:51:22.082Z</time>
      </trkpt>
      <trkpt lat="46.94959" lon="8.72361">
        <ele>1418</ele>
        <time>2021-08-06T10:51:24.830Z</time>
      </trkpt>
      <trkpt lat="46.94959" lon="8.72359">
        <ele>1418</ele>
        <time>2021-08-06T10:51:25.830Z</time>
      </trkpt>
      <trkpt lat="46.94959" lon="8.72357">
        <ele>1418</ele>
        <time>2021-08-06T10:51:26.830Z</time>
      </trkpt>
      <trkpt lat="46.94959" lon="8.72356">
        <ele>1418</ele>
        <time>2021-08-06T10:51:28.561Z</time>
      </trkpt>
      <trkpt lat="46.94959" lon="8.72354">
        <ele>1418</ele>
        <time>2021-08-06T10:51:29.561Z</time>
      </trkpt>
      <trkpt lat="46.94959" lon="8.72352">
        <ele>1418</ele>
        <time>2021-08-06T10:51:30.561Z</time>
      </trkpt>
      <trkpt lat="46.94959" lon="8.72351">
        <ele>1418</ele>
        <time>2021-08-06T10:51:31.561Z</time>
      </trkpt>
      <trkpt lat="46.9496" lon="8.72349">
        <ele>1418</ele>
        <time>2021-08-06T10:51:32.560Z</time>
      </trkpt>
      <trkpt lat="46.9496" lon="8.72348">
        <ele>1419</ele>
        <time>2021-08-06T10:51:33.560Z</time>
      </trkpt>
      <trkpt lat="46.9496" lon="8.72347">
        <ele>1419</ele>
        <time>2021-08-06T10:51:34.561Z</time>
      </trkpt>
      <trkpt lat="46.9496" lon="8.72345">
        <ele>1419</ele>
        <time>2021-08-06T10:51:35.561Z</time>
      </trkpt>
      <trkpt lat="46.94961" lon="8.72343">
        <ele>1418</ele>
        <time>2021-08-06T10:51:36.561Z</time>
      </trkpt>
      <trkpt lat="46.94961" lon="8.72341">
        <ele>1417</ele>
        <time>2021-08-06T10:51:37.560Z</time>
      </trkpt>
      <trkpt lat="46.94961" lon="8.72339">
        <ele>1417</ele>
        <time>2021-08-06T10:51:38.560Z</time>
      </trkpt>
      <trkpt lat="46.94962" lon="8.72337">
        <ele>1416</ele>
        <time>2021-08-06T10:51:39.560Z</time>
      </trkpt>
      <trkpt lat="46.94962" lon="8.72335">
        <ele>1416</ele>
        <time>2021-08-06T10:51:40.561Z</time>
      </trkpt>
      <trkpt lat="46.94962" lon="8.72333">
        <ele>1415</ele>
        <time>2021-08-06T10:51:41.561Z</time>
      </trkpt>
      <trkpt lat="46.94963" lon="8.72331">
        <ele>1414</ele>
        <time>2021-08-06T10:51:42.561Z</time>
      </trkpt>
      <trkpt lat="46.94963" lon="8.72329">
        <ele>1414</ele>
        <time>2021-08-06T10:51:43.560Z</time>
      </trkpt>
      <trkpt lat="46.94963" lon="8.72327">
        <ele>1414</ele>
        <time>2021-08-06T10:51:44.561Z</time>
      </trkpt>
      <trkpt lat="46.94963" lon="8.72325">
        <ele>1413</ele>
        <time>2021-08-06T10:51:45.561Z</time>
      </trkpt>
      <trkpt lat="46.94963" lon="8.72324">
        <ele>1414</ele>
        <time>2021-08-06T10:51:46.561Z</time>
      </trkpt>
      <trkpt lat="46.94964" lon="8.72322">
        <ele>1414</ele>
        <time>2021-08-06T10:51:47.561Z</time>
      </trkpt>
      <trkpt lat="46.94964" lon="8.72321">
        <ele>1414</ele>
        <time>2021-08-06T10:51:48.560Z</time>
      </trkpt>
      <trkpt lat="46.94965" lon="8.72319">
        <ele>1414</ele>
        <time>2021-08-06T10:51:49.561Z</time>
      </trkpt>
      <trkpt lat="46.94966" lon="8.72318">
        <ele>1414</ele>
        <time>2021-08-06T10:51:50.561Z</time>
      </trkpt>
      <trkpt lat="46.94967" lon="8.72317">
        <ele>1415</ele>
        <time>2021-08-06T10:51:51.560Z</time>
      </trkpt>
      <trkpt lat="46.94969" lon="8.72316">
        <ele>1416</ele>
        <time>2021-08-06T10:51:52.560Z</time>
      </trkpt>
      <trkpt lat="46.9497" lon="8.72315">
        <ele>1416</ele>
        <time>2021-08-06T10:51:53.561Z</time>
      </trkpt>
      <trkpt lat="46.94971" lon="8.72314">
        <ele>1417</ele>
        <time>2021-08-06T10:51:54.561Z</time>
      </trkpt>
      <trkpt lat="46.94972" lon="8.72313">
        <ele>1417</ele>
        <time>2021-08-06T10:51:55.561Z</time>
      </trkpt>
      <trkpt lat="46.94973" lon="8.72313">
        <ele>1418</ele>
        <time>2021-08-06T10:51:56.561Z</time>
      </trkpt>
      <trkpt lat="46.94973" lon="8.72312">
        <ele>1418</ele>
        <time>2021-08-06T10:51:57.561Z</time>
      </trkpt>
      <trkpt lat="46.94974" lon="8.72312">
        <ele>1418</ele>
        <time>2021-08-06T10:51:58.561Z</time>
      </trkpt>
      <trkpt lat="46.94975" lon="8.72311">
        <ele>1417</ele>
        <time>2021-08-06T10:51:59.561Z</time>
      </trkpt>
      <trkpt lat="46.94975" lon="8.7231">
        <ele>1417</ele>
        <time>2021-08-06T10:52:00.561Z</time>
      </trkpt>
      <trkpt lat="46.94976" lon="8.72309">
        <ele>1416</ele>
        <time>2021-08-06T10:52:01.561Z</time>
      </trkpt>
      <trkpt lat="46.94977" lon="8.72309">
        <ele>1415</ele>
        <time>2021-08-06T10:52:02.560Z</time>
      </trkpt>
      <trkpt lat="46.94977" lon="8.72309">
        <ele>1415</ele>
        <time>2021-08-06T10:52:03.561Z</time>
      </trkpt>
      <trkpt lat="46.94977" lon="8.7231">
        <ele>1414</ele>
        <time>2021-08-06T10:52:04.560Z</time>
      </trkpt>
      <trkpt lat="46.94978" lon="8.7231">
        <ele>1414</ele>
        <time>2021-08-06T10:52:05.561Z</time>
      </trkpt>
      <trkpt lat="46.94978" lon="8.72311">
        <ele>1414</ele>
        <time>2021-08-06T10:52:06.561Z</time>
      </trkpt>
      <trkpt lat="46.94978" lon="8.72312">
        <ele>1413</ele>
        <time>2021-08-06T10:52:07.560Z</time>
      </trkpt>
      <trkpt lat="46.94979" lon="8.72313">
        <ele>1412</ele>
        <time>2021-08-06T10:52:10.559Z</time>
      </trkpt>
      <trkpt lat="46.94979" lon="8.72313">
        <ele>1412</ele>
        <time>2021-08-06T10:52:14.356Z</time>
      </trkpt>
      <trkpt lat="46.9498" lon="8.72314">
        <ele>1411</ele>
        <time>2021-08-06T10:52:15.356Z</time>
      </trkpt>
      <trkpt lat="46.94981" lon="8.72314">
        <ele>1411</ele>
        <time>2021-08-06T10:52:16.356Z</time>
      </trkpt>
      <trkpt lat="46.94981" lon="8.72315">
        <ele>1410</ele>
        <time>2021-08-06T10:52:17.355Z</time>
      </trkpt>
      <trkpt lat="46.94982" lon="8.72315">
        <ele>1410</ele>
        <time>2021-08-06T10:52:18.356Z</time>
      </trkpt>
      <trkpt lat="46.94983" lon="8.72316">
        <ele>1410</ele>
        <time>2021-08-06T10:52:24.492Z</time>
      </trkpt>
      <trkpt lat="46.94983" lon="8.72317">
        <ele>1409</ele>
        <time>2021-08-06T10:52:25.492Z</time>
      </trkpt>
      <trkpt lat="46.94984" lon="8.72317">
        <ele>1409</ele>
        <time>2021-08-06T10:52:26.493Z</time>
      </trkpt>
      <trkpt lat="46.94985" lon="8.72318">
        <ele>1408</ele>
        <time>2021-08-06T10:52:48.597Z</time>
      </trkpt>
      <trkpt lat="46.94985" lon="8.72318">
        <ele>1408</ele>
        <time>2021-08-06T10:52:50.435Z</time>
      </trkpt>
      <trkpt lat="46.94986" lon="8.72319">
        <ele>1407</ele>
        <time>2021-08-06T10:52:51.435Z</time>
      </trkpt>
      <trkpt lat="46.94987" lon="8.72319">
        <ele>1407</ele>
        <time>2021-08-06T10:52:52.435Z</time>
      </trkpt>
      <trkpt lat="46.94987" lon="8.72318">
        <ele>1406</ele>
        <time>2021-08-06T10:52:53.436Z</time>
      </trkpt>
      <trkpt lat="46.94988" lon="8.72318">
        <ele>1406</ele>
        <time>2021-08-06T10:53:01.467Z</time>
      </trkpt>
      <trkpt lat="46.94989" lon="8.72318">
        <ele>1406</ele>
        <time>2021-08-06T10:53:02.467Z</time>
      </trkpt>
      <trkpt lat="46.9499" lon="8.72318">
        <ele>1406</ele>
        <time>2021-08-06T10:53:03.467Z</time>
      </trkpt>
      <trkpt lat="46.9499" lon="8.72317">
        <ele>1406</ele>
        <time>2021-08-06T10:53:04.467Z</time>
      </trkpt>
      <trkpt lat="46.94991" lon="8.72316">
        <ele>1406</ele>
        <time>2021-08-06T10:53:05.467Z</time>
      </trkpt>
      <trkpt lat="46.94992" lon="8.72315">
        <ele>1406</ele>
        <time>2021-08-06T10:53:06.467Z</time>
      </trkpt>
      <trkpt lat="46.94992" lon="8.72315">
        <ele>1406</ele>
        <time>2021-08-06T10:53:07.467Z</time>
      </trkpt>
      <trkpt lat="46.94993" lon="8.72315">
        <ele>1406</ele>
        <time>2021-08-06T10:53:08.467Z</time>
      </trkpt>
      <trkpt lat="46.94994" lon="8.72314">
        <ele>1407</ele>
        <time>2021-08-06T10:53:09.467Z</time>
      </trkpt>
      <trkpt lat="46.94994" lon="8.72312">
        <ele>1407</ele>
        <time>2021-08-06T10:53:10.467Z</time>
      </trkpt>
      <trkpt lat="46.94995" lon="8.72312">
        <ele>1408</ele>
        <time>2021-08-06T10:53:11.467Z</time>
      </trkpt>
      <trkpt lat="46.94995" lon="8.72311">
        <ele>1409</ele>
        <time>2021-08-06T10:53:12.467Z</time>
      </trkpt>
      <trkpt lat="46.94996" lon="8.7231">
        <ele>1409</ele>
        <time>2021-08-06T10:53:13.466Z</time>
      </trkpt>
      <trkpt lat="46.94996" lon="8.7231">
        <ele>1410</ele>
        <time>2021-08-06T10:53:14.467Z</time>
      </trkpt>
      <trkpt lat="46.94997" lon="8.72309">
        <ele>1411</ele>
        <time>2021-08-06T10:53:15.466Z</time>
      </trkpt>
      <trkpt lat="46.94998" lon="8.72309">
        <ele>1411</ele>
        <time>2021-08-06T10:53:16.467Z</time>
      </trkpt>
      <trkpt lat="46.94999" lon="8.72309">
        <ele>1412</ele>
        <time>2021-08-06T10:53:17.467Z</time>
      </trkpt>
      <trkpt lat="46.94999" lon="8.72308">
        <ele>1412</ele>
        <time>2021-08-06T10:53:18.467Z</time>
      </trkpt>
      <trkpt lat="46.95" lon="8.72307">
        <ele>1413</ele>
        <time>2021-08-06T10:53:19.466Z</time>
      </trkpt>
      <trkpt lat="46.95001" lon="8.72306">
        <ele>1413</ele>
        <time>2021-08-06T10:53:20.467Z</time>
      </trkpt>
      <trkpt lat="46.95002" lon="8.72305">
        <ele>1413</ele>
        <time>2021-08-06T10:53:21.466Z</time>
      </trkpt>
      <trkpt lat="46.95003" lon="8.72304">
        <ele>1414</ele>
        <time>2021-08-06T10:53:22.467Z</time>
      </trkpt>
      <trkpt lat="46.95004" lon="8.72304">
        <ele>1415</ele>
        <time>2021-08-06T10:53:23.466Z</time>
      </trkpt>
      <trkpt lat="46.95005" lon="8.72303">
        <ele>1415</ele>
        <time>2021-08-06T10:53:24.466Z</time>
      </trkpt>
      <trkpt lat="46.95006" lon="8.72302">
        <ele>1416</ele>
        <time>2021-08-06T10:53:25.467Z</time>
      </trkpt>
      <trkpt lat="46.95007" lon="8.72301">
        <ele>1416</ele>
        <time>2021-08-06T10:53:26.467Z</time>
      </trkpt>
      <trkpt lat="46.95007" lon="8.723">
        <ele>1417</ele>
        <time>2021-08-06T10:53:27.467Z</time>
      </trkpt>
      <trkpt lat="46.95008" lon="8.72299">
        <ele>1418</ele>
        <time>2021-08-06T10:53:28.467Z</time>
      </trkpt>
      <trkpt lat="46.95008" lon="8.72298">
        <ele>1418</ele>
        <time>2021-08-06T10:53:29.466Z</time>
      </trkpt>
      <trkpt lat="46.95008" lon="8.72297">
        <ele>1418</ele>
        <time>2021-08-06T10:53:30.467Z</time>
      </trkpt>
      <trkpt lat="46.95009" lon="8.72296">
        <ele>1418</ele>
        <time>2021-08-06T10:53:31.467Z</time>
      </trkpt>
      <trkpt lat="46.9501" lon="8.72296">
        <ele>1419</ele>
        <time>2021-08-06T10:53:32.467Z</time>
      </trkpt>
      <trkpt lat="46.9501" lon="8.72295">
        <ele>1419</ele>
        <time>2021-08-06T10:53:33.467Z</time>
      </trkpt>
      <trkpt lat="46.95011" lon="8.72295">
        <ele>1420</ele>
        <time>2021-08-06T10:53:34.467Z</time>
      </trkpt>
      <trkpt lat="46.95011" lon="8.72294">
        <ele>1421</ele>
        <time>2021-08-06T10:53:35.467Z</time>
      </trkpt>
      <trkpt lat="46.95012" lon="8.72293">
        <ele>1422</ele>
        <time>2021-08-06T10:53:36.467Z</time>
      </trkpt>
      <trkpt lat="46.95012" lon="8.72293">
        <ele>1423</ele>
        <time>2021-08-06T10:53:37.466Z</time>
      </trkpt>
      <trkpt lat="46.95013" lon="8.72292">
        <ele>1423</ele>
        <time>2021-08-06T10:53:38.467Z</time>
      </trkpt>
      <trkpt lat="46.95013" lon="8.72291">
        <ele>1423</ele>
        <time>2021-08-06T10:53:39.467Z</time>
      </trkpt>
      <trkpt lat="46.95013" lon="8.72291">
        <ele>1423</ele>
        <time>2021-08-06T10:53:40.467Z</time>
      </trkpt>
      <trkpt lat="46.95014" lon="8.7229">
        <ele>1423</ele>
        <time>2021-08-06T10:53:41.466Z</time>
      </trkpt>
      <trkpt lat="46.95014" lon="8.72289">
        <ele>1423</ele>
        <time>2021-08-06T10:53:42.466Z</time>
      </trkpt>
      <trkpt lat="46.95015" lon="8.72288">
        <ele>1422</ele>
        <time>2021-08-06T10:53:43.467Z</time>
      </trkpt>
      <trkpt lat="46.95015" lon="8.72287">
        <ele>1422</ele>
        <time>2021-08-06T10:53:44.466Z</time>
      </trkpt>
      <trkpt lat="46.95015" lon="8.72286">
        <ele>1422</ele>
        <time>2021-08-06T10:53:45.466Z</time>
      </trkpt>
      <trkpt lat="46.95016" lon="8.72285">
        <ele>1422</ele>
        <time>2021-08-06T10:53:46.467Z</time>
      </trkpt>
      <trkpt lat="46.95016" lon="8.72284">
        <ele>1422</ele>
        <time>2021-08-06T10:53:47.466Z</time>
      </trkpt>
      <trkpt lat="46.95017" lon="8.72284">
        <ele>1423</ele>
        <time>2021-08-06T10:53:48.466Z</time>
      </trkpt>
      <trkpt lat="46.95017" lon="8.72282">
        <ele>1423</ele>
        <time>2021-08-06T10:53:49.467Z</time>
      </trkpt>
      <trkpt lat="46.95018" lon="8.72282">
        <ele>1423</ele>
        <time>2021-08-06T10:53:50.467Z</time>
      </trkpt>
      <trkpt lat="46.95018" lon="8.72281">
        <ele>1423</ele>
        <time>2021-08-06T10:53:51.467Z</time>
      </trkpt>
      <trkpt lat="46.95019" lon="8.72279">
        <ele>1422</ele>
        <time>2021-08-06T10:53:52.467Z</time>
      </trkpt>
      <trkpt lat="46.95019" lon="8.72279">
        <ele>1422</ele>
        <time>2021-08-06T10:53:53.467Z</time>
      </trkpt>
      <trkpt lat="46.9502" lon="8.72278">
        <ele>1422</ele>
        <time>2021-08-06T10:53:54.466Z</time>
      </trkpt>
      <trkpt lat="46.9502" lon="8.72277">
        <ele>1422</ele>
        <time>2021-08-06T10:53:55.467Z</time>
      </trkpt>
      <trkpt lat="46.9502" lon="8.72276">
        <ele>1422</ele>
        <time>2021-08-06T10:53:56.466Z</time>
      </trkpt>
      <trkpt lat="46.9502" lon="8.72275">
        <ele>1422</ele>
        <time>2021-08-06T10:53:57.467Z</time>
      </trkpt>
      <trkpt lat="46.95021" lon="8.72274">
        <ele>1422</ele>
        <time>2021-08-06T10:53:58.467Z</time>
      </trkpt>
      <trkpt lat="46.95021" lon="8.72273">
        <ele>1422</ele>
        <time>2021-08-06T10:53:59.467Z</time>
      </trkpt>
      <trkpt lat="46.95021" lon="8.72272">
        <ele>1422</ele>
        <time>2021-08-06T10:54:00.467Z</time>
      </trkpt>
      <trkpt lat="46.95021" lon="8.72272">
        <ele>1422</ele>
        <time>2021-08-06T10:54:01.467Z</time>
      </trkpt>
      <trkpt lat="46.95022" lon="8.72271">
        <ele>1422</ele>
        <time>2021-08-06T10:54:02.467Z</time>
      </trkpt>
      <trkpt lat="46.95022" lon="8.7227">
        <ele>1422</ele>
        <time>2021-08-06T10:54:03.467Z</time>
      </trkpt>
      <trkpt lat="46.95023" lon="8.72269">
        <ele>1422</ele>
        <time>2021-08-06T10:54:04.467Z</time>
      </trkpt>
      <trkpt lat="46.95024" lon="8.72269">
        <ele>1422</ele>
        <time>2021-08-06T10:54:05.466Z</time>
      </trkpt>
      <trkpt lat="46.95024" lon="8.72268">
        <ele>1422</ele>
        <time>2021-08-06T10:54:06.467Z</time>
      </trkpt>
      <trkpt lat="46.95025" lon="8.72269">
        <ele>1422</ele>
        <time>2021-08-06T10:54:07.467Z</time>
      </trkpt>
      <trkpt lat="46.95026" lon="8.72268">
        <ele>1422</ele>
        <time>2021-08-06T10:54:08.467Z</time>
      </trkpt>
      <trkpt lat="46.95026" lon="8.72268">
        <ele>1422</ele>
        <time>2021-08-06T10:54:09.466Z</time>
      </trkpt>
      <trkpt lat="46.95027" lon="8.72268">
        <ele>1423</ele>
        <time>2021-08-06T10:54:10.467Z</time>
      </trkpt>
      <trkpt lat="46.95028" lon="8.72269">
        <ele>1423</ele>
        <time>2021-08-06T10:54:11.466Z</time>
      </trkpt>
      <trkpt lat="46.95028" lon="8.72269">
        <ele>1424</ele>
        <time>2021-08-06T10:54:12.466Z</time>
      </trkpt>
      <trkpt lat="46.95029" lon="8.72268">
        <ele>1424</ele>
        <time>2021-08-06T10:54:13.466Z</time>
      </trkpt>
      <trkpt lat="46.9503" lon="8.72268">
        <ele>1424</ele>
        <time>2021-08-06T10:54:14.467Z</time>
      </trkpt>
      <trkpt lat="46.95031" lon="8.72268">
        <ele>1424</ele>
        <time>2021-08-06T10:54:15.467Z</time>
      </trkpt>
      <trkpt lat="46.95031" lon="8.72268">
        <ele>1423</ele>
        <time>2021-08-06T10:54:16.467Z</time>
      </trkpt>
      <trkpt lat="46.95032" lon="8.72268">
        <ele>1423</ele>
        <time>2021-08-06T10:54:17.466Z</time>
      </trkpt>
      <trkpt lat="46.95032" lon="8.72268">
        <ele>1423</ele>
        <time>2021-08-06T10:54:18.466Z</time>
      </trkpt>
      <trkpt lat="46.95033" lon="8.72268">
        <ele>1423</ele>
        <time>2021-08-06T10:54:19.466Z</time>
      </trkpt>
      <trkpt lat="46.95034" lon="8.72268">
        <ele>1423</ele>
        <time>2021-08-06T10:54:20.467Z</time>
      </trkpt>
      <trkpt lat="46.95034" lon="8.72269">
        <ele>1423</ele>
        <time>2021-08-06T10:54:21.467Z</time>
      </trkpt>
      <trkpt lat="46.95035" lon="8.7227">
        <ele>1423</ele>
        <time>2021-08-06T10:54:22.466Z</time>
      </trkpt>
      <trkpt lat="46.95036" lon="8.72271">
        <ele>1423</ele>
        <time>2021-08-06T10:54:23.466Z</time>
      </trkpt>
      <trkpt lat="46.95036" lon="8.72272">
        <ele>1424</ele>
        <time>2021-08-06T10:54:24.467Z</time>
      </trkpt>
      <trkpt lat="46.95037" lon="8.72273">
        <ele>1425</ele>
        <time>2021-08-06T10:54:25.467Z</time>
      </trkpt>
      <trkpt lat="46.95037" lon="8.72274">
        <ele>1425</ele>
        <time>2021-08-06T10:54:26.467Z</time>
      </trkpt>
      <trkpt lat="46.95038" lon="8.72275">
        <ele>1426</ele>
        <time>2021-08-06T10:54:27.467Z</time>
      </trkpt>
      <trkpt lat="46.95038" lon="8.72275">
        <ele>1426</ele>
        <time>2021-08-06T10:54:28.467Z</time>
      </trkpt>
      <trkpt lat="46.95039" lon="8.72275">
        <ele>1427</ele>
        <time>2021-08-06T10:54:29.466Z</time>
      </trkpt>
      <trkpt lat="46.9504" lon="8.72275">
        <ele>1427</ele>
        <time>2021-08-06T10:54:30.467Z</time>
      </trkpt>
      <trkpt lat="46.9504" lon="8.72275">
        <ele>1427</ele>
        <time>2021-08-06T10:54:31.466Z</time>
      </trkpt>
      <trkpt lat="46.95041" lon="8.72275">
        <ele>1427</ele>
        <time>2021-08-06T10:54:32.467Z</time>
      </trkpt>
      <trkpt lat="46.95041" lon="8.72274">
        <ele>1427</ele>
        <time>2021-08-06T10:54:33.466Z</time>
      </trkpt>
      <trkpt lat="46.95042" lon="8.72274">
        <ele>1427</ele>
        <time>2021-08-06T10:54:34.466Z</time>
      </trkpt>
      <trkpt lat="46.95042" lon="8.72275">
        <ele>1427</ele>
        <time>2021-08-06T10:54:35.467Z</time>
      </trkpt>
      <trkpt lat="46.95043" lon="8.72275">
        <ele>1427</ele>
        <time>2021-08-06T10:54:36.467Z</time>
      </trkpt>
      <trkpt lat="46.95044" lon="8.72275">
        <ele>1427</ele>
        <time>2021-08-06T10:54:37.466Z</time>
      </trkpt>
      <trkpt lat="46.95045" lon="8.72275">
        <ele>1427</ele>
        <time>2021-08-06T10:54:38.466Z</time>
      </trkpt>
      <trkpt lat="46.95045" lon="8.72276">
        <ele>1428</ele>
        <time>2021-08-06T10:54:39.467Z</time>
      </trkpt>
      <trkpt lat="46.95046" lon="8.72276">
        <ele>1428</ele>
        <time>2021-08-06T10:54:40.467Z</time>
      </trkpt>
      <trkpt lat="46.95047" lon="8.72276">
        <ele>1429</ele>
        <time>2021-08-06T10:54:41.467Z</time>
      </trkpt>
      <trkpt lat="46.95047" lon="8.72276">
        <ele>1429</ele>
        <time>2021-08-06T10:54:42.467Z</time>
      </trkpt>
      <trkpt lat="46.95048" lon="8.72276">
        <ele>1429</ele>
        <time>2021-08-06T10:54:49.489Z</time>
      </trkpt>
      <trkpt lat="46.95049" lon="8.72275">
        <ele>1429</ele>
        <time>2021-08-06T10:54:50.488Z</time>
      </trkpt>
      <trkpt lat="46.9505" lon="8.72275">
        <ele>1429</ele>
        <time>2021-08-06T10:54:53.335Z</time>
      </trkpt>
      <trkpt lat="46.9505" lon="8.72275">
        <ele>1429</ele>
        <time>2021-08-06T10:54:54.335Z</time>
      </trkpt>
      <trkpt lat="46.95051" lon="8.72275">
        <ele>1429</ele>
        <time>2021-08-06T10:54:55.334Z</time>
      </trkpt>
      <trkpt lat="46.95052" lon="8.72274">
        <ele>1429</ele>
        <time>2021-08-06T10:54:56.335Z</time>
      </trkpt>
      <trkpt lat="46.95053" lon="8.72274">
        <ele>1430</ele>
        <time>2021-08-06T10:54:57.335Z</time>
      </trkpt>
      <trkpt lat="46.95053" lon="8.72274">
        <ele>1430</ele>
        <time>2021-08-06T10:54:58.335Z</time>
      </trkpt>
      <trkpt lat="46.95054" lon="8.72275">
        <ele>1430</ele>
        <time>2021-08-06T10:54:59.335Z</time>
      </trkpt>
      <trkpt lat="46.95055" lon="8.72274">
        <ele>1430</ele>
        <time>2021-08-06T10:55:00.334Z</time>
      </trkpt>
      <trkpt lat="46.95056" lon="8.72274">
        <ele>1430</ele>
        <time>2021-08-06T10:55:01.334Z</time>
      </trkpt>
      <trkpt lat="46.95056" lon="8.72274">
        <ele>1430</ele>
        <time>2021-08-06T10:55:02.334Z</time>
      </trkpt>
      <trkpt lat="46.95057" lon="8.72274">
        <ele>1430</ele>
        <time>2021-08-06T10:55:03.335Z</time>
      </trkpt>
      <trkpt lat="46.95058" lon="8.72274">
        <ele>1430</ele>
        <time>2021-08-06T10:55:04.334Z</time>
      </trkpt>
      <trkpt lat="46.95059" lon="8.72275">
        <ele>1430</ele>
        <time>2021-08-06T10:55:05.335Z</time>
      </trkpt>
      <trkpt lat="46.95059" lon="8.72275">
        <ele>1430</ele>
        <time>2021-08-06T10:55:06.335Z</time>
      </trkpt>
      <trkpt lat="46.9506" lon="8.72274">
        <ele>1430</ele>
        <time>2021-08-06T10:55:07.335Z</time>
      </trkpt>
      <trkpt lat="46.95061" lon="8.72274">
        <ele>1430</ele>
        <time>2021-08-06T10:55:08.334Z</time>
      </trkpt>
      <trkpt lat="46.95062" lon="8.72273">
        <ele>1431</ele>
        <time>2021-08-06T10:55:09.335Z</time>
      </trkpt>
      <trkpt lat="46.95063" lon="8.72273">
        <ele>1431</ele>
        <time>2021-08-06T10:55:10.334Z</time>
      </trkpt>
      <trkpt lat="46.95063" lon="8.72272">
        <ele>1431</ele>
        <time>2021-08-06T10:55:11.334Z</time>
      </trkpt>
      <trkpt lat="46.95064" lon="8.72272">
        <ele>1431</ele>
        <time>2021-08-06T10:55:12.335Z</time>
      </trkpt>
      <trkpt lat="46.95065" lon="8.72272">
        <ele>1431</ele>
        <time>2021-08-06T10:55:13.334Z</time>
      </trkpt>
      <trkpt lat="46.95066" lon="8.72272">
        <ele>1431</ele>
        <time>2021-08-06T10:55:14.335Z</time>
      </trkpt>
      <trkpt lat="46.95066" lon="8.72272">
        <ele>1431</ele>
        <time>2021-08-06T10:55:20.479Z</time>
      </trkpt>
      <trkpt lat="46.95067" lon="8.72272">
        <ele>1431</ele>
        <time>2021-08-06T10:55:21.479Z</time>
      </trkpt>
      <trkpt lat="46.95068" lon="8.72272">
        <ele>1431</ele>
        <time>2021-08-06T10:55:22.479Z</time>
      </trkpt>
      <trkpt lat="46.95069" lon="8.72273">
        <ele>1431</ele>
        <time>2021-08-06T10:55:23.480Z</time>
      </trkpt>
      <trkpt lat="46.9507" lon="8.72273">
        <ele>1431</ele>
        <time>2021-08-06T10:55:24.479Z</time>
      </trkpt>
      <trkpt lat="46.95071" lon="8.72273">
        <ele>1431</ele>
        <time>2021-08-06T10:55:25.479Z</time>
      </trkpt>
      <trkpt lat="46.95072" lon="8.72273">
        <ele>1432</ele>
        <time>2021-08-06T10:55:26.479Z</time>
      </trkpt>
      <trkpt lat="46.95073" lon="8.72273">
        <ele>1432</ele>
        <time>2021-08-06T10:55:27.479Z</time>
      </trkpt>
      <trkpt lat="46.95074" lon="8.72273">
        <ele>1432</ele>
        <time>2021-08-06T10:55:28.480Z</time>
      </trkpt>
      <trkpt lat="46.95074" lon="8.72273">
        <ele>1433</ele>
        <time>2021-08-06T10:55:32.589Z</time>
      </trkpt>
      <trkpt lat="46.95075" lon="8.72274">
        <ele>1433</ele>
        <time>2021-08-06T10:55:39.338Z</time>
      </trkpt>
      <trkpt lat="46.95076" lon="8.72274">
        <ele>1433</ele>
        <time>2021-08-06T10:55:40.339Z</time>
      </trkpt>
      <trkpt lat="46.95077" lon="8.72275">
        <ele>1434</ele>
        <time>2021-08-06T10:55:41.339Z</time>
      </trkpt>
      <trkpt lat="46.95078" lon="8.72275">
        <ele>1434</ele>
        <time>2021-08-06T10:55:42.338Z</time>
      </trkpt>
      <trkpt lat="46.95079" lon="8.72276">
        <ele>1434</ele>
        <time>2021-08-06T10:55:43.338Z</time>
      </trkpt>
      <trkpt lat="46.9508" lon="8.72276">
        <ele>1434</ele>
        <time>2021-08-06T10:55:44.338Z</time>
      </trkpt>
      <trkpt lat="46.95081" lon="8.72277">
        <ele>1434</ele>
        <time>2021-08-06T10:55:45.338Z</time>
      </trkpt>
      <trkpt lat="46.95082" lon="8.72278">
        <ele>1435</ele>
        <time>2021-08-06T10:55:46.338Z</time>
      </trkpt>
      <trkpt lat="46.95083" lon="8.72279">
        <ele>1435</ele>
        <time>2021-08-06T10:55:47.338Z</time>
      </trkpt>
      <trkpt lat="46.95084" lon="8.72279">
        <ele>1435</ele>
        <time>2021-08-06T10:55:48.339Z</time>
      </trkpt>
      <trkpt lat="46.95085" lon="8.7228">
        <ele>1435</ele>
        <time>2021-08-06T10:55:49.338Z</time>
      </trkpt>
      <trkpt lat="46.95086" lon="8.7228">
        <ele>1435</ele>
        <time>2021-08-06T10:56:01.453Z</time>
      </trkpt>
      <trkpt lat="46.95087" lon="8.7228">
        <ele>1435</ele>
        <time>2021-08-06T10:56:02.454Z</time>
      </trkpt>
      <trkpt lat="46.95088" lon="8.72281">
        <ele>1435</ele>
        <time>2021-08-06T10:56:03.453Z</time>
      </trkpt>
      <trkpt lat="46.95089" lon="8.72281">
        <ele>1434</ele>
        <time>2021-08-06T10:56:04.453Z</time>
      </trkpt>
      <trkpt lat="46.9509" lon="8.72282">
        <ele>1434</ele>
        <time>2021-08-06T10:56:05.453Z</time>
      </trkpt>
      <trkpt lat="46.95092" lon="8.72282">
        <ele>1434</ele>
        <time>2021-08-06T10:56:06.454Z</time>
      </trkpt>
      <trkpt lat="46.95093" lon="8.72282">
        <ele>1434</ele>
        <time>2021-08-06T10:56:07.454Z</time>
      </trkpt>
      <trkpt lat="46.95094" lon="8.72283">
        <ele>1434</ele>
        <time>2021-08-06T10:56:08.454Z</time>
      </trkpt>
      <trkpt lat="46.95095" lon="8.72283">
        <ele>1434</ele>
        <time>2021-08-06T10:56:09.453Z</time>
      </trkpt>
      <trkpt lat="46.95096" lon="8.72283">
        <ele>1433</ele>
        <time>2021-08-06T10:56:10.454Z</time>
      </trkpt>
      <trkpt lat="46.95097" lon="8.72284">
        <ele>1433</ele>
        <time>2021-08-06T10:56:11.453Z</time>
      </trkpt>
      <trkpt lat="46.95099" lon="8.72284">
        <ele>1433</ele>
        <time>2021-08-06T10:56:12.454Z</time>
      </trkpt>
      <trkpt lat="46.951" lon="8.72285">
        <ele>1432</ele>
        <time>2021-08-06T10:56:13.454Z</time>
      </trkpt>
      <trkpt lat="46.951" lon="8.72285">
        <ele>1432</ele>
        <time>2021-08-06T10:56:14.454Z</time>
      </trkpt>
      <trkpt lat="46.95101" lon="8.72285">
        <ele>1431</ele>
        <time>2021-08-06T10:56:15.453Z</time>
      </trkpt>
      <trkpt lat="46.95103" lon="8.72286">
        <ele>1431</ele>
        <time>2021-08-06T10:56:16.453Z</time>
      </trkpt>
      <trkpt lat="46.95104" lon="8.72286">
        <ele>1430</ele>
        <time>2021-08-06T10:56:17.453Z</time>
      </trkpt>
      <trkpt lat="46.95104" lon="8.72286">
        <ele>1430</ele>
        <time>2021-08-06T10:56:18.453Z</time>
      </trkpt>
      <trkpt lat="46.95105" lon="8.72286">
        <ele>1430</ele>
        <time>2021-08-06T10:56:19.453Z</time>
      </trkpt>
      <trkpt lat="46.95106" lon="8.72286">
        <ele>1431</ele>
        <time>2021-08-06T10:56:20.453Z</time>
      </trkpt>
      <trkpt lat="46.95106" lon="8.72286">
        <ele>1431</ele>
        <time>2021-08-06T10:56:21.453Z</time>
      </trkpt>
      <trkpt lat="46.95107" lon="8.72286">
        <ele>1431</ele>
        <time>2021-08-06T10:56:22.454Z</time>
      </trkpt>
      <trkpt lat="46.95108" lon="8.72286">
        <ele>1432</ele>
        <time>2021-08-06T10:56:23.453Z</time>
      </trkpt>
      <trkpt lat="46.95109" lon="8.72286">
        <ele>1432</ele>
        <time>2021-08-06T10:56:24.453Z</time>
      </trkpt>
      <trkpt lat="46.9511" lon="8.72286">
        <ele>1432</ele>
        <time>2021-08-06T10:56:25.453Z</time>
      </trkpt>
      <trkpt lat="46.95111" lon="8.72287">
        <ele>1433</ele>
        <time>2021-08-06T10:56:26.454Z</time>
      </trkpt>
      <trkpt lat="46.95112" lon="8.72287">
        <ele>1433</ele>
        <time>2021-08-06T10:56:27.453Z</time>
      </trkpt>
      <trkpt lat="46.95113" lon="8.72288">
        <ele>1433</ele>
        <time>2021-08-06T10:56:28.453Z</time>
      </trkpt>
      <trkpt lat="46.95114" lon="8.72288">
        <ele>1433</ele>
        <time>2021-08-06T10:56:29.453Z</time>
      </trkpt>
      <trkpt lat="46.95115" lon="8.72287">
        <ele>1433</ele>
        <time>2021-08-06T10:56:30.454Z</time>
      </trkpt>
      <trkpt lat="46.95116" lon="8.72287">
        <ele>1433</ele>
        <time>2021-08-06T10:56:31.453Z</time>
      </trkpt>
      <trkpt lat="46.95117" lon="8.72287">
        <ele>1433</ele>
        <time>2021-08-06T10:56:32.454Z</time>
      </trkpt>
      <trkpt lat="46.95118" lon="8.72287">
        <ele>1433</ele>
        <time>2021-08-06T10:56:33.453Z</time>
      </trkpt>
      <trkpt lat="46.95118" lon="8.72288">
        <ele>1433</ele>
        <time>2021-08-06T10:56:34.453Z</time>
      </trkpt>
      <trkpt lat="46.95119" lon="8.72288">
        <ele>1433</ele>
        <time>2021-08-06T10:56:35.453Z</time>
      </trkpt>
      <trkpt lat="46.9512" lon="8.72289">
        <ele>1433</ele>
        <time>2021-08-06T10:56:36.453Z</time>
      </trkpt>
      <trkpt lat="46.95122" lon="8.72288">
        <ele>1433</ele>
        <time>2021-08-06T10:56:37.454Z</time>
      </trkpt>
      <trkpt lat="46.95123" lon="8.72288">
        <ele>1434</ele>
        <time>2021-08-06T10:56:38.454Z</time>
      </trkpt>
      <trkpt lat="46.95124" lon="8.72288">
        <ele>1434</ele>
        <time>2021-08-06T10:56:39.454Z</time>
      </trkpt>
      <trkpt lat="46.95125" lon="8.72288">
        <ele>1434</ele>
        <time>2021-08-06T10:56:40.453Z</time>
      </trkpt>
      <trkpt lat="46.95125" lon="8.72288">
        <ele>1434</ele>
        <time>2021-08-06T10:56:41.454Z</time>
      </trkpt>
      <trkpt lat="46.95126" lon="8.72289">
        <ele>1433</ele>
        <time>2021-08-06T10:56:42.454Z</time>
      </trkpt>
      <trkpt lat="46.95127" lon="8.72289">
        <ele>1433</ele>
        <time>2021-08-06T10:56:43.454Z</time>
      </trkpt>
      <trkpt lat="46.95128" lon="8.72289">
        <ele>1433</ele>
        <time>2021-08-06T10:56:44.453Z</time>
      </trkpt>
      <trkpt lat="46.95129" lon="8.7229">
        <ele>1433</ele>
        <time>2021-08-06T10:56:45.454Z</time>
      </trkpt>
      <trkpt lat="46.9513" lon="8.7229">
        <ele>1433</ele>
        <time>2021-08-06T10:56:46.454Z</time>
      </trkpt>
      <trkpt lat="46.95131" lon="8.72291">
        <ele>1433</ele>
        <time>2021-08-06T10:56:47.454Z</time>
      </trkpt>
      <trkpt lat="46.95133" lon="8.72291">
        <ele>1434</ele>
        <time>2021-08-06T10:56:48.454Z</time>
      </trkpt>
      <trkpt lat="46.95134" lon="8.72291">
        <ele>1434</ele>
        <time>2021-08-06T10:56:49.454Z</time>
      </trkpt>
      <trkpt lat="46.95135" lon="8.72292">
        <ele>1434</ele>
        <time>2021-08-06T10:56:50.453Z</time>
      </trkpt>
      <trkpt lat="46.95136" lon="8.72292">
        <ele>1433</ele>
        <time>2021-08-06T10:56:51.453Z</time>
      </trkpt>
      <trkpt lat="46.95137" lon="8.72293">
        <ele>1433</ele>
        <time>2021-08-06T10:56:52.454Z</time>
      </trkpt>
      <trkpt lat="46.95138" lon="8.72292">
        <ele>1433</ele>
        <time>2021-08-06T10:56:53.454Z</time>
      </trkpt>
      <trkpt lat="46.95138" lon="8.72292">
        <ele>1433</ele>
        <time>2021-08-06T10:56:54.454Z</time>
      </trkpt>
      <trkpt lat="46.95139" lon="8.72292">
        <ele>1433</ele>
        <time>2021-08-06T10:56:55.454Z</time>
      </trkpt>
      <trkpt lat="46.9514" lon="8.72293">
        <ele>1433</ele>
        <time>2021-08-06T10:56:56.453Z</time>
      </trkpt>
      <trkpt lat="46.95141" lon="8.72293">
        <ele>1433</ele>
        <time>2021-08-06T10:56:57.454Z</time>
      </trkpt>
      <trkpt lat="46.95142" lon="8.72294">
        <ele>1433</ele>
        <time>2021-08-06T10:56:58.454Z</time>
      </trkpt>
      <trkpt lat="46.95143" lon="8.72294">
        <ele>1433</ele>
        <time>2021-08-06T10:56:59.454Z</time>
      </trkpt>
      <trkpt lat="46.95144" lon="8.72295">
        <ele>1434</ele>
        <time>2021-08-06T10:57:00.454Z</time>
      </trkpt>
      <trkpt lat="46.95145" lon="8.72295">
        <ele>1434</ele>
        <time>2021-08-06T10:57:01.453Z</time>
      </trkpt>
      <trkpt lat="46.95146" lon="8.72296">
        <ele>1434</ele>
        <time>2021-08-06T10:57:02.453Z</time>
      </trkpt>
      <trkpt lat="46.95147" lon="8.72297">
        <ele>1434</ele>
        <time>2021-08-06T10:57:03.453Z</time>
      </trkpt>
      <trkpt lat="46.95148" lon="8.72298">
        <ele>1434</ele>
        <time>2021-08-06T10:57:04.454Z</time>
      </trkpt>
      <trkpt lat="46.9515" lon="8.72298">
        <ele>1434</ele>
        <time>2021-08-06T10:57:05.454Z</time>
      </trkpt>
      <trkpt lat="46.95151" lon="8.72298">
        <ele>1433</ele>
        <time>2021-08-06T10:57:06.453Z</time>
      </trkpt>
      <trkpt lat="46.95152" lon="8.72299">
        <ele>1433</ele>
        <time>2021-08-06T10:57:07.454Z</time>
      </trkpt>
      <trkpt lat="46.95153" lon="8.72299">
        <ele>1432</ele>
        <time>2021-08-06T10:57:08.454Z</time>
      </trkpt>
      <trkpt lat="46.95154" lon="8.72299">
        <ele>1432</ele>
        <time>2021-08-06T10:57:09.454Z</time>
      </trkpt>
      <trkpt lat="46.95155" lon="8.723">
        <ele>1432</ele>
        <time>2021-08-06T10:57:10.454Z</time>
      </trkpt>
      <trkpt lat="46.95156" lon="8.723">
        <ele>1433</ele>
        <time>2021-08-06T10:57:11.454Z</time>
      </trkpt>
      <trkpt lat="46.95157" lon="8.72301">
        <ele>1433</ele>
        <time>2021-08-06T10:57:12.453Z</time>
      </trkpt>
      <trkpt lat="46.95158" lon="8.72301">
        <ele>1433</ele>
        <time>2021-08-06T10:57:13.454Z</time>
      </trkpt>
      <trkpt lat="46.95159" lon="8.72301">
        <ele>1433</ele>
        <time>2021-08-06T10:57:14.453Z</time>
      </trkpt>
      <trkpt lat="46.9516" lon="8.72302">
        <ele>1433</ele>
        <time>2021-08-06T10:57:15.454Z</time>
      </trkpt>
      <trkpt lat="46.95161" lon="8.72302">
        <ele>1433</ele>
        <time>2021-08-06T10:57:16.454Z</time>
      </trkpt>
      <trkpt lat="46.95162" lon="8.72302">
        <ele>1433</ele>
        <time>2021-08-06T10:57:17.454Z</time>
      </trkpt>
      <trkpt lat="46.95163" lon="8.72302">
        <ele>1433</ele>
        <time>2021-08-06T10:57:18.454Z</time>
      </trkpt>
      <trkpt lat="46.95163" lon="8.72302">
        <ele>1433</ele>
        <time>2021-08-06T10:57:19.453Z</time>
      </trkpt>
      <trkpt lat="46.95164" lon="8.72302">
        <ele>1433</ele>
        <time>2021-08-06T10:57:20.454Z</time>
      </trkpt>
      <trkpt lat="46.95165" lon="8.72302">
        <ele>1433</ele>
        <time>2021-08-06T10:57:21.453Z</time>
      </trkpt>
      <trkpt lat="46.95165" lon="8.72302">
        <ele>1434</ele>
        <time>2021-08-06T10:57:22.454Z</time>
      </trkpt>
      <trkpt lat="46.95166" lon="8.72302">
        <ele>1434</ele>
        <time>2021-08-06T10:57:23.454Z</time>
      </trkpt>
      <trkpt lat="46.95166" lon="8.72302">
        <ele>1435</ele>
        <time>2021-08-06T10:57:24.453Z</time>
      </trkpt>
      <trkpt lat="46.95167" lon="8.72302">
        <ele>1435</ele>
        <time>2021-08-06T10:57:25.454Z</time>
      </trkpt>
      <trkpt lat="46.95168" lon="8.72301">
        <ele>1435</ele>
        <time>2021-08-06T10:57:26.454Z</time>
      </trkpt>
      <trkpt lat="46.95168" lon="8.72301">
        <ele>1435</ele>
        <time>2021-08-06T10:57:27.453Z</time>
      </trkpt>
      <trkpt lat="46.95169" lon="8.72301">
        <ele>1435</ele>
        <time>2021-08-06T10:57:28.454Z</time>
      </trkpt>
      <trkpt lat="46.95169" lon="8.723">
        <ele>1435</ele>
        <time>2021-08-06T10:57:30.592Z</time>
      </trkpt>
      <trkpt lat="46.9517" lon="8.723">
        <ele>1435</ele>
        <time>2021-08-06T10:57:31.592Z</time>
      </trkpt>
      <trkpt lat="46.95171" lon="8.723">
        <ele>1436</ele>
        <time>2021-08-06T10:57:32.591Z</time>
      </trkpt>
      <trkpt lat="46.95172" lon="8.72299">
        <ele>1436</ele>
        <time>2021-08-06T10:57:33.591Z</time>
      </trkpt>
      <trkpt lat="46.95172" lon="8.72299">
        <ele>1437</ele>
        <time>2021-08-06T10:57:34.591Z</time>
      </trkpt>
      <trkpt lat="46.95173" lon="8.72298">
        <ele>1437</ele>
        <time>2021-08-06T10:57:35.592Z</time>
      </trkpt>
      <trkpt lat="46.95174" lon="8.72298">
        <ele>1437</ele>
        <time>2021-08-06T10:57:36.592Z</time>
      </trkpt>
      <trkpt lat="46.95174" lon="8.72297">
        <ele>1437</ele>
        <time>2021-08-06T10:57:37.592Z</time>
      </trkpt>
      <trkpt lat="46.95175" lon="8.72296">
        <ele>1437</ele>
        <time>2021-08-06T10:57:38.592Z</time>
      </trkpt>
      <trkpt lat="46.95176" lon="8.72296">
        <ele>1437</ele>
        <time>2021-08-06T10:57:39.591Z</time>
      </trkpt>
      <trkpt lat="46.95177" lon="8.72295">
        <ele>1437</ele>
        <time>2021-08-06T10:57:40.592Z</time>
      </trkpt>
      <trkpt lat="46.95177" lon="8.72294">
        <ele>1437</ele>
        <time>2021-08-06T10:57:41.591Z</time>
      </trkpt>
      <trkpt lat="46.95178" lon="8.72293">
        <ele>1437</ele>
        <time>2021-08-06T10:57:42.592Z</time>
      </trkpt>
      <trkpt lat="46.95179" lon="8.72292">
        <ele>1438</ele>
        <time>2021-08-06T10:57:43.591Z</time>
      </trkpt>
      <trkpt lat="46.95179" lon="8.72291">
        <ele>1438</ele>
        <time>2021-08-06T10:57:44.592Z</time>
      </trkpt>
      <trkpt lat="46.9518" lon="8.7229">
        <ele>1439</ele>
        <time>2021-08-06T10:57:45.592Z</time>
      </trkpt>
      <trkpt lat="46.95181" lon="8.72289">
        <ele>1439</ele>
        <time>2021-08-06T10:57:46.591Z</time>
      </trkpt>
      <trkpt lat="46.95181" lon="8.72288">
        <ele>1440</ele>
        <time>2021-08-06T10:57:47.592Z</time>
      </trkpt>
      <trkpt lat="46.95182" lon="8.72286">
        <ele>1440</ele>
        <time>2021-08-06T10:57:48.592Z</time>
      </trkpt>
      <trkpt lat="46.95182" lon="8.72285">
        <ele>1441</ele>
        <time>2021-08-06T10:57:49.592Z</time>
      </trkpt>
      <trkpt lat="46.95183" lon="8.72284">
        <ele>1441</ele>
        <time>2021-08-06T10:57:50.592Z</time>
      </trkpt>
      <trkpt lat="46.95183" lon="8.72282">
        <ele>1441</ele>
        <time>2021-08-06T10:57:51.591Z</time>
      </trkpt>
      <trkpt lat="46.95183" lon="8.7228">
        <ele>1441</ele>
        <time>2021-08-06T10:57:52.592Z</time>
      </trkpt>
      <trkpt lat="46.95183" lon="8.72279">
        <ele>1441</ele>
        <time>2021-08-06T10:57:53.591Z</time>
      </trkpt>
      <trkpt lat="46.95183" lon="8.72277">
        <ele>1441</ele>
        <time>2021-08-06T10:57:54.592Z</time>
      </trkpt>
      <trkpt lat="46.95183" lon="8.72276">
        <ele>1440</ele>
        <time>2021-08-06T10:57:55.592Z</time>
      </trkpt>
      <trkpt lat="46.95183" lon="8.72274">
        <ele>1440</ele>
        <time>2021-08-06T10:57:56.591Z</time>
      </trkpt>
      <trkpt lat="46.95182" lon="8.72273">
        <ele>1440</ele>
        <time>2021-08-06T10:57:57.591Z</time>
      </trkpt>
      <trkpt lat="46.95181" lon="8.72271">
        <ele>1440</ele>
        <time>2021-08-06T10:57:58.592Z</time>
      </trkpt>
      <trkpt lat="46.9518" lon="8.7227">
        <ele>1440</ele>
        <time>2021-08-06T10:57:59.592Z</time>
      </trkpt>
      <trkpt lat="46.95179" lon="8.72268">
        <ele>1439</ele>
        <time>2021-08-06T10:58:00.592Z</time>
      </trkpt>
      <trkpt lat="46.95179" lon="8.72268">
        <ele>1439</ele>
        <time>2021-08-06T10:58:01.592Z</time>
      </trkpt>
      <trkpt lat="46.95178" lon="8.72266">
        <ele>1439</ele>
        <time>2021-08-06T10:58:02.591Z</time>
      </trkpt>
      <trkpt lat="46.95177" lon="8.72265">
        <ele>1439</ele>
        <time>2021-08-06T10:58:03.591Z</time>
      </trkpt>
      <trkpt lat="46.95176" lon="8.72264">
        <ele>1440</ele>
        <time>2021-08-06T10:58:04.592Z</time>
      </trkpt>
      <trkpt lat="46.95175" lon="8.72263">
        <ele>1440</ele>
        <time>2021-08-06T10:58:05.592Z</time>
      </trkpt>
      <trkpt lat="46.95173" lon="8.72262">
        <ele>1439</ele>
        <time>2021-08-06T10:58:06.591Z</time>
      </trkpt>
      <trkpt lat="46.95172" lon="8.72261">
        <ele>1439</ele>
        <time>2021-08-06T10:58:07.592Z</time>
      </trkpt>
      <trkpt lat="46.95171" lon="8.7226">
        <ele>1439</ele>
        <time>2021-08-06T10:58:08.592Z</time>
      </trkpt>
      <trkpt lat="46.9517" lon="8.72259">
        <ele>1438</ele>
        <time>2021-08-06T10:58:09.591Z</time>
      </trkpt>
      <trkpt lat="46.95169" lon="8.72259">
        <ele>1437</ele>
        <time>2021-08-06T10:58:10.592Z</time>
      </trkpt>
      <trkpt lat="46.95168" lon="8.72258">
        <ele>1437</ele>
        <time>2021-08-06T10:58:11.592Z</time>
      </trkpt>
      <trkpt lat="46.95167" lon="8.72258">
        <ele>1436</ele>
        <time>2021-08-06T10:58:12.592Z</time>
      </trkpt>
      <trkpt lat="46.95166" lon="8.72257">
        <ele>1436</ele>
        <time>2021-08-06T10:58:13.592Z</time>
      </trkpt>
      <trkpt lat="46.95165" lon="8.72256">
        <ele>1435</ele>
        <time>2021-08-06T10:58:14.592Z</time>
      </trkpt>
      <trkpt lat="46.95165" lon="8.72255">
        <ele>1434</ele>
        <time>2021-08-06T10:58:15.591Z</time>
      </trkpt>
      <trkpt lat="46.95164" lon="8.72255">
        <ele>1434</ele>
        <time>2021-08-06T10:58:16.591Z</time>
      </trkpt>
      <trkpt lat="46.95163" lon="8.72254">
        <ele>1433</ele>
        <time>2021-08-06T10:58:17.592Z</time>
      </trkpt>
      <trkpt lat="46.95163" lon="8.72253">
        <ele>1433</ele>
        <time>2021-08-06T10:58:18.592Z</time>
      </trkpt>
      <trkpt lat="46.95162" lon="8.72252">
        <ele>1433</ele>
        <time>2021-08-06T10:58:19.592Z</time>
      </trkpt>
      <trkpt lat="46.95161" lon="8.72252">
        <ele>1433</ele>
        <time>2021-08-06T10:58:23.740Z</time>
      </trkpt>
      <trkpt lat="46.95161" lon="8.72252">
        <ele>1433</ele>
        <time>2021-08-06T10:58:24.739Z</time>
      </trkpt>
      <trkpt lat="46.9516" lon="8.72252">
        <ele>1433</ele>
        <time>2021-08-06T10:58:25.740Z</time>
      </trkpt>
      <trkpt lat="46.9516" lon="8.72251">
        <ele>1433</ele>
        <time>2021-08-06T10:58:26.739Z</time>
      </trkpt>
      <trkpt lat="46.95159" lon="8.72252">
        <ele>1433</ele>
        <time>2021-08-06T10:58:27.740Z</time>
      </trkpt>
      <trkpt lat="46.95159" lon="8.72253">
        <ele>1434</ele>
        <time>2021-08-06T10:58:28.739Z</time>
      </trkpt>
      <trkpt lat="46.95159" lon="8.72253">
        <ele>1435</ele>
        <time>2021-08-06T10:58:29.740Z</time>
      </trkpt>
      <trkpt lat="46.95158" lon="8.72252">
        <ele>1435</ele>
        <time>2021-08-06T10:58:52.885Z</time>
      </trkpt>
      <trkpt lat="46.95157" lon="8.72252">
        <ele>1435</ele>
        <time>2021-08-06T10:58:53.884Z</time>
      </trkpt>
      <trkpt lat="46.95157" lon="8.72251">
        <ele>1435</ele>
        <time>2021-08-06T10:58:54.884Z</time>
      </trkpt>
      <trkpt lat="46.95156" lon="8.7225">
        <ele>1435</ele>
        <time>2021-08-06T10:58:55.885Z</time>
      </trkpt>
      <trkpt lat="46.95156" lon="8.7225">
        <ele>1435</ele>
        <time>2021-08-06T10:58:56.885Z</time>
      </trkpt>
      <trkpt lat="46.95155" lon="8.7225">
        <ele>1435</ele>
        <time>2021-08-06T10:58:57.884Z</time>
      </trkpt>
      <trkpt lat="46.95154" lon="8.72249">
        <ele>1436</ele>
        <time>2021-08-06T10:58:58.885Z</time>
      </trkpt>
      <trkpt lat="46.95153" lon="8.72248">
        <ele>1436</ele>
        <time>2021-08-06T10:58:59.885Z</time>
      </trkpt>
      <trkpt lat="46.95152" lon="8.72248">
        <ele>1436</ele>
        <time>2021-08-06T10:59:00.885Z</time>
      </trkpt>
      <trkpt lat="46.9515" lon="8.72247">
        <ele>1436</ele>
        <time>2021-08-06T10:59:01.885Z</time>
      </trkpt>
      <trkpt lat="46.95149" lon="8.72245">
        <ele>1436</ele>
        <time>2021-08-06T10:59:02.885Z</time>
      </trkpt>
      <trkpt lat="46.95148" lon="8.72244">
        <ele>1436</ele>
        <time>2021-08-06T10:59:03.884Z</time>
      </trkpt>
      <trkpt lat="46.95147" lon="8.72243">
        <ele>1437</ele>
        <time>2021-08-06T10:59:04.884Z</time>
      </trkpt>
      <trkpt lat="46.95146" lon="8.72243">
        <ele>1437</ele>
        <time>2021-08-06T10:59:05.884Z</time>
      </trkpt>
      <trkpt lat="46.95145" lon="8.72243">
        <ele>1438</ele>
        <time>2021-08-06T10:59:06.885Z</time>
      </trkpt>
      <trkpt lat="46.95144" lon="8.72243">
        <ele>1438</ele>
        <time>2021-08-06T10:59:07.885Z</time>
      </trkpt>
      <trkpt lat="46.95142" lon="8.72243">
        <ele>1439</ele>
        <time>2021-08-06T10:59:08.885Z</time>
      </trkpt>
      <trkpt lat="46.95142" lon="8.72242">
        <ele>1440</ele>
        <time>2021-08-06T10:59:09.885Z</time>
      </trkpt>
      <trkpt lat="46.9514" lon="8.72242">
        <ele>1440</ele>
        <time>2021-08-06T10:59:10.885Z</time>
      </trkpt>
      <trkpt lat="46.9514" lon="8.72242">
        <ele>1441</ele>
        <time>2021-08-06T10:59:11.884Z</time>
      </trkpt>
      <trkpt lat="46.95139" lon="8.72241">
        <ele>1441</ele>
        <time>2021-08-06T10:59:12.885Z</time>
      </trkpt>
      <trkpt lat="46.95138" lon="8.72239">
        <ele>1441</ele>
        <time>2021-08-06T10:59:13.884Z</time>
      </trkpt>
      <trkpt lat="46.95137" lon="8.72239">
        <ele>1441</ele>
        <time>2021-08-06T10:59:14.885Z</time>
      </trkpt>
      <trkpt lat="46.95136" lon="8.72238">
        <ele>1441</ele>
        <time>2021-08-06T10:59:15.885Z</time>
      </trkpt>
      <trkpt lat="46.95135" lon="8.72238">
        <ele>1440</ele>
        <time>2021-08-06T10:59:16.884Z</time>
      </trkpt>
      <trkpt lat="46.95134" lon="8.72238">
        <ele>1441</ele>
        <time>2021-08-06T10:59:17.884Z</time>
      </trkpt>
      <trkpt lat="46.95134" lon="8.72238">
        <ele>1441</ele>
        <time>2021-08-06T10:59:18.884Z</time>
      </trkpt>
      <trkpt lat="46.95133" lon="8.72238">
        <ele>1440</ele>
        <time>2021-08-06T10:59:19.884Z</time>
      </trkpt>
      <trkpt lat="46.95133" lon="8.72239">
        <ele>1440</ele>
        <time>2021-08-06T10:59:20.884Z</time>
      </trkpt>
      <trkpt lat="46.95132" lon="8.72239">
        <ele>1440</ele>
        <time>2021-08-06T10:59:21.884Z</time>
      </trkpt>
      <trkpt lat="46.95132" lon="8.72238">
        <ele>1440</ele>
        <time>2021-08-06T10:59:22.884Z</time>
      </trkpt>
      <trkpt lat="46.95131" lon="8.72238">
        <ele>1439</ele>
        <time>2021-08-06T10:59:23.884Z</time>
      </trkpt>
      <trkpt lat="46.9513" lon="8.72237">
        <ele>1439</ele>
        <time>2021-08-06T10:59:24.885Z</time>
      </trkpt>
      <trkpt lat="46.95129" lon="8.72237">
        <ele>1439</ele>
        <time>2021-08-06T10:59:25.884Z</time>
      </trkpt>
      <trkpt lat="46.95128" lon="8.72237">
        <ele>1438</ele>
        <time>2021-08-06T10:59:26.884Z</time>
      </trkpt>
      <trkpt lat="46.95127" lon="8.72237">
        <ele>1439</ele>
        <time>2021-08-06T10:59:27.884Z</time>
      </trkpt>
      <trkpt lat="46.95126" lon="8.72236">
        <ele>1438</ele>
        <time>2021-08-06T10:59:28.884Z</time>
      </trkpt>
      <trkpt lat="46.95125" lon="8.72235">
        <ele>1439</ele>
        <time>2021-08-06T10:59:29.884Z</time>
      </trkpt>
      <trkpt lat="46.95124" lon="8.72235">
        <ele>1439</ele>
        <time>2021-08-06T10:59:30.884Z</time>
      </trkpt>
      <trkpt lat="46.95123" lon="8.72235">
        <ele>1439</ele>
        <time>2021-08-06T10:59:31.884Z</time>
      </trkpt>
      <trkpt lat="46.95122" lon="8.72233">
        <ele>1439</ele>
        <time>2021-08-06T10:59:32.884Z</time>
      </trkpt>
      <trkpt lat="46.95121" lon="8.72232">
        <ele>1439</ele>
        <time>2021-08-06T10:59:33.884Z</time>
      </trkpt>
      <trkpt lat="46.9512" lon="8.72231">
        <ele>1439</ele>
        <time>2021-08-06T10:59:34.884Z</time>
      </trkpt>
      <trkpt lat="46.95119" lon="8.7223">
        <ele>1440</ele>
        <time>2021-08-06T10:59:35.884Z</time>
      </trkpt>
      <trkpt lat="46.95118" lon="8.72229">
        <ele>1440</ele>
        <time>2021-08-06T10:59:36.884Z</time>
      </trkpt>
      <trkpt lat="46.95117" lon="8.72229">
        <ele>1440</ele>
        <time>2021-08-06T10:59:37.885Z</time>
      </trkpt>
      <trkpt lat="46.95116" lon="8.72228">
        <ele>1441</ele>
        <time>2021-08-06T10:59:38.884Z</time>
      </trkpt>
      <trkpt lat="46.95115" lon="8.72228">
        <ele>1441</ele>
        <time>2021-08-06T10:59:39.884Z</time>
      </trkpt>
      <trkpt lat="46.95115" lon="8.72227">
        <ele>1442</ele>
        <time>2021-08-06T10:59:40.884Z</time>
      </trkpt>
      <trkpt lat="46.95114" lon="8.72227">
        <ele>1442</ele>
        <time>2021-08-06T10:59:41.885Z</time>
      </trkpt>
      <trkpt lat="46.95113" lon="8.72226">
        <ele>1442</ele>
        <time>2021-08-06T10:59:42.885Z</time>
      </trkpt>
      <trkpt lat="46.95113" lon="8.72226">
        <ele>1442</ele>
        <time>2021-08-06T10:59:43.885Z</time>
      </trkpt>
      <trkpt lat="46.95111" lon="8.72225">
        <ele>1442</ele>
        <time>2021-08-06T10:59:44.884Z</time>
      </trkpt>
      <trkpt lat="46.9511" lon="8.72224">
        <ele>1442</ele>
        <time>2021-08-06T10:59:45.884Z</time>
      </trkpt>
      <trkpt lat="46.95109" lon="8.72223">
        <ele>1442</ele>
        <time>2021-08-06T10:59:46.884Z</time>
      </trkpt>
      <trkpt lat="46.95108" lon="8.72222">
        <ele>1443</ele>
        <time>2021-08-06T10:59:47.885Z</time>
      </trkpt>
      <trkpt lat="46.95107" lon="8.72221">
        <ele>1443</ele>
        <time>2021-08-06T10:59:48.884Z</time>
      </trkpt>
      <trkpt lat="46.95106" lon="8.72221">
        <ele>1443</ele>
        <time>2021-08-06T10:59:49.885Z</time>
      </trkpt>
      <trkpt lat="46.95105" lon="8.7222">
        <ele>1443</ele>
        <time>2021-08-06T10:59:50.885Z</time>
      </trkpt>
      <trkpt lat="46.95104" lon="8.7222">
        <ele>1443</ele>
        <time>2021-08-06T10:59:51.885Z</time>
      </trkpt>
      <trkpt lat="46.95103" lon="8.7222">
        <ele>1444</ele>
        <time>2021-08-06T10:59:52.885Z</time>
      </trkpt>
      <trkpt lat="46.95103" lon="8.72219">
        <ele>1444</ele>
        <time>2021-08-06T10:59:53.884Z</time>
      </trkpt>
      <trkpt lat="46.95102" lon="8.72218">
        <ele>1443</ele>
        <time>2021-08-06T10:59:54.885Z</time>
      </trkpt>
      <trkpt lat="46.95101" lon="8.72217">
        <ele>1443</ele>
        <time>2021-08-06T10:59:55.885Z</time>
      </trkpt>
      <trkpt lat="46.95101" lon="8.72217">
        <ele>1443</ele>
        <time>2021-08-06T10:59:56.884Z</time>
      </trkpt>
      <trkpt lat="46.951" lon="8.72217">
        <ele>1442</ele>
        <time>2021-08-06T10:59:57.884Z</time>
      </trkpt>
      <trkpt lat="46.95099" lon="8.72216">
        <ele>1442</ele>
        <time>2021-08-06T10:59:58.885Z</time>
      </trkpt>
      <trkpt lat="46.95098" lon="8.72216">
        <ele>1441</ele>
        <time>2021-08-06T10:59:59.885Z</time>
      </trkpt>
      <trkpt lat="46.95098" lon="8.72216">
        <ele>1441</ele>
        <time>2021-08-06T11:00:00.884Z</time>
      </trkpt>
      <trkpt lat="46.95097" lon="8.72217">
        <ele>1441</ele>
        <time>2021-08-06T11:00:01.884Z</time>
      </trkpt>
      <trkpt lat="46.95097" lon="8.72217">
        <ele>1441</ele>
        <time>2021-08-06T11:00:02.885Z</time>
      </trkpt>
      <trkpt lat="46.95096" lon="8.72217">
        <ele>1441</ele>
        <time>2021-08-06T11:00:03.885Z</time>
      </trkpt>
      <trkpt lat="46.95095" lon="8.72217">
        <ele>1441</ele>
        <time>2021-08-06T11:00:04.885Z</time>
      </trkpt>
      <trkpt lat="46.95095" lon="8.72218">
        <ele>1441</ele>
        <time>2021-08-06T11:00:05.884Z</time>
      </trkpt>
      <trkpt lat="46.95094" lon="8.72218">
        <ele>1442</ele>
        <time>2021-08-06T11:00:06.884Z</time>
      </trkpt>
      <trkpt lat="46.95093" lon="8.72218">
        <ele>1442</ele>
        <time>2021-08-06T11:00:07.885Z</time>
      </trkpt>
      <trkpt lat="46.95093" lon="8.72218">
        <ele>1442</ele>
        <time>2021-08-06T11:00:08.885Z</time>
      </trkpt>
      <trkpt lat="46.95092" lon="8.72218">
        <ele>1443</ele>
        <time>2021-08-06T11:00:09.885Z</time>
      </trkpt>
      <trkpt lat="46.95091" lon="8.72218">
        <ele>1443</ele>
        <time>2021-08-06T11:00:10.885Z</time>
      </trkpt>
      <trkpt lat="46.95091" lon="8.72218">
        <ele>1443</ele>
        <time>2021-08-06T11:00:11.885Z</time>
      </trkpt>
      <trkpt lat="46.95091" lon="8.72217">
        <ele>1443</ele>
        <time>2021-08-06T11:00:12.884Z</time>
      </trkpt>
      <trkpt lat="46.9509" lon="8.72217">
        <ele>1443</ele>
        <time>2021-08-06T11:00:13.885Z</time>
      </trkpt>
      <trkpt lat="46.9509" lon="8.72216">
        <ele>1443</ele>
        <time>2021-08-06T11:00:14.884Z</time>
      </trkpt>
      <trkpt lat="46.9509" lon="8.72216">
        <ele>1444</ele>
        <time>2021-08-06T11:00:15.885Z</time>
      </trkpt>
      <trkpt lat="46.95089" lon="8.72215">
        <ele>1444</ele>
        <time>2021-08-06T11:00:16.885Z</time>
      </trkpt>
      <trkpt lat="46.95088" lon="8.72214">
        <ele>1444</ele>
        <time>2021-08-06T11:00:17.885Z</time>
      </trkpt>
      <trkpt lat="46.95088" lon="8.72212">
        <ele>1444</ele>
        <time>2021-08-06T11:00:18.885Z</time>
      </trkpt>
      <trkpt lat="46.95088" lon="8.72211">
        <ele>1444</ele>
        <time>2021-08-06T11:00:23.980Z</time>
      </trkpt>
      <trkpt lat="46.95088" lon="8.72209">
        <ele>1444</ele>
        <time>2021-08-06T11:00:39.851Z</time>
      </trkpt>
      <trkpt lat="46.95088" lon="8.72209">
        <ele>1444</ele>
        <time>2021-08-06T11:00:40.851Z</time>
      </trkpt>
      <trkpt lat="46.95088" lon="8.72208">
        <ele>1444</ele>
        <time>2021-08-06T11:00:41.851Z</time>
      </trkpt>
      <trkpt lat="46.95088" lon="8.72207">
        <ele>1445</ele>
        <time>2021-08-06T11:00:42.851Z</time>
      </trkpt>
      <trkpt lat="46.95088" lon="8.72207">
        <ele>1445</ele>
        <time>2021-08-06T11:00:43.851Z</time>
      </trkpt>
      <trkpt lat="46.95088" lon="8.72206">
        <ele>1445</ele>
        <time>2021-08-06T11:00:48.010Z</time>
      </trkpt>
      <trkpt lat="46.95088" lon="8.72205">
        <ele>1445</ele>
        <time>2021-08-06T11:00:49.009Z</time>
      </trkpt>
      <trkpt lat="46.95088" lon="8.72203">
        <ele>1445</ele>
        <time>2021-08-06T11:00:50.010Z</time>
      </trkpt>
      <trkpt lat="46.95089" lon="8.72202">
        <ele>1445</ele>
        <time>2021-08-06T11:00:51.010Z</time>
      </trkpt>
      <trkpt lat="46.95089" lon="8.72201">
        <ele>1445</ele>
        <time>2021-08-06T11:00:52.010Z</time>
      </trkpt>
      <trkpt lat="46.95089" lon="8.72199">
        <ele>1444</ele>
        <time>2021-08-06T11:00:53.010Z</time>
      </trkpt>
      <trkpt lat="46.95089" lon="8.722">
        <ele>1444</ele>
        <time>2021-08-06T11:00:54.010Z</time>
      </trkpt>
      <trkpt lat="46.95089" lon="8.722">
        <ele>1444</ele>
        <time>2021-08-06T11:00:55.010Z</time>
      </trkpt>
      <trkpt lat="46.95089" lon="8.722">
        <ele>1444</ele>
        <time>2021-08-06T11:00:56.009Z</time>
      </trkpt>
      <trkpt lat="46.95088" lon="8.72199">
        <ele>1444</ele>
        <time>2021-08-06T11:00:57.010Z</time>
      </trkpt>
      <trkpt lat="46.95087" lon="8.72199">
        <ele>1444</ele>
        <time>2021-08-06T11:00:58.009Z</time>
      </trkpt>
      <trkpt lat="46.95086" lon="8.72199">
        <ele>1443</ele>
        <time>2021-08-06T11:00:59.010Z</time>
      </trkpt>
      <trkpt lat="46.95085" lon="8.722">
        <ele>1443</ele>
        <time>2021-08-06T11:01:00.009Z</time>
      </trkpt>
      <trkpt lat="46.95084" lon="8.722">
        <ele>1443</ele>
        <time>2021-08-06T11:01:01.009Z</time>
      </trkpt>
      <trkpt lat="46.95084" lon="8.72201">
        <ele>1443</ele>
        <time>2021-08-06T11:01:02.009Z</time>
      </trkpt>
      <trkpt lat="46.95083" lon="8.72201">
        <ele>1443</ele>
        <time>2021-08-06T11:01:03.010Z</time>
      </trkpt>
      <trkpt lat="46.95082" lon="8.72201">
        <ele>1443</ele>
        <time>2021-08-06T11:01:04.009Z</time>
      </trkpt>
      <trkpt lat="46.95082" lon="8.72202">
        <ele>1443</ele>
        <time>2021-08-06T11:01:05.009Z</time>
      </trkpt>
      <trkpt lat="46.95082" lon="8.72202">
        <ele>1443</ele>
        <time>2021-08-06T11:01:06.010Z</time>
      </trkpt>
      <trkpt lat="46.95084" lon="8.72201">
        <ele>1440</ele>
        <time>2021-08-06T11:01:07.011Z</time>
      </trkpt>
      <trkpt lat="46.95083" lon="8.72201">
        <ele>1440</ele>
        <time>2021-08-06T11:01:08.011Z</time>
      </trkpt>
      <trkpt lat="46.95083" lon="8.72202">
        <ele>1440</ele>
        <time>2021-08-06T11:01:09.011Z</time>
      </trkpt>
      <trkpt lat="46.95083" lon="8.72201">
        <ele>1441</ele>
        <time>2021-08-06T11:01:10.010Z</time>
      </trkpt>
      <trkpt lat="46.95083" lon="8.72201">
        <ele>1441</ele>
        <time>2021-08-06T11:01:11.011Z</time>
      </trkpt>
      <trkpt lat="46.95083" lon="8.72199">
        <ele>1441</ele>
        <time>2021-08-06T11:01:12.010Z</time>
      </trkpt>
      <trkpt lat="46.95084" lon="8.72198">
        <ele>1440</ele>
        <time>2021-08-06T11:01:13.011Z</time>
      </trkpt>
      <trkpt lat="46.95084" lon="8.72201">
        <ele>1434</ele>
        <time>2021-08-06T11:01:14.011Z</time>
      </trkpt>
      <trkpt lat="46.95083" lon="8.72201">
        <ele>1435</ele>
        <time>2021-08-06T11:01:15.011Z</time>
      </trkpt>
      <trkpt lat="46.95083" lon="8.72199">
        <ele>1437</ele>
        <time>2021-08-06T11:01:16.011Z</time>
      </trkpt>
      <trkpt lat="46.95083" lon="8.72199">
        <ele>1437</ele>
        <time>2021-08-06T11:01:17.012Z</time>
      </trkpt>
      <trkpt lat="46.95083" lon="8.72201">
        <ele>1442</ele>
        <time>2021-08-06T11:01:18.011Z</time>
      </trkpt>
      <trkpt lat="46.95083" lon="8.72201">
        <ele>1443</ele>
        <time>2021-08-06T11:01:19.011Z</time>
      </trkpt>
      <trkpt lat="46.95084" lon="8.722">
        <ele>1444</ele>
        <time>2021-08-06T11:01:20.011Z</time>
      </trkpt>
      <trkpt lat="46.95084" lon="8.72199">
        <ele>1445</ele>
        <time>2021-08-06T11:01:21.012Z</time>
      </trkpt>
      <trkpt lat="46.95084" lon="8.72199">
        <ele>1445</ele>
        <time>2021-08-06T11:01:22.011Z</time>
      </trkpt>
      <trkpt lat="46.95084" lon="8.72199">
        <ele>1446</ele>
        <time>2021-08-06T11:01:23.012Z</time>
      </trkpt>
      <trkpt lat="46.95085" lon="8.72199">
        <ele>1447</ele>
        <time>2021-08-06T11:01:26.079Z</time>
      </trkpt>
      <trkpt lat="46.95085" lon="8.72198">
        <ele>1448</ele>
        <time>2021-08-06T11:01:27.079Z</time>
      </trkpt>
      <trkpt lat="46.95085" lon="8.72197">
        <ele>1449</ele>
        <time>2021-08-06T11:01:28.080Z</time>
      </trkpt>
      <trkpt lat="46.95085" lon="8.72196">
        <ele>1449</ele>
        <time>2021-08-06T11:01:29.080Z</time>
      </trkpt>
      <trkpt lat="46.95085" lon="8.72195">
        <ele>1449</ele>
        <time>2021-08-06T11:01:30.079Z</time>
      </trkpt>
      <trkpt lat="46.95084" lon="8.72193">
        <ele>1450</ele>
        <time>2021-08-06T11:01:31.080Z</time>
      </trkpt>
      <trkpt lat="46.95083" lon="8.72192">
        <ele>1450</ele>
        <time>2021-08-06T11:01:32.080Z</time>
      </trkpt>
      <trkpt lat="46.95082" lon="8.72191">
        <ele>1450</ele>
        <time>2021-08-06T11:01:33.080Z</time>
      </trkpt>
      <trkpt lat="46.95082" lon="8.7219">
        <ele>1451</ele>
        <time>2021-08-06T11:01:34.079Z</time>
      </trkpt>
      <trkpt lat="46.95081" lon="8.72189">
        <ele>1451</ele>
        <time>2021-08-06T11:01:35.079Z</time>
      </trkpt>
      <trkpt lat="46.9508" lon="8.72187">
        <ele>1451</ele>
        <time>2021-08-06T11:01:36.080Z</time>
      </trkpt>
      <trkpt lat="46.95079" lon="8.72186">
        <ele>1452</ele>
        <time>2021-08-06T11:01:37.079Z</time>
      </trkpt>
      <trkpt lat="46.95078" lon="8.72185">
        <ele>1453</ele>
        <time>2021-08-06T11:01:38.080Z</time>
      </trkpt>
      <trkpt lat="46.95076" lon="8.72185">
        <ele>1453</ele>
        <time>2021-08-06T11:01:39.080Z</time>
      </trkpt>
      <trkpt lat="46.95075" lon="8.72184">
        <ele>1453</ele>
        <time>2021-08-06T11:01:40.079Z</time>
      </trkpt>
      <trkpt lat="46.95075" lon="8.72183">
        <ele>1452</ele>
        <time>2021-08-06T11:01:41.080Z</time>
      </trkpt>
      <trkpt lat="46.95074" lon="8.72183">
        <ele>1452</ele>
        <time>2021-08-06T11:01:42.080Z</time>
      </trkpt>
      <trkpt lat="46.95073" lon="8.72183">
        <ele>1452</ele>
        <time>2021-08-06T11:01:43.080Z</time>
      </trkpt>
      <trkpt lat="46.95073" lon="8.72182">
        <ele>1452</ele>
        <time>2021-08-06T11:01:44.080Z</time>
      </trkpt>
      <trkpt lat="46.95072" lon="8.72182">
        <ele>1452</ele>
        <time>2021-08-06T11:01:45.080Z</time>
      </trkpt>
      <trkpt lat="46.95071" lon="8.72182">
        <ele>1452</ele>
        <time>2021-08-06T11:01:46.080Z</time>
      </trkpt>
      <trkpt lat="46.95071" lon="8.72181">
        <ele>1452</ele>
        <time>2021-08-06T11:01:47.080Z</time>
      </trkpt>
      <trkpt lat="46.9507" lon="8.72181">
        <ele>1452</ele>
        <time>2021-08-06T11:01:48.079Z</time>
      </trkpt>
      <trkpt lat="46.95069" lon="8.72181">
        <ele>1453</ele>
        <time>2021-08-06T11:01:49.080Z</time>
      </trkpt>
      <trkpt lat="46.95068" lon="8.7218">
        <ele>1453</ele>
        <time>2021-08-06T11:01:50.080Z</time>
      </trkpt>
      <trkpt lat="46.95068" lon="8.72179">
        <ele>1453</ele>
        <time>2021-08-06T11:01:51.080Z</time>
      </trkpt>
      <trkpt lat="46.95067" lon="8.72178">
        <ele>1453</ele>
        <time>2021-08-06T11:01:52.079Z</time>
      </trkpt>
      <trkpt lat="46.95066" lon="8.72177">
        <ele>1453</ele>
        <time>2021-08-06T11:01:53.080Z</time>
      </trkpt>
      <trkpt lat="46.95065" lon="8.72177">
        <ele>1453</ele>
        <time>2021-08-06T11:01:54.079Z</time>
      </trkpt>
      <trkpt lat="46.95064" lon="8.72176">
        <ele>1453</ele>
        <time>2021-08-06T11:01:55.080Z</time>
      </trkpt>
      <trkpt lat="46.95063" lon="8.72175">
        <ele>1452</ele>
        <time>2021-08-06T11:01:56.080Z</time>
      </trkpt>
      <trkpt lat="46.95062" lon="8.72174">
        <ele>1452</ele>
        <time>2021-08-06T11:01:57.080Z</time>
      </trkpt>
      <trkpt lat="46.95061" lon="8.72173">
        <ele>1451</ele>
        <time>2021-08-06T11:01:58.080Z</time>
      </trkpt>
      <trkpt lat="46.9506" lon="8.72172">
        <ele>1451</ele>
        <time>2021-08-06T11:01:59.080Z</time>
      </trkpt>
      <trkpt lat="46.9506" lon="8.72171">
        <ele>1450</ele>
        <time>2021-08-06T11:02:00.080Z</time>
      </trkpt>
      <trkpt lat="46.95059" lon="8.72171">
        <ele>1450</ele>
        <time>2021-08-06T11:02:01.080Z</time>
      </trkpt>
      <trkpt lat="46.95058" lon="8.7217">
        <ele>1449</ele>
        <time>2021-08-06T11:02:02.079Z</time>
      </trkpt>
      <trkpt lat="46.95058" lon="8.72169">
        <ele>1449</ele>
        <time>2021-08-06T11:02:03.080Z</time>
      </trkpt>
      <trkpt lat="46.95057" lon="8.72168">
        <ele>1448</ele>
        <time>2021-08-06T11:02:04.079Z</time>
      </trkpt>
      <trkpt lat="46.95057" lon="8.72167">
        <ele>1448</ele>
        <time>2021-08-06T11:02:05.080Z</time>
      </trkpt>
      <trkpt lat="46.95056" lon="8.72166">
        <ele>1448</ele>
        <time>2021-08-06T11:02:06.080Z</time>
      </trkpt>
      <trkpt lat="46.95056" lon="8.72166">
        <ele>1448</ele>
        <time>2021-08-06T11:02:07.080Z</time>
      </trkpt>
      <trkpt lat="46.95055" lon="8.72164">
        <ele>1449</ele>
        <time>2021-08-06T11:02:08.080Z</time>
      </trkpt>
      <trkpt lat="46.95054" lon="8.72163">
        <ele>1449</ele>
        <time>2021-08-06T11:02:09.079Z</time>
      </trkpt>
      <trkpt lat="46.95054" lon="8.72162">
        <ele>1450</ele>
        <time>2021-08-06T11:02:10.080Z</time>
      </trkpt>
      <trkpt lat="46.95053" lon="8.7216">
        <ele>1451</ele>
        <time>2021-08-06T11:02:11.080Z</time>
      </trkpt>
      <trkpt lat="46.95052" lon="8.72159">
        <ele>1452</ele>
        <time>2021-08-06T11:02:12.080Z</time>
      </trkpt>
      <trkpt lat="46.95051" lon="8.72158">
        <ele>1452</ele>
        <time>2021-08-06T11:02:13.080Z</time>
      </trkpt>
      <trkpt lat="46.95051" lon="8.72157">
        <ele>1453</ele>
        <time>2021-08-06T11:02:14.079Z</time>
      </trkpt>
      <trkpt lat="46.9505" lon="8.72156">
        <ele>1453</ele>
        <time>2021-08-06T11:02:15.080Z</time>
      </trkpt>
      <trkpt lat="46.9505" lon="8.72155">
        <ele>1453</ele>
        <time>2021-08-06T11:02:17.206Z</time>
      </trkpt>
      <trkpt lat="46.9505" lon="8.72155">
        <ele>1452</ele>
        <time>2021-08-06T11:02:18.206Z</time>
      </trkpt>
      <trkpt lat="46.95049" lon="8.72154">
        <ele>1452</ele>
        <time>2021-08-06T11:02:19.206Z</time>
      </trkpt>
      <trkpt lat="46.95048" lon="8.72154">
        <ele>1452</ele>
        <time>2021-08-06T11:02:21.182Z</time>
      </trkpt>
      <trkpt lat="46.95048" lon="8.72153">
        <ele>1452</ele>
        <time>2021-08-06T11:02:22.183Z</time>
      </trkpt>
      <trkpt lat="46.95048" lon="8.72152">
        <ele>1452</ele>
        <time>2021-08-06T11:02:23.183Z</time>
      </trkpt>
      <trkpt lat="46.95047" lon="8.72152">
        <ele>1452</ele>
        <time>2021-08-06T11:02:24.182Z</time>
      </trkpt>
      <trkpt lat="46.95047" lon="8.7215">
        <ele>1452</ele>
        <time>2021-08-06T11:02:25.183Z</time>
      </trkpt>
      <trkpt lat="46.95045" lon="8.72148">
        <ele>1452</ele>
        <time>2021-08-06T11:02:26.183Z</time>
      </trkpt>
      <trkpt lat="46.95044" lon="8.72146">
        <ele>1452</ele>
        <time>2021-08-06T11:02:27.183Z</time>
      </trkpt>
      <trkpt lat="46.95043" lon="8.72144">
        <ele>1452</ele>
        <time>2021-08-06T11:02:28.183Z</time>
      </trkpt>
      <trkpt lat="46.95043" lon="8.72143">
        <ele>1451</ele>
        <time>2021-08-06T11:02:29.182Z</time>
      </trkpt>
      <trkpt lat="46.95042" lon="8.72141">
        <ele>1451</ele>
        <time>2021-08-06T11:02:30.182Z</time>
      </trkpt>
      <trkpt lat="46.95041" lon="8.72141">
        <ele>1450</ele>
        <time>2021-08-06T11:02:31.183Z</time>
      </trkpt>
      <trkpt lat="46.95041" lon="8.72141">
        <ele>1450</ele>
        <time>2021-08-06T11:02:32.183Z</time>
      </trkpt>
      <trkpt lat="46.9504" lon="8.72141">
        <ele>1451</ele>
        <time>2021-08-06T11:02:33.183Z</time>
      </trkpt>
      <trkpt lat="46.95041" lon="8.7214">
        <ele>1451</ele>
        <time>2021-08-06T11:02:34.183Z</time>
      </trkpt>
      <trkpt lat="46.95041" lon="8.72139">
        <ele>1451</ele>
        <time>2021-08-06T11:02:35.182Z</time>
      </trkpt>
      <trkpt lat="46.9504" lon="8.72138">
        <ele>1451</ele>
        <time>2021-08-06T11:02:36.182Z</time>
      </trkpt>
      <trkpt lat="46.9504" lon="8.72136">
        <ele>1451</ele>
        <time>2021-08-06T11:02:37.183Z</time>
      </trkpt>
      <trkpt lat="46.95039" lon="8.72135">
        <ele>1450</ele>
        <time>2021-08-06T11:02:38.182Z</time>
      </trkpt>
      <trkpt lat="46.95038" lon="8.72134">
        <ele>1451</ele>
        <time>2021-08-06T11:02:39.183Z</time>
      </trkpt>
      <trkpt lat="46.95037" lon="8.72134">
        <ele>1451</ele>
        <time>2021-08-06T11:02:40.182Z</time>
      </trkpt>
      <trkpt lat="46.95036" lon="8.72133">
        <ele>1452</ele>
        <time>2021-08-06T11:02:41.182Z</time>
      </trkpt>
      <trkpt lat="46.95035" lon="8.72133">
        <ele>1451</ele>
        <time>2021-08-06T11:02:42.182Z</time>
      </trkpt>
      <trkpt lat="46.95034" lon="8.72132">
        <ele>1451</ele>
        <time>2021-08-06T11:02:43.183Z</time>
      </trkpt>
      <trkpt lat="46.95033" lon="8.72131">
        <ele>1451</ele>
        <time>2021-08-06T11:02:44.182Z</time>
      </trkpt>
      <trkpt lat="46.95032" lon="8.7213">
        <ele>1451</ele>
        <time>2021-08-06T11:02:45.182Z</time>
      </trkpt>
      <trkpt lat="46.95031" lon="8.72129">
        <ele>1452</ele>
        <time>2021-08-06T11:02:46.183Z</time>
      </trkpt>
      <trkpt lat="46.95031" lon="8.72128">
        <ele>1452</ele>
        <time>2021-08-06T11:02:47.183Z</time>
      </trkpt>
      <trkpt lat="46.9503" lon="8.72127">
        <ele>1453</ele>
        <time>2021-08-06T11:02:48.183Z</time>
      </trkpt>
      <trkpt lat="46.95029" lon="8.72126">
        <ele>1453</ele>
        <time>2021-08-06T11:02:49.183Z</time>
      </trkpt>
      <trkpt lat="46.95029" lon="8.72125">
        <ele>1454</ele>
        <time>2021-08-06T11:02:50.183Z</time>
      </trkpt>
      <trkpt lat="46.95028" lon="8.72124">
        <ele>1454</ele>
        <time>2021-08-06T11:02:51.183Z</time>
      </trkpt>
      <trkpt lat="46.95027" lon="8.72123">
        <ele>1455</ele>
        <time>2021-08-06T11:02:52.183Z</time>
      </trkpt>
      <trkpt lat="46.95027" lon="8.72122">
        <ele>1455</ele>
        <time>2021-08-06T11:02:53.183Z</time>
      </trkpt>
      <trkpt lat="46.95027" lon="8.7212">
        <ele>1455</ele>
        <time>2021-08-06T11:02:54.183Z</time>
      </trkpt>
      <trkpt lat="46.95026" lon="8.72119">
        <ele>1456</ele>
        <time>2021-08-06T11:02:55.183Z</time>
      </trkpt>
      <trkpt lat="46.95026" lon="8.72117">
        <ele>1456</ele>
        <time>2021-08-06T11:02:56.183Z</time>
      </trkpt>
      <trkpt lat="46.95025" lon="8.72116">
        <ele>1456</ele>
        <time>2021-08-06T11:02:57.182Z</time>
      </trkpt>
      <trkpt lat="46.95024" lon="8.72115">
        <ele>1456</ele>
        <time>2021-08-06T11:02:58.183Z</time>
      </trkpt>
      <trkpt lat="46.95023" lon="8.72114">
        <ele>1455</ele>
        <time>2021-08-06T11:02:59.182Z</time>
      </trkpt>
      <trkpt lat="46.95023" lon="8.72114">
        <ele>1455</ele>
        <time>2021-08-06T11:03:00.183Z</time>
      </trkpt>
      <trkpt lat="46.95022" lon="8.72113">
        <ele>1455</ele>
        <time>2021-08-06T11:03:01.182Z</time>
      </trkpt>
      <trkpt lat="46.95021" lon="8.72113">
        <ele>1455</ele>
        <time>2021-08-06T11:03:02.183Z</time>
      </trkpt>
      <trkpt lat="46.95022" lon="8.72112">
        <ele>1454</ele>
        <time>2021-08-06T11:03:03.183Z</time>
      </trkpt>
      <trkpt lat="46.95022" lon="8.72112">
        <ele>1454</ele>
        <time>2021-08-06T11:03:04.183Z</time>
      </trkpt>
      <trkpt lat="46.95023" lon="8.7211">
        <ele>1453</ele>
        <time>2021-08-06T11:03:05.183Z</time>
      </trkpt>
      <trkpt lat="46.95023" lon="8.7211">
        <ele>1453</ele>
        <time>2021-08-06T11:03:06.184Z</time>
      </trkpt>
      <trkpt lat="46.95023" lon="8.72109">
        <ele>1453</ele>
        <time>2021-08-06T11:03:07.183Z</time>
      </trkpt>
      <trkpt lat="46.95021" lon="8.72108">
        <ele>1453</ele>
        <time>2021-08-06T11:03:08.184Z</time>
      </trkpt>
      <trkpt lat="46.9502" lon="8.72109">
        <ele>1453</ele>
        <time>2021-08-06T11:03:09.184Z</time>
      </trkpt>
      <trkpt lat="46.9502" lon="8.72111">
        <ele>1453</ele>
        <time>2021-08-06T11:03:10.183Z</time>
      </trkpt>
      <trkpt lat="46.9502" lon="8.72111">
        <ele>1452</ele>
        <time>2021-08-06T11:03:11.184Z</time>
      </trkpt>
      <trkpt lat="46.95021" lon="8.72111">
        <ele>1452</ele>
        <time>2021-08-06T11:03:12.184Z</time>
      </trkpt>
      <trkpt lat="46.9502" lon="8.72112">
        <ele>1451</ele>
        <time>2021-08-06T11:03:13.184Z</time>
      </trkpt>
      <trkpt lat="46.9502" lon="8.72112">
        <ele>1454</ele>
        <time>2021-08-06T11:03:14.186Z</time>
      </trkpt>
      <trkpt lat="46.95019" lon="8.72111">
        <ele>1455</ele>
        <time>2021-08-06T11:03:15.185Z</time>
      </trkpt>
      <trkpt lat="46.95019" lon="8.7211">
        <ele>1455</ele>
        <time>2021-08-06T11:03:16.186Z</time>
      </trkpt>
      <trkpt lat="46.95019" lon="8.72109">
        <ele>1456</ele>
        <time>2021-08-06T11:03:17.185Z</time>
      </trkpt>
      <trkpt lat="46.95019" lon="8.72109">
        <ele>1456</ele>
        <time>2021-08-06T11:03:18.186Z</time>
      </trkpt>
      <trkpt lat="46.95018" lon="8.72108">
        <ele>1456</ele>
        <time>2021-08-06T11:03:19.186Z</time>
      </trkpt>
      <trkpt lat="46.95017" lon="8.72108">
        <ele>1456</ele>
        <time>2021-08-06T11:03:20.186Z</time>
      </trkpt>
      <trkpt lat="46.95017" lon="8.72107">
        <ele>1456</ele>
        <time>2021-08-06T11:03:21.186Z</time>
      </trkpt>
      <trkpt lat="46.95017" lon="8.72106">
        <ele>1456</ele>
        <time>2021-08-06T11:03:22.186Z</time>
      </trkpt>
      <trkpt lat="46.95016" lon="8.72106">
        <ele>1456</ele>
        <time>2021-08-06T11:03:23.185Z</time>
      </trkpt>
      <trkpt lat="46.95015" lon="8.72105">
        <ele>1457</ele>
        <time>2021-08-06T11:03:24.185Z</time>
      </trkpt>
      <trkpt lat="46.95014" lon="8.72105">
        <ele>1457</ele>
        <time>2021-08-06T11:03:25.185Z</time>
      </trkpt>
      <trkpt lat="46.95014" lon="8.72104">
        <ele>1458</ele>
        <time>2021-08-06T11:03:26.186Z</time>
      </trkpt>
      <trkpt lat="46.95014" lon="8.72103">
        <ele>1458</ele>
        <time>2021-08-06T11:03:27.186Z</time>
      </trkpt>
      <trkpt lat="46.95014" lon="8.72102">
        <ele>1458</ele>
        <time>2021-08-06T11:03:28.186Z</time>
      </trkpt>
      <trkpt lat="46.95013" lon="8.72102">
        <ele>1458</ele>
        <time>2021-08-06T11:03:29.186Z</time>
      </trkpt>
      <trkpt lat="46.95013" lon="8.721">
        <ele>1458</ele>
        <time>2021-08-06T11:03:30.186Z</time>
      </trkpt>
      <trkpt lat="46.95013" lon="8.72099">
        <ele>1458</ele>
        <time>2021-08-06T11:03:31.185Z</time>
      </trkpt>
      <trkpt lat="46.95012" lon="8.72098">
        <ele>1458</ele>
        <time>2021-08-06T11:03:32.186Z</time>
      </trkpt>
      <trkpt lat="46.95012" lon="8.72097">
        <ele>1458</ele>
        <time>2021-08-06T11:03:43.242Z</time>
      </trkpt>
      <trkpt lat="46.95012" lon="8.72096">
        <ele>1458</ele>
        <time>2021-08-06T11:03:44.243Z</time>
      </trkpt>
      <trkpt lat="46.95011" lon="8.72095">
        <ele>1458</ele>
        <time>2021-08-06T11:03:45.243Z</time>
      </trkpt>
      <trkpt lat="46.9501" lon="8.72094">
        <ele>1458</ele>
        <time>2021-08-06T11:03:46.243Z</time>
      </trkpt>
      <trkpt lat="46.9501" lon="8.72093">
        <ele>1457</ele>
        <time>2021-08-06T11:03:47.242Z</time>
      </trkpt>
      <trkpt lat="46.9501" lon="8.72091">
        <ele>1457</ele>
        <time>2021-08-06T11:03:48.242Z</time>
      </trkpt>
      <trkpt lat="46.9501" lon="8.7209">
        <ele>1457</ele>
        <time>2021-08-06T11:03:49.243Z</time>
      </trkpt>
      <trkpt lat="46.9501" lon="8.72089">
        <ele>1458</ele>
        <time>2021-08-06T11:03:50.243Z</time>
      </trkpt>
      <trkpt lat="46.95009" lon="8.72088">
        <ele>1458</ele>
        <time>2021-08-06T11:03:51.243Z</time>
      </trkpt>
      <trkpt lat="46.95008" lon="8.72087">
        <ele>1458</ele>
        <time>2021-08-06T11:03:52.243Z</time>
      </trkpt>
      <trkpt lat="46.95008" lon="8.72087">
        <ele>1459</ele>
        <time>2021-08-06T11:03:53.242Z</time>
      </trkpt>
      <trkpt lat="46.95008" lon="8.72086">
        <ele>1459</ele>
        <time>2021-08-06T11:03:54.243Z</time>
      </trkpt>
      <trkpt lat="46.95007" lon="8.72086">
        <ele>1460</ele>
        <time>2021-08-06T11:03:58.380Z</time>
      </trkpt>
      <trkpt lat="46.95006" lon="8.72086">
        <ele>1460</ele>
        <time>2021-08-06T11:03:59.379Z</time>
      </trkpt>
      <trkpt lat="46.95006" lon="8.72086">
        <ele>1460</ele>
        <time>2021-08-06T11:04:00.380Z</time>
      </trkpt>
      <trkpt lat="46.95005" lon="8.72086">
        <ele>1460</ele>
        <time>2021-08-06T11:04:40.487Z</time>
      </trkpt>
      <trkpt lat="46.95004" lon="8.72086">
        <ele>1460</ele>
        <time>2021-08-06T11:04:41.487Z</time>
      </trkpt>
      <trkpt lat="46.95003" lon="8.72085">
        <ele>1461</ele>
        <time>2021-08-06T11:04:54.358Z</time>
      </trkpt>
      <trkpt lat="46.95003" lon="8.72085">
        <ele>1461</ele>
        <time>2021-08-06T11:04:55.358Z</time>
      </trkpt>
      <trkpt lat="46.95002" lon="8.72084">
        <ele>1461</ele>
        <time>2021-08-06T11:04:56.358Z</time>
      </trkpt>
      <trkpt lat="46.95001" lon="8.72084">
        <ele>1460</ele>
        <time>2021-08-06T11:04:57.357Z</time>
      </trkpt>
      <trkpt lat="46.95001" lon="8.72084">
        <ele>1459</ele>
        <time>2021-08-06T11:05:01.324Z</time>
      </trkpt>
      <trkpt lat="46.95" lon="8.72084">
        <ele>1459</ele>
        <time>2021-08-06T11:05:02.324Z</time>
      </trkpt>
      <trkpt lat="46.94999" lon="8.72083">
        <ele>1458</ele>
        <time>2021-08-06T11:05:03.325Z</time>
      </trkpt>
      <trkpt lat="46.94999" lon="8.72083">
        <ele>1457</ele>
        <time>2021-08-06T11:05:04.324Z</time>
      </trkpt>
      <trkpt lat="46.94998" lon="8.72083">
        <ele>1457</ele>
        <time>2021-08-06T11:05:10.330Z</time>
      </trkpt>
      <trkpt lat="46.94997" lon="8.72083">
        <ele>1457</ele>
        <time>2021-08-06T11:05:11.331Z</time>
      </trkpt>
      <trkpt lat="46.94996" lon="8.72083">
        <ele>1458</ele>
        <time>2021-08-06T11:05:18.222Z</time>
      </trkpt>
      <trkpt lat="46.94995" lon="8.72084">
        <ele>1458</ele>
        <time>2021-08-06T11:05:19.221Z</time>
      </trkpt>
      <trkpt lat="46.94995" lon="8.72084">
        <ele>1459</ele>
        <time>2021-08-06T11:05:20.221Z</time>
      </trkpt>
      <trkpt lat="46.94994" lon="8.72083">
        <ele>1459</ele>
        <time>2021-08-06T11:05:21.222Z</time>
      </trkpt>
      <trkpt lat="46.94993" lon="8.72083">
        <ele>1459</ele>
        <time>2021-08-06T11:05:26.377Z</time>
      </trkpt>
      <trkpt lat="46.94992" lon="8.72083">
        <ele>1460</ele>
        <time>2021-08-06T11:05:30.227Z</time>
      </trkpt>
      <trkpt lat="46.94991" lon="8.72082">
        <ele>1460</ele>
        <time>2021-08-06T11:05:44.103Z</time>
      </trkpt>
      <trkpt lat="46.9499" lon="8.72082">
        <ele>1460</ele>
        <time>2021-08-06T11:05:45.103Z</time>
      </trkpt>
      <trkpt lat="46.94989" lon="8.72082">
        <ele>1461</ele>
        <time>2021-08-06T11:05:46.104Z</time>
      </trkpt>
      <trkpt lat="46.94988" lon="8.72083">
        <ele>1461</ele>
        <time>2021-08-06T11:05:47.104Z</time>
      </trkpt>
      <trkpt lat="46.94987" lon="8.72083">
        <ele>1461</ele>
        <time>2021-08-06T11:05:57.086Z</time>
      </trkpt>
      <trkpt lat="46.94986" lon="8.72083">
        <ele>1462</ele>
        <time>2021-08-06T11:05:58.085Z</time>
      </trkpt>
      <trkpt lat="46.94985" lon="8.72083">
        <ele>1462</ele>
        <time>2021-08-06T11:06:15.000Z</time>
      </trkpt>
      <trkpt lat="46.94984" lon="8.72083">
        <ele>1462</ele>
        <time>2021-08-06T11:06:16.000Z</time>
      </trkpt>
      <trkpt lat="46.94983" lon="8.72082">
        <ele>1462</ele>
        <time>2021-08-06T11:06:21.899Z</time>
      </trkpt>
      <trkpt lat="46.94983" lon="8.72082">
        <ele>1462</ele>
        <time>2021-08-06T11:06:22.899Z</time>
      </trkpt>
      <trkpt lat="46.94982" lon="8.72081">
        <ele>1462</ele>
        <time>2021-08-06T11:06:23.898Z</time>
      </trkpt>
      <trkpt lat="46.94981" lon="8.7208">
        <ele>1462</ele>
        <time>2021-08-06T11:06:31.945Z</time>
      </trkpt>
      <trkpt lat="46.9498" lon="8.72079">
        <ele>1461</ele>
        <time>2021-08-06T11:06:32.946Z</time>
      </trkpt>
      <trkpt lat="46.9498" lon="8.72078">
        <ele>1461</ele>
        <time>2021-08-06T11:06:33.946Z</time>
      </trkpt>
      <trkpt lat="46.94979" lon="8.72078">
        <ele>1461</ele>
        <time>2021-08-06T11:06:34.945Z</time>
      </trkpt>
      <trkpt lat="46.94978" lon="8.72077">
        <ele>1461</ele>
        <time>2021-08-06T11:06:35.945Z</time>
      </trkpt>
      <trkpt lat="46.94978" lon="8.72077">
        <ele>1461</ele>
        <time>2021-08-06T11:06:36.945Z</time>
      </trkpt>
      <trkpt lat="46.94977" lon="8.72077">
        <ele>1461</ele>
        <time>2021-08-06T11:06:37.946Z</time>
      </trkpt>
      <trkpt lat="46.94976" lon="8.72076">
        <ele>1460</ele>
        <time>2021-08-06T11:06:38.946Z</time>
      </trkpt>
      <trkpt lat="46.94975" lon="8.72075">
        <ele>1460</ele>
        <time>2021-08-06T11:06:39.946Z</time>
      </trkpt>
      <trkpt lat="46.94974" lon="8.72073">
        <ele>1460</ele>
        <time>2021-08-06T11:06:40.946Z</time>
      </trkpt>
      <trkpt lat="46.94974" lon="8.72072">
        <ele>1461</ele>
        <time>2021-08-06T11:06:41.945Z</time>
      </trkpt>
      <trkpt lat="46.94974" lon="8.72071">
        <ele>1461</ele>
        <time>2021-08-06T11:06:42.945Z</time>
      </trkpt>
      <trkpt lat="46.94974" lon="8.7207">
        <ele>1460</ele>
        <time>2021-08-06T11:06:43.946Z</time>
      </trkpt>
      <trkpt lat="46.94973" lon="8.72069">
        <ele>1460</ele>
        <time>2021-08-06T11:06:44.946Z</time>
      </trkpt>
      <trkpt lat="46.94973" lon="8.72068">
        <ele>1460</ele>
        <time>2021-08-06T11:06:45.945Z</time>
      </trkpt>
      <trkpt lat="46.94972" lon="8.72066">
        <ele>1460</ele>
        <time>2021-08-06T11:06:46.945Z</time>
      </trkpt>
      <trkpt lat="46.94972" lon="8.72065">
        <ele>1459</ele>
        <time>2021-08-06T11:06:47.946Z</time>
      </trkpt>
      <trkpt lat="46.94971" lon="8.72064">
        <ele>1459</ele>
        <time>2021-08-06T11:06:48.946Z</time>
      </trkpt>
      <trkpt lat="46.9497" lon="8.72062">
        <ele>1458</ele>
        <time>2021-08-06T11:06:49.945Z</time>
      </trkpt>
      <trkpt lat="46.9497" lon="8.72061">
        <ele>1458</ele>
        <time>2021-08-06T11:06:50.945Z</time>
      </trkpt>
      <trkpt lat="46.94969" lon="8.7206">
        <ele>1459</ele>
        <time>2021-08-06T11:06:51.945Z</time>
      </trkpt>
      <trkpt lat="46.94968" lon="8.72059">
        <ele>1459</ele>
        <time>2021-08-06T11:06:52.946Z</time>
      </trkpt>
      <trkpt lat="46.94968" lon="8.72058">
        <ele>1459</ele>
        <time>2021-08-06T11:06:53.945Z</time>
      </trkpt>
      <trkpt lat="46.94967" lon="8.72057">
        <ele>1459</ele>
        <time>2021-08-06T11:06:54.945Z</time>
      </trkpt>
      <trkpt lat="46.94967" lon="8.72056">
        <ele>1459</ele>
        <time>2021-08-06T11:06:55.945Z</time>
      </trkpt>
      <trkpt lat="46.94966" lon="8.72055">
        <ele>1460</ele>
        <time>2021-08-06T11:06:56.945Z</time>
      </trkpt>
      <trkpt lat="46.94965" lon="8.72054">
        <ele>1460</ele>
        <time>2021-08-06T11:06:57.945Z</time>
      </trkpt>
      <trkpt lat="46.94964" lon="8.72053">
        <ele>1460</ele>
        <time>2021-08-06T11:06:58.946Z</time>
      </trkpt>
      <trkpt lat="46.94963" lon="8.72052">
        <ele>1461</ele>
        <time>2021-08-06T11:06:59.945Z</time>
      </trkpt>
      <trkpt lat="46.94962" lon="8.72052">
        <ele>1461</ele>
        <time>2021-08-06T11:07:00.945Z</time>
      </trkpt>
      <trkpt lat="46.94961" lon="8.72052">
        <ele>1461</ele>
        <time>2021-08-06T11:07:01.945Z</time>
      </trkpt>
      <trkpt lat="46.9496" lon="8.72052">
        <ele>1462</ele>
        <time>2021-08-06T11:07:02.946Z</time>
      </trkpt>
      <trkpt lat="46.94959" lon="8.72052">
        <ele>1462</ele>
        <time>2021-08-06T11:07:03.946Z</time>
      </trkpt>
      <trkpt lat="46.94958" lon="8.72051">
        <ele>1462</ele>
        <time>2021-08-06T11:07:04.946Z</time>
      </trkpt>
      <trkpt lat="46.94957" lon="8.72051">
        <ele>1462</ele>
        <time>2021-08-06T11:07:05.946Z</time>
      </trkpt>
      <trkpt lat="46.94956" lon="8.72051">
        <ele>1462</ele>
        <time>2021-08-06T11:07:06.946Z</time>
      </trkpt>
      <trkpt lat="46.94954" lon="8.7205">
        <ele>1462</ele>
        <time>2021-08-06T11:07:07.946Z</time>
      </trkpt>
      <trkpt lat="46.94953" lon="8.7205">
        <ele>1463</ele>
        <time>2021-08-06T11:07:08.945Z</time>
      </trkpt>
      <trkpt lat="46.94953" lon="8.7205">
        <ele>1463</ele>
        <time>2021-08-06T11:07:09.946Z</time>
      </trkpt>
      <trkpt lat="46.94952" lon="8.7205">
        <ele>1464</ele>
        <time>2021-08-06T11:07:10.945Z</time>
      </trkpt>
      <trkpt lat="46.94951" lon="8.7205">
        <ele>1464</ele>
        <time>2021-08-06T11:07:11.945Z</time>
      </trkpt>
      <trkpt lat="46.9495" lon="8.72049">
        <ele>1465</ele>
        <time>2021-08-06T11:07:12.946Z</time>
      </trkpt>
      <trkpt lat="46.94949" lon="8.72049">
        <ele>1465</ele>
        <time>2021-08-06T11:07:13.946Z</time>
      </trkpt>
      <trkpt lat="46.94948" lon="8.72048">
        <ele>1465</ele>
        <time>2021-08-06T11:07:14.945Z</time>
      </trkpt>
      <trkpt lat="46.94947" lon="8.72048">
        <ele>1465</ele>
        <time>2021-08-06T11:07:15.945Z</time>
      </trkpt>
      <trkpt lat="46.94946" lon="8.72047">
        <ele>1465</ele>
        <time>2021-08-06T11:07:16.946Z</time>
      </trkpt>
      <trkpt lat="46.94945" lon="8.72046">
        <ele>1465</ele>
        <time>2021-08-06T11:07:17.946Z</time>
      </trkpt>
      <trkpt lat="46.94945" lon="8.72046">
        <ele>1465</ele>
        <time>2021-08-06T11:07:18.946Z</time>
      </trkpt>
      <trkpt lat="46.94944" lon="8.72046">
        <ele>1466</ele>
        <time>2021-08-06T11:07:19.945Z</time>
      </trkpt>
      <trkpt lat="46.94943" lon="8.72046">
        <ele>1466</ele>
        <time>2021-08-06T11:07:20.945Z</time>
      </trkpt>
      <trkpt lat="46.94942" lon="8.72046">
        <ele>1467</ele>
        <time>2021-08-06T11:07:21.945Z</time>
      </trkpt>
      <trkpt lat="46.94942" lon="8.72046">
        <ele>1467</ele>
        <time>2021-08-06T11:07:22.946Z</time>
      </trkpt>
      <trkpt lat="46.94941" lon="8.72045">
        <ele>1468</ele>
        <time>2021-08-06T11:07:23.946Z</time>
      </trkpt>
      <trkpt lat="46.9494" lon="8.72045">
        <ele>1469</ele>
        <time>2021-08-06T11:07:24.945Z</time>
      </trkpt>
      <trkpt lat="46.9494" lon="8.72045">
        <ele>1470</ele>
        <time>2021-08-06T11:07:25.946Z</time>
      </trkpt>
      <trkpt lat="46.9494" lon="8.72043">
        <ele>1470</ele>
        <time>2021-08-06T11:07:26.945Z</time>
      </trkpt>
      <trkpt lat="46.9494" lon="8.72042">
        <ele>1470</ele>
        <time>2021-08-06T11:07:27.946Z</time>
      </trkpt>
      <trkpt lat="46.94941" lon="8.72041">
        <ele>1471</ele>
        <time>2021-08-06T11:07:28.945Z</time>
      </trkpt>
      <trkpt lat="46.94941" lon="8.7204">
        <ele>1471</ele>
        <time>2021-08-06T11:07:29.945Z</time>
      </trkpt>
      <trkpt lat="46.94941" lon="8.72039">
        <ele>1470</ele>
        <time>2021-08-06T11:07:30.945Z</time>
      </trkpt>
      <trkpt lat="46.9494" lon="8.72038">
        <ele>1470</ele>
        <time>2021-08-06T11:07:31.946Z</time>
      </trkpt>
      <trkpt lat="46.9494" lon="8.72037">
        <ele>1470</ele>
        <time>2021-08-06T11:07:32.945Z</time>
      </trkpt>
      <trkpt lat="46.94939" lon="8.72036">
        <ele>1470</ele>
        <time>2021-08-06T11:07:33.946Z</time>
      </trkpt>
      <trkpt lat="46.94939" lon="8.72035">
        <ele>1470</ele>
        <time>2021-08-06T11:07:34.945Z</time>
      </trkpt>
      <trkpt lat="46.94939" lon="8.72034">
        <ele>1470</ele>
        <time>2021-08-06T11:08:05.022Z</time>
      </trkpt>
      <trkpt lat="46.94938" lon="8.72033">
        <ele>1470</ele>
        <time>2021-08-06T11:08:06.022Z</time>
      </trkpt>
      <trkpt lat="46.94938" lon="8.72032">
        <ele>1470</ele>
        <time>2021-08-06T11:08:07.022Z</time>
      </trkpt>
      <trkpt lat="46.94937" lon="8.72031">
        <ele>1471</ele>
        <time>2021-08-06T11:08:08.021Z</time>
      </trkpt>
      <trkpt lat="46.94937" lon="8.7203">
        <ele>1471</ele>
        <time>2021-08-06T11:08:09.021Z</time>
      </trkpt>
      <trkpt lat="46.94937" lon="8.72029">
        <ele>1471</ele>
        <time>2021-08-06T11:08:10.021Z</time>
      </trkpt>
      <trkpt lat="46.94936" lon="8.72028">
        <ele>1471</ele>
        <time>2021-08-06T11:08:11.022Z</time>
      </trkpt>
      <trkpt lat="46.94936" lon="8.72026">
        <ele>1471</ele>
        <time>2021-08-06T11:08:12.021Z</time>
      </trkpt>
      <trkpt lat="46.94936" lon="8.72025">
        <ele>1471</ele>
        <time>2021-08-06T11:08:13.022Z</time>
      </trkpt>
      <trkpt lat="46.94935" lon="8.72023">
        <ele>1471</ele>
        <time>2021-08-06T11:08:14.022Z</time>
      </trkpt>
      <trkpt lat="46.94935" lon="8.72022">
        <ele>1471</ele>
        <time>2021-08-06T11:08:15.022Z</time>
      </trkpt>
      <trkpt lat="46.94935" lon="8.7202">
        <ele>1471</ele>
        <time>2021-08-06T11:08:16.022Z</time>
      </trkpt>
      <trkpt lat="46.94935" lon="8.72019">
        <ele>1471</ele>
        <time>2021-08-06T11:08:17.022Z</time>
      </trkpt>
      <trkpt lat="46.94935" lon="8.72017">
        <ele>1472</ele>
        <time>2021-08-06T11:08:18.021Z</time>
      </trkpt>
      <trkpt lat="46.94934" lon="8.72016">
        <ele>1472</ele>
        <time>2021-08-06T11:08:19.022Z</time>
      </trkpt>
      <trkpt lat="46.94934" lon="8.72015">
        <ele>1472</ele>
        <time>2021-08-06T11:08:20.021Z</time>
      </trkpt>
      <trkpt lat="46.94934" lon="8.72014">
        <ele>1472</ele>
        <time>2021-08-06T11:08:21.021Z</time>
      </trkpt>
      <trkpt lat="46.94934" lon="8.72013">
        <ele>1473</ele>
        <time>2021-08-06T11:08:22.022Z</time>
      </trkpt>
      <trkpt lat="46.94933" lon="8.72011">
        <ele>1473</ele>
        <time>2021-08-06T11:08:23.022Z</time>
      </trkpt>
      <trkpt lat="46.94933" lon="8.7201">
        <ele>1473</ele>
        <time>2021-08-06T11:08:24.022Z</time>
      </trkpt>
      <trkpt lat="46.94933" lon="8.72009">
        <ele>1473</ele>
        <time>2021-08-06T11:08:25.022Z</time>
      </trkpt>
      <trkpt lat="46.94932" lon="8.72007">
        <ele>1473</ele>
        <time>2021-08-06T11:08:26.022Z</time>
      </trkpt>
      <trkpt lat="46.94931" lon="8.72006">
        <ele>1473</ele>
        <time>2021-08-06T11:08:27.022Z</time>
      </trkpt>
      <trkpt lat="46.94931" lon="8.72005">
        <ele>1473</ele>
        <time>2021-08-06T11:08:28.022Z</time>
      </trkpt>
      <trkpt lat="46.9493" lon="8.72005">
        <ele>1473</ele>
        <time>2021-08-06T11:08:29.022Z</time>
      </trkpt>
      <trkpt lat="46.94929" lon="8.72005">
        <ele>1473</ele>
        <time>2021-08-06T11:08:30.022Z</time>
      </trkpt>
      <trkpt lat="46.94928" lon="8.72005">
        <ele>1473</ele>
        <time>2021-08-06T11:08:31.022Z</time>
      </trkpt>
      <trkpt lat="46.94928" lon="8.72004">
        <ele>1473</ele>
        <time>2021-08-06T11:08:32.022Z</time>
      </trkpt>
      <trkpt lat="46.94927" lon="8.72005">
        <ele>1474</ele>
        <time>2021-08-06T11:08:33.022Z</time>
      </trkpt>
      <trkpt lat="46.94926" lon="8.72006">
        <ele>1474</ele>
        <time>2021-08-06T11:08:34.021Z</time>
      </trkpt>
      <trkpt lat="46.94925" lon="8.72006">
        <ele>1474</ele>
        <time>2021-08-06T11:08:35.022Z</time>
      </trkpt>
      <trkpt lat="46.94924" lon="8.72007">
        <ele>1474</ele>
        <time>2021-08-06T11:08:36.022Z</time>
      </trkpt>
      <trkpt lat="46.94923" lon="8.72007">
        <ele>1475</ele>
        <time>2021-08-06T11:08:37.021Z</time>
      </trkpt>
      <trkpt lat="46.94922" lon="8.72007">
        <ele>1474</ele>
        <time>2021-08-06T11:08:41.118Z</time>
      </trkpt>
      <trkpt lat="46.94921" lon="8.72008">
        <ele>1474</ele>
        <time>2021-08-06T11:08:42.118Z</time>
      </trkpt>
      <trkpt lat="46.9492" lon="8.72008">
        <ele>1473</ele>
        <time>2021-08-06T11:08:43.119Z</time>
      </trkpt>
      <trkpt lat="46.9492" lon="8.72009">
        <ele>1473</ele>
        <time>2021-08-06T11:08:44.119Z</time>
      </trkpt>
      <trkpt lat="46.94919" lon="8.72009">
        <ele>1473</ele>
        <time>2021-08-06T11:08:48.206Z</time>
      </trkpt>
      <trkpt lat="46.94918" lon="8.7201">
        <ele>1472</ele>
        <time>2021-08-06T11:08:49.206Z</time>
      </trkpt>
      <trkpt lat="46.94916" lon="8.7201">
        <ele>1472</ele>
        <time>2021-08-06T11:08:50.206Z</time>
      </trkpt>
      <trkpt lat="46.94916" lon="8.72011">
        <ele>1472</ele>
        <time>2021-08-06T11:08:51.206Z</time>
      </trkpt>
      <trkpt lat="46.94915" lon="8.72011">
        <ele>1472</ele>
        <time>2021-08-06T11:08:52.205Z</time>
      </trkpt>
      <trkpt lat="46.94914" lon="8.72012">
        <ele>1471</ele>
        <time>2021-08-06T11:08:53.206Z</time>
      </trkpt>
      <trkpt lat="46.94913" lon="8.72013">
        <ele>1471</ele>
        <time>2021-08-06T11:08:54.206Z</time>
      </trkpt>
      <trkpt lat="46.94913" lon="8.72013">
        <ele>1471</ele>
        <time>2021-08-06T11:08:55.206Z</time>
      </trkpt>
      <trkpt lat="46.94912" lon="8.72014">
        <ele>1471</ele>
        <time>2021-08-06T11:08:56.205Z</time>
      </trkpt>
      <trkpt lat="46.94911" lon="8.72015">
        <ele>1471</ele>
        <time>2021-08-06T11:08:57.205Z</time>
      </trkpt>
      <trkpt lat="46.9491" lon="8.72015">
        <ele>1471</ele>
        <time>2021-08-06T11:08:58.205Z</time>
      </trkpt>
      <trkpt lat="46.9491" lon="8.72016">
        <ele>1471</ele>
        <time>2021-08-06T11:08:59.206Z</time>
      </trkpt>
      <trkpt lat="46.94909" lon="8.72016">
        <ele>1471</ele>
        <time>2021-08-06T11:09:00.206Z</time>
      </trkpt>
      <trkpt lat="46.94908" lon="8.72016">
        <ele>1472</ele>
        <time>2021-08-06T11:09:01.206Z</time>
      </trkpt>
      <trkpt lat="46.94907" lon="8.72016">
        <ele>1472</ele>
        <time>2021-08-06T11:09:02.205Z</time>
      </trkpt>
      <trkpt lat="46.94907" lon="8.72016">
        <ele>1472</ele>
        <time>2021-08-06T11:09:03.206Z</time>
      </trkpt>
      <trkpt lat="46.94906" lon="8.72015">
        <ele>1473</ele>
        <time>2021-08-06T11:09:04.206Z</time>
      </trkpt>
      <trkpt lat="46.94905" lon="8.72015">
        <ele>1473</ele>
        <time>2021-08-06T11:09:05.206Z</time>
      </trkpt>
      <trkpt lat="46.94905" lon="8.72015">
        <ele>1474</ele>
        <time>2021-08-06T11:09:06.205Z</time>
      </trkpt>
      <trkpt lat="46.94905" lon="8.72015">
        <ele>1474</ele>
        <time>2021-08-06T11:09:07.206Z</time>
      </trkpt>
      <trkpt lat="46.94904" lon="8.72014">
        <ele>1475</ele>
        <time>2021-08-06T11:09:08.206Z</time>
      </trkpt>
      <trkpt lat="46.94903" lon="8.72012">
        <ele>1475</ele>
        <time>2021-08-06T11:09:09.206Z</time>
      </trkpt>
      <trkpt lat="46.94902" lon="8.72011">
        <ele>1475</ele>
        <time>2021-08-06T11:09:10.206Z</time>
      </trkpt>
      <trkpt lat="46.94901" lon="8.7201">
        <ele>1476</ele>
        <time>2021-08-06T11:09:11.205Z</time>
      </trkpt>
      <trkpt lat="46.949" lon="8.72009">
        <ele>1476</ele>
        <time>2021-08-06T11:09:12.205Z</time>
      </trkpt>
      <trkpt lat="46.94899" lon="8.72008">
        <ele>1476</ele>
        <time>2021-08-06T11:09:13.205Z</time>
      </trkpt>
      <trkpt lat="46.94898" lon="8.72008">
        <ele>1477</ele>
        <time>2021-08-06T11:09:19.357Z</time>
      </trkpt>
      <trkpt lat="46.94897" lon="8.72007">
        <ele>1477</ele>
        <time>2021-08-06T11:09:20.358Z</time>
      </trkpt>
      <trkpt lat="46.94897" lon="8.72007">
        <ele>1477</ele>
        <time>2021-08-06T11:09:21.358Z</time>
      </trkpt>
      <trkpt lat="46.94896" lon="8.72006">
        <ele>1477</ele>
        <time>2021-08-06T11:09:22.358Z</time>
      </trkpt>
      <trkpt lat="46.94896" lon="8.72006">
        <ele>1477</ele>
        <time>2021-08-06T11:09:23.358Z</time>
      </trkpt>
      <trkpt lat="46.94896" lon="8.72005">
        <ele>1477</ele>
        <time>2021-08-06T11:09:24.357Z</time>
      </trkpt>
      <trkpt lat="46.94895" lon="8.72003">
        <ele>1477</ele>
        <time>2021-08-06T11:09:25.357Z</time>
      </trkpt>
      <trkpt lat="46.94895" lon="8.72002">
        <ele>1477</ele>
        <time>2021-08-06T11:09:26.357Z</time>
      </trkpt>
      <trkpt lat="46.94894" lon="8.72001">
        <ele>1477</ele>
        <time>2021-08-06T11:09:27.358Z</time>
      </trkpt>
      <trkpt lat="46.94894" lon="8.72">
        <ele>1477</ele>
        <time>2021-08-06T11:09:28.357Z</time>
      </trkpt>
      <trkpt lat="46.94893" lon="8.71999">
        <ele>1476</ele>
        <time>2021-08-06T11:09:29.358Z</time>
      </trkpt>
      <trkpt lat="46.94892" lon="8.71997">
        <ele>1476</ele>
        <time>2021-08-06T11:09:30.358Z</time>
      </trkpt>
      <trkpt lat="46.94892" lon="8.71996">
        <ele>1476</ele>
        <time>2021-08-06T11:09:31.357Z</time>
      </trkpt>
      <trkpt lat="46.94891" lon="8.71995">
        <ele>1476</ele>
        <time>2021-08-06T11:09:32.358Z</time>
      </trkpt>
      <trkpt lat="46.9489" lon="8.71995">
        <ele>1476</ele>
        <time>2021-08-06T11:09:33.357Z</time>
      </trkpt>
      <trkpt lat="46.9489" lon="8.71994">
        <ele>1477</ele>
        <time>2021-08-06T11:09:36.456Z</time>
      </trkpt>
      <trkpt lat="46.94889" lon="8.71993">
        <ele>1477</ele>
        <time>2021-08-06T11:09:37.455Z</time>
      </trkpt>
      <trkpt lat="46.94888" lon="8.71994">
        <ele>1478</ele>
        <time>2021-08-06T11:09:38.456Z</time>
      </trkpt>
      <trkpt lat="46.94887" lon="8.71993">
        <ele>1478</ele>
        <time>2021-08-06T11:09:39.456Z</time>
      </trkpt>
      <trkpt lat="46.94887" lon="8.71993">
        <ele>1478</ele>
        <time>2021-08-06T11:09:41.443Z</time>
      </trkpt>
      <trkpt lat="46.94886" lon="8.71992">
        <ele>1478</ele>
        <time>2021-08-06T11:09:42.443Z</time>
      </trkpt>
      <trkpt lat="46.94886" lon="8.71992">
        <ele>1478</ele>
        <time>2021-08-06T11:09:43.442Z</time>
      </trkpt>
      <trkpt lat="46.94885" lon="8.71991">
        <ele>1478</ele>
        <time>2021-08-06T11:09:44.443Z</time>
      </trkpt>
      <trkpt lat="46.94885" lon="8.7199">
        <ele>1478</ele>
        <time>2021-08-06T11:09:45.443Z</time>
      </trkpt>
      <trkpt lat="46.94885" lon="8.71988">
        <ele>1479</ele>
        <time>2021-08-06T11:09:46.443Z</time>
      </trkpt>
      <trkpt lat="46.94885" lon="8.71987">
        <ele>1478</ele>
        <time>2021-08-06T11:09:47.443Z</time>
      </trkpt>
      <trkpt lat="46.94885" lon="8.71986">
        <ele>1478</ele>
        <time>2021-08-06T11:09:48.442Z</time>
      </trkpt>
      <trkpt lat="46.94885" lon="8.71985">
        <ele>1478</ele>
        <time>2021-08-06T11:09:49.443Z</time>
      </trkpt>
      <trkpt lat="46.94884" lon="8.71983">
        <ele>1478</ele>
        <time>2021-08-06T11:09:50.443Z</time>
      </trkpt>
      <trkpt lat="46.94884" lon="8.71983">
        <ele>1478</ele>
        <time>2021-08-06T11:09:51.442Z</time>
      </trkpt>
      <trkpt lat="46.94883" lon="8.71982">
        <ele>1478</ele>
        <time>2021-08-06T11:09:52.442Z</time>
      </trkpt>
      <trkpt lat="46.94882" lon="8.71982">
        <ele>1478</ele>
        <time>2021-08-06T11:09:53.443Z</time>
      </trkpt>
      <trkpt lat="46.94882" lon="8.71982">
        <ele>1478</ele>
        <time>2021-08-06T11:09:54.442Z</time>
      </trkpt>
      <trkpt lat="46.94881" lon="8.71982">
        <ele>1478</ele>
        <time>2021-08-06T11:09:55.443Z</time>
      </trkpt>
      <trkpt lat="46.9488" lon="8.71982">
        <ele>1479</ele>
        <time>2021-08-06T11:09:56.443Z</time>
      </trkpt>
      <trkpt lat="46.9488" lon="8.71981">
        <ele>1479</ele>
        <time>2021-08-06T11:09:57.443Z</time>
      </trkpt>
      <trkpt lat="46.94878" lon="8.71981">
        <ele>1480</ele>
        <time>2021-08-06T11:09:58.443Z</time>
      </trkpt>
      <trkpt lat="46.94877" lon="8.71981">
        <ele>1480</ele>
        <time>2021-08-06T11:09:59.442Z</time>
      </trkpt>
      <trkpt lat="46.94877" lon="8.7198">
        <ele>1480</ele>
        <time>2021-08-06T11:10:00.442Z</time>
      </trkpt>
      <trkpt lat="46.94876" lon="8.7198">
        <ele>1480</ele>
        <time>2021-08-06T11:10:01.443Z</time>
      </trkpt>
      <trkpt lat="46.94876" lon="8.71979">
        <ele>1480</ele>
        <time>2021-08-06T11:10:02.443Z</time>
      </trkpt>
      <trkpt lat="46.94876" lon="8.71978">
        <ele>1480</ele>
        <time>2021-08-06T11:10:03.443Z</time>
      </trkpt>
      <trkpt lat="46.94876" lon="8.71978">
        <ele>1480</ele>
        <time>2021-08-06T11:10:04.442Z</time>
      </trkpt>
      <trkpt lat="46.94876" lon="8.71977">
        <ele>1480</ele>
        <time>2021-08-06T11:10:05.443Z</time>
      </trkpt>
      <trkpt lat="46.94876" lon="8.71977">
        <ele>1480</ele>
        <time>2021-08-06T11:10:06.442Z</time>
      </trkpt>
      <trkpt lat="46.94876" lon="8.71977">
        <ele>1479</ele>
        <time>2021-08-06T11:10:07.442Z</time>
      </trkpt>
      <trkpt lat="46.94874" lon="8.71977">
        <ele>1479</ele>
        <time>2021-08-06T11:10:08.442Z</time>
      </trkpt>
      <trkpt lat="46.94874" lon="8.71976">
        <ele>1479</ele>
        <time>2021-08-06T11:10:09.443Z</time>
      </trkpt>
      <trkpt lat="46.94873" lon="8.71975">
        <ele>1479</ele>
        <time>2021-08-06T11:10:10.442Z</time>
      </trkpt>
      <trkpt lat="46.94872" lon="8.71974">
        <ele>1479</ele>
        <time>2021-08-06T11:10:11.443Z</time>
      </trkpt>
      <trkpt lat="46.94871" lon="8.71974">
        <ele>1479</ele>
        <time>2021-08-06T11:10:12.443Z</time>
      </trkpt>
      <trkpt lat="46.9487" lon="8.71973">
        <ele>1479</ele>
        <time>2021-08-06T11:10:13.443Z</time>
      </trkpt>
      <trkpt lat="46.9487" lon="8.71973">
        <ele>1478</ele>
        <time>2021-08-06T11:10:14.443Z</time>
      </trkpt>
      <trkpt lat="46.94869" lon="8.71973">
        <ele>1478</ele>
        <time>2021-08-06T11:10:18.627Z</time>
      </trkpt>
      <trkpt lat="46.94868" lon="8.71973">
        <ele>1479</ele>
        <time>2021-08-06T11:10:19.626Z</time>
      </trkpt>
      <trkpt lat="46.94867" lon="8.71973">
        <ele>1479</ele>
        <time>2021-08-06T11:10:20.627Z</time>
      </trkpt>
      <trkpt lat="46.94868" lon="8.71973">
        <ele>1480</ele>
        <time>2021-08-06T11:10:21.627Z</time>
      </trkpt>
      <trkpt lat="46.94868" lon="8.71973">
        <ele>1481</ele>
        <time>2021-08-06T11:10:27.754Z</time>
      </trkpt>
      <trkpt lat="46.94869" lon="8.71973">
        <ele>1481</ele>
        <time>2021-08-06T11:10:28.753Z</time>
      </trkpt>
      <trkpt lat="46.9487" lon="8.71972">
        <ele>1481</ele>
        <time>2021-08-06T11:10:29.753Z</time>
      </trkpt>
      <trkpt lat="46.9487" lon="8.71972">
        <ele>1480</ele>
        <time>2021-08-06T11:10:39.833Z</time>
      </trkpt>
      <trkpt lat="46.9487" lon="8.71972">
        <ele>1480</ele>
        <time>2021-08-06T11:10:40.833Z</time>
      </trkpt>
      <trkpt lat="46.94868" lon="8.71971">
        <ele>1481</ele>
        <time>2021-08-06T11:10:41.834Z</time>
      </trkpt>
      <trkpt lat="46.94868" lon="8.71971">
        <ele>1481</ele>
        <time>2021-08-06T11:10:47.877Z</time>
      </trkpt>
      <trkpt lat="46.94868" lon="8.71972">
        <ele>1481</ele>
        <time>2021-08-06T11:10:48.876Z</time>
      </trkpt>
      <trkpt lat="46.94868" lon="8.71973">
        <ele>1481</ele>
        <time>2021-08-06T11:10:49.877Z</time>
      </trkpt>
      <trkpt lat="46.94868" lon="8.71973">
        <ele>1481</ele>
        <time>2021-08-06T11:10:50.876Z</time>
      </trkpt>
      <trkpt lat="46.94868" lon="8.71974">
        <ele>1480</ele>
        <time>2021-08-06T11:10:51.877Z</time>
      </trkpt>
      <trkpt lat="46.94869" lon="8.71975">
        <ele>1480</ele>
        <time>2021-08-06T11:10:52.876Z</time>
      </trkpt>
      <trkpt lat="46.94867" lon="8.71971">
        <ele>1477</ele>
        <time>2021-08-06T11:10:53.878Z</time>
      </trkpt>
      <trkpt lat="46.94867" lon="8.71971">
        <ele>1478</ele>
        <time>2021-08-06T11:10:55.978Z</time>
      </trkpt>
      <trkpt lat="46.94866" lon="8.71972">
        <ele>1478</ele>
        <time>2021-08-06T11:10:56.977Z</time>
      </trkpt>
      <trkpt lat="46.94865" lon="8.71974">
        <ele>1478</ele>
        <time>2021-08-06T11:10:57.978Z</time>
      </trkpt>
      <trkpt lat="46.94865" lon="8.71975">
        <ele>1478</ele>
        <time>2021-08-06T11:10:58.979Z</time>
      </trkpt>
      <trkpt lat="46.94865" lon="8.71975">
        <ele>1478</ele>
        <time>2021-08-06T11:10:59.978Z</time>
      </trkpt>
      <trkpt lat="46.94865" lon="8.71974">
        <ele>1478</ele>
        <time>2021-08-06T11:11:00.979Z</time>
      </trkpt>
      <trkpt lat="46.94865" lon="8.71973">
        <ele>1477</ele>
        <time>2021-08-06T11:11:01.979Z</time>
      </trkpt>
      <trkpt lat="46.94865" lon="8.71973">
        <ele>1477</ele>
        <time>2021-08-06T11:11:02.979Z</time>
      </trkpt>
      <trkpt lat="46.94865" lon="8.71972">
        <ele>1476</ele>
        <time>2021-08-06T11:11:26.091Z</time>
      </trkpt>
      <trkpt lat="46.94864" lon="8.71971">
        <ele>1475</ele>
        <time>2021-08-06T11:11:27.090Z</time>
      </trkpt>
      <trkpt lat="46.94864" lon="8.71971">
        <ele>1475</ele>
        <time>2021-08-06T11:11:28.091Z</time>
      </trkpt>
      <trkpt lat="46.94863" lon="8.7197">
        <ele>1475</ele>
        <time>2021-08-06T11:11:37.215Z</time>
      </trkpt>
      <trkpt lat="46.94863" lon="8.71969">
        <ele>1475</ele>
        <time>2021-08-06T11:11:38.215Z</time>
      </trkpt>
      <trkpt lat="46.94862" lon="8.71969">
        <ele>1475</ele>
        <time>2021-08-06T11:11:39.216Z</time>
      </trkpt>
      <trkpt lat="46.94862" lon="8.71968">
        <ele>1475</ele>
        <time>2021-08-06T11:11:40.216Z</time>
      </trkpt>
      <trkpt lat="46.94863" lon="8.71968">
        <ele>1475</ele>
        <time>2021-08-06T11:11:41.216Z</time>
      </trkpt>
      <trkpt lat="46.94862" lon="8.71967">
        <ele>1475</ele>
        <time>2021-08-06T11:11:42.216Z</time>
      </trkpt>
      <trkpt lat="46.94862" lon="8.71966">
        <ele>1475</ele>
        <time>2021-08-06T11:12:06.371Z</time>
      </trkpt>
      <trkpt lat="46.94861" lon="8.71965">
        <ele>1475</ele>
        <time>2021-08-06T11:12:07.371Z</time>
      </trkpt>
      <trkpt lat="46.94861" lon="8.71964">
        <ele>1475</ele>
        <time>2021-08-06T11:12:08.372Z</time>
      </trkpt>
      <trkpt lat="46.94861" lon="8.71963">
        <ele>1476</ele>
        <time>2021-08-06T11:12:26.466Z</time>
      </trkpt>
      <trkpt lat="46.9486" lon="8.71963">
        <ele>1476</ele>
        <time>2021-08-06T11:12:27.467Z</time>
      </trkpt>
      <trkpt lat="46.9486" lon="8.71964">
        <ele>1476</ele>
        <time>2021-08-06T11:12:28.466Z</time>
      </trkpt>
      <trkpt lat="46.94861" lon="8.71962">
        <ele>1479</ele>
        <time>2021-08-06T11:12:29.467Z</time>
      </trkpt>
      <trkpt lat="46.94861" lon="8.71961">
        <ele>1479</ele>
        <time>2021-08-06T11:12:30.467Z</time>
      </trkpt>
      <trkpt lat="46.9486" lon="8.7196">
        <ele>1479</ele>
        <time>2021-08-06T11:12:31.466Z</time>
      </trkpt>
      <trkpt lat="46.9486" lon="8.7196">
        <ele>1480</ele>
        <time>2021-08-06T11:12:32.466Z</time>
      </trkpt>
      <trkpt lat="46.94859" lon="8.71959">
        <ele>1480</ele>
        <time>2021-08-06T11:12:33.466Z</time>
      </trkpt>
      <trkpt lat="46.94858" lon="8.71958">
        <ele>1480</ele>
        <time>2021-08-06T11:12:34.466Z</time>
      </trkpt>
      <trkpt lat="46.94857" lon="8.71957">
        <ele>1480</ele>
        <time>2021-08-06T11:12:35.466Z</time>
      </trkpt>
      <trkpt lat="46.94857" lon="8.71956">
        <ele>1480</ele>
        <time>2021-08-06T11:12:36.467Z</time>
      </trkpt>
      <trkpt lat="46.94856" lon="8.71955">
        <ele>1480</ele>
        <time>2021-08-06T11:12:37.467Z</time>
      </trkpt>
      <trkpt lat="46.94856" lon="8.71954">
        <ele>1480</ele>
        <time>2021-08-06T11:12:38.467Z</time>
      </trkpt>
      <trkpt lat="46.94855" lon="8.71954">
        <ele>1480</ele>
        <time>2021-08-06T11:12:39.467Z</time>
      </trkpt>
      <trkpt lat="46.94854" lon="8.71953">
        <ele>1480</ele>
        <time>2021-08-06T11:12:40.467Z</time>
      </trkpt>
      <trkpt lat="46.94854" lon="8.71953">
        <ele>1480</ele>
        <time>2021-08-06T11:12:41.466Z</time>
      </trkpt>
      <trkpt lat="46.94853" lon="8.71952">
        <ele>1480</ele>
        <time>2021-08-06T11:12:51.611Z</time>
      </trkpt>
      <trkpt lat="46.94853" lon="8.71952">
        <ele>1479</ele>
        <time>2021-08-06T11:12:52.612Z</time>
      </trkpt>
      <trkpt lat="46.94851" lon="8.71951">
        <ele>1479</ele>
        <time>2021-08-06T11:12:53.612Z</time>
      </trkpt>
      <trkpt lat="46.94851" lon="8.7195">
        <ele>1479</ele>
        <time>2021-08-06T11:12:54.612Z</time>
      </trkpt>
      <trkpt lat="46.9485" lon="8.71949">
        <ele>1479</ele>
        <time>2021-08-06T11:13:03.760Z</time>
      </trkpt>
      <trkpt lat="46.94849" lon="8.71948">
        <ele>1478</ele>
        <time>2021-08-06T11:13:19.616Z</time>
      </trkpt>
      <trkpt lat="46.94848" lon="8.71948">
        <ele>1478</ele>
        <time>2021-08-06T11:13:55.452Z</time>
      </trkpt>
      <trkpt lat="46.94847" lon="8.71948">
        <ele>1477</ele>
        <time>2021-08-06T11:13:56.453Z</time>
      </trkpt>
      <trkpt lat="46.94846" lon="8.71947">
        <ele>1477</ele>
        <time>2021-08-06T11:14:09.269Z</time>
      </trkpt>
      <trkpt lat="46.94845" lon="8.71946">
        <ele>1477</ele>
        <time>2021-08-06T11:14:10.270Z</time>
      </trkpt>
      <trkpt lat="46.94844" lon="8.71946">
        <ele>1476</ele>
        <time>2021-08-06T11:14:11.270Z</time>
      </trkpt>
      <trkpt lat="46.94842" lon="8.71945">
        <ele>1476</ele>
        <time>2021-08-06T11:14:12.270Z</time>
      </trkpt>
      <trkpt lat="46.94841" lon="8.71945">
        <ele>1475</ele>
        <time>2021-08-06T11:14:13.269Z</time>
      </trkpt>
      <trkpt lat="46.9484" lon="8.71944">
        <ele>1475</ele>
        <time>2021-08-06T11:14:14.270Z</time>
      </trkpt>
      <trkpt lat="46.94839" lon="8.71944">
        <ele>1475</ele>
        <time>2021-08-06T11:14:15.270Z</time>
      </trkpt>
      <trkpt lat="46.94838" lon="8.71944">
        <ele>1475</ele>
        <time>2021-08-06T11:14:16.269Z</time>
      </trkpt>
      <trkpt lat="46.94837" lon="8.71943">
        <ele>1475</ele>
        <time>2021-08-06T11:14:17.270Z</time>
      </trkpt>
      <trkpt lat="46.94837" lon="8.71943">
        <ele>1475</ele>
        <time>2021-08-06T11:14:18.269Z</time>
      </trkpt>
      <trkpt lat="46.94836" lon="8.71942">
        <ele>1475</ele>
        <time>2021-08-06T11:14:19.270Z</time>
      </trkpt>
      <trkpt lat="46.94835" lon="8.71942">
        <ele>1475</ele>
        <time>2021-08-06T11:14:20.270Z</time>
      </trkpt>
      <trkpt lat="46.94835" lon="8.71942">
        <ele>1475</ele>
        <time>2021-08-06T11:14:21.270Z</time>
      </trkpt>
      <trkpt lat="46.94834" lon="8.71941">
        <ele>1475</ele>
        <time>2021-08-06T11:14:22.270Z</time>
      </trkpt>
      <trkpt lat="46.94833" lon="8.71941">
        <ele>1475</ele>
        <time>2021-08-06T11:14:23.269Z</time>
      </trkpt>
      <trkpt lat="46.94832" lon="8.7194">
        <ele>1476</ele>
        <time>2021-08-06T11:14:24.270Z</time>
      </trkpt>
      <trkpt lat="46.94831" lon="8.71939">
        <ele>1476</ele>
        <time>2021-08-06T11:14:25.269Z</time>
      </trkpt>
      <trkpt lat="46.94831" lon="8.71938">
        <ele>1476</ele>
        <time>2021-08-06T11:14:26.270Z</time>
      </trkpt>
      <trkpt lat="46.9483" lon="8.71937">
        <ele>1477</ele>
        <time>2021-08-06T11:14:27.269Z</time>
      </trkpt>
      <trkpt lat="46.94829" lon="8.71936">
        <ele>1477</ele>
        <time>2021-08-06T11:14:28.269Z</time>
      </trkpt>
      <trkpt lat="46.94828" lon="8.71935">
        <ele>1477</ele>
        <time>2021-08-06T11:14:29.270Z</time>
      </trkpt>
      <trkpt lat="46.94828" lon="8.71934">
        <ele>1478</ele>
        <time>2021-08-06T11:14:30.270Z</time>
      </trkpt>
      <trkpt lat="46.94827" lon="8.71934">
        <ele>1478</ele>
        <time>2021-08-06T11:14:31.269Z</time>
      </trkpt>
      <trkpt lat="46.94827" lon="8.71933">
        <ele>1478</ele>
        <time>2021-08-06T11:14:32.269Z</time>
      </trkpt>
      <trkpt lat="46.94826" lon="8.71932">
        <ele>1479</ele>
        <time>2021-08-06T11:14:33.269Z</time>
      </trkpt>
      <trkpt lat="46.94825" lon="8.71931">
        <ele>1479</ele>
        <time>2021-08-06T11:14:34.270Z</time>
      </trkpt>
      <trkpt lat="46.94823" lon="8.7193">
        <ele>1479</ele>
        <time>2021-08-06T11:14:35.269Z</time>
      </trkpt>
      <trkpt lat="46.94823" lon="8.71929">
        <ele>1479</ele>
        <time>2021-08-06T11:14:36.270Z</time>
      </trkpt>
      <trkpt lat="46.94822" lon="8.71928">
        <ele>1479</ele>
        <time>2021-08-06T11:14:37.269Z</time>
      </trkpt>
      <trkpt lat="46.94821" lon="8.71927">
        <ele>1479</ele>
        <time>2021-08-06T11:14:38.269Z</time>
      </trkpt>
      <trkpt lat="46.94821" lon="8.71926">
        <ele>1480</ele>
        <time>2021-08-06T11:14:39.270Z</time>
      </trkpt>
      <trkpt lat="46.94821" lon="8.71925">
        <ele>1480</ele>
        <time>2021-08-06T11:14:40.269Z</time>
      </trkpt>
      <trkpt lat="46.9482" lon="8.71924">
        <ele>1480</ele>
        <time>2021-08-06T11:14:41.270Z</time>
      </trkpt>
      <trkpt lat="46.9482" lon="8.71923">
        <ele>1480</ele>
        <time>2021-08-06T11:14:42.269Z</time>
      </trkpt>
      <trkpt lat="46.9482" lon="8.71922">
        <ele>1480</ele>
        <time>2021-08-06T11:14:43.269Z</time>
      </trkpt>
      <trkpt lat="46.94819" lon="8.71921">
        <ele>1481</ele>
        <time>2021-08-06T11:14:44.269Z</time>
      </trkpt>
      <trkpt lat="46.94819" lon="8.7192">
        <ele>1481</ele>
        <time>2021-08-06T11:14:45.270Z</time>
      </trkpt>
      <trkpt lat="46.94819" lon="8.71919">
        <ele>1481</ele>
        <time>2021-08-06T11:14:46.269Z</time>
      </trkpt>
      <trkpt lat="46.94819" lon="8.71917">
        <ele>1482</ele>
        <time>2021-08-06T11:14:47.269Z</time>
      </trkpt>
      <trkpt lat="46.94818" lon="8.71916">
        <ele>1482</ele>
        <time>2021-08-06T11:14:48.269Z</time>
      </trkpt>
      <trkpt lat="46.94817" lon="8.71916">
        <ele>1482</ele>
        <time>2021-08-06T11:14:49.270Z</time>
      </trkpt>
      <trkpt lat="46.94817" lon="8.71915">
        <ele>1482</ele>
        <time>2021-08-06T11:14:50.269Z</time>
      </trkpt>
      <trkpt lat="46.94816" lon="8.71914">
        <ele>1482</ele>
        <time>2021-08-06T11:14:51.269Z</time>
      </trkpt>
      <trkpt lat="46.94815" lon="8.71913">
        <ele>1482</ele>
        <time>2021-08-06T11:14:52.269Z</time>
      </trkpt>
      <trkpt lat="46.94815" lon="8.71912">
        <ele>1481</ele>
        <time>2021-08-06T11:14:53.270Z</time>
      </trkpt>
      <trkpt lat="46.94815" lon="8.71911">
        <ele>1481</ele>
        <time>2021-08-06T11:14:54.269Z</time>
      </trkpt>
      <trkpt lat="46.94815" lon="8.7191">
        <ele>1481</ele>
        <time>2021-08-06T11:14:55.269Z</time>
      </trkpt>
      <trkpt lat="46.94814" lon="8.71909">
        <ele>1481</ele>
        <time>2021-08-06T11:14:56.270Z</time>
      </trkpt>
      <trkpt lat="46.94813" lon="8.71908">
        <ele>1481</ele>
        <time>2021-08-06T11:14:57.270Z</time>
      </trkpt>
      <trkpt lat="46.94813" lon="8.71907">
        <ele>1481</ele>
        <time>2021-08-06T11:14:58.270Z</time>
      </trkpt>
      <trkpt lat="46.94812" lon="8.71906">
        <ele>1480</ele>
        <time>2021-08-06T11:14:59.270Z</time>
      </trkpt>
      <trkpt lat="46.94812" lon="8.71905">
        <ele>1480</ele>
        <time>2021-08-06T11:15:00.269Z</time>
      </trkpt>
      <trkpt lat="46.94811" lon="8.71904">
        <ele>1480</ele>
        <time>2021-08-06T11:15:01.270Z</time>
      </trkpt>
      <trkpt lat="46.94811" lon="8.71902">
        <ele>1480</ele>
        <time>2021-08-06T11:15:02.270Z</time>
      </trkpt>
      <trkpt lat="46.9481" lon="8.71901">
        <ele>1480</ele>
        <time>2021-08-06T11:15:03.270Z</time>
      </trkpt>
      <trkpt lat="46.94809" lon="8.71901">
        <ele>1480</ele>
        <time>2021-08-06T11:15:04.270Z</time>
      </trkpt>
      <trkpt lat="46.94808" lon="8.719">
        <ele>1480</ele>
        <time>2021-08-06T11:15:06.350Z</time>
      </trkpt>
      <trkpt lat="46.94808" lon="8.71899">
        <ele>1481</ele>
        <time>2021-08-06T11:15:13.186Z</time>
      </trkpt>
      <trkpt lat="46.94807" lon="8.71899">
        <ele>1480</ele>
        <time>2021-08-06T11:15:14.186Z</time>
      </trkpt>
      <trkpt lat="46.94807" lon="8.71898">
        <ele>1480</ele>
        <time>2021-08-06T11:15:15.186Z</time>
      </trkpt>
      <trkpt lat="46.94806" lon="8.71896">
        <ele>1480</ele>
        <time>2021-08-06T11:15:16.187Z</time>
      </trkpt>
      <trkpt lat="46.94805" lon="8.71894">
        <ele>1480</ele>
        <time>2021-08-06T11:15:17.187Z</time>
      </trkpt>
      <trkpt lat="46.94804" lon="8.71893">
        <ele>1480</ele>
        <time>2021-08-06T11:15:18.186Z</time>
      </trkpt>
      <trkpt lat="46.94803" lon="8.71892">
        <ele>1480</ele>
        <time>2021-08-06T11:15:19.187Z</time>
      </trkpt>
      <trkpt lat="46.94802" lon="8.71891">
        <ele>1480</ele>
        <time>2021-08-06T11:15:20.187Z</time>
      </trkpt>
      <trkpt lat="46.94801" lon="8.7189">
        <ele>1480</ele>
        <time>2021-08-06T11:15:21.186Z</time>
      </trkpt>
      <trkpt lat="46.94801" lon="8.71888">
        <ele>1481</ele>
        <time>2021-08-06T11:15:25.225Z</time>
      </trkpt>
      <trkpt lat="46.948" lon="8.71887">
        <ele>1481</ele>
        <time>2021-08-06T11:15:26.225Z</time>
      </trkpt>
      <trkpt lat="46.94799" lon="8.71885">
        <ele>1481</ele>
        <time>2021-08-06T11:15:27.226Z</time>
      </trkpt>
      <trkpt lat="46.94799" lon="8.71884">
        <ele>1482</ele>
        <time>2021-08-06T11:15:28.226Z</time>
      </trkpt>
      <trkpt lat="46.94798" lon="8.71883">
        <ele>1482</ele>
        <time>2021-08-06T11:15:29.226Z</time>
      </trkpt>
      <trkpt lat="46.94798" lon="8.71882">
        <ele>1482</ele>
        <time>2021-08-06T11:15:30.225Z</time>
      </trkpt>
      <trkpt lat="46.94797" lon="8.71881">
        <ele>1482</ele>
        <time>2021-08-06T11:15:31.226Z</time>
      </trkpt>
      <trkpt lat="46.94796" lon="8.7188">
        <ele>1482</ele>
        <time>2021-08-06T11:15:32.226Z</time>
      </trkpt>
      <trkpt lat="46.94795" lon="8.71878">
        <ele>1482</ele>
        <time>2021-08-06T11:15:33.225Z</time>
      </trkpt>
      <trkpt lat="46.94794" lon="8.71877">
        <ele>1481</ele>
        <time>2021-08-06T11:15:34.226Z</time>
      </trkpt>
      <trkpt lat="46.94793" lon="8.71876">
        <ele>1481</ele>
        <time>2021-08-06T11:15:35.225Z</time>
      </trkpt>
      <trkpt lat="46.94792" lon="8.71875">
        <ele>1481</ele>
        <time>2021-08-06T11:15:36.226Z</time>
      </trkpt>
      <trkpt lat="46.94791" lon="8.71874">
        <ele>1480</ele>
        <time>2021-08-06T11:15:37.225Z</time>
      </trkpt>
      <trkpt lat="46.9479" lon="8.71873">
        <ele>1480</ele>
        <time>2021-08-06T11:15:38.226Z</time>
      </trkpt>
      <trkpt lat="46.9479" lon="8.71872">
        <ele>1480</ele>
        <time>2021-08-06T11:15:39.225Z</time>
      </trkpt>
      <trkpt lat="46.94789" lon="8.71871">
        <ele>1480</ele>
        <time>2021-08-06T11:15:40.226Z</time>
      </trkpt>
      <trkpt lat="46.94789" lon="8.71871">
        <ele>1480</ele>
        <time>2021-08-06T11:15:41.226Z</time>
      </trkpt>
      <trkpt lat="46.94788" lon="8.7187">
        <ele>1480</ele>
        <time>2021-08-06T11:15:42.225Z</time>
      </trkpt>
      <trkpt lat="46.94788" lon="8.7187">
        <ele>1479</ele>
        <time>2021-08-06T11:15:43.225Z</time>
      </trkpt>
      <trkpt lat="46.94787" lon="8.71869">
        <ele>1479</ele>
        <time>2021-08-06T11:15:44.226Z</time>
      </trkpt>
      <trkpt lat="46.94787" lon="8.71868">
        <ele>1479</ele>
        <time>2021-08-06T11:15:45.226Z</time>
      </trkpt>
      <trkpt lat="46.94786" lon="8.71867">
        <ele>1478</ele>
        <time>2021-08-06T11:15:46.226Z</time>
      </trkpt>
      <trkpt lat="46.94785" lon="8.71866">
        <ele>1478</ele>
        <time>2021-08-06T11:15:47.226Z</time>
      </trkpt>
      <trkpt lat="46.94784" lon="8.71865">
        <ele>1478</ele>
        <time>2021-08-06T11:15:48.225Z</time>
      </trkpt>
      <trkpt lat="46.94784" lon="8.71864">
        <ele>1479</ele>
        <time>2021-08-06T11:15:49.225Z</time>
      </trkpt>
      <trkpt lat="46.94784" lon="8.71863">
        <ele>1479</ele>
        <time>2021-08-06T11:15:50.225Z</time>
      </trkpt>
      <trkpt lat="46.94783" lon="8.71862">
        <ele>1480</ele>
        <time>2021-08-06T11:15:51.225Z</time>
      </trkpt>
      <trkpt lat="46.94782" lon="8.71861">
        <ele>1480</ele>
        <time>2021-08-06T11:15:52.226Z</time>
      </trkpt>
      <trkpt lat="46.94782" lon="8.7186">
        <ele>1480</ele>
        <time>2021-08-06T11:15:53.226Z</time>
      </trkpt>
      <trkpt lat="46.94781" lon="8.71859">
        <ele>1481</ele>
        <time>2021-08-06T11:15:54.226Z</time>
      </trkpt>
      <trkpt lat="46.9478" lon="8.71858">
        <ele>1481</ele>
        <time>2021-08-06T11:15:55.225Z</time>
      </trkpt>
      <trkpt lat="46.94779" lon="8.71858">
        <ele>1481</ele>
        <time>2021-08-06T11:15:56.226Z</time>
      </trkpt>
      <trkpt lat="46.94778" lon="8.71858">
        <ele>1481</ele>
        <time>2021-08-06T11:15:57.225Z</time>
      </trkpt>
      <trkpt lat="46.94777" lon="8.71858">
        <ele>1481</ele>
        <time>2021-08-06T11:15:58.225Z</time>
      </trkpt>
      <trkpt lat="46.94776" lon="8.71858">
        <ele>1480</ele>
        <time>2021-08-06T11:15:59.225Z</time>
      </trkpt>
      <trkpt lat="46.94775" lon="8.71858">
        <ele>1479</ele>
        <time>2021-08-06T11:16:00.226Z</time>
      </trkpt>
      <trkpt lat="46.94774" lon="8.71857">
        <ele>1479</ele>
        <time>2021-08-06T11:16:01.225Z</time>
      </trkpt>
      <trkpt lat="46.94773" lon="8.71856">
        <ele>1479</ele>
        <time>2021-08-06T11:16:02.226Z</time>
      </trkpt>
      <trkpt lat="46.94772" lon="8.71855">
        <ele>1479</ele>
        <time>2021-08-06T11:16:03.226Z</time>
      </trkpt>
      <trkpt lat="46.94771" lon="8.71854">
        <ele>1479</ele>
        <time>2021-08-06T11:16:04.226Z</time>
      </trkpt>
      <trkpt lat="46.94771" lon="8.71853">
        <ele>1479</ele>
        <time>2021-08-06T11:16:05.225Z</time>
      </trkpt>
      <trkpt lat="46.9477" lon="8.71852">
        <ele>1479</ele>
        <time>2021-08-06T11:16:06.225Z</time>
      </trkpt>
      <trkpt lat="46.9477" lon="8.71851">
        <ele>1479</ele>
        <time>2021-08-06T11:16:07.226Z</time>
      </trkpt>
      <trkpt lat="46.9477" lon="8.71849">
        <ele>1479</ele>
        <time>2021-08-06T11:16:08.225Z</time>
      </trkpt>
      <trkpt lat="46.94769" lon="8.71848">
        <ele>1479</ele>
        <time>2021-08-06T11:16:09.225Z</time>
      </trkpt>
      <trkpt lat="46.94768" lon="8.71847">
        <ele>1480</ele>
        <time>2021-08-06T11:16:10.225Z</time>
      </trkpt>
      <trkpt lat="46.94767" lon="8.71846">
        <ele>1479</ele>
        <time>2021-08-06T11:16:11.226Z</time>
      </trkpt>
      <trkpt lat="46.94766" lon="8.71845">
        <ele>1479</ele>
        <time>2021-08-06T11:16:12.226Z</time>
      </trkpt>
      <trkpt lat="46.94764" lon="8.71844">
        <ele>1478</ele>
        <time>2021-08-06T11:16:13.225Z</time>
      </trkpt>
      <trkpt lat="46.94763" lon="8.71844">
        <ele>1478</ele>
        <time>2021-08-06T11:16:14.226Z</time>
      </trkpt>
      <trkpt lat="46.94762" lon="8.71844">
        <ele>1477</ele>
        <time>2021-08-06T11:16:17.324Z</time>
      </trkpt>
      <trkpt lat="46.94762" lon="8.71844">
        <ele>1477</ele>
        <time>2021-08-06T11:16:18.325Z</time>
      </trkpt>
      <trkpt lat="46.94761" lon="8.71843">
        <ele>1477</ele>
        <time>2021-08-06T11:16:19.324Z</time>
      </trkpt>
      <trkpt lat="46.9476" lon="8.71842">
        <ele>1476</ele>
        <time>2021-08-06T11:16:20.325Z</time>
      </trkpt>
      <trkpt lat="46.9476" lon="8.71842">
        <ele>1477</ele>
        <time>2021-08-06T11:16:21.324Z</time>
      </trkpt>
      <trkpt lat="46.9476" lon="8.71841">
        <ele>1477</ele>
        <time>2021-08-06T11:16:22.325Z</time>
      </trkpt>
      <trkpt lat="46.94759" lon="8.71841">
        <ele>1477</ele>
        <time>2021-08-06T11:16:23.325Z</time>
      </trkpt>
      <trkpt lat="46.94758" lon="8.7184">
        <ele>1476</ele>
        <time>2021-08-06T11:16:24.325Z</time>
      </trkpt>
      <trkpt lat="46.94758" lon="8.7184">
        <ele>1476</ele>
        <time>2021-08-06T11:16:25.325Z</time>
      </trkpt>
      <trkpt lat="46.94758" lon="8.7184">
        <ele>1476</ele>
        <time>2021-08-06T11:16:26.324Z</time>
      </trkpt>
      <trkpt lat="46.94757" lon="8.71838">
        <ele>1476</ele>
        <time>2021-08-06T11:16:27.325Z</time>
      </trkpt>
      <trkpt lat="46.94757" lon="8.71837">
        <ele>1476</ele>
        <time>2021-08-06T11:16:28.324Z</time>
      </trkpt>
      <trkpt lat="46.94756" lon="8.71836">
        <ele>1475</ele>
        <time>2021-08-06T11:16:29.324Z</time>
      </trkpt>
      <trkpt lat="46.94755" lon="8.71835">
        <ele>1475</ele>
        <time>2021-08-06T11:16:43.313Z</time>
      </trkpt>
      <trkpt lat="46.94755" lon="8.71833">
        <ele>1475</ele>
        <time>2021-08-06T11:16:44.312Z</time>
      </trkpt>
      <trkpt lat="46.94754" lon="8.71832">
        <ele>1475</ele>
        <time>2021-08-06T11:16:45.313Z</time>
      </trkpt>
      <trkpt lat="46.94753" lon="8.71831">
        <ele>1475</ele>
        <time>2021-08-06T11:16:46.313Z</time>
      </trkpt>
      <trkpt lat="46.94751" lon="8.7183">
        <ele>1475</ele>
        <time>2021-08-06T11:16:47.313Z</time>
      </trkpt>
      <trkpt lat="46.94751" lon="8.71829">
        <ele>1475</ele>
        <time>2021-08-06T11:16:48.313Z</time>
      </trkpt>
      <trkpt lat="46.9475" lon="8.71827">
        <ele>1475</ele>
        <time>2021-08-06T11:16:49.313Z</time>
      </trkpt>
      <trkpt lat="46.94749" lon="8.71825">
        <ele>1475</ele>
        <time>2021-08-06T11:16:54.311Z</time>
      </trkpt>
      <trkpt lat="46.94748" lon="8.71824">
        <ele>1476</ele>
        <time>2021-08-06T11:16:55.312Z</time>
      </trkpt>
      <trkpt lat="46.94747" lon="8.71823">
        <ele>1476</ele>
        <time>2021-08-06T11:16:56.312Z</time>
      </trkpt>
      <trkpt lat="46.94746" lon="8.71822">
        <ele>1476</ele>
        <time>2021-08-06T11:16:57.312Z</time>
      </trkpt>
      <trkpt lat="46.94745" lon="8.71822">
        <ele>1476</ele>
        <time>2021-08-06T11:16:58.311Z</time>
      </trkpt>
      <trkpt lat="46.94744" lon="8.71821">
        <ele>1476</ele>
        <time>2021-08-06T11:16:59.312Z</time>
      </trkpt>
      <trkpt lat="46.94743" lon="8.71818">
        <ele>1476</ele>
        <time>2021-08-06T11:17:00.312Z</time>
      </trkpt>
      <trkpt lat="46.94742" lon="8.71816">
        <ele>1476</ele>
        <time>2021-08-06T11:17:01.311Z</time>
      </trkpt>
      <trkpt lat="46.94741" lon="8.71813">
        <ele>1476</ele>
        <time>2021-08-06T11:17:02.312Z</time>
      </trkpt>
      <trkpt lat="46.9474" lon="8.71811">
        <ele>1476</ele>
        <time>2021-08-06T11:17:03.311Z</time>
      </trkpt>
      <trkpt lat="46.9474" lon="8.7181">
        <ele>1475</ele>
        <time>2021-08-06T11:17:04.311Z</time>
      </trkpt>
      <trkpt lat="46.94739" lon="8.7181">
        <ele>1474</ele>
        <time>2021-08-06T11:17:05.312Z</time>
      </trkpt>
      <trkpt lat="46.94739" lon="8.7181">
        <ele>1474</ele>
        <time>2021-08-06T11:17:06.312Z</time>
      </trkpt>
      <trkpt lat="46.94741" lon="8.71811">
        <ele>1471</ele>
        <time>2021-08-06T11:17:07.313Z</time>
      </trkpt>
      <trkpt lat="46.9474" lon="8.71812">
        <ele>1471</ele>
        <time>2021-08-06T11:17:08.313Z</time>
      </trkpt>
      <trkpt lat="46.94739" lon="8.71813">
        <ele>1471</ele>
        <time>2021-08-06T11:17:09.313Z</time>
      </trkpt>
      <trkpt lat="46.94738" lon="8.71814">
        <ele>1470</ele>
        <time>2021-08-06T11:17:10.312Z</time>
      </trkpt>
      <trkpt lat="46.94737" lon="8.71815">
        <ele>1470</ele>
        <time>2021-08-06T11:17:11.313Z</time>
      </trkpt>
      <trkpt lat="46.94736" lon="8.71815">
        <ele>1470</ele>
        <time>2021-08-06T11:17:12.313Z</time>
      </trkpt>
      <trkpt lat="46.94735" lon="8.71816">
        <ele>1469</ele>
        <time>2021-08-06T11:17:13.312Z</time>
      </trkpt>
      <trkpt lat="46.94734" lon="8.71815">
        <ele>1466</ele>
        <time>2021-08-06T11:17:14.313Z</time>
      </trkpt>
      <trkpt lat="46.94734" lon="8.71814">
        <ele>1467</ele>
        <time>2021-08-06T11:17:15.313Z</time>
      </trkpt>
      <trkpt lat="46.94733" lon="8.71814">
        <ele>1467</ele>
        <time>2021-08-06T11:17:16.313Z</time>
      </trkpt>
      <trkpt lat="46.94733" lon="8.71814">
        <ele>1467</ele>
        <time>2021-08-06T11:17:17.312Z</time>
      </trkpt>
      <trkpt lat="46.94734" lon="8.71811">
        <ele>1466</ele>
        <time>2021-08-06T11:17:18.313Z</time>
      </trkpt>
      <trkpt lat="46.94735" lon="8.7181">
        <ele>1466</ele>
        <time>2021-08-06T11:17:19.313Z</time>
      </trkpt>
      <trkpt lat="46.94735" lon="8.71809">
        <ele>1466</ele>
        <time>2021-08-06T11:17:20.312Z</time>
      </trkpt>
      <trkpt lat="46.94736" lon="8.71808">
        <ele>1466</ele>
        <time>2021-08-06T11:17:21.313Z</time>
      </trkpt>
      <trkpt lat="46.94735" lon="8.71806">
        <ele>1467</ele>
        <time>2021-08-06T11:17:22.313Z</time>
      </trkpt>
      <trkpt lat="46.94735" lon="8.71804">
        <ele>1468</ele>
        <time>2021-08-06T11:17:23.313Z</time>
      </trkpt>
      <trkpt lat="46.94734" lon="8.71803">
        <ele>1468</ele>
        <time>2021-08-06T11:17:24.312Z</time>
      </trkpt>
      <trkpt lat="46.94734" lon="8.71802">
        <ele>1469</ele>
        <time>2021-08-06T11:17:25.313Z</time>
      </trkpt>
      <trkpt lat="46.94734" lon="8.718">
        <ele>1470</ele>
        <time>2021-08-06T11:17:26.313Z</time>
      </trkpt>
      <trkpt lat="46.94734" lon="8.71799">
        <ele>1470</ele>
        <time>2021-08-06T11:17:27.312Z</time>
      </trkpt>
      <trkpt lat="46.94734" lon="8.71798">
        <ele>1470</ele>
        <time>2021-08-06T11:17:28.313Z</time>
      </trkpt>
      <trkpt lat="46.94735" lon="8.71797">
        <ele>1471</ele>
        <time>2021-08-06T11:17:29.312Z</time>
      </trkpt>
      <trkpt lat="46.94735" lon="8.71795">
        <ele>1471</ele>
        <time>2021-08-06T11:17:30.313Z</time>
      </trkpt>
      <trkpt lat="46.94735" lon="8.71794">
        <ele>1472</ele>
        <time>2021-08-06T11:17:31.313Z</time>
      </trkpt>
      <trkpt lat="46.94735" lon="8.71792">
        <ele>1473</ele>
        <time>2021-08-06T11:17:32.313Z</time>
      </trkpt>
      <trkpt lat="46.94735" lon="8.71791">
        <ele>1473</ele>
        <time>2021-08-06T11:17:33.312Z</time>
      </trkpt>
      <trkpt lat="46.94735" lon="8.71789">
        <ele>1474</ele>
        <time>2021-08-06T11:17:37.333Z</time>
      </trkpt>
      <trkpt lat="46.94735" lon="8.71788">
        <ele>1474</ele>
        <time>2021-08-06T11:17:38.334Z</time>
      </trkpt>
      <trkpt lat="46.94735" lon="8.71786">
        <ele>1475</ele>
        <time>2021-08-06T11:17:39.334Z</time>
      </trkpt>
      <trkpt lat="46.94736" lon="8.71784">
        <ele>1475</ele>
        <time>2021-08-06T11:17:40.334Z</time>
      </trkpt>
      <trkpt lat="46.94737" lon="8.71783">
        <ele>1476</ele>
        <time>2021-08-06T11:17:41.334Z</time>
      </trkpt>
      <trkpt lat="46.94737" lon="8.71782">
        <ele>1476</ele>
        <time>2021-08-06T11:17:42.334Z</time>
      </trkpt>
      <trkpt lat="46.94737" lon="8.7178">
        <ele>1477</ele>
        <time>2021-08-06T11:17:59.460Z</time>
      </trkpt>
      <trkpt lat="46.94738" lon="8.71779">
        <ele>1477</ele>
        <time>2021-08-06T11:18:00.459Z</time>
      </trkpt>
      <trkpt lat="46.94738" lon="8.71778">
        <ele>1478</ele>
        <time>2021-08-06T11:18:01.460Z</time>
      </trkpt>
      <trkpt lat="46.94738" lon="8.71777">
        <ele>1478</ele>
        <time>2021-08-06T11:18:02.460Z</time>
      </trkpt>
      <trkpt lat="46.94738" lon="8.71775">
        <ele>1478</ele>
        <time>2021-08-06T11:18:03.459Z</time>
      </trkpt>
      <trkpt lat="46.94739" lon="8.71773">
        <ele>1478</ele>
        <time>2021-08-06T11:18:04.459Z</time>
      </trkpt>
      <trkpt lat="46.94738" lon="8.71771">
        <ele>1478</ele>
        <time>2021-08-06T11:18:05.459Z</time>
      </trkpt>
      <trkpt lat="46.94738" lon="8.7177">
        <ele>1478</ele>
        <time>2021-08-06T11:18:06.459Z</time>
      </trkpt>
      <trkpt lat="46.94738" lon="8.71769">
        <ele>1478</ele>
        <time>2021-08-06T11:18:07.460Z</time>
      </trkpt>
      <trkpt lat="46.94738" lon="8.71768">
        <ele>1478</ele>
        <time>2021-08-06T11:18:08.460Z</time>
      </trkpt>
      <trkpt lat="46.94738" lon="8.71766">
        <ele>1478</ele>
        <time>2021-08-06T11:18:09.460Z</time>
      </trkpt>
      <trkpt lat="46.94739" lon="8.71765">
        <ele>1479</ele>
        <time>2021-08-06T11:18:10.460Z</time>
      </trkpt>
      <trkpt lat="46.94739" lon="8.71764">
        <ele>1479</ele>
        <time>2021-08-06T11:18:11.460Z</time>
      </trkpt>
      <trkpt lat="46.94739" lon="8.71763">
        <ele>1479</ele>
        <time>2021-08-06T11:18:12.460Z</time>
      </trkpt>
      <trkpt lat="46.94739" lon="8.71761">
        <ele>1480</ele>
        <time>2021-08-06T11:18:13.460Z</time>
      </trkpt>
      <trkpt lat="46.94738" lon="8.7176">
        <ele>1480</ele>
        <time>2021-08-06T11:18:14.460Z</time>
      </trkpt>
      <trkpt lat="46.94738" lon="8.71758">
        <ele>1480</ele>
        <time>2021-08-06T11:18:15.460Z</time>
      </trkpt>
      <trkpt lat="46.94737" lon="8.71757">
        <ele>1480</ele>
        <time>2021-08-06T11:18:16.459Z</time>
      </trkpt>
      <trkpt lat="46.94737" lon="8.71755">
        <ele>1481</ele>
        <time>2021-08-06T11:18:17.460Z</time>
      </trkpt>
      <trkpt lat="46.94736" lon="8.71754">
        <ele>1481</ele>
        <time>2021-08-06T11:18:18.460Z</time>
      </trkpt>
      <trkpt lat="46.94735" lon="8.71752">
        <ele>1481</ele>
        <time>2021-08-06T11:18:19.460Z</time>
      </trkpt>
      <trkpt lat="46.94735" lon="8.71751">
        <ele>1480</ele>
        <time>2021-08-06T11:18:20.459Z</time>
      </trkpt>
      <trkpt lat="46.94735" lon="8.71748">
        <ele>1480</ele>
        <time>2021-08-06T11:18:21.460Z</time>
      </trkpt>
      <trkpt lat="46.94735" lon="8.71746">
        <ele>1480</ele>
        <time>2021-08-06T11:18:22.460Z</time>
      </trkpt>
      <trkpt lat="46.94734" lon="8.71744">
        <ele>1480</ele>
        <time>2021-08-06T11:18:23.460Z</time>
      </trkpt>
      <trkpt lat="46.94734" lon="8.71743">
        <ele>1481</ele>
        <time>2021-08-06T11:18:24.459Z</time>
      </trkpt>
      <trkpt lat="46.94734" lon="8.71742">
        <ele>1481</ele>
        <time>2021-08-06T11:18:25.459Z</time>
      </trkpt>
      <trkpt lat="46.94733" lon="8.7174">
        <ele>1481</ele>
        <time>2021-08-06T11:18:26.460Z</time>
      </trkpt>
      <trkpt lat="46.94733" lon="8.71738">
        <ele>1481</ele>
        <time>2021-08-06T11:18:27.460Z</time>
      </trkpt>
      <trkpt lat="46.94732" lon="8.71737">
        <ele>1481</ele>
        <time>2021-08-06T11:18:28.460Z</time>
      </trkpt>
      <trkpt lat="46.94733" lon="8.71736">
        <ele>1481</ele>
        <time>2021-08-06T11:18:29.460Z</time>
      </trkpt>
      <trkpt lat="46.94733" lon="8.71734">
        <ele>1481</ele>
        <time>2021-08-06T11:18:30.459Z</time>
      </trkpt>
      <trkpt lat="46.94733" lon="8.71733">
        <ele>1481</ele>
        <time>2021-08-06T11:18:31.460Z</time>
      </trkpt>
      <trkpt lat="46.94733" lon="8.71732">
        <ele>1481</ele>
        <time>2021-08-06T11:18:32.459Z</time>
      </trkpt>
      <trkpt lat="46.94733" lon="8.71731">
        <ele>1481</ele>
        <time>2021-08-06T11:18:33.460Z</time>
      </trkpt>
      <trkpt lat="46.94733" lon="8.7173">
        <ele>1481</ele>
        <time>2021-08-06T11:18:34.460Z</time>
      </trkpt>
      <trkpt lat="46.94734" lon="8.71729">
        <ele>1481</ele>
        <time>2021-08-06T11:18:35.460Z</time>
      </trkpt>
      <trkpt lat="46.94733" lon="8.71727">
        <ele>1482</ele>
        <time>2021-08-06T11:18:36.460Z</time>
      </trkpt>
      <trkpt lat="46.94733" lon="8.71725">
        <ele>1483</ele>
        <time>2021-08-06T11:18:37.459Z</time>
      </trkpt>
      <trkpt lat="46.94733" lon="8.71724">
        <ele>1484</ele>
        <time>2021-08-06T11:18:38.459Z</time>
      </trkpt>
      <trkpt lat="46.94733" lon="8.71723">
        <ele>1485</ele>
        <time>2021-08-06T11:18:39.460Z</time>
      </trkpt>
      <trkpt lat="46.94734" lon="8.71722">
        <ele>1486</ele>
        <time>2021-08-06T11:18:40.460Z</time>
      </trkpt>
      <trkpt lat="46.94734" lon="8.71721">
        <ele>1487</ele>
        <time>2021-08-06T11:18:41.459Z</time>
      </trkpt>
      <trkpt lat="46.94734" lon="8.7172">
        <ele>1488</ele>
        <time>2021-08-06T11:18:42.460Z</time>
      </trkpt>
      <trkpt lat="46.94733" lon="8.71718">
        <ele>1489</ele>
        <time>2021-08-06T11:18:43.459Z</time>
      </trkpt>
      <trkpt lat="46.94733" lon="8.71717">
        <ele>1489</ele>
        <time>2021-08-06T11:18:44.460Z</time>
      </trkpt>
      <trkpt lat="46.94732" lon="8.71715">
        <ele>1490</ele>
        <time>2021-08-06T11:18:45.460Z</time>
      </trkpt>
      <trkpt lat="46.94732" lon="8.71714">
        <ele>1491</ele>
        <time>2021-08-06T11:18:46.459Z</time>
      </trkpt>
      <trkpt lat="46.94731" lon="8.71712">
        <ele>1492</ele>
        <time>2021-08-06T11:18:47.460Z</time>
      </trkpt>
      <trkpt lat="46.94731" lon="8.7171">
        <ele>1492</ele>
        <time>2021-08-06T11:18:48.459Z</time>
      </trkpt>
      <trkpt lat="46.9473" lon="8.71709">
        <ele>1493</ele>
        <time>2021-08-06T11:18:49.459Z</time>
      </trkpt>
      <trkpt lat="46.9473" lon="8.71707">
        <ele>1493</ele>
        <time>2021-08-06T11:18:50.459Z</time>
      </trkpt>
      <trkpt lat="46.94729" lon="8.71705">
        <ele>1493</ele>
        <time>2021-08-06T11:18:51.460Z</time>
      </trkpt>
      <trkpt lat="46.94729" lon="8.71704">
        <ele>1493</ele>
        <time>2021-08-06T11:18:52.460Z</time>
      </trkpt>
      <trkpt lat="46.9473" lon="8.71702">
        <ele>1493</ele>
        <time>2021-08-06T11:18:53.459Z</time>
      </trkpt>
      <trkpt lat="46.9473" lon="8.71701">
        <ele>1492</ele>
        <time>2021-08-06T11:18:54.460Z</time>
      </trkpt>
      <trkpt lat="46.9473" lon="8.71699">
        <ele>1492</ele>
        <time>2021-08-06T11:18:55.460Z</time>
      </trkpt>
      <trkpt lat="46.9473" lon="8.71698">
        <ele>1492</ele>
        <time>2021-08-06T11:18:56.460Z</time>
      </trkpt>
      <trkpt lat="46.94729" lon="8.71696">
        <ele>1492</ele>
        <time>2021-08-06T11:18:57.460Z</time>
      </trkpt>
      <trkpt lat="46.94729" lon="8.71694">
        <ele>1492</ele>
        <time>2021-08-06T11:18:58.460Z</time>
      </trkpt>
      <trkpt lat="46.94729" lon="8.71693">
        <ele>1491</ele>
        <time>2021-08-06T11:18:59.460Z</time>
      </trkpt>
      <trkpt lat="46.94729" lon="8.71691">
        <ele>1491</ele>
        <time>2021-08-06T11:19:00.459Z</time>
      </trkpt>
      <trkpt lat="46.94729" lon="8.71689">
        <ele>1491</ele>
        <time>2021-08-06T11:19:01.460Z</time>
      </trkpt>
      <trkpt lat="46.94729" lon="8.71687">
        <ele>1491</ele>
        <time>2021-08-06T11:19:02.459Z</time>
      </trkpt>
      <trkpt lat="46.9473" lon="8.71685">
        <ele>1491</ele>
        <time>2021-08-06T11:19:03.460Z</time>
      </trkpt>
      <trkpt lat="46.9473" lon="8.71684">
        <ele>1492</ele>
        <time>2021-08-06T11:19:04.459Z</time>
      </trkpt>
      <trkpt lat="46.9473" lon="8.71682">
        <ele>1492</ele>
        <time>2021-08-06T11:19:05.460Z</time>
      </trkpt>
      <trkpt lat="46.9473" lon="8.7168">
        <ele>1492</ele>
        <time>2021-08-06T11:19:06.459Z</time>
      </trkpt>
      <trkpt lat="46.9473" lon="8.71678">
        <ele>1492</ele>
        <time>2021-08-06T11:19:07.460Z</time>
      </trkpt>
      <trkpt lat="46.94729" lon="8.71676">
        <ele>1491</ele>
        <time>2021-08-06T11:19:08.460Z</time>
      </trkpt>
      <trkpt lat="46.94729" lon="8.71674">
        <ele>1491</ele>
        <time>2021-08-06T11:19:09.460Z</time>
      </trkpt>
      <trkpt lat="46.94729" lon="8.71673">
        <ele>1491</ele>
        <time>2021-08-06T11:19:10.460Z</time>
      </trkpt>
      <trkpt lat="46.94728" lon="8.71672">
        <ele>1491</ele>
        <time>2021-08-06T11:19:11.460Z</time>
      </trkpt>
      <trkpt lat="46.94728" lon="8.7167">
        <ele>1491</ele>
        <time>2021-08-06T11:19:12.459Z</time>
      </trkpt>
      <trkpt lat="46.94728" lon="8.71668">
        <ele>1492</ele>
        <time>2021-08-06T11:19:13.460Z</time>
      </trkpt>
      <trkpt lat="46.94728" lon="8.71667">
        <ele>1492</ele>
        <time>2021-08-06T11:19:14.460Z</time>
      </trkpt>
      <trkpt lat="46.94729" lon="8.71665">
        <ele>1492</ele>
        <time>2021-08-06T11:19:15.459Z</time>
      </trkpt>
      <trkpt lat="46.94729" lon="8.71664">
        <ele>1492</ele>
        <time>2021-08-06T11:19:16.460Z</time>
      </trkpt>
      <trkpt lat="46.94729" lon="8.71662">
        <ele>1491</ele>
        <time>2021-08-06T11:19:17.460Z</time>
      </trkpt>
      <trkpt lat="46.94729" lon="8.71661">
        <ele>1491</ele>
        <time>2021-08-06T11:19:18.459Z</time>
      </trkpt>
      <trkpt lat="46.94729" lon="8.71659">
        <ele>1491</ele>
        <time>2021-08-06T11:19:19.460Z</time>
      </trkpt>
      <trkpt lat="46.94729" lon="8.71658">
        <ele>1490</ele>
        <time>2021-08-06T11:19:20.460Z</time>
      </trkpt>
      <trkpt lat="46.94729" lon="8.71656">
        <ele>1490</ele>
        <time>2021-08-06T11:19:21.459Z</time>
      </trkpt>
      <trkpt lat="46.94729" lon="8.71655">
        <ele>1489</ele>
        <time>2021-08-06T11:19:22.460Z</time>
      </trkpt>
      <trkpt lat="46.94729" lon="8.71654">
        <ele>1488</ele>
        <time>2021-08-06T11:19:23.460Z</time>
      </trkpt>
      <trkpt lat="46.94729" lon="8.71652">
        <ele>1488</ele>
        <time>2021-08-06T11:19:24.459Z</time>
      </trkpt>
      <trkpt lat="46.94729" lon="8.71651">
        <ele>1487</ele>
        <time>2021-08-06T11:19:25.460Z</time>
      </trkpt>
      <trkpt lat="46.94729" lon="8.71649">
        <ele>1487</ele>
        <time>2021-08-06T11:19:26.460Z</time>
      </trkpt>
      <trkpt lat="46.94728" lon="8.71647">
        <ele>1487</ele>
        <time>2021-08-06T11:19:27.460Z</time>
      </trkpt>
      <trkpt lat="46.94728" lon="8.71646">
        <ele>1487</ele>
        <time>2021-08-06T11:19:28.460Z</time>
      </trkpt>
      <trkpt lat="46.94728" lon="8.71645">
        <ele>1486</ele>
        <time>2021-08-06T11:19:29.460Z</time>
      </trkpt>
      <trkpt lat="46.94727" lon="8.71643">
        <ele>1486</ele>
        <time>2021-08-06T11:19:30.460Z</time>
      </trkpt>
      <trkpt lat="46.94727" lon="8.71642">
        <ele>1486</ele>
        <time>2021-08-06T11:19:31.460Z</time>
      </trkpt>
      <trkpt lat="46.94727" lon="8.7164">
        <ele>1485</ele>
        <time>2021-08-06T11:19:32.460Z</time>
      </trkpt>
      <trkpt lat="46.94727" lon="8.71639">
        <ele>1485</ele>
        <time>2021-08-06T11:19:33.460Z</time>
      </trkpt>
      <trkpt lat="46.94727" lon="8.71637">
        <ele>1485</ele>
        <time>2021-08-06T11:19:34.460Z</time>
      </trkpt>
      <trkpt lat="46.94727" lon="8.71636">
        <ele>1485</ele>
        <time>2021-08-06T11:19:35.460Z</time>
      </trkpt>
      <trkpt lat="46.94728" lon="8.71634">
        <ele>1485</ele>
        <time>2021-08-06T11:19:36.460Z</time>
      </trkpt>
      <trkpt lat="46.94728" lon="8.71632">
        <ele>1485</ele>
        <time>2021-08-06T11:19:37.460Z</time>
      </trkpt>
      <trkpt lat="46.94727" lon="8.7163">
        <ele>1484</ele>
        <time>2021-08-06T11:19:38.460Z</time>
      </trkpt>
      <trkpt lat="46.94727" lon="8.71628">
        <ele>1483</ele>
        <time>2021-08-06T11:19:39.460Z</time>
      </trkpt>
      <trkpt lat="46.94727" lon="8.71627">
        <ele>1483</ele>
        <time>2021-08-06T11:19:44.476Z</time>
      </trkpt>
      <trkpt lat="46.94727" lon="8.71625">
        <ele>1482</ele>
        <time>2021-08-06T11:19:45.475Z</time>
      </trkpt>
      <trkpt lat="46.94726" lon="8.71623">
        <ele>1482</ele>
        <time>2021-08-06T11:19:46.476Z</time>
      </trkpt>
      <trkpt lat="46.94726" lon="8.71621">
        <ele>1482</ele>
        <time>2021-08-06T11:19:47.476Z</time>
      </trkpt>
      <trkpt lat="46.94725" lon="8.7162">
        <ele>1481</ele>
        <time>2021-08-06T11:19:48.476Z</time>
      </trkpt>
      <trkpt lat="46.94725" lon="8.71618">
        <ele>1481</ele>
        <time>2021-08-06T11:19:49.476Z</time>
      </trkpt>
      <trkpt lat="46.94724" lon="8.71616">
        <ele>1481</ele>
        <time>2021-08-06T11:19:50.475Z</time>
      </trkpt>
      <trkpt lat="46.94724" lon="8.71614">
        <ele>1481</ele>
        <time>2021-08-06T11:19:51.476Z</time>
      </trkpt>
      <trkpt lat="46.94724" lon="8.71613">
        <ele>1481</ele>
        <time>2021-08-06T11:19:52.475Z</time>
      </trkpt>
      <trkpt lat="46.94724" lon="8.71612">
        <ele>1481</ele>
        <time>2021-08-06T11:19:53.475Z</time>
      </trkpt>
      <trkpt lat="46.94724" lon="8.7161">
        <ele>1481</ele>
        <time>2021-08-06T11:19:54.475Z</time>
      </trkpt>
      <trkpt lat="46.94724" lon="8.71609">
        <ele>1481</ele>
        <time>2021-08-06T11:19:55.476Z</time>
      </trkpt>
      <trkpt lat="46.94724" lon="8.71607">
        <ele>1481</ele>
        <time>2021-08-06T11:19:56.475Z</time>
      </trkpt>
      <trkpt lat="46.94724" lon="8.71606">
        <ele>1482</ele>
        <time>2021-08-06T11:19:57.475Z</time>
      </trkpt>
      <trkpt lat="46.94723" lon="8.71604">
        <ele>1482</ele>
        <time>2021-08-06T11:19:58.476Z</time>
      </trkpt>
      <trkpt lat="46.94723" lon="8.71603">
        <ele>1483</ele>
        <time>2021-08-06T11:19:59.476Z</time>
      </trkpt>
      <trkpt lat="46.94722" lon="8.71602">
        <ele>1483</ele>
        <time>2021-08-06T11:20:00.476Z</time>
      </trkpt>
      <trkpt lat="46.94721" lon="8.716">
        <ele>1484</ele>
        <time>2021-08-06T11:20:01.476Z</time>
      </trkpt>
      <trkpt lat="46.9472" lon="8.71599">
        <ele>1484</ele>
        <time>2021-08-06T11:20:02.476Z</time>
      </trkpt>
      <trkpt lat="46.9472" lon="8.71597">
        <ele>1484</ele>
        <time>2021-08-06T11:20:03.475Z</time>
      </trkpt>
      <trkpt lat="46.94719" lon="8.71596">
        <ele>1483</ele>
        <time>2021-08-06T11:20:04.476Z</time>
      </trkpt>
      <trkpt lat="46.94719" lon="8.71594">
        <ele>1483</ele>
        <time>2021-08-06T11:20:05.476Z</time>
      </trkpt>
      <trkpt lat="46.94719" lon="8.71593">
        <ele>1483</ele>
        <time>2021-08-06T11:20:06.475Z</time>
      </trkpt>
      <trkpt lat="46.94719" lon="8.71591">
        <ele>1483</ele>
        <time>2021-08-06T11:20:07.476Z</time>
      </trkpt>
      <trkpt lat="46.94719" lon="8.7159">
        <ele>1483</ele>
        <time>2021-08-06T11:20:08.476Z</time>
      </trkpt>
      <trkpt lat="46.94719" lon="8.71588">
        <ele>1483</ele>
        <time>2021-08-06T11:20:09.476Z</time>
      </trkpt>
      <trkpt lat="46.94718" lon="8.71587">
        <ele>1484</ele>
        <time>2021-08-06T11:20:10.475Z</time>
      </trkpt>
      <trkpt lat="46.94718" lon="8.71585">
        <ele>1484</ele>
        <time>2021-08-06T11:20:11.475Z</time>
      </trkpt>
      <trkpt lat="46.94718" lon="8.71584">
        <ele>1484</ele>
        <time>2021-08-06T11:20:12.476Z</time>
      </trkpt>
      <trkpt lat="46.94717" lon="8.71582">
        <ele>1484</ele>
        <time>2021-08-06T11:20:13.476Z</time>
      </trkpt>
      <trkpt lat="46.94716" lon="8.7158">
        <ele>1484</ele>
        <time>2021-08-06T11:20:14.475Z</time>
      </trkpt>
      <trkpt lat="46.94716" lon="8.71578">
        <ele>1483</ele>
        <time>2021-08-06T11:20:15.476Z</time>
      </trkpt>
      <trkpt lat="46.94716" lon="8.71576">
        <ele>1483</ele>
        <time>2021-08-06T11:20:16.475Z</time>
      </trkpt>
      <trkpt lat="46.94716" lon="8.71574">
        <ele>1483</ele>
        <time>2021-08-06T11:20:17.475Z</time>
      </trkpt>
      <trkpt lat="46.94716" lon="8.71572">
        <ele>1484</ele>
        <time>2021-08-06T11:20:18.476Z</time>
      </trkpt>
      <trkpt lat="46.94717" lon="8.71571">
        <ele>1484</ele>
        <time>2021-08-06T11:20:19.476Z</time>
      </trkpt>
      <trkpt lat="46.94716" lon="8.71569">
        <ele>1484</ele>
        <time>2021-08-06T11:20:20.475Z</time>
      </trkpt>
      <trkpt lat="46.94716" lon="8.71568">
        <ele>1484</ele>
        <time>2021-08-06T11:20:21.475Z</time>
      </trkpt>
      <trkpt lat="46.94715" lon="8.71566">
        <ele>1484</ele>
        <time>2021-08-06T11:20:22.476Z</time>
      </trkpt>
      <trkpt lat="46.94714" lon="8.71565">
        <ele>1483</ele>
        <time>2021-08-06T11:20:23.476Z</time>
      </trkpt>
      <trkpt lat="46.94714" lon="8.71564">
        <ele>1483</ele>
        <time>2021-08-06T11:20:24.476Z</time>
      </trkpt>
      <trkpt lat="46.94713" lon="8.71563">
        <ele>1483</ele>
        <time>2021-08-06T11:20:25.475Z</time>
      </trkpt>
      <trkpt lat="46.94712" lon="8.71562">
        <ele>1482</ele>
        <time>2021-08-06T11:20:26.476Z</time>
      </trkpt>
      <trkpt lat="46.94711" lon="8.71561">
        <ele>1482</ele>
        <time>2021-08-06T11:20:27.476Z</time>
      </trkpt>
      <trkpt lat="46.9471" lon="8.7156">
        <ele>1482</ele>
        <time>2021-08-06T11:20:28.476Z</time>
      </trkpt>
      <trkpt lat="46.94709" lon="8.71559">
        <ele>1482</ele>
        <time>2021-08-06T11:20:29.476Z</time>
      </trkpt>
      <trkpt lat="46.94708" lon="8.71558">
        <ele>1482</ele>
        <time>2021-08-06T11:20:30.476Z</time>
      </trkpt>
      <trkpt lat="46.94707" lon="8.71557">
        <ele>1482</ele>
        <time>2021-08-06T11:20:31.476Z</time>
      </trkpt>
      <trkpt lat="46.94706" lon="8.71556">
        <ele>1483</ele>
        <time>2021-08-06T11:20:32.476Z</time>
      </trkpt>
      <trkpt lat="46.94706" lon="8.71555">
        <ele>1483</ele>
        <time>2021-08-06T11:20:33.476Z</time>
      </trkpt>
      <trkpt lat="46.94705" lon="8.71554">
        <ele>1483</ele>
        <time>2021-08-06T11:20:34.475Z</time>
      </trkpt>
      <trkpt lat="46.94704" lon="8.71553">
        <ele>1483</ele>
        <time>2021-08-06T11:20:35.476Z</time>
      </trkpt>
      <trkpt lat="46.94704" lon="8.71553">
        <ele>1483</ele>
        <time>2021-08-06T11:20:36.475Z</time>
      </trkpt>
      <trkpt lat="46.94703" lon="8.71552">
        <ele>1483</ele>
        <time>2021-08-06T11:20:37.476Z</time>
      </trkpt>
      <trkpt lat="46.94702" lon="8.71552">
        <ele>1483</ele>
        <time>2021-08-06T11:20:38.476Z</time>
      </trkpt>
      <trkpt lat="46.94701" lon="8.71552">
        <ele>1483</ele>
        <time>2021-08-06T11:20:39.475Z</time>
      </trkpt>
      <trkpt lat="46.947" lon="8.71551">
        <ele>1483</ele>
        <time>2021-08-06T11:20:40.476Z</time>
      </trkpt>
      <trkpt lat="46.94699" lon="8.71551">
        <ele>1483</ele>
        <time>2021-08-06T11:20:41.476Z</time>
      </trkpt>
      <trkpt lat="46.94698" lon="8.7155">
        <ele>1482</ele>
        <time>2021-08-06T11:20:42.476Z</time>
      </trkpt>
      <trkpt lat="46.94698" lon="8.71549">
        <ele>1482</ele>
        <time>2021-08-06T11:20:43.476Z</time>
      </trkpt>
      <trkpt lat="46.94697" lon="8.71548">
        <ele>1482</ele>
        <time>2021-08-06T11:20:44.476Z</time>
      </trkpt>
      <trkpt lat="46.94696" lon="8.71548">
        <ele>1482</ele>
        <time>2021-08-06T11:20:45.476Z</time>
      </trkpt>
      <trkpt lat="46.94695" lon="8.71547">
        <ele>1482</ele>
        <time>2021-08-06T11:20:46.476Z</time>
      </trkpt>
      <trkpt lat="46.94694" lon="8.71546">
        <ele>1482</ele>
        <time>2021-08-06T11:20:47.475Z</time>
      </trkpt>
      <trkpt lat="46.94694" lon="8.71544">
        <ele>1482</ele>
        <time>2021-08-06T11:20:48.476Z</time>
      </trkpt>
      <trkpt lat="46.94693" lon="8.71542">
        <ele>1481</ele>
        <time>2021-08-06T11:20:49.476Z</time>
      </trkpt>
      <trkpt lat="46.94692" lon="8.71541">
        <ele>1481</ele>
        <time>2021-08-06T11:20:50.475Z</time>
      </trkpt>
      <trkpt lat="46.94691" lon="8.71541">
        <ele>1481</ele>
        <time>2021-08-06T11:20:51.476Z</time>
      </trkpt>
      <trkpt lat="46.9469" lon="8.71539">
        <ele>1481</ele>
        <time>2021-08-06T11:20:52.475Z</time>
      </trkpt>
      <trkpt lat="46.94688" lon="8.71538">
        <ele>1481</ele>
        <time>2021-08-06T11:20:53.476Z</time>
      </trkpt>
      <trkpt lat="46.94686" lon="8.71537">
        <ele>1481</ele>
        <time>2021-08-06T11:20:54.475Z</time>
      </trkpt>
      <trkpt lat="46.94685" lon="8.71536">
        <ele>1481</ele>
        <time>2021-08-06T11:20:55.476Z</time>
      </trkpt>
      <trkpt lat="46.94683" lon="8.71535">
        <ele>1482</ele>
        <time>2021-08-06T11:20:56.476Z</time>
      </trkpt>
      <trkpt lat="46.94682" lon="8.71533">
        <ele>1482</ele>
        <time>2021-08-06T11:20:57.476Z</time>
      </trkpt>
      <trkpt lat="46.9468" lon="8.7153">
        <ele>1482</ele>
        <time>2021-08-06T11:20:58.476Z</time>
      </trkpt>
      <trkpt lat="46.94679" lon="8.7153">
        <ele>1482</ele>
        <time>2021-08-06T11:20:59.475Z</time>
      </trkpt>
      <trkpt lat="46.94678" lon="8.71528">
        <ele>1482</ele>
        <time>2021-08-06T11:21:00.476Z</time>
      </trkpt>
      <trkpt lat="46.94677" lon="8.71527">
        <ele>1482</ele>
        <time>2021-08-06T11:21:01.475Z</time>
      </trkpt>
      <trkpt lat="46.94677" lon="8.71526">
        <ele>1482</ele>
        <time>2021-08-06T11:21:02.475Z</time>
      </trkpt>
      <trkpt lat="46.94677" lon="8.71524">
        <ele>1482</ele>
        <time>2021-08-06T11:21:03.476Z</time>
      </trkpt>
      <trkpt lat="46.94677" lon="8.71523">
        <ele>1482</ele>
        <time>2021-08-06T11:21:04.476Z</time>
      </trkpt>
      <trkpt lat="46.94678" lon="8.71522">
        <ele>1482</ele>
        <time>2021-08-06T11:21:05.476Z</time>
      </trkpt>
      <trkpt lat="46.94678" lon="8.7152">
        <ele>1482</ele>
        <time>2021-08-06T11:21:06.476Z</time>
      </trkpt>
      <trkpt lat="46.94678" lon="8.71519">
        <ele>1482</ele>
        <time>2021-08-06T11:21:07.476Z</time>
      </trkpt>
      <trkpt lat="46.94678" lon="8.71518">
        <ele>1482</ele>
        <time>2021-08-06T11:21:08.476Z</time>
      </trkpt>
      <trkpt lat="46.94678" lon="8.71516">
        <ele>1482</ele>
        <time>2021-08-06T11:21:09.476Z</time>
      </trkpt>
      <trkpt lat="46.94677" lon="8.71515">
        <ele>1482</ele>
        <time>2021-08-06T11:21:10.475Z</time>
      </trkpt>
      <trkpt lat="46.94677" lon="8.71513">
        <ele>1483</ele>
        <time>2021-08-06T11:21:11.476Z</time>
      </trkpt>
      <trkpt lat="46.94677" lon="8.71512">
        <ele>1483</ele>
        <time>2021-08-06T11:21:12.475Z</time>
      </trkpt>
      <trkpt lat="46.94677" lon="8.7151">
        <ele>1483</ele>
        <time>2021-08-06T11:21:13.476Z</time>
      </trkpt>
      <trkpt lat="46.94677" lon="8.71508">
        <ele>1483</ele>
        <time>2021-08-06T11:21:14.476Z</time>
      </trkpt>
      <trkpt lat="46.94677" lon="8.71507">
        <ele>1483</ele>
        <time>2021-08-06T11:21:15.475Z</time>
      </trkpt>
      <trkpt lat="46.94677" lon="8.71505">
        <ele>1483</ele>
        <time>2021-08-06T11:21:16.476Z</time>
      </trkpt>
      <trkpt lat="46.94677" lon="8.71504">
        <ele>1484</ele>
        <time>2021-08-06T11:21:17.476Z</time>
      </trkpt>
      <trkpt lat="46.94678" lon="8.71502">
        <ele>1484</ele>
        <time>2021-08-06T11:21:18.476Z</time>
      </trkpt>
      <trkpt lat="46.94679" lon="8.71501">
        <ele>1484</ele>
        <time>2021-08-06T11:21:19.476Z</time>
      </trkpt>
      <trkpt lat="46.94679" lon="8.715">
        <ele>1484</ele>
        <time>2021-08-06T11:21:20.475Z</time>
      </trkpt>
      <trkpt lat="46.94679" lon="8.71499">
        <ele>1483</ele>
        <time>2021-08-06T11:21:21.475Z</time>
      </trkpt>
      <trkpt lat="46.94679" lon="8.71497">
        <ele>1483</ele>
        <time>2021-08-06T11:21:22.476Z</time>
      </trkpt>
      <trkpt lat="46.94679" lon="8.71496">
        <ele>1483</ele>
        <time>2021-08-06T11:21:23.476Z</time>
      </trkpt>
      <trkpt lat="46.9468" lon="8.71494">
        <ele>1483</ele>
        <time>2021-08-06T11:21:24.476Z</time>
      </trkpt>
      <trkpt lat="46.9468" lon="8.71492">
        <ele>1483</ele>
        <time>2021-08-06T11:21:25.475Z</time>
      </trkpt>
      <trkpt lat="46.94679" lon="8.71491">
        <ele>1484</ele>
        <time>2021-08-06T11:21:26.475Z</time>
      </trkpt>
      <trkpt lat="46.94679" lon="8.7149">
        <ele>1484</ele>
        <time>2021-08-06T11:21:27.476Z</time>
      </trkpt>
      <trkpt lat="46.94679" lon="8.71489">
        <ele>1484</ele>
        <time>2021-08-06T11:21:28.476Z</time>
      </trkpt>
      <trkpt lat="46.94678" lon="8.71487">
        <ele>1484</ele>
        <time>2021-08-06T11:21:29.476Z</time>
      </trkpt>
      <trkpt lat="46.94678" lon="8.71486">
        <ele>1483</ele>
        <time>2021-08-06T11:21:30.475Z</time>
      </trkpt>
      <trkpt lat="46.94677" lon="8.71484">
        <ele>1483</ele>
        <time>2021-08-06T11:21:31.475Z</time>
      </trkpt>
      <trkpt lat="46.94677" lon="8.71481">
        <ele>1483</ele>
        <time>2021-08-06T11:21:32.475Z</time>
      </trkpt>
      <trkpt lat="46.94677" lon="8.7148">
        <ele>1483</ele>
        <time>2021-08-06T11:21:33.476Z</time>
      </trkpt>
      <trkpt lat="46.94677" lon="8.71479">
        <ele>1483</ele>
        <time>2021-08-06T11:21:34.476Z</time>
      </trkpt>
      <trkpt lat="46.94677" lon="8.71477">
        <ele>1483</ele>
        <time>2021-08-06T11:21:35.476Z</time>
      </trkpt>
      <trkpt lat="46.94677" lon="8.71476">
        <ele>1483</ele>
        <time>2021-08-06T11:21:36.475Z</time>
      </trkpt>
      <trkpt lat="46.94676" lon="8.71475">
        <ele>1482</ele>
        <time>2021-08-06T11:21:37.476Z</time>
      </trkpt>
      <trkpt lat="46.94676" lon="8.71474">
        <ele>1482</ele>
        <time>2021-08-06T11:21:38.476Z</time>
      </trkpt>
      <trkpt lat="46.94676" lon="8.71474">
        <ele>1482</ele>
        <time>2021-08-06T11:21:39.476Z</time>
      </trkpt>
      <trkpt lat="46.94675" lon="8.71474">
        <ele>1482</ele>
        <time>2021-08-06T11:21:40.476Z</time>
      </trkpt>
      <trkpt lat="46.94672" lon="8.71476">
        <ele>1479</ele>
        <time>2021-08-06T11:21:41.476Z</time>
      </trkpt>
      <trkpt lat="46.94671" lon="8.71476">
        <ele>1478</ele>
        <time>2021-08-06T11:21:42.475Z</time>
      </trkpt>
      <trkpt lat="46.9467" lon="8.71476">
        <ele>1478</ele>
        <time>2021-08-06T11:21:43.475Z</time>
      </trkpt>
      <trkpt lat="46.9467" lon="8.71476">
        <ele>1478</ele>
        <time>2021-08-06T11:21:44.476Z</time>
      </trkpt>
      <trkpt lat="46.94669" lon="8.71476">
        <ele>1478</ele>
        <time>2021-08-06T11:21:45.475Z</time>
      </trkpt>
      <trkpt lat="46.94668" lon="8.71477">
        <ele>1478</ele>
        <time>2021-08-06T11:21:46.475Z</time>
      </trkpt>
      <trkpt lat="46.94667" lon="8.71478">
        <ele>1478</ele>
        <time>2021-08-06T11:21:47.475Z</time>
      </trkpt>
      <trkpt lat="46.94666" lon="8.71479">
        <ele>1478</ele>
        <time>2021-08-06T11:21:48.475Z</time>
      </trkpt>
      <trkpt lat="46.94665" lon="8.7148">
        <ele>1478</ele>
        <time>2021-08-06T11:21:49.475Z</time>
      </trkpt>
      <trkpt lat="46.94664" lon="8.71481">
        <ele>1478</ele>
        <time>2021-08-06T11:21:50.475Z</time>
      </trkpt>
      <trkpt lat="46.94664" lon="8.71482">
        <ele>1477</ele>
        <time>2021-08-06T11:21:51.476Z</time>
      </trkpt>
      <trkpt lat="46.94663" lon="8.71483">
        <ele>1477</ele>
        <time>2021-08-06T11:21:52.475Z</time>
      </trkpt>
      <trkpt lat="46.94662" lon="8.71483">
        <ele>1477</ele>
        <time>2021-08-06T11:21:53.475Z</time>
      </trkpt>
      <trkpt lat="46.94662" lon="8.71484">
        <ele>1476</ele>
        <time>2021-08-06T11:21:54.476Z</time>
      </trkpt>
      <trkpt lat="46.94661" lon="8.71484">
        <ele>1476</ele>
        <time>2021-08-06T11:21:55.476Z</time>
      </trkpt>
      <trkpt lat="46.9466" lon="8.71484">
        <ele>1476</ele>
        <time>2021-08-06T11:21:56.475Z</time>
      </trkpt>
      <trkpt lat="46.94658" lon="8.71485">
        <ele>1476</ele>
        <time>2021-08-06T11:21:57.476Z</time>
      </trkpt>
      <trkpt lat="46.94658" lon="8.71485">
        <ele>1476</ele>
        <time>2021-08-06T11:21:58.476Z</time>
      </trkpt>
      <trkpt lat="46.94657" lon="8.71486">
        <ele>1476</ele>
        <time>2021-08-06T11:21:59.476Z</time>
      </trkpt>
      <trkpt lat="46.94656" lon="8.71488">
        <ele>1476</ele>
        <time>2021-08-06T11:22:00.475Z</time>
      </trkpt>
      <trkpt lat="46.94655" lon="8.7149">
        <ele>1476</ele>
        <time>2021-08-06T11:22:01.475Z</time>
      </trkpt>
      <trkpt lat="46.94655" lon="8.71491">
        <ele>1476</ele>
        <time>2021-08-06T11:22:02.475Z</time>
      </trkpt>
      <trkpt lat="46.94655" lon="8.71493">
        <ele>1476</ele>
        <time>2021-08-06T11:22:03.475Z</time>
      </trkpt>
      <trkpt lat="46.94655" lon="8.71494">
        <ele>1476</ele>
        <time>2021-08-06T11:22:04.475Z</time>
      </trkpt>
      <trkpt lat="46.94654" lon="8.71494">
        <ele>1475</ele>
        <time>2021-08-06T11:22:05.476Z</time>
      </trkpt>
      <trkpt lat="46.94653" lon="8.71494">
        <ele>1475</ele>
        <time>2021-08-06T11:22:06.476Z</time>
      </trkpt>
      <trkpt lat="46.94653" lon="8.71494">
        <ele>1475</ele>
        <time>2021-08-06T11:22:07.476Z</time>
      </trkpt>
      <trkpt lat="46.94652" lon="8.71493">
        <ele>1475</ele>
        <time>2021-08-06T11:22:08.475Z</time>
      </trkpt>
      <trkpt lat="46.94651" lon="8.71493">
        <ele>1476</ele>
        <time>2021-08-06T11:22:09.476Z</time>
      </trkpt>
      <trkpt lat="46.9465" lon="8.71494">
        <ele>1476</ele>
        <time>2021-08-06T11:22:10.476Z</time>
      </trkpt>
      <trkpt lat="46.94649" lon="8.71495">
        <ele>1476</ele>
        <time>2021-08-06T11:22:11.475Z</time>
      </trkpt>
      <trkpt lat="46.94649" lon="8.71495">
        <ele>1476</ele>
        <time>2021-08-06T11:22:12.475Z</time>
      </trkpt>
      <trkpt lat="46.94649" lon="8.71496">
        <ele>1476</ele>
        <time>2021-08-06T11:22:13.476Z</time>
      </trkpt>
      <trkpt lat="46.94649" lon="8.71496">
        <ele>1476</ele>
        <time>2021-08-06T11:22:14.476Z</time>
      </trkpt>
      <trkpt lat="46.94648" lon="8.71497">
        <ele>1476</ele>
        <time>2021-08-06T11:22:15.475Z</time>
      </trkpt>
      <trkpt lat="46.94648" lon="8.71498">
        <ele>1476</ele>
        <time>2021-08-06T11:22:16.475Z</time>
      </trkpt>
      <trkpt lat="46.94648" lon="8.71499">
        <ele>1476</ele>
        <time>2021-08-06T11:22:17.475Z</time>
      </trkpt>
      <trkpt lat="46.94647" lon="8.715">
        <ele>1476</ele>
        <time>2021-08-06T11:22:18.475Z</time>
      </trkpt>
      <trkpt lat="46.94646" lon="8.715">
        <ele>1477</ele>
        <time>2021-08-06T11:22:19.476Z</time>
      </trkpt>
      <trkpt lat="46.94646" lon="8.71501">
        <ele>1477</ele>
        <time>2021-08-06T11:22:20.476Z</time>
      </trkpt>
      <trkpt lat="46.94645" lon="8.71502">
        <ele>1476</ele>
        <time>2021-08-06T11:22:21.475Z</time>
      </trkpt>
      <trkpt lat="46.94644" lon="8.71502">
        <ele>1476</ele>
        <time>2021-08-06T11:22:22.476Z</time>
      </trkpt>
      <trkpt lat="46.94643" lon="8.71503">
        <ele>1476</ele>
        <time>2021-08-06T11:22:23.476Z</time>
      </trkpt>
      <trkpt lat="46.94642" lon="8.71504">
        <ele>1475</ele>
        <time>2021-08-06T11:22:24.475Z</time>
      </trkpt>
      <trkpt lat="46.94642" lon="8.71505">
        <ele>1475</ele>
        <time>2021-08-06T11:22:25.476Z</time>
      </trkpt>
      <trkpt lat="46.94641" lon="8.71506">
        <ele>1475</ele>
        <time>2021-08-06T11:22:26.475Z</time>
      </trkpt>
      <trkpt lat="46.94641" lon="8.71506">
        <ele>1475</ele>
        <time>2021-08-06T11:22:27.476Z</time>
      </trkpt>
      <trkpt lat="46.9464" lon="8.71507">
        <ele>1475</ele>
        <time>2021-08-06T11:22:28.475Z</time>
      </trkpt>
      <trkpt lat="46.94639" lon="8.71507">
        <ele>1476</ele>
        <time>2021-08-06T11:22:29.475Z</time>
      </trkpt>
      <trkpt lat="46.94639" lon="8.71507">
        <ele>1476</ele>
        <time>2021-08-06T11:22:30.475Z</time>
      </trkpt>
      <trkpt lat="46.94638" lon="8.71505">
        <ele>1476</ele>
        <time>2021-08-06T11:22:31.475Z</time>
      </trkpt>
      <trkpt lat="46.94636" lon="8.71504">
        <ele>1476</ele>
        <time>2021-08-06T11:22:32.475Z</time>
      </trkpt>
      <trkpt lat="46.94635" lon="8.71502">
        <ele>1475</ele>
        <time>2021-08-06T11:22:33.475Z</time>
      </trkpt>
      <trkpt lat="46.94634" lon="8.71501">
        <ele>1475</ele>
        <time>2021-08-06T11:22:34.475Z</time>
      </trkpt>
      <trkpt lat="46.94634" lon="8.71499">
        <ele>1475</ele>
        <time>2021-08-06T11:22:35.475Z</time>
      </trkpt>
      <trkpt lat="46.94634" lon="8.71499">
        <ele>1475</ele>
        <time>2021-08-06T11:22:36.475Z</time>
      </trkpt>
      <trkpt lat="46.94634" lon="8.71499">
        <ele>1475</ele>
        <time>2021-08-06T11:22:37.475Z</time>
      </trkpt>
      <trkpt lat="46.94634" lon="8.71498">
        <ele>1475</ele>
        <time>2021-08-06T11:22:38.475Z</time>
      </trkpt>
      <trkpt lat="46.94633" lon="8.71498">
        <ele>1475</ele>
        <time>2021-08-06T11:22:39.476Z</time>
      </trkpt>
      <trkpt lat="46.94634" lon="8.71498">
        <ele>1475</ele>
        <time>2021-08-06T11:22:40.475Z</time>
      </trkpt>
      <trkpt lat="46.94634" lon="8.71498">
        <ele>1475</ele>
        <time>2021-08-06T11:22:41.475Z</time>
      </trkpt>
      <trkpt lat="46.94633" lon="8.71499">
        <ele>1475</ele>
        <time>2021-08-06T11:22:42.475Z</time>
      </trkpt>
      <trkpt lat="46.94631" lon="8.71498">
        <ele>1475</ele>
        <time>2021-08-06T11:22:43.475Z</time>
      </trkpt>
      <trkpt lat="46.9463" lon="8.71498">
        <ele>1475</ele>
        <time>2021-08-06T11:22:44.475Z</time>
      </trkpt>
      <trkpt lat="46.94628" lon="8.71498">
        <ele>1475</ele>
        <time>2021-08-06T11:22:45.475Z</time>
      </trkpt>
      <trkpt lat="46.94628" lon="8.71498">
        <ele>1475</ele>
        <time>2021-08-06T11:22:46.475Z</time>
      </trkpt>
      <trkpt lat="46.94627" lon="8.71497">
        <ele>1474</ele>
        <time>2021-08-06T11:22:47.475Z</time>
      </trkpt>
      <trkpt lat="46.94626" lon="8.71496">
        <ele>1474</ele>
        <time>2021-08-06T11:22:48.476Z</time>
      </trkpt>
      <trkpt lat="46.94624" lon="8.71494">
        <ele>1474</ele>
        <time>2021-08-06T11:22:49.476Z</time>
      </trkpt>
      <trkpt lat="46.94623" lon="8.71492">
        <ele>1474</ele>
        <time>2021-08-06T11:22:50.476Z</time>
      </trkpt>
      <trkpt lat="46.94623" lon="8.71494">
        <ele>1474</ele>
        <time>2021-08-06T11:22:51.476Z</time>
      </trkpt>
      <trkpt lat="46.94622" lon="8.71495">
        <ele>1474</ele>
        <time>2021-08-06T11:22:52.476Z</time>
      </trkpt>
      <trkpt lat="46.94621" lon="8.71495">
        <ele>1474</ele>
        <time>2021-08-06T11:22:53.476Z</time>
      </trkpt>
      <trkpt lat="46.9462" lon="8.71496">
        <ele>1474</ele>
        <time>2021-08-06T11:22:54.476Z</time>
      </trkpt>
      <trkpt lat="46.94619" lon="8.71496">
        <ele>1475</ele>
        <time>2021-08-06T11:22:55.476Z</time>
      </trkpt>
      <trkpt lat="46.94618" lon="8.71497">
        <ele>1475</ele>
        <time>2021-08-06T11:22:56.475Z</time>
      </trkpt>
      <trkpt lat="46.94617" lon="8.71497">
        <ele>1475</ele>
        <time>2021-08-06T11:22:57.476Z</time>
      </trkpt>
      <trkpt lat="46.94617" lon="8.71496">
        <ele>1475</ele>
        <time>2021-08-06T11:22:58.476Z</time>
      </trkpt>
      <trkpt lat="46.94617" lon="8.71495">
        <ele>1475</ele>
        <time>2021-08-06T11:22:59.476Z</time>
      </trkpt>
      <trkpt lat="46.94616" lon="8.71495">
        <ele>1475</ele>
        <time>2021-08-06T11:23:00.476Z</time>
      </trkpt>
      <trkpt lat="46.94616" lon="8.71495">
        <ele>1475</ele>
        <time>2021-08-06T11:23:01.476Z</time>
      </trkpt>
      <trkpt lat="46.94615" lon="8.71495">
        <ele>1475</ele>
        <time>2021-08-06T11:23:02.475Z</time>
      </trkpt>
      <trkpt lat="46.94615" lon="8.71495">
        <ele>1475</ele>
        <time>2021-08-06T11:23:03.476Z</time>
      </trkpt>
      <trkpt lat="46.94614" lon="8.71495">
        <ele>1475</ele>
        <time>2021-08-06T11:23:04.476Z</time>
      </trkpt>
      <trkpt lat="46.94613" lon="8.71495">
        <ele>1474</ele>
        <time>2021-08-06T11:23:05.476Z</time>
      </trkpt>
      <trkpt lat="46.94612" lon="8.71494">
        <ele>1474</ele>
        <time>2021-08-06T11:23:06.476Z</time>
      </trkpt>
      <trkpt lat="46.94612" lon="8.71494">
        <ele>1473</ele>
        <time>2021-08-06T11:23:07.476Z</time>
      </trkpt>
      <trkpt lat="46.94611" lon="8.71493">
        <ele>1473</ele>
        <time>2021-08-06T11:23:08.475Z</time>
      </trkpt>
      <trkpt lat="46.94611" lon="8.71493">
        <ele>1473</ele>
        <time>2021-08-06T11:23:09.476Z</time>
      </trkpt>
      <trkpt lat="46.9461" lon="8.71494">
        <ele>1472</ele>
        <time>2021-08-06T11:23:10.475Z</time>
      </trkpt>
      <trkpt lat="46.9461" lon="8.71494">
        <ele>1472</ele>
        <time>2021-08-06T11:23:11.476Z</time>
      </trkpt>
      <trkpt lat="46.94609" lon="8.71494">
        <ele>1472</ele>
        <time>2021-08-06T11:23:12.476Z</time>
      </trkpt>
      <trkpt lat="46.94608" lon="8.71494">
        <ele>1473</ele>
        <time>2021-08-06T11:23:13.476Z</time>
      </trkpt>
      <trkpt lat="46.94608" lon="8.71493">
        <ele>1473</ele>
        <time>2021-08-06T11:23:14.476Z</time>
      </trkpt>
      <trkpt lat="46.94607" lon="8.71493">
        <ele>1473</ele>
        <time>2021-08-06T11:23:15.476Z</time>
      </trkpt>
      <trkpt lat="46.94607" lon="8.71493">
        <ele>1474</ele>
        <time>2021-08-06T11:23:16.476Z</time>
      </trkpt>
      <trkpt lat="46.94607" lon="8.71493">
        <ele>1475</ele>
        <time>2021-08-06T11:23:17.476Z</time>
      </trkpt>
      <trkpt lat="46.94606" lon="8.71493">
        <ele>1475</ele>
        <time>2021-08-06T11:23:18.475Z</time>
      </trkpt>
      <trkpt lat="46.94606" lon="8.71493">
        <ele>1476</ele>
        <time>2021-08-06T11:23:19.476Z</time>
      </trkpt>
      <trkpt lat="46.94606" lon="8.71493">
        <ele>1476</ele>
        <time>2021-08-06T11:23:20.476Z</time>
      </trkpt>
      <trkpt lat="46.94605" lon="8.71492">
        <ele>1477</ele>
        <time>2021-08-06T11:23:21.476Z</time>
      </trkpt>
      <trkpt lat="46.94605" lon="8.71492">
        <ele>1478</ele>
        <time>2021-08-06T11:23:22.476Z</time>
      </trkpt>
      <trkpt lat="46.94605" lon="8.71492">
        <ele>1479</ele>
        <time>2021-08-06T11:23:23.476Z</time>
      </trkpt>
      <trkpt lat="46.94605" lon="8.71492">
        <ele>1480</ele>
        <time>2021-08-06T11:23:24.475Z</time>
      </trkpt>
      <trkpt lat="46.94604" lon="8.71492">
        <ele>1481</ele>
        <time>2021-08-06T11:23:25.475Z</time>
      </trkpt>
      <trkpt lat="46.94603" lon="8.71492">
        <ele>1481</ele>
        <time>2021-08-06T11:23:26.476Z</time>
      </trkpt>
      <trkpt lat="46.94602" lon="8.71493">
        <ele>1481</ele>
        <time>2021-08-06T11:23:27.476Z</time>
      </trkpt>
      <trkpt lat="46.94602" lon="8.71493">
        <ele>1481</ele>
        <time>2021-08-06T11:23:28.475Z</time>
      </trkpt>
      <trkpt lat="46.94601" lon="8.71493">
        <ele>1481</ele>
        <time>2021-08-06T11:23:29.476Z</time>
      </trkpt>
      <trkpt lat="46.946" lon="8.71493">
        <ele>1481</ele>
        <time>2021-08-06T11:23:30.476Z</time>
      </trkpt>
      <trkpt lat="46.946" lon="8.71493">
        <ele>1481</ele>
        <time>2021-08-06T11:23:31.475Z</time>
      </trkpt>
      <trkpt lat="46.94599" lon="8.71493">
        <ele>1480</ele>
        <time>2021-08-06T11:23:32.476Z</time>
      </trkpt>
      <trkpt lat="46.94599" lon="8.71492">
        <ele>1481</ele>
        <time>2021-08-06T11:23:33.476Z</time>
      </trkpt>
      <trkpt lat="46.94599" lon="8.71492">
        <ele>1481</ele>
        <time>2021-08-06T11:23:34.476Z</time>
      </trkpt>
      <trkpt lat="46.94598" lon="8.71492">
        <ele>1481</ele>
        <time>2021-08-06T11:23:35.475Z</time>
      </trkpt>
      <trkpt lat="46.94598" lon="8.71492">
        <ele>1481</ele>
        <time>2021-08-06T11:23:36.475Z</time>
      </trkpt>
      <trkpt lat="46.94598" lon="8.71492">
        <ele>1482</ele>
        <time>2021-08-06T11:23:37.475Z</time>
      </trkpt>
      <trkpt lat="46.94598" lon="8.71492">
        <ele>1482</ele>
        <time>2021-08-06T11:23:38.475Z</time>
      </trkpt>
      <trkpt lat="46.94597" lon="8.71492">
        <ele>1482</ele>
        <time>2021-08-06T11:23:39.475Z</time>
      </trkpt>
      <trkpt lat="46.94597" lon="8.71492">
        <ele>1482</ele>
        <time>2021-08-06T11:23:40.476Z</time>
      </trkpt>
      <trkpt lat="46.94596" lon="8.71492">
        <ele>1482</ele>
        <time>2021-08-06T11:23:41.475Z</time>
      </trkpt>
      <trkpt lat="46.94597" lon="8.71492">
        <ele>1482</ele>
        <time>2021-08-06T11:23:42.475Z</time>
      </trkpt>
      <trkpt lat="46.94597" lon="8.71492">
        <ele>1482</ele>
        <time>2021-08-06T11:23:43.476Z</time>
      </trkpt>
      <trkpt lat="46.94597" lon="8.71492">
        <ele>1482</ele>
        <time>2021-08-06T11:23:44.475Z</time>
      </trkpt>
      <trkpt lat="46.94597" lon="8.71493">
        <ele>1481</ele>
        <time>2021-08-06T11:23:45.475Z</time>
      </trkpt>
      <trkpt lat="46.94596" lon="8.71493">
        <ele>1480</ele>
        <time>2021-08-06T11:23:46.476Z</time>
      </trkpt>
      <trkpt lat="46.94596" lon="8.71493">
        <ele>1480</ele>
        <time>2021-08-06T11:23:47.476Z</time>
      </trkpt>
      <trkpt lat="46.94596" lon="8.71494">
        <ele>1479</ele>
        <time>2021-08-06T11:23:48.475Z</time>
      </trkpt>
      <trkpt lat="46.94596" lon="8.71494">
        <ele>1479</ele>
        <time>2021-08-06T11:23:49.475Z</time>
      </trkpt>
      <trkpt lat="46.94596" lon="8.71495">
        <ele>1479</ele>
        <time>2021-08-06T11:23:50.476Z</time>
      </trkpt>
      <trkpt lat="46.94595" lon="8.71496">
        <ele>1478</ele>
        <time>2021-08-06T11:23:51.476Z</time>
      </trkpt>
      <trkpt lat="46.94595" lon="8.71497">
        <ele>1478</ele>
        <time>2021-08-06T11:23:52.476Z</time>
      </trkpt>
      <trkpt lat="46.94595" lon="8.71497">
        <ele>1478</ele>
        <time>2021-08-06T11:23:53.476Z</time>
      </trkpt>
      <trkpt lat="46.94596" lon="8.71496">
        <ele>1479</ele>
        <time>2021-08-06T11:23:54.478Z</time>
      </trkpt>
      <trkpt lat="46.94596" lon="8.71495">
        <ele>1479</ele>
        <time>2021-08-06T11:23:55.477Z</time>
      </trkpt>
      <trkpt lat="46.94595" lon="8.71495">
        <ele>1479</ele>
        <time>2021-08-06T11:23:56.478Z</time>
      </trkpt>
      <trkpt lat="46.94594" lon="8.71495">
        <ele>1479</ele>
        <time>2021-08-06T11:23:57.478Z</time>
      </trkpt>
      <trkpt lat="46.94594" lon="8.71495">
        <ele>1479</ele>
        <time>2021-08-06T11:23:58.477Z</time>
      </trkpt>
      <trkpt lat="46.94593" lon="8.71494">
        <ele>1479</ele>
        <time>2021-08-06T11:23:59.477Z</time>
      </trkpt>
      <trkpt lat="46.94593" lon="8.71494">
        <ele>1480</ele>
        <time>2021-08-06T11:24:00.478Z</time>
      </trkpt>
      <trkpt lat="46.94592" lon="8.71494">
        <ele>1480</ele>
        <time>2021-08-06T11:24:01.478Z</time>
      </trkpt>
      <trkpt lat="46.94591" lon="8.71494">
        <ele>1480</ele>
        <time>2021-08-06T11:24:02.477Z</time>
      </trkpt>
      <trkpt lat="46.9459" lon="8.71493">
        <ele>1480</ele>
        <time>2021-08-06T11:24:03.477Z</time>
      </trkpt>
      <trkpt lat="46.94589" lon="8.71493">
        <ele>1481</ele>
        <time>2021-08-06T11:24:04.477Z</time>
      </trkpt>
      <trkpt lat="46.94588" lon="8.71492">
        <ele>1481</ele>
        <time>2021-08-06T11:24:05.477Z</time>
      </trkpt>
      <trkpt lat="46.94588" lon="8.71492">
        <ele>1481</ele>
        <time>2021-08-06T11:24:06.477Z</time>
      </trkpt>
      <trkpt lat="46.94587" lon="8.71491">
        <ele>1481</ele>
        <time>2021-08-06T11:24:07.477Z</time>
      </trkpt>
      <trkpt lat="46.94586" lon="8.71491">
        <ele>1482</ele>
        <time>2021-08-06T11:24:08.478Z</time>
      </trkpt>
      <trkpt lat="46.94585" lon="8.7149">
        <ele>1482</ele>
        <time>2021-08-06T11:24:09.477Z</time>
      </trkpt>
      <trkpt lat="46.94585" lon="8.7149">
        <ele>1482</ele>
        <time>2021-08-06T11:24:10.478Z</time>
      </trkpt>
      <trkpt lat="46.94584" lon="8.7149">
        <ele>1482</ele>
        <time>2021-08-06T11:24:11.477Z</time>
      </trkpt>
      <trkpt lat="46.94584" lon="8.7149">
        <ele>1482</ele>
        <time>2021-08-06T11:24:12.478Z</time>
      </trkpt>
      <trkpt lat="46.94583" lon="8.7149">
        <ele>1482</ele>
        <time>2021-08-06T11:24:13.477Z</time>
      </trkpt>
      <trkpt lat="46.94581" lon="8.71489">
        <ele>1482</ele>
        <time>2021-08-06T11:24:14.478Z</time>
      </trkpt>
      <trkpt lat="46.9458" lon="8.71489">
        <ele>1482</ele>
        <time>2021-08-06T11:24:15.478Z</time>
      </trkpt>
      <trkpt lat="46.9458" lon="8.71488">
        <ele>1482</ele>
        <time>2021-08-06T11:24:16.477Z</time>
      </trkpt>
      <trkpt lat="46.9458" lon="8.71487">
        <ele>1482</ele>
        <time>2021-08-06T11:24:17.477Z</time>
      </trkpt>
      <trkpt lat="46.9458" lon="8.71486">
        <ele>1482</ele>
        <time>2021-08-06T11:24:18.477Z</time>
      </trkpt>
      <trkpt lat="46.94581" lon="8.71485">
        <ele>1482</ele>
        <time>2021-08-06T11:24:19.477Z</time>
      </trkpt>
      <trkpt lat="46.94581" lon="8.71484">
        <ele>1483</ele>
        <time>2021-08-06T11:24:20.477Z</time>
      </trkpt>
      <trkpt lat="46.94581" lon="8.71483">
        <ele>1483</ele>
        <time>2021-08-06T11:24:21.477Z</time>
      </trkpt>
      <trkpt lat="46.94581" lon="8.71482">
        <ele>1483</ele>
        <time>2021-08-06T11:24:22.477Z</time>
      </trkpt>
      <trkpt lat="46.94582" lon="8.71482">
        <ele>1484</ele>
        <time>2021-08-06T11:24:23.477Z</time>
      </trkpt>
      <trkpt lat="46.94582" lon="8.71481">
        <ele>1484</ele>
        <time>2021-08-06T11:24:24.477Z</time>
      </trkpt>
      <trkpt lat="46.94583" lon="8.71481">
        <ele>1484</ele>
        <time>2021-08-06T11:24:25.477Z</time>
      </trkpt>
      <trkpt lat="46.94584" lon="8.7148">
        <ele>1484</ele>
        <time>2021-08-06T11:24:26.477Z</time>
      </trkpt>
      <trkpt lat="46.94584" lon="8.71479">
        <ele>1485</ele>
        <time>2021-08-06T11:24:27.478Z</time>
      </trkpt>
      <trkpt lat="46.94585" lon="8.71478">
        <ele>1485</ele>
        <time>2021-08-06T11:24:28.478Z</time>
      </trkpt>
      <trkpt lat="46.94586" lon="8.71477">
        <ele>1485</ele>
        <time>2021-08-06T11:24:29.477Z</time>
      </trkpt>
      <trkpt lat="46.94586" lon="8.71476">
        <ele>1485</ele>
        <time>2021-08-06T11:24:30.477Z</time>
      </trkpt>
      <trkpt lat="46.94585" lon="8.71475">
        <ele>1486</ele>
        <time>2021-08-06T11:24:31.478Z</time>
      </trkpt>
      <trkpt lat="46.94585" lon="8.71474">
        <ele>1486</ele>
        <time>2021-08-06T11:24:32.478Z</time>
      </trkpt>
      <trkpt lat="46.94584" lon="8.71473">
        <ele>1486</ele>
        <time>2021-08-06T11:24:33.477Z</time>
      </trkpt>
      <trkpt lat="46.94584" lon="8.71471">
        <ele>1486</ele>
        <time>2021-08-06T11:24:34.478Z</time>
      </trkpt>
      <trkpt lat="46.94583" lon="8.7147">
        <ele>1486</ele>
        <time>2021-08-06T11:24:35.477Z</time>
      </trkpt>
      <trkpt lat="46.94582" lon="8.7147">
        <ele>1486</ele>
        <time>2021-08-06T11:24:36.477Z</time>
      </trkpt>
      <trkpt lat="46.94582" lon="8.71469">
        <ele>1486</ele>
        <time>2021-08-06T11:24:37.477Z</time>
      </trkpt>
      <trkpt lat="46.94581" lon="8.71468">
        <ele>1487</ele>
        <time>2021-08-06T11:24:38.477Z</time>
      </trkpt>
      <trkpt lat="46.94581" lon="8.71466">
        <ele>1487</ele>
        <time>2021-08-06T11:24:39.477Z</time>
      </trkpt>
      <trkpt lat="46.9458" lon="8.71465">
        <ele>1487</ele>
        <time>2021-08-06T11:24:40.477Z</time>
      </trkpt>
      <trkpt lat="46.9458" lon="8.71463">
        <ele>1486</ele>
        <time>2021-08-06T11:24:41.477Z</time>
      </trkpt>
      <trkpt lat="46.9458" lon="8.71463">
        <ele>1486</ele>
        <time>2021-08-06T11:24:42.477Z</time>
      </trkpt>
      <trkpt lat="46.94579" lon="8.71462">
        <ele>1486</ele>
        <time>2021-08-06T11:24:43.477Z</time>
      </trkpt>
      <trkpt lat="46.94579" lon="8.71461">
        <ele>1486</ele>
        <time>2021-08-06T11:24:44.478Z</time>
      </trkpt>
      <trkpt lat="46.94579" lon="8.7146">
        <ele>1486</ele>
        <time>2021-08-06T11:24:45.477Z</time>
      </trkpt>
      <trkpt lat="46.94578" lon="8.71458">
        <ele>1486</ele>
        <time>2021-08-06T11:24:46.478Z</time>
      </trkpt>
      <trkpt lat="46.94577" lon="8.71456">
        <ele>1486</ele>
        <time>2021-08-06T11:24:47.478Z</time>
      </trkpt>
      <trkpt lat="46.94576" lon="8.71455">
        <ele>1486</ele>
        <time>2021-08-06T11:24:48.477Z</time>
      </trkpt>
      <trkpt lat="46.94575" lon="8.71453">
        <ele>1486</ele>
        <time>2021-08-06T11:24:49.477Z</time>
      </trkpt>
      <trkpt lat="46.94575" lon="8.71452">
        <ele>1487</ele>
        <time>2021-08-06T11:24:54.580Z</time>
      </trkpt>
      <trkpt lat="46.94574" lon="8.71451">
        <ele>1487</ele>
        <time>2021-08-06T11:24:55.580Z</time>
      </trkpt>
      <trkpt lat="46.94574" lon="8.71451">
        <ele>1487</ele>
        <time>2021-08-06T11:24:56.581Z</time>
      </trkpt>
      <trkpt lat="46.94574" lon="8.7145">
        <ele>1487</ele>
        <time>2021-08-06T11:24:57.581Z</time>
      </trkpt>
      <trkpt lat="46.94573" lon="8.7145">
        <ele>1486</ele>
        <time>2021-08-06T11:24:58.581Z</time>
      </trkpt>
      <trkpt lat="46.94572" lon="8.71449">
        <ele>1486</ele>
        <time>2021-08-06T11:24:59.581Z</time>
      </trkpt>
      <trkpt lat="46.94571" lon="8.71447">
        <ele>1486</ele>
        <time>2021-08-06T11:25:00.581Z</time>
      </trkpt>
      <trkpt lat="46.9457" lon="8.71446">
        <ele>1485</ele>
        <time>2021-08-06T11:25:01.581Z</time>
      </trkpt>
      <trkpt lat="46.9457" lon="8.71445">
        <ele>1486</ele>
        <time>2021-08-06T11:25:02.581Z</time>
      </trkpt>
      <trkpt lat="46.94569" lon="8.71444">
        <ele>1486</ele>
        <time>2021-08-06T11:25:03.580Z</time>
      </trkpt>
      <trkpt lat="46.94568" lon="8.71443">
        <ele>1486</ele>
        <time>2021-08-06T11:25:04.580Z</time>
      </trkpt>
      <trkpt lat="46.94567" lon="8.71442">
        <ele>1486</ele>
        <time>2021-08-06T11:25:05.581Z</time>
      </trkpt>
      <trkpt lat="46.94566" lon="8.7144">
        <ele>1486</ele>
        <time>2021-08-06T11:25:06.580Z</time>
      </trkpt>
      <trkpt lat="46.94566" lon="8.71438">
        <ele>1487</ele>
        <time>2021-08-06T11:25:07.581Z</time>
      </trkpt>
      <trkpt lat="46.94565" lon="8.71437">
        <ele>1487</ele>
        <time>2021-08-06T11:25:08.581Z</time>
      </trkpt>
      <trkpt lat="46.94564" lon="8.71435">
        <ele>1487</ele>
        <time>2021-08-06T11:25:09.581Z</time>
      </trkpt>
      <trkpt lat="46.94564" lon="8.71433">
        <ele>1487</ele>
        <time>2021-08-06T11:25:10.581Z</time>
      </trkpt>
      <trkpt lat="46.94563" lon="8.71432">
        <ele>1488</ele>
        <time>2021-08-06T11:25:11.581Z</time>
      </trkpt>
      <trkpt lat="46.94563" lon="8.71432">
        <ele>1488</ele>
        <time>2021-08-06T11:25:12.580Z</time>
      </trkpt>
      <trkpt lat="46.94562" lon="8.71431">
        <ele>1488</ele>
        <time>2021-08-06T11:25:13.581Z</time>
      </trkpt>
      <trkpt lat="46.94562" lon="8.7143">
        <ele>1488</ele>
        <time>2021-08-06T11:25:14.581Z</time>
      </trkpt>
      <trkpt lat="46.94561" lon="8.71429">
        <ele>1488</ele>
        <time>2021-08-06T11:25:15.581Z</time>
      </trkpt>
      <trkpt lat="46.94561" lon="8.71428">
        <ele>1488</ele>
        <time>2021-08-06T11:25:16.580Z</time>
      </trkpt>
      <trkpt lat="46.9456" lon="8.71428">
        <ele>1487</ele>
        <time>2021-08-06T11:25:17.581Z</time>
      </trkpt>
      <trkpt lat="46.9456" lon="8.71428">
        <ele>1487</ele>
        <time>2021-08-06T11:25:18.580Z</time>
      </trkpt>
      <trkpt lat="46.94559" lon="8.71428">
        <ele>1487</ele>
        <time>2021-08-06T11:25:19.580Z</time>
      </trkpt>
      <trkpt lat="46.94559" lon="8.71428">
        <ele>1487</ele>
        <time>2021-08-06T11:25:20.581Z</time>
      </trkpt>
      <trkpt lat="46.94558" lon="8.71428">
        <ele>1487</ele>
        <time>2021-08-06T11:25:21.581Z</time>
      </trkpt>
      <trkpt lat="46.94557" lon="8.71428">
        <ele>1488</ele>
        <time>2021-08-06T11:25:22.581Z</time>
      </trkpt>
      <trkpt lat="46.94557" lon="8.71429">
        <ele>1488</ele>
        <time>2021-08-06T11:25:23.581Z</time>
      </trkpt>
      <trkpt lat="46.94556" lon="8.71429">
        <ele>1488</ele>
        <time>2021-08-06T11:25:24.581Z</time>
      </trkpt>
      <trkpt lat="46.94556" lon="8.7143">
        <ele>1489</ele>
        <time>2021-08-06T11:25:25.581Z</time>
      </trkpt>
      <trkpt lat="46.94555" lon="8.71431">
        <ele>1489</ele>
        <time>2021-08-06T11:25:26.581Z</time>
      </trkpt>
      <trkpt lat="46.94555" lon="8.71431">
        <ele>1489</ele>
        <time>2021-08-06T11:25:27.581Z</time>
      </trkpt>
      <trkpt lat="46.94554" lon="8.71432">
        <ele>1489</ele>
        <time>2021-08-06T11:25:29.675Z</time>
      </trkpt>
      <trkpt lat="46.94553" lon="8.71432">
        <ele>1489</ele>
        <time>2021-08-06T11:25:30.675Z</time>
      </trkpt>
      <trkpt lat="46.94553" lon="8.71432">
        <ele>1489</ele>
        <time>2021-08-06T11:25:31.675Z</time>
      </trkpt>
      <trkpt lat="46.94552" lon="8.71433">
        <ele>1490</ele>
        <time>2021-08-06T11:25:32.674Z</time>
      </trkpt>
      <trkpt lat="46.94552" lon="8.71433">
        <ele>1490</ele>
        <time>2021-08-06T11:25:33.674Z</time>
      </trkpt>
      <trkpt lat="46.94551" lon="8.71433">
        <ele>1490</ele>
        <time>2021-08-06T11:25:34.674Z</time>
      </trkpt>
      <trkpt lat="46.94551" lon="8.71432">
        <ele>1491</ele>
        <time>2021-08-06T11:25:35.674Z</time>
      </trkpt>
      <trkpt lat="46.9455" lon="8.71431">
        <ele>1491</ele>
        <time>2021-08-06T11:25:36.675Z</time>
      </trkpt>
      <trkpt lat="46.94549" lon="8.7143">
        <ele>1491</ele>
        <time>2021-08-06T11:25:37.674Z</time>
      </trkpt>
      <trkpt lat="46.94549" lon="8.7143">
        <ele>1491</ele>
        <time>2021-08-06T11:25:38.675Z</time>
      </trkpt>
      <trkpt lat="46.94548" lon="8.71429">
        <ele>1492</ele>
        <time>2021-08-06T11:25:39.674Z</time>
      </trkpt>
      <trkpt lat="46.94547" lon="8.71428">
        <ele>1492</ele>
        <time>2021-08-06T11:25:40.675Z</time>
      </trkpt>
      <trkpt lat="46.94547" lon="8.71427">
        <ele>1493</ele>
        <time>2021-08-06T11:25:41.674Z</time>
      </trkpt>
      <trkpt lat="46.94547" lon="8.71425">
        <ele>1493</ele>
        <time>2021-08-06T11:25:42.674Z</time>
      </trkpt>
      <trkpt lat="46.94548" lon="8.71424">
        <ele>1493</ele>
        <time>2021-08-06T11:25:43.675Z</time>
      </trkpt>
      <trkpt lat="46.94548" lon="8.71424">
        <ele>1494</ele>
        <time>2021-08-06T11:25:44.675Z</time>
      </trkpt>
      <trkpt lat="46.94548" lon="8.71423">
        <ele>1494</ele>
        <time>2021-08-06T11:25:45.675Z</time>
      </trkpt>
      <trkpt lat="46.94548" lon="8.71422">
        <ele>1494</ele>
        <time>2021-08-06T11:25:46.674Z</time>
      </trkpt>
      <trkpt lat="46.94549" lon="8.71421">
        <ele>1494</ele>
        <time>2021-08-06T11:25:47.675Z</time>
      </trkpt>
      <trkpt lat="46.94549" lon="8.7142">
        <ele>1495</ele>
        <time>2021-08-06T11:25:48.675Z</time>
      </trkpt>
      <trkpt lat="46.94549" lon="8.71419">
        <ele>1495</ele>
        <time>2021-08-06T11:25:49.675Z</time>
      </trkpt>
      <trkpt lat="46.94549" lon="8.71419">
        <ele>1495</ele>
        <time>2021-08-06T11:25:50.675Z</time>
      </trkpt>
      <trkpt lat="46.94549" lon="8.71418">
        <ele>1495</ele>
        <time>2021-08-06T11:25:51.675Z</time>
      </trkpt>
      <trkpt lat="46.94548" lon="8.71417">
        <ele>1496</ele>
        <time>2021-08-06T11:25:52.675Z</time>
      </trkpt>
      <trkpt lat="46.94548" lon="8.71417">
        <ele>1496</ele>
        <time>2021-08-06T11:25:53.675Z</time>
      </trkpt>
      <trkpt lat="46.94547" lon="8.71417">
        <ele>1496</ele>
        <time>2021-08-06T11:25:54.675Z</time>
      </trkpt>
      <trkpt lat="46.94546" lon="8.71417">
        <ele>1496</ele>
        <time>2021-08-06T11:25:55.675Z</time>
      </trkpt>
      <trkpt lat="46.94545" lon="8.71417">
        <ele>1497</ele>
        <time>2021-08-06T11:25:56.675Z</time>
      </trkpt>
      <trkpt lat="46.94545" lon="8.71417">
        <ele>1497</ele>
        <time>2021-08-06T11:25:57.675Z</time>
      </trkpt>
      <trkpt lat="46.94544" lon="8.71417">
        <ele>1497</ele>
        <time>2021-08-06T11:25:58.675Z</time>
      </trkpt>
      <trkpt lat="46.94543" lon="8.71417">
        <ele>1498</ele>
        <time>2021-08-06T11:25:59.675Z</time>
      </trkpt>
      <trkpt lat="46.94543" lon="8.71417">
        <ele>1498</ele>
        <time>2021-08-06T11:26:00.674Z</time>
      </trkpt>
      <trkpt lat="46.94542" lon="8.71418">
        <ele>1499</ele>
        <time>2021-08-06T11:26:01.675Z</time>
      </trkpt>
      <trkpt lat="46.94541" lon="8.71418">
        <ele>1499</ele>
        <time>2021-08-06T11:26:02.675Z</time>
      </trkpt>
      <trkpt lat="46.9454" lon="8.71418">
        <ele>1500</ele>
        <time>2021-08-06T11:26:03.675Z</time>
      </trkpt>
      <trkpt lat="46.94539" lon="8.71418">
        <ele>1501</ele>
        <time>2021-08-06T11:26:04.675Z</time>
      </trkpt>
      <trkpt lat="46.94539" lon="8.71419">
        <ele>1501</ele>
        <time>2021-08-06T11:26:05.675Z</time>
      </trkpt>
      <trkpt lat="46.94538" lon="8.71419">
        <ele>1502</ele>
        <time>2021-08-06T11:26:06.674Z</time>
      </trkpt>
      <trkpt lat="46.94538" lon="8.7142">
        <ele>1502</ele>
        <time>2021-08-06T11:26:07.674Z</time>
      </trkpt>
      <trkpt lat="46.94537" lon="8.71419">
        <ele>1503</ele>
        <time>2021-08-06T11:26:08.675Z</time>
      </trkpt>
      <trkpt lat="46.94536" lon="8.71419">
        <ele>1503</ele>
        <time>2021-08-06T11:26:09.675Z</time>
      </trkpt>
      <trkpt lat="46.94536" lon="8.71419">
        <ele>1503</ele>
        <time>2021-08-06T11:26:10.675Z</time>
      </trkpt>
      <trkpt lat="46.94535" lon="8.71419">
        <ele>1504</ele>
        <time>2021-08-06T11:26:11.675Z</time>
      </trkpt>
      <trkpt lat="46.94534" lon="8.7142">
        <ele>1504</ele>
        <time>2021-08-06T11:26:12.675Z</time>
      </trkpt>
      <trkpt lat="46.94533" lon="8.71421">
        <ele>1505</ele>
        <time>2021-08-06T11:26:13.674Z</time>
      </trkpt>
      <trkpt lat="46.94532" lon="8.71422">
        <ele>1505</ele>
        <time>2021-08-06T11:26:14.674Z</time>
      </trkpt>
      <trkpt lat="46.94531" lon="8.71422">
        <ele>1505</ele>
        <time>2021-08-06T11:26:21.730Z</time>
      </trkpt>
      <trkpt lat="46.94531" lon="8.71423">
        <ele>1505</ele>
        <time>2021-08-06T11:26:22.730Z</time>
      </trkpt>
      <trkpt lat="46.94531" lon="8.71423">
        <ele>1506</ele>
        <time>2021-08-06T11:26:23.729Z</time>
      </trkpt>
      <trkpt lat="46.9453" lon="8.71423">
        <ele>1506</ele>
        <time>2021-08-06T11:26:24.730Z</time>
      </trkpt>
      <trkpt lat="46.9453" lon="8.71422">
        <ele>1507</ele>
        <time>2021-08-06T11:26:25.730Z</time>
      </trkpt>
      <trkpt lat="46.94529" lon="8.71422">
        <ele>1507</ele>
        <time>2021-08-06T11:26:26.730Z</time>
      </trkpt>
      <trkpt lat="46.94529" lon="8.71422">
        <ele>1508</ele>
        <time>2021-08-06T11:26:27.730Z</time>
      </trkpt>
      <trkpt lat="46.94528" lon="8.71422">
        <ele>1508</ele>
        <time>2021-08-06T11:26:28.729Z</time>
      </trkpt>
      <trkpt lat="46.94528" lon="8.71422">
        <ele>1508</ele>
        <time>2021-08-06T11:26:29.730Z</time>
      </trkpt>
      <trkpt lat="46.94527" lon="8.71423">
        <ele>1510</ele>
        <time>2021-08-06T11:26:30.731Z</time>
      </trkpt>
      <trkpt lat="46.94526" lon="8.71424">
        <ele>1511</ele>
        <time>2021-08-06T11:26:31.731Z</time>
      </trkpt>
      <trkpt lat="46.94526" lon="8.71424">
        <ele>1511</ele>
        <time>2021-08-06T11:26:32.731Z</time>
      </trkpt>
      <trkpt lat="46.94525" lon="8.71423">
        <ele>1512</ele>
        <time>2021-08-06T11:26:33.731Z</time>
      </trkpt>
      <trkpt lat="46.94525" lon="8.71423">
        <ele>1513</ele>
        <time>2021-08-06T11:26:34.731Z</time>
      </trkpt>
      <trkpt lat="46.94524" lon="8.71423">
        <ele>1513</ele>
        <time>2021-08-06T11:26:35.730Z</time>
      </trkpt>
      <trkpt lat="46.94524" lon="8.71423">
        <ele>1514</ele>
        <time>2021-08-06T11:26:36.730Z</time>
      </trkpt>
      <trkpt lat="46.94524" lon="8.71423">
        <ele>1515</ele>
        <time>2021-08-06T11:26:37.730Z</time>
      </trkpt>
      <trkpt lat="46.94523" lon="8.71424">
        <ele>1515</ele>
        <time>2021-08-06T11:26:38.731Z</time>
      </trkpt>
      <trkpt lat="46.94522" lon="8.71424">
        <ele>1515</ele>
        <time>2021-08-06T11:26:39.731Z</time>
      </trkpt>
      <trkpt lat="46.94522" lon="8.71424">
        <ele>1515</ele>
        <time>2021-08-06T11:26:40.730Z</time>
      </trkpt>
      <trkpt lat="46.94522" lon="8.71422">
        <ele>1515</ele>
        <time>2021-08-06T11:26:41.731Z</time>
      </trkpt>
      <trkpt lat="46.94521" lon="8.71421">
        <ele>1516</ele>
        <time>2021-08-06T11:26:42.730Z</time>
      </trkpt>
      <trkpt lat="46.9452" lon="8.71419">
        <ele>1516</ele>
        <time>2021-08-06T11:26:43.730Z</time>
      </trkpt>
      <trkpt lat="46.94519" lon="8.71418">
        <ele>1515</ele>
        <time>2021-08-06T11:26:44.731Z</time>
      </trkpt>
      <trkpt lat="46.94518" lon="8.71418">
        <ele>1515</ele>
        <time>2021-08-06T11:26:45.731Z</time>
      </trkpt>
      <trkpt lat="46.94517" lon="8.71417">
        <ele>1515</ele>
        <time>2021-08-06T11:26:46.731Z</time>
      </trkpt>
      <trkpt lat="46.94516" lon="8.71417">
        <ele>1515</ele>
        <time>2021-08-06T11:26:47.731Z</time>
      </trkpt>
      <trkpt lat="46.94516" lon="8.71418">
        <ele>1514</ele>
        <time>2021-08-06T11:26:48.731Z</time>
      </trkpt>
      <trkpt lat="46.94516" lon="8.71418">
        <ele>1513</ele>
        <time>2021-08-06T11:26:49.730Z</time>
      </trkpt>
      <trkpt lat="46.94516" lon="8.71418">
        <ele>1513</ele>
        <time>2021-08-06T11:26:50.731Z</time>
      </trkpt>
      <trkpt lat="46.94516" lon="8.71418">
        <ele>1512</ele>
        <time>2021-08-06T11:26:51.730Z</time>
      </trkpt>
      <trkpt lat="46.94515" lon="8.71419">
        <ele>1511</ele>
        <time>2021-08-06T11:26:52.731Z</time>
      </trkpt>
      <trkpt lat="46.94515" lon="8.7142">
        <ele>1510</ele>
        <time>2021-08-06T11:26:53.731Z</time>
      </trkpt>
      <trkpt lat="46.94514" lon="8.7142">
        <ele>1510</ele>
        <time>2021-08-06T11:26:54.731Z</time>
      </trkpt>
      <trkpt lat="46.94513" lon="8.71421">
        <ele>1509</ele>
        <time>2021-08-06T11:26:55.731Z</time>
      </trkpt>
      <trkpt lat="46.94513" lon="8.71422">
        <ele>1508</ele>
        <time>2021-08-06T11:26:56.731Z</time>
      </trkpt>
      <trkpt lat="46.94512" lon="8.71424">
        <ele>1508</ele>
        <time>2021-08-06T11:26:57.731Z</time>
      </trkpt>
      <trkpt lat="46.94512" lon="8.71425">
        <ele>1508</ele>
        <time>2021-08-06T11:26:58.731Z</time>
      </trkpt>
      <trkpt lat="46.94512" lon="8.71425">
        <ele>1507</ele>
        <time>2021-08-06T11:26:59.730Z</time>
      </trkpt>
      <trkpt lat="46.94511" lon="8.71426">
        <ele>1507</ele>
        <time>2021-08-06T11:27:00.731Z</time>
      </trkpt>
      <trkpt lat="46.94511" lon="8.71427">
        <ele>1507</ele>
        <time>2021-08-06T11:27:01.731Z</time>
      </trkpt>
      <trkpt lat="46.94512" lon="8.71428">
        <ele>1506</ele>
        <time>2021-08-06T11:27:02.731Z</time>
      </trkpt>
      <trkpt lat="46.94512" lon="8.71429">
        <ele>1506</ele>
        <time>2021-08-06T11:27:03.731Z</time>
      </trkpt>
      <trkpt lat="46.94512" lon="8.71431">
        <ele>1506</ele>
        <time>2021-08-06T11:27:04.730Z</time>
      </trkpt>
      <trkpt lat="46.94512" lon="8.71431">
        <ele>1505</ele>
        <time>2021-08-06T11:27:05.730Z</time>
      </trkpt>
      <trkpt lat="46.94511" lon="8.71432">
        <ele>1505</ele>
        <time>2021-08-06T11:27:06.731Z</time>
      </trkpt>
      <trkpt lat="46.94511" lon="8.71433">
        <ele>1505</ele>
        <time>2021-08-06T11:27:07.730Z</time>
      </trkpt>
      <trkpt lat="46.9451" lon="8.71434">
        <ele>1505</ele>
        <time>2021-08-06T11:27:08.730Z</time>
      </trkpt>
      <trkpt lat="46.94509" lon="8.71435">
        <ele>1505</ele>
        <time>2021-08-06T11:27:09.730Z</time>
      </trkpt>
      <trkpt lat="46.94509" lon="8.71437">
        <ele>1505</ele>
        <time>2021-08-06T11:27:10.730Z</time>
      </trkpt>
      <trkpt lat="46.94508" lon="8.71438">
        <ele>1506</ele>
        <time>2021-08-06T11:27:11.730Z</time>
      </trkpt>
      <trkpt lat="46.94508" lon="8.71438">
        <ele>1506</ele>
        <time>2021-08-06T11:27:12.731Z</time>
      </trkpt>
      <trkpt lat="46.94509" lon="8.71438">
        <ele>1507</ele>
        <time>2021-08-06T11:27:13.731Z</time>
      </trkpt>
      <trkpt lat="46.94509" lon="8.71437">
        <ele>1508</ele>
        <time>2021-08-06T11:27:14.730Z</time>
      </trkpt>
      <trkpt lat="46.94509" lon="8.71435">
        <ele>1509</ele>
        <time>2021-08-06T11:27:15.731Z</time>
      </trkpt>
      <trkpt lat="46.94509" lon="8.71434">
        <ele>1510</ele>
        <time>2021-08-06T11:27:16.731Z</time>
      </trkpt>
      <trkpt lat="46.94509" lon="8.71433">
        <ele>1511</ele>
        <time>2021-08-06T11:27:17.731Z</time>
      </trkpt>
      <trkpt lat="46.94509" lon="8.71432">
        <ele>1512</ele>
        <time>2021-08-06T11:27:18.730Z</time>
      </trkpt>
      <trkpt lat="46.94508" lon="8.71431">
        <ele>1512</ele>
        <time>2021-08-06T11:27:19.731Z</time>
      </trkpt>
      <trkpt lat="46.94508" lon="8.71431">
        <ele>1513</ele>
        <time>2021-08-06T11:27:20.730Z</time>
      </trkpt>
      <trkpt lat="46.94508" lon="8.71429">
        <ele>1514</ele>
        <time>2021-08-06T11:27:21.731Z</time>
      </trkpt>
      <trkpt lat="46.94507" lon="8.71427">
        <ele>1514</ele>
        <time>2021-08-06T11:27:22.730Z</time>
      </trkpt>
      <trkpt lat="46.94507" lon="8.71426">
        <ele>1514</ele>
        <time>2021-08-06T11:27:23.731Z</time>
      </trkpt>
      <trkpt lat="46.94507" lon="8.71425">
        <ele>1514</ele>
        <time>2021-08-06T11:27:24.731Z</time>
      </trkpt>
      <trkpt lat="46.94506" lon="8.71426">
        <ele>1515</ele>
        <time>2021-08-06T11:27:25.730Z</time>
      </trkpt>
      <trkpt lat="46.94506" lon="8.71427">
        <ele>1515</ele>
        <time>2021-08-06T11:27:26.731Z</time>
      </trkpt>
      <trkpt lat="46.94506" lon="8.71426">
        <ele>1515</ele>
        <time>2021-08-06T11:27:27.731Z</time>
      </trkpt>
      <trkpt lat="46.94506" lon="8.71426">
        <ele>1515</ele>
        <time>2021-08-06T11:27:28.731Z</time>
      </trkpt>
      <trkpt lat="46.94506" lon="8.71425">
        <ele>1515</ele>
        <time>2021-08-06T11:27:29.731Z</time>
      </trkpt>
      <trkpt lat="46.94506" lon="8.71424">
        <ele>1516</ele>
        <time>2021-08-06T11:27:30.731Z</time>
      </trkpt>
      <trkpt lat="46.94506" lon="8.71424">
        <ele>1516</ele>
        <time>2021-08-06T11:27:31.732Z</time>
      </trkpt>
      <trkpt lat="46.94506" lon="8.71424">
        <ele>1517</ele>
        <time>2021-08-06T11:27:32.731Z</time>
      </trkpt>
      <trkpt lat="46.94506" lon="8.71423">
        <ele>1517</ele>
        <time>2021-08-06T11:27:33.731Z</time>
      </trkpt>
      <trkpt lat="46.94506" lon="8.71423">
        <ele>1518</ele>
        <time>2021-08-06T11:27:34.732Z</time>
      </trkpt>
      <trkpt lat="46.94505" lon="8.71423">
        <ele>1518</ele>
        <time>2021-08-06T11:27:35.732Z</time>
      </trkpt>
      <trkpt lat="46.94505" lon="8.71423">
        <ele>1518</ele>
        <time>2021-08-06T11:27:36.732Z</time>
      </trkpt>
      <trkpt lat="46.94505" lon="8.71424">
        <ele>1518</ele>
        <time>2021-08-06T11:27:37.732Z</time>
      </trkpt>
      <trkpt lat="46.94504" lon="8.71423">
        <ele>1518</ele>
        <time>2021-08-06T11:27:38.731Z</time>
      </trkpt>
      <trkpt lat="46.94504" lon="8.71423">
        <ele>1518</ele>
        <time>2021-08-06T11:27:39.732Z</time>
      </trkpt>
      <trkpt lat="46.94504" lon="8.71423">
        <ele>1518</ele>
        <time>2021-08-06T11:27:40.732Z</time>
      </trkpt>
      <trkpt lat="46.94504" lon="8.71423">
        <ele>1519</ele>
        <time>2021-08-06T11:27:41.732Z</time>
      </trkpt>
      <trkpt lat="46.94503" lon="8.71423">
        <ele>1519</ele>
        <time>2021-08-06T11:27:42.732Z</time>
      </trkpt>
      <trkpt lat="46.94503" lon="8.71423">
        <ele>1520</ele>
        <time>2021-08-06T11:27:43.732Z</time>
      </trkpt>
      <trkpt lat="46.94502" lon="8.71423">
        <ele>1520</ele>
        <time>2021-08-06T11:27:44.731Z</time>
      </trkpt>
      <trkpt lat="46.94502" lon="8.71423">
        <ele>1520</ele>
        <time>2021-08-06T11:27:45.731Z</time>
      </trkpt>
      <trkpt lat="46.94501" lon="8.71423">
        <ele>1520</ele>
        <time>2021-08-06T11:27:46.732Z</time>
      </trkpt>
      <trkpt lat="46.94501" lon="8.71423">
        <ele>1520</ele>
        <time>2021-08-06T11:27:47.732Z</time>
      </trkpt>
      <trkpt lat="46.94501" lon="8.71422">
        <ele>1520</ele>
        <time>2021-08-06T11:27:48.732Z</time>
      </trkpt>
      <trkpt lat="46.94501" lon="8.71422">
        <ele>1520</ele>
        <time>2021-08-06T11:27:49.731Z</time>
      </trkpt>
      <trkpt lat="46.945" lon="8.71421">
        <ele>1519</ele>
        <time>2021-08-06T11:27:50.731Z</time>
      </trkpt>
      <trkpt lat="46.945" lon="8.71421">
        <ele>1519</ele>
        <time>2021-08-06T11:27:51.732Z</time>
      </trkpt>
      <trkpt lat="46.94499" lon="8.71421">
        <ele>1519</ele>
        <time>2021-08-06T11:27:52.731Z</time>
      </trkpt>
      <trkpt lat="46.94499" lon="8.71421">
        <ele>1519</ele>
        <time>2021-08-06T11:27:53.731Z</time>
      </trkpt>
      <trkpt lat="46.94499" lon="8.71421">
        <ele>1519</ele>
        <time>2021-08-06T11:27:54.731Z</time>
      </trkpt>
      <trkpt lat="46.94498" lon="8.7142">
        <ele>1521</ele>
        <time>2021-08-06T11:27:55.732Z</time>
      </trkpt>
      <trkpt lat="46.94497" lon="8.7142">
        <ele>1521</ele>
        <time>2021-08-06T11:27:56.731Z</time>
      </trkpt>
      <trkpt lat="46.94497" lon="8.7142">
        <ele>1521</ele>
        <time>2021-08-06T11:27:57.731Z</time>
      </trkpt>
      <trkpt lat="46.94497" lon="8.71419">
        <ele>1522</ele>
        <time>2021-08-06T11:27:58.731Z</time>
      </trkpt>
      <trkpt lat="46.94496" lon="8.71419">
        <ele>1522</ele>
        <time>2021-08-06T11:27:59.731Z</time>
      </trkpt>
      <trkpt lat="46.94495" lon="8.71418">
        <ele>1522</ele>
        <time>2021-08-06T11:28:00.731Z</time>
      </trkpt>
      <trkpt lat="46.94495" lon="8.71418">
        <ele>1523</ele>
        <time>2021-08-06T11:28:01.731Z</time>
      </trkpt>
      <trkpt lat="46.94494" lon="8.71418">
        <ele>1523</ele>
        <time>2021-08-06T11:28:02.731Z</time>
      </trkpt>
      <trkpt lat="46.94494" lon="8.71418">
        <ele>1523</ele>
        <time>2021-08-06T11:28:03.731Z</time>
      </trkpt>
      <trkpt lat="46.94493" lon="8.71417">
        <ele>1524</ele>
        <time>2021-08-06T11:28:04.732Z</time>
      </trkpt>
      <trkpt lat="46.94493" lon="8.71417">
        <ele>1524</ele>
        <time>2021-08-06T11:28:05.731Z</time>
      </trkpt>
      <trkpt lat="46.94492" lon="8.71416">
        <ele>1524</ele>
        <time>2021-08-06T11:28:06.731Z</time>
      </trkpt>
      <trkpt lat="46.94492" lon="8.71416">
        <ele>1524</ele>
        <time>2021-08-06T11:28:07.731Z</time>
      </trkpt>
      <trkpt lat="46.94491" lon="8.71416">
        <ele>1524</ele>
        <time>2021-08-06T11:28:08.732Z</time>
      </trkpt>
      <trkpt lat="46.94491" lon="8.71415">
        <ele>1525</ele>
        <time>2021-08-06T11:28:09.731Z</time>
      </trkpt>
      <trkpt lat="46.9449" lon="8.71415">
        <ele>1525</ele>
        <time>2021-08-06T11:28:10.731Z</time>
      </trkpt>
      <trkpt lat="46.9449" lon="8.71415">
        <ele>1526</ele>
        <time>2021-08-06T11:28:11.732Z</time>
      </trkpt>
      <trkpt lat="46.94489" lon="8.71415">
        <ele>1526</ele>
        <time>2021-08-06T11:28:12.732Z</time>
      </trkpt>
      <trkpt lat="46.94489" lon="8.71415">
        <ele>1527</ele>
        <time>2021-08-06T11:28:13.732Z</time>
      </trkpt>
      <trkpt lat="46.94488" lon="8.71415">
        <ele>1527</ele>
        <time>2021-08-06T11:28:14.731Z</time>
      </trkpt>
      <trkpt lat="46.94487" lon="8.71416">
        <ele>1527</ele>
        <time>2021-08-06T11:28:15.731Z</time>
      </trkpt>
      <trkpt lat="46.94486" lon="8.71416">
        <ele>1527</ele>
        <time>2021-08-06T11:28:16.732Z</time>
      </trkpt>
      <trkpt lat="46.94485" lon="8.71416">
        <ele>1527</ele>
        <time>2021-08-06T11:28:17.732Z</time>
      </trkpt>
      <trkpt lat="46.94484" lon="8.71417">
        <ele>1526</ele>
        <time>2021-08-06T11:28:18.732Z</time>
      </trkpt>
      <trkpt lat="46.94484" lon="8.71418">
        <ele>1526</ele>
        <time>2021-08-06T11:28:19.732Z</time>
      </trkpt>
      <trkpt lat="46.94484" lon="8.71419">
        <ele>1525</ele>
        <time>2021-08-06T11:28:20.731Z</time>
      </trkpt>
      <trkpt lat="46.94484" lon="8.71421">
        <ele>1525</ele>
        <time>2021-08-06T11:28:21.732Z</time>
      </trkpt>
      <trkpt lat="46.94485" lon="8.71422">
        <ele>1524</ele>
        <time>2021-08-06T11:28:22.732Z</time>
      </trkpt>
      <trkpt lat="46.94485" lon="8.71424">
        <ele>1523</ele>
        <time>2021-08-06T11:28:23.731Z</time>
      </trkpt>
      <trkpt lat="46.94484" lon="8.71425">
        <ele>1522</ele>
        <time>2021-08-06T11:28:24.732Z</time>
      </trkpt>
      <trkpt lat="46.94483" lon="8.71425">
        <ele>1522</ele>
        <time>2021-08-06T11:28:25.731Z</time>
      </trkpt>
      <trkpt lat="46.94483" lon="8.71425">
        <ele>1522</ele>
        <time>2021-08-06T11:28:26.732Z</time>
      </trkpt>
      <trkpt lat="46.94484" lon="8.71425">
        <ele>1521</ele>
        <time>2021-08-06T11:28:27.732Z</time>
      </trkpt>
      <trkpt lat="46.94483" lon="8.71426">
        <ele>1521</ele>
        <time>2021-08-06T11:28:28.732Z</time>
      </trkpt>
      <trkpt lat="46.94483" lon="8.71427">
        <ele>1521</ele>
        <time>2021-08-06T11:28:29.732Z</time>
      </trkpt>
      <trkpt lat="46.94483" lon="8.71428">
        <ele>1520</ele>
        <time>2021-08-06T11:28:30.732Z</time>
      </trkpt>
      <trkpt lat="46.94483" lon="8.71429">
        <ele>1520</ele>
        <time>2021-08-06T11:28:31.731Z</time>
      </trkpt>
      <trkpt lat="46.94484" lon="8.71429">
        <ele>1520</ele>
        <time>2021-08-06T11:28:32.732Z</time>
      </trkpt>
      <trkpt lat="46.94484" lon="8.7143">
        <ele>1519</ele>
        <time>2021-08-06T11:28:33.731Z</time>
      </trkpt>
      <trkpt lat="46.94483" lon="8.71429">
        <ele>1519</ele>
        <time>2021-08-06T11:28:34.731Z</time>
      </trkpt>
      <trkpt lat="46.94482" lon="8.7143">
        <ele>1519</ele>
        <time>2021-08-06T11:28:35.732Z</time>
      </trkpt>
      <trkpt lat="46.94482" lon="8.71431">
        <ele>1519</ele>
        <time>2021-08-06T11:28:36.732Z</time>
      </trkpt>
      <trkpt lat="46.94482" lon="8.71431">
        <ele>1519</ele>
        <time>2021-08-06T11:28:37.732Z</time>
      </trkpt>
      <trkpt lat="46.94482" lon="8.71432">
        <ele>1518</ele>
        <time>2021-08-06T11:28:38.732Z</time>
      </trkpt>
      <trkpt lat="46.94483" lon="8.71432">
        <ele>1518</ele>
        <time>2021-08-06T11:28:39.732Z</time>
      </trkpt>
      <trkpt lat="46.94484" lon="8.71431">
        <ele>1518</ele>
        <time>2021-08-06T11:28:40.731Z</time>
      </trkpt>
      <trkpt lat="46.94485" lon="8.71431">
        <ele>1518</ele>
        <time>2021-08-06T11:28:41.732Z</time>
      </trkpt>
      <trkpt lat="46.94486" lon="8.71431">
        <ele>1518</ele>
        <time>2021-08-06T11:28:42.732Z</time>
      </trkpt>
      <trkpt lat="46.94488" lon="8.7143">
        <ele>1518</ele>
        <time>2021-08-06T11:28:43.732Z</time>
      </trkpt>
      <trkpt lat="46.94489" lon="8.7143">
        <ele>1518</ele>
        <time>2021-08-06T11:28:44.731Z</time>
      </trkpt>
      <trkpt lat="46.94487" lon="8.7143">
        <ele>1523</ele>
        <time>2021-08-06T11:28:45.732Z</time>
      </trkpt>
      <trkpt lat="46.94486" lon="8.7143">
        <ele>1522</ele>
        <time>2021-08-06T11:28:46.733Z</time>
      </trkpt>
      <trkpt lat="46.94486" lon="8.71431">
        <ele>1522</ele>
        <time>2021-08-06T11:28:47.733Z</time>
      </trkpt>
      <trkpt lat="46.94485" lon="8.7143">
        <ele>1523</ele>
        <time>2021-08-06T11:28:48.735Z</time>
      </trkpt>
      <trkpt lat="46.94485" lon="8.71431">
        <ele>1523</ele>
        <time>2021-08-06T11:28:49.734Z</time>
      </trkpt>
      <trkpt lat="46.94485" lon="8.71432">
        <ele>1523</ele>
        <time>2021-08-06T11:28:50.734Z</time>
      </trkpt>
      <trkpt lat="46.94486" lon="8.71433">
        <ele>1523</ele>
        <time>2021-08-06T11:28:51.735Z</time>
      </trkpt>
      <trkpt lat="46.94485" lon="8.71433">
        <ele>1523</ele>
        <time>2021-08-06T11:28:52.735Z</time>
      </trkpt>
      <trkpt lat="46.94485" lon="8.71434">
        <ele>1523</ele>
        <time>2021-08-06T11:28:53.734Z</time>
      </trkpt>
      <trkpt lat="46.94485" lon="8.71435">
        <ele>1523</ele>
        <time>2021-08-06T11:28:54.734Z</time>
      </trkpt>
      <trkpt lat="46.94484" lon="8.71436">
        <ele>1524</ele>
        <time>2021-08-06T11:28:55.734Z</time>
      </trkpt>
      <trkpt lat="46.94484" lon="8.71437">
        <ele>1524</ele>
        <time>2021-08-06T11:28:56.735Z</time>
      </trkpt>
      <trkpt lat="46.94484" lon="8.71437">
        <ele>1525</ele>
        <time>2021-08-06T11:28:57.735Z</time>
      </trkpt>
      <trkpt lat="46.94484" lon="8.71438">
        <ele>1525</ele>
        <time>2021-08-06T11:28:58.734Z</time>
      </trkpt>
      <trkpt lat="46.94484" lon="8.71438">
        <ele>1525</ele>
        <time>2021-08-06T11:28:59.735Z</time>
      </trkpt>
      <trkpt lat="46.94483" lon="8.71439">
        <ele>1526</ele>
        <time>2021-08-06T11:29:00.734Z</time>
      </trkpt>
      <trkpt lat="46.94483" lon="8.71441">
        <ele>1526</ele>
        <time>2021-08-06T11:29:01.735Z</time>
      </trkpt>
      <trkpt lat="46.94483" lon="8.71442">
        <ele>1527</ele>
        <time>2021-08-06T11:29:02.735Z</time>
      </trkpt>
      <trkpt lat="46.94483" lon="8.71442">
        <ele>1527</ele>
        <time>2021-08-06T11:29:03.734Z</time>
      </trkpt>
      <trkpt lat="46.94483" lon="8.71443">
        <ele>1528</ele>
        <time>2021-08-06T11:29:04.734Z</time>
      </trkpt>
      <trkpt lat="46.94483" lon="8.71444">
        <ele>1528</ele>
        <time>2021-08-06T11:29:05.735Z</time>
      </trkpt>
      <trkpt lat="46.94483" lon="8.71444">
        <ele>1529</ele>
        <time>2021-08-06T11:29:06.735Z</time>
      </trkpt>
      <trkpt lat="46.94483" lon="8.71444">
        <ele>1529</ele>
        <time>2021-08-06T11:29:07.735Z</time>
      </trkpt>
      <trkpt lat="46.94483" lon="8.71445">
        <ele>1529</ele>
        <time>2021-08-06T11:29:08.734Z</time>
      </trkpt>
      <trkpt lat="46.94483" lon="8.71446">
        <ele>1530</ele>
        <time>2021-08-06T11:29:09.734Z</time>
      </trkpt>
      <trkpt lat="46.94483" lon="8.71447">
        <ele>1530</ele>
        <time>2021-08-06T11:29:10.735Z</time>
      </trkpt>
      <trkpt lat="46.94483" lon="8.71449">
        <ele>1530</ele>
        <time>2021-08-06T11:29:11.735Z</time>
      </trkpt>
      <trkpt lat="46.94482" lon="8.7145">
        <ele>1530</ele>
        <time>2021-08-06T11:29:12.735Z</time>
      </trkpt>
      <trkpt lat="46.94482" lon="8.71451">
        <ele>1531</ele>
        <time>2021-08-06T11:29:13.735Z</time>
      </trkpt>
      <trkpt lat="46.94482" lon="8.71452">
        <ele>1531</ele>
        <time>2021-08-06T11:29:14.735Z</time>
      </trkpt>
      <trkpt lat="46.94482" lon="8.71453">
        <ele>1531</ele>
        <time>2021-08-06T11:29:15.735Z</time>
      </trkpt>
      <trkpt lat="46.94482" lon="8.71454">
        <ele>1531</ele>
        <time>2021-08-06T11:29:16.735Z</time>
      </trkpt>
      <trkpt lat="46.94482" lon="8.71455">
        <ele>1531</ele>
        <time>2021-08-06T11:29:17.734Z</time>
      </trkpt>
      <trkpt lat="46.94482" lon="8.71456">
        <ele>1531</ele>
        <time>2021-08-06T11:29:18.734Z</time>
      </trkpt>
      <trkpt lat="46.94482" lon="8.71455">
        <ele>1531</ele>
        <time>2021-08-06T11:29:19.735Z</time>
      </trkpt>
      <trkpt lat="46.94482" lon="8.71455">
        <ele>1531</ele>
        <time>2021-08-06T11:29:20.735Z</time>
      </trkpt>
      <trkpt lat="46.9448" lon="8.71455">
        <ele>1531</ele>
        <time>2021-08-06T11:29:21.736Z</time>
      </trkpt>
      <trkpt lat="46.9448" lon="8.71456">
        <ele>1532</ele>
        <time>2021-08-06T11:29:22.735Z</time>
      </trkpt>
      <trkpt lat="46.9448" lon="8.71458">
        <ele>1532</ele>
        <time>2021-08-06T11:29:23.735Z</time>
      </trkpt>
      <trkpt lat="46.9448" lon="8.71459">
        <ele>1532</ele>
        <time>2021-08-06T11:29:24.735Z</time>
      </trkpt>
      <trkpt lat="46.9448" lon="8.71461">
        <ele>1532</ele>
        <time>2021-08-06T11:29:25.735Z</time>
      </trkpt>
      <trkpt lat="46.9448" lon="8.71462">
        <ele>1532</ele>
        <time>2021-08-06T11:29:26.735Z</time>
      </trkpt>
      <trkpt lat="46.9448" lon="8.71463">
        <ele>1532</ele>
        <time>2021-08-06T11:29:27.735Z</time>
      </trkpt>
      <trkpt lat="46.94479" lon="8.71463">
        <ele>1531</ele>
        <time>2021-08-06T11:29:28.735Z</time>
      </trkpt>
      <trkpt lat="46.94479" lon="8.71464">
        <ele>1531</ele>
        <time>2021-08-06T11:29:29.735Z</time>
      </trkpt>
      <trkpt lat="46.94478" lon="8.71464">
        <ele>1531</ele>
        <time>2021-08-06T11:29:30.735Z</time>
      </trkpt>
      <trkpt lat="46.94478" lon="8.71463">
        <ele>1531</ele>
        <time>2021-08-06T11:29:31.736Z</time>
      </trkpt>
      <trkpt lat="46.94478" lon="8.71462">
        <ele>1532</ele>
        <time>2021-08-06T11:29:32.736Z</time>
      </trkpt>
      <trkpt lat="46.94477" lon="8.7146">
        <ele>1532</ele>
        <time>2021-08-06T11:29:33.736Z</time>
      </trkpt>
      <trkpt lat="46.94477" lon="8.7146">
        <ele>1531</ele>
        <time>2021-08-06T11:29:34.736Z</time>
      </trkpt>
      <trkpt lat="46.94477" lon="8.7146">
        <ele>1531</ele>
        <time>2021-08-06T11:29:35.735Z</time>
      </trkpt>
      <trkpt lat="46.94476" lon="8.71459">
        <ele>1531</ele>
        <time>2021-08-06T11:29:36.736Z</time>
      </trkpt>
      <trkpt lat="46.94476" lon="8.71459">
        <ele>1531</ele>
        <time>2021-08-06T11:29:37.736Z</time>
      </trkpt>
      <trkpt lat="46.94476" lon="8.71458">
        <ele>1531</ele>
        <time>2021-08-06T11:29:38.736Z</time>
      </trkpt>
      <trkpt lat="46.94475" lon="8.71458">
        <ele>1530</ele>
        <time>2021-08-06T11:29:39.736Z</time>
      </trkpt>
      <trkpt lat="46.94475" lon="8.71458">
        <ele>1530</ele>
        <time>2021-08-06T11:29:40.736Z</time>
      </trkpt>
      <trkpt lat="46.94475" lon="8.71458">
        <ele>1531</ele>
        <time>2021-08-06T11:29:41.736Z</time>
      </trkpt>
      <trkpt lat="46.94475" lon="8.71457">
        <ele>1533</ele>
        <time>2021-08-06T11:29:42.737Z</time>
      </trkpt>
      <trkpt lat="46.94474" lon="8.71456">
        <ele>1533</ele>
        <time>2021-08-06T11:29:43.737Z</time>
      </trkpt>
      <trkpt lat="46.94474" lon="8.71456">
        <ele>1534</ele>
        <time>2021-08-06T11:29:44.736Z</time>
      </trkpt>
      <trkpt lat="46.94473" lon="8.71455">
        <ele>1534</ele>
        <time>2021-08-06T11:29:45.737Z</time>
      </trkpt>
      <trkpt lat="46.94473" lon="8.71455">
        <ele>1535</ele>
        <time>2021-08-06T11:29:46.737Z</time>
      </trkpt>
      <trkpt lat="46.94473" lon="8.71454">
        <ele>1535</ele>
        <time>2021-08-06T11:29:47.737Z</time>
      </trkpt>
      <trkpt lat="46.94473" lon="8.71454">
        <ele>1535</ele>
        <time>2021-08-06T11:29:48.737Z</time>
      </trkpt>
      <trkpt lat="46.94473" lon="8.71453">
        <ele>1535</ele>
        <time>2021-08-06T11:29:49.736Z</time>
      </trkpt>
      <trkpt lat="46.94473" lon="8.71452">
        <ele>1535</ele>
        <time>2021-08-06T11:29:50.737Z</time>
      </trkpt>
      <trkpt lat="46.94473" lon="8.71451">
        <ele>1536</ele>
        <time>2021-08-06T11:29:51.736Z</time>
      </trkpt>
      <trkpt lat="46.94473" lon="8.71451">
        <ele>1536</ele>
        <time>2021-08-06T11:29:52.737Z</time>
      </trkpt>
      <trkpt lat="46.94472" lon="8.71451">
        <ele>1536</ele>
        <time>2021-08-06T11:29:53.736Z</time>
      </trkpt>
      <trkpt lat="46.94472" lon="8.71451">
        <ele>1538</ele>
        <time>2021-08-06T11:29:54.736Z</time>
      </trkpt>
      <trkpt lat="46.94471" lon="8.71451">
        <ele>1538</ele>
        <time>2021-08-06T11:29:55.736Z</time>
      </trkpt>
      <trkpt lat="46.94471" lon="8.7145">
        <ele>1539</ele>
        <time>2021-08-06T11:29:56.737Z</time>
      </trkpt>
      <trkpt lat="46.9447" lon="8.71448">
        <ele>1541</ele>
        <time>2021-08-06T11:29:57.736Z</time>
      </trkpt>
      <trkpt lat="46.9447" lon="8.71448">
        <ele>1542</ele>
        <time>2021-08-06T11:29:58.737Z</time>
      </trkpt>
      <trkpt lat="46.94469" lon="8.71448">
        <ele>1542</ele>
        <time>2021-08-06T11:29:59.736Z</time>
      </trkpt>
      <trkpt lat="46.94469" lon="8.71447">
        <ele>1542</ele>
        <time>2021-08-06T11:30:00.736Z</time>
      </trkpt>
      <trkpt lat="46.94468" lon="8.71447">
        <ele>1541</ele>
        <time>2021-08-06T11:30:01.737Z</time>
      </trkpt>
      <trkpt lat="46.94468" lon="8.71447">
        <ele>1541</ele>
        <time>2021-08-06T11:30:02.737Z</time>
      </trkpt>
      <trkpt lat="46.94467" lon="8.71446">
        <ele>1541</ele>
        <time>2021-08-06T11:30:03.737Z</time>
      </trkpt>
      <trkpt lat="46.94467" lon="8.71446">
        <ele>1541</ele>
        <time>2021-08-06T11:30:04.736Z</time>
      </trkpt>
      <trkpt lat="46.94467" lon="8.71445">
        <ele>1540</ele>
        <time>2021-08-06T11:30:05.736Z</time>
      </trkpt>
      <trkpt lat="46.94467" lon="8.71445">
        <ele>1541</ele>
        <time>2021-08-06T11:30:06.737Z</time>
      </trkpt>
      <trkpt lat="46.94466" lon="8.71446">
        <ele>1541</ele>
        <time>2021-08-06T11:30:07.736Z</time>
      </trkpt>
      <trkpt lat="46.94466" lon="8.71446">
        <ele>1541</ele>
        <time>2021-08-06T11:30:08.737Z</time>
      </trkpt>
      <trkpt lat="46.94465" lon="8.71446">
        <ele>1541</ele>
        <time>2021-08-06T11:30:09.737Z</time>
      </trkpt>
      <trkpt lat="46.94465" lon="8.71445">
        <ele>1541</ele>
        <time>2021-08-06T11:30:10.737Z</time>
      </trkpt>
      <trkpt lat="46.94465" lon="8.71446">
        <ele>1541</ele>
        <time>2021-08-06T11:30:11.737Z</time>
      </trkpt>
      <trkpt lat="46.94464" lon="8.71446">
        <ele>1541</ele>
        <time>2021-08-06T11:30:12.737Z</time>
      </trkpt>
      <trkpt lat="46.94463" lon="8.71445">
        <ele>1541</ele>
        <time>2021-08-06T11:30:13.737Z</time>
      </trkpt>
      <trkpt lat="46.94462" lon="8.71446">
        <ele>1542</ele>
        <time>2021-08-06T11:30:14.736Z</time>
      </trkpt>
      <trkpt lat="46.94462" lon="8.71446">
        <ele>1542</ele>
        <time>2021-08-06T11:30:15.737Z</time>
      </trkpt>
      <trkpt lat="46.94462" lon="8.71445">
        <ele>1542</ele>
        <time>2021-08-06T11:30:16.737Z</time>
      </trkpt>
      <trkpt lat="46.94461" lon="8.71445">
        <ele>1541</ele>
        <time>2021-08-06T11:30:17.737Z</time>
      </trkpt>
      <trkpt lat="46.9446" lon="8.71446">
        <ele>1541</ele>
        <time>2021-08-06T11:30:18.737Z</time>
      </trkpt>
      <trkpt lat="46.9446" lon="8.71446">
        <ele>1540</ele>
        <time>2021-08-06T11:30:19.737Z</time>
      </trkpt>
      <trkpt lat="46.9446" lon="8.71447">
        <ele>1540</ele>
        <time>2021-08-06T11:30:20.736Z</time>
      </trkpt>
      <trkpt lat="46.9446" lon="8.71448">
        <ele>1540</ele>
        <time>2021-08-06T11:30:21.737Z</time>
      </trkpt>
      <trkpt lat="46.9446" lon="8.71448">
        <ele>1540</ele>
        <time>2021-08-06T11:30:22.736Z</time>
      </trkpt>
      <trkpt lat="46.94459" lon="8.71449">
        <ele>1540</ele>
        <time>2021-08-06T11:30:23.737Z</time>
      </trkpt>
      <trkpt lat="46.94459" lon="8.7145">
        <ele>1540</ele>
        <time>2021-08-06T11:30:24.737Z</time>
      </trkpt>
      <trkpt lat="46.94458" lon="8.71451">
        <ele>1540</ele>
        <time>2021-08-06T11:30:25.737Z</time>
      </trkpt>
      <trkpt lat="46.94457" lon="8.71452">
        <ele>1540</ele>
        <time>2021-08-06T11:30:26.736Z</time>
      </trkpt>
      <trkpt lat="46.94457" lon="8.71452">
        <ele>1540</ele>
        <time>2021-08-06T11:30:27.736Z</time>
      </trkpt>
      <trkpt lat="46.94456" lon="8.71452">
        <ele>1540</ele>
        <time>2021-08-06T11:30:28.736Z</time>
      </trkpt>
      <trkpt lat="46.94456" lon="8.71453">
        <ele>1540</ele>
        <time>2021-08-06T11:30:29.737Z</time>
      </trkpt>
      <trkpt lat="46.94455" lon="8.71453">
        <ele>1541</ele>
        <time>2021-08-06T11:30:30.737Z</time>
      </trkpt>
      <trkpt lat="46.94455" lon="8.71453">
        <ele>1541</ele>
        <time>2021-08-06T11:30:31.737Z</time>
      </trkpt>
      <trkpt lat="46.94455" lon="8.71453">
        <ele>1541</ele>
        <time>2021-08-06T11:30:32.737Z</time>
      </trkpt>
      <trkpt lat="46.94454" lon="8.71453">
        <ele>1541</ele>
        <time>2021-08-06T11:30:33.736Z</time>
      </trkpt>
      <trkpt lat="46.94453" lon="8.71452">
        <ele>1542</ele>
        <time>2021-08-06T11:30:34.736Z</time>
      </trkpt>
      <trkpt lat="46.94452" lon="8.71452">
        <ele>1542</ele>
        <time>2021-08-06T11:30:35.737Z</time>
      </trkpt>
      <trkpt lat="46.94452" lon="8.71453">
        <ele>1542</ele>
        <time>2021-08-06T11:30:36.737Z</time>
      </trkpt>
      <trkpt lat="46.94451" lon="8.71453">
        <ele>1543</ele>
        <time>2021-08-06T11:30:37.736Z</time>
      </trkpt>
      <trkpt lat="46.94451" lon="8.71453">
        <ele>1543</ele>
        <time>2021-08-06T11:30:38.737Z</time>
      </trkpt>
      <trkpt lat="46.94451" lon="8.71453">
        <ele>1544</ele>
        <time>2021-08-06T11:30:39.737Z</time>
      </trkpt>
      <trkpt lat="46.9445" lon="8.71454">
        <ele>1543</ele>
        <time>2021-08-06T11:30:40.738Z</time>
      </trkpt>
      <trkpt lat="46.9445" lon="8.71454">
        <ele>1543</ele>
        <time>2021-08-06T11:30:41.738Z</time>
      </trkpt>
      <trkpt lat="46.9445" lon="8.71453">
        <ele>1543</ele>
        <time>2021-08-06T11:30:42.737Z</time>
      </trkpt>
      <trkpt lat="46.94449" lon="8.71453">
        <ele>1543</ele>
        <time>2021-08-06T11:30:43.738Z</time>
      </trkpt>
      <trkpt lat="46.94449" lon="8.71452">
        <ele>1544</ele>
        <time>2021-08-06T11:30:44.738Z</time>
      </trkpt>
      <trkpt lat="46.94448" lon="8.71452">
        <ele>1544</ele>
        <time>2021-08-06T11:30:45.738Z</time>
      </trkpt>
      <trkpt lat="46.94448" lon="8.71452">
        <ele>1545</ele>
        <time>2021-08-06T11:30:46.738Z</time>
      </trkpt>
      <trkpt lat="46.94447" lon="8.71452">
        <ele>1545</ele>
        <time>2021-08-06T11:30:47.738Z</time>
      </trkpt>
      <trkpt lat="46.94447" lon="8.71452">
        <ele>1545</ele>
        <time>2021-08-06T11:30:48.738Z</time>
      </trkpt>
      <trkpt lat="46.94447" lon="8.71452">
        <ele>1546</ele>
        <time>2021-08-06T11:30:49.738Z</time>
      </trkpt>
      <trkpt lat="46.94446" lon="8.71452">
        <ele>1546</ele>
        <time>2021-08-06T11:30:50.738Z</time>
      </trkpt>
      <trkpt lat="46.94446" lon="8.71451">
        <ele>1546</ele>
        <time>2021-08-06T11:30:51.738Z</time>
      </trkpt>
      <trkpt lat="46.94446" lon="8.71451">
        <ele>1547</ele>
        <time>2021-08-06T11:30:52.737Z</time>
      </trkpt>
      <trkpt lat="46.94446" lon="8.7145">
        <ele>1547</ele>
        <time>2021-08-06T11:30:53.737Z</time>
      </trkpt>
      <trkpt lat="46.94445" lon="8.7145">
        <ele>1548</ele>
        <time>2021-08-06T11:30:54.737Z</time>
      </trkpt>
      <trkpt lat="46.94445" lon="8.7145">
        <ele>1548</ele>
        <time>2021-08-06T11:30:55.737Z</time>
      </trkpt>
      <trkpt lat="46.94445" lon="8.7145">
        <ele>1548</ele>
        <time>2021-08-06T11:30:56.738Z</time>
      </trkpt>
      <trkpt lat="46.94445" lon="8.71449">
        <ele>1548</ele>
        <time>2021-08-06T11:30:57.737Z</time>
      </trkpt>
      <trkpt lat="46.94445" lon="8.71448">
        <ele>1549</ele>
        <time>2021-08-06T11:30:58.737Z</time>
      </trkpt>
      <trkpt lat="46.94445" lon="8.71447">
        <ele>1549</ele>
        <time>2021-08-06T11:30:59.737Z</time>
      </trkpt>
      <trkpt lat="46.94445" lon="8.71446">
        <ele>1549</ele>
        <time>2021-08-06T11:31:00.738Z</time>
      </trkpt>
      <trkpt lat="46.94445" lon="8.71446">
        <ele>1549</ele>
        <time>2021-08-06T11:31:01.738Z</time>
      </trkpt>
      <trkpt lat="46.94445" lon="8.71445">
        <ele>1550</ele>
        <time>2021-08-06T11:31:02.738Z</time>
      </trkpt>
      <trkpt lat="46.94445" lon="8.71444">
        <ele>1550</ele>
        <time>2021-08-06T11:31:03.738Z</time>
      </trkpt>
      <trkpt lat="46.94445" lon="8.71443">
        <ele>1550</ele>
        <time>2021-08-06T11:31:04.738Z</time>
      </trkpt>
      <trkpt lat="46.94445" lon="8.71442">
        <ele>1550</ele>
        <time>2021-08-06T11:31:05.738Z</time>
      </trkpt>
      <trkpt lat="46.94444" lon="8.71442">
        <ele>1550</ele>
        <time>2021-08-06T11:31:06.738Z</time>
      </trkpt>
      <trkpt lat="46.94444" lon="8.71441">
        <ele>1549</ele>
        <time>2021-08-06T11:31:07.737Z</time>
      </trkpt>
      <trkpt lat="46.94443" lon="8.7144">
        <ele>1549</ele>
        <time>2021-08-06T11:31:08.737Z</time>
      </trkpt>
      <trkpt lat="46.94443" lon="8.7144">
        <ele>1549</ele>
        <time>2021-08-06T11:31:09.738Z</time>
      </trkpt>
      <trkpt lat="46.94443" lon="8.71439">
        <ele>1548</ele>
        <time>2021-08-06T11:31:10.738Z</time>
      </trkpt>
      <trkpt lat="46.94443" lon="8.71439">
        <ele>1548</ele>
        <time>2021-08-06T11:31:11.737Z</time>
      </trkpt>
      <trkpt lat="46.94444" lon="8.71439">
        <ele>1548</ele>
        <time>2021-08-06T11:31:12.737Z</time>
      </trkpt>
      <trkpt lat="46.94444" lon="8.71437">
        <ele>1548</ele>
        <time>2021-08-06T11:31:13.738Z</time>
      </trkpt>
      <trkpt lat="46.94445" lon="8.71435">
        <ele>1548</ele>
        <time>2021-08-06T11:31:14.737Z</time>
      </trkpt>
      <trkpt lat="46.94444" lon="8.71434">
        <ele>1548</ele>
        <time>2021-08-06T11:31:15.738Z</time>
      </trkpt>
      <trkpt lat="46.94444" lon="8.71433">
        <ele>1548</ele>
        <time>2021-08-06T11:31:16.738Z</time>
      </trkpt>
      <trkpt lat="46.94444" lon="8.71432">
        <ele>1548</ele>
        <time>2021-08-06T11:31:17.738Z</time>
      </trkpt>
      <trkpt lat="46.94444" lon="8.71431">
        <ele>1549</ele>
        <time>2021-08-06T11:31:18.738Z</time>
      </trkpt>
      <trkpt lat="46.94443" lon="8.71431">
        <ele>1549</ele>
        <time>2021-08-06T11:31:19.738Z</time>
      </trkpt>
      <trkpt lat="46.94443" lon="8.7143">
        <ele>1550</ele>
        <time>2021-08-06T11:31:20.738Z</time>
      </trkpt>
      <trkpt lat="46.94443" lon="8.71429">
        <ele>1550</ele>
        <time>2021-08-06T11:31:21.738Z</time>
      </trkpt>
      <trkpt lat="46.94443" lon="8.71428">
        <ele>1551</ele>
        <time>2021-08-06T11:31:22.738Z</time>
      </trkpt>
      <trkpt lat="46.94443" lon="8.71428">
        <ele>1552</ele>
        <time>2021-08-06T11:31:23.737Z</time>
      </trkpt>
      <trkpt lat="46.94442" lon="8.71427">
        <ele>1552</ele>
        <time>2021-08-06T11:31:24.738Z</time>
      </trkpt>
      <trkpt lat="46.94442" lon="8.71426">
        <ele>1552</ele>
        <time>2021-08-06T11:31:25.738Z</time>
      </trkpt>
      <trkpt lat="46.94442" lon="8.71425">
        <ele>1553</ele>
        <time>2021-08-06T11:31:26.737Z</time>
      </trkpt>
      <trkpt lat="46.94442" lon="8.71424">
        <ele>1553</ele>
        <time>2021-08-06T11:31:27.738Z</time>
      </trkpt>
      <trkpt lat="46.94442" lon="8.71424">
        <ele>1553</ele>
        <time>2021-08-06T11:31:28.737Z</time>
      </trkpt>
      <trkpt lat="46.94441" lon="8.71423">
        <ele>1554</ele>
        <time>2021-08-06T11:31:29.738Z</time>
      </trkpt>
      <trkpt lat="46.94441" lon="8.71423">
        <ele>1554</ele>
        <time>2021-08-06T11:31:30.738Z</time>
      </trkpt>
      <trkpt lat="46.9444" lon="8.71423">
        <ele>1554</ele>
        <time>2021-08-06T11:31:31.737Z</time>
      </trkpt>
      <trkpt lat="46.9444" lon="8.71422">
        <ele>1554</ele>
        <time>2021-08-06T11:31:32.738Z</time>
      </trkpt>
      <trkpt lat="46.94439" lon="8.71422">
        <ele>1554</ele>
        <time>2021-08-06T11:31:33.738Z</time>
      </trkpt>
      <trkpt lat="46.94439" lon="8.7142">
        <ele>1554</ele>
        <time>2021-08-06T11:31:34.737Z</time>
      </trkpt>
      <trkpt lat="46.94438" lon="8.7142">
        <ele>1555</ele>
        <time>2021-08-06T11:31:35.738Z</time>
      </trkpt>
      <trkpt lat="46.94438" lon="8.71419">
        <ele>1555</ele>
        <time>2021-08-06T11:31:36.737Z</time>
      </trkpt>
      <trkpt lat="46.94438" lon="8.71418">
        <ele>1555</ele>
        <time>2021-08-06T11:31:37.737Z</time>
      </trkpt>
      <trkpt lat="46.94437" lon="8.71418">
        <ele>1555</ele>
        <time>2021-08-06T11:31:38.737Z</time>
      </trkpt>
      <trkpt lat="46.94436" lon="8.71417">
        <ele>1555</ele>
        <time>2021-08-06T11:31:39.738Z</time>
      </trkpt>
      <trkpt lat="46.94436" lon="8.71417">
        <ele>1555</ele>
        <time>2021-08-06T11:31:40.737Z</time>
      </trkpt>
      <trkpt lat="46.94436" lon="8.71416">
        <ele>1555</ele>
        <time>2021-08-06T11:31:41.738Z</time>
      </trkpt>
      <trkpt lat="46.94435" lon="8.71415">
        <ele>1556</ele>
        <time>2021-08-06T11:31:42.737Z</time>
      </trkpt>
      <trkpt lat="46.94435" lon="8.71414">
        <ele>1556</ele>
        <time>2021-08-06T11:31:43.737Z</time>
      </trkpt>
      <trkpt lat="46.94435" lon="8.71413">
        <ele>1556</ele>
        <time>2021-08-06T11:31:44.738Z</time>
      </trkpt>
      <trkpt lat="46.94435" lon="8.71412">
        <ele>1556</ele>
        <time>2021-08-06T11:31:45.737Z</time>
      </trkpt>
      <trkpt lat="46.94434" lon="8.71411">
        <ele>1557</ele>
        <time>2021-08-06T11:31:46.738Z</time>
      </trkpt>
      <trkpt lat="46.94434" lon="8.71411">
        <ele>1558</ele>
        <time>2021-08-06T11:31:47.737Z</time>
      </trkpt>
      <trkpt lat="46.94433" lon="8.71411">
        <ele>1558</ele>
        <time>2021-08-06T11:31:48.738Z</time>
      </trkpt>
      <trkpt lat="46.94433" lon="8.7141">
        <ele>1558</ele>
        <time>2021-08-06T11:31:49.738Z</time>
      </trkpt>
      <trkpt lat="46.94432" lon="8.7141">
        <ele>1559</ele>
        <time>2021-08-06T11:31:50.737Z</time>
      </trkpt>
      <trkpt lat="46.94432" lon="8.71411">
        <ele>1558</ele>
        <time>2021-08-06T11:31:51.737Z</time>
      </trkpt>
      <trkpt lat="46.94431" lon="8.7141">
        <ele>1558</ele>
        <time>2021-08-06T11:31:52.737Z</time>
      </trkpt>
      <trkpt lat="46.94431" lon="8.7141">
        <ele>1559</ele>
        <time>2021-08-06T11:31:53.737Z</time>
      </trkpt>
      <trkpt lat="46.94431" lon="8.71409">
        <ele>1559</ele>
        <time>2021-08-06T11:31:54.738Z</time>
      </trkpt>
      <trkpt lat="46.9443" lon="8.71409">
        <ele>1559</ele>
        <time>2021-08-06T11:31:55.738Z</time>
      </trkpt>
      <trkpt lat="46.9443" lon="8.71409">
        <ele>1559</ele>
        <time>2021-08-06T11:31:56.738Z</time>
      </trkpt>
      <trkpt lat="46.9443" lon="8.71409">
        <ele>1559</ele>
        <time>2021-08-06T11:31:57.738Z</time>
      </trkpt>
      <trkpt lat="46.9443" lon="8.71408">
        <ele>1559</ele>
        <time>2021-08-06T11:31:58.737Z</time>
      </trkpt>
      <trkpt lat="46.94429" lon="8.71408">
        <ele>1559</ele>
        <time>2021-08-06T11:31:59.738Z</time>
      </trkpt>
      <trkpt lat="46.94428" lon="8.71408">
        <ele>1559</ele>
        <time>2021-08-06T11:32:00.738Z</time>
      </trkpt>
      <trkpt lat="46.94428" lon="8.71408">
        <ele>1559</ele>
        <time>2021-08-06T11:32:01.738Z</time>
      </trkpt>
      <trkpt lat="46.94427" lon="8.71408">
        <ele>1559</ele>
        <time>2021-08-06T11:32:02.738Z</time>
      </trkpt>
      <trkpt lat="46.94426" lon="8.71407">
        <ele>1559</ele>
        <time>2021-08-06T11:32:03.738Z</time>
      </trkpt>
      <trkpt lat="46.94426" lon="8.71406">
        <ele>1559</ele>
        <time>2021-08-06T11:32:04.737Z</time>
      </trkpt>
      <trkpt lat="46.94426" lon="8.71406">
        <ele>1560</ele>
        <time>2021-08-06T11:32:05.737Z</time>
      </trkpt>
      <trkpt lat="46.94425" lon="8.71405">
        <ele>1560</ele>
        <time>2021-08-06T11:32:06.738Z</time>
      </trkpt>
      <trkpt lat="46.94425" lon="8.71403">
        <ele>1561</ele>
        <time>2021-08-06T11:32:07.737Z</time>
      </trkpt>
      <trkpt lat="46.94425" lon="8.71403">
        <ele>1561</ele>
        <time>2021-08-06T11:32:08.737Z</time>
      </trkpt>
      <trkpt lat="46.94425" lon="8.71403">
        <ele>1561</ele>
        <time>2021-08-06T11:32:09.737Z</time>
      </trkpt>
      <trkpt lat="46.94425" lon="8.71402">
        <ele>1561</ele>
        <time>2021-08-06T11:32:10.739Z</time>
      </trkpt>
      <trkpt lat="46.94424" lon="8.71402">
        <ele>1561</ele>
        <time>2021-08-06T11:32:11.738Z</time>
      </trkpt>
      <trkpt lat="46.94425" lon="8.71402">
        <ele>1561</ele>
        <time>2021-08-06T11:32:12.738Z</time>
      </trkpt>
      <trkpt lat="46.94425" lon="8.71401">
        <ele>1561</ele>
        <time>2021-08-06T11:32:13.739Z</time>
      </trkpt>
      <trkpt lat="46.94425" lon="8.714">
        <ele>1561</ele>
        <time>2021-08-06T11:32:14.738Z</time>
      </trkpt>
      <trkpt lat="46.94425" lon="8.71399">
        <ele>1561</ele>
        <time>2021-08-06T11:32:15.738Z</time>
      </trkpt>
      <trkpt lat="46.94425" lon="8.71398">
        <ele>1561</ele>
        <time>2021-08-06T11:32:16.738Z</time>
      </trkpt>
      <trkpt lat="46.94424" lon="8.71398">
        <ele>1562</ele>
        <time>2021-08-06T11:32:17.739Z</time>
      </trkpt>
      <trkpt lat="46.94424" lon="8.71397">
        <ele>1562</ele>
        <time>2021-08-06T11:32:18.739Z</time>
      </trkpt>
      <trkpt lat="46.94424" lon="8.71397">
        <ele>1562</ele>
        <time>2021-08-06T11:32:19.739Z</time>
      </trkpt>
      <trkpt lat="46.94424" lon="8.71396">
        <ele>1562</ele>
        <time>2021-08-06T11:32:20.739Z</time>
      </trkpt>
      <trkpt lat="46.94423" lon="8.71396">
        <ele>1563</ele>
        <time>2021-08-06T11:32:21.739Z</time>
      </trkpt>
      <trkpt lat="46.94423" lon="8.71395">
        <ele>1563</ele>
        <time>2021-08-06T11:32:22.739Z</time>
      </trkpt>
      <trkpt lat="46.94423" lon="8.71395">
        <ele>1563</ele>
        <time>2021-08-06T11:32:23.738Z</time>
      </trkpt>
      <trkpt lat="46.94423" lon="8.71394">
        <ele>1563</ele>
        <time>2021-08-06T11:32:24.738Z</time>
      </trkpt>
      <trkpt lat="46.94423" lon="8.71394">
        <ele>1563</ele>
        <time>2021-08-06T11:32:25.739Z</time>
      </trkpt>
      <trkpt lat="46.94423" lon="8.71393">
        <ele>1564</ele>
        <time>2021-08-06T11:32:26.738Z</time>
      </trkpt>
      <trkpt lat="46.94423" lon="8.71393">
        <ele>1564</ele>
        <time>2021-08-06T11:32:27.738Z</time>
      </trkpt>
      <trkpt lat="46.94424" lon="8.71392">
        <ele>1564</ele>
        <time>2021-08-06T11:32:28.739Z</time>
      </trkpt>
      <trkpt lat="46.94424" lon="8.71392">
        <ele>1565</ele>
        <time>2021-08-06T11:32:29.739Z</time>
      </trkpt>
      <trkpt lat="46.94424" lon="8.71391">
        <ele>1565</ele>
        <time>2021-08-06T11:32:30.739Z</time>
      </trkpt>
      <trkpt lat="46.94424" lon="8.7139">
        <ele>1565</ele>
        <time>2021-08-06T11:32:31.738Z</time>
      </trkpt>
      <trkpt lat="46.94423" lon="8.71389">
        <ele>1565</ele>
        <time>2021-08-06T11:32:32.739Z</time>
      </trkpt>
      <trkpt lat="46.94422" lon="8.71388">
        <ele>1565</ele>
        <time>2021-08-06T11:32:33.738Z</time>
      </trkpt>
      <trkpt lat="46.94422" lon="8.71388">
        <ele>1564</ele>
        <time>2021-08-06T11:32:34.739Z</time>
      </trkpt>
      <trkpt lat="46.94421" lon="8.71388">
        <ele>1564</ele>
        <time>2021-08-06T11:32:35.739Z</time>
      </trkpt>
      <trkpt lat="46.94421" lon="8.71388">
        <ele>1564</ele>
        <time>2021-08-06T11:32:36.739Z</time>
      </trkpt>
      <trkpt lat="46.94421" lon="8.71388">
        <ele>1563</ele>
        <time>2021-08-06T11:32:37.739Z</time>
      </trkpt>
      <trkpt lat="46.9442" lon="8.71388">
        <ele>1563</ele>
        <time>2021-08-06T11:32:38.740Z</time>
      </trkpt>
      <trkpt lat="46.94419" lon="8.71388">
        <ele>1563</ele>
        <time>2021-08-06T11:32:39.739Z</time>
      </trkpt>
      <trkpt lat="46.94418" lon="8.71389">
        <ele>1563</ele>
        <time>2021-08-06T11:32:40.740Z</time>
      </trkpt>
      <trkpt lat="46.94417" lon="8.71389">
        <ele>1562</ele>
        <time>2021-08-06T11:32:41.740Z</time>
      </trkpt>
      <trkpt lat="46.94417" lon="8.7139">
        <ele>1562</ele>
        <time>2021-08-06T11:32:42.740Z</time>
      </trkpt>
      <trkpt lat="46.94416" lon="8.71391">
        <ele>1562</ele>
        <time>2021-08-06T11:32:43.740Z</time>
      </trkpt>
      <trkpt lat="46.94416" lon="8.7139">
        <ele>1562</ele>
        <time>2021-08-06T11:32:44.740Z</time>
      </trkpt>
      <trkpt lat="46.94414" lon="8.71392">
        <ele>1561</ele>
        <time>2021-08-06T11:32:45.739Z</time>
      </trkpt>
      <trkpt lat="46.94413" lon="8.71393">
        <ele>1561</ele>
        <time>2021-08-06T11:32:46.739Z</time>
      </trkpt>
      <trkpt lat="46.94413" lon="8.71394">
        <ele>1561</ele>
        <time>2021-08-06T11:32:47.740Z</time>
      </trkpt>
      <trkpt lat="46.94412" lon="8.71393">
        <ele>1561</ele>
        <time>2021-08-06T11:32:48.739Z</time>
      </trkpt>
      <trkpt lat="46.94412" lon="8.71394">
        <ele>1561</ele>
        <time>2021-08-06T11:32:49.740Z</time>
      </trkpt>
      <trkpt lat="46.94411" lon="8.71394">
        <ele>1560</ele>
        <time>2021-08-06T11:32:50.740Z</time>
      </trkpt>
      <trkpt lat="46.94411" lon="8.71394">
        <ele>1560</ele>
        <time>2021-08-06T11:32:51.740Z</time>
      </trkpt>
      <trkpt lat="46.94411" lon="8.71395">
        <ele>1560</ele>
        <time>2021-08-06T11:32:52.740Z</time>
      </trkpt>
      <trkpt lat="46.94411" lon="8.71395">
        <ele>1560</ele>
        <time>2021-08-06T11:32:53.740Z</time>
      </trkpt>
      <trkpt lat="46.9441" lon="8.71394">
        <ele>1559</ele>
        <time>2021-08-06T11:32:54.740Z</time>
      </trkpt>
      <trkpt lat="46.94409" lon="8.71393">
        <ele>1559</ele>
        <time>2021-08-06T11:32:55.740Z</time>
      </trkpt>
      <trkpt lat="46.94409" lon="8.71393">
        <ele>1559</ele>
        <time>2021-08-06T11:32:56.740Z</time>
      </trkpt>
      <trkpt lat="46.94408" lon="8.71392">
        <ele>1559</ele>
        <time>2021-08-06T11:32:57.740Z</time>
      </trkpt>
      <trkpt lat="46.94408" lon="8.71391">
        <ele>1559</ele>
        <time>2021-08-06T11:32:58.739Z</time>
      </trkpt>
      <trkpt lat="46.94408" lon="8.71391">
        <ele>1559</ele>
        <time>2021-08-06T11:32:59.739Z</time>
      </trkpt>
      <trkpt lat="46.94409" lon="8.7139">
        <ele>1559</ele>
        <time>2021-08-06T11:33:00.739Z</time>
      </trkpt>
      <trkpt lat="46.94409" lon="8.7139">
        <ele>1559</ele>
        <time>2021-08-06T11:33:01.740Z</time>
      </trkpt>
      <trkpt lat="46.9441" lon="8.71391">
        <ele>1559</ele>
        <time>2021-08-06T11:33:02.740Z</time>
      </trkpt>
      <trkpt lat="46.94411" lon="8.71391">
        <ele>1559</ele>
        <time>2021-08-06T11:33:03.739Z</time>
      </trkpt>
      <trkpt lat="46.94412" lon="8.71389">
        <ele>1559</ele>
        <time>2021-08-06T11:33:04.740Z</time>
      </trkpt>
      <trkpt lat="46.94413" lon="8.71389">
        <ele>1559</ele>
        <time>2021-08-06T11:33:05.740Z</time>
      </trkpt>
      <trkpt lat="46.94413" lon="8.71389">
        <ele>1559</ele>
        <time>2021-08-06T11:33:06.740Z</time>
      </trkpt>
      <trkpt lat="46.94411" lon="8.7139">
        <ele>1561</ele>
        <time>2021-08-06T11:33:07.741Z</time>
      </trkpt>
      <trkpt lat="46.94411" lon="8.7139">
        <ele>1561</ele>
        <time>2021-08-06T11:33:08.740Z</time>
      </trkpt>
      <trkpt lat="46.94411" lon="8.7139">
        <ele>1562</ele>
        <time>2021-08-06T11:33:09.741Z</time>
      </trkpt>
      <trkpt lat="46.9441" lon="8.71389">
        <ele>1562</ele>
        <time>2021-08-06T11:33:10.741Z</time>
      </trkpt>
      <trkpt lat="46.9441" lon="8.71389">
        <ele>1562</ele>
        <time>2021-08-06T11:33:11.741Z</time>
      </trkpt>
      <trkpt lat="46.9441" lon="8.71389">
        <ele>1562</ele>
        <time>2021-08-06T11:33:12.740Z</time>
      </trkpt>
      <trkpt lat="46.9441" lon="8.71389">
        <ele>1562</ele>
        <time>2021-08-06T11:33:13.741Z</time>
      </trkpt>
      <trkpt lat="46.9441" lon="8.71389">
        <ele>1562</ele>
        <time>2021-08-06T11:33:14.741Z</time>
      </trkpt>
      <trkpt lat="46.9441" lon="8.71388">
        <ele>1562</ele>
        <time>2021-08-06T11:33:15.740Z</time>
      </trkpt>
      <trkpt lat="46.9441" lon="8.71392">
        <ele>1565</ele>
        <time>2021-08-06T11:33:16.741Z</time>
      </trkpt>
      <trkpt lat="46.9441" lon="8.71393">
        <ele>1566</ele>
        <time>2021-08-06T11:33:17.742Z</time>
      </trkpt>
      <trkpt lat="46.9441" lon="8.71393">
        <ele>1566</ele>
        <time>2021-08-06T11:33:18.742Z</time>
      </trkpt>
      <trkpt lat="46.9441" lon="8.71393">
        <ele>1565</ele>
        <time>2021-08-06T11:33:19.742Z</time>
      </trkpt>
      <trkpt lat="46.94413" lon="8.71391">
        <ele>1563</ele>
        <time>2021-08-06T11:33:20.743Z</time>
      </trkpt>
      <trkpt lat="46.94414" lon="8.7139">
        <ele>1564</ele>
        <time>2021-08-06T11:33:21.742Z</time>
      </trkpt>
      <trkpt lat="46.94415" lon="8.71389">
        <ele>1564</ele>
        <time>2021-08-06T11:33:22.742Z</time>
      </trkpt>
      <trkpt lat="46.94415" lon="8.71388">
        <ele>1564</ele>
        <time>2021-08-06T11:33:23.742Z</time>
      </trkpt>
      <trkpt lat="46.94414" lon="8.71388">
        <ele>1564</ele>
        <time>2021-08-06T11:33:24.743Z</time>
      </trkpt>
      <trkpt lat="46.94414" lon="8.71388">
        <ele>1564</ele>
        <time>2021-08-06T11:33:25.742Z</time>
      </trkpt>
      <trkpt lat="46.94414" lon="8.71388">
        <ele>1564</ele>
        <time>2021-08-06T11:33:26.742Z</time>
      </trkpt>
      <trkpt lat="46.94414" lon="8.71386">
        <ele>1564</ele>
        <time>2021-08-06T11:33:27.742Z</time>
      </trkpt>
      <trkpt lat="46.94414" lon="8.71386">
        <ele>1563</ele>
        <time>2021-08-06T11:33:28.742Z</time>
      </trkpt>
      <trkpt lat="46.94415" lon="8.71386">
        <ele>1563</ele>
        <time>2021-08-06T11:33:29.743Z</time>
      </trkpt>
      <trkpt lat="46.94416" lon="8.71386">
        <ele>1563</ele>
        <time>2021-08-06T11:33:30.743Z</time>
      </trkpt>
      <trkpt lat="46.94416" lon="8.71384">
        <ele>1563</ele>
        <time>2021-08-06T11:33:31.743Z</time>
      </trkpt>
      <trkpt lat="46.94416" lon="8.71383">
        <ele>1563</ele>
        <time>2021-08-06T11:33:32.742Z</time>
      </trkpt>
      <trkpt lat="46.94415" lon="8.71382">
        <ele>1563</ele>
        <time>2021-08-06T11:33:33.742Z</time>
      </trkpt>
      <trkpt lat="46.94415" lon="8.71382">
        <ele>1563</ele>
        <time>2021-08-06T11:33:34.742Z</time>
      </trkpt>
      <trkpt lat="46.94414" lon="8.71381">
        <ele>1563</ele>
        <time>2021-08-06T11:33:35.742Z</time>
      </trkpt>
      <trkpt lat="46.94414" lon="8.7138">
        <ele>1563</ele>
        <time>2021-08-06T11:33:36.743Z</time>
      </trkpt>
      <trkpt lat="46.94414" lon="8.7138">
        <ele>1563</ele>
        <time>2021-08-06T11:33:37.743Z</time>
      </trkpt>
      <trkpt lat="46.94413" lon="8.71379">
        <ele>1562</ele>
        <time>2021-08-06T11:33:38.742Z</time>
      </trkpt>
      <trkpt lat="46.94413" lon="8.71378">
        <ele>1562</ele>
        <time>2021-08-06T11:33:39.742Z</time>
      </trkpt>
      <trkpt lat="46.94413" lon="8.71377">
        <ele>1563</ele>
        <time>2021-08-06T11:33:40.742Z</time>
      </trkpt>
      <trkpt lat="46.94412" lon="8.71377">
        <ele>1563</ele>
        <time>2021-08-06T11:33:41.743Z</time>
      </trkpt>
      <trkpt lat="46.94412" lon="8.71376">
        <ele>1563</ele>
        <time>2021-08-06T11:33:42.742Z</time>
      </trkpt>
      <trkpt lat="46.94412" lon="8.71376">
        <ele>1563</ele>
        <time>2021-08-06T11:33:43.742Z</time>
      </trkpt>
      <trkpt lat="46.94411" lon="8.71375">
        <ele>1563</ele>
        <time>2021-08-06T11:33:44.742Z</time>
      </trkpt>
      <trkpt lat="46.94411" lon="8.71375">
        <ele>1563</ele>
        <time>2021-08-06T11:33:45.743Z</time>
      </trkpt>
      <trkpt lat="46.9441" lon="8.71375">
        <ele>1563</ele>
        <time>2021-08-06T11:33:46.743Z</time>
      </trkpt>
      <trkpt lat="46.94408" lon="8.71375">
        <ele>1563</ele>
        <time>2021-08-06T11:33:47.743Z</time>
      </trkpt>
      <trkpt lat="46.94407" lon="8.71376">
        <ele>1563</ele>
        <time>2021-08-06T11:33:48.742Z</time>
      </trkpt>
      <trkpt lat="46.94407" lon="8.71375">
        <ele>1563</ele>
        <time>2021-08-06T11:33:49.742Z</time>
      </trkpt>
      <trkpt lat="46.94408" lon="8.71374">
        <ele>1564</ele>
        <time>2021-08-06T11:33:50.742Z</time>
      </trkpt>
      <trkpt lat="46.94408" lon="8.71374">
        <ele>1564</ele>
        <time>2021-08-06T11:33:51.742Z</time>
      </trkpt>
      <trkpt lat="46.94408" lon="8.71373">
        <ele>1564</ele>
        <time>2021-08-06T11:33:52.742Z</time>
      </trkpt>
      <trkpt lat="46.94409" lon="8.71372">
        <ele>1564</ele>
        <time>2021-08-06T11:33:53.742Z</time>
      </trkpt>
      <trkpt lat="46.9441" lon="8.71372">
        <ele>1564</ele>
        <time>2021-08-06T11:33:54.743Z</time>
      </trkpt>
      <trkpt lat="46.9441" lon="8.71371">
        <ele>1564</ele>
        <time>2021-08-06T11:33:55.743Z</time>
      </trkpt>
      <trkpt lat="46.9441" lon="8.71371">
        <ele>1564</ele>
        <time>2021-08-06T11:33:56.743Z</time>
      </trkpt>
      <trkpt lat="46.94411" lon="8.7137">
        <ele>1565</ele>
        <time>2021-08-06T11:33:57.742Z</time>
      </trkpt>
      <trkpt lat="46.94411" lon="8.7137">
        <ele>1565</ele>
        <time>2021-08-06T11:33:58.743Z</time>
      </trkpt>
      <trkpt lat="46.94412" lon="8.71369">
        <ele>1566</ele>
        <time>2021-08-06T11:33:59.743Z</time>
      </trkpt>
      <trkpt lat="46.94412" lon="8.71368">
        <ele>1566</ele>
        <time>2021-08-06T11:34:00.743Z</time>
      </trkpt>
      <trkpt lat="46.94412" lon="8.71368">
        <ele>1567</ele>
        <time>2021-08-06T11:34:01.743Z</time>
      </trkpt>
      <trkpt lat="46.94412" lon="8.71367">
        <ele>1568</ele>
        <time>2021-08-06T11:34:02.743Z</time>
      </trkpt>
      <trkpt lat="46.94413" lon="8.71366">
        <ele>1568</ele>
        <time>2021-08-06T11:34:03.743Z</time>
      </trkpt>
      <trkpt lat="46.94414" lon="8.71365">
        <ele>1569</ele>
        <time>2021-08-06T11:34:04.743Z</time>
      </trkpt>
      <trkpt lat="46.94414" lon="8.71365">
        <ele>1569</ele>
        <time>2021-08-06T11:34:05.742Z</time>
      </trkpt>
      <trkpt lat="46.94414" lon="8.71364">
        <ele>1569</ele>
        <time>2021-08-06T11:34:06.743Z</time>
      </trkpt>
      <trkpt lat="46.94415" lon="8.71363">
        <ele>1569</ele>
        <time>2021-08-06T11:34:07.742Z</time>
      </trkpt>
      <trkpt lat="46.94415" lon="8.71362">
        <ele>1570</ele>
        <time>2021-08-06T11:34:08.742Z</time>
      </trkpt>
      <trkpt lat="46.94415" lon="8.71361">
        <ele>1570</ele>
        <time>2021-08-06T11:34:09.743Z</time>
      </trkpt>
      <trkpt lat="46.94415" lon="8.71361">
        <ele>1571</ele>
        <time>2021-08-06T11:34:10.743Z</time>
      </trkpt>
      <trkpt lat="46.94414" lon="8.7136">
        <ele>1572</ele>
        <time>2021-08-06T11:34:11.742Z</time>
      </trkpt>
      <trkpt lat="46.94414" lon="8.7136">
        <ele>1573</ele>
        <time>2021-08-06T11:34:12.742Z</time>
      </trkpt>
      <trkpt lat="46.94415" lon="8.71358">
        <ele>1573</ele>
        <time>2021-08-06T11:34:13.742Z</time>
      </trkpt>
      <trkpt lat="46.94415" lon="8.71355">
        <ele>1574</ele>
        <time>2021-08-06T11:34:14.743Z</time>
      </trkpt>
      <trkpt lat="46.94416" lon="8.71353">
        <ele>1575</ele>
        <time>2021-08-06T11:34:15.742Z</time>
      </trkpt>
      <trkpt lat="46.94416" lon="8.71352">
        <ele>1575</ele>
        <time>2021-08-06T11:34:16.743Z</time>
      </trkpt>
      <trkpt lat="46.94417" lon="8.71352">
        <ele>1576</ele>
        <time>2021-08-06T11:34:17.743Z</time>
      </trkpt>
      <trkpt lat="46.94417" lon="8.71351">
        <ele>1577</ele>
        <time>2021-08-06T11:34:18.743Z</time>
      </trkpt>
      <trkpt lat="46.94417" lon="8.7135">
        <ele>1578</ele>
        <time>2021-08-06T11:34:19.742Z</time>
      </trkpt>
      <trkpt lat="46.94417" lon="8.7135">
        <ele>1579</ele>
        <time>2021-08-06T11:34:20.742Z</time>
      </trkpt>
      <trkpt lat="46.94417" lon="8.7135">
        <ele>1579</ele>
        <time>2021-08-06T11:34:21.743Z</time>
      </trkpt>
      <trkpt lat="46.94417" lon="8.71349">
        <ele>1580</ele>
        <time>2021-08-06T11:34:22.742Z</time>
      </trkpt>
      <trkpt lat="46.94416" lon="8.71348">
        <ele>1580</ele>
        <time>2021-08-06T11:34:23.743Z</time>
      </trkpt>
      <trkpt lat="46.94416" lon="8.71346">
        <ele>1581</ele>
        <time>2021-08-06T11:34:24.743Z</time>
      </trkpt>
      <trkpt lat="46.94416" lon="8.71345">
        <ele>1581</ele>
        <time>2021-08-06T11:34:25.742Z</time>
      </trkpt>
      <trkpt lat="46.94416" lon="8.71344">
        <ele>1581</ele>
        <time>2021-08-06T11:34:26.743Z</time>
      </trkpt>
      <trkpt lat="46.94415" lon="8.71342">
        <ele>1581</ele>
        <time>2021-08-06T11:34:27.743Z</time>
      </trkpt>
      <trkpt lat="46.94415" lon="8.71341">
        <ele>1581</ele>
        <time>2021-08-06T11:34:28.743Z</time>
      </trkpt>
      <trkpt lat="46.94415" lon="8.7134">
        <ele>1581</ele>
        <time>2021-08-06T11:34:29.743Z</time>
      </trkpt>
      <trkpt lat="46.94416" lon="8.71339">
        <ele>1581</ele>
        <time>2021-08-06T11:34:30.742Z</time>
      </trkpt>
      <trkpt lat="46.94416" lon="8.71338">
        <ele>1581</ele>
        <time>2021-08-06T11:34:31.742Z</time>
      </trkpt>
      <trkpt lat="46.94416" lon="8.71336">
        <ele>1581</ele>
        <time>2021-08-06T11:34:32.742Z</time>
      </trkpt>
      <trkpt lat="46.94416" lon="8.71335">
        <ele>1581</ele>
        <time>2021-08-06T11:34:33.742Z</time>
      </trkpt>
      <trkpt lat="46.94416" lon="8.71333">
        <ele>1581</ele>
        <time>2021-08-06T11:34:34.742Z</time>
      </trkpt>
      <trkpt lat="46.94416" lon="8.71332">
        <ele>1581</ele>
        <time>2021-08-06T11:34:35.742Z</time>
      </trkpt>
      <trkpt lat="46.94415" lon="8.7133">
        <ele>1581</ele>
        <time>2021-08-06T11:34:36.742Z</time>
      </trkpt>
      <trkpt lat="46.94414" lon="8.71329">
        <ele>1581</ele>
        <time>2021-08-06T11:34:37.742Z</time>
      </trkpt>
      <trkpt lat="46.94413" lon="8.71328">
        <ele>1581</ele>
        <time>2021-08-06T11:34:38.742Z</time>
      </trkpt>
      <trkpt lat="46.94413" lon="8.71327">
        <ele>1581</ele>
        <time>2021-08-06T11:34:39.742Z</time>
      </trkpt>
      <trkpt lat="46.94413" lon="8.71326">
        <ele>1580</ele>
        <time>2021-08-06T11:34:40.742Z</time>
      </trkpt>
      <trkpt lat="46.94414" lon="8.71324">
        <ele>1580</ele>
        <time>2021-08-06T11:34:41.742Z</time>
      </trkpt>
      <trkpt lat="46.94414" lon="8.71323">
        <ele>1580</ele>
        <time>2021-08-06T11:34:42.743Z</time>
      </trkpt>
      <trkpt lat="46.94414" lon="8.71322">
        <ele>1580</ele>
        <time>2021-08-06T11:34:43.742Z</time>
      </trkpt>
      <trkpt lat="46.94414" lon="8.71322">
        <ele>1580</ele>
        <time>2021-08-06T11:34:44.743Z</time>
      </trkpt>
      <trkpt lat="46.94414" lon="8.71321">
        <ele>1580</ele>
        <time>2021-08-06T11:34:45.743Z</time>
      </trkpt>
      <trkpt lat="46.94414" lon="8.7132">
        <ele>1580</ele>
        <time>2021-08-06T11:34:46.742Z</time>
      </trkpt>
      <trkpt lat="46.94414" lon="8.71319">
        <ele>1579</ele>
        <time>2021-08-06T11:34:47.742Z</time>
      </trkpt>
      <trkpt lat="46.94415" lon="8.71319">
        <ele>1579</ele>
        <time>2021-08-06T11:34:48.743Z</time>
      </trkpt>
      <trkpt lat="46.94415" lon="8.71318">
        <ele>1579</ele>
        <time>2021-08-06T11:34:49.742Z</time>
      </trkpt>
      <trkpt lat="46.94415" lon="8.71317">
        <ele>1579</ele>
        <time>2021-08-06T11:34:50.743Z</time>
      </trkpt>
      <trkpt lat="46.94415" lon="8.71316">
        <ele>1579</ele>
        <time>2021-08-06T11:34:51.742Z</time>
      </trkpt>
      <trkpt lat="46.94415" lon="8.71316">
        <ele>1579</ele>
        <time>2021-08-06T11:34:52.742Z</time>
      </trkpt>
      <trkpt lat="46.94415" lon="8.71315">
        <ele>1579</ele>
        <time>2021-08-06T11:34:53.742Z</time>
      </trkpt>
      <trkpt lat="46.94415" lon="8.71314">
        <ele>1579</ele>
        <time>2021-08-06T11:34:54.743Z</time>
      </trkpt>
      <trkpt lat="46.94415" lon="8.71314">
        <ele>1579</ele>
        <time>2021-08-06T11:34:55.743Z</time>
      </trkpt>
      <trkpt lat="46.94414" lon="8.71313">
        <ele>1578</ele>
        <time>2021-08-06T11:34:56.742Z</time>
      </trkpt>
      <trkpt lat="46.94413" lon="8.71312">
        <ele>1578</ele>
        <time>2021-08-06T11:34:57.742Z</time>
      </trkpt>
      <trkpt lat="46.94413" lon="8.71312">
        <ele>1578</ele>
        <time>2021-08-06T11:34:58.742Z</time>
      </trkpt>
      <trkpt lat="46.94412" lon="8.71311">
        <ele>1577</ele>
        <time>2021-08-06T11:34:59.742Z</time>
      </trkpt>
      <trkpt lat="46.94412" lon="8.71311">
        <ele>1577</ele>
        <time>2021-08-06T11:35:00.742Z</time>
      </trkpt>
      <trkpt lat="46.94412" lon="8.71311">
        <ele>1577</ele>
        <time>2021-08-06T11:35:01.742Z</time>
      </trkpt>
      <trkpt lat="46.94412" lon="8.71308">
        <ele>1576</ele>
        <time>2021-08-06T11:35:02.742Z</time>
      </trkpt>
      <trkpt lat="46.94412" lon="8.71307">
        <ele>1576</ele>
        <time>2021-08-06T11:35:03.743Z</time>
      </trkpt>
      <trkpt lat="46.94412" lon="8.71305">
        <ele>1575</ele>
        <time>2021-08-06T11:35:04.742Z</time>
      </trkpt>
      <trkpt lat="46.94412" lon="8.71304">
        <ele>1575</ele>
        <time>2021-08-06T11:35:05.743Z</time>
      </trkpt>
      <trkpt lat="46.94412" lon="8.71303">
        <ele>1575</ele>
        <time>2021-08-06T11:35:06.742Z</time>
      </trkpt>
      <trkpt lat="46.94411" lon="8.71302">
        <ele>1574</ele>
        <time>2021-08-06T11:35:07.743Z</time>
      </trkpt>
      <trkpt lat="46.94411" lon="8.71301">
        <ele>1574</ele>
        <time>2021-08-06T11:35:08.742Z</time>
      </trkpt>
      <trkpt lat="46.94411" lon="8.71299">
        <ele>1575</ele>
        <time>2021-08-06T11:35:09.743Z</time>
      </trkpt>
      <trkpt lat="46.94411" lon="8.71298">
        <ele>1574</ele>
        <time>2021-08-06T11:35:10.743Z</time>
      </trkpt>
      <trkpt lat="46.94412" lon="8.71296">
        <ele>1574</ele>
        <time>2021-08-06T11:35:11.743Z</time>
      </trkpt>
      <trkpt lat="46.94412" lon="8.71295">
        <ele>1574</ele>
        <time>2021-08-06T11:35:12.742Z</time>
      </trkpt>
      <trkpt lat="46.94411" lon="8.71293">
        <ele>1574</ele>
        <time>2021-08-06T11:35:13.743Z</time>
      </trkpt>
      <trkpt lat="46.94411" lon="8.71292">
        <ele>1574</ele>
        <time>2021-08-06T11:35:14.742Z</time>
      </trkpt>
      <trkpt lat="46.94411" lon="8.7129">
        <ele>1574</ele>
        <time>2021-08-06T11:35:15.742Z</time>
      </trkpt>
      <trkpt lat="46.9441" lon="8.71288">
        <ele>1574</ele>
        <time>2021-08-06T11:35:16.742Z</time>
      </trkpt>
      <trkpt lat="46.94409" lon="8.71287">
        <ele>1574</ele>
        <time>2021-08-06T11:35:17.743Z</time>
      </trkpt>
      <trkpt lat="46.94409" lon="8.71285">
        <ele>1574</ele>
        <time>2021-08-06T11:35:18.742Z</time>
      </trkpt>
      <trkpt lat="46.94408" lon="8.71283">
        <ele>1575</ele>
        <time>2021-08-06T11:35:19.742Z</time>
      </trkpt>
      <trkpt lat="46.94408" lon="8.71282">
        <ele>1574</ele>
        <time>2021-08-06T11:35:20.742Z</time>
      </trkpt>
      <trkpt lat="46.94408" lon="8.71281">
        <ele>1574</ele>
        <time>2021-08-06T11:35:21.742Z</time>
      </trkpt>
      <trkpt lat="46.94408" lon="8.7128">
        <ele>1574</ele>
        <time>2021-08-06T11:35:22.742Z</time>
      </trkpt>
      <trkpt lat="46.94408" lon="8.71279">
        <ele>1573</ele>
        <time>2021-08-06T11:35:23.742Z</time>
      </trkpt>
      <trkpt lat="46.94407" lon="8.71278">
        <ele>1573</ele>
        <time>2021-08-06T11:35:24.743Z</time>
      </trkpt>
      <trkpt lat="46.94407" lon="8.71278">
        <ele>1573</ele>
        <time>2021-08-06T11:35:25.742Z</time>
      </trkpt>
      <trkpt lat="46.94407" lon="8.71277">
        <ele>1573</ele>
        <time>2021-08-06T11:35:26.743Z</time>
      </trkpt>
      <trkpt lat="46.94407" lon="8.71275">
        <ele>1572</ele>
        <time>2021-08-06T11:35:27.742Z</time>
      </trkpt>
      <trkpt lat="46.94406" lon="8.71274">
        <ele>1572</ele>
        <time>2021-08-06T11:35:28.743Z</time>
      </trkpt>
      <trkpt lat="46.94406" lon="8.71272">
        <ele>1572</ele>
        <time>2021-08-06T11:35:29.743Z</time>
      </trkpt>
      <trkpt lat="46.94406" lon="8.71271">
        <ele>1572</ele>
        <time>2021-08-06T11:35:30.743Z</time>
      </trkpt>
      <trkpt lat="46.94406" lon="8.7127">
        <ele>1572</ele>
        <time>2021-08-06T11:35:31.742Z</time>
      </trkpt>
      <trkpt lat="46.94405" lon="8.7127">
        <ele>1572</ele>
        <time>2021-08-06T11:35:32.742Z</time>
      </trkpt>
      <trkpt lat="46.94405" lon="8.71269">
        <ele>1571</ele>
        <time>2021-08-06T11:35:33.743Z</time>
      </trkpt>
      <trkpt lat="46.94404" lon="8.71268">
        <ele>1571</ele>
        <time>2021-08-06T11:35:34.743Z</time>
      </trkpt>
      <trkpt lat="46.94403" lon="8.71267">
        <ele>1571</ele>
        <time>2021-08-06T11:35:35.742Z</time>
      </trkpt>
      <trkpt lat="46.94403" lon="8.71266">
        <ele>1571</ele>
        <time>2021-08-06T11:35:36.743Z</time>
      </trkpt>
      <trkpt lat="46.94403" lon="8.71264">
        <ele>1571</ele>
        <time>2021-08-06T11:35:37.742Z</time>
      </trkpt>
      <trkpt lat="46.94404" lon="8.71262">
        <ele>1570</ele>
        <time>2021-08-06T11:35:38.742Z</time>
      </trkpt>
      <trkpt lat="46.94404" lon="8.71261">
        <ele>1570</ele>
        <time>2021-08-06T11:35:39.742Z</time>
      </trkpt>
      <trkpt lat="46.94404" lon="8.71259">
        <ele>1569</ele>
        <time>2021-08-06T11:35:40.743Z</time>
      </trkpt>
      <trkpt lat="46.94404" lon="8.71258">
        <ele>1569</ele>
        <time>2021-08-06T11:35:41.743Z</time>
      </trkpt>
      <trkpt lat="46.94404" lon="8.71256">
        <ele>1569</ele>
        <time>2021-08-06T11:35:42.742Z</time>
      </trkpt>
      <trkpt lat="46.94403" lon="8.71254">
        <ele>1569</ele>
        <time>2021-08-06T11:35:43.742Z</time>
      </trkpt>
      <trkpt lat="46.94402" lon="8.71252">
        <ele>1569</ele>
        <time>2021-08-06T11:35:44.742Z</time>
      </trkpt>
      <trkpt lat="46.94402" lon="8.7125">
        <ele>1568</ele>
        <time>2021-08-06T11:35:45.742Z</time>
      </trkpt>
      <trkpt lat="46.94402" lon="8.71248">
        <ele>1568</ele>
        <time>2021-08-06T11:35:46.742Z</time>
      </trkpt>
      <trkpt lat="46.94402" lon="8.71246">
        <ele>1567</ele>
        <time>2021-08-06T11:35:47.742Z</time>
      </trkpt>
      <trkpt lat="46.94401" lon="8.71245">
        <ele>1567</ele>
        <time>2021-08-06T11:35:48.742Z</time>
      </trkpt>
      <trkpt lat="46.94401" lon="8.71243">
        <ele>1566</ele>
        <time>2021-08-06T11:35:49.743Z</time>
      </trkpt>
      <trkpt lat="46.94401" lon="8.71242">
        <ele>1565</ele>
        <time>2021-08-06T11:35:50.742Z</time>
      </trkpt>
      <trkpt lat="46.944" lon="8.7124">
        <ele>1565</ele>
        <time>2021-08-06T11:35:51.742Z</time>
      </trkpt>
      <trkpt lat="46.944" lon="8.71239">
        <ele>1564</ele>
        <time>2021-08-06T11:35:52.742Z</time>
      </trkpt>
      <trkpt lat="46.944" lon="8.71238">
        <ele>1564</ele>
        <time>2021-08-06T11:35:53.743Z</time>
      </trkpt>
      <trkpt lat="46.94399" lon="8.71237">
        <ele>1564</ele>
        <time>2021-08-06T11:35:54.743Z</time>
      </trkpt>
      <trkpt lat="46.94399" lon="8.71235">
        <ele>1563</ele>
        <time>2021-08-06T11:35:55.742Z</time>
      </trkpt>
      <trkpt lat="46.94399" lon="8.71233">
        <ele>1563</ele>
        <time>2021-08-06T11:35:56.742Z</time>
      </trkpt>
      <trkpt lat="46.94399" lon="8.71232">
        <ele>1563</ele>
        <time>2021-08-06T11:35:57.742Z</time>
      </trkpt>
      <trkpt lat="46.94399" lon="8.7123">
        <ele>1563</ele>
        <time>2021-08-06T11:35:58.742Z</time>
      </trkpt>
      <trkpt lat="46.94399" lon="8.71228">
        <ele>1562</ele>
        <time>2021-08-06T11:35:59.743Z</time>
      </trkpt>
      <trkpt lat="46.94399" lon="8.71227">
        <ele>1562</ele>
        <time>2021-08-06T11:36:00.742Z</time>
      </trkpt>
      <trkpt lat="46.94399" lon="8.71226">
        <ele>1562</ele>
        <time>2021-08-06T11:36:01.743Z</time>
      </trkpt>
      <trkpt lat="46.94399" lon="8.71224">
        <ele>1563</ele>
        <time>2021-08-06T11:36:02.742Z</time>
      </trkpt>
      <trkpt lat="46.94399" lon="8.71223">
        <ele>1563</ele>
        <time>2021-08-06T11:36:03.742Z</time>
      </trkpt>
      <trkpt lat="46.94398" lon="8.71222">
        <ele>1563</ele>
        <time>2021-08-06T11:36:04.742Z</time>
      </trkpt>
      <trkpt lat="46.94398" lon="8.7122">
        <ele>1563</ele>
        <time>2021-08-06T11:36:05.742Z</time>
      </trkpt>
      <trkpt lat="46.94398" lon="8.71219">
        <ele>1563</ele>
        <time>2021-08-06T11:36:06.742Z</time>
      </trkpt>
      <trkpt lat="46.94397" lon="8.71218">
        <ele>1563</ele>
        <time>2021-08-06T11:36:07.743Z</time>
      </trkpt>
      <trkpt lat="46.94397" lon="8.71217">
        <ele>1564</ele>
        <time>2021-08-06T11:36:08.742Z</time>
      </trkpt>
      <trkpt lat="46.94398" lon="8.71216">
        <ele>1564</ele>
        <time>2021-08-06T11:36:09.742Z</time>
      </trkpt>
      <trkpt lat="46.94398" lon="8.71214">
        <ele>1564</ele>
        <time>2021-08-06T11:36:10.742Z</time>
      </trkpt>
      <trkpt lat="46.94398" lon="8.71213">
        <ele>1563</ele>
        <time>2021-08-06T11:36:11.743Z</time>
      </trkpt>
      <trkpt lat="46.94397" lon="8.71211">
        <ele>1563</ele>
        <time>2021-08-06T11:36:12.742Z</time>
      </trkpt>
      <trkpt lat="46.94397" lon="8.7121">
        <ele>1562</ele>
        <time>2021-08-06T11:36:13.742Z</time>
      </trkpt>
      <trkpt lat="46.94397" lon="8.71208">
        <ele>1562</ele>
        <time>2021-08-06T11:36:14.743Z</time>
      </trkpt>
      <trkpt lat="46.94397" lon="8.71207">
        <ele>1562</ele>
        <time>2021-08-06T11:36:15.742Z</time>
      </trkpt>
      <trkpt lat="46.94396" lon="8.71205">
        <ele>1562</ele>
        <time>2021-08-06T11:36:16.743Z</time>
      </trkpt>
      <trkpt lat="46.94396" lon="8.71204">
        <ele>1562</ele>
        <time>2021-08-06T11:36:17.742Z</time>
      </trkpt>
      <trkpt lat="46.94396" lon="8.71202">
        <ele>1563</ele>
        <time>2021-08-06T11:36:18.742Z</time>
      </trkpt>
      <trkpt lat="46.94395" lon="8.71201">
        <ele>1563</ele>
        <time>2021-08-06T11:36:19.743Z</time>
      </trkpt>
      <trkpt lat="46.94395" lon="8.712">
        <ele>1563</ele>
        <time>2021-08-06T11:36:20.742Z</time>
      </trkpt>
      <trkpt lat="46.94395" lon="8.71199">
        <ele>1564</ele>
        <time>2021-08-06T11:36:21.742Z</time>
      </trkpt>
      <trkpt lat="46.94395" lon="8.71196">
        <ele>1564</ele>
        <time>2021-08-06T11:36:22.742Z</time>
      </trkpt>
      <trkpt lat="46.94395" lon="8.71195">
        <ele>1564</ele>
        <time>2021-08-06T11:36:23.743Z</time>
      </trkpt>
      <trkpt lat="46.94394" lon="8.71195">
        <ele>1564</ele>
        <time>2021-08-06T11:36:24.743Z</time>
      </trkpt>
      <trkpt lat="46.94394" lon="8.71194">
        <ele>1564</ele>
        <time>2021-08-06T11:36:25.742Z</time>
      </trkpt>
      <trkpt lat="46.94393" lon="8.71193">
        <ele>1564</ele>
        <time>2021-08-06T11:36:26.743Z</time>
      </trkpt>
      <trkpt lat="46.94393" lon="8.71193">
        <ele>1564</ele>
        <time>2021-08-06T11:36:27.742Z</time>
      </trkpt>
      <trkpt lat="46.94392" lon="8.71192">
        <ele>1563</ele>
        <time>2021-08-06T11:36:28.742Z</time>
      </trkpt>
      <trkpt lat="46.94392" lon="8.71191">
        <ele>1563</ele>
        <time>2021-08-06T11:36:29.742Z</time>
      </trkpt>
      <trkpt lat="46.94392" lon="8.71191">
        <ele>1563</ele>
        <time>2021-08-06T11:36:30.742Z</time>
      </trkpt>
      <trkpt lat="46.94392" lon="8.7119">
        <ele>1563</ele>
        <time>2021-08-06T11:36:31.742Z</time>
      </trkpt>
      <trkpt lat="46.94392" lon="8.71189">
        <ele>1563</ele>
        <time>2021-08-06T11:36:33.837Z</time>
      </trkpt>
      <trkpt lat="46.94391" lon="8.71187">
        <ele>1564</ele>
        <time>2021-08-06T11:36:34.836Z</time>
      </trkpt>
      <trkpt lat="46.94391" lon="8.71186">
        <ele>1564</ele>
        <time>2021-08-06T11:36:35.836Z</time>
      </trkpt>
      <trkpt lat="46.9439" lon="8.71185">
        <ele>1564</ele>
        <time>2021-08-06T11:36:36.836Z</time>
      </trkpt>
      <trkpt lat="46.9439" lon="8.71184">
        <ele>1563</ele>
        <time>2021-08-06T11:36:39.959Z</time>
      </trkpt>
      <trkpt lat="46.9439" lon="8.71183">
        <ele>1563</ele>
        <time>2021-08-06T11:36:40.960Z</time>
      </trkpt>
      <trkpt lat="46.94389" lon="8.71181">
        <ele>1564</ele>
        <time>2021-08-06T11:36:42.820Z</time>
      </trkpt>
      <trkpt lat="46.94388" lon="8.7118">
        <ele>1564</ele>
        <time>2021-08-06T11:36:43.820Z</time>
      </trkpt>
      <trkpt lat="46.94387" lon="8.71179">
        <ele>1564</ele>
        <time>2021-08-06T11:36:44.820Z</time>
      </trkpt>
      <trkpt lat="46.94387" lon="8.71178">
        <ele>1564</ele>
        <time>2021-08-06T11:36:45.820Z</time>
      </trkpt>
      <trkpt lat="46.94386" lon="8.71177">
        <ele>1564</ele>
        <time>2021-08-06T11:36:46.821Z</time>
      </trkpt>
      <trkpt lat="46.94386" lon="8.71176">
        <ele>1563</ele>
        <time>2021-08-06T11:36:47.820Z</time>
      </trkpt>
      <trkpt lat="46.94386" lon="8.71175">
        <ele>1563</ele>
        <time>2021-08-06T11:36:48.820Z</time>
      </trkpt>
      <trkpt lat="46.94385" lon="8.71174">
        <ele>1563</ele>
        <time>2021-08-06T11:36:49.820Z</time>
      </trkpt>
      <trkpt lat="46.94384" lon="8.71173">
        <ele>1563</ele>
        <time>2021-08-06T11:36:50.821Z</time>
      </trkpt>
      <trkpt lat="46.94383" lon="8.71173">
        <ele>1563</ele>
        <time>2021-08-06T11:36:51.821Z</time>
      </trkpt>
      <trkpt lat="46.94382" lon="8.71173">
        <ele>1563</ele>
        <time>2021-08-06T11:36:52.820Z</time>
      </trkpt>
      <trkpt lat="46.94382" lon="8.71172">
        <ele>1563</ele>
        <time>2021-08-06T11:36:53.820Z</time>
      </trkpt>
      <trkpt lat="46.94381" lon="8.71171">
        <ele>1563</ele>
        <time>2021-08-06T11:36:54.821Z</time>
      </trkpt>
      <trkpt lat="46.9438" lon="8.71171">
        <ele>1563</ele>
        <time>2021-08-06T11:36:55.821Z</time>
      </trkpt>
      <trkpt lat="46.94379" lon="8.7117">
        <ele>1563</ele>
        <time>2021-08-06T11:36:56.820Z</time>
      </trkpt>
      <trkpt lat="46.94379" lon="8.71169">
        <ele>1564</ele>
        <time>2021-08-06T11:36:57.821Z</time>
      </trkpt>
      <trkpt lat="46.94378" lon="8.71168">
        <ele>1564</ele>
        <time>2021-08-06T11:36:58.821Z</time>
      </trkpt>
      <trkpt lat="46.94377" lon="8.71167">
        <ele>1563</ele>
        <time>2021-08-06T11:36:59.820Z</time>
      </trkpt>
      <trkpt lat="46.94376" lon="8.71166">
        <ele>1563</ele>
        <time>2021-08-06T11:37:00.820Z</time>
      </trkpt>
      <trkpt lat="46.94376" lon="8.71165">
        <ele>1563</ele>
        <time>2021-08-06T11:37:01.820Z</time>
      </trkpt>
      <trkpt lat="46.94376" lon="8.71164">
        <ele>1563</ele>
        <time>2021-08-06T11:37:02.820Z</time>
      </trkpt>
      <trkpt lat="46.94376" lon="8.71163">
        <ele>1563</ele>
        <time>2021-08-06T11:37:03.820Z</time>
      </trkpt>
      <trkpt lat="46.94375" lon="8.71163">
        <ele>1563</ele>
        <time>2021-08-06T11:37:04.820Z</time>
      </trkpt>
      <trkpt lat="46.94374" lon="8.71163">
        <ele>1563</ele>
        <time>2021-08-06T11:37:05.821Z</time>
      </trkpt>
      <trkpt lat="46.94374" lon="8.71163">
        <ele>1564</ele>
        <time>2021-08-06T11:37:06.821Z</time>
      </trkpt>
      <trkpt lat="46.94374" lon="8.71163">
        <ele>1564</ele>
        <time>2021-08-06T11:37:07.821Z</time>
      </trkpt>
      <trkpt lat="46.94374" lon="8.71164">
        <ele>1565</ele>
        <time>2021-08-06T11:37:08.823Z</time>
      </trkpt>
      <trkpt lat="46.94374" lon="8.71164">
        <ele>1566</ele>
        <time>2021-08-06T11:37:09.823Z</time>
      </trkpt>
      <trkpt lat="46.94374" lon="8.71164">
        <ele>1566</ele>
        <time>2021-08-06T11:37:10.822Z</time>
      </trkpt>
      <trkpt lat="46.94375" lon="8.71167">
        <ele>1569</ele>
        <time>2021-08-06T11:37:11.823Z</time>
      </trkpt>
      <trkpt lat="46.94374" lon="8.71167">
        <ele>1569</ele>
        <time>2021-08-06T11:37:12.822Z</time>
      </trkpt>
      <trkpt lat="46.94374" lon="8.71167">
        <ele>1570</ele>
        <time>2021-08-06T11:37:13.824Z</time>
      </trkpt>
      <trkpt lat="46.94374" lon="8.71167">
        <ele>1570</ele>
        <time>2021-08-06T11:37:14.824Z</time>
      </trkpt>
      <trkpt lat="46.94375" lon="8.71168">
        <ele>1570</ele>
        <time>2021-08-06T11:37:15.823Z</time>
      </trkpt>
      <trkpt lat="46.94375" lon="8.71168">
        <ele>1571</ele>
        <time>2021-08-06T11:37:16.823Z</time>
      </trkpt>
      <trkpt lat="46.94376" lon="8.71168">
        <ele>1574</ele>
        <time>2021-08-06T11:37:22.889Z</time>
      </trkpt>
      <trkpt lat="46.94376" lon="8.71169">
        <ele>1574</ele>
        <time>2021-08-06T11:37:23.889Z</time>
      </trkpt>
      <trkpt lat="46.94376" lon="8.71168">
        <ele>1574</ele>
        <time>2021-08-06T11:37:24.888Z</time>
      </trkpt>
      <trkpt lat="46.94376" lon="8.71168">
        <ele>1574</ele>
        <time>2021-08-06T11:37:25.889Z</time>
      </trkpt>
      <trkpt lat="46.94375" lon="8.71168">
        <ele>1574</ele>
        <time>2021-08-06T11:37:26.889Z</time>
      </trkpt>
      <trkpt lat="46.94375" lon="8.71167">
        <ele>1572</ele>
        <time>2021-08-06T11:37:27.889Z</time>
      </trkpt>
      <trkpt lat="46.94375" lon="8.71167">
        <ele>1571</ele>
        <time>2021-08-06T11:37:28.889Z</time>
      </trkpt>
      <trkpt lat="46.94375" lon="8.71166">
        <ele>1571</ele>
        <time>2021-08-06T11:37:29.888Z</time>
      </trkpt>
      <trkpt lat="46.94375" lon="8.71166">
        <ele>1571</ele>
        <time>2021-08-06T11:37:30.888Z</time>
      </trkpt>
      <trkpt lat="46.94374" lon="8.71165">
        <ele>1570</ele>
        <time>2021-08-06T11:37:31.890Z</time>
      </trkpt>
      <trkpt lat="46.94374" lon="8.71165">
        <ele>1570</ele>
        <time>2021-08-06T11:37:32.890Z</time>
      </trkpt>
      <trkpt lat="46.94373" lon="8.71165">
        <ele>1571</ele>
        <time>2021-08-06T11:37:33.889Z</time>
      </trkpt>
      <trkpt lat="46.94372" lon="8.71163">
        <ele>1573</ele>
        <time>2021-08-06T11:37:34.890Z</time>
      </trkpt>
      <trkpt lat="46.94372" lon="8.71163">
        <ele>1573</ele>
        <time>2021-08-06T11:37:35.890Z</time>
      </trkpt>
      <trkpt lat="46.94371" lon="8.71163">
        <ele>1573</ele>
        <time>2021-08-06T11:37:36.891Z</time>
      </trkpt>
      <trkpt lat="46.94371" lon="8.71163">
        <ele>1573</ele>
        <time>2021-08-06T11:37:37.891Z</time>
      </trkpt>
      <trkpt lat="46.9437" lon="8.71162">
        <ele>1573</ele>
        <time>2021-08-06T11:37:38.891Z</time>
      </trkpt>
      <trkpt lat="46.9437" lon="8.71163">
        <ele>1574</ele>
        <time>2021-08-06T11:37:39.890Z</time>
      </trkpt>
      <trkpt lat="46.94369" lon="8.71164">
        <ele>1574</ele>
        <time>2021-08-06T11:37:40.891Z</time>
      </trkpt>
      <trkpt lat="46.94369" lon="8.71164">
        <ele>1574</ele>
        <time>2021-08-06T11:37:41.890Z</time>
      </trkpt>
      <trkpt lat="46.94368" lon="8.71164">
        <ele>1574</ele>
        <time>2021-08-06T11:37:42.891Z</time>
      </trkpt>
      <trkpt lat="46.94368" lon="8.71164">
        <ele>1574</ele>
        <time>2021-08-06T11:37:43.890Z</time>
      </trkpt>
      <trkpt lat="46.94368" lon="8.71164">
        <ele>1574</ele>
        <time>2021-08-06T11:37:44.890Z</time>
      </trkpt>
      <trkpt lat="46.94368" lon="8.71163">
        <ele>1574</ele>
        <time>2021-08-06T11:37:45.892Z</time>
      </trkpt>
      <trkpt lat="46.94367" lon="8.71163">
        <ele>1575</ele>
        <time>2021-08-06T11:37:46.892Z</time>
      </trkpt>
      <trkpt lat="46.94366" lon="8.71163">
        <ele>1575</ele>
        <time>2021-08-06T11:37:47.891Z</time>
      </trkpt>
      <trkpt lat="46.94366" lon="8.71163">
        <ele>1575</ele>
        <time>2021-08-06T11:37:48.892Z</time>
      </trkpt>
      <trkpt lat="46.94366" lon="8.71163">
        <ele>1574</ele>
        <time>2021-08-06T11:37:49.892Z</time>
      </trkpt>
      <trkpt lat="46.94365" lon="8.71163">
        <ele>1574</ele>
        <time>2021-08-06T11:37:50.891Z</time>
      </trkpt>
      <trkpt lat="46.94365" lon="8.71163">
        <ele>1574</ele>
        <time>2021-08-06T11:37:51.891Z</time>
      </trkpt>
      <trkpt lat="46.94365" lon="8.71163">
        <ele>1575</ele>
        <time>2021-08-06T11:37:57.022Z</time>
      </trkpt>
      <trkpt lat="46.94365" lon="8.71163">
        <ele>1575</ele>
        <time>2021-08-06T11:37:58.022Z</time>
      </trkpt>
      <trkpt lat="46.94365" lon="8.71162">
        <ele>1576</ele>
        <time>2021-08-06T11:38:01.854Z</time>
      </trkpt>
      <trkpt lat="46.94364" lon="8.71161">
        <ele>1576</ele>
        <time>2021-08-06T11:38:02.853Z</time>
      </trkpt>
      <trkpt lat="46.94364" lon="8.71161">
        <ele>1577</ele>
        <time>2021-08-06T11:38:10.767Z</time>
      </trkpt>
      <trkpt lat="46.94364" lon="8.71161">
        <ele>1577</ele>
        <time>2021-08-06T11:38:11.766Z</time>
      </trkpt>
      <trkpt lat="46.94363" lon="8.71161">
        <ele>1578</ele>
        <time>2021-08-06T11:38:17.646Z</time>
      </trkpt>
      <trkpt lat="46.94363" lon="8.71161">
        <ele>1578</ele>
        <time>2021-08-06T11:38:18.646Z</time>
      </trkpt>
      <trkpt lat="46.94363" lon="8.7116">
        <ele>1578</ele>
        <time>2021-08-06T11:38:19.646Z</time>
      </trkpt>
      <trkpt lat="46.94363" lon="8.7116">
        <ele>1578</ele>
        <time>2021-08-06T11:38:31.752Z</time>
      </trkpt>
      <trkpt lat="46.94362" lon="8.7116">
        <ele>1578</ele>
        <time>2021-08-06T11:38:32.751Z</time>
      </trkpt>
      <trkpt lat="46.94361" lon="8.71161">
        <ele>1578</ele>
        <time>2021-08-06T11:38:33.751Z</time>
      </trkpt>
      <trkpt lat="46.94361" lon="8.71161">
        <ele>1578</ele>
        <time>2021-08-06T11:38:34.752Z</time>
      </trkpt>
      <trkpt lat="46.9436" lon="8.71162">
        <ele>1578</ele>
        <time>2021-08-06T11:38:35.751Z</time>
      </trkpt>
      <trkpt lat="46.94359" lon="8.71163">
        <ele>1578</ele>
        <time>2021-08-06T11:38:36.752Z</time>
      </trkpt>
      <trkpt lat="46.94358" lon="8.71162">
        <ele>1577</ele>
        <time>2021-08-06T11:38:37.752Z</time>
      </trkpt>
      <trkpt lat="46.94358" lon="8.71162">
        <ele>1577</ele>
        <time>2021-08-06T11:38:43.896Z</time>
      </trkpt>
      <trkpt lat="46.94358" lon="8.71162">
        <ele>1577</ele>
        <time>2021-08-06T11:38:44.897Z</time>
      </trkpt>
      <trkpt lat="46.94358" lon="8.71162">
        <ele>1576</ele>
        <time>2021-08-06T11:38:45.897Z</time>
      </trkpt>
      <trkpt lat="46.94358" lon="8.71161">
        <ele>1576</ele>
        <time>2021-08-06T11:38:51.978Z</time>
      </trkpt>
      <trkpt lat="46.94358" lon="8.7116">
        <ele>1576</ele>
        <time>2021-08-06T11:38:52.977Z</time>
      </trkpt>
      <trkpt lat="46.94358" lon="8.71159">
        <ele>1575</ele>
        <time>2021-08-06T11:38:53.977Z</time>
      </trkpt>
      <trkpt lat="46.94359" lon="8.71157">
        <ele>1575</ele>
        <time>2021-08-06T11:38:57.716Z</time>
      </trkpt>
      <trkpt lat="46.9436" lon="8.71157">
        <ele>1575</ele>
        <time>2021-08-06T11:38:58.716Z</time>
      </trkpt>
      <trkpt lat="46.94361" lon="8.71157">
        <ele>1575</ele>
        <time>2021-08-06T11:39:04.858Z</time>
      </trkpt>
      <trkpt lat="46.94361" lon="8.71156">
        <ele>1575</ele>
        <time>2021-08-06T11:39:05.857Z</time>
      </trkpt>
      <trkpt lat="46.94361" lon="8.71156">
        <ele>1575</ele>
        <time>2021-08-06T11:39:06.857Z</time>
      </trkpt>
      <trkpt lat="46.94362" lon="8.71156">
        <ele>1576</ele>
        <time>2021-08-06T11:39:36.765Z</time>
      </trkpt>
      <trkpt lat="46.94362" lon="8.71156">
        <ele>1576</ele>
        <time>2021-08-06T11:39:37.765Z</time>
      </trkpt>
      <trkpt lat="46.94362" lon="8.71155">
        <ele>1576</ele>
        <time>2021-08-06T11:39:57.849Z</time>
      </trkpt>
      <trkpt lat="46.94362" lon="8.71154">
        <ele>1576</ele>
        <time>2021-08-06T11:39:58.849Z</time>
      </trkpt>
      <trkpt lat="46.94362" lon="8.71154">
        <ele>1576</ele>
        <time>2021-08-06T11:39:59.849Z</time>
      </trkpt>
      <trkpt lat="46.94362" lon="8.71154">
        <ele>1576</ele>
        <time>2021-08-06T11:40:03.993Z</time>
      </trkpt>
      <trkpt lat="46.94362" lon="8.71153">
        <ele>1576</ele>
        <time>2021-08-06T11:40:04.993Z</time>
      </trkpt>
      <trkpt lat="46.94363" lon="8.71153">
        <ele>1576</ele>
        <time>2021-08-06T11:40:07.746Z</time>
      </trkpt>
      <trkpt lat="46.94363" lon="8.71153">
        <ele>1576</ele>
        <time>2021-08-06T11:40:08.745Z</time>
      </trkpt>
      <trkpt lat="46.94363" lon="8.71153">
        <ele>1576</ele>
        <time>2021-08-06T11:40:09.745Z</time>
      </trkpt>
      <trkpt lat="46.94363" lon="8.71152">
        <ele>1576</ele>
        <time>2021-08-06T11:40:10.745Z</time>
      </trkpt>
      <trkpt lat="46.94364" lon="8.71151">
        <ele>1576</ele>
        <time>2021-08-06T11:40:11.745Z</time>
      </trkpt>
      <trkpt lat="46.94365" lon="8.71151">
        <ele>1576</ele>
        <time>2021-08-06T11:40:12.745Z</time>
      </trkpt>
      <trkpt lat="46.94365" lon="8.71151">
        <ele>1576</ele>
        <time>2021-08-06T11:40:13.745Z</time>
      </trkpt>
      <trkpt lat="46.94365" lon="8.71151">
        <ele>1577</ele>
        <time>2021-08-06T11:40:14.745Z</time>
      </trkpt>
      <trkpt lat="46.94365" lon="8.71151">
        <ele>1577</ele>
        <time>2021-08-06T11:40:15.745Z</time>
      </trkpt>
      <trkpt lat="46.94365" lon="8.7115">
        <ele>1578</ele>
        <time>2021-08-06T11:40:16.745Z</time>
      </trkpt>
      <trkpt lat="46.94364" lon="8.71149">
        <ele>1580</ele>
        <time>2021-08-06T11:40:17.745Z</time>
      </trkpt>
      <trkpt lat="46.94363" lon="8.71149">
        <ele>1581</ele>
        <time>2021-08-06T11:40:18.745Z</time>
      </trkpt>
      <trkpt lat="46.94362" lon="8.71149">
        <ele>1581</ele>
        <time>2021-08-06T11:40:19.745Z</time>
      </trkpt>
      <trkpt lat="46.94362" lon="8.71147">
        <ele>1582</ele>
        <time>2021-08-06T11:40:20.745Z</time>
      </trkpt>
      <trkpt lat="46.94361" lon="8.71146">
        <ele>1582</ele>
        <time>2021-08-06T11:40:21.745Z</time>
      </trkpt>
      <trkpt lat="46.94361" lon="8.71145">
        <ele>1582</ele>
        <time>2021-08-06T11:40:22.746Z</time>
      </trkpt>
      <trkpt lat="46.94361" lon="8.71144">
        <ele>1582</ele>
        <time>2021-08-06T11:40:23.746Z</time>
      </trkpt>
      <trkpt lat="46.9436" lon="8.71144">
        <ele>1582</ele>
        <time>2021-08-06T11:40:24.746Z</time>
      </trkpt>
      <trkpt lat="46.9436" lon="8.71144">
        <ele>1582</ele>
        <time>2021-08-06T11:40:25.746Z</time>
      </trkpt>
      <trkpt lat="46.9436" lon="8.71144">
        <ele>1582</ele>
        <time>2021-08-06T11:40:26.746Z</time>
      </trkpt>
      <trkpt lat="46.94359" lon="8.71143">
        <ele>1582</ele>
        <time>2021-08-06T11:40:27.746Z</time>
      </trkpt>
      <trkpt lat="46.9436" lon="8.71142">
        <ele>1583</ele>
        <time>2021-08-06T11:40:28.746Z</time>
      </trkpt>
      <trkpt lat="46.9436" lon="8.71141">
        <ele>1583</ele>
        <time>2021-08-06T11:40:29.746Z</time>
      </trkpt>
      <trkpt lat="46.9436" lon="8.71141">
        <ele>1583</ele>
        <time>2021-08-06T11:40:30.745Z</time>
      </trkpt>
      <trkpt lat="46.94361" lon="8.7114">
        <ele>1583</ele>
        <time>2021-08-06T11:40:31.746Z</time>
      </trkpt>
      <trkpt lat="46.9436" lon="8.71142">
        <ele>1583</ele>
        <time>2021-08-06T11:40:32.747Z</time>
      </trkpt>
      <trkpt lat="46.94359" lon="8.71143">
        <ele>1583</ele>
        <time>2021-08-06T11:40:33.747Z</time>
      </trkpt>
      <trkpt lat="46.94358" lon="8.71143">
        <ele>1582</ele>
        <time>2021-08-06T11:40:34.746Z</time>
      </trkpt>
      <trkpt lat="46.94357" lon="8.71143">
        <ele>1582</ele>
        <time>2021-08-06T11:40:35.747Z</time>
      </trkpt>
      <trkpt lat="46.94356" lon="8.71144">
        <ele>1582</ele>
        <time>2021-08-06T11:40:36.746Z</time>
      </trkpt>
      <trkpt lat="46.94355" lon="8.71144">
        <ele>1582</ele>
        <time>2021-08-06T11:40:37.747Z</time>
      </trkpt>
      <trkpt lat="46.94355" lon="8.71145">
        <ele>1582</ele>
        <time>2021-08-06T11:40:38.747Z</time>
      </trkpt>
      <trkpt lat="46.94355" lon="8.71146">
        <ele>1582</ele>
        <time>2021-08-06T11:40:39.747Z</time>
      </trkpt>
      <trkpt lat="46.94355" lon="8.71146">
        <ele>1582</ele>
        <time>2021-08-06T11:40:40.747Z</time>
      </trkpt>
      <trkpt lat="46.94354" lon="8.71145">
        <ele>1584</ele>
        <time>2021-08-06T11:40:41.746Z</time>
      </trkpt>
      <trkpt lat="46.94354" lon="8.71145">
        <ele>1584</ele>
        <time>2021-08-06T11:40:42.746Z</time>
      </trkpt>
      <trkpt lat="46.94354" lon="8.71143">
        <ele>1584</ele>
        <time>2021-08-06T11:40:43.746Z</time>
      </trkpt>
      <trkpt lat="46.94354" lon="8.71142">
        <ele>1583</ele>
        <time>2021-08-06T11:40:44.747Z</time>
      </trkpt>
      <trkpt lat="46.94353" lon="8.71141">
        <ele>1583</ele>
        <time>2021-08-06T11:40:45.747Z</time>
      </trkpt>
      <trkpt lat="46.94353" lon="8.7114">
        <ele>1583</ele>
        <time>2021-08-06T11:40:46.747Z</time>
      </trkpt>
      <trkpt lat="46.94352" lon="8.7114">
        <ele>1583</ele>
        <time>2021-08-06T11:40:47.746Z</time>
      </trkpt>
      <trkpt lat="46.94351" lon="8.71139">
        <ele>1583</ele>
        <time>2021-08-06T11:40:48.747Z</time>
      </trkpt>
      <trkpt lat="46.94351" lon="8.71139">
        <ele>1583</ele>
        <time>2021-08-06T11:40:49.747Z</time>
      </trkpt>
      <trkpt lat="46.9435" lon="8.71138">
        <ele>1584</ele>
        <time>2021-08-06T11:40:50.747Z</time>
      </trkpt>
      <trkpt lat="46.9435" lon="8.71138">
        <ele>1584</ele>
        <time>2021-08-06T11:40:51.747Z</time>
      </trkpt>
      <trkpt lat="46.94349" lon="8.71137">
        <ele>1584</ele>
        <time>2021-08-06T11:40:52.746Z</time>
      </trkpt>
      <trkpt lat="46.94349" lon="8.71136">
        <ele>1585</ele>
        <time>2021-08-06T11:40:53.746Z</time>
      </trkpt>
      <trkpt lat="46.94349" lon="8.71135">
        <ele>1585</ele>
        <time>2021-08-06T11:40:54.747Z</time>
      </trkpt>
      <trkpt lat="46.94349" lon="8.71134">
        <ele>1585</ele>
        <time>2021-08-06T11:40:55.747Z</time>
      </trkpt>
      <trkpt lat="46.94348" lon="8.71133">
        <ele>1584</ele>
        <time>2021-08-06T11:40:56.746Z</time>
      </trkpt>
      <trkpt lat="46.94348" lon="8.71132">
        <ele>1584</ele>
        <time>2021-08-06T11:40:57.746Z</time>
      </trkpt>
      <trkpt lat="46.94348" lon="8.71131">
        <ele>1583</ele>
        <time>2021-08-06T11:40:58.747Z</time>
      </trkpt>
      <trkpt lat="46.94348" lon="8.7113">
        <ele>1583</ele>
        <time>2021-08-06T11:40:59.746Z</time>
      </trkpt>
      <trkpt lat="46.94347" lon="8.71129">
        <ele>1583</ele>
        <time>2021-08-06T11:41:00.746Z</time>
      </trkpt>
      <trkpt lat="46.94347" lon="8.71128">
        <ele>1583</ele>
        <time>2021-08-06T11:41:01.747Z</time>
      </trkpt>
      <trkpt lat="46.94346" lon="8.71127">
        <ele>1583</ele>
        <time>2021-08-06T11:41:02.746Z</time>
      </trkpt>
      <trkpt lat="46.94346" lon="8.71126">
        <ele>1583</ele>
        <time>2021-08-06T11:41:03.746Z</time>
      </trkpt>
      <trkpt lat="46.94346" lon="8.71125">
        <ele>1583</ele>
        <time>2021-08-06T11:41:04.746Z</time>
      </trkpt>
      <trkpt lat="46.94345" lon="8.71125">
        <ele>1583</ele>
        <time>2021-08-06T11:41:05.747Z</time>
      </trkpt>
      <trkpt lat="46.94345" lon="8.71124">
        <ele>1583</ele>
        <time>2021-08-06T11:41:06.747Z</time>
      </trkpt>
      <trkpt lat="46.94344" lon="8.71124">
        <ele>1582</ele>
        <time>2021-08-06T11:41:07.746Z</time>
      </trkpt>
      <trkpt lat="46.94344" lon="8.71123">
        <ele>1583</ele>
        <time>2021-08-06T11:41:08.746Z</time>
      </trkpt>
      <trkpt lat="46.94344" lon="8.71123">
        <ele>1582</ele>
        <time>2021-08-06T11:41:09.747Z</time>
      </trkpt>
      <trkpt lat="46.94344" lon="8.71122">
        <ele>1582</ele>
        <time>2021-08-06T11:41:10.746Z</time>
      </trkpt>
      <trkpt lat="46.94344" lon="8.71121">
        <ele>1581</ele>
        <time>2021-08-06T11:41:11.746Z</time>
      </trkpt>
      <trkpt lat="46.94344" lon="8.7112">
        <ele>1581</ele>
        <time>2021-08-06T11:41:12.746Z</time>
      </trkpt>
      <trkpt lat="46.94344" lon="8.71119">
        <ele>1581</ele>
        <time>2021-08-06T11:41:13.747Z</time>
      </trkpt>
      <trkpt lat="46.94344" lon="8.71119">
        <ele>1581</ele>
        <time>2021-08-06T11:41:14.747Z</time>
      </trkpt>
      <trkpt lat="46.94344" lon="8.71118">
        <ele>1581</ele>
        <time>2021-08-06T11:41:15.747Z</time>
      </trkpt>
      <trkpt lat="46.94344" lon="8.71117">
        <ele>1581</ele>
        <time>2021-08-06T11:41:16.747Z</time>
      </trkpt>
      <trkpt lat="46.94343" lon="8.71117">
        <ele>1581</ele>
        <time>2021-08-06T11:41:17.747Z</time>
      </trkpt>
      <trkpt lat="46.94343" lon="8.71116">
        <ele>1582</ele>
        <time>2021-08-06T11:41:18.747Z</time>
      </trkpt>
      <trkpt lat="46.94343" lon="8.71116">
        <ele>1583</ele>
        <time>2021-08-06T11:41:19.747Z</time>
      </trkpt>
      <trkpt lat="46.94342" lon="8.71115">
        <ele>1583</ele>
        <time>2021-08-06T11:41:20.747Z</time>
      </trkpt>
      <trkpt lat="46.94341" lon="8.71115">
        <ele>1583</ele>
        <time>2021-08-06T11:41:21.747Z</time>
      </trkpt>
      <trkpt lat="46.94341" lon="8.71114">
        <ele>1584</ele>
        <time>2021-08-06T11:41:22.746Z</time>
      </trkpt>
      <trkpt lat="46.9434" lon="8.71113">
        <ele>1584</ele>
        <time>2021-08-06T11:41:23.746Z</time>
      </trkpt>
      <trkpt lat="46.94339" lon="8.71113">
        <ele>1585</ele>
        <time>2021-08-06T11:41:24.746Z</time>
      </trkpt>
      <trkpt lat="46.94339" lon="8.71112">
        <ele>1585</ele>
        <time>2021-08-06T11:41:25.746Z</time>
      </trkpt>
      <trkpt lat="46.94338" lon="8.71112">
        <ele>1586</ele>
        <time>2021-08-06T11:41:26.746Z</time>
      </trkpt>
      <trkpt lat="46.94338" lon="8.71111">
        <ele>1586</ele>
        <time>2021-08-06T11:41:27.747Z</time>
      </trkpt>
      <trkpt lat="46.94337" lon="8.71112">
        <ele>1587</ele>
        <time>2021-08-06T11:41:28.746Z</time>
      </trkpt>
      <trkpt lat="46.94336" lon="8.71112">
        <ele>1587</ele>
        <time>2021-08-06T11:41:29.746Z</time>
      </trkpt>
      <trkpt lat="46.94336" lon="8.71112">
        <ele>1588</ele>
        <time>2021-08-06T11:41:30.746Z</time>
      </trkpt>
      <trkpt lat="46.94335" lon="8.71113">
        <ele>1589</ele>
        <time>2021-08-06T11:41:31.746Z</time>
      </trkpt>
      <trkpt lat="46.94334" lon="8.71113">
        <ele>1589</ele>
        <time>2021-08-06T11:41:32.746Z</time>
      </trkpt>
      <trkpt lat="46.94334" lon="8.71113">
        <ele>1590</ele>
        <time>2021-08-06T11:41:33.746Z</time>
      </trkpt>
      <trkpt lat="46.94333" lon="8.71113">
        <ele>1589</ele>
        <time>2021-08-06T11:41:34.747Z</time>
      </trkpt>
      <trkpt lat="46.94333" lon="8.71114">
        <ele>1589</ele>
        <time>2021-08-06T11:41:35.747Z</time>
      </trkpt>
      <trkpt lat="46.94333" lon="8.71114">
        <ele>1589</ele>
        <time>2021-08-06T11:41:36.746Z</time>
      </trkpt>
      <trkpt lat="46.94332" lon="8.71114">
        <ele>1589</ele>
        <time>2021-08-06T11:41:37.747Z</time>
      </trkpt>
      <trkpt lat="46.94332" lon="8.71113">
        <ele>1589</ele>
        <time>2021-08-06T11:41:38.747Z</time>
      </trkpt>
      <trkpt lat="46.94331" lon="8.71114">
        <ele>1589</ele>
        <time>2021-08-06T11:41:39.747Z</time>
      </trkpt>
      <trkpt lat="46.94331" lon="8.71114">
        <ele>1589</ele>
        <time>2021-08-06T11:41:40.747Z</time>
      </trkpt>
      <trkpt lat="46.9433" lon="8.71114">
        <ele>1589</ele>
        <time>2021-08-06T11:41:41.747Z</time>
      </trkpt>
      <trkpt lat="46.9433" lon="8.71114">
        <ele>1589</ele>
        <time>2021-08-06T11:41:42.747Z</time>
      </trkpt>
      <trkpt lat="46.94329" lon="8.71113">
        <ele>1589</ele>
        <time>2021-08-06T11:41:43.747Z</time>
      </trkpt>
      <trkpt lat="46.94328" lon="8.71113">
        <ele>1589</ele>
        <time>2021-08-06T11:41:44.746Z</time>
      </trkpt>
      <trkpt lat="46.94328" lon="8.71113">
        <ele>1589</ele>
        <time>2021-08-06T11:41:45.747Z</time>
      </trkpt>
      <trkpt lat="46.94327" lon="8.71114">
        <ele>1588</ele>
        <time>2021-08-06T11:41:46.747Z</time>
      </trkpt>
      <trkpt lat="46.94327" lon="8.71114">
        <ele>1588</ele>
        <time>2021-08-06T11:41:47.746Z</time>
      </trkpt>
      <trkpt lat="46.94327" lon="8.71114">
        <ele>1587</ele>
        <time>2021-08-06T11:41:48.747Z</time>
      </trkpt>
      <trkpt lat="46.94327" lon="8.71114">
        <ele>1587</ele>
        <time>2021-08-06T11:41:49.746Z</time>
      </trkpt>
      <trkpt lat="46.94327" lon="8.71114">
        <ele>1587</ele>
        <time>2021-08-06T11:41:50.747Z</time>
      </trkpt>
      <trkpt lat="46.94326" lon="8.71113">
        <ele>1590</ele>
        <time>2021-08-06T11:41:53.855Z</time>
      </trkpt>
      <trkpt lat="46.94325" lon="8.71113">
        <ele>1590</ele>
        <time>2021-08-06T11:41:54.855Z</time>
      </trkpt>
      <trkpt lat="46.94324" lon="8.71112">
        <ele>1589</ele>
        <time>2021-08-06T11:41:55.855Z</time>
      </trkpt>
      <trkpt lat="46.94324" lon="8.71112">
        <ele>1590</ele>
        <time>2021-08-06T11:41:56.855Z</time>
      </trkpt>
      <trkpt lat="46.94324" lon="8.71112">
        <ele>1590</ele>
        <time>2021-08-06T11:41:57.855Z</time>
      </trkpt>
      <trkpt lat="46.94323" lon="8.71111">
        <ele>1590</ele>
        <time>2021-08-06T11:41:58.855Z</time>
      </trkpt>
      <trkpt lat="46.94323" lon="8.71111">
        <ele>1590</ele>
        <time>2021-08-06T11:41:59.855Z</time>
      </trkpt>
      <trkpt lat="46.94322" lon="8.71111">
        <ele>1590</ele>
        <time>2021-08-06T11:42:00.856Z</time>
      </trkpt>
      <trkpt lat="46.94322" lon="8.71111">
        <ele>1591</ele>
        <time>2021-08-06T11:42:01.856Z</time>
      </trkpt>
      <trkpt lat="46.94321" lon="8.7111">
        <ele>1591</ele>
        <time>2021-08-06T11:42:02.855Z</time>
      </trkpt>
      <trkpt lat="46.94321" lon="8.71109">
        <ele>1591</ele>
        <time>2021-08-06T11:42:03.856Z</time>
      </trkpt>
      <trkpt lat="46.94321" lon="8.71109">
        <ele>1591</ele>
        <time>2021-08-06T11:42:04.855Z</time>
      </trkpt>
      <trkpt lat="46.94321" lon="8.71108">
        <ele>1592</ele>
        <time>2021-08-06T11:42:05.856Z</time>
      </trkpt>
      <trkpt lat="46.9432" lon="8.71108">
        <ele>1592</ele>
        <time>2021-08-06T11:42:06.856Z</time>
      </trkpt>
      <trkpt lat="46.94319" lon="8.71108">
        <ele>1593</ele>
        <time>2021-08-06T11:42:07.856Z</time>
      </trkpt>
      <trkpt lat="46.94319" lon="8.71107">
        <ele>1593</ele>
        <time>2021-08-06T11:42:08.856Z</time>
      </trkpt>
      <trkpt lat="46.94319" lon="8.71107">
        <ele>1593</ele>
        <time>2021-08-06T11:42:09.856Z</time>
      </trkpt>
      <trkpt lat="46.94318" lon="8.71106">
        <ele>1593</ele>
        <time>2021-08-06T11:42:10.856Z</time>
      </trkpt>
      <trkpt lat="46.94318" lon="8.71105">
        <ele>1593</ele>
        <time>2021-08-06T11:42:11.855Z</time>
      </trkpt>
      <trkpt lat="46.94318" lon="8.71105">
        <ele>1594</ele>
        <time>2021-08-06T11:42:12.855Z</time>
      </trkpt>
      <trkpt lat="46.94317" lon="8.71105">
        <ele>1594</ele>
        <time>2021-08-06T11:42:13.856Z</time>
      </trkpt>
      <trkpt lat="46.94317" lon="8.71105">
        <ele>1595</ele>
        <time>2021-08-06T11:42:14.855Z</time>
      </trkpt>
      <trkpt lat="46.94316" lon="8.71105">
        <ele>1595</ele>
        <time>2021-08-06T11:42:15.856Z</time>
      </trkpt>
      <trkpt lat="46.94316" lon="8.71105">
        <ele>1595</ele>
        <time>2021-08-06T11:42:16.855Z</time>
      </trkpt>
      <trkpt lat="46.94315" lon="8.71105">
        <ele>1596</ele>
        <time>2021-08-06T11:42:17.856Z</time>
      </trkpt>
      <trkpt lat="46.94315" lon="8.71105">
        <ele>1596</ele>
        <time>2021-08-06T11:42:18.856Z</time>
      </trkpt>
      <trkpt lat="46.94314" lon="8.71105">
        <ele>1597</ele>
        <time>2021-08-06T11:42:19.855Z</time>
      </trkpt>
      <trkpt lat="46.94313" lon="8.71105">
        <ele>1597</ele>
        <time>2021-08-06T11:42:20.855Z</time>
      </trkpt>
      <trkpt lat="46.94313" lon="8.71105">
        <ele>1597</ele>
        <time>2021-08-06T11:42:21.855Z</time>
      </trkpt>
      <trkpt lat="46.94313" lon="8.71105">
        <ele>1598</ele>
        <time>2021-08-06T11:42:22.855Z</time>
      </trkpt>
      <trkpt lat="46.94312" lon="8.71105">
        <ele>1598</ele>
        <time>2021-08-06T11:42:23.855Z</time>
      </trkpt>
      <trkpt lat="46.94312" lon="8.71105">
        <ele>1599</ele>
        <time>2021-08-06T11:42:24.857Z</time>
      </trkpt>
      <trkpt lat="46.94311" lon="8.71105">
        <ele>1599</ele>
        <time>2021-08-06T11:42:25.856Z</time>
      </trkpt>
      <trkpt lat="46.9431" lon="8.71106">
        <ele>1599</ele>
        <time>2021-08-06T11:42:26.857Z</time>
      </trkpt>
      <trkpt lat="46.9431" lon="8.71106">
        <ele>1599</ele>
        <time>2021-08-06T11:42:27.857Z</time>
      </trkpt>
      <trkpt lat="46.9431" lon="8.71106">
        <ele>1599</ele>
        <time>2021-08-06T11:42:28.856Z</time>
      </trkpt>
      <trkpt lat="46.94309" lon="8.71105">
        <ele>1599</ele>
        <time>2021-08-06T11:42:29.856Z</time>
      </trkpt>
      <trkpt lat="46.94309" lon="8.71105">
        <ele>1599</ele>
        <time>2021-08-06T11:42:30.856Z</time>
      </trkpt>
      <trkpt lat="46.94308" lon="8.71105">
        <ele>1599</ele>
        <time>2021-08-06T11:42:31.856Z</time>
      </trkpt>
      <trkpt lat="46.94308" lon="8.71106">
        <ele>1599</ele>
        <time>2021-08-06T11:42:32.856Z</time>
      </trkpt>
      <trkpt lat="46.94307" lon="8.71106">
        <ele>1599</ele>
        <time>2021-08-06T11:42:33.857Z</time>
      </trkpt>
      <trkpt lat="46.94307" lon="8.71106">
        <ele>1600</ele>
        <time>2021-08-06T11:42:34.857Z</time>
      </trkpt>
      <trkpt lat="46.94307" lon="8.71106">
        <ele>1600</ele>
        <time>2021-08-06T11:42:35.857Z</time>
      </trkpt>
      <trkpt lat="46.94306" lon="8.71106">
        <ele>1600</ele>
        <time>2021-08-06T11:42:36.856Z</time>
      </trkpt>
      <trkpt lat="46.94306" lon="8.71106">
        <ele>1600</ele>
        <time>2021-08-06T11:42:37.857Z</time>
      </trkpt>
      <trkpt lat="46.94305" lon="8.71106">
        <ele>1601</ele>
        <time>2021-08-06T11:42:41.988Z</time>
      </trkpt>
      <trkpt lat="46.94305" lon="8.71106">
        <ele>1601</ele>
        <time>2021-08-06T11:42:44.832Z</time>
      </trkpt>
      <trkpt lat="46.94304" lon="8.71106">
        <ele>1602</ele>
        <time>2021-08-06T11:42:45.832Z</time>
      </trkpt>
      <trkpt lat="46.94304" lon="8.71106">
        <ele>1602</ele>
        <time>2021-08-06T11:42:46.833Z</time>
      </trkpt>
      <trkpt lat="46.94304" lon="8.71106">
        <ele>1602</ele>
        <time>2021-08-06T11:42:47.833Z</time>
      </trkpt>
      <trkpt lat="46.94303" lon="8.71105">
        <ele>1602</ele>
        <time>2021-08-06T11:42:48.833Z</time>
      </trkpt>
      <trkpt lat="46.94303" lon="8.71105">
        <ele>1602</ele>
        <time>2021-08-06T11:42:49.832Z</time>
      </trkpt>
      <trkpt lat="46.94302" lon="8.71104">
        <ele>1602</ele>
        <time>2021-08-06T11:42:57.028Z</time>
      </trkpt>
      <trkpt lat="46.94302" lon="8.71104">
        <ele>1602</ele>
        <time>2021-08-06T11:42:58.027Z</time>
      </trkpt>
      <trkpt lat="46.94301" lon="8.71104">
        <ele>1602</ele>
        <time>2021-08-06T11:42:59.027Z</time>
      </trkpt>
      <trkpt lat="46.94301" lon="8.71103">
        <ele>1602</ele>
        <time>2021-08-06T11:43:00.027Z</time>
      </trkpt>
      <trkpt lat="46.94301" lon="8.71103">
        <ele>1602</ele>
        <time>2021-08-06T11:43:01.028Z</time>
      </trkpt>
      <trkpt lat="46.94301" lon="8.71103">
        <ele>1602</ele>
        <time>2021-08-06T11:43:02.027Z</time>
      </trkpt>
      <trkpt lat="46.943" lon="8.71103">
        <ele>1602</ele>
        <time>2021-08-06T11:43:03.028Z</time>
      </trkpt>
      <trkpt lat="46.943" lon="8.71102">
        <ele>1602</ele>
        <time>2021-08-06T11:43:04.027Z</time>
      </trkpt>
      <trkpt lat="46.94299" lon="8.71102">
        <ele>1603</ele>
        <time>2021-08-06T11:43:05.028Z</time>
      </trkpt>
      <trkpt lat="46.94299" lon="8.71102">
        <ele>1603</ele>
        <time>2021-08-06T11:43:06.027Z</time>
      </trkpt>
      <trkpt lat="46.94298" lon="8.71102">
        <ele>1603</ele>
        <time>2021-08-06T11:43:07.028Z</time>
      </trkpt>
      <trkpt lat="46.94298" lon="8.71101">
        <ele>1603</ele>
        <time>2021-08-06T11:43:08.028Z</time>
      </trkpt>
      <trkpt lat="46.94297" lon="8.711">
        <ele>1603</ele>
        <time>2021-08-06T11:43:11.105Z</time>
      </trkpt>
      <trkpt lat="46.94297" lon="8.711">
        <ele>1603</ele>
        <time>2021-08-06T11:43:12.106Z</time>
      </trkpt>
      <trkpt lat="46.94296" lon="8.711">
        <ele>1602</ele>
        <time>2021-08-06T11:43:13.106Z</time>
      </trkpt>
      <trkpt lat="46.94295" lon="8.71099">
        <ele>1602</ele>
        <time>2021-08-06T11:43:14.105Z</time>
      </trkpt>
      <trkpt lat="46.94295" lon="8.71098">
        <ele>1601</ele>
        <time>2021-08-06T11:43:15.106Z</time>
      </trkpt>
      <trkpt lat="46.94294" lon="8.71097">
        <ele>1601</ele>
        <time>2021-08-06T11:43:16.106Z</time>
      </trkpt>
      <trkpt lat="46.94294" lon="8.71097">
        <ele>1601</ele>
        <time>2021-08-06T11:43:17.105Z</time>
      </trkpt>
      <trkpt lat="46.94293" lon="8.71096">
        <ele>1600</ele>
        <time>2021-08-06T11:43:18.106Z</time>
      </trkpt>
      <trkpt lat="46.94292" lon="8.71095">
        <ele>1600</ele>
        <time>2021-08-06T11:43:19.106Z</time>
      </trkpt>
      <trkpt lat="46.94292" lon="8.71095">
        <ele>1599</ele>
        <time>2021-08-06T11:43:20.106Z</time>
      </trkpt>
      <trkpt lat="46.94292" lon="8.71094">
        <ele>1599</ele>
        <time>2021-08-06T11:43:21.106Z</time>
      </trkpt>
      <trkpt lat="46.94291" lon="8.71093">
        <ele>1599</ele>
        <time>2021-08-06T11:43:22.105Z</time>
      </trkpt>
      <trkpt lat="46.94291" lon="8.71093">
        <ele>1599</ele>
        <time>2021-08-06T11:43:23.106Z</time>
      </trkpt>
      <trkpt lat="46.9429" lon="8.71092">
        <ele>1599</ele>
        <time>2021-08-06T11:43:24.105Z</time>
      </trkpt>
      <trkpt lat="46.94289" lon="8.71092">
        <ele>1599</ele>
        <time>2021-08-06T11:43:25.106Z</time>
      </trkpt>
      <trkpt lat="46.94289" lon="8.7109">
        <ele>1599</ele>
        <time>2021-08-06T11:43:26.106Z</time>
      </trkpt>
      <trkpt lat="46.94289" lon="8.71089">
        <ele>1599</ele>
        <time>2021-08-06T11:43:27.106Z</time>
      </trkpt>
      <trkpt lat="46.94288" lon="8.71088">
        <ele>1599</ele>
        <time>2021-08-06T11:43:28.106Z</time>
      </trkpt>
      <trkpt lat="46.94288" lon="8.71088">
        <ele>1599</ele>
        <time>2021-08-06T11:43:29.106Z</time>
      </trkpt>
      <trkpt lat="46.94288" lon="8.71087">
        <ele>1599</ele>
        <time>2021-08-06T11:43:30.105Z</time>
      </trkpt>
      <trkpt lat="46.94287" lon="8.71086">
        <ele>1600</ele>
        <time>2021-08-06T11:43:31.106Z</time>
      </trkpt>
      <trkpt lat="46.94286" lon="8.71086">
        <ele>1600</ele>
        <time>2021-08-06T11:43:32.106Z</time>
      </trkpt>
      <trkpt lat="46.94286" lon="8.71086">
        <ele>1600</ele>
        <time>2021-08-06T11:43:33.106Z</time>
      </trkpt>
      <trkpt lat="46.94285" lon="8.71085">
        <ele>1600</ele>
        <time>2021-08-06T11:43:34.106Z</time>
      </trkpt>
      <trkpt lat="46.94285" lon="8.71084">
        <ele>1600</ele>
        <time>2021-08-06T11:43:35.106Z</time>
      </trkpt>
      <trkpt lat="46.94284" lon="8.71084">
        <ele>1600</ele>
        <time>2021-08-06T11:43:36.106Z</time>
      </trkpt>
      <trkpt lat="46.94283" lon="8.71083">
        <ele>1600</ele>
        <time>2021-08-06T11:43:37.105Z</time>
      </trkpt>
      <trkpt lat="46.94283" lon="8.71082">
        <ele>1600</ele>
        <time>2021-08-06T11:43:38.106Z</time>
      </trkpt>
      <trkpt lat="46.94282" lon="8.71082">
        <ele>1600</ele>
        <time>2021-08-06T11:43:41.090Z</time>
      </trkpt>
      <trkpt lat="46.94282" lon="8.71082">
        <ele>1599</ele>
        <time>2021-08-06T11:43:42.090Z</time>
      </trkpt>
      <trkpt lat="46.94281" lon="8.71083">
        <ele>1599</ele>
        <time>2021-08-06T11:43:43.090Z</time>
      </trkpt>
      <trkpt lat="46.9428" lon="8.71082">
        <ele>1599</ele>
        <time>2021-08-06T11:43:44.090Z</time>
      </trkpt>
      <trkpt lat="46.9428" lon="8.71082">
        <ele>1599</ele>
        <time>2021-08-06T11:43:45.090Z</time>
      </trkpt>
      <trkpt lat="46.94279" lon="8.71082">
        <ele>1599</ele>
        <time>2021-08-06T11:43:46.090Z</time>
      </trkpt>
      <trkpt lat="46.94279" lon="8.71082">
        <ele>1599</ele>
        <time>2021-08-06T11:43:47.091Z</time>
      </trkpt>
      <trkpt lat="46.94278" lon="8.71082">
        <ele>1599</ele>
        <time>2021-08-06T11:43:48.090Z</time>
      </trkpt>
      <trkpt lat="46.94278" lon="8.71082">
        <ele>1600</ele>
        <time>2021-08-06T11:43:49.090Z</time>
      </trkpt>
      <trkpt lat="46.94278" lon="8.71081">
        <ele>1600</ele>
        <time>2021-08-06T11:43:50.090Z</time>
      </trkpt>
      <trkpt lat="46.94277" lon="8.7108">
        <ele>1600</ele>
        <time>2021-08-06T11:43:51.090Z</time>
      </trkpt>
      <trkpt lat="46.94277" lon="8.7108">
        <ele>1600</ele>
        <time>2021-08-06T11:43:52.090Z</time>
      </trkpt>
      <trkpt lat="46.94277" lon="8.7108">
        <ele>1601</ele>
        <time>2021-08-06T11:43:53.090Z</time>
      </trkpt>
      <trkpt lat="46.94276" lon="8.71079">
        <ele>1601</ele>
        <time>2021-08-06T11:43:54.090Z</time>
      </trkpt>
      <trkpt lat="46.94276" lon="8.71078">
        <ele>1601</ele>
        <time>2021-08-06T11:43:55.090Z</time>
      </trkpt>
      <trkpt lat="46.94276" lon="8.71077">
        <ele>1601</ele>
        <time>2021-08-06T11:43:56.090Z</time>
      </trkpt>
      <trkpt lat="46.94276" lon="8.71076">
        <ele>1601</ele>
        <time>2021-08-06T11:43:57.090Z</time>
      </trkpt>
      <trkpt lat="46.94275" lon="8.71076">
        <ele>1601</ele>
        <time>2021-08-06T11:43:58.091Z</time>
      </trkpt>
      <trkpt lat="46.94275" lon="8.71075">
        <ele>1602</ele>
        <time>2021-08-06T11:43:59.090Z</time>
      </trkpt>
      <trkpt lat="46.94275" lon="8.71075">
        <ele>1602</ele>
        <time>2021-08-06T11:44:00.090Z</time>
      </trkpt>
      <trkpt lat="46.94274" lon="8.71075">
        <ele>1602</ele>
        <time>2021-08-06T11:44:01.090Z</time>
      </trkpt>
      <trkpt lat="46.94274" lon="8.71074">
        <ele>1602</ele>
        <time>2021-08-06T11:44:02.090Z</time>
      </trkpt>
      <trkpt lat="46.94275" lon="8.71074">
        <ele>1602</ele>
        <time>2021-08-06T11:44:03.090Z</time>
      </trkpt>
      <trkpt lat="46.94274" lon="8.71073">
        <ele>1603</ele>
        <time>2021-08-06T11:44:04.090Z</time>
      </trkpt>
      <trkpt lat="46.94274" lon="8.71072">
        <ele>1603</ele>
        <time>2021-08-06T11:44:07.126Z</time>
      </trkpt>
      <trkpt lat="46.94274" lon="8.71071">
        <ele>1603</ele>
        <time>2021-08-06T11:44:08.125Z</time>
      </trkpt>
      <trkpt lat="46.94274" lon="8.71071">
        <ele>1604</ele>
        <time>2021-08-06T11:44:09.126Z</time>
      </trkpt>
      <trkpt lat="46.94273" lon="8.71069">
        <ele>1604</ele>
        <time>2021-08-06T11:44:10.126Z</time>
      </trkpt>
      <trkpt lat="46.94272" lon="8.71068">
        <ele>1604</ele>
        <time>2021-08-06T11:44:11.126Z</time>
      </trkpt>
      <trkpt lat="46.94272" lon="8.71067">
        <ele>1604</ele>
        <time>2021-08-06T11:44:12.126Z</time>
      </trkpt>
      <trkpt lat="46.94272" lon="8.71066">
        <ele>1605</ele>
        <time>2021-08-06T11:44:13.126Z</time>
      </trkpt>
      <trkpt lat="46.94271" lon="8.71066">
        <ele>1605</ele>
        <time>2021-08-06T11:44:14.126Z</time>
      </trkpt>
      <trkpt lat="46.94271" lon="8.71066">
        <ele>1605</ele>
        <time>2021-08-06T11:44:15.126Z</time>
      </trkpt>
      <trkpt lat="46.9427" lon="8.71066">
        <ele>1605</ele>
        <time>2021-08-06T11:44:16.126Z</time>
      </trkpt>
      <trkpt lat="46.9427" lon="8.71066">
        <ele>1606</ele>
        <time>2021-08-06T11:44:17.126Z</time>
      </trkpt>
      <trkpt lat="46.94271" lon="8.71065">
        <ele>1606</ele>
        <time>2021-08-06T11:44:18.126Z</time>
      </trkpt>
      <trkpt lat="46.9427" lon="8.71064">
        <ele>1606</ele>
        <time>2021-08-06T11:44:19.126Z</time>
      </trkpt>
      <trkpt lat="46.9427" lon="8.71064">
        <ele>1606</ele>
        <time>2021-08-06T11:44:20.126Z</time>
      </trkpt>
      <trkpt lat="46.9427" lon="8.71064">
        <ele>1606</ele>
        <time>2021-08-06T11:44:21.126Z</time>
      </trkpt>
      <trkpt lat="46.9427" lon="8.71064">
        <ele>1607</ele>
        <time>2021-08-06T11:44:22.125Z</time>
      </trkpt>
      <trkpt lat="46.94269" lon="8.71065">
        <ele>1608</ele>
        <time>2021-08-06T11:44:23.126Z</time>
      </trkpt>
      <trkpt lat="46.9427" lon="8.71065">
        <ele>1608</ele>
        <time>2021-08-06T11:44:25.228Z</time>
      </trkpt>
      <trkpt lat="46.9427" lon="8.71065">
        <ele>1609</ele>
        <time>2021-08-06T11:44:26.227Z</time>
      </trkpt>
      <trkpt lat="46.94269" lon="8.71064">
        <ele>1609</ele>
        <time>2021-08-06T11:44:27.227Z</time>
      </trkpt>
      <trkpt lat="46.94269" lon="8.71063">
        <ele>1609</ele>
        <time>2021-08-06T11:44:28.227Z</time>
      </trkpt>
      <trkpt lat="46.94269" lon="8.71063">
        <ele>1610</ele>
        <time>2021-08-06T11:44:29.227Z</time>
      </trkpt>
      <trkpt lat="46.94268" lon="8.71062">
        <ele>1610</ele>
        <time>2021-08-06T11:44:30.228Z</time>
      </trkpt>
      <trkpt lat="46.94268" lon="8.7106">
        <ele>1610</ele>
        <time>2021-08-06T11:44:31.227Z</time>
      </trkpt>
      <trkpt lat="46.94269" lon="8.71059">
        <ele>1610</ele>
        <time>2021-08-06T11:44:32.228Z</time>
      </trkpt>
      <trkpt lat="46.94269" lon="8.71058">
        <ele>1610</ele>
        <time>2021-08-06T11:44:33.227Z</time>
      </trkpt>
      <trkpt lat="46.94268" lon="8.71057">
        <ele>1610</ele>
        <time>2021-08-06T11:44:34.227Z</time>
      </trkpt>
      <trkpt lat="46.94268" lon="8.71057">
        <ele>1610</ele>
        <time>2021-08-06T11:44:35.227Z</time>
      </trkpt>
      <trkpt lat="46.94267" lon="8.71056">
        <ele>1610</ele>
        <time>2021-08-06T11:44:36.227Z</time>
      </trkpt>
      <trkpt lat="46.94267" lon="8.71056">
        <ele>1610</ele>
        <time>2021-08-06T11:44:37.227Z</time>
      </trkpt>
      <trkpt lat="46.94266" lon="8.71055">
        <ele>1610</ele>
        <time>2021-08-06T11:44:38.227Z</time>
      </trkpt>
      <trkpt lat="46.94266" lon="8.71054">
        <ele>1611</ele>
        <time>2021-08-06T11:44:39.228Z</time>
      </trkpt>
      <trkpt lat="46.94266" lon="8.71054">
        <ele>1612</ele>
        <time>2021-08-06T11:44:40.227Z</time>
      </trkpt>
      <trkpt lat="46.94266" lon="8.71053">
        <ele>1613</ele>
        <time>2021-08-06T11:44:41.227Z</time>
      </trkpt>
      <trkpt lat="46.94266" lon="8.71052">
        <ele>1613</ele>
        <time>2021-08-06T11:44:42.228Z</time>
      </trkpt>
      <trkpt lat="46.94266" lon="8.71052">
        <ele>1614</ele>
        <time>2021-08-06T11:44:43.228Z</time>
      </trkpt>
      <trkpt lat="46.94267" lon="8.71052">
        <ele>1613</ele>
        <time>2021-08-06T11:44:44.227Z</time>
      </trkpt>
      <trkpt lat="46.94267" lon="8.71052">
        <ele>1613</ele>
        <time>2021-08-06T11:44:45.228Z</time>
      </trkpt>
      <trkpt lat="46.94267" lon="8.71052">
        <ele>1613</ele>
        <time>2021-08-06T11:44:46.228Z</time>
      </trkpt>
      <trkpt lat="46.94266" lon="8.71051">
        <ele>1614</ele>
        <time>2021-08-06T11:44:47.227Z</time>
      </trkpt>
      <trkpt lat="46.94266" lon="8.71051">
        <ele>1614</ele>
        <time>2021-08-06T11:44:48.228Z</time>
      </trkpt>
      <trkpt lat="46.94265" lon="8.71051">
        <ele>1615</ele>
        <time>2021-08-06T11:44:49.228Z</time>
      </trkpt>
      <trkpt lat="46.94265" lon="8.7105">
        <ele>1615</ele>
        <time>2021-08-06T11:44:50.228Z</time>
      </trkpt>
      <trkpt lat="46.94265" lon="8.7105">
        <ele>1616</ele>
        <time>2021-08-06T11:44:51.228Z</time>
      </trkpt>
      <trkpt lat="46.94265" lon="8.7105">
        <ele>1616</ele>
        <time>2021-08-06T11:44:52.227Z</time>
      </trkpt>
      <trkpt lat="46.94264" lon="8.71048">
        <ele>1618</ele>
        <time>2021-08-06T11:44:53.229Z</time>
      </trkpt>
      <trkpt lat="46.94263" lon="8.71048">
        <ele>1618</ele>
        <time>2021-08-06T11:44:54.229Z</time>
      </trkpt>
      <trkpt lat="46.94263" lon="8.71048">
        <ele>1617</ele>
        <time>2021-08-06T11:44:55.228Z</time>
      </trkpt>
      <trkpt lat="46.94262" lon="8.71048">
        <ele>1617</ele>
        <time>2021-08-06T11:44:56.228Z</time>
      </trkpt>
      <trkpt lat="46.94261" lon="8.71047">
        <ele>1617</ele>
        <time>2021-08-06T11:44:57.228Z</time>
      </trkpt>
      <trkpt lat="46.94261" lon="8.71046">
        <ele>1617</ele>
        <time>2021-08-06T11:44:58.229Z</time>
      </trkpt>
      <trkpt lat="46.9426" lon="8.71046">
        <ele>1617</ele>
        <time>2021-08-06T11:44:59.228Z</time>
      </trkpt>
      <trkpt lat="46.9426" lon="8.71045">
        <ele>1617</ele>
        <time>2021-08-06T11:45:00.228Z</time>
      </trkpt>
      <trkpt lat="46.9426" lon="8.71044">
        <ele>1617</ele>
        <time>2021-08-06T11:45:01.228Z</time>
      </trkpt>
      <trkpt lat="46.94259" lon="8.71043">
        <ele>1617</ele>
        <time>2021-08-06T11:45:02.229Z</time>
      </trkpt>
      <trkpt lat="46.94258" lon="8.71043">
        <ele>1616</ele>
        <time>2021-08-06T11:45:03.229Z</time>
      </trkpt>
      <trkpt lat="46.94258" lon="8.71042">
        <ele>1616</ele>
        <time>2021-08-06T11:45:04.228Z</time>
      </trkpt>
      <trkpt lat="46.94258" lon="8.71042">
        <ele>1616</ele>
        <time>2021-08-06T11:45:05.228Z</time>
      </trkpt>
      <trkpt lat="46.94257" lon="8.71041">
        <ele>1615</ele>
        <time>2021-08-06T11:45:06.228Z</time>
      </trkpt>
      <trkpt lat="46.94257" lon="8.7104">
        <ele>1615</ele>
        <time>2021-08-06T11:45:07.228Z</time>
      </trkpt>
      <trkpt lat="46.94256" lon="8.7104">
        <ele>1615</ele>
        <time>2021-08-06T11:45:08.229Z</time>
      </trkpt>
      <trkpt lat="46.94255" lon="8.71039">
        <ele>1614</ele>
        <time>2021-08-06T11:45:12.379Z</time>
      </trkpt>
      <trkpt lat="46.94254" lon="8.71039">
        <ele>1613</ele>
        <time>2021-08-06T11:45:13.379Z</time>
      </trkpt>
      <trkpt lat="46.94253" lon="8.71038">
        <ele>1613</ele>
        <time>2021-08-06T11:45:14.379Z</time>
      </trkpt>
      <trkpt lat="46.94253" lon="8.71038">
        <ele>1613</ele>
        <time>2021-08-06T11:45:15.379Z</time>
      </trkpt>
      <trkpt lat="46.94252" lon="8.71038">
        <ele>1612</ele>
        <time>2021-08-06T11:45:16.379Z</time>
      </trkpt>
      <trkpt lat="46.94252" lon="8.71037">
        <ele>1612</ele>
        <time>2021-08-06T11:45:17.379Z</time>
      </trkpt>
      <trkpt lat="46.94251" lon="8.71037">
        <ele>1612</ele>
        <time>2021-08-06T11:45:18.379Z</time>
      </trkpt>
      <trkpt lat="46.94251" lon="8.71037">
        <ele>1612</ele>
        <time>2021-08-06T11:45:19.379Z</time>
      </trkpt>
      <trkpt lat="46.94251" lon="8.71037">
        <ele>1612</ele>
        <time>2021-08-06T11:45:20.379Z</time>
      </trkpt>
      <trkpt lat="46.9425" lon="8.71037">
        <ele>1612</ele>
        <time>2021-08-06T11:45:21.379Z</time>
      </trkpt>
      <trkpt lat="46.9425" lon="8.71037">
        <ele>1613</ele>
        <time>2021-08-06T11:45:22.379Z</time>
      </trkpt>
      <trkpt lat="46.9425" lon="8.71037">
        <ele>1613</ele>
        <time>2021-08-06T11:45:23.379Z</time>
      </trkpt>
      <trkpt lat="46.94249" lon="8.71038">
        <ele>1612</ele>
        <time>2021-08-06T11:45:24.380Z</time>
      </trkpt>
      <trkpt lat="46.94249" lon="8.71037">
        <ele>1612</ele>
        <time>2021-08-06T11:45:25.379Z</time>
      </trkpt>
      <trkpt lat="46.94249" lon="8.71036">
        <ele>1612</ele>
        <time>2021-08-06T11:45:26.380Z</time>
      </trkpt>
      <trkpt lat="46.94248" lon="8.71036">
        <ele>1612</ele>
        <time>2021-08-06T11:45:27.379Z</time>
      </trkpt>
      <trkpt lat="46.94248" lon="8.71035">
        <ele>1612</ele>
        <time>2021-08-06T11:45:28.379Z</time>
      </trkpt>
      <trkpt lat="46.94247" lon="8.71035">
        <ele>1613</ele>
        <time>2021-08-06T11:45:29.379Z</time>
      </trkpt>
      <trkpt lat="46.94246" lon="8.71034">
        <ele>1613</ele>
        <time>2021-08-06T11:45:30.379Z</time>
      </trkpt>
      <trkpt lat="46.94245" lon="8.71034">
        <ele>1613</ele>
        <time>2021-08-06T11:45:31.379Z</time>
      </trkpt>
      <trkpt lat="46.94245" lon="8.71034">
        <ele>1612</ele>
        <time>2021-08-06T11:45:40.393Z</time>
      </trkpt>
      <trkpt lat="46.94244" lon="8.71033">
        <ele>1612</ele>
        <time>2021-08-06T11:45:41.393Z</time>
      </trkpt>
      <trkpt lat="46.94244" lon="8.71032">
        <ele>1612</ele>
        <time>2021-08-06T11:45:42.393Z</time>
      </trkpt>
      <trkpt lat="46.94244" lon="8.71031">
        <ele>1612</ele>
        <time>2021-08-06T11:45:43.393Z</time>
      </trkpt>
      <trkpt lat="46.94244" lon="8.71031">
        <ele>1612</ele>
        <time>2021-08-06T11:45:44.393Z</time>
      </trkpt>
      <trkpt lat="46.94244" lon="8.7103">
        <ele>1612</ele>
        <time>2021-08-06T11:45:45.392Z</time>
      </trkpt>
      <trkpt lat="46.94244" lon="8.7103">
        <ele>1613</ele>
        <time>2021-08-06T11:45:46.393Z</time>
      </trkpt>
      <trkpt lat="46.94244" lon="8.71029">
        <ele>1613</ele>
        <time>2021-08-06T11:45:47.393Z</time>
      </trkpt>
      <trkpt lat="46.94243" lon="8.71029">
        <ele>1613</ele>
        <time>2021-08-06T11:45:48.393Z</time>
      </trkpt>
      <trkpt lat="46.94243" lon="8.71028">
        <ele>1612</ele>
        <time>2021-08-06T11:45:49.392Z</time>
      </trkpt>
      <trkpt lat="46.94242" lon="8.71027">
        <ele>1612</ele>
        <time>2021-08-06T11:45:50.392Z</time>
      </trkpt>
      <trkpt lat="46.94242" lon="8.71027">
        <ele>1611</ele>
        <time>2021-08-06T11:45:51.393Z</time>
      </trkpt>
      <trkpt lat="46.94242" lon="8.71026">
        <ele>1611</ele>
        <time>2021-08-06T11:45:52.392Z</time>
      </trkpt>
      <trkpt lat="46.94242" lon="8.71026">
        <ele>1610</ele>
        <time>2021-08-06T11:45:53.393Z</time>
      </trkpt>
      <trkpt lat="46.94241" lon="8.71025">
        <ele>1610</ele>
        <time>2021-08-06T11:45:54.393Z</time>
      </trkpt>
      <trkpt lat="46.94241" lon="8.71024">
        <ele>1610</ele>
        <time>2021-08-06T11:45:55.392Z</time>
      </trkpt>
      <trkpt lat="46.9424" lon="8.71024">
        <ele>1609</ele>
        <time>2021-08-06T11:45:56.393Z</time>
      </trkpt>
      <trkpt lat="46.9424" lon="8.71023">
        <ele>1609</ele>
        <time>2021-08-06T11:45:57.392Z</time>
      </trkpt>
      <trkpt lat="46.94239" lon="8.71022">
        <ele>1610</ele>
        <time>2021-08-06T11:45:58.393Z</time>
      </trkpt>
      <trkpt lat="46.94239" lon="8.71022">
        <ele>1610</ele>
        <time>2021-08-06T11:45:59.392Z</time>
      </trkpt>
      <trkpt lat="46.94238" lon="8.71021">
        <ele>1611</ele>
        <time>2021-08-06T11:46:00.393Z</time>
      </trkpt>
      <trkpt lat="46.94238" lon="8.71021">
        <ele>1611</ele>
        <time>2021-08-06T11:46:01.393Z</time>
      </trkpt>
      <trkpt lat="46.94237" lon="8.7102">
        <ele>1612</ele>
        <time>2021-08-06T11:46:02.393Z</time>
      </trkpt>
      <trkpt lat="46.94237" lon="8.71019">
        <ele>1612</ele>
        <time>2021-08-06T11:46:03.393Z</time>
      </trkpt>
      <trkpt lat="46.94236" lon="8.71018">
        <ele>1613</ele>
        <time>2021-08-06T11:46:04.393Z</time>
      </trkpt>
      <trkpt lat="46.94236" lon="8.71018">
        <ele>1614</ele>
        <time>2021-08-06T11:46:05.392Z</time>
      </trkpt>
      <trkpt lat="46.94235" lon="8.71017">
        <ele>1614</ele>
        <time>2021-08-06T11:46:06.392Z</time>
      </trkpt>
      <trkpt lat="46.94235" lon="8.71016">
        <ele>1615</ele>
        <time>2021-08-06T11:46:07.392Z</time>
      </trkpt>
      <trkpt lat="46.94235" lon="8.71016">
        <ele>1616</ele>
        <time>2021-08-06T11:46:08.393Z</time>
      </trkpt>
      <trkpt lat="46.94234" lon="8.71016">
        <ele>1616</ele>
        <time>2021-08-06T11:46:09.392Z</time>
      </trkpt>
      <trkpt lat="46.94234" lon="8.71015">
        <ele>1617</ele>
        <time>2021-08-06T11:46:10.393Z</time>
      </trkpt>
      <trkpt lat="46.94234" lon="8.71014">
        <ele>1618</ele>
        <time>2021-08-06T11:46:11.393Z</time>
      </trkpt>
      <trkpt lat="46.94233" lon="8.71014">
        <ele>1619</ele>
        <time>2021-08-06T11:46:12.393Z</time>
      </trkpt>
      <trkpt lat="46.94233" lon="8.71013">
        <ele>1619</ele>
        <time>2021-08-06T11:46:13.392Z</time>
      </trkpt>
      <trkpt lat="46.94232" lon="8.71013">
        <ele>1620</ele>
        <time>2021-08-06T11:46:14.392Z</time>
      </trkpt>
      <trkpt lat="46.94232" lon="8.71013">
        <ele>1620</ele>
        <time>2021-08-06T11:46:15.393Z</time>
      </trkpt>
      <trkpt lat="46.94232" lon="8.71013">
        <ele>1620</ele>
        <time>2021-08-06T11:46:16.392Z</time>
      </trkpt>
      <trkpt lat="46.94231" lon="8.71013">
        <ele>1620</ele>
        <time>2021-08-06T11:46:17.393Z</time>
      </trkpt>
      <trkpt lat="46.9423" lon="8.71012">
        <ele>1619</ele>
        <time>2021-08-06T11:46:18.393Z</time>
      </trkpt>
      <trkpt lat="46.9423" lon="8.71012">
        <ele>1619</ele>
        <time>2021-08-06T11:46:19.393Z</time>
      </trkpt>
      <trkpt lat="46.9423" lon="8.71011">
        <ele>1620</ele>
        <time>2021-08-06T11:46:20.393Z</time>
      </trkpt>
      <trkpt lat="46.9423" lon="8.71011">
        <ele>1620</ele>
        <time>2021-08-06T11:46:21.393Z</time>
      </trkpt>
      <trkpt lat="46.94229" lon="8.7101">
        <ele>1620</ele>
        <time>2021-08-06T11:46:22.393Z</time>
      </trkpt>
      <trkpt lat="46.94229" lon="8.7101">
        <ele>1620</ele>
        <time>2021-08-06T11:46:23.393Z</time>
      </trkpt>
      <trkpt lat="46.94229" lon="8.71009">
        <ele>1619</ele>
        <time>2021-08-06T11:46:24.393Z</time>
      </trkpt>
      <trkpt lat="46.94229" lon="8.71008">
        <ele>1619</ele>
        <time>2021-08-06T11:46:25.392Z</time>
      </trkpt>
      <trkpt lat="46.94229" lon="8.71008">
        <ele>1619</ele>
        <time>2021-08-06T11:46:26.392Z</time>
      </trkpt>
      <trkpt lat="46.94228" lon="8.71008">
        <ele>1619</ele>
        <time>2021-08-06T11:46:27.393Z</time>
      </trkpt>
      <trkpt lat="46.94228" lon="8.71007">
        <ele>1619</ele>
        <time>2021-08-06T11:46:28.392Z</time>
      </trkpt>
      <trkpt lat="46.94228" lon="8.71006">
        <ele>1619</ele>
        <time>2021-08-06T11:46:29.392Z</time>
      </trkpt>
      <trkpt lat="46.94228" lon="8.71006">
        <ele>1619</ele>
        <time>2021-08-06T11:46:30.393Z</time>
      </trkpt>
      <trkpt lat="46.94229" lon="8.71005">
        <ele>1620</ele>
        <time>2021-08-06T11:46:31.392Z</time>
      </trkpt>
      <trkpt lat="46.94229" lon="8.71005">
        <ele>1621</ele>
        <time>2021-08-06T11:46:32.393Z</time>
      </trkpt>
      <trkpt lat="46.94229" lon="8.71004">
        <ele>1621</ele>
        <time>2021-08-06T11:46:33.393Z</time>
      </trkpt>
      <trkpt lat="46.94228" lon="8.71004">
        <ele>1621</ele>
        <time>2021-08-06T11:46:34.393Z</time>
      </trkpt>
      <trkpt lat="46.94228" lon="8.71003">
        <ele>1622</ele>
        <time>2021-08-06T11:46:35.392Z</time>
      </trkpt>
      <trkpt lat="46.94228" lon="8.71003">
        <ele>1622</ele>
        <time>2021-08-06T11:46:36.393Z</time>
      </trkpt>
      <trkpt lat="46.94228" lon="8.71002">
        <ele>1622</ele>
        <time>2021-08-06T11:46:37.393Z</time>
      </trkpt>
      <trkpt lat="46.94227" lon="8.71001">
        <ele>1623</ele>
        <time>2021-08-06T11:46:38.392Z</time>
      </trkpt>
      <trkpt lat="46.94227" lon="8.71">
        <ele>1623</ele>
        <time>2021-08-06T11:46:39.393Z</time>
      </trkpt>
      <trkpt lat="46.94226" lon="8.71">
        <ele>1623</ele>
        <time>2021-08-06T11:46:40.393Z</time>
      </trkpt>
      <trkpt lat="46.94226" lon="8.70999">
        <ele>1624</ele>
        <time>2021-08-06T11:46:41.393Z</time>
      </trkpt>
      <trkpt lat="46.94226" lon="8.70998">
        <ele>1624</ele>
        <time>2021-08-06T11:46:42.393Z</time>
      </trkpt>
      <trkpt lat="46.94225" lon="8.70998">
        <ele>1624</ele>
        <time>2021-08-06T11:46:43.393Z</time>
      </trkpt>
      <trkpt lat="46.94225" lon="8.70997">
        <ele>1624</ele>
        <time>2021-08-06T11:46:44.393Z</time>
      </trkpt>
      <trkpt lat="46.94225" lon="8.70996">
        <ele>1624</ele>
        <time>2021-08-06T11:46:45.392Z</time>
      </trkpt>
      <trkpt lat="46.94225" lon="8.70995">
        <ele>1624</ele>
        <time>2021-08-06T11:46:46.393Z</time>
      </trkpt>
      <trkpt lat="46.94225" lon="8.70994">
        <ele>1624</ele>
        <time>2021-08-06T11:46:47.393Z</time>
      </trkpt>
      <trkpt lat="46.94224" lon="8.70994">
        <ele>1624</ele>
        <time>2021-08-06T11:46:48.392Z</time>
      </trkpt>
      <trkpt lat="46.94224" lon="8.70994">
        <ele>1624</ele>
        <time>2021-08-06T11:46:49.393Z</time>
      </trkpt>
      <trkpt lat="46.94223" lon="8.70993">
        <ele>1624</ele>
        <time>2021-08-06T11:46:50.392Z</time>
      </trkpt>
      <trkpt lat="46.94224" lon="8.70993">
        <ele>1625</ele>
        <time>2021-08-06T11:46:51.393Z</time>
      </trkpt>
      <trkpt lat="46.94224" lon="8.70992">
        <ele>1625</ele>
        <time>2021-08-06T11:46:52.393Z</time>
      </trkpt>
      <trkpt lat="46.94224" lon="8.70991">
        <ele>1625</ele>
        <time>2021-08-06T11:46:53.392Z</time>
      </trkpt>
      <trkpt lat="46.94224" lon="8.70991">
        <ele>1626</ele>
        <time>2021-08-06T11:46:54.392Z</time>
      </trkpt>
      <trkpt lat="46.94224" lon="8.7099">
        <ele>1626</ele>
        <time>2021-08-06T11:46:55.393Z</time>
      </trkpt>
      <trkpt lat="46.94224" lon="8.70989">
        <ele>1627</ele>
        <time>2021-08-06T11:46:56.392Z</time>
      </trkpt>
      <trkpt lat="46.94224" lon="8.70988">
        <ele>1628</ele>
        <time>2021-08-06T11:46:57.392Z</time>
      </trkpt>
      <trkpt lat="46.94224" lon="8.70987">
        <ele>1629</ele>
        <time>2021-08-06T11:46:58.392Z</time>
      </trkpt>
      <trkpt lat="46.94224" lon="8.70986">
        <ele>1630</ele>
        <time>2021-08-06T11:46:59.393Z</time>
      </trkpt>
      <trkpt lat="46.94223" lon="8.70985">
        <ele>1631</ele>
        <time>2021-08-06T11:47:00.393Z</time>
      </trkpt>
      <trkpt lat="46.94223" lon="8.70985">
        <ele>1631</ele>
        <time>2021-08-06T11:47:01.393Z</time>
      </trkpt>
      <trkpt lat="46.94223" lon="8.70984">
        <ele>1631</ele>
        <time>2021-08-06T11:47:02.393Z</time>
      </trkpt>
      <trkpt lat="46.94222" lon="8.70984">
        <ele>1631</ele>
        <time>2021-08-06T11:47:03.392Z</time>
      </trkpt>
      <trkpt lat="46.94221" lon="8.70983">
        <ele>1631</ele>
        <time>2021-08-06T11:47:04.392Z</time>
      </trkpt>
      <trkpt lat="46.94221" lon="8.70983">
        <ele>1631</ele>
        <time>2021-08-06T11:47:05.392Z</time>
      </trkpt>
      <trkpt lat="46.94221" lon="8.70982">
        <ele>1631</ele>
        <time>2021-08-06T11:47:06.393Z</time>
      </trkpt>
      <trkpt lat="46.94221" lon="8.70981">
        <ele>1631</ele>
        <time>2021-08-06T11:47:07.393Z</time>
      </trkpt>
      <trkpt lat="46.94221" lon="8.7098">
        <ele>1631</ele>
        <time>2021-08-06T11:47:08.393Z</time>
      </trkpt>
      <trkpt lat="46.94221" lon="8.70979">
        <ele>1632</ele>
        <time>2021-08-06T11:47:09.393Z</time>
      </trkpt>
      <trkpt lat="46.9422" lon="8.70978">
        <ele>1632</ele>
        <time>2021-08-06T11:47:10.392Z</time>
      </trkpt>
      <trkpt lat="46.9422" lon="8.70977">
        <ele>1633</ele>
        <time>2021-08-06T11:47:11.392Z</time>
      </trkpt>
      <trkpt lat="46.94219" lon="8.70977">
        <ele>1633</ele>
        <time>2021-08-06T11:47:12.393Z</time>
      </trkpt>
      <trkpt lat="46.94218" lon="8.70976">
        <ele>1634</ele>
        <time>2021-08-06T11:47:13.393Z</time>
      </trkpt>
      <trkpt lat="46.94218" lon="8.70974">
        <ele>1634</ele>
        <time>2021-08-06T11:47:14.393Z</time>
      </trkpt>
      <trkpt lat="46.94217" lon="8.70974">
        <ele>1634</ele>
        <time>2021-08-06T11:47:15.393Z</time>
      </trkpt>
      <trkpt lat="46.94216" lon="8.70972">
        <ele>1634</ele>
        <time>2021-08-06T11:47:16.393Z</time>
      </trkpt>
      <trkpt lat="46.94215" lon="8.70972">
        <ele>1634</ele>
        <time>2021-08-06T11:47:17.393Z</time>
      </trkpt>
      <trkpt lat="46.94214" lon="8.70971">
        <ele>1634</ele>
        <time>2021-08-06T11:47:18.392Z</time>
      </trkpt>
      <trkpt lat="46.94213" lon="8.7097">
        <ele>1634</ele>
        <time>2021-08-06T11:47:19.392Z</time>
      </trkpt>
      <trkpt lat="46.94213" lon="8.70969">
        <ele>1633</ele>
        <time>2021-08-06T11:47:20.393Z</time>
      </trkpt>
      <trkpt lat="46.94212" lon="8.70969">
        <ele>1633</ele>
        <time>2021-08-06T11:47:21.393Z</time>
      </trkpt>
      <trkpt lat="46.94211" lon="8.70967">
        <ele>1632</ele>
        <time>2021-08-06T11:47:22.393Z</time>
      </trkpt>
      <trkpt lat="46.94211" lon="8.70966">
        <ele>1632</ele>
        <time>2021-08-06T11:47:23.392Z</time>
      </trkpt>
      <trkpt lat="46.94211" lon="8.70965">
        <ele>1632</ele>
        <time>2021-08-06T11:47:24.393Z</time>
      </trkpt>
      <trkpt lat="46.9421" lon="8.70964">
        <ele>1632</ele>
        <time>2021-08-06T11:47:25.393Z</time>
      </trkpt>
      <trkpt lat="46.9421" lon="8.70963">
        <ele>1632</ele>
        <time>2021-08-06T11:47:26.393Z</time>
      </trkpt>
      <trkpt lat="46.94209" lon="8.70962">
        <ele>1631</ele>
        <time>2021-08-06T11:47:27.393Z</time>
      </trkpt>
      <trkpt lat="46.94208" lon="8.7096">
        <ele>1630</ele>
        <time>2021-08-06T11:47:28.393Z</time>
      </trkpt>
      <trkpt lat="46.94208" lon="8.7096">
        <ele>1629</ele>
        <time>2021-08-06T11:47:29.393Z</time>
      </trkpt>
      <trkpt lat="46.94208" lon="8.70959">
        <ele>1628</ele>
        <time>2021-08-06T11:47:30.392Z</time>
      </trkpt>
      <trkpt lat="46.94207" lon="8.70959">
        <ele>1627</ele>
        <time>2021-08-06T11:47:31.393Z</time>
      </trkpt>
      <trkpt lat="46.94207" lon="8.70958">
        <ele>1627</ele>
        <time>2021-08-06T11:47:32.392Z</time>
      </trkpt>
      <trkpt lat="46.94207" lon="8.70957">
        <ele>1627</ele>
        <time>2021-08-06T11:47:33.393Z</time>
      </trkpt>
      <trkpt lat="46.94207" lon="8.70957">
        <ele>1627</ele>
        <time>2021-08-06T11:47:34.393Z</time>
      </trkpt>
      <trkpt lat="46.94207" lon="8.70956">
        <ele>1627</ele>
        <time>2021-08-06T11:47:35.393Z</time>
      </trkpt>
      <trkpt lat="46.94207" lon="8.70955">
        <ele>1627</ele>
        <time>2021-08-06T11:47:36.393Z</time>
      </trkpt>
      <trkpt lat="46.94207" lon="8.70954">
        <ele>1627</ele>
        <time>2021-08-06T11:47:37.392Z</time>
      </trkpt>
      <trkpt lat="46.94207" lon="8.70953">
        <ele>1627</ele>
        <time>2021-08-06T11:47:38.393Z</time>
      </trkpt>
      <trkpt lat="46.94207" lon="8.70952">
        <ele>1626</ele>
        <time>2021-08-06T11:47:39.393Z</time>
      </trkpt>
      <trkpt lat="46.94206" lon="8.70951">
        <ele>1626</ele>
        <time>2021-08-06T11:47:40.393Z</time>
      </trkpt>
      <trkpt lat="46.94206" lon="8.70951">
        <ele>1626</ele>
        <time>2021-08-06T11:47:41.393Z</time>
      </trkpt>
      <trkpt lat="46.94205" lon="8.7095">
        <ele>1626</ele>
        <time>2021-08-06T11:47:42.392Z</time>
      </trkpt>
      <trkpt lat="46.94204" lon="8.70949">
        <ele>1626</ele>
        <time>2021-08-06T11:47:43.393Z</time>
      </trkpt>
      <trkpt lat="46.94203" lon="8.70948">
        <ele>1627</ele>
        <time>2021-08-06T11:47:44.393Z</time>
      </trkpt>
      <trkpt lat="46.94203" lon="8.70947">
        <ele>1627</ele>
        <time>2021-08-06T11:47:45.392Z</time>
      </trkpt>
      <trkpt lat="46.94203" lon="8.70946">
        <ele>1627</ele>
        <time>2021-08-06T11:47:46.393Z</time>
      </trkpt>
      <trkpt lat="46.94202" lon="8.70944">
        <ele>1628</ele>
        <time>2021-08-06T11:47:47.392Z</time>
      </trkpt>
      <trkpt lat="46.94202" lon="8.70943">
        <ele>1628</ele>
        <time>2021-08-06T11:47:48.393Z</time>
      </trkpt>
      <trkpt lat="46.94201" lon="8.70942">
        <ele>1628</ele>
        <time>2021-08-06T11:47:49.393Z</time>
      </trkpt>
      <trkpt lat="46.94201" lon="8.70939">
        <ele>1628</ele>
        <time>2021-08-06T11:47:50.392Z</time>
      </trkpt>
      <trkpt lat="46.942" lon="8.70937">
        <ele>1629</ele>
        <time>2021-08-06T11:47:51.393Z</time>
      </trkpt>
      <trkpt lat="46.94199" lon="8.70937">
        <ele>1629</ele>
        <time>2021-08-06T11:47:52.392Z</time>
      </trkpt>
      <trkpt lat="46.94199" lon="8.70936">
        <ele>1629</ele>
        <time>2021-08-06T11:47:53.393Z</time>
      </trkpt>
      <trkpt lat="46.94199" lon="8.70937">
        <ele>1630</ele>
        <time>2021-08-06T11:47:54.393Z</time>
      </trkpt>
      <trkpt lat="46.94199" lon="8.70936">
        <ele>1630</ele>
        <time>2021-08-06T11:47:55.393Z</time>
      </trkpt>
      <trkpt lat="46.94198" lon="8.70935">
        <ele>1630</ele>
        <time>2021-08-06T11:47:56.392Z</time>
      </trkpt>
      <trkpt lat="46.94198" lon="8.70934">
        <ele>1630</ele>
        <time>2021-08-06T11:47:57.393Z</time>
      </trkpt>
      <trkpt lat="46.94197" lon="8.70933">
        <ele>1631</ele>
        <time>2021-08-06T11:47:58.393Z</time>
      </trkpt>
      <trkpt lat="46.94196" lon="8.70932">
        <ele>1631</ele>
        <time>2021-08-06T11:47:59.392Z</time>
      </trkpt>
      <trkpt lat="46.94196" lon="8.70931">
        <ele>1632</ele>
        <time>2021-08-06T11:48:00.393Z</time>
      </trkpt>
      <trkpt lat="46.94195" lon="8.7093">
        <ele>1632</ele>
        <time>2021-08-06T11:48:01.393Z</time>
      </trkpt>
      <trkpt lat="46.94195" lon="8.70929">
        <ele>1633</ele>
        <time>2021-08-06T11:48:02.393Z</time>
      </trkpt>
      <trkpt lat="46.94195" lon="8.70928">
        <ele>1633</ele>
        <time>2021-08-06T11:48:03.392Z</time>
      </trkpt>
      <trkpt lat="46.94194" lon="8.70927">
        <ele>1633</ele>
        <time>2021-08-06T11:48:04.393Z</time>
      </trkpt>
      <trkpt lat="46.94193" lon="8.70926">
        <ele>1633</ele>
        <time>2021-08-06T11:48:05.393Z</time>
      </trkpt>
      <trkpt lat="46.94192" lon="8.70925">
        <ele>1633</ele>
        <time>2021-08-06T11:48:06.393Z</time>
      </trkpt>
      <trkpt lat="46.94191" lon="8.70923">
        <ele>1633</ele>
        <time>2021-08-06T11:48:07.393Z</time>
      </trkpt>
      <trkpt lat="46.94191" lon="8.70922">
        <ele>1634</ele>
        <time>2021-08-06T11:48:08.392Z</time>
      </trkpt>
      <trkpt lat="46.9419" lon="8.70921">
        <ele>1633</ele>
        <time>2021-08-06T11:48:09.392Z</time>
      </trkpt>
      <trkpt lat="46.9419" lon="8.70921">
        <ele>1633</ele>
        <time>2021-08-06T11:48:10.393Z</time>
      </trkpt>
      <trkpt lat="46.94189" lon="8.7092">
        <ele>1634</ele>
        <time>2021-08-06T11:48:11.393Z</time>
      </trkpt>
      <trkpt lat="46.94189" lon="8.70919">
        <ele>1633</ele>
        <time>2021-08-06T11:48:12.393Z</time>
      </trkpt>
      <trkpt lat="46.94189" lon="8.70917">
        <ele>1633</ele>
        <time>2021-08-06T11:48:13.392Z</time>
      </trkpt>
      <trkpt lat="46.94189" lon="8.70916">
        <ele>1632</ele>
        <time>2021-08-06T11:48:14.393Z</time>
      </trkpt>
      <trkpt lat="46.94188" lon="8.70915">
        <ele>1632</ele>
        <time>2021-08-06T11:48:15.392Z</time>
      </trkpt>
      <trkpt lat="46.94188" lon="8.70914">
        <ele>1632</ele>
        <time>2021-08-06T11:48:16.392Z</time>
      </trkpt>
      <trkpt lat="46.94188" lon="8.70913">
        <ele>1633</ele>
        <time>2021-08-06T11:48:17.392Z</time>
      </trkpt>
      <trkpt lat="46.94188" lon="8.70911">
        <ele>1633</ele>
        <time>2021-08-06T11:48:18.393Z</time>
      </trkpt>
      <trkpt lat="46.94187" lon="8.70911">
        <ele>1633</ele>
        <time>2021-08-06T11:48:19.393Z</time>
      </trkpt>
      <trkpt lat="46.94186" lon="8.70911">
        <ele>1634</ele>
        <time>2021-08-06T11:48:20.392Z</time>
      </trkpt>
      <trkpt lat="46.94185" lon="8.7091">
        <ele>1634</ele>
        <time>2021-08-06T11:48:21.393Z</time>
      </trkpt>
      <trkpt lat="46.94184" lon="8.7091">
        <ele>1633</ele>
        <time>2021-08-06T11:48:22.393Z</time>
      </trkpt>
      <trkpt lat="46.94184" lon="8.70908">
        <ele>1633</ele>
        <time>2021-08-06T11:48:23.393Z</time>
      </trkpt>
      <trkpt lat="46.94184" lon="8.70907">
        <ele>1634</ele>
        <time>2021-08-06T11:48:24.393Z</time>
      </trkpt>
      <trkpt lat="46.94183" lon="8.70906">
        <ele>1634</ele>
        <time>2021-08-06T11:48:25.392Z</time>
      </trkpt>
      <trkpt lat="46.94183" lon="8.70905">
        <ele>1634</ele>
        <time>2021-08-06T11:48:26.392Z</time>
      </trkpt>
      <trkpt lat="46.94183" lon="8.70904">
        <ele>1634</ele>
        <time>2021-08-06T11:48:27.392Z</time>
      </trkpt>
      <trkpt lat="46.94182" lon="8.70903">
        <ele>1634</ele>
        <time>2021-08-06T11:48:28.393Z</time>
      </trkpt>
      <trkpt lat="46.94181" lon="8.70902">
        <ele>1634</ele>
        <time>2021-08-06T11:48:29.393Z</time>
      </trkpt>
      <trkpt lat="46.94181" lon="8.70901">
        <ele>1635</ele>
        <time>2021-08-06T11:48:30.392Z</time>
      </trkpt>
      <trkpt lat="46.9418" lon="8.70901">
        <ele>1635</ele>
        <time>2021-08-06T11:48:31.393Z</time>
      </trkpt>
      <trkpt lat="46.9418" lon="8.709">
        <ele>1635</ele>
        <time>2021-08-06T11:48:32.393Z</time>
      </trkpt>
      <trkpt lat="46.94179" lon="8.709">
        <ele>1635</ele>
        <time>2021-08-06T11:48:33.393Z</time>
      </trkpt>
      <trkpt lat="46.94178" lon="8.709">
        <ele>1635</ele>
        <time>2021-08-06T11:48:34.393Z</time>
      </trkpt>
      <trkpt lat="46.94178" lon="8.709">
        <ele>1635</ele>
        <time>2021-08-06T11:48:35.393Z</time>
      </trkpt>
      <trkpt lat="46.94177" lon="8.70899">
        <ele>1635</ele>
        <time>2021-08-06T11:48:36.392Z</time>
      </trkpt>
      <trkpt lat="46.94176" lon="8.70899">
        <ele>1634</ele>
        <time>2021-08-06T11:48:37.392Z</time>
      </trkpt>
      <trkpt lat="46.94175" lon="8.70898">
        <ele>1634</ele>
        <time>2021-08-06T11:48:38.392Z</time>
      </trkpt>
      <trkpt lat="46.94174" lon="8.70898">
        <ele>1634</ele>
        <time>2021-08-06T11:48:39.393Z</time>
      </trkpt>
      <trkpt lat="46.94174" lon="8.70897">
        <ele>1634</ele>
        <time>2021-08-06T11:48:40.393Z</time>
      </trkpt>
      <trkpt lat="46.94173" lon="8.70897">
        <ele>1635</ele>
        <time>2021-08-06T11:48:41.393Z</time>
      </trkpt>
      <trkpt lat="46.94173" lon="8.70897">
        <ele>1635</ele>
        <time>2021-08-06T11:48:42.393Z</time>
      </trkpt>
      <trkpt lat="46.94172" lon="8.70896">
        <ele>1635</ele>
        <time>2021-08-06T11:48:43.393Z</time>
      </trkpt>
      <trkpt lat="46.94171" lon="8.70896">
        <ele>1635</ele>
        <time>2021-08-06T11:48:44.392Z</time>
      </trkpt>
      <trkpt lat="46.94171" lon="8.70895">
        <ele>1635</ele>
        <time>2021-08-06T11:48:45.393Z</time>
      </trkpt>
      <trkpt lat="46.9417" lon="8.70895">
        <ele>1635</ele>
        <time>2021-08-06T11:48:46.393Z</time>
      </trkpt>
      <trkpt lat="46.94169" lon="8.70895">
        <ele>1635</ele>
        <time>2021-08-06T11:48:47.393Z</time>
      </trkpt>
      <trkpt lat="46.94169" lon="8.70894">
        <ele>1635</ele>
        <time>2021-08-06T11:48:48.393Z</time>
      </trkpt>
      <trkpt lat="46.94169" lon="8.70894">
        <ele>1635</ele>
        <time>2021-08-06T11:48:49.393Z</time>
      </trkpt>
      <trkpt lat="46.94168" lon="8.70895">
        <ele>1634</ele>
        <time>2021-08-06T11:48:50.393Z</time>
      </trkpt>
      <trkpt lat="46.94168" lon="8.70895">
        <ele>1634</ele>
        <time>2021-08-06T11:48:51.393Z</time>
      </trkpt>
      <trkpt lat="46.94167" lon="8.70895">
        <ele>1633</ele>
        <time>2021-08-06T11:48:52.393Z</time>
      </trkpt>
      <trkpt lat="46.94167" lon="8.70895">
        <ele>1633</ele>
        <time>2021-08-06T11:48:53.393Z</time>
      </trkpt>
      <trkpt lat="46.94166" lon="8.70895">
        <ele>1633</ele>
        <time>2021-08-06T11:48:54.392Z</time>
      </trkpt>
      <trkpt lat="46.94165" lon="8.70895">
        <ele>1633</ele>
        <time>2021-08-06T11:48:55.393Z</time>
      </trkpt>
      <trkpt lat="46.94164" lon="8.70895">
        <ele>1633</ele>
        <time>2021-08-06T11:48:56.392Z</time>
      </trkpt>
      <trkpt lat="46.94163" lon="8.70896">
        <ele>1632</ele>
        <time>2021-08-06T11:48:57.393Z</time>
      </trkpt>
      <trkpt lat="46.94162" lon="8.70897">
        <ele>1632</ele>
        <time>2021-08-06T11:48:58.393Z</time>
      </trkpt>
      <trkpt lat="46.94161" lon="8.70897">
        <ele>1632</ele>
        <time>2021-08-06T11:48:59.393Z</time>
      </trkpt>
      <trkpt lat="46.9416" lon="8.70897">
        <ele>1632</ele>
        <time>2021-08-06T11:49:00.393Z</time>
      </trkpt>
      <trkpt lat="46.9416" lon="8.70897">
        <ele>1632</ele>
        <time>2021-08-06T11:49:01.393Z</time>
      </trkpt>
      <trkpt lat="46.94159" lon="8.70897">
        <ele>1632</ele>
        <time>2021-08-06T11:49:02.393Z</time>
      </trkpt>
      <trkpt lat="46.94158" lon="8.70897">
        <ele>1632</ele>
        <time>2021-08-06T11:49:03.393Z</time>
      </trkpt>
      <trkpt lat="46.94158" lon="8.70898">
        <ele>1632</ele>
        <time>2021-08-06T11:49:04.393Z</time>
      </trkpt>
      <trkpt lat="46.94157" lon="8.70898">
        <ele>1632</ele>
        <time>2021-08-06T11:49:05.393Z</time>
      </trkpt>
      <trkpt lat="46.94157" lon="8.70898">
        <ele>1631</ele>
        <time>2021-08-06T11:49:06.392Z</time>
      </trkpt>
      <trkpt lat="46.94156" lon="8.70899">
        <ele>1631</ele>
        <time>2021-08-06T11:49:07.393Z</time>
      </trkpt>
      <trkpt lat="46.94156" lon="8.70899">
        <ele>1631</ele>
        <time>2021-08-06T11:49:08.393Z</time>
      </trkpt>
      <trkpt lat="46.94155" lon="8.70899">
        <ele>1631</ele>
        <time>2021-08-06T11:49:09.392Z</time>
      </trkpt>
      <trkpt lat="46.94154" lon="8.709">
        <ele>1631</ele>
        <time>2021-08-06T11:49:10.392Z</time>
      </trkpt>
      <trkpt lat="46.94154" lon="8.709">
        <ele>1631</ele>
        <time>2021-08-06T11:49:11.393Z</time>
      </trkpt>
      <trkpt lat="46.94153" lon="8.709">
        <ele>1631</ele>
        <time>2021-08-06T11:49:12.392Z</time>
      </trkpt>
      <trkpt lat="46.94153" lon="8.709">
        <ele>1631</ele>
        <time>2021-08-06T11:49:13.393Z</time>
      </trkpt>
      <trkpt lat="46.94152" lon="8.70899">
        <ele>1631</ele>
        <time>2021-08-06T11:49:14.393Z</time>
      </trkpt>
      <trkpt lat="46.94151" lon="8.70899">
        <ele>1632</ele>
        <time>2021-08-06T11:49:15.393Z</time>
      </trkpt>
      <trkpt lat="46.94151" lon="8.709">
        <ele>1632</ele>
        <time>2021-08-06T11:49:16.393Z</time>
      </trkpt>
      <trkpt lat="46.9415" lon="8.709">
        <ele>1632</ele>
        <time>2021-08-06T11:49:17.393Z</time>
      </trkpt>
      <trkpt lat="46.94149" lon="8.709">
        <ele>1632</ele>
        <time>2021-08-06T11:49:18.393Z</time>
      </trkpt>
      <trkpt lat="46.94149" lon="8.709">
        <ele>1633</ele>
        <time>2021-08-06T11:49:19.392Z</time>
      </trkpt>
      <trkpt lat="46.94148" lon="8.709">
        <ele>1633</ele>
        <time>2021-08-06T11:49:20.393Z</time>
      </trkpt>
      <trkpt lat="46.94148" lon="8.709">
        <ele>1633</ele>
        <time>2021-08-06T11:49:21.392Z</time>
      </trkpt>
      <trkpt lat="46.94147" lon="8.709">
        <ele>1634</ele>
        <time>2021-08-06T11:49:22.392Z</time>
      </trkpt>
      <trkpt lat="46.94146" lon="8.709">
        <ele>1634</ele>
        <time>2021-08-06T11:49:23.393Z</time>
      </trkpt>
      <trkpt lat="46.94146" lon="8.709">
        <ele>1635</ele>
        <time>2021-08-06T11:49:24.393Z</time>
      </trkpt>
      <trkpt lat="46.94145" lon="8.70899">
        <ele>1635</ele>
        <time>2021-08-06T11:49:25.392Z</time>
      </trkpt>
      <trkpt lat="46.94144" lon="8.70899">
        <ele>1635</ele>
        <time>2021-08-06T11:49:26.392Z</time>
      </trkpt>
      <trkpt lat="46.94144" lon="8.70899">
        <ele>1634</ele>
        <time>2021-08-06T11:49:27.393Z</time>
      </trkpt>
      <trkpt lat="46.94143" lon="8.70899">
        <ele>1634</ele>
        <time>2021-08-06T11:49:28.393Z</time>
      </trkpt>
      <trkpt lat="46.94142" lon="8.70898">
        <ele>1634</ele>
        <time>2021-08-06T11:49:29.393Z</time>
      </trkpt>
      <trkpt lat="46.94141" lon="8.70898">
        <ele>1634</ele>
        <time>2021-08-06T11:49:30.393Z</time>
      </trkpt>
      <trkpt lat="46.94141" lon="8.70898">
        <ele>1634</ele>
        <time>2021-08-06T11:49:31.393Z</time>
      </trkpt>
      <trkpt lat="46.9414" lon="8.70897">
        <ele>1635</ele>
        <time>2021-08-06T11:49:32.393Z</time>
      </trkpt>
      <trkpt lat="46.94139" lon="8.70897">
        <ele>1635</ele>
        <time>2021-08-06T11:49:33.393Z</time>
      </trkpt>
      <trkpt lat="46.94139" lon="8.70897">
        <ele>1635</ele>
        <time>2021-08-06T11:49:34.393Z</time>
      </trkpt>
      <trkpt lat="46.94138" lon="8.70897">
        <ele>1635</ele>
        <time>2021-08-06T11:49:35.393Z</time>
      </trkpt>
      <trkpt lat="46.94137" lon="8.70897">
        <ele>1635</ele>
        <time>2021-08-06T11:49:36.393Z</time>
      </trkpt>
      <trkpt lat="46.94136" lon="8.70896">
        <ele>1635</ele>
        <time>2021-08-06T11:49:37.393Z</time>
      </trkpt>
      <trkpt lat="46.94135" lon="8.70896">
        <ele>1635</ele>
        <time>2021-08-06T11:49:38.393Z</time>
      </trkpt>
      <trkpt lat="46.94135" lon="8.70895">
        <ele>1636</ele>
        <time>2021-08-06T11:49:39.393Z</time>
      </trkpt>
      <trkpt lat="46.94134" lon="8.70895">
        <ele>1636</ele>
        <time>2021-08-06T11:49:40.392Z</time>
      </trkpt>
      <trkpt lat="46.94133" lon="8.70895">
        <ele>1636</ele>
        <time>2021-08-06T11:49:41.392Z</time>
      </trkpt>
      <trkpt lat="46.94133" lon="8.70895">
        <ele>1636</ele>
        <time>2021-08-06T11:49:42.392Z</time>
      </trkpt>
      <trkpt lat="46.94133" lon="8.70895">
        <ele>1637</ele>
        <time>2021-08-06T11:49:43.392Z</time>
      </trkpt>
      <trkpt lat="46.94132" lon="8.70894">
        <ele>1637</ele>
        <time>2021-08-06T11:49:44.392Z</time>
      </trkpt>
      <trkpt lat="46.94132" lon="8.70893">
        <ele>1638</ele>
        <time>2021-08-06T11:49:45.392Z</time>
      </trkpt>
      <trkpt lat="46.94132" lon="8.70893">
        <ele>1638</ele>
        <time>2021-08-06T11:49:46.392Z</time>
      </trkpt>
      <trkpt lat="46.94131" lon="8.70892">
        <ele>1638</ele>
        <time>2021-08-06T11:49:47.392Z</time>
      </trkpt>
      <trkpt lat="46.94131" lon="8.7089">
        <ele>1639</ele>
        <time>2021-08-06T11:49:48.392Z</time>
      </trkpt>
      <trkpt lat="46.94131" lon="8.7089">
        <ele>1639</ele>
        <time>2021-08-06T11:49:49.392Z</time>
      </trkpt>
      <trkpt lat="46.9413" lon="8.70889">
        <ele>1639</ele>
        <time>2021-08-06T11:49:50.392Z</time>
      </trkpt>
      <trkpt lat="46.9413" lon="8.70889">
        <ele>1640</ele>
        <time>2021-08-06T11:49:51.392Z</time>
      </trkpt>
      <trkpt lat="46.9413" lon="8.70888">
        <ele>1640</ele>
        <time>2021-08-06T11:49:52.392Z</time>
      </trkpt>
      <trkpt lat="46.94129" lon="8.70888">
        <ele>1641</ele>
        <time>2021-08-06T11:49:53.392Z</time>
      </trkpt>
      <trkpt lat="46.94129" lon="8.70887">
        <ele>1641</ele>
        <time>2021-08-06T11:49:54.392Z</time>
      </trkpt>
      <trkpt lat="46.94129" lon="8.70886">
        <ele>1641</ele>
        <time>2021-08-06T11:49:55.392Z</time>
      </trkpt>
      <trkpt lat="46.94129" lon="8.70885">
        <ele>1642</ele>
        <time>2021-08-06T11:49:56.392Z</time>
      </trkpt>
      <trkpt lat="46.94128" lon="8.70884">
        <ele>1642</ele>
        <time>2021-08-06T11:49:57.392Z</time>
      </trkpt>
      <trkpt lat="46.94128" lon="8.70882">
        <ele>1642</ele>
        <time>2021-08-06T11:49:58.392Z</time>
      </trkpt>
      <trkpt lat="46.94128" lon="8.70882">
        <ele>1643</ele>
        <time>2021-08-06T11:49:59.392Z</time>
      </trkpt>
      <trkpt lat="46.94128" lon="8.70881">
        <ele>1643</ele>
        <time>2021-08-06T11:50:00.392Z</time>
      </trkpt>
      <trkpt lat="46.94128" lon="8.70881">
        <ele>1643</ele>
        <time>2021-08-06T11:50:01.393Z</time>
      </trkpt>
      <trkpt lat="46.94127" lon="8.7088">
        <ele>1643</ele>
        <time>2021-08-06T11:50:02.392Z</time>
      </trkpt>
      <trkpt lat="46.94127" lon="8.70879">
        <ele>1644</ele>
        <time>2021-08-06T11:50:03.392Z</time>
      </trkpt>
      <trkpt lat="46.94126" lon="8.70879">
        <ele>1644</ele>
        <time>2021-08-06T11:50:04.392Z</time>
      </trkpt>
      <trkpt lat="46.94126" lon="8.70878">
        <ele>1644</ele>
        <time>2021-08-06T11:50:05.392Z</time>
      </trkpt>
      <trkpt lat="46.94125" lon="8.70877">
        <ele>1645</ele>
        <time>2021-08-06T11:50:06.393Z</time>
      </trkpt>
      <trkpt lat="46.94125" lon="8.70876">
        <ele>1645</ele>
        <time>2021-08-06T11:50:07.392Z</time>
      </trkpt>
      <trkpt lat="46.94125" lon="8.70875">
        <ele>1646</ele>
        <time>2021-08-06T11:50:08.392Z</time>
      </trkpt>
      <trkpt lat="46.94124" lon="8.70874">
        <ele>1646</ele>
        <time>2021-08-06T11:50:09.392Z</time>
      </trkpt>
      <trkpt lat="46.94123" lon="8.70873">
        <ele>1646</ele>
        <time>2021-08-06T11:50:10.392Z</time>
      </trkpt>
      <trkpt lat="46.94123" lon="8.70872">
        <ele>1646</ele>
        <time>2021-08-06T11:50:11.392Z</time>
      </trkpt>
      <trkpt lat="46.94122" lon="8.70872">
        <ele>1646</ele>
        <time>2021-08-06T11:50:12.392Z</time>
      </trkpt>
      <trkpt lat="46.94122" lon="8.70872">
        <ele>1646</ele>
        <time>2021-08-06T11:50:13.392Z</time>
      </trkpt>
      <trkpt lat="46.94121" lon="8.70872">
        <ele>1646</ele>
        <time>2021-08-06T11:50:14.393Z</time>
      </trkpt>
      <trkpt lat="46.94121" lon="8.7087">
        <ele>1646</ele>
        <time>2021-08-06T11:50:15.392Z</time>
      </trkpt>
      <trkpt lat="46.94121" lon="8.70869">
        <ele>1646</ele>
        <time>2021-08-06T11:50:16.392Z</time>
      </trkpt>
      <trkpt lat="46.94121" lon="8.70869">
        <ele>1647</ele>
        <time>2021-08-06T11:50:17.392Z</time>
      </trkpt>
      <trkpt lat="46.94121" lon="8.70868">
        <ele>1647</ele>
        <time>2021-08-06T11:50:18.392Z</time>
      </trkpt>
      <trkpt lat="46.94121" lon="8.70868">
        <ele>1648</ele>
        <time>2021-08-06T11:50:19.393Z</time>
      </trkpt>
      <trkpt lat="46.94121" lon="8.70867">
        <ele>1648</ele>
        <time>2021-08-06T11:50:20.392Z</time>
      </trkpt>
      <trkpt lat="46.94121" lon="8.70867">
        <ele>1649</ele>
        <time>2021-08-06T11:50:21.392Z</time>
      </trkpt>
      <trkpt lat="46.9412" lon="8.70866">
        <ele>1649</ele>
        <time>2021-08-06T11:50:22.392Z</time>
      </trkpt>
      <trkpt lat="46.9412" lon="8.70865">
        <ele>1649</ele>
        <time>2021-08-06T11:50:23.392Z</time>
      </trkpt>
      <trkpt lat="46.94119" lon="8.70865">
        <ele>1650</ele>
        <time>2021-08-06T11:50:24.392Z</time>
      </trkpt>
      <trkpt lat="46.94119" lon="8.70864">
        <ele>1650</ele>
        <time>2021-08-06T11:50:25.392Z</time>
      </trkpt>
      <trkpt lat="46.94119" lon="8.70863">
        <ele>1650</ele>
        <time>2021-08-06T11:50:26.393Z</time>
      </trkpt>
      <trkpt lat="46.94118" lon="8.70863">
        <ele>1650</ele>
        <time>2021-08-06T11:50:27.392Z</time>
      </trkpt>
      <trkpt lat="46.94117" lon="8.70863">
        <ele>1650</ele>
        <time>2021-08-06T11:50:28.392Z</time>
      </trkpt>
      <trkpt lat="46.94117" lon="8.70862">
        <ele>1650</ele>
        <time>2021-08-06T11:50:29.392Z</time>
      </trkpt>
      <trkpt lat="46.94117" lon="8.70861">
        <ele>1650</ele>
        <time>2021-08-06T11:50:30.392Z</time>
      </trkpt>
      <trkpt lat="46.94117" lon="8.7086">
        <ele>1649</ele>
        <time>2021-08-06T11:50:31.392Z</time>
      </trkpt>
      <trkpt lat="46.94117" lon="8.70859">
        <ele>1649</ele>
        <time>2021-08-06T11:50:32.392Z</time>
      </trkpt>
      <trkpt lat="46.94117" lon="8.70858">
        <ele>1649</ele>
        <time>2021-08-06T11:50:33.392Z</time>
      </trkpt>
      <trkpt lat="46.94116" lon="8.70858">
        <ele>1649</ele>
        <time>2021-08-06T11:50:34.392Z</time>
      </trkpt>
      <trkpt lat="46.94115" lon="8.70857">
        <ele>1649</ele>
        <time>2021-08-06T11:50:35.392Z</time>
      </trkpt>
      <trkpt lat="46.94115" lon="8.70857">
        <ele>1649</ele>
        <time>2021-08-06T11:50:36.392Z</time>
      </trkpt>
      <trkpt lat="46.94115" lon="8.70856">
        <ele>1648</ele>
        <time>2021-08-06T11:50:37.392Z</time>
      </trkpt>
      <trkpt lat="46.94116" lon="8.70855">
        <ele>1648</ele>
        <time>2021-08-06T11:50:38.392Z</time>
      </trkpt>
      <trkpt lat="46.94116" lon="8.70854">
        <ele>1647</ele>
        <time>2021-08-06T11:50:39.392Z</time>
      </trkpt>
      <trkpt lat="46.94117" lon="8.70853">
        <ele>1647</ele>
        <time>2021-08-06T11:50:40.393Z</time>
      </trkpt>
      <trkpt lat="46.94117" lon="8.70852">
        <ele>1646</ele>
        <time>2021-08-06T11:50:41.392Z</time>
      </trkpt>
      <trkpt lat="46.94117" lon="8.70851">
        <ele>1646</ele>
        <time>2021-08-06T11:50:42.393Z</time>
      </trkpt>
      <trkpt lat="46.94118" lon="8.7085">
        <ele>1646</ele>
        <time>2021-08-06T11:50:43.393Z</time>
      </trkpt>
      <trkpt lat="46.94118" lon="8.70849">
        <ele>1646</ele>
        <time>2021-08-06T11:50:44.392Z</time>
      </trkpt>
      <trkpt lat="46.94118" lon="8.70848">
        <ele>1646</ele>
        <time>2021-08-06T11:50:45.393Z</time>
      </trkpt>
      <trkpt lat="46.94118" lon="8.70847">
        <ele>1646</ele>
        <time>2021-08-06T11:50:46.392Z</time>
      </trkpt>
      <trkpt lat="46.94119" lon="8.70847">
        <ele>1646</ele>
        <time>2021-08-06T11:50:47.393Z</time>
      </trkpt>
      <trkpt lat="46.94119" lon="8.70846">
        <ele>1646</ele>
        <time>2021-08-06T11:50:48.393Z</time>
      </trkpt>
      <trkpt lat="46.9412" lon="8.70845">
        <ele>1646</ele>
        <time>2021-08-06T11:50:49.393Z</time>
      </trkpt>
      <trkpt lat="46.9412" lon="8.70845">
        <ele>1646</ele>
        <time>2021-08-06T11:50:50.393Z</time>
      </trkpt>
      <trkpt lat="46.9412" lon="8.70844">
        <ele>1646</ele>
        <time>2021-08-06T11:50:51.393Z</time>
      </trkpt>
      <trkpt lat="46.94121" lon="8.70843">
        <ele>1646</ele>
        <time>2021-08-06T11:50:52.393Z</time>
      </trkpt>
      <trkpt lat="46.94121" lon="8.70842">
        <ele>1646</ele>
        <time>2021-08-06T11:50:53.393Z</time>
      </trkpt>
      <trkpt lat="46.94122" lon="8.70841">
        <ele>1647</ele>
        <time>2021-08-06T11:50:54.393Z</time>
      </trkpt>
      <trkpt lat="46.94122" lon="8.7084">
        <ele>1648</ele>
        <time>2021-08-06T11:50:55.393Z</time>
      </trkpt>
      <trkpt lat="46.94122" lon="8.7084">
        <ele>1648</ele>
        <time>2021-08-06T11:50:56.393Z</time>
      </trkpt>
      <trkpt lat="46.94123" lon="8.70839">
        <ele>1648</ele>
        <time>2021-08-06T11:50:57.392Z</time>
      </trkpt>
      <trkpt lat="46.94122" lon="8.70838">
        <ele>1648</ele>
        <time>2021-08-06T11:50:58.393Z</time>
      </trkpt>
      <trkpt lat="46.94122" lon="8.70837">
        <ele>1648</ele>
        <time>2021-08-06T11:50:59.392Z</time>
      </trkpt>
      <trkpt lat="46.94121" lon="8.70836">
        <ele>1649</ele>
        <time>2021-08-06T11:51:00.393Z</time>
      </trkpt>
      <trkpt lat="46.94121" lon="8.70835">
        <ele>1649</ele>
        <time>2021-08-06T11:51:01.393Z</time>
      </trkpt>
      <trkpt lat="46.9412" lon="8.70835">
        <ele>1649</ele>
        <time>2021-08-06T11:51:02.393Z</time>
      </trkpt>
      <trkpt lat="46.94119" lon="8.70834">
        <ele>1649</ele>
        <time>2021-08-06T11:51:03.392Z</time>
      </trkpt>
      <trkpt lat="46.94118" lon="8.70834">
        <ele>1649</ele>
        <time>2021-08-06T11:51:04.393Z</time>
      </trkpt>
      <trkpt lat="46.94117" lon="8.70835">
        <ele>1649</ele>
        <time>2021-08-06T11:51:05.393Z</time>
      </trkpt>
      <trkpt lat="46.94117" lon="8.70835">
        <ele>1650</ele>
        <time>2021-08-06T11:51:06.393Z</time>
      </trkpt>
      <trkpt lat="46.94116" lon="8.70834">
        <ele>1650</ele>
        <time>2021-08-06T11:51:07.393Z</time>
      </trkpt>
      <trkpt lat="46.94115" lon="8.70833">
        <ele>1650</ele>
        <time>2021-08-06T11:51:08.393Z</time>
      </trkpt>
      <trkpt lat="46.94114" lon="8.70833">
        <ele>1651</ele>
        <time>2021-08-06T11:51:09.392Z</time>
      </trkpt>
      <trkpt lat="46.94114" lon="8.70832">
        <ele>1651</ele>
        <time>2021-08-06T11:51:10.393Z</time>
      </trkpt>
      <trkpt lat="46.94114" lon="8.70832">
        <ele>1651</ele>
        <time>2021-08-06T11:51:11.393Z</time>
      </trkpt>
      <trkpt lat="46.94114" lon="8.70831">
        <ele>1652</ele>
        <time>2021-08-06T11:51:12.393Z</time>
      </trkpt>
      <trkpt lat="46.94113" lon="8.70831">
        <ele>1652</ele>
        <time>2021-08-06T11:51:13.392Z</time>
      </trkpt>
      <trkpt lat="46.94113" lon="8.7083">
        <ele>1653</ele>
        <time>2021-08-06T11:51:14.393Z</time>
      </trkpt>
      <trkpt lat="46.94113" lon="8.70829">
        <ele>1653</ele>
        <time>2021-08-06T11:51:15.393Z</time>
      </trkpt>
      <trkpt lat="46.94113" lon="8.70829">
        <ele>1654</ele>
        <time>2021-08-06T11:51:16.392Z</time>
      </trkpt>
      <trkpt lat="46.94112" lon="8.70828">
        <ele>1654</ele>
        <time>2021-08-06T11:51:17.393Z</time>
      </trkpt>
      <trkpt lat="46.94112" lon="8.70827">
        <ele>1655</ele>
        <time>2021-08-06T11:51:18.393Z</time>
      </trkpt>
      <trkpt lat="46.94112" lon="8.70827">
        <ele>1656</ele>
        <time>2021-08-06T11:51:19.392Z</time>
      </trkpt>
      <trkpt lat="46.94111" lon="8.70827">
        <ele>1657</ele>
        <time>2021-08-06T11:51:20.392Z</time>
      </trkpt>
      <trkpt lat="46.94111" lon="8.70826">
        <ele>1658</ele>
        <time>2021-08-06T11:51:21.393Z</time>
      </trkpt>
      <trkpt lat="46.94111" lon="8.70825">
        <ele>1658</ele>
        <time>2021-08-06T11:51:22.392Z</time>
      </trkpt>
      <trkpt lat="46.94111" lon="8.70824">
        <ele>1659</ele>
        <time>2021-08-06T11:51:23.392Z</time>
      </trkpt>
      <trkpt lat="46.9411" lon="8.70824">
        <ele>1659</ele>
        <time>2021-08-06T11:51:24.392Z</time>
      </trkpt>
      <trkpt lat="46.9411" lon="8.70823">
        <ele>1659</ele>
        <time>2021-08-06T11:51:25.392Z</time>
      </trkpt>
      <trkpt lat="46.9411" lon="8.70822">
        <ele>1659</ele>
        <time>2021-08-06T11:51:26.392Z</time>
      </trkpt>
      <trkpt lat="46.94109" lon="8.70822">
        <ele>1659</ele>
        <time>2021-08-06T11:51:27.392Z</time>
      </trkpt>
      <trkpt lat="46.94109" lon="8.70822">
        <ele>1659</ele>
        <time>2021-08-06T11:51:28.392Z</time>
      </trkpt>
      <trkpt lat="46.94108" lon="8.70821">
        <ele>1659</ele>
        <time>2021-08-06T11:51:29.393Z</time>
      </trkpt>
      <trkpt lat="46.94108" lon="8.70821">
        <ele>1660</ele>
        <time>2021-08-06T11:51:30.392Z</time>
      </trkpt>
      <trkpt lat="46.94107" lon="8.7082">
        <ele>1660</ele>
        <time>2021-08-06T11:51:31.393Z</time>
      </trkpt>
      <trkpt lat="46.94106" lon="8.7082">
        <ele>1661</ele>
        <time>2021-08-06T11:51:32.393Z</time>
      </trkpt>
      <trkpt lat="46.94106" lon="8.70819">
        <ele>1660</ele>
        <time>2021-08-06T11:51:33.392Z</time>
      </trkpt>
      <trkpt lat="46.94105" lon="8.70818">
        <ele>1660</ele>
        <time>2021-08-06T11:51:34.393Z</time>
      </trkpt>
      <trkpt lat="46.94104" lon="8.70818">
        <ele>1660</ele>
        <time>2021-08-06T11:51:35.393Z</time>
      </trkpt>
      <trkpt lat="46.94104" lon="8.70817">
        <ele>1660</ele>
        <time>2021-08-06T11:51:36.393Z</time>
      </trkpt>
      <trkpt lat="46.94103" lon="8.70816">
        <ele>1659</ele>
        <time>2021-08-06T11:51:37.393Z</time>
      </trkpt>
      <trkpt lat="46.94103" lon="8.70815">
        <ele>1659</ele>
        <time>2021-08-06T11:51:38.392Z</time>
      </trkpt>
      <trkpt lat="46.94102" lon="8.70814">
        <ele>1659</ele>
        <time>2021-08-06T11:51:39.392Z</time>
      </trkpt>
      <trkpt lat="46.94101" lon="8.70813">
        <ele>1659</ele>
        <time>2021-08-06T11:51:40.393Z</time>
      </trkpt>
      <trkpt lat="46.94101" lon="8.70813">
        <ele>1659</ele>
        <time>2021-08-06T11:51:41.393Z</time>
      </trkpt>
      <trkpt lat="46.941" lon="8.70812">
        <ele>1660</ele>
        <time>2021-08-06T11:51:42.393Z</time>
      </trkpt>
      <trkpt lat="46.941" lon="8.70812">
        <ele>1660</ele>
        <time>2021-08-06T11:51:43.393Z</time>
      </trkpt>
      <trkpt lat="46.941" lon="8.70811">
        <ele>1659</ele>
        <time>2021-08-06T11:51:44.393Z</time>
      </trkpt>
      <trkpt lat="46.941" lon="8.70811">
        <ele>1659</ele>
        <time>2021-08-06T11:51:45.392Z</time>
      </trkpt>
      <trkpt lat="46.94099" lon="8.7081">
        <ele>1659</ele>
        <time>2021-08-06T11:51:46.392Z</time>
      </trkpt>
      <trkpt lat="46.94098" lon="8.7081">
        <ele>1659</ele>
        <time>2021-08-06T11:51:47.393Z</time>
      </trkpt>
      <trkpt lat="46.94098" lon="8.70809">
        <ele>1659</ele>
        <time>2021-08-06T11:51:48.392Z</time>
      </trkpt>
      <trkpt lat="46.94097" lon="8.70808">
        <ele>1659</ele>
        <time>2021-08-06T11:51:49.393Z</time>
      </trkpt>
      <trkpt lat="46.94098" lon="8.70808">
        <ele>1659</ele>
        <time>2021-08-06T11:51:50.393Z</time>
      </trkpt>
      <trkpt lat="46.94098" lon="8.70807">
        <ele>1659</ele>
        <time>2021-08-06T11:51:51.393Z</time>
      </trkpt>
      <trkpt lat="46.94099" lon="8.70807">
        <ele>1660</ele>
        <time>2021-08-06T11:51:52.392Z</time>
      </trkpt>
      <trkpt lat="46.94099" lon="8.70807">
        <ele>1660</ele>
        <time>2021-08-06T11:51:53.393Z</time>
      </trkpt>
      <trkpt lat="46.94098" lon="8.70806">
        <ele>1660</ele>
        <time>2021-08-06T11:51:54.393Z</time>
      </trkpt>
      <trkpt lat="46.94098" lon="8.70806">
        <ele>1660</ele>
        <time>2021-08-06T11:51:55.393Z</time>
      </trkpt>
      <trkpt lat="46.94097" lon="8.70805">
        <ele>1661</ele>
        <time>2021-08-06T11:51:56.392Z</time>
      </trkpt>
      <trkpt lat="46.94097" lon="8.70804">
        <ele>1661</ele>
        <time>2021-08-06T11:51:57.392Z</time>
      </trkpt>
      <trkpt lat="46.94096" lon="8.70803">
        <ele>1661</ele>
        <time>2021-08-06T11:51:58.392Z</time>
      </trkpt>
      <trkpt lat="46.94096" lon="8.70803">
        <ele>1661</ele>
        <time>2021-08-06T11:51:59.393Z</time>
      </trkpt>
      <trkpt lat="46.94096" lon="8.70802">
        <ele>1661</ele>
        <time>2021-08-06T11:52:00.393Z</time>
      </trkpt>
      <trkpt lat="46.94095" lon="8.70802">
        <ele>1661</ele>
        <time>2021-08-06T11:52:01.393Z</time>
      </trkpt>
      <trkpt lat="46.94095" lon="8.70801">
        <ele>1661</ele>
        <time>2021-08-06T11:52:02.393Z</time>
      </trkpt>
      <trkpt lat="46.94095" lon="8.70801">
        <ele>1661</ele>
        <time>2021-08-06T11:52:03.392Z</time>
      </trkpt>
      <trkpt lat="46.94095" lon="8.708">
        <ele>1661</ele>
        <time>2021-08-06T11:52:04.393Z</time>
      </trkpt>
      <trkpt lat="46.94095" lon="8.708">
        <ele>1661</ele>
        <time>2021-08-06T11:52:05.393Z</time>
      </trkpt>
      <trkpt lat="46.94095" lon="8.708">
        <ele>1661</ele>
        <time>2021-08-06T11:52:06.393Z</time>
      </trkpt>
      <trkpt lat="46.94094" lon="8.70799">
        <ele>1661</ele>
        <time>2021-08-06T11:52:07.393Z</time>
      </trkpt>
      <trkpt lat="46.94094" lon="8.70799">
        <ele>1661</ele>
        <time>2021-08-06T11:52:08.393Z</time>
      </trkpt>
      <trkpt lat="46.94094" lon="8.70799">
        <ele>1661</ele>
        <time>2021-08-06T11:52:09.392Z</time>
      </trkpt>
      <trkpt lat="46.94093" lon="8.70799">
        <ele>1661</ele>
        <time>2021-08-06T11:52:10.392Z</time>
      </trkpt>
      <trkpt lat="46.94092" lon="8.70799">
        <ele>1661</ele>
        <time>2021-08-06T11:52:11.393Z</time>
      </trkpt>
      <trkpt lat="46.94091" lon="8.70798">
        <ele>1660</ele>
        <time>2021-08-06T11:52:12.392Z</time>
      </trkpt>
      <trkpt lat="46.94091" lon="8.70798">
        <ele>1660</ele>
        <time>2021-08-06T11:52:13.393Z</time>
      </trkpt>
      <trkpt lat="46.9409" lon="8.70797">
        <ele>1661</ele>
        <time>2021-08-06T11:52:14.393Z</time>
      </trkpt>
      <trkpt lat="46.9409" lon="8.70797">
        <ele>1661</ele>
        <time>2021-08-06T11:52:15.393Z</time>
      </trkpt>
      <trkpt lat="46.94089" lon="8.70797">
        <ele>1661</ele>
        <time>2021-08-06T11:52:16.392Z</time>
      </trkpt>
      <trkpt lat="46.94089" lon="8.70797">
        <ele>1662</ele>
        <time>2021-08-06T11:52:17.393Z</time>
      </trkpt>
      <trkpt lat="46.94089" lon="8.70798">
        <ele>1662</ele>
        <time>2021-08-06T11:52:18.392Z</time>
      </trkpt>
      <trkpt lat="46.94089" lon="8.70798">
        <ele>1662</ele>
        <time>2021-08-06T11:52:19.392Z</time>
      </trkpt>
      <trkpt lat="46.94089" lon="8.70798">
        <ele>1663</ele>
        <time>2021-08-06T11:52:20.392Z</time>
      </trkpt>
      <trkpt lat="46.9409" lon="8.70798">
        <ele>1663</ele>
        <time>2021-08-06T11:52:21.392Z</time>
      </trkpt>
      <trkpt lat="46.94089" lon="8.70797">
        <ele>1663</ele>
        <time>2021-08-06T11:52:22.393Z</time>
      </trkpt>
      <trkpt lat="46.94089" lon="8.70796">
        <ele>1664</ele>
        <time>2021-08-06T11:52:23.392Z</time>
      </trkpt>
      <trkpt lat="46.94088" lon="8.70795">
        <ele>1664</ele>
        <time>2021-08-06T11:52:24.393Z</time>
      </trkpt>
      <trkpt lat="46.94088" lon="8.70795">
        <ele>1664</ele>
        <time>2021-08-06T11:52:25.393Z</time>
      </trkpt>
      <trkpt lat="46.94087" lon="8.70794">
        <ele>1664</ele>
        <time>2021-08-06T11:52:26.393Z</time>
      </trkpt>
      <trkpt lat="46.94087" lon="8.70794">
        <ele>1664</ele>
        <time>2021-08-06T11:52:27.393Z</time>
      </trkpt>
      <trkpt lat="46.94087" lon="8.70794">
        <ele>1664</ele>
        <time>2021-08-06T11:52:28.393Z</time>
      </trkpt>
      <trkpt lat="46.94086" lon="8.70793">
        <ele>1664</ele>
        <time>2021-08-06T11:52:29.393Z</time>
      </trkpt>
      <trkpt lat="46.94085" lon="8.70793">
        <ele>1664</ele>
        <time>2021-08-06T11:52:30.393Z</time>
      </trkpt>
      <trkpt lat="46.94085" lon="8.70793">
        <ele>1665</ele>
        <time>2021-08-06T11:52:31.392Z</time>
      </trkpt>
      <trkpt lat="46.94085" lon="8.70793">
        <ele>1665</ele>
        <time>2021-08-06T11:52:32.393Z</time>
      </trkpt>
      <trkpt lat="46.94084" lon="8.70792">
        <ele>1665</ele>
        <time>2021-08-06T11:52:33.393Z</time>
      </trkpt>
      <trkpt lat="46.94084" lon="8.70793">
        <ele>1665</ele>
        <time>2021-08-06T11:52:34.393Z</time>
      </trkpt>
      <trkpt lat="46.94084" lon="8.70792">
        <ele>1665</ele>
        <time>2021-08-06T11:52:35.393Z</time>
      </trkpt>
      <trkpt lat="46.94083" lon="8.70792">
        <ele>1665</ele>
        <time>2021-08-06T11:52:36.392Z</time>
      </trkpt>
      <trkpt lat="46.94083" lon="8.70791">
        <ele>1665</ele>
        <time>2021-08-06T11:52:37.393Z</time>
      </trkpt>
      <trkpt lat="46.94083" lon="8.7079">
        <ele>1665</ele>
        <time>2021-08-06T11:52:38.393Z</time>
      </trkpt>
      <trkpt lat="46.94083" lon="8.70789">
        <ele>1666</ele>
        <time>2021-08-06T11:52:39.393Z</time>
      </trkpt>
      <trkpt lat="46.94082" lon="8.70788">
        <ele>1666</ele>
        <time>2021-08-06T11:52:40.393Z</time>
      </trkpt>
      <trkpt lat="46.94082" lon="8.70788">
        <ele>1666</ele>
        <time>2021-08-06T11:52:41.393Z</time>
      </trkpt>
      <trkpt lat="46.94082" lon="8.70788">
        <ele>1666</ele>
        <time>2021-08-06T11:52:42.393Z</time>
      </trkpt>
      <trkpt lat="46.94081" lon="8.70787">
        <ele>1666</ele>
        <time>2021-08-06T11:52:43.393Z</time>
      </trkpt>
      <trkpt lat="46.9408" lon="8.70787">
        <ele>1666</ele>
        <time>2021-08-06T11:52:44.392Z</time>
      </trkpt>
      <trkpt lat="46.9408" lon="8.70787">
        <ele>1666</ele>
        <time>2021-08-06T11:52:45.392Z</time>
      </trkpt>
      <trkpt lat="46.94079" lon="8.70787">
        <ele>1667</ele>
        <time>2021-08-06T11:52:46.393Z</time>
      </trkpt>
      <trkpt lat="46.94078" lon="8.70787">
        <ele>1667</ele>
        <time>2021-08-06T11:52:47.393Z</time>
      </trkpt>
      <trkpt lat="46.94078" lon="8.70786">
        <ele>1667</ele>
        <time>2021-08-06T11:52:48.392Z</time>
      </trkpt>
      <trkpt lat="46.94078" lon="8.70786">
        <ele>1666</ele>
        <time>2021-08-06T11:52:49.392Z</time>
      </trkpt>
      <trkpt lat="46.94077" lon="8.70786">
        <ele>1666</ele>
        <time>2021-08-06T11:52:50.392Z</time>
      </trkpt>
      <trkpt lat="46.94077" lon="8.70786">
        <ele>1666</ele>
        <time>2021-08-06T11:52:51.392Z</time>
      </trkpt>
      <trkpt lat="46.94076" lon="8.70786">
        <ele>1665</ele>
        <time>2021-08-06T11:52:52.392Z</time>
      </trkpt>
      <trkpt lat="46.94076" lon="8.70785">
        <ele>1665</ele>
        <time>2021-08-06T11:52:53.392Z</time>
      </trkpt>
      <trkpt lat="46.94075" lon="8.70785">
        <ele>1665</ele>
        <time>2021-08-06T11:52:54.392Z</time>
      </trkpt>
      <trkpt lat="46.94075" lon="8.70784">
        <ele>1665</ele>
        <time>2021-08-06T11:52:55.392Z</time>
      </trkpt>
      <trkpt lat="46.94074" lon="8.70784">
        <ele>1665</ele>
        <time>2021-08-06T11:52:56.392Z</time>
      </trkpt>
      <trkpt lat="46.94073" lon="8.70783">
        <ele>1664</ele>
        <time>2021-08-06T11:52:57.393Z</time>
      </trkpt>
      <trkpt lat="46.94072" lon="8.70782">
        <ele>1664</ele>
        <time>2021-08-06T11:52:58.393Z</time>
      </trkpt>
      <trkpt lat="46.94072" lon="8.70782">
        <ele>1664</ele>
        <time>2021-08-06T11:52:59.392Z</time>
      </trkpt>
      <trkpt lat="46.94072" lon="8.70782">
        <ele>1664</ele>
        <time>2021-08-06T11:53:00.392Z</time>
      </trkpt>
      <trkpt lat="46.94072" lon="8.70781">
        <ele>1665</ele>
        <time>2021-08-06T11:53:01.392Z</time>
      </trkpt>
      <trkpt lat="46.94072" lon="8.70781">
        <ele>1665</ele>
        <time>2021-08-06T11:53:02.393Z</time>
      </trkpt>
      <trkpt lat="46.94071" lon="8.70781">
        <ele>1665</ele>
        <time>2021-08-06T11:53:03.392Z</time>
      </trkpt>
      <trkpt lat="46.94071" lon="8.70781">
        <ele>1665</ele>
        <time>2021-08-06T11:53:04.392Z</time>
      </trkpt>
      <trkpt lat="46.94071" lon="8.7078">
        <ele>1665</ele>
        <time>2021-08-06T11:53:05.393Z</time>
      </trkpt>
      <trkpt lat="46.94071" lon="8.7078">
        <ele>1665</ele>
        <time>2021-08-06T11:53:06.393Z</time>
      </trkpt>
      <trkpt lat="46.94071" lon="8.7078">
        <ele>1666</ele>
        <time>2021-08-06T11:53:07.393Z</time>
      </trkpt>
      <trkpt lat="46.9407" lon="8.70782">
        <ele>1667</ele>
        <time>2021-08-06T11:53:08.393Z</time>
      </trkpt>
      <trkpt lat="46.9407" lon="8.70783">
        <ele>1667</ele>
        <time>2021-08-06T11:53:09.393Z</time>
      </trkpt>
      <trkpt lat="46.94072" lon="8.70782">
        <ele>1664</ele>
        <time>2021-08-06T11:53:10.393Z</time>
      </trkpt>
      <trkpt lat="46.9407" lon="8.70784">
        <ele>1663</ele>
        <time>2021-08-06T11:53:11.393Z</time>
      </trkpt>
      <trkpt lat="46.9407" lon="8.70785">
        <ele>1663</ele>
        <time>2021-08-06T11:53:12.393Z</time>
      </trkpt>
      <trkpt lat="46.9407" lon="8.70785">
        <ele>1663</ele>
        <time>2021-08-06T11:53:13.392Z</time>
      </trkpt>
      <trkpt lat="46.94069" lon="8.70785">
        <ele>1663</ele>
        <time>2021-08-06T11:53:14.393Z</time>
      </trkpt>
      <trkpt lat="46.94069" lon="8.70786">
        <ele>1665</ele>
        <time>2021-08-06T11:53:15.392Z</time>
      </trkpt>
      <trkpt lat="46.94068" lon="8.70785">
        <ele>1666</ele>
        <time>2021-08-06T11:53:16.393Z</time>
      </trkpt>
      <trkpt lat="46.94068" lon="8.70785">
        <ele>1666</ele>
        <time>2021-08-06T11:53:17.392Z</time>
      </trkpt>
      <trkpt lat="46.94068" lon="8.70784">
        <ele>1667</ele>
        <time>2021-08-06T11:53:18.393Z</time>
      </trkpt>
      <trkpt lat="46.94068" lon="8.70784">
        <ele>1667</ele>
        <time>2021-08-06T11:53:19.392Z</time>
      </trkpt>
      <trkpt lat="46.94068" lon="8.70784">
        <ele>1668</ele>
        <time>2021-08-06T11:53:20.392Z</time>
      </trkpt>
      <trkpt lat="46.94069" lon="8.70785">
        <ele>1668</ele>
        <time>2021-08-06T11:53:21.393Z</time>
      </trkpt>
      <trkpt lat="46.94069" lon="8.70785">
        <ele>1668</ele>
        <time>2021-08-06T11:53:22.392Z</time>
      </trkpt>
      <trkpt lat="46.9407" lon="8.70785">
        <ele>1669</ele>
        <time>2021-08-06T11:53:23.392Z</time>
      </trkpt>
      <trkpt lat="46.94071" lon="8.70785">
        <ele>1669</ele>
        <time>2021-08-06T11:53:24.393Z</time>
      </trkpt>
      <trkpt lat="46.94072" lon="8.70785">
        <ele>1670</ele>
        <time>2021-08-06T11:53:25.392Z</time>
      </trkpt>
      <trkpt lat="46.94072" lon="8.70786">
        <ele>1670</ele>
        <time>2021-08-06T11:53:26.392Z</time>
      </trkpt>
      <trkpt lat="46.94072" lon="8.70786">
        <ele>1670</ele>
        <time>2021-08-06T11:53:27.393Z</time>
      </trkpt>
      <trkpt lat="46.94072" lon="8.70787">
        <ele>1670</ele>
        <time>2021-08-06T11:53:28.392Z</time>
      </trkpt>
      <trkpt lat="46.94072" lon="8.70787">
        <ele>1670</ele>
        <time>2021-08-06T11:53:29.393Z</time>
      </trkpt>
      <trkpt lat="46.94073" lon="8.70787">
        <ele>1670</ele>
        <time>2021-08-06T11:53:30.392Z</time>
      </trkpt>
      <trkpt lat="46.94073" lon="8.70787">
        <ele>1671</ele>
        <time>2021-08-06T11:53:31.393Z</time>
      </trkpt>
      <trkpt lat="46.94073" lon="8.70788">
        <ele>1672</ele>
        <time>2021-08-06T11:53:32.394Z</time>
      </trkpt>
      <trkpt lat="46.94072" lon="8.70788">
        <ele>1673</ele>
        <time>2021-08-06T11:53:33.393Z</time>
      </trkpt>
      <trkpt lat="46.94071" lon="8.70786">
        <ele>1681</ele>
        <time>2021-08-06T11:53:34.394Z</time>
      </trkpt>
      <trkpt lat="46.94071" lon="8.70785">
        <ele>1681</ele>
        <time>2021-08-06T11:53:35.394Z</time>
      </trkpt>
      <trkpt lat="46.94071" lon="8.70785">
        <ele>1680</ele>
        <time>2021-08-06T11:53:36.393Z</time>
      </trkpt>
      <trkpt lat="46.94068" lon="8.70788">
        <ele>1671</ele>
        <time>2021-08-06T11:53:37.393Z</time>
      </trkpt>
      <trkpt lat="46.94068" lon="8.70788">
        <ele>1671</ele>
        <time>2021-08-06T11:53:38.393Z</time>
      </trkpt>
      <trkpt lat="46.94068" lon="8.70788">
        <ele>1672</ele>
        <time>2021-08-06T11:53:39.394Z</time>
      </trkpt>
      <trkpt lat="46.94069" lon="8.70785">
        <ele>1678</ele>
        <time>2021-08-06T11:53:40.394Z</time>
      </trkpt>
      <trkpt lat="46.94069" lon="8.70786">
        <ele>1677</ele>
        <time>2021-08-06T11:53:41.394Z</time>
      </trkpt>
      <trkpt lat="46.9407" lon="8.70781">
        <ele>1675</ele>
        <time>2021-08-06T11:53:42.395Z</time>
      </trkpt>
      <trkpt lat="46.9407" lon="8.7078">
        <ele>1675</ele>
        <time>2021-08-06T11:53:43.394Z</time>
      </trkpt>
      <trkpt lat="46.94069" lon="8.7078">
        <ele>1674</ele>
        <time>2021-08-06T11:53:44.395Z</time>
      </trkpt>
      <trkpt lat="46.94069" lon="8.70779">
        <ele>1674</ele>
        <time>2021-08-06T11:53:45.394Z</time>
      </trkpt>
      <trkpt lat="46.94069" lon="8.70778">
        <ele>1674</ele>
        <time>2021-08-06T11:53:46.394Z</time>
      </trkpt>
      <trkpt lat="46.94069" lon="8.70777">
        <ele>1673</ele>
        <time>2021-08-06T11:53:47.394Z</time>
      </trkpt>
      <trkpt lat="46.94069" lon="8.70776">
        <ele>1673</ele>
        <time>2021-08-06T11:53:48.394Z</time>
      </trkpt>
      <trkpt lat="46.94069" lon="8.70775">
        <ele>1673</ele>
        <time>2021-08-06T11:53:49.394Z</time>
      </trkpt>
      <trkpt lat="46.94068" lon="8.70774">
        <ele>1672</ele>
        <time>2021-08-06T11:53:50.395Z</time>
      </trkpt>
      <trkpt lat="46.94068" lon="8.70773">
        <ele>1672</ele>
        <time>2021-08-06T11:53:51.395Z</time>
      </trkpt>
      <trkpt lat="46.94068" lon="8.70772">
        <ele>1671</ele>
        <time>2021-08-06T11:53:52.394Z</time>
      </trkpt>
      <trkpt lat="46.94067" lon="8.70771">
        <ele>1671</ele>
        <time>2021-08-06T11:53:53.394Z</time>
      </trkpt>
      <trkpt lat="46.94066" lon="8.7077">
        <ele>1671</ele>
        <time>2021-08-06T11:53:54.394Z</time>
      </trkpt>
      <trkpt lat="46.94066" lon="8.70768">
        <ele>1670</ele>
        <time>2021-08-06T11:53:55.394Z</time>
      </trkpt>
      <trkpt lat="46.94066" lon="8.70768">
        <ele>1669</ele>
        <time>2021-08-06T11:53:56.394Z</time>
      </trkpt>
      <trkpt lat="46.94065" lon="8.70766">
        <ele>1668</ele>
        <time>2021-08-06T11:53:57.394Z</time>
      </trkpt>
      <trkpt lat="46.94065" lon="8.70765">
        <ele>1668</ele>
        <time>2021-08-06T11:53:58.394Z</time>
      </trkpt>
      <trkpt lat="46.94064" lon="8.70763">
        <ele>1668</ele>
        <time>2021-08-06T11:53:59.395Z</time>
      </trkpt>
      <trkpt lat="46.94064" lon="8.70762">
        <ele>1668</ele>
        <time>2021-08-06T11:54:00.395Z</time>
      </trkpt>
      <trkpt lat="46.94063" lon="8.70761">
        <ele>1668</ele>
        <time>2021-08-06T11:54:01.394Z</time>
      </trkpt>
      <trkpt lat="46.94062" lon="8.7076">
        <ele>1668</ele>
        <time>2021-08-06T11:54:02.394Z</time>
      </trkpt>
      <trkpt lat="46.94062" lon="8.70759">
        <ele>1668</ele>
        <time>2021-08-06T11:54:03.394Z</time>
      </trkpt>
      <trkpt lat="46.94061" lon="8.70758">
        <ele>1668</ele>
        <time>2021-08-06T11:54:04.394Z</time>
      </trkpt>
      <trkpt lat="46.94061" lon="8.70757">
        <ele>1667</ele>
        <time>2021-08-06T11:54:05.394Z</time>
      </trkpt>
      <trkpt lat="46.9406" lon="8.70755">
        <ele>1667</ele>
        <time>2021-08-06T11:54:06.394Z</time>
      </trkpt>
      <trkpt lat="46.94059" lon="8.70754">
        <ele>1667</ele>
        <time>2021-08-06T11:54:07.394Z</time>
      </trkpt>
      <trkpt lat="46.94059" lon="8.70754">
        <ele>1667</ele>
        <time>2021-08-06T11:54:08.394Z</time>
      </trkpt>
      <trkpt lat="46.94058" lon="8.70753">
        <ele>1667</ele>
        <time>2021-08-06T11:54:09.394Z</time>
      </trkpt>
      <trkpt lat="46.94057" lon="8.70752">
        <ele>1667</ele>
        <time>2021-08-06T11:54:10.394Z</time>
      </trkpt>
      <trkpt lat="46.94057" lon="8.70751">
        <ele>1667</ele>
        <time>2021-08-06T11:54:11.394Z</time>
      </trkpt>
      <trkpt lat="46.94056" lon="8.7075">
        <ele>1667</ele>
        <time>2021-08-06T11:54:12.395Z</time>
      </trkpt>
      <trkpt lat="46.94056" lon="8.70749">
        <ele>1667</ele>
        <time>2021-08-06T11:54:13.394Z</time>
      </trkpt>
      <trkpt lat="46.94056" lon="8.70748">
        <ele>1667</ele>
        <time>2021-08-06T11:54:14.394Z</time>
      </trkpt>
      <trkpt lat="46.94055" lon="8.70748">
        <ele>1667</ele>
        <time>2021-08-06T11:54:15.394Z</time>
      </trkpt>
      <trkpt lat="46.94054" lon="8.70747">
        <ele>1667</ele>
        <time>2021-08-06T11:54:16.395Z</time>
      </trkpt>
      <trkpt lat="46.94054" lon="8.70747">
        <ele>1667</ele>
        <time>2021-08-06T11:54:17.394Z</time>
      </trkpt>
      <trkpt lat="46.94053" lon="8.70746">
        <ele>1667</ele>
        <time>2021-08-06T11:54:18.394Z</time>
      </trkpt>
      <trkpt lat="46.94053" lon="8.70745">
        <ele>1667</ele>
        <time>2021-08-06T11:54:19.395Z</time>
      </trkpt>
      <trkpt lat="46.94052" lon="8.70745">
        <ele>1667</ele>
        <time>2021-08-06T11:54:20.395Z</time>
      </trkpt>
      <trkpt lat="46.94052" lon="8.70744">
        <ele>1667</ele>
        <time>2021-08-06T11:54:21.394Z</time>
      </trkpt>
      <trkpt lat="46.94051" lon="8.70744">
        <ele>1667</ele>
        <time>2021-08-06T11:54:22.395Z</time>
      </trkpt>
      <trkpt lat="46.94051" lon="8.70743">
        <ele>1667</ele>
        <time>2021-08-06T11:54:23.394Z</time>
      </trkpt>
      <trkpt lat="46.9405" lon="8.70742">
        <ele>1667</ele>
        <time>2021-08-06T11:54:24.394Z</time>
      </trkpt>
      <trkpt lat="46.94049" lon="8.70741">
        <ele>1667</ele>
        <time>2021-08-06T11:54:25.394Z</time>
      </trkpt>
      <trkpt lat="46.94049" lon="8.7074">
        <ele>1667</ele>
        <time>2021-08-06T11:54:26.394Z</time>
      </trkpt>
      <trkpt lat="46.94048" lon="8.70739">
        <ele>1668</ele>
        <time>2021-08-06T11:54:27.394Z</time>
      </trkpt>
      <trkpt lat="46.94048" lon="8.70738">
        <ele>1668</ele>
        <time>2021-08-06T11:54:28.394Z</time>
      </trkpt>
      <trkpt lat="46.94047" lon="8.70738">
        <ele>1668</ele>
        <time>2021-08-06T11:54:29.394Z</time>
      </trkpt>
      <trkpt lat="46.94047" lon="8.70738">
        <ele>1669</ele>
        <time>2021-08-06T11:54:30.394Z</time>
      </trkpt>
      <trkpt lat="46.94046" lon="8.70737">
        <ele>1669</ele>
        <time>2021-08-06T11:54:31.394Z</time>
      </trkpt>
      <trkpt lat="46.94046" lon="8.70736">
        <ele>1669</ele>
        <time>2021-08-06T11:54:32.395Z</time>
      </trkpt>
      <trkpt lat="46.94045" lon="8.70735">
        <ele>1669</ele>
        <time>2021-08-06T11:54:33.394Z</time>
      </trkpt>
      <trkpt lat="46.94045" lon="8.70735">
        <ele>1669</ele>
        <time>2021-08-06T11:54:34.394Z</time>
      </trkpt>
      <trkpt lat="46.94044" lon="8.70734">
        <ele>1669</ele>
        <time>2021-08-06T11:54:35.394Z</time>
      </trkpt>
      <trkpt lat="46.94043" lon="8.70733">
        <ele>1670</ele>
        <time>2021-08-06T11:54:36.395Z</time>
      </trkpt>
      <trkpt lat="46.94043" lon="8.70733">
        <ele>1669</ele>
        <time>2021-08-06T11:54:37.394Z</time>
      </trkpt>
      <trkpt lat="46.94042" lon="8.70732">
        <ele>1669</ele>
        <time>2021-08-06T11:54:38.395Z</time>
      </trkpt>
      <trkpt lat="46.94042" lon="8.70731">
        <ele>1669</ele>
        <time>2021-08-06T11:54:39.395Z</time>
      </trkpt>
      <trkpt lat="46.94041" lon="8.7073">
        <ele>1669</ele>
        <time>2021-08-06T11:54:40.395Z</time>
      </trkpt>
      <trkpt lat="46.94041" lon="8.70728">
        <ele>1669</ele>
        <time>2021-08-06T11:54:41.394Z</time>
      </trkpt>
      <trkpt lat="46.94041" lon="8.70727">
        <ele>1668</ele>
        <time>2021-08-06T11:54:42.394Z</time>
      </trkpt>
      <trkpt lat="46.9404" lon="8.70726">
        <ele>1668</ele>
        <time>2021-08-06T11:54:43.394Z</time>
      </trkpt>
      <trkpt lat="46.9404" lon="8.70725">
        <ele>1668</ele>
        <time>2021-08-06T11:54:44.395Z</time>
      </trkpt>
      <trkpt lat="46.9404" lon="8.70724">
        <ele>1669</ele>
        <time>2021-08-06T11:54:45.394Z</time>
      </trkpt>
      <trkpt lat="46.94039" lon="8.70723">
        <ele>1670</ele>
        <time>2021-08-06T11:54:46.394Z</time>
      </trkpt>
      <trkpt lat="46.94039" lon="8.70722">
        <ele>1670</ele>
        <time>2021-08-06T11:54:47.394Z</time>
      </trkpt>
      <trkpt lat="46.94039" lon="8.70721">
        <ele>1670</ele>
        <time>2021-08-06T11:54:48.394Z</time>
      </trkpt>
      <trkpt lat="46.94039" lon="8.70719">
        <ele>1671</ele>
        <time>2021-08-06T11:54:49.395Z</time>
      </trkpt>
      <trkpt lat="46.94039" lon="8.70717">
        <ele>1670</ele>
        <time>2021-08-06T11:54:50.394Z</time>
      </trkpt>
      <trkpt lat="46.94039" lon="8.70715">
        <ele>1671</ele>
        <time>2021-08-06T11:54:51.394Z</time>
      </trkpt>
      <trkpt lat="46.94039" lon="8.70714">
        <ele>1671</ele>
        <time>2021-08-06T11:54:52.394Z</time>
      </trkpt>
      <trkpt lat="46.94039" lon="8.70712">
        <ele>1671</ele>
        <time>2021-08-06T11:54:53.395Z</time>
      </trkpt>
      <trkpt lat="46.94039" lon="8.70711">
        <ele>1671</ele>
        <time>2021-08-06T11:54:54.394Z</time>
      </trkpt>
      <trkpt lat="46.94039" lon="8.7071">
        <ele>1671</ele>
        <time>2021-08-06T11:54:55.394Z</time>
      </trkpt>
      <trkpt lat="46.9404" lon="8.70708">
        <ele>1671</ele>
        <time>2021-08-06T11:54:56.394Z</time>
      </trkpt>
      <trkpt lat="46.9404" lon="8.70706">
        <ele>1671</ele>
        <time>2021-08-06T11:54:57.395Z</time>
      </trkpt>
      <trkpt lat="46.9404" lon="8.70705">
        <ele>1672</ele>
        <time>2021-08-06T11:54:58.394Z</time>
      </trkpt>
      <trkpt lat="46.9404" lon="8.70703">
        <ele>1672</ele>
        <time>2021-08-06T11:54:59.395Z</time>
      </trkpt>
      <trkpt lat="46.94041" lon="8.70702">
        <ele>1672</ele>
        <time>2021-08-06T11:55:00.395Z</time>
      </trkpt>
      <trkpt lat="46.94041" lon="8.70701">
        <ele>1672</ele>
        <time>2021-08-06T11:55:01.394Z</time>
      </trkpt>
      <trkpt lat="46.94041" lon="8.70699">
        <ele>1673</ele>
        <time>2021-08-06T11:55:02.394Z</time>
      </trkpt>
      <trkpt lat="46.94041" lon="8.70698">
        <ele>1673</ele>
        <time>2021-08-06T11:55:03.394Z</time>
      </trkpt>
      <trkpt lat="46.9404" lon="8.70697">
        <ele>1672</ele>
        <time>2021-08-06T11:55:04.395Z</time>
      </trkpt>
      <trkpt lat="46.9404" lon="8.70696">
        <ele>1673</ele>
        <time>2021-08-06T11:55:05.394Z</time>
      </trkpt>
      <trkpt lat="46.9404" lon="8.70694">
        <ele>1673</ele>
        <time>2021-08-06T11:55:06.395Z</time>
      </trkpt>
      <trkpt lat="46.9404" lon="8.70693">
        <ele>1673</ele>
        <time>2021-08-06T11:55:07.394Z</time>
      </trkpt>
      <trkpt lat="46.9404" lon="8.70691">
        <ele>1673</ele>
        <time>2021-08-06T11:55:08.394Z</time>
      </trkpt>
      <trkpt lat="46.9404" lon="8.7069">
        <ele>1673</ele>
        <time>2021-08-06T11:55:09.394Z</time>
      </trkpt>
      <trkpt lat="46.94039" lon="8.70689">
        <ele>1673</ele>
        <time>2021-08-06T11:55:10.394Z</time>
      </trkpt>
      <trkpt lat="46.94039" lon="8.70687">
        <ele>1673</ele>
        <time>2021-08-06T11:55:11.394Z</time>
      </trkpt>
      <trkpt lat="46.94039" lon="8.70686">
        <ele>1673</ele>
        <time>2021-08-06T11:55:12.394Z</time>
      </trkpt>
      <trkpt lat="46.94039" lon="8.70684">
        <ele>1673</ele>
        <time>2021-08-06T11:55:13.395Z</time>
      </trkpt>
      <trkpt lat="46.94039" lon="8.70682">
        <ele>1673</ele>
        <time>2021-08-06T11:55:14.394Z</time>
      </trkpt>
      <trkpt lat="46.94038" lon="8.70681">
        <ele>1673</ele>
        <time>2021-08-06T11:55:15.394Z</time>
      </trkpt>
      <trkpt lat="46.94038" lon="8.70679">
        <ele>1672</ele>
        <time>2021-08-06T11:55:16.395Z</time>
      </trkpt>
      <trkpt lat="46.94037" lon="8.70678">
        <ele>1672</ele>
        <time>2021-08-06T11:55:17.394Z</time>
      </trkpt>
      <trkpt lat="46.94036" lon="8.70677">
        <ele>1672</ele>
        <time>2021-08-06T11:55:18.394Z</time>
      </trkpt>
      <trkpt lat="46.94036" lon="8.70676">
        <ele>1672</ele>
        <time>2021-08-06T11:55:19.395Z</time>
      </trkpt>
      <trkpt lat="46.94035" lon="8.70675">
        <ele>1672</ele>
        <time>2021-08-06T11:55:20.394Z</time>
      </trkpt>
      <trkpt lat="46.94034" lon="8.70674">
        <ele>1672</ele>
        <time>2021-08-06T11:55:21.395Z</time>
      </trkpt>
      <trkpt lat="46.94033" lon="8.70673">
        <ele>1671</ele>
        <time>2021-08-06T11:55:22.394Z</time>
      </trkpt>
      <trkpt lat="46.94032" lon="8.70672">
        <ele>1671</ele>
        <time>2021-08-06T11:55:23.394Z</time>
      </trkpt>
      <trkpt lat="46.94031" lon="8.70671">
        <ele>1671</ele>
        <time>2021-08-06T11:55:24.394Z</time>
      </trkpt>
      <trkpt lat="46.9403" lon="8.7067">
        <ele>1670</ele>
        <time>2021-08-06T11:55:25.394Z</time>
      </trkpt>
      <trkpt lat="46.94029" lon="8.70669">
        <ele>1670</ele>
        <time>2021-08-06T11:55:26.394Z</time>
      </trkpt>
      <trkpt lat="46.94029" lon="8.70667">
        <ele>1670</ele>
        <time>2021-08-06T11:55:27.394Z</time>
      </trkpt>
      <trkpt lat="46.94028" lon="8.70666">
        <ele>1670</ele>
        <time>2021-08-06T11:55:28.394Z</time>
      </trkpt>
      <trkpt lat="46.94027" lon="8.70665">
        <ele>1669</ele>
        <time>2021-08-06T11:55:29.394Z</time>
      </trkpt>
      <trkpt lat="46.94026" lon="8.70664">
        <ele>1669</ele>
        <time>2021-08-06T11:55:30.395Z</time>
      </trkpt>
      <trkpt lat="46.94026" lon="8.70663">
        <ele>1669</ele>
        <time>2021-08-06T11:55:31.394Z</time>
      </trkpt>
      <trkpt lat="46.94025" lon="8.70661">
        <ele>1668</ele>
        <time>2021-08-06T11:55:32.395Z</time>
      </trkpt>
      <trkpt lat="46.94024" lon="8.7066">
        <ele>1668</ele>
        <time>2021-08-06T11:55:33.394Z</time>
      </trkpt>
      <trkpt lat="46.94024" lon="8.70659">
        <ele>1668</ele>
        <time>2021-08-06T11:55:34.394Z</time>
      </trkpt>
      <trkpt lat="46.94023" lon="8.70657">
        <ele>1667</ele>
        <time>2021-08-06T11:55:35.394Z</time>
      </trkpt>
      <trkpt lat="46.94023" lon="8.70656">
        <ele>1667</ele>
        <time>2021-08-06T11:55:36.394Z</time>
      </trkpt>
      <trkpt lat="46.94022" lon="8.70654">
        <ele>1667</ele>
        <time>2021-08-06T11:55:37.394Z</time>
      </trkpt>
      <trkpt lat="46.94022" lon="8.70653">
        <ele>1666</ele>
        <time>2021-08-06T11:55:38.394Z</time>
      </trkpt>
      <trkpt lat="46.94021" lon="8.70651">
        <ele>1666</ele>
        <time>2021-08-06T11:55:39.394Z</time>
      </trkpt>
      <trkpt lat="46.9402" lon="8.7065">
        <ele>1665</ele>
        <time>2021-08-06T11:55:40.394Z</time>
      </trkpt>
      <trkpt lat="46.94019" lon="8.70649">
        <ele>1665</ele>
        <time>2021-08-06T11:55:41.394Z</time>
      </trkpt>
      <trkpt lat="46.94018" lon="8.70647">
        <ele>1665</ele>
        <time>2021-08-06T11:55:42.394Z</time>
      </trkpt>
      <trkpt lat="46.94017" lon="8.70646">
        <ele>1665</ele>
        <time>2021-08-06T11:55:43.394Z</time>
      </trkpt>
      <trkpt lat="46.94016" lon="8.70645">
        <ele>1665</ele>
        <time>2021-08-06T11:55:44.394Z</time>
      </trkpt>
      <trkpt lat="46.94015" lon="8.70645">
        <ele>1665</ele>
        <time>2021-08-06T11:55:45.394Z</time>
      </trkpt>
      <trkpt lat="46.94014" lon="8.70644">
        <ele>1665</ele>
        <time>2021-08-06T11:55:46.394Z</time>
      </trkpt>
      <trkpt lat="46.94013" lon="8.70644">
        <ele>1666</ele>
        <time>2021-08-06T11:55:47.394Z</time>
      </trkpt>
      <trkpt lat="46.94012" lon="8.70643">
        <ele>1666</ele>
        <time>2021-08-06T11:55:48.394Z</time>
      </trkpt>
      <trkpt lat="46.94011" lon="8.70642">
        <ele>1666</ele>
        <time>2021-08-06T11:55:49.395Z</time>
      </trkpt>
      <trkpt lat="46.9401" lon="8.70641">
        <ele>1667</ele>
        <time>2021-08-06T11:55:50.395Z</time>
      </trkpt>
      <trkpt lat="46.94009" lon="8.7064">
        <ele>1667</ele>
        <time>2021-08-06T11:55:51.394Z</time>
      </trkpt>
      <trkpt lat="46.94008" lon="8.7064">
        <ele>1666</ele>
        <time>2021-08-06T11:55:52.394Z</time>
      </trkpt>
      <trkpt lat="46.94007" lon="8.70639">
        <ele>1666</ele>
        <time>2021-08-06T11:55:53.394Z</time>
      </trkpt>
      <trkpt lat="46.94006" lon="8.70638">
        <ele>1665</ele>
        <time>2021-08-06T11:55:54.394Z</time>
      </trkpt>
      <trkpt lat="46.94005" lon="8.70638">
        <ele>1665</ele>
        <time>2021-08-06T11:55:55.394Z</time>
      </trkpt>
      <trkpt lat="46.94004" lon="8.70637">
        <ele>1665</ele>
        <time>2021-08-06T11:55:56.394Z</time>
      </trkpt>
      <trkpt lat="46.94003" lon="8.70636">
        <ele>1665</ele>
        <time>2021-08-06T11:55:57.394Z</time>
      </trkpt>
      <trkpt lat="46.94002" lon="8.70636">
        <ele>1665</ele>
        <time>2021-08-06T11:55:58.394Z</time>
      </trkpt>
      <trkpt lat="46.94002" lon="8.70636">
        <ele>1665</ele>
        <time>2021-08-06T11:55:59.395Z</time>
      </trkpt>
      <trkpt lat="46.94001" lon="8.70635">
        <ele>1665</ele>
        <time>2021-08-06T11:56:00.394Z</time>
      </trkpt>
      <trkpt lat="46.94" lon="8.70635">
        <ele>1665</ele>
        <time>2021-08-06T11:56:01.394Z</time>
      </trkpt>
      <trkpt lat="46.93999" lon="8.70634">
        <ele>1665</ele>
        <time>2021-08-06T11:56:02.394Z</time>
      </trkpt>
      <trkpt lat="46.93998" lon="8.70633">
        <ele>1665</ele>
        <time>2021-08-06T11:56:03.394Z</time>
      </trkpt>
      <trkpt lat="46.93998" lon="8.70632">
        <ele>1665</ele>
        <time>2021-08-06T11:56:04.394Z</time>
      </trkpt>
      <trkpt lat="46.93997" lon="8.70631">
        <ele>1665</ele>
        <time>2021-08-06T11:56:05.394Z</time>
      </trkpt>
      <trkpt lat="46.93996" lon="8.70631">
        <ele>1665</ele>
        <time>2021-08-06T11:56:06.394Z</time>
      </trkpt>
      <trkpt lat="46.93995" lon="8.7063">
        <ele>1665</ele>
        <time>2021-08-06T11:56:07.394Z</time>
      </trkpt>
      <trkpt lat="46.93995" lon="8.70629">
        <ele>1665</ele>
        <time>2021-08-06T11:56:08.395Z</time>
      </trkpt>
      <trkpt lat="46.93994" lon="8.70629">
        <ele>1665</ele>
        <time>2021-08-06T11:56:09.395Z</time>
      </trkpt>
      <trkpt lat="46.93994" lon="8.70628">
        <ele>1666</ele>
        <time>2021-08-06T11:56:10.394Z</time>
      </trkpt>
      <trkpt lat="46.93993" lon="8.70628">
        <ele>1666</ele>
        <time>2021-08-06T11:56:11.394Z</time>
      </trkpt>
      <trkpt lat="46.93993" lon="8.70627">
        <ele>1666</ele>
        <time>2021-08-06T11:56:12.394Z</time>
      </trkpt>
      <trkpt lat="46.93992" lon="8.70626">
        <ele>1666</ele>
        <time>2021-08-06T11:56:13.394Z</time>
      </trkpt>
      <trkpt lat="46.93992" lon="8.70625">
        <ele>1666</ele>
        <time>2021-08-06T11:56:14.395Z</time>
      </trkpt>
      <trkpt lat="46.93992" lon="8.70624">
        <ele>1667</ele>
        <time>2021-08-06T11:56:19.508Z</time>
      </trkpt>
      <trkpt lat="46.93992" lon="8.70624">
        <ele>1667</ele>
        <time>2021-08-06T11:56:20.508Z</time>
      </trkpt>
      <trkpt lat="46.93992" lon="8.70623">
        <ele>1667</ele>
        <time>2021-08-06T11:56:21.509Z</time>
      </trkpt>
      <trkpt lat="46.93993" lon="8.70622">
        <ele>1667</ele>
        <time>2021-08-06T11:56:22.508Z</time>
      </trkpt>
      <trkpt lat="46.93993" lon="8.70621">
        <ele>1668</ele>
        <time>2021-08-06T11:56:23.508Z</time>
      </trkpt>
      <trkpt lat="46.93994" lon="8.7062">
        <ele>1668</ele>
        <time>2021-08-06T11:56:24.508Z</time>
      </trkpt>
      <trkpt lat="46.93994" lon="8.70618">
        <ele>1668</ele>
        <time>2021-08-06T11:56:25.508Z</time>
      </trkpt>
      <trkpt lat="46.93994" lon="8.70617">
        <ele>1669</ele>
        <time>2021-08-06T11:56:26.508Z</time>
      </trkpt>
      <trkpt lat="46.93994" lon="8.70616">
        <ele>1669</ele>
        <time>2021-08-06T11:56:27.508Z</time>
      </trkpt>
      <trkpt lat="46.93994" lon="8.70614">
        <ele>1669</ele>
        <time>2021-08-06T11:56:28.509Z</time>
      </trkpt>
      <trkpt lat="46.93994" lon="8.70613">
        <ele>1669</ele>
        <time>2021-08-06T11:56:29.509Z</time>
      </trkpt>
      <trkpt lat="46.93993" lon="8.70611">
        <ele>1669</ele>
        <time>2021-08-06T11:56:30.509Z</time>
      </trkpt>
      <trkpt lat="46.93992" lon="8.7061">
        <ele>1669</ele>
        <time>2021-08-06T11:56:31.508Z</time>
      </trkpt>
      <trkpt lat="46.93991" lon="8.70609">
        <ele>1669</ele>
        <time>2021-08-06T11:56:32.508Z</time>
      </trkpt>
      <trkpt lat="46.93991" lon="8.70608">
        <ele>1669</ele>
        <time>2021-08-06T11:56:33.508Z</time>
      </trkpt>
      <trkpt lat="46.9399" lon="8.70607">
        <ele>1669</ele>
        <time>2021-08-06T11:56:34.508Z</time>
      </trkpt>
      <trkpt lat="46.9399" lon="8.70606">
        <ele>1669</ele>
        <time>2021-08-06T11:56:35.508Z</time>
      </trkpt>
      <trkpt lat="46.93989" lon="8.70606">
        <ele>1669</ele>
        <time>2021-08-06T11:56:36.509Z</time>
      </trkpt>
      <trkpt lat="46.93988" lon="8.70605">
        <ele>1669</ele>
        <time>2021-08-06T11:56:37.508Z</time>
      </trkpt>
      <trkpt lat="46.93988" lon="8.70605">
        <ele>1669</ele>
        <time>2021-08-06T11:56:38.508Z</time>
      </trkpt>
      <trkpt lat="46.93987" lon="8.70604">
        <ele>1669</ele>
        <time>2021-08-06T11:56:39.508Z</time>
      </trkpt>
      <trkpt lat="46.93987" lon="8.70603">
        <ele>1669</ele>
        <time>2021-08-06T11:56:40.509Z</time>
      </trkpt>
      <trkpt lat="46.93987" lon="8.70602">
        <ele>1669</ele>
        <time>2021-08-06T11:56:41.508Z</time>
      </trkpt>
      <trkpt lat="46.93986" lon="8.70601">
        <ele>1669</ele>
        <time>2021-08-06T11:56:42.508Z</time>
      </trkpt>
      <trkpt lat="46.93986" lon="8.706">
        <ele>1669</ele>
        <time>2021-08-06T11:56:43.508Z</time>
      </trkpt>
      <trkpt lat="46.93986" lon="8.70599">
        <ele>1669</ele>
        <time>2021-08-06T11:56:44.509Z</time>
      </trkpt>
      <trkpt lat="46.93985" lon="8.70598">
        <ele>1669</ele>
        <time>2021-08-06T11:56:45.508Z</time>
      </trkpt>
      <trkpt lat="46.93984" lon="8.70597">
        <ele>1669</ele>
        <time>2021-08-06T11:56:46.508Z</time>
      </trkpt>
      <trkpt lat="46.93984" lon="8.70597">
        <ele>1669</ele>
        <time>2021-08-06T11:56:47.508Z</time>
      </trkpt>
      <trkpt lat="46.93983" lon="8.70596">
        <ele>1669</ele>
        <time>2021-08-06T11:56:48.508Z</time>
      </trkpt>
      <trkpt lat="46.93983" lon="8.70596">
        <ele>1669</ele>
        <time>2021-08-06T11:56:49.509Z</time>
      </trkpt>
      <trkpt lat="46.93982" lon="8.70595">
        <ele>1669</ele>
        <time>2021-08-06T11:56:50.508Z</time>
      </trkpt>
      <trkpt lat="46.93982" lon="8.70594">
        <ele>1669</ele>
        <time>2021-08-06T11:56:51.508Z</time>
      </trkpt>
      <trkpt lat="46.93981" lon="8.70593">
        <ele>1669</ele>
        <time>2021-08-06T11:56:52.509Z</time>
      </trkpt>
      <trkpt lat="46.93981" lon="8.70592">
        <ele>1669</ele>
        <time>2021-08-06T11:56:53.508Z</time>
      </trkpt>
      <trkpt lat="46.9398" lon="8.70591">
        <ele>1670</ele>
        <time>2021-08-06T11:56:54.508Z</time>
      </trkpt>
      <trkpt lat="46.9398" lon="8.7059">
        <ele>1670</ele>
        <time>2021-08-06T11:56:55.508Z</time>
      </trkpt>
      <trkpt lat="46.93979" lon="8.70589">
        <ele>1670</ele>
        <time>2021-08-06T11:56:56.508Z</time>
      </trkpt>
      <trkpt lat="46.93978" lon="8.70588">
        <ele>1670</ele>
        <time>2021-08-06T11:56:57.508Z</time>
      </trkpt>
      <trkpt lat="46.93978" lon="8.70587">
        <ele>1670</ele>
        <time>2021-08-06T11:56:58.508Z</time>
      </trkpt>
      <trkpt lat="46.93977" lon="8.70587">
        <ele>1670</ele>
        <time>2021-08-06T11:56:59.508Z</time>
      </trkpt>
      <trkpt lat="46.93976" lon="8.70587">
        <ele>1670</ele>
        <time>2021-08-06T11:57:00.508Z</time>
      </trkpt>
      <trkpt lat="46.93976" lon="8.70586">
        <ele>1671</ele>
        <time>2021-08-06T11:57:01.508Z</time>
      </trkpt>
      <trkpt lat="46.93975" lon="8.70586">
        <ele>1671</ele>
        <time>2021-08-06T11:57:02.509Z</time>
      </trkpt>
      <trkpt lat="46.93974" lon="8.70586">
        <ele>1671</ele>
        <time>2021-08-06T11:57:03.508Z</time>
      </trkpt>
      <trkpt lat="46.93973" lon="8.70586">
        <ele>1671</ele>
        <time>2021-08-06T11:57:04.508Z</time>
      </trkpt>
      <trkpt lat="46.93973" lon="8.70587">
        <ele>1671</ele>
        <time>2021-08-06T11:57:05.508Z</time>
      </trkpt>
      <trkpt lat="46.93972" lon="8.70586">
        <ele>1671</ele>
        <time>2021-08-06T11:57:06.509Z</time>
      </trkpt>
      <trkpt lat="46.93972" lon="8.70586">
        <ele>1671</ele>
        <time>2021-08-06T11:57:07.508Z</time>
      </trkpt>
      <trkpt lat="46.93971" lon="8.70586">
        <ele>1670</ele>
        <time>2021-08-06T11:57:08.508Z</time>
      </trkpt>
      <trkpt lat="46.93971" lon="8.70586">
        <ele>1670</ele>
        <time>2021-08-06T11:57:09.509Z</time>
      </trkpt>
      <trkpt lat="46.9397" lon="8.70585">
        <ele>1670</ele>
        <time>2021-08-06T11:57:10.508Z</time>
      </trkpt>
      <trkpt lat="46.9397" lon="8.70585">
        <ele>1670</ele>
        <time>2021-08-06T11:57:11.508Z</time>
      </trkpt>
      <trkpt lat="46.93969" lon="8.70584">
        <ele>1670</ele>
        <time>2021-08-06T11:57:12.509Z</time>
      </trkpt>
      <trkpt lat="46.93969" lon="8.70583">
        <ele>1670</ele>
        <time>2021-08-06T11:57:13.508Z</time>
      </trkpt>
      <trkpt lat="46.93968" lon="8.70583">
        <ele>1671</ele>
        <time>2021-08-06T11:57:14.508Z</time>
      </trkpt>
      <trkpt lat="46.93968" lon="8.70582">
        <ele>1671</ele>
        <time>2021-08-06T11:57:15.508Z</time>
      </trkpt>
      <trkpt lat="46.93967" lon="8.70581">
        <ele>1671</ele>
        <time>2021-08-06T11:57:16.508Z</time>
      </trkpt>
      <trkpt lat="46.93967" lon="8.7058">
        <ele>1671</ele>
        <time>2021-08-06T11:57:17.509Z</time>
      </trkpt>
      <trkpt lat="46.93967" lon="8.7058">
        <ele>1672</ele>
        <time>2021-08-06T11:57:18.508Z</time>
      </trkpt>
      <trkpt lat="46.93966" lon="8.70579">
        <ele>1672</ele>
        <time>2021-08-06T11:57:19.508Z</time>
      </trkpt>
      <trkpt lat="46.93965" lon="8.70578">
        <ele>1672</ele>
        <time>2021-08-06T11:57:20.508Z</time>
      </trkpt>
      <trkpt lat="46.93965" lon="8.70577">
        <ele>1672</ele>
        <time>2021-08-06T11:57:21.508Z</time>
      </trkpt>
      <trkpt lat="46.93965" lon="8.70576">
        <ele>1672</ele>
        <time>2021-08-06T11:57:22.509Z</time>
      </trkpt>
      <trkpt lat="46.93964" lon="8.70575">
        <ele>1672</ele>
        <time>2021-08-06T11:57:23.508Z</time>
      </trkpt>
      <trkpt lat="46.93964" lon="8.70574">
        <ele>1673</ele>
        <time>2021-08-06T11:57:24.509Z</time>
      </trkpt>
      <trkpt lat="46.93964" lon="8.70573">
        <ele>1673</ele>
        <time>2021-08-06T11:57:25.509Z</time>
      </trkpt>
      <trkpt lat="46.93963" lon="8.70572">
        <ele>1674</ele>
        <time>2021-08-06T11:57:26.509Z</time>
      </trkpt>
      <trkpt lat="46.93963" lon="8.70571">
        <ele>1674</ele>
        <time>2021-08-06T11:57:27.508Z</time>
      </trkpt>
      <trkpt lat="46.93963" lon="8.70571">
        <ele>1674</ele>
        <time>2021-08-06T11:57:28.508Z</time>
      </trkpt>
      <trkpt lat="46.93962" lon="8.7057">
        <ele>1674</ele>
        <time>2021-08-06T11:57:29.508Z</time>
      </trkpt>
      <trkpt lat="46.93962" lon="8.70569">
        <ele>1674</ele>
        <time>2021-08-06T11:57:30.508Z</time>
      </trkpt>
      <trkpt lat="46.93961" lon="8.70568">
        <ele>1674</ele>
        <time>2021-08-06T11:57:31.508Z</time>
      </trkpt>
      <trkpt lat="46.93961" lon="8.70566">
        <ele>1674</ele>
        <time>2021-08-06T11:57:32.508Z</time>
      </trkpt>
      <trkpt lat="46.93961" lon="8.70566">
        <ele>1674</ele>
        <time>2021-08-06T11:57:33.509Z</time>
      </trkpt>
      <trkpt lat="46.9396" lon="8.70565">
        <ele>1674</ele>
        <time>2021-08-06T11:57:34.508Z</time>
      </trkpt>
      <trkpt lat="46.9396" lon="8.70564">
        <ele>1674</ele>
        <time>2021-08-06T11:57:35.508Z</time>
      </trkpt>
      <trkpt lat="46.9396" lon="8.70564">
        <ele>1674</ele>
        <time>2021-08-06T11:57:36.508Z</time>
      </trkpt>
      <trkpt lat="46.93959" lon="8.70564">
        <ele>1674</ele>
        <time>2021-08-06T11:57:37.508Z</time>
      </trkpt>
      <trkpt lat="46.93959" lon="8.70563">
        <ele>1675</ele>
        <time>2021-08-06T11:57:38.508Z</time>
      </trkpt>
      <trkpt lat="46.93959" lon="8.70563">
        <ele>1675</ele>
        <time>2021-08-06T11:57:39.508Z</time>
      </trkpt>
      <trkpt lat="46.93958" lon="8.70562">
        <ele>1675</ele>
        <time>2021-08-06T11:57:40.508Z</time>
      </trkpt>
      <trkpt lat="46.93958" lon="8.70561">
        <ele>1675</ele>
        <time>2021-08-06T11:57:41.509Z</time>
      </trkpt>
      <trkpt lat="46.93957" lon="8.7056">
        <ele>1674</ele>
        <time>2021-08-06T11:57:42.509Z</time>
      </trkpt>
      <trkpt lat="46.93956" lon="8.7056">
        <ele>1674</ele>
        <time>2021-08-06T11:57:43.508Z</time>
      </trkpt>
      <trkpt lat="46.93955" lon="8.7056">
        <ele>1674</ele>
        <time>2021-08-06T11:57:44.508Z</time>
      </trkpt>
      <trkpt lat="46.93955" lon="8.7056">
        <ele>1674</ele>
        <time>2021-08-06T11:57:45.509Z</time>
      </trkpt>
      <trkpt lat="46.93955" lon="8.7056">
        <ele>1674</ele>
        <time>2021-08-06T11:57:46.508Z</time>
      </trkpt>
      <trkpt lat="46.93954" lon="8.7056">
        <ele>1674</ele>
        <time>2021-08-06T11:57:47.508Z</time>
      </trkpt>
      <trkpt lat="46.93954" lon="8.7056">
        <ele>1674</ele>
        <time>2021-08-06T11:57:48.508Z</time>
      </trkpt>
      <trkpt lat="46.93953" lon="8.7056">
        <ele>1673</ele>
        <time>2021-08-06T11:57:49.508Z</time>
      </trkpt>
      <trkpt lat="46.93953" lon="8.7056">
        <ele>1673</ele>
        <time>2021-08-06T11:57:50.508Z</time>
      </trkpt>
      <trkpt lat="46.93953" lon="8.70561">
        <ele>1673</ele>
        <time>2021-08-06T11:57:51.509Z</time>
      </trkpt>
      <trkpt lat="46.93952" lon="8.70562">
        <ele>1672</ele>
        <time>2021-08-06T11:57:52.508Z</time>
      </trkpt>
      <trkpt lat="46.93952" lon="8.70563">
        <ele>1672</ele>
        <time>2021-08-06T11:57:53.508Z</time>
      </trkpt>
      <trkpt lat="46.93952" lon="8.70564">
        <ele>1672</ele>
        <time>2021-08-06T11:57:54.508Z</time>
      </trkpt>
      <trkpt lat="46.93951" lon="8.70564">
        <ele>1672</ele>
        <time>2021-08-06T11:57:55.509Z</time>
      </trkpt>
      <trkpt lat="46.93951" lon="8.70564">
        <ele>1672</ele>
        <time>2021-08-06T11:57:56.508Z</time>
      </trkpt>
      <trkpt lat="46.9395" lon="8.70564">
        <ele>1672</ele>
        <time>2021-08-06T11:57:57.509Z</time>
      </trkpt>
      <trkpt lat="46.9395" lon="8.70564">
        <ele>1672</ele>
        <time>2021-08-06T11:57:58.509Z</time>
      </trkpt>
      <trkpt lat="46.93949" lon="8.70564">
        <ele>1672</ele>
        <time>2021-08-06T11:57:59.509Z</time>
      </trkpt>
      <trkpt lat="46.93948" lon="8.70563">
        <ele>1672</ele>
        <time>2021-08-06T11:58:00.509Z</time>
      </trkpt>
      <trkpt lat="46.93948" lon="8.70563">
        <ele>1672</ele>
        <time>2021-08-06T11:58:01.508Z</time>
      </trkpt>
      <trkpt lat="46.93948" lon="8.70563">
        <ele>1672</ele>
        <time>2021-08-06T11:58:02.509Z</time>
      </trkpt>
      <trkpt lat="46.93947" lon="8.70564">
        <ele>1673</ele>
        <time>2021-08-06T11:58:03.508Z</time>
      </trkpt>
      <trkpt lat="46.93947" lon="8.70565">
        <ele>1673</ele>
        <time>2021-08-06T11:58:04.508Z</time>
      </trkpt>
      <trkpt lat="46.93947" lon="8.70566">
        <ele>1673</ele>
        <time>2021-08-06T11:58:05.508Z</time>
      </trkpt>
      <trkpt lat="46.93947" lon="8.70566">
        <ele>1674</ele>
        <time>2021-08-06T11:58:06.508Z</time>
      </trkpt>
      <trkpt lat="46.93946" lon="8.70566">
        <ele>1674</ele>
        <time>2021-08-06T11:58:07.508Z</time>
      </trkpt>
      <trkpt lat="46.93946" lon="8.70565">
        <ele>1674</ele>
        <time>2021-08-06T11:58:08.508Z</time>
      </trkpt>
      <trkpt lat="46.93946" lon="8.70565">
        <ele>1675</ele>
        <time>2021-08-06T11:58:09.509Z</time>
      </trkpt>
      <trkpt lat="46.93945" lon="8.70565">
        <ele>1675</ele>
        <time>2021-08-06T11:58:10.508Z</time>
      </trkpt>
      <trkpt lat="46.93945" lon="8.70565">
        <ele>1675</ele>
        <time>2021-08-06T11:58:11.509Z</time>
      </trkpt>
      <trkpt lat="46.93945" lon="8.70565">
        <ele>1676</ele>
        <time>2021-08-06T11:58:12.509Z</time>
      </trkpt>
      <trkpt lat="46.93945" lon="8.70566">
        <ele>1676</ele>
        <time>2021-08-06T11:58:13.509Z</time>
      </trkpt>
      <trkpt lat="46.93944" lon="8.70566">
        <ele>1676</ele>
        <time>2021-08-06T11:58:14.508Z</time>
      </trkpt>
      <trkpt lat="46.93944" lon="8.70566">
        <ele>1677</ele>
        <time>2021-08-06T11:58:15.508Z</time>
      </trkpt>
      <trkpt lat="46.93943" lon="8.70566">
        <ele>1677</ele>
        <time>2021-08-06T11:58:16.508Z</time>
      </trkpt>
      <trkpt lat="46.93943" lon="8.70565">
        <ele>1677</ele>
        <time>2021-08-06T11:58:17.509Z</time>
      </trkpt>
      <trkpt lat="46.93942" lon="8.70563">
        <ele>1678</ele>
        <time>2021-08-06T11:58:18.508Z</time>
      </trkpt>
      <trkpt lat="46.93942" lon="8.70561">
        <ele>1678</ele>
        <time>2021-08-06T11:58:19.509Z</time>
      </trkpt>
      <trkpt lat="46.93941" lon="8.70561">
        <ele>1679</ele>
        <time>2021-08-06T11:58:20.508Z</time>
      </trkpt>
      <trkpt lat="46.93941" lon="8.7056">
        <ele>1679</ele>
        <time>2021-08-06T11:58:21.509Z</time>
      </trkpt>
      <trkpt lat="46.9394" lon="8.7056">
        <ele>1680</ele>
        <time>2021-08-06T11:58:22.508Z</time>
      </trkpt>
      <trkpt lat="46.93939" lon="8.7056">
        <ele>1680</ele>
        <time>2021-08-06T11:58:23.508Z</time>
      </trkpt>
      <trkpt lat="46.93939" lon="8.7056">
        <ele>1680</ele>
        <time>2021-08-06T11:58:24.508Z</time>
      </trkpt>
      <trkpt lat="46.93938" lon="8.7056">
        <ele>1681</ele>
        <time>2021-08-06T11:58:25.508Z</time>
      </trkpt>
      <trkpt lat="46.93938" lon="8.70559">
        <ele>1681</ele>
        <time>2021-08-06T11:58:26.508Z</time>
      </trkpt>
      <trkpt lat="46.93939" lon="8.70559">
        <ele>1681</ele>
        <time>2021-08-06T11:58:27.508Z</time>
      </trkpt>
      <trkpt lat="46.93939" lon="8.70558">
        <ele>1681</ele>
        <time>2021-08-06T11:58:28.508Z</time>
      </trkpt>
      <trkpt lat="46.93939" lon="8.70555">
        <ele>1681</ele>
        <time>2021-08-06T11:58:29.508Z</time>
      </trkpt>
      <trkpt lat="46.93939" lon="8.70553">
        <ele>1682</ele>
        <time>2021-08-06T11:58:30.508Z</time>
      </trkpt>
      <trkpt lat="46.9394" lon="8.70551">
        <ele>1682</ele>
        <time>2021-08-06T11:58:31.508Z</time>
      </trkpt>
      <trkpt lat="46.9394" lon="8.7055">
        <ele>1682</ele>
        <time>2021-08-06T11:58:32.508Z</time>
      </trkpt>
      <trkpt lat="46.9394" lon="8.70548">
        <ele>1682</ele>
        <time>2021-08-06T11:58:33.508Z</time>
      </trkpt>
      <trkpt lat="46.9394" lon="8.70547">
        <ele>1682</ele>
        <time>2021-08-06T11:58:34.509Z</time>
      </trkpt>
      <trkpt lat="46.9394" lon="8.70546">
        <ele>1682</ele>
        <time>2021-08-06T11:58:35.508Z</time>
      </trkpt>
      <trkpt lat="46.93939" lon="8.70545">
        <ele>1682</ele>
        <time>2021-08-06T11:58:36.508Z</time>
      </trkpt>
      <trkpt lat="46.93939" lon="8.70544">
        <ele>1682</ele>
        <time>2021-08-06T11:58:37.509Z</time>
      </trkpt>
      <trkpt lat="46.93939" lon="8.70543">
        <ele>1682</ele>
        <time>2021-08-06T11:58:38.508Z</time>
      </trkpt>
      <trkpt lat="46.93938" lon="8.70542">
        <ele>1682</ele>
        <time>2021-08-06T11:58:39.508Z</time>
      </trkpt>
      <trkpt lat="46.93939" lon="8.70541">
        <ele>1682</ele>
        <time>2021-08-06T11:58:40.509Z</time>
      </trkpt>
      <trkpt lat="46.93939" lon="8.7054">
        <ele>1682</ele>
        <time>2021-08-06T11:58:41.508Z</time>
      </trkpt>
      <trkpt lat="46.93939" lon="8.70539">
        <ele>1682</ele>
        <time>2021-08-06T11:58:42.508Z</time>
      </trkpt>
      <trkpt lat="46.93939" lon="8.70538">
        <ele>1682</ele>
        <time>2021-08-06T11:58:43.508Z</time>
      </trkpt>
      <trkpt lat="46.93939" lon="8.70537">
        <ele>1682</ele>
        <time>2021-08-06T11:58:44.508Z</time>
      </trkpt>
      <trkpt lat="46.93939" lon="8.70536">
        <ele>1682</ele>
        <time>2021-08-06T11:58:45.509Z</time>
      </trkpt>
      <trkpt lat="46.9394" lon="8.70534">
        <ele>1682</ele>
        <time>2021-08-06T11:58:46.508Z</time>
      </trkpt>
      <trkpt lat="46.9394" lon="8.70533">
        <ele>1683</ele>
        <time>2021-08-06T11:58:47.508Z</time>
      </trkpt>
      <trkpt lat="46.9394" lon="8.70532">
        <ele>1683</ele>
        <time>2021-08-06T11:58:48.508Z</time>
      </trkpt>
      <trkpt lat="46.9394" lon="8.70531">
        <ele>1683</ele>
        <time>2021-08-06T11:58:49.508Z</time>
      </trkpt>
      <trkpt lat="46.9394" lon="8.7053">
        <ele>1683</ele>
        <time>2021-08-06T11:58:50.508Z</time>
      </trkpt>
      <trkpt lat="46.9394" lon="8.70529">
        <ele>1682</ele>
        <time>2021-08-06T11:58:51.508Z</time>
      </trkpt>
      <trkpt lat="46.9394" lon="8.70528">
        <ele>1682</ele>
        <time>2021-08-06T11:58:52.508Z</time>
      </trkpt>
      <trkpt lat="46.9394" lon="8.70527">
        <ele>1682</ele>
        <time>2021-08-06T11:58:53.508Z</time>
      </trkpt>
      <trkpt lat="46.93939" lon="8.70525">
        <ele>1681</ele>
        <time>2021-08-06T11:58:54.508Z</time>
      </trkpt>
      <trkpt lat="46.93939" lon="8.70524">
        <ele>1681</ele>
        <time>2021-08-06T11:58:55.508Z</time>
      </trkpt>
      <trkpt lat="46.9394" lon="8.70523">
        <ele>1681</ele>
        <time>2021-08-06T11:58:56.508Z</time>
      </trkpt>
      <trkpt lat="46.9394" lon="8.70524">
        <ele>1681</ele>
        <time>2021-08-06T11:58:57.508Z</time>
      </trkpt>
      <trkpt lat="46.9394" lon="8.70523">
        <ele>1680</ele>
        <time>2021-08-06T11:58:58.509Z</time>
      </trkpt>
      <trkpt lat="46.9394" lon="8.70522">
        <ele>1680</ele>
        <time>2021-08-06T11:58:59.509Z</time>
      </trkpt>
      <trkpt lat="46.9394" lon="8.70521">
        <ele>1680</ele>
        <time>2021-08-06T11:59:00.508Z</time>
      </trkpt>
      <trkpt lat="46.9394" lon="8.7052">
        <ele>1680</ele>
        <time>2021-08-06T11:59:01.508Z</time>
      </trkpt>
      <trkpt lat="46.93941" lon="8.70519">
        <ele>1680</ele>
        <time>2021-08-06T11:59:02.508Z</time>
      </trkpt>
      <trkpt lat="46.93941" lon="8.70518">
        <ele>1680</ele>
        <time>2021-08-06T11:59:03.509Z</time>
      </trkpt>
      <trkpt lat="46.93941" lon="8.70517">
        <ele>1680</ele>
        <time>2021-08-06T11:59:04.508Z</time>
      </trkpt>
      <trkpt lat="46.93941" lon="8.70516">
        <ele>1680</ele>
        <time>2021-08-06T11:59:05.508Z</time>
      </trkpt>
      <trkpt lat="46.93942" lon="8.70514">
        <ele>1679</ele>
        <time>2021-08-06T11:59:06.508Z</time>
      </trkpt>
      <trkpt lat="46.93942" lon="8.70513">
        <ele>1679</ele>
        <time>2021-08-06T11:59:07.509Z</time>
      </trkpt>
      <trkpt lat="46.93942" lon="8.70513">
        <ele>1679</ele>
        <time>2021-08-06T11:59:08.509Z</time>
      </trkpt>
      <trkpt lat="46.93942" lon="8.70511">
        <ele>1679</ele>
        <time>2021-08-06T11:59:09.509Z</time>
      </trkpt>
      <trkpt lat="46.93942" lon="8.7051">
        <ele>1679</ele>
        <time>2021-08-06T11:59:10.509Z</time>
      </trkpt>
      <trkpt lat="46.93942" lon="8.70509">
        <ele>1679</ele>
        <time>2021-08-06T11:59:11.508Z</time>
      </trkpt>
      <trkpt lat="46.93942" lon="8.70508">
        <ele>1679</ele>
        <time>2021-08-06T11:59:12.508Z</time>
      </trkpt>
      <trkpt lat="46.93942" lon="8.70506">
        <ele>1679</ele>
        <time>2021-08-06T11:59:13.508Z</time>
      </trkpt>
      <trkpt lat="46.93942" lon="8.70505">
        <ele>1679</ele>
        <time>2021-08-06T11:59:14.508Z</time>
      </trkpt>
      <trkpt lat="46.93943" lon="8.70503">
        <ele>1679</ele>
        <time>2021-08-06T11:59:15.508Z</time>
      </trkpt>
      <trkpt lat="46.93943" lon="8.70502">
        <ele>1679</ele>
        <time>2021-08-06T11:59:16.508Z</time>
      </trkpt>
      <trkpt lat="46.93943" lon="8.705">
        <ele>1678</ele>
        <time>2021-08-06T11:59:17.509Z</time>
      </trkpt>
      <trkpt lat="46.93943" lon="8.70499">
        <ele>1678</ele>
        <time>2021-08-06T11:59:18.508Z</time>
      </trkpt>
      <trkpt lat="46.93943" lon="8.70497">
        <ele>1677</ele>
        <time>2021-08-06T11:59:19.509Z</time>
      </trkpt>
      <trkpt lat="46.93944" lon="8.70496">
        <ele>1677</ele>
        <time>2021-08-06T11:59:20.508Z</time>
      </trkpt>
      <trkpt lat="46.93943" lon="8.70495">
        <ele>1676</ele>
        <time>2021-08-06T11:59:21.508Z</time>
      </trkpt>
      <trkpt lat="46.93943" lon="8.70494">
        <ele>1676</ele>
        <time>2021-08-06T11:59:22.509Z</time>
      </trkpt>
      <trkpt lat="46.93943" lon="8.70493">
        <ele>1675</ele>
        <time>2021-08-06T11:59:23.508Z</time>
      </trkpt>
      <trkpt lat="46.93943" lon="8.70491">
        <ele>1675</ele>
        <time>2021-08-06T11:59:24.508Z</time>
      </trkpt>
      <trkpt lat="46.93943" lon="8.7049">
        <ele>1675</ele>
        <time>2021-08-06T11:59:25.508Z</time>
      </trkpt>
      <trkpt lat="46.93942" lon="8.70488">
        <ele>1674</ele>
        <time>2021-08-06T11:59:26.509Z</time>
      </trkpt>
      <trkpt lat="46.93942" lon="8.70488">
        <ele>1674</ele>
        <time>2021-08-06T11:59:27.509Z</time>
      </trkpt>
      <trkpt lat="46.93941" lon="8.70487">
        <ele>1674</ele>
        <time>2021-08-06T11:59:28.508Z</time>
      </trkpt>
      <trkpt lat="46.9394" lon="8.70486">
        <ele>1673</ele>
        <time>2021-08-06T11:59:29.509Z</time>
      </trkpt>
      <trkpt lat="46.93939" lon="8.70486">
        <ele>1673</ele>
        <time>2021-08-06T11:59:30.508Z</time>
      </trkpt>
      <trkpt lat="46.93938" lon="8.70485">
        <ele>1673</ele>
        <time>2021-08-06T11:59:31.508Z</time>
      </trkpt>
      <trkpt lat="46.93937" lon="8.70484">
        <ele>1673</ele>
        <time>2021-08-06T11:59:32.509Z</time>
      </trkpt>
      <trkpt lat="46.93936" lon="8.70483">
        <ele>1672</ele>
        <time>2021-08-06T11:59:33.508Z</time>
      </trkpt>
      <trkpt lat="46.93935" lon="8.70483">
        <ele>1672</ele>
        <time>2021-08-06T11:59:34.508Z</time>
      </trkpt>
      <trkpt lat="46.93934" lon="8.70482">
        <ele>1672</ele>
        <time>2021-08-06T11:59:35.508Z</time>
      </trkpt>
      <trkpt lat="46.93933" lon="8.70481">
        <ele>1671</ele>
        <time>2021-08-06T11:59:36.508Z</time>
      </trkpt>
      <trkpt lat="46.93932" lon="8.7048">
        <ele>1671</ele>
        <time>2021-08-06T11:59:37.508Z</time>
      </trkpt>
      <trkpt lat="46.93931" lon="8.70479">
        <ele>1671</ele>
        <time>2021-08-06T11:59:38.509Z</time>
      </trkpt>
      <trkpt lat="46.9393" lon="8.70478">
        <ele>1671</ele>
        <time>2021-08-06T11:59:39.508Z</time>
      </trkpt>
      <trkpt lat="46.93929" lon="8.70478">
        <ele>1671</ele>
        <time>2021-08-06T11:59:40.509Z</time>
      </trkpt>
      <trkpt lat="46.93927" lon="8.70477">
        <ele>1670</ele>
        <time>2021-08-06T11:59:41.509Z</time>
      </trkpt>
      <trkpt lat="46.93926" lon="8.70476">
        <ele>1670</ele>
        <time>2021-08-06T11:59:42.509Z</time>
      </trkpt>
      <trkpt lat="46.93926" lon="8.70475">
        <ele>1670</ele>
        <time>2021-08-06T11:59:43.508Z</time>
      </trkpt>
      <trkpt lat="46.93925" lon="8.70474">
        <ele>1670</ele>
        <time>2021-08-06T11:59:44.508Z</time>
      </trkpt>
      <trkpt lat="46.93924" lon="8.70473">
        <ele>1669</ele>
        <time>2021-08-06T11:59:45.508Z</time>
      </trkpt>
      <trkpt lat="46.93923" lon="8.70472">
        <ele>1669</ele>
        <time>2021-08-06T11:59:46.508Z</time>
      </trkpt>
      <trkpt lat="46.93922" lon="8.7047">
        <ele>1669</ele>
        <time>2021-08-06T11:59:47.509Z</time>
      </trkpt>
      <trkpt lat="46.93922" lon="8.70469">
        <ele>1669</ele>
        <time>2021-08-06T11:59:48.509Z</time>
      </trkpt>
      <trkpt lat="46.93922" lon="8.70468">
        <ele>1670</ele>
        <time>2021-08-06T11:59:49.508Z</time>
      </trkpt>
      <trkpt lat="46.93921" lon="8.70467">
        <ele>1670</ele>
        <time>2021-08-06T11:59:50.508Z</time>
      </trkpt>
      <trkpt lat="46.93921" lon="8.70466">
        <ele>1671</ele>
        <time>2021-08-06T11:59:51.508Z</time>
      </trkpt>
      <trkpt lat="46.9392" lon="8.70464">
        <ele>1671</ele>
        <time>2021-08-06T11:59:52.508Z</time>
      </trkpt>
      <trkpt lat="46.9392" lon="8.70463">
        <ele>1671</ele>
        <time>2021-08-06T11:59:53.508Z</time>
      </trkpt>
      <trkpt lat="46.93919" lon="8.70462">
        <ele>1672</ele>
        <time>2021-08-06T11:59:54.508Z</time>
      </trkpt>
      <trkpt lat="46.93919" lon="8.70461">
        <ele>1672</ele>
        <time>2021-08-06T11:59:55.508Z</time>
      </trkpt>
      <trkpt lat="46.93918" lon="8.7046">
        <ele>1672</ele>
        <time>2021-08-06T11:59:56.509Z</time>
      </trkpt>
      <trkpt lat="46.93918" lon="8.70459">
        <ele>1672</ele>
        <time>2021-08-06T11:59:57.508Z</time>
      </trkpt>
      <trkpt lat="46.93917" lon="8.70458">
        <ele>1672</ele>
        <time>2021-08-06T11:59:58.508Z</time>
      </trkpt>
      <trkpt lat="46.93916" lon="8.70457">
        <ele>1673</ele>
        <time>2021-08-06T11:59:59.508Z</time>
      </trkpt>
      <trkpt lat="46.93915" lon="8.70456">
        <ele>1672</ele>
        <time>2021-08-06T12:00:00.508Z</time>
      </trkpt>
      <trkpt lat="46.93915" lon="8.70455">
        <ele>1672</ele>
        <time>2021-08-06T12:00:01.508Z</time>
      </trkpt>
      <trkpt lat="46.93914" lon="8.70454">
        <ele>1672</ele>
        <time>2021-08-06T12:00:02.508Z</time>
      </trkpt>
      <trkpt lat="46.93914" lon="8.70453">
        <ele>1672</ele>
        <time>2021-08-06T12:00:03.508Z</time>
      </trkpt>
      <trkpt lat="46.93913" lon="8.70452">
        <ele>1672</ele>
        <time>2021-08-06T12:00:04.508Z</time>
      </trkpt>
      <trkpt lat="46.93913" lon="8.7045">
        <ele>1672</ele>
        <time>2021-08-06T12:00:05.508Z</time>
      </trkpt>
      <trkpt lat="46.93912" lon="8.70448">
        <ele>1672</ele>
        <time>2021-08-06T12:00:06.508Z</time>
      </trkpt>
      <trkpt lat="46.93912" lon="8.70447">
        <ele>1673</ele>
        <time>2021-08-06T12:00:07.509Z</time>
      </trkpt>
      <trkpt lat="46.93912" lon="8.70445">
        <ele>1672</ele>
        <time>2021-08-06T12:00:08.508Z</time>
      </trkpt>
      <trkpt lat="46.93912" lon="8.70444">
        <ele>1672</ele>
        <time>2021-08-06T12:00:09.508Z</time>
      </trkpt>
      <trkpt lat="46.93912" lon="8.70443">
        <ele>1673</ele>
        <time>2021-08-06T12:00:10.508Z</time>
      </trkpt>
      <trkpt lat="46.93911" lon="8.70441">
        <ele>1673</ele>
        <time>2021-08-06T12:00:11.509Z</time>
      </trkpt>
      <trkpt lat="46.93911" lon="8.7044">
        <ele>1673</ele>
        <time>2021-08-06T12:00:12.508Z</time>
      </trkpt>
      <trkpt lat="46.93911" lon="8.70439">
        <ele>1674</ele>
        <time>2021-08-06T12:00:13.509Z</time>
      </trkpt>
      <trkpt lat="46.93911" lon="8.70437">
        <ele>1674</ele>
        <time>2021-08-06T12:00:14.508Z</time>
      </trkpt>
      <trkpt lat="46.93911" lon="8.70435">
        <ele>1674</ele>
        <time>2021-08-06T12:00:15.508Z</time>
      </trkpt>
      <trkpt lat="46.93911" lon="8.70434">
        <ele>1674</ele>
        <time>2021-08-06T12:00:16.508Z</time>
      </trkpt>
      <trkpt lat="46.93911" lon="8.70433">
        <ele>1674</ele>
        <time>2021-08-06T12:00:17.509Z</time>
      </trkpt>
      <trkpt lat="46.93912" lon="8.70432">
        <ele>1674</ele>
        <time>2021-08-06T12:00:18.509Z</time>
      </trkpt>
      <trkpt lat="46.93912" lon="8.70431">
        <ele>1674</ele>
        <time>2021-08-06T12:00:19.508Z</time>
      </trkpt>
      <trkpt lat="46.93913" lon="8.70431">
        <ele>1674</ele>
        <time>2021-08-06T12:00:20.508Z</time>
      </trkpt>
      <trkpt lat="46.93914" lon="8.7043">
        <ele>1674</ele>
        <time>2021-08-06T12:00:21.508Z</time>
      </trkpt>
      <trkpt lat="46.93914" lon="8.70429">
        <ele>1674</ele>
        <time>2021-08-06T12:00:22.508Z</time>
      </trkpt>
      <trkpt lat="46.93915" lon="8.70428">
        <ele>1674</ele>
        <time>2021-08-06T12:00:23.508Z</time>
      </trkpt>
      <trkpt lat="46.93916" lon="8.70427">
        <ele>1675</ele>
        <time>2021-08-06T12:00:24.508Z</time>
      </trkpt>
      <trkpt lat="46.93916" lon="8.70426">
        <ele>1675</ele>
        <time>2021-08-06T12:00:25.508Z</time>
      </trkpt>
      <trkpt lat="46.93917" lon="8.70426">
        <ele>1676</ele>
        <time>2021-08-06T12:00:26.509Z</time>
      </trkpt>
      <trkpt lat="46.93918" lon="8.70425">
        <ele>1676</ele>
        <time>2021-08-06T12:00:27.509Z</time>
      </trkpt>
      <trkpt lat="46.93919" lon="8.70424">
        <ele>1677</ele>
        <time>2021-08-06T12:00:28.509Z</time>
      </trkpt>
      <trkpt lat="46.9392" lon="8.70423">
        <ele>1678</ele>
        <time>2021-08-06T12:00:29.509Z</time>
      </trkpt>
      <trkpt lat="46.93921" lon="8.70422">
        <ele>1679</ele>
        <time>2021-08-06T12:00:30.508Z</time>
      </trkpt>
      <trkpt lat="46.93922" lon="8.70422">
        <ele>1680</ele>
        <time>2021-08-06T12:00:31.508Z</time>
      </trkpt>
      <trkpt lat="46.93922" lon="8.70421">
        <ele>1681</ele>
        <time>2021-08-06T12:00:32.508Z</time>
      </trkpt>
      <trkpt lat="46.93924" lon="8.7042">
        <ele>1682</ele>
        <time>2021-08-06T12:00:33.508Z</time>
      </trkpt>
      <trkpt lat="46.93924" lon="8.70419">
        <ele>1684</ele>
        <time>2021-08-06T12:00:34.509Z</time>
      </trkpt>
      <trkpt lat="46.93925" lon="8.70419">
        <ele>1685</ele>
        <time>2021-08-06T12:00:35.508Z</time>
      </trkpt>
      <trkpt lat="46.93926" lon="8.70418">
        <ele>1686</ele>
        <time>2021-08-06T12:00:36.508Z</time>
      </trkpt>
      <trkpt lat="46.93928" lon="8.70418">
        <ele>1687</ele>
        <time>2021-08-06T12:00:37.508Z</time>
      </trkpt>
      <trkpt lat="46.93929" lon="8.70417">
        <ele>1688</ele>
        <time>2021-08-06T12:00:38.508Z</time>
      </trkpt>
      <trkpt lat="46.9393" lon="8.70417">
        <ele>1689</ele>
        <time>2021-08-06T12:00:39.508Z</time>
      </trkpt>
      <trkpt lat="46.93931" lon="8.70416">
        <ele>1690</ele>
        <time>2021-08-06T12:00:40.508Z</time>
      </trkpt>
      <trkpt lat="46.93932" lon="8.70415">
        <ele>1691</ele>
        <time>2021-08-06T12:00:41.509Z</time>
      </trkpt>
      <trkpt lat="46.93933" lon="8.70414">
        <ele>1692</ele>
        <time>2021-08-06T12:00:42.508Z</time>
      </trkpt>
      <trkpt lat="46.93933" lon="8.70414">
        <ele>1692</ele>
        <time>2021-08-06T12:00:43.509Z</time>
      </trkpt>
      <trkpt lat="46.93934" lon="8.70413">
        <ele>1693</ele>
        <time>2021-08-06T12:00:44.508Z</time>
      </trkpt>
      <trkpt lat="46.93936" lon="8.70413">
        <ele>1693</ele>
        <time>2021-08-06T12:00:45.508Z</time>
      </trkpt>
      <trkpt lat="46.93937" lon="8.70413">
        <ele>1694</ele>
        <time>2021-08-06T12:00:46.508Z</time>
      </trkpt>
      <trkpt lat="46.93939" lon="8.70413">
        <ele>1694</ele>
        <time>2021-08-06T12:00:47.508Z</time>
      </trkpt>
      <trkpt lat="46.9394" lon="8.70412">
        <ele>1695</ele>
        <time>2021-08-06T12:00:48.508Z</time>
      </trkpt>
      <trkpt lat="46.93941" lon="8.70412">
        <ele>1696</ele>
        <time>2021-08-06T12:00:49.509Z</time>
      </trkpt>
      <trkpt lat="46.93942" lon="8.70411">
        <ele>1696</ele>
        <time>2021-08-06T12:00:50.508Z</time>
      </trkpt>
      <trkpt lat="46.93942" lon="8.7041">
        <ele>1696</ele>
        <time>2021-08-06T12:00:51.508Z</time>
      </trkpt>
      <trkpt lat="46.93942" lon="8.70409">
        <ele>1696</ele>
        <time>2021-08-06T12:00:52.508Z</time>
      </trkpt>
      <trkpt lat="46.93941" lon="8.70408">
        <ele>1696</ele>
        <time>2021-08-06T12:00:53.508Z</time>
      </trkpt>
      <trkpt lat="46.9394" lon="8.70407">
        <ele>1695</ele>
        <time>2021-08-06T12:00:54.508Z</time>
      </trkpt>
      <trkpt lat="46.9394" lon="8.70406">
        <ele>1694</ele>
        <time>2021-08-06T12:00:55.509Z</time>
      </trkpt>
      <trkpt lat="46.9394" lon="8.70404">
        <ele>1693</ele>
        <time>2021-08-06T12:00:56.508Z</time>
      </trkpt>
      <trkpt lat="46.9394" lon="8.70403">
        <ele>1692</ele>
        <time>2021-08-06T12:00:57.508Z</time>
      </trkpt>
      <trkpt lat="46.9394" lon="8.70403">
        <ele>1691</ele>
        <time>2021-08-06T12:00:58.508Z</time>
      </trkpt>
      <trkpt lat="46.93941" lon="8.70402">
        <ele>1690</ele>
        <time>2021-08-06T12:00:59.508Z</time>
      </trkpt>
      <trkpt lat="46.93941" lon="8.70401">
        <ele>1689</ele>
        <time>2021-08-06T12:01:00.508Z</time>
      </trkpt>
      <trkpt lat="46.93941" lon="8.704">
        <ele>1689</ele>
        <time>2021-08-06T12:01:01.508Z</time>
      </trkpt>
      <trkpt lat="46.93941" lon="8.70399">
        <ele>1688</ele>
        <time>2021-08-06T12:01:02.508Z</time>
      </trkpt>
      <trkpt lat="46.93941" lon="8.70398">
        <ele>1687</ele>
        <time>2021-08-06T12:01:03.509Z</time>
      </trkpt>
      <trkpt lat="46.93941" lon="8.70397">
        <ele>1686</ele>
        <time>2021-08-06T12:01:04.508Z</time>
      </trkpt>
      <trkpt lat="46.93941" lon="8.70396">
        <ele>1686</ele>
        <time>2021-08-06T12:01:05.508Z</time>
      </trkpt>
      <trkpt lat="46.9394" lon="8.70396">
        <ele>1685</ele>
        <time>2021-08-06T12:01:06.508Z</time>
      </trkpt>
      <trkpt lat="46.93939" lon="8.70395">
        <ele>1684</ele>
        <time>2021-08-06T12:01:07.508Z</time>
      </trkpt>
      <trkpt lat="46.93939" lon="8.70394">
        <ele>1684</ele>
        <time>2021-08-06T12:01:08.508Z</time>
      </trkpt>
      <trkpt lat="46.9394" lon="8.70393">
        <ele>1684</ele>
        <time>2021-08-06T12:01:09.508Z</time>
      </trkpt>
      <trkpt lat="46.9394" lon="8.70392">
        <ele>1684</ele>
        <time>2021-08-06T12:01:10.509Z</time>
      </trkpt>
      <trkpt lat="46.9394" lon="8.70391">
        <ele>1683</ele>
        <time>2021-08-06T12:01:11.508Z</time>
      </trkpt>
      <trkpt lat="46.93939" lon="8.70389">
        <ele>1683</ele>
        <time>2021-08-06T12:01:12.508Z</time>
      </trkpt>
      <trkpt lat="46.9394" lon="8.70388">
        <ele>1683</ele>
        <time>2021-08-06T12:01:13.509Z</time>
      </trkpt>
      <trkpt lat="46.9394" lon="8.70388">
        <ele>1683</ele>
        <time>2021-08-06T12:01:14.508Z</time>
      </trkpt>
      <trkpt lat="46.93941" lon="8.70387">
        <ele>1683</ele>
        <time>2021-08-06T12:01:15.508Z</time>
      </trkpt>
      <trkpt lat="46.93941" lon="8.70385">
        <ele>1683</ele>
        <time>2021-08-06T12:01:16.508Z</time>
      </trkpt>
      <trkpt lat="46.9394" lon="8.70384">
        <ele>1683</ele>
        <time>2021-08-06T12:01:17.508Z</time>
      </trkpt>
      <trkpt lat="46.9394" lon="8.70384">
        <ele>1683</ele>
        <time>2021-08-06T12:01:18.508Z</time>
      </trkpt>
      <trkpt lat="46.9394" lon="8.70382">
        <ele>1683</ele>
        <time>2021-08-06T12:01:19.508Z</time>
      </trkpt>
      <trkpt lat="46.93939" lon="8.70381">
        <ele>1683</ele>
        <time>2021-08-06T12:01:20.508Z</time>
      </trkpt>
      <trkpt lat="46.93939" lon="8.7038">
        <ele>1682</ele>
        <time>2021-08-06T12:01:21.508Z</time>
      </trkpt>
      <trkpt lat="46.93938" lon="8.7038">
        <ele>1682</ele>
        <time>2021-08-06T12:01:22.508Z</time>
      </trkpt>
      <trkpt lat="46.93938" lon="8.7038">
        <ele>1682</ele>
        <time>2021-08-06T12:01:23.509Z</time>
      </trkpt>
      <trkpt lat="46.93935" lon="8.70379">
        <ele>1685</ele>
        <time>2021-08-06T12:01:24.510Z</time>
      </trkpt>
      <trkpt lat="46.93935" lon="8.70379">
        <ele>1685</ele>
        <time>2021-08-06T12:01:25.509Z</time>
      </trkpt>
      <trkpt lat="46.93935" lon="8.70378">
        <ele>1684</ele>
        <time>2021-08-06T12:01:26.509Z</time>
      </trkpt>
      <trkpt lat="46.93935" lon="8.70377">
        <ele>1684</ele>
        <time>2021-08-06T12:01:27.509Z</time>
      </trkpt>
      <trkpt lat="46.93934" lon="8.70376">
        <ele>1684</ele>
        <time>2021-08-06T12:01:28.509Z</time>
      </trkpt>
      <trkpt lat="46.93933" lon="8.70375">
        <ele>1684</ele>
        <time>2021-08-06T12:01:29.509Z</time>
      </trkpt>
      <trkpt lat="46.93932" lon="8.70374">
        <ele>1684</ele>
        <time>2021-08-06T12:01:30.509Z</time>
      </trkpt>
      <trkpt lat="46.93931" lon="8.70373">
        <ele>1683</ele>
        <time>2021-08-06T12:01:31.509Z</time>
      </trkpt>
      <trkpt lat="46.9393" lon="8.70373">
        <ele>1683</ele>
        <time>2021-08-06T12:01:32.509Z</time>
      </trkpt>
      <trkpt lat="46.93929" lon="8.70372">
        <ele>1682</ele>
        <time>2021-08-06T12:01:33.509Z</time>
      </trkpt>
      <trkpt lat="46.93928" lon="8.70372">
        <ele>1682</ele>
        <time>2021-08-06T12:01:34.509Z</time>
      </trkpt>
      <trkpt lat="46.93928" lon="8.70371">
        <ele>1682</ele>
        <time>2021-08-06T12:01:35.510Z</time>
      </trkpt>
      <trkpt lat="46.93927" lon="8.7037">
        <ele>1682</ele>
        <time>2021-08-06T12:01:36.509Z</time>
      </trkpt>
      <trkpt lat="46.93926" lon="8.70369">
        <ele>1682</ele>
        <time>2021-08-06T12:01:37.509Z</time>
      </trkpt>
      <trkpt lat="46.93925" lon="8.70368">
        <ele>1683</ele>
        <time>2021-08-06T12:01:38.509Z</time>
      </trkpt>
      <trkpt lat="46.93924" lon="8.70367">
        <ele>1682</ele>
        <time>2021-08-06T12:01:39.509Z</time>
      </trkpt>
      <trkpt lat="46.93924" lon="8.70367">
        <ele>1682</ele>
        <time>2021-08-06T12:01:40.509Z</time>
      </trkpt>
      <trkpt lat="46.93923" lon="8.70366">
        <ele>1682</ele>
        <time>2021-08-06T12:01:41.509Z</time>
      </trkpt>
      <trkpt lat="46.93922" lon="8.70365">
        <ele>1681</ele>
        <time>2021-08-06T12:01:42.509Z</time>
      </trkpt>
      <trkpt lat="46.93921" lon="8.70364">
        <ele>1681</ele>
        <time>2021-08-06T12:01:43.509Z</time>
      </trkpt>
      <trkpt lat="46.93921" lon="8.70363">
        <ele>1680</ele>
        <time>2021-08-06T12:01:44.509Z</time>
      </trkpt>
      <trkpt lat="46.9392" lon="8.70362">
        <ele>1680</ele>
        <time>2021-08-06T12:01:45.509Z</time>
      </trkpt>
      <trkpt lat="46.93919" lon="8.70361">
        <ele>1680</ele>
        <time>2021-08-06T12:01:46.509Z</time>
      </trkpt>
      <trkpt lat="46.93919" lon="8.70359">
        <ele>1681</ele>
        <time>2021-08-06T12:01:47.509Z</time>
      </trkpt>
      <trkpt lat="46.93918" lon="8.70358">
        <ele>1681</ele>
        <time>2021-08-06T12:01:48.510Z</time>
      </trkpt>
      <trkpt lat="46.93917" lon="8.70357">
        <ele>1681</ele>
        <time>2021-08-06T12:01:49.510Z</time>
      </trkpt>
      <trkpt lat="46.93916" lon="8.70356">
        <ele>1682</ele>
        <time>2021-08-06T12:01:50.509Z</time>
      </trkpt>
      <trkpt lat="46.93915" lon="8.70355">
        <ele>1682</ele>
        <time>2021-08-06T12:01:51.509Z</time>
      </trkpt>
      <trkpt lat="46.93915" lon="8.70354">
        <ele>1682</ele>
        <time>2021-08-06T12:01:52.509Z</time>
      </trkpt>
      <trkpt lat="46.93914" lon="8.70354">
        <ele>1682</ele>
        <time>2021-08-06T12:01:53.509Z</time>
      </trkpt>
      <trkpt lat="46.93914" lon="8.70353">
        <ele>1682</ele>
        <time>2021-08-06T12:01:54.509Z</time>
      </trkpt>
      <trkpt lat="46.93913" lon="8.70353">
        <ele>1682</ele>
        <time>2021-08-06T12:01:55.509Z</time>
      </trkpt>
      <trkpt lat="46.93912" lon="8.70352">
        <ele>1682</ele>
        <time>2021-08-06T12:01:56.509Z</time>
      </trkpt>
      <trkpt lat="46.93912" lon="8.70351">
        <ele>1682</ele>
        <time>2021-08-06T12:01:57.509Z</time>
      </trkpt>
      <trkpt lat="46.93911" lon="8.7035">
        <ele>1682</ele>
        <time>2021-08-06T12:01:58.509Z</time>
      </trkpt>
      <trkpt lat="46.9391" lon="8.7035">
        <ele>1683</ele>
        <time>2021-08-06T12:01:59.509Z</time>
      </trkpt>
      <trkpt lat="46.93909" lon="8.70349">
        <ele>1683</ele>
        <time>2021-08-06T12:02:00.509Z</time>
      </trkpt>
      <trkpt lat="46.93909" lon="8.70349">
        <ele>1683</ele>
        <time>2021-08-06T12:02:01.509Z</time>
      </trkpt>
      <trkpt lat="46.93908" lon="8.70348">
        <ele>1683</ele>
        <time>2021-08-06T12:02:02.509Z</time>
      </trkpt>
      <trkpt lat="46.93907" lon="8.70348">
        <ele>1684</ele>
        <time>2021-08-06T12:02:03.509Z</time>
      </trkpt>
      <trkpt lat="46.93906" lon="8.70348">
        <ele>1684</ele>
        <time>2021-08-06T12:02:04.509Z</time>
      </trkpt>
      <trkpt lat="46.93905" lon="8.70347">
        <ele>1684</ele>
        <time>2021-08-06T12:02:05.509Z</time>
      </trkpt>
      <trkpt lat="46.93904" lon="8.70347">
        <ele>1683</ele>
        <time>2021-08-06T12:02:06.509Z</time>
      </trkpt>
      <trkpt lat="46.93903" lon="8.70346">
        <ele>1683</ele>
        <time>2021-08-06T12:02:07.509Z</time>
      </trkpt>
      <trkpt lat="46.93902" lon="8.70346">
        <ele>1682</ele>
        <time>2021-08-06T12:02:08.509Z</time>
      </trkpt>
      <trkpt lat="46.93901" lon="8.70345">
        <ele>1682</ele>
        <time>2021-08-06T12:02:09.509Z</time>
      </trkpt>
      <trkpt lat="46.939" lon="8.70344">
        <ele>1682</ele>
        <time>2021-08-06T12:02:10.509Z</time>
      </trkpt>
      <trkpt lat="46.93899" lon="8.70343">
        <ele>1682</ele>
        <time>2021-08-06T12:02:11.509Z</time>
      </trkpt>
      <trkpt lat="46.93898" lon="8.70343">
        <ele>1682</ele>
        <time>2021-08-06T12:02:14.612Z</time>
      </trkpt>
      <trkpt lat="46.93897" lon="8.70342">
        <ele>1682</ele>
        <time>2021-08-06T12:02:15.612Z</time>
      </trkpt>
      <trkpt lat="46.93896" lon="8.70342">
        <ele>1682</ele>
        <time>2021-08-06T12:02:16.612Z</time>
      </trkpt>
      <trkpt lat="46.93895" lon="8.70341">
        <ele>1683</ele>
        <time>2021-08-06T12:02:17.612Z</time>
      </trkpt>
      <trkpt lat="46.93894" lon="8.70341">
        <ele>1683</ele>
        <time>2021-08-06T12:02:18.612Z</time>
      </trkpt>
      <trkpt lat="46.93893" lon="8.7034">
        <ele>1683</ele>
        <time>2021-08-06T12:02:19.612Z</time>
      </trkpt>
      <trkpt lat="46.93892" lon="8.7034">
        <ele>1683</ele>
        <time>2021-08-06T12:02:20.612Z</time>
      </trkpt>
      <trkpt lat="46.93892" lon="8.7034">
        <ele>1683</ele>
        <time>2021-08-06T12:02:21.613Z</time>
      </trkpt>
      <trkpt lat="46.93891" lon="8.70339">
        <ele>1683</ele>
        <time>2021-08-06T12:02:22.612Z</time>
      </trkpt>
      <trkpt lat="46.9389" lon="8.70339">
        <ele>1684</ele>
        <time>2021-08-06T12:02:23.612Z</time>
      </trkpt>
      <trkpt lat="46.93889" lon="8.70339">
        <ele>1684</ele>
        <time>2021-08-06T12:02:24.612Z</time>
      </trkpt>
      <trkpt lat="46.93889" lon="8.70339">
        <ele>1684</ele>
        <time>2021-08-06T12:02:25.612Z</time>
      </trkpt>
      <trkpt lat="46.93888" lon="8.70338">
        <ele>1684</ele>
        <time>2021-08-06T12:02:26.613Z</time>
      </trkpt>
      <trkpt lat="46.93888" lon="8.70338">
        <ele>1685</ele>
        <time>2021-08-06T12:02:27.612Z</time>
      </trkpt>
      <trkpt lat="46.93887" lon="8.70338">
        <ele>1685</ele>
        <time>2021-08-06T12:02:28.613Z</time>
      </trkpt>
      <trkpt lat="46.93887" lon="8.70337">
        <ele>1685</ele>
        <time>2021-08-06T12:02:29.612Z</time>
      </trkpt>
      <trkpt lat="46.93886" lon="8.70336">
        <ele>1686</ele>
        <time>2021-08-06T12:02:30.612Z</time>
      </trkpt>
      <trkpt lat="46.93886" lon="8.70335">
        <ele>1687</ele>
        <time>2021-08-06T12:02:31.612Z</time>
      </trkpt>
      <trkpt lat="46.93886" lon="8.70335">
        <ele>1687</ele>
        <time>2021-08-06T12:02:32.612Z</time>
      </trkpt>
      <trkpt lat="46.93886" lon="8.70333">
        <ele>1688</ele>
        <time>2021-08-06T12:02:33.612Z</time>
      </trkpt>
      <trkpt lat="46.93886" lon="8.70332">
        <ele>1688</ele>
        <time>2021-08-06T12:02:34.612Z</time>
      </trkpt>
      <trkpt lat="46.93886" lon="8.70331">
        <ele>1689</ele>
        <time>2021-08-06T12:02:35.612Z</time>
      </trkpt>
      <trkpt lat="46.93886" lon="8.7033">
        <ele>1689</ele>
        <time>2021-08-06T12:02:36.612Z</time>
      </trkpt>
      <trkpt lat="46.93886" lon="8.70328">
        <ele>1690</ele>
        <time>2021-08-06T12:02:37.612Z</time>
      </trkpt>
      <trkpt lat="46.93887" lon="8.70327">
        <ele>1690</ele>
        <time>2021-08-06T12:02:38.612Z</time>
      </trkpt>
      <trkpt lat="46.93887" lon="8.70326">
        <ele>1690</ele>
        <time>2021-08-06T12:02:39.613Z</time>
      </trkpt>
      <trkpt lat="46.93887" lon="8.70325">
        <ele>1690</ele>
        <time>2021-08-06T12:02:40.612Z</time>
      </trkpt>
      <trkpt lat="46.93887" lon="8.70324">
        <ele>1690</ele>
        <time>2021-08-06T12:02:41.612Z</time>
      </trkpt>
      <trkpt lat="46.93888" lon="8.70322">
        <ele>1690</ele>
        <time>2021-08-06T12:02:42.612Z</time>
      </trkpt>
      <trkpt lat="46.93888" lon="8.70321">
        <ele>1690</ele>
        <time>2021-08-06T12:02:43.612Z</time>
      </trkpt>
      <trkpt lat="46.93889" lon="8.70319">
        <ele>1690</ele>
        <time>2021-08-06T12:02:44.612Z</time>
      </trkpt>
      <trkpt lat="46.93889" lon="8.70318">
        <ele>1691</ele>
        <time>2021-08-06T12:02:45.612Z</time>
      </trkpt>
      <trkpt lat="46.9389" lon="8.70316">
        <ele>1691</ele>
        <time>2021-08-06T12:02:46.612Z</time>
      </trkpt>
      <trkpt lat="46.9389" lon="8.70315">
        <ele>1692</ele>
        <time>2021-08-06T12:02:47.612Z</time>
      </trkpt>
      <trkpt lat="46.93889" lon="8.70313">
        <ele>1692</ele>
        <time>2021-08-06T12:02:48.612Z</time>
      </trkpt>
      <trkpt lat="46.93889" lon="8.70312">
        <ele>1693</ele>
        <time>2021-08-06T12:02:49.612Z</time>
      </trkpt>
      <trkpt lat="46.93889" lon="8.70311">
        <ele>1693</ele>
        <time>2021-08-06T12:02:50.612Z</time>
      </trkpt>
      <trkpt lat="46.93889" lon="8.70309">
        <ele>1694</ele>
        <time>2021-08-06T12:02:51.612Z</time>
      </trkpt>
      <trkpt lat="46.93889" lon="8.70307">
        <ele>1694</ele>
        <time>2021-08-06T12:02:52.612Z</time>
      </trkpt>
      <trkpt lat="46.93889" lon="8.70306">
        <ele>1693</ele>
        <time>2021-08-06T12:02:53.612Z</time>
      </trkpt>
      <trkpt lat="46.93889" lon="8.70305">
        <ele>1693</ele>
        <time>2021-08-06T12:02:54.612Z</time>
      </trkpt>
      <trkpt lat="46.93889" lon="8.70304">
        <ele>1693</ele>
        <time>2021-08-06T12:02:55.612Z</time>
      </trkpt>
      <trkpt lat="46.93889" lon="8.70302">
        <ele>1693</ele>
        <time>2021-08-06T12:02:56.612Z</time>
      </trkpt>
      <trkpt lat="46.93889" lon="8.70301">
        <ele>1693</ele>
        <time>2021-08-06T12:02:57.613Z</time>
      </trkpt>
      <trkpt lat="46.93889" lon="8.70301">
        <ele>1693</ele>
        <time>2021-08-06T12:02:58.612Z</time>
      </trkpt>
      <trkpt lat="46.9389" lon="8.703">
        <ele>1693</ele>
        <time>2021-08-06T12:02:59.612Z</time>
      </trkpt>
      <trkpt lat="46.93891" lon="8.70299">
        <ele>1693</ele>
        <time>2021-08-06T12:03:00.613Z</time>
      </trkpt>
      <trkpt lat="46.93892" lon="8.70298">
        <ele>1693</ele>
        <time>2021-08-06T12:03:01.613Z</time>
      </trkpt>
      <trkpt lat="46.93892" lon="8.70297">
        <ele>1693</ele>
        <time>2021-08-06T12:03:02.612Z</time>
      </trkpt>
      <trkpt lat="46.93892" lon="8.70296">
        <ele>1693</ele>
        <time>2021-08-06T12:03:03.612Z</time>
      </trkpt>
      <trkpt lat="46.93893" lon="8.70295">
        <ele>1694</ele>
        <time>2021-08-06T12:03:04.612Z</time>
      </trkpt>
      <trkpt lat="46.93892" lon="8.70293">
        <ele>1694</ele>
        <time>2021-08-06T12:03:07.750Z</time>
      </trkpt>
      <trkpt lat="46.93892" lon="8.70291">
        <ele>1694</ele>
        <time>2021-08-06T12:03:08.751Z</time>
      </trkpt>
      <trkpt lat="46.93891" lon="8.7029">
        <ele>1694</ele>
        <time>2021-08-06T12:03:09.750Z</time>
      </trkpt>
      <trkpt lat="46.93891" lon="8.70289">
        <ele>1693</ele>
        <time>2021-08-06T12:03:10.750Z</time>
      </trkpt>
      <trkpt lat="46.9389" lon="8.70288">
        <ele>1693</ele>
        <time>2021-08-06T12:03:11.751Z</time>
      </trkpt>
      <trkpt lat="46.9389" lon="8.70288">
        <ele>1692</ele>
        <time>2021-08-06T12:03:12.750Z</time>
      </trkpt>
      <trkpt lat="46.9389" lon="8.70287">
        <ele>1691</ele>
        <time>2021-08-06T12:03:13.750Z</time>
      </trkpt>
      <trkpt lat="46.9389" lon="8.70286">
        <ele>1691</ele>
        <time>2021-08-06T12:03:14.750Z</time>
      </trkpt>
      <trkpt lat="46.9389" lon="8.70286">
        <ele>1690</ele>
        <time>2021-08-06T12:03:15.750Z</time>
      </trkpt>
      <trkpt lat="46.93889" lon="8.70287">
        <ele>1689</ele>
        <time>2021-08-06T12:03:16.751Z</time>
      </trkpt>
      <trkpt lat="46.93889" lon="8.70287">
        <ele>1689</ele>
        <time>2021-08-06T12:03:17.751Z</time>
      </trkpt>
      <trkpt lat="46.93889" lon="8.70288">
        <ele>1688</ele>
        <time>2021-08-06T12:03:18.750Z</time>
      </trkpt>
      <trkpt lat="46.93888" lon="8.70287">
        <ele>1686</ele>
        <time>2021-08-06T12:03:19.750Z</time>
      </trkpt>
      <trkpt lat="46.93887" lon="8.70287">
        <ele>1686</ele>
        <time>2021-08-06T12:03:20.750Z</time>
      </trkpt>
      <trkpt lat="46.93888" lon="8.70287">
        <ele>1685</ele>
        <time>2021-08-06T12:03:21.750Z</time>
      </trkpt>
      <trkpt lat="46.93886" lon="8.70289">
        <ele>1683</ele>
        <time>2021-08-06T12:03:22.751Z</time>
      </trkpt>
      <trkpt lat="46.93885" lon="8.7029">
        <ele>1683</ele>
        <time>2021-08-06T12:03:23.750Z</time>
      </trkpt>
      <trkpt lat="46.93885" lon="8.7029">
        <ele>1682</ele>
        <time>2021-08-06T12:03:24.750Z</time>
      </trkpt>
      <trkpt lat="46.93886" lon="8.70287">
        <ele>1688</ele>
        <time>2021-08-06T12:03:25.751Z</time>
      </trkpt>
      <trkpt lat="46.93887" lon="8.70287">
        <ele>1688</ele>
        <time>2021-08-06T12:03:26.750Z</time>
      </trkpt>
      <trkpt lat="46.93888" lon="8.70286">
        <ele>1689</ele>
        <time>2021-08-06T12:03:27.750Z</time>
      </trkpt>
      <trkpt lat="46.93887" lon="8.70287">
        <ele>1689</ele>
        <time>2021-08-06T12:03:28.751Z</time>
      </trkpt>
      <trkpt lat="46.93887" lon="8.70287">
        <ele>1689</ele>
        <time>2021-08-06T12:03:29.751Z</time>
      </trkpt>
      <trkpt lat="46.93887" lon="8.70288">
        <ele>1689</ele>
        <time>2021-08-06T12:03:30.752Z</time>
      </trkpt>
      <trkpt lat="46.93886" lon="8.70287">
        <ele>1686</ele>
        <time>2021-08-06T12:03:31.751Z</time>
      </trkpt>
      <trkpt lat="46.93887" lon="8.70288">
        <ele>1687</ele>
        <time>2021-08-06T12:03:32.752Z</time>
      </trkpt>
      <trkpt lat="46.93887" lon="8.70287">
        <ele>1687</ele>
        <time>2021-08-06T12:03:33.751Z</time>
      </trkpt>
      <trkpt lat="46.93887" lon="8.70287">
        <ele>1687</ele>
        <time>2021-08-06T12:03:34.752Z</time>
      </trkpt>
      <trkpt lat="46.93887" lon="8.70287">
        <ele>1688</ele>
        <time>2021-08-06T12:03:35.752Z</time>
      </trkpt>
      <trkpt lat="46.93888" lon="8.70292">
        <ele>1684</ele>
        <time>2021-08-06T12:03:36.752Z</time>
      </trkpt>
      <trkpt lat="46.93888" lon="8.70294">
        <ele>1683</ele>
        <time>2021-08-06T12:03:37.753Z</time>
      </trkpt>
      <trkpt lat="46.93888" lon="8.70294">
        <ele>1682</ele>
        <time>2021-08-06T12:03:38.752Z</time>
      </trkpt>
      <trkpt lat="46.93886" lon="8.70294">
        <ele>1679</ele>
        <time>2021-08-06T12:03:39.752Z</time>
      </trkpt>
      <trkpt lat="46.93886" lon="8.70295">
        <ele>1678</ele>
        <time>2021-08-06T12:03:40.752Z</time>
      </trkpt>
      <trkpt lat="46.93887" lon="8.70293">
        <ele>1681</ele>
        <time>2021-08-06T12:03:41.754Z</time>
      </trkpt>
      <trkpt lat="46.93887" lon="8.70293">
        <ele>1682</ele>
        <time>2021-08-06T12:03:42.755Z</time>
      </trkpt>
      <trkpt lat="46.93887" lon="8.70293">
        <ele>1683</ele>
        <time>2021-08-06T12:03:43.754Z</time>
      </trkpt>
      <trkpt lat="46.9389" lon="8.70294">
        <ele>1691</ele>
        <time>2021-08-06T12:03:44.755Z</time>
      </trkpt>
      <trkpt lat="46.9389" lon="8.70294">
        <ele>1692</ele>
        <time>2021-08-06T12:03:45.755Z</time>
      </trkpt>
      <trkpt lat="46.93893" lon="8.70289">
        <ele>1695</ele>
        <time>2021-08-06T12:03:46.756Z</time>
      </trkpt>
      <trkpt lat="46.93891" lon="8.70288">
        <ele>1694</ele>
        <time>2021-08-06T12:03:47.755Z</time>
      </trkpt>
      <trkpt lat="46.9389" lon="8.70288">
        <ele>1693</ele>
        <time>2021-08-06T12:03:48.755Z</time>
      </trkpt>
      <trkpt lat="46.93889" lon="8.70287">
        <ele>1692</ele>
        <time>2021-08-06T12:03:49.756Z</time>
      </trkpt>
      <trkpt lat="46.93888" lon="8.70287">
        <ele>1691</ele>
        <time>2021-08-06T12:03:50.756Z</time>
      </trkpt>
      <trkpt lat="46.93887" lon="8.70286">
        <ele>1690</ele>
        <time>2021-08-06T12:03:51.756Z</time>
      </trkpt>
      <trkpt lat="46.93887" lon="8.70285">
        <ele>1690</ele>
        <time>2021-08-06T12:03:52.755Z</time>
      </trkpt>
      <trkpt lat="46.93886" lon="8.70284">
        <ele>1689</ele>
        <time>2021-08-06T12:03:53.755Z</time>
      </trkpt>
      <trkpt lat="46.93886" lon="8.70283">
        <ele>1688</ele>
        <time>2021-08-06T12:03:54.756Z</time>
      </trkpt>
      <trkpt lat="46.93885" lon="8.70282">
        <ele>1688</ele>
        <time>2021-08-06T12:03:55.756Z</time>
      </trkpt>
      <trkpt lat="46.93884" lon="8.70281">
        <ele>1687</ele>
        <time>2021-08-06T12:03:56.756Z</time>
      </trkpt>
      <trkpt lat="46.93883" lon="8.70281">
        <ele>1687</ele>
        <time>2021-08-06T12:03:57.756Z</time>
      </trkpt>
      <trkpt lat="46.93883" lon="8.7028">
        <ele>1687</ele>
        <time>2021-08-06T12:03:58.756Z</time>
      </trkpt>
      <trkpt lat="46.93882" lon="8.7028">
        <ele>1686</ele>
        <time>2021-08-06T12:03:59.755Z</time>
      </trkpt>
      <trkpt lat="46.93882" lon="8.70279">
        <ele>1686</ele>
        <time>2021-08-06T12:04:00.756Z</time>
      </trkpt>
      <trkpt lat="46.93881" lon="8.70277">
        <ele>1686</ele>
        <time>2021-08-06T12:04:01.756Z</time>
      </trkpt>
      <trkpt lat="46.93881" lon="8.70277">
        <ele>1686</ele>
        <time>2021-08-06T12:04:02.756Z</time>
      </trkpt>
      <trkpt lat="46.93881" lon="8.70276">
        <ele>1685</ele>
        <time>2021-08-06T12:04:03.756Z</time>
      </trkpt>
      <trkpt lat="46.9388" lon="8.70275">
        <ele>1686</ele>
        <time>2021-08-06T12:04:04.756Z</time>
      </trkpt>
      <trkpt lat="46.9388" lon="8.70274">
        <ele>1686</ele>
        <time>2021-08-06T12:04:05.756Z</time>
      </trkpt>
      <trkpt lat="46.9388" lon="8.70273">
        <ele>1686</ele>
        <time>2021-08-06T12:04:06.756Z</time>
      </trkpt>
      <trkpt lat="46.9388" lon="8.70273">
        <ele>1686</ele>
        <time>2021-08-06T12:04:07.756Z</time>
      </trkpt>
      <trkpt lat="46.9388" lon="8.70272">
        <ele>1686</ele>
        <time>2021-08-06T12:04:08.756Z</time>
      </trkpt>
      <trkpt lat="46.9388" lon="8.70271">
        <ele>1687</ele>
        <time>2021-08-06T12:04:09.755Z</time>
      </trkpt>
      <trkpt lat="46.93881" lon="8.70271">
        <ele>1687</ele>
        <time>2021-08-06T12:04:10.756Z</time>
      </trkpt>
      <trkpt lat="46.93881" lon="8.7027">
        <ele>1687</ele>
        <time>2021-08-06T12:04:11.756Z</time>
      </trkpt>
      <trkpt lat="46.93881" lon="8.7027">
        <ele>1687</ele>
        <time>2021-08-06T12:04:12.756Z</time>
      </trkpt>
      <trkpt lat="46.93881" lon="8.70269">
        <ele>1687</ele>
        <time>2021-08-06T12:04:13.756Z</time>
      </trkpt>
      <trkpt lat="46.93881" lon="8.70268">
        <ele>1687</ele>
        <time>2021-08-06T12:04:14.755Z</time>
      </trkpt>
      <trkpt lat="46.9388" lon="8.70267">
        <ele>1687</ele>
        <time>2021-08-06T12:04:15.756Z</time>
      </trkpt>
      <trkpt lat="46.9388" lon="8.70267">
        <ele>1688</ele>
        <time>2021-08-06T12:04:16.756Z</time>
      </trkpt>
      <trkpt lat="46.9388" lon="8.70266">
        <ele>1688</ele>
        <time>2021-08-06T12:04:17.756Z</time>
      </trkpt>
      <trkpt lat="46.9388" lon="8.70265">
        <ele>1689</ele>
        <time>2021-08-06T12:04:18.756Z</time>
      </trkpt>
      <trkpt lat="46.9388" lon="8.70264">
        <ele>1689</ele>
        <time>2021-08-06T12:04:19.755Z</time>
      </trkpt>
      <trkpt lat="46.93879" lon="8.70263">
        <ele>1690</ele>
        <time>2021-08-06T12:04:20.755Z</time>
      </trkpt>
      <trkpt lat="46.93879" lon="8.70261">
        <ele>1690</ele>
        <time>2021-08-06T12:04:21.755Z</time>
      </trkpt>
      <trkpt lat="46.93878" lon="8.70261">
        <ele>1690</ele>
        <time>2021-08-06T12:04:22.756Z</time>
      </trkpt>
      <trkpt lat="46.93877" lon="8.7026">
        <ele>1689</ele>
        <time>2021-08-06T12:04:23.756Z</time>
      </trkpt>
      <trkpt lat="46.93876" lon="8.70259">
        <ele>1689</ele>
        <time>2021-08-06T12:04:24.755Z</time>
      </trkpt>
      <trkpt lat="46.93875" lon="8.70258">
        <ele>1688</ele>
        <time>2021-08-06T12:04:25.756Z</time>
      </trkpt>
      <trkpt lat="46.93874" lon="8.70258">
        <ele>1688</ele>
        <time>2021-08-06T12:04:26.756Z</time>
      </trkpt>
      <trkpt lat="46.93873" lon="8.70257">
        <ele>1688</ele>
        <time>2021-08-06T12:04:27.756Z</time>
      </trkpt>
      <trkpt lat="46.93873" lon="8.70256">
        <ele>1688</ele>
        <time>2021-08-06T12:04:28.756Z</time>
      </trkpt>
      <trkpt lat="46.93872" lon="8.70256">
        <ele>1688</ele>
        <time>2021-08-06T12:04:29.755Z</time>
      </trkpt>
      <trkpt lat="46.93871" lon="8.70255">
        <ele>1688</ele>
        <time>2021-08-06T12:04:30.755Z</time>
      </trkpt>
      <trkpt lat="46.9387" lon="8.70254">
        <ele>1688</ele>
        <time>2021-08-06T12:04:31.755Z</time>
      </trkpt>
      <trkpt lat="46.93869" lon="8.70253">
        <ele>1688</ele>
        <time>2021-08-06T12:04:32.756Z</time>
      </trkpt>
      <trkpt lat="46.93868" lon="8.70252">
        <ele>1688</ele>
        <time>2021-08-06T12:04:33.756Z</time>
      </trkpt>
      <trkpt lat="46.93867" lon="8.70251">
        <ele>1689</ele>
        <time>2021-08-06T12:04:34.756Z</time>
      </trkpt>
      <trkpt lat="46.93866" lon="8.7025">
        <ele>1689</ele>
        <time>2021-08-06T12:04:35.755Z</time>
      </trkpt>
      <trkpt lat="46.93865" lon="8.70249">
        <ele>1689</ele>
        <time>2021-08-06T12:04:36.756Z</time>
      </trkpt>
      <trkpt lat="46.93865" lon="8.70249">
        <ele>1690</ele>
        <time>2021-08-06T12:04:37.755Z</time>
      </trkpt>
      <trkpt lat="46.93864" lon="8.70248">
        <ele>1690</ele>
        <time>2021-08-06T12:04:38.755Z</time>
      </trkpt>
      <trkpt lat="46.93863" lon="8.70247">
        <ele>1690</ele>
        <time>2021-08-06T12:04:39.756Z</time>
      </trkpt>
      <trkpt lat="46.93862" lon="8.70246">
        <ele>1690</ele>
        <time>2021-08-06T12:04:40.756Z</time>
      </trkpt>
      <trkpt lat="46.93862" lon="8.70245">
        <ele>1690</ele>
        <time>2021-08-06T12:04:41.755Z</time>
      </trkpt>
      <trkpt lat="46.93861" lon="8.70244">
        <ele>1690</ele>
        <time>2021-08-06T12:04:42.756Z</time>
      </trkpt>
      <trkpt lat="46.9386" lon="8.70242">
        <ele>1690</ele>
        <time>2021-08-06T12:04:43.756Z</time>
      </trkpt>
      <trkpt lat="46.9386" lon="8.70241">
        <ele>1690</ele>
        <time>2021-08-06T12:04:44.756Z</time>
      </trkpt>
      <trkpt lat="46.93859" lon="8.70241">
        <ele>1689</ele>
        <time>2021-08-06T12:04:45.756Z</time>
      </trkpt>
      <trkpt lat="46.93859" lon="8.7024">
        <ele>1689</ele>
        <time>2021-08-06T12:04:46.756Z</time>
      </trkpt>
      <trkpt lat="46.93858" lon="8.70238">
        <ele>1689</ele>
        <time>2021-08-06T12:04:47.756Z</time>
      </trkpt>
      <trkpt lat="46.93858" lon="8.70237">
        <ele>1689</ele>
        <time>2021-08-06T12:04:48.756Z</time>
      </trkpt>
      <trkpt lat="46.93858" lon="8.70236">
        <ele>1689</ele>
        <time>2021-08-06T12:04:49.756Z</time>
      </trkpt>
      <trkpt lat="46.93857" lon="8.70235">
        <ele>1689</ele>
        <time>2021-08-06T12:04:50.756Z</time>
      </trkpt>
      <trkpt lat="46.93856" lon="8.70234">
        <ele>1688</ele>
        <time>2021-08-06T12:04:51.756Z</time>
      </trkpt>
      <trkpt lat="46.93856" lon="8.70233">
        <ele>1688</ele>
        <time>2021-08-06T12:04:52.756Z</time>
      </trkpt>
      <trkpt lat="46.93856" lon="8.70231">
        <ele>1688</ele>
        <time>2021-08-06T12:04:53.755Z</time>
      </trkpt>
      <trkpt lat="46.93856" lon="8.7023">
        <ele>1689</ele>
        <time>2021-08-06T12:04:54.756Z</time>
      </trkpt>
      <trkpt lat="46.93856" lon="8.70229">
        <ele>1689</ele>
        <time>2021-08-06T12:04:55.755Z</time>
      </trkpt>
      <trkpt lat="46.93856" lon="8.70228">
        <ele>1689</ele>
        <time>2021-08-06T12:04:56.756Z</time>
      </trkpt>
      <trkpt lat="46.93856" lon="8.70227">
        <ele>1689</ele>
        <time>2021-08-06T12:04:57.755Z</time>
      </trkpt>
      <trkpt lat="46.93856" lon="8.70225">
        <ele>1690</ele>
        <time>2021-08-06T12:04:58.755Z</time>
      </trkpt>
      <trkpt lat="46.93856" lon="8.70224">
        <ele>1690</ele>
        <time>2021-08-06T12:04:59.755Z</time>
      </trkpt>
      <trkpt lat="46.93856" lon="8.70223">
        <ele>1690</ele>
        <time>2021-08-06T12:05:00.755Z</time>
      </trkpt>
      <trkpt lat="46.93856" lon="8.70222">
        <ele>1690</ele>
        <time>2021-08-06T12:05:01.756Z</time>
      </trkpt>
      <trkpt lat="46.93856" lon="8.70221">
        <ele>1691</ele>
        <time>2021-08-06T12:05:02.756Z</time>
      </trkpt>
      <trkpt lat="46.93857" lon="8.7022">
        <ele>1691</ele>
        <time>2021-08-06T12:05:03.756Z</time>
      </trkpt>
      <trkpt lat="46.93857" lon="8.70219">
        <ele>1692</ele>
        <time>2021-08-06T12:05:04.756Z</time>
      </trkpt>
      <trkpt lat="46.93857" lon="8.70218">
        <ele>1693</ele>
        <time>2021-08-06T12:05:05.755Z</time>
      </trkpt>
      <trkpt lat="46.93858" lon="8.70217">
        <ele>1693</ele>
        <time>2021-08-06T12:05:06.756Z</time>
      </trkpt>
      <trkpt lat="46.93858" lon="8.70216">
        <ele>1694</ele>
        <time>2021-08-06T12:05:07.756Z</time>
      </trkpt>
      <trkpt lat="46.93859" lon="8.70215">
        <ele>1694</ele>
        <time>2021-08-06T12:05:08.756Z</time>
      </trkpt>
      <trkpt lat="46.93859" lon="8.70214">
        <ele>1695</ele>
        <time>2021-08-06T12:05:09.756Z</time>
      </trkpt>
      <trkpt lat="46.93859" lon="8.70213">
        <ele>1695</ele>
        <time>2021-08-06T12:05:10.756Z</time>
      </trkpt>
      <trkpt lat="46.93859" lon="8.70212">
        <ele>1695</ele>
        <time>2021-08-06T12:05:11.756Z</time>
      </trkpt>
      <trkpt lat="46.9386" lon="8.70211">
        <ele>1695</ele>
        <time>2021-08-06T12:05:12.756Z</time>
      </trkpt>
      <trkpt lat="46.93861" lon="8.7021">
        <ele>1696</ele>
        <time>2021-08-06T12:05:13.756Z</time>
      </trkpt>
      <trkpt lat="46.93862" lon="8.70209">
        <ele>1697</ele>
        <time>2021-08-06T12:05:14.756Z</time>
      </trkpt>
      <trkpt lat="46.93863" lon="8.70209">
        <ele>1697</ele>
        <time>2021-08-06T12:05:15.755Z</time>
      </trkpt>
      <trkpt lat="46.93863" lon="8.70208">
        <ele>1697</ele>
        <time>2021-08-06T12:05:16.756Z</time>
      </trkpt>
      <trkpt lat="46.93863" lon="8.70208">
        <ele>1697</ele>
        <time>2021-08-06T12:05:17.755Z</time>
      </trkpt>
      <trkpt lat="46.93864" lon="8.70207">
        <ele>1697</ele>
        <time>2021-08-06T12:05:20.850Z</time>
      </trkpt>
      <trkpt lat="46.93864" lon="8.70206">
        <ele>1697</ele>
        <time>2021-08-06T12:05:21.850Z</time>
      </trkpt>
      <trkpt lat="46.93865" lon="8.70205">
        <ele>1697</ele>
        <time>2021-08-06T12:05:22.850Z</time>
      </trkpt>
      <trkpt lat="46.93867" lon="8.70205">
        <ele>1697</ele>
        <time>2021-08-06T12:05:23.850Z</time>
      </trkpt>
      <trkpt lat="46.93867" lon="8.70204">
        <ele>1697</ele>
        <time>2021-08-06T12:05:24.850Z</time>
      </trkpt>
      <trkpt lat="46.93868" lon="8.70203">
        <ele>1696</ele>
        <time>2021-08-06T12:05:26.986Z</time>
      </trkpt>
      <trkpt lat="46.93869" lon="8.70202">
        <ele>1696</ele>
        <time>2021-08-06T12:05:28.831Z</time>
      </trkpt>
      <trkpt lat="46.93869" lon="8.702">
        <ele>1696</ele>
        <time>2021-08-06T12:05:29.831Z</time>
      </trkpt>
      <trkpt lat="46.9387" lon="8.70199">
        <ele>1696</ele>
        <time>2021-08-06T12:05:30.831Z</time>
      </trkpt>
      <trkpt lat="46.93871" lon="8.70198">
        <ele>1695</ele>
        <time>2021-08-06T12:05:41.006Z</time>
      </trkpt>
      <trkpt lat="46.93871" lon="8.70197">
        <ele>1695</ele>
        <time>2021-08-06T12:05:42.006Z</time>
      </trkpt>
      <trkpt lat="46.93872" lon="8.70196">
        <ele>1695</ele>
        <time>2021-08-06T12:05:43.006Z</time>
      </trkpt>
      <trkpt lat="46.93872" lon="8.70195">
        <ele>1695</ele>
        <time>2021-08-06T12:05:44.006Z</time>
      </trkpt>
      <trkpt lat="46.93873" lon="8.70193">
        <ele>1696</ele>
        <time>2021-08-06T12:05:45.006Z</time>
      </trkpt>
      <trkpt lat="46.93873" lon="8.70192">
        <ele>1696</ele>
        <time>2021-08-06T12:05:46.006Z</time>
      </trkpt>
      <trkpt lat="46.93873" lon="8.7019">
        <ele>1696</ele>
        <time>2021-08-06T12:05:47.006Z</time>
      </trkpt>
      <trkpt lat="46.93873" lon="8.70189">
        <ele>1696</ele>
        <time>2021-08-06T12:05:53.113Z</time>
      </trkpt>
      <trkpt lat="46.93872" lon="8.70187">
        <ele>1696</ele>
        <time>2021-08-06T12:05:54.114Z</time>
      </trkpt>
      <trkpt lat="46.93871" lon="8.70185">
        <ele>1696</ele>
        <time>2021-08-06T12:05:55.114Z</time>
      </trkpt>
      <trkpt lat="46.9387" lon="8.70184">
        <ele>1696</ele>
        <time>2021-08-06T12:05:56.114Z</time>
      </trkpt>
      <trkpt lat="46.9387" lon="8.70182">
        <ele>1696</ele>
        <time>2021-08-06T12:05:57.114Z</time>
      </trkpt>
      <trkpt lat="46.93869" lon="8.70181">
        <ele>1696</ele>
        <time>2021-08-06T12:05:58.114Z</time>
      </trkpt>
      <trkpt lat="46.93869" lon="8.70179">
        <ele>1696</ele>
        <time>2021-08-06T12:06:08.254Z</time>
      </trkpt>
      <trkpt lat="46.93868" lon="8.70177">
        <ele>1696</ele>
        <time>2021-08-06T12:06:09.254Z</time>
      </trkpt>
      <trkpt lat="46.93868" lon="8.70175">
        <ele>1696</ele>
        <time>2021-08-06T12:06:10.254Z</time>
      </trkpt>
      <trkpt lat="46.93868" lon="8.70174">
        <ele>1695</ele>
        <time>2021-08-06T12:06:17.371Z</time>
      </trkpt>
      <trkpt lat="46.93868" lon="8.70173">
        <ele>1695</ele>
        <time>2021-08-06T12:06:18.370Z</time>
      </trkpt>
      <trkpt lat="46.93868" lon="8.70171">
        <ele>1695</ele>
        <time>2021-08-06T12:06:19.370Z</time>
      </trkpt>
      <trkpt lat="46.93868" lon="8.70169">
        <ele>1694</ele>
        <time>2021-08-06T12:06:20.371Z</time>
      </trkpt>
      <trkpt lat="46.93867" lon="8.70167">
        <ele>1694</ele>
        <time>2021-08-06T12:06:21.370Z</time>
      </trkpt>
      <trkpt lat="46.93868" lon="8.70165">
        <ele>1694</ele>
        <time>2021-08-06T12:06:25.519Z</time>
      </trkpt>
      <trkpt lat="46.93868" lon="8.70163">
        <ele>1694</ele>
        <time>2021-08-06T12:06:26.518Z</time>
      </trkpt>
      <trkpt lat="46.93868" lon="8.70162">
        <ele>1694</ele>
        <time>2021-08-06T12:06:27.518Z</time>
      </trkpt>
      <trkpt lat="46.93868" lon="8.7016">
        <ele>1694</ele>
        <time>2021-08-06T12:06:28.519Z</time>
      </trkpt>
      <trkpt lat="46.93869" lon="8.7016">
        <ele>1694</ele>
        <time>2021-08-06T12:06:29.518Z</time>
      </trkpt>
      <trkpt lat="46.93869" lon="8.70158">
        <ele>1695</ele>
        <time>2021-08-06T12:06:34.625Z</time>
      </trkpt>
      <trkpt lat="46.93869" lon="8.70156">
        <ele>1695</ele>
        <time>2021-08-06T12:06:35.626Z</time>
      </trkpt>
      <trkpt lat="46.9387" lon="8.70154">
        <ele>1695</ele>
        <time>2021-08-06T12:06:36.625Z</time>
      </trkpt>
      <trkpt lat="46.9387" lon="8.70153">
        <ele>1696</ele>
        <time>2021-08-06T12:06:37.625Z</time>
      </trkpt>
      <trkpt lat="46.93871" lon="8.70152">
        <ele>1697</ele>
        <time>2021-08-06T12:06:55.779Z</time>
      </trkpt>
      <trkpt lat="46.93872" lon="8.70151">
        <ele>1697</ele>
        <time>2021-08-06T12:06:56.779Z</time>
      </trkpt>
      <trkpt lat="46.93872" lon="8.70149">
        <ele>1698</ele>
        <time>2021-08-06T12:07:03.877Z</time>
      </trkpt>
      <trkpt lat="46.93873" lon="8.70148">
        <ele>1699</ele>
        <time>2021-08-06T12:07:04.877Z</time>
      </trkpt>
      <trkpt lat="46.93873" lon="8.70148">
        <ele>1699</ele>
        <time>2021-08-06T12:07:15.727Z</time>
      </trkpt>
      <trkpt lat="46.93873" lon="8.70146">
        <ele>1700</ele>
        <time>2021-08-06T12:07:16.728Z</time>
      </trkpt>
      <trkpt lat="46.93874" lon="8.70146">
        <ele>1701</ele>
        <time>2021-08-06T12:07:25.602Z</time>
      </trkpt>
      <trkpt lat="46.93875" lon="8.70145">
        <ele>1701</ele>
        <time>2021-08-06T12:07:26.601Z</time>
      </trkpt>
      <trkpt lat="46.93875" lon="8.70144">
        <ele>1701</ele>
        <time>2021-08-06T12:07:27.601Z</time>
      </trkpt>
      <trkpt lat="46.93874" lon="8.70143">
        <ele>1701</ele>
        <time>2021-08-06T12:07:42.728Z</time>
      </trkpt>
      <trkpt lat="46.93874" lon="8.70143">
        <ele>1701</ele>
        <time>2021-08-06T12:07:43.728Z</time>
      </trkpt>
      <trkpt lat="46.93873" lon="8.70142">
        <ele>1701</ele>
        <time>2021-08-06T12:07:44.728Z</time>
      </trkpt>
      <trkpt lat="46.93873" lon="8.7014">
        <ele>1701</ele>
        <time>2021-08-06T12:07:45.728Z</time>
      </trkpt>
      <trkpt lat="46.93873" lon="8.70139">
        <ele>1701</ele>
        <time>2021-08-06T12:07:46.728Z</time>
      </trkpt>
      <trkpt lat="46.93872" lon="8.70138">
        <ele>1701</ele>
        <time>2021-08-06T12:07:47.728Z</time>
      </trkpt>
      <trkpt lat="46.93872" lon="8.70137">
        <ele>1700</ele>
        <time>2021-08-06T12:07:48.728Z</time>
      </trkpt>
      <trkpt lat="46.93873" lon="8.70136">
        <ele>1700</ele>
        <time>2021-08-06T12:07:49.727Z</time>
      </trkpt>
      <trkpt lat="46.93873" lon="8.70135">
        <ele>1700</ele>
        <time>2021-08-06T12:07:50.728Z</time>
      </trkpt>
      <trkpt lat="46.93873" lon="8.70134">
        <ele>1699</ele>
        <time>2021-08-06T12:07:51.728Z</time>
      </trkpt>
      <trkpt lat="46.93873" lon="8.70133">
        <ele>1699</ele>
        <time>2021-08-06T12:07:52.728Z</time>
      </trkpt>
      <trkpt lat="46.93874" lon="8.70132">
        <ele>1699</ele>
        <time>2021-08-06T12:07:53.728Z</time>
      </trkpt>
      <trkpt lat="46.93874" lon="8.70131">
        <ele>1699</ele>
        <time>2021-08-06T12:08:18.710Z</time>
      </trkpt>
      <trkpt lat="46.93874" lon="8.7013">
        <ele>1699</ele>
        <time>2021-08-06T12:08:19.710Z</time>
      </trkpt>
      <trkpt lat="46.93874" lon="8.70128">
        <ele>1699</ele>
        <time>2021-08-06T12:08:26.584Z</time>
      </trkpt>
      <trkpt lat="46.93874" lon="8.70127">
        <ele>1699</ele>
        <time>2021-08-06T12:08:28.462Z</time>
      </trkpt>
      <trkpt lat="46.93874" lon="8.70126">
        <ele>1699</ele>
        <time>2021-08-06T12:08:34.390Z</time>
      </trkpt>
      <trkpt lat="46.93874" lon="8.70126">
        <ele>1700</ele>
        <time>2021-08-06T12:08:35.390Z</time>
      </trkpt>
      <trkpt lat="46.93874" lon="8.70125">
        <ele>1700</ele>
        <time>2021-08-06T12:08:36.390Z</time>
      </trkpt>
      <trkpt lat="46.93874" lon="8.70124">
        <ele>1700</ele>
        <time>2021-08-06T12:08:37.390Z</time>
      </trkpt>
      <trkpt lat="46.93874" lon="8.70123">
        <ele>1700</ele>
        <time>2021-08-06T12:08:38.390Z</time>
      </trkpt>
      <trkpt lat="46.93874" lon="8.70122">
        <ele>1700</ele>
        <time>2021-08-06T12:08:39.390Z</time>
      </trkpt>
      <trkpt lat="46.93874" lon="8.7012">
        <ele>1700</ele>
        <time>2021-08-06T12:08:40.389Z</time>
      </trkpt>
      <trkpt lat="46.93874" lon="8.70119">
        <ele>1700</ele>
        <time>2021-08-06T12:08:41.390Z</time>
      </trkpt>
      <trkpt lat="46.93874" lon="8.70118">
        <ele>1699</ele>
        <time>2021-08-06T12:08:42.390Z</time>
      </trkpt>
      <trkpt lat="46.93874" lon="8.70116">
        <ele>1699</ele>
        <time>2021-08-06T12:08:43.390Z</time>
      </trkpt>
      <trkpt lat="46.93874" lon="8.70115">
        <ele>1699</ele>
        <time>2021-08-06T12:08:44.390Z</time>
      </trkpt>
      <trkpt lat="46.93874" lon="8.70113">
        <ele>1699</ele>
        <time>2021-08-06T12:08:45.390Z</time>
      </trkpt>
      <trkpt lat="46.93873" lon="8.70113">
        <ele>1699</ele>
        <time>2021-08-06T12:08:46.390Z</time>
      </trkpt>
      <trkpt lat="46.93873" lon="8.70112">
        <ele>1699</ele>
        <time>2021-08-06T12:08:47.390Z</time>
      </trkpt>
      <trkpt lat="46.93872" lon="8.7011">
        <ele>1699</ele>
        <time>2021-08-06T12:08:48.390Z</time>
      </trkpt>
      <trkpt lat="46.93871" lon="8.70109">
        <ele>1699</ele>
        <time>2021-08-06T12:08:49.390Z</time>
      </trkpt>
      <trkpt lat="46.93871" lon="8.70107">
        <ele>1699</ele>
        <time>2021-08-06T12:08:50.389Z</time>
      </trkpt>
      <trkpt lat="46.93869" lon="8.70105">
        <ele>1698</ele>
        <time>2021-08-06T12:08:51.389Z</time>
      </trkpt>
      <trkpt lat="46.93868" lon="8.70103">
        <ele>1698</ele>
        <time>2021-08-06T12:08:52.390Z</time>
      </trkpt>
      <trkpt lat="46.93868" lon="8.70102">
        <ele>1698</ele>
        <time>2021-08-06T12:08:53.390Z</time>
      </trkpt>
      <trkpt lat="46.93867" lon="8.701">
        <ele>1698</ele>
        <time>2021-08-06T12:08:54.390Z</time>
      </trkpt>
      <trkpt lat="46.93867" lon="8.70099">
        <ele>1698</ele>
        <time>2021-08-06T12:08:55.390Z</time>
      </trkpt>
      <trkpt lat="46.93867" lon="8.70097">
        <ele>1698</ele>
        <time>2021-08-06T12:08:56.389Z</time>
      </trkpt>
      <trkpt lat="46.93866" lon="8.70095">
        <ele>1697</ele>
        <time>2021-08-06T12:08:57.390Z</time>
      </trkpt>
      <trkpt lat="46.93865" lon="8.70094">
        <ele>1697</ele>
        <time>2021-08-06T12:08:58.390Z</time>
      </trkpt>
      <trkpt lat="46.93866" lon="8.70093">
        <ele>1698</ele>
        <time>2021-08-06T12:08:59.390Z</time>
      </trkpt>
      <trkpt lat="46.93866" lon="8.70091">
        <ele>1698</ele>
        <time>2021-08-06T12:09:00.390Z</time>
      </trkpt>
      <trkpt lat="46.93866" lon="8.7009">
        <ele>1699</ele>
        <time>2021-08-06T12:09:01.389Z</time>
      </trkpt>
      <trkpt lat="46.93867" lon="8.70089">
        <ele>1699</ele>
        <time>2021-08-06T12:09:02.389Z</time>
      </trkpt>
      <trkpt lat="46.93866" lon="8.70088">
        <ele>1700</ele>
        <time>2021-08-06T12:09:03.390Z</time>
      </trkpt>
      <trkpt lat="46.93867" lon="8.70086">
        <ele>1700</ele>
        <time>2021-08-06T12:09:04.389Z</time>
      </trkpt>
      <trkpt lat="46.93867" lon="8.70084">
        <ele>1700</ele>
        <time>2021-08-06T12:09:05.390Z</time>
      </trkpt>
      <trkpt lat="46.93866" lon="8.70083">
        <ele>1700</ele>
        <time>2021-08-06T12:09:06.389Z</time>
      </trkpt>
      <trkpt lat="46.93866" lon="8.70081">
        <ele>1700</ele>
        <time>2021-08-06T12:09:07.390Z</time>
      </trkpt>
      <trkpt lat="46.93865" lon="8.70081">
        <ele>1699</ele>
        <time>2021-08-06T12:09:08.389Z</time>
      </trkpt>
      <trkpt lat="46.93865" lon="8.70079">
        <ele>1699</ele>
        <time>2021-08-06T12:09:09.390Z</time>
      </trkpt>
      <trkpt lat="46.93865" lon="8.70077">
        <ele>1698</ele>
        <time>2021-08-06T12:09:10.389Z</time>
      </trkpt>
      <trkpt lat="46.93865" lon="8.70075">
        <ele>1698</ele>
        <time>2021-08-06T12:09:11.390Z</time>
      </trkpt>
      <trkpt lat="46.93864" lon="8.70074">
        <ele>1697</ele>
        <time>2021-08-06T12:09:12.389Z</time>
      </trkpt>
      <trkpt lat="46.93865" lon="8.70072">
        <ele>1697</ele>
        <time>2021-08-06T12:09:13.389Z</time>
      </trkpt>
      <trkpt lat="46.93865" lon="8.70071">
        <ele>1696</ele>
        <time>2021-08-06T12:09:14.389Z</time>
      </trkpt>
      <trkpt lat="46.93864" lon="8.70069">
        <ele>1696</ele>
        <time>2021-08-06T12:09:15.390Z</time>
      </trkpt>
      <trkpt lat="46.93864" lon="8.70067">
        <ele>1696</ele>
        <time>2021-08-06T12:09:16.390Z</time>
      </trkpt>
      <trkpt lat="46.93864" lon="8.70066">
        <ele>1695</ele>
        <time>2021-08-06T12:09:17.390Z</time>
      </trkpt>
      <trkpt lat="46.93863" lon="8.70065">
        <ele>1695</ele>
        <time>2021-08-06T12:09:18.390Z</time>
      </trkpt>
      <trkpt lat="46.93862" lon="8.70065">
        <ele>1695</ele>
        <time>2021-08-06T12:09:20.489Z</time>
      </trkpt>
      <trkpt lat="46.93861" lon="8.70064">
        <ele>1696</ele>
        <time>2021-08-06T12:09:21.488Z</time>
      </trkpt>
      <trkpt lat="46.9386" lon="8.70063">
        <ele>1695</ele>
        <time>2021-08-06T12:09:22.488Z</time>
      </trkpt>
      <trkpt lat="46.93859" lon="8.70063">
        <ele>1695</ele>
        <time>2021-08-06T12:09:23.489Z</time>
      </trkpt>
      <trkpt lat="46.93858" lon="8.70062">
        <ele>1695</ele>
        <time>2021-08-06T12:09:24.489Z</time>
      </trkpt>
      <trkpt lat="46.93857" lon="8.70061">
        <ele>1695</ele>
        <time>2021-08-06T12:09:25.489Z</time>
      </trkpt>
      <trkpt lat="46.93856" lon="8.7006">
        <ele>1694</ele>
        <time>2021-08-06T12:09:26.488Z</time>
      </trkpt>
      <trkpt lat="46.93855" lon="8.70058">
        <ele>1693</ele>
        <time>2021-08-06T12:09:27.488Z</time>
      </trkpt>
      <trkpt lat="46.93854" lon="8.70057">
        <ele>1693</ele>
        <time>2021-08-06T12:09:28.488Z</time>
      </trkpt>
      <trkpt lat="46.93854" lon="8.70055">
        <ele>1693</ele>
        <time>2021-08-06T12:09:29.489Z</time>
      </trkpt>
      <trkpt lat="46.93853" lon="8.70055">
        <ele>1693</ele>
        <time>2021-08-06T12:09:30.489Z</time>
      </trkpt>
      <trkpt lat="46.93852" lon="8.70053">
        <ele>1692</ele>
        <time>2021-08-06T12:09:31.488Z</time>
      </trkpt>
      <trkpt lat="46.93851" lon="8.70052">
        <ele>1692</ele>
        <time>2021-08-06T12:09:32.489Z</time>
      </trkpt>
      <trkpt lat="46.9385" lon="8.70051">
        <ele>1692</ele>
        <time>2021-08-06T12:09:33.489Z</time>
      </trkpt>
      <trkpt lat="46.93849" lon="8.7005">
        <ele>1691</ele>
        <time>2021-08-06T12:09:34.489Z</time>
      </trkpt>
      <trkpt lat="46.93848" lon="8.7005">
        <ele>1691</ele>
        <time>2021-08-06T12:09:35.488Z</time>
      </trkpt>
      <trkpt lat="46.93847" lon="8.70049">
        <ele>1691</ele>
        <time>2021-08-06T12:09:36.489Z</time>
      </trkpt>
      <trkpt lat="46.93846" lon="8.70048">
        <ele>1690</ele>
        <time>2021-08-06T12:09:37.489Z</time>
      </trkpt>
      <trkpt lat="46.93846" lon="8.70047">
        <ele>1690</ele>
        <time>2021-08-06T12:09:38.488Z</time>
      </trkpt>
      <trkpt lat="46.93847" lon="8.70045">
        <ele>1689</ele>
        <time>2021-08-06T12:09:39.489Z</time>
      </trkpt>
      <trkpt lat="46.93847" lon="8.70044">
        <ele>1689</ele>
        <time>2021-08-06T12:09:40.489Z</time>
      </trkpt>
      <trkpt lat="46.93847" lon="8.70042">
        <ele>1689</ele>
        <time>2021-08-06T12:09:41.488Z</time>
      </trkpt>
      <trkpt lat="46.93847" lon="8.7004">
        <ele>1689</ele>
        <time>2021-08-06T12:09:42.489Z</time>
      </trkpt>
      <trkpt lat="46.93847" lon="8.70038">
        <ele>1689</ele>
        <time>2021-08-06T12:09:43.488Z</time>
      </trkpt>
      <trkpt lat="46.93847" lon="8.70036">
        <ele>1689</ele>
        <time>2021-08-06T12:09:44.488Z</time>
      </trkpt>
      <trkpt lat="46.93847" lon="8.70035">
        <ele>1689</ele>
        <time>2021-08-06T12:09:45.489Z</time>
      </trkpt>
      <trkpt lat="46.93847" lon="8.70033">
        <ele>1689</ele>
        <time>2021-08-06T12:09:46.489Z</time>
      </trkpt>
      <trkpt lat="46.93847" lon="8.70032">
        <ele>1690</ele>
        <time>2021-08-06T12:09:47.489Z</time>
      </trkpt>
      <trkpt lat="46.93847" lon="8.70031">
        <ele>1690</ele>
        <time>2021-08-06T12:09:48.488Z</time>
      </trkpt>
      <trkpt lat="46.93846" lon="8.7003">
        <ele>1690</ele>
        <time>2021-08-06T12:09:49.488Z</time>
      </trkpt>
      <trkpt lat="46.93846" lon="8.70029">
        <ele>1690</ele>
        <time>2021-08-06T12:09:50.489Z</time>
      </trkpt>
      <trkpt lat="46.93846" lon="8.70027">
        <ele>1690</ele>
        <time>2021-08-06T12:09:51.489Z</time>
      </trkpt>
      <trkpt lat="46.93846" lon="8.70026">
        <ele>1690</ele>
        <time>2021-08-06T12:09:52.489Z</time>
      </trkpt>
      <trkpt lat="46.93846" lon="8.70025">
        <ele>1690</ele>
        <time>2021-08-06T12:09:53.488Z</time>
      </trkpt>
      <trkpt lat="46.93847" lon="8.70024">
        <ele>1690</ele>
        <time>2021-08-06T12:09:54.489Z</time>
      </trkpt>
      <trkpt lat="46.93847" lon="8.70022">
        <ele>1691</ele>
        <time>2021-08-06T12:09:55.489Z</time>
      </trkpt>
      <trkpt lat="46.93847" lon="8.70021">
        <ele>1691</ele>
        <time>2021-08-06T12:09:56.489Z</time>
      </trkpt>
      <trkpt lat="46.93849" lon="8.7002">
        <ele>1692</ele>
        <time>2021-08-06T12:09:57.488Z</time>
      </trkpt>
      <trkpt lat="46.93849" lon="8.70019">
        <ele>1692</ele>
        <time>2021-08-06T12:09:58.488Z</time>
      </trkpt>
      <trkpt lat="46.93849" lon="8.70017">
        <ele>1692</ele>
        <time>2021-08-06T12:09:59.488Z</time>
      </trkpt>
      <trkpt lat="46.93849" lon="8.70016">
        <ele>1692</ele>
        <time>2021-08-06T12:10:00.488Z</time>
      </trkpt>
      <trkpt lat="46.93849" lon="8.70014">
        <ele>1692</ele>
        <time>2021-08-06T12:10:01.488Z</time>
      </trkpt>
      <trkpt lat="46.93849" lon="8.70013">
        <ele>1692</ele>
        <time>2021-08-06T12:10:02.488Z</time>
      </trkpt>
      <trkpt lat="46.93848" lon="8.70011">
        <ele>1693</ele>
        <time>2021-08-06T12:10:03.488Z</time>
      </trkpt>
      <trkpt lat="46.93848" lon="8.70009">
        <ele>1693</ele>
        <time>2021-08-06T12:10:04.488Z</time>
      </trkpt>
      <trkpt lat="46.93847" lon="8.70007">
        <ele>1693</ele>
        <time>2021-08-06T12:10:05.488Z</time>
      </trkpt>
      <trkpt lat="46.93847" lon="8.70006">
        <ele>1693</ele>
        <time>2021-08-06T12:10:06.488Z</time>
      </trkpt>
      <trkpt lat="46.93847" lon="8.70004">
        <ele>1693</ele>
        <time>2021-08-06T12:10:07.488Z</time>
      </trkpt>
      <trkpt lat="46.93846" lon="8.70003">
        <ele>1693</ele>
        <time>2021-08-06T12:10:08.488Z</time>
      </trkpt>
      <trkpt lat="46.93846" lon="8.70001">
        <ele>1692</ele>
        <time>2021-08-06T12:10:09.488Z</time>
      </trkpt>
      <trkpt lat="46.93846" lon="8.7">
        <ele>1692</ele>
        <time>2021-08-06T12:10:10.489Z</time>
      </trkpt>
      <trkpt lat="46.93845" lon="8.69999">
        <ele>1691</ele>
        <time>2021-08-06T12:10:11.489Z</time>
      </trkpt>
      <trkpt lat="46.93844" lon="8.69997">
        <ele>1691</ele>
        <time>2021-08-06T12:10:12.488Z</time>
      </trkpt>
      <trkpt lat="46.93844" lon="8.69996">
        <ele>1690</ele>
        <time>2021-08-06T12:10:13.489Z</time>
      </trkpt>
      <trkpt lat="46.93843" lon="8.69995">
        <ele>1689</ele>
        <time>2021-08-06T12:10:14.489Z</time>
      </trkpt>
      <trkpt lat="46.93843" lon="8.69995">
        <ele>1689</ele>
        <time>2021-08-06T12:10:15.489Z</time>
      </trkpt>
      <trkpt lat="46.93843" lon="8.69994">
        <ele>1689</ele>
        <time>2021-08-06T12:10:16.489Z</time>
      </trkpt>
      <trkpt lat="46.93842" lon="8.69993">
        <ele>1688</ele>
        <time>2021-08-06T12:10:17.489Z</time>
      </trkpt>
      <trkpt lat="46.93842" lon="8.69991">
        <ele>1688</ele>
        <time>2021-08-06T12:10:18.488Z</time>
      </trkpt>
      <trkpt lat="46.93841" lon="8.69989">
        <ele>1688</ele>
        <time>2021-08-06T12:10:19.489Z</time>
      </trkpt>
      <trkpt lat="46.9384" lon="8.69988">
        <ele>1688</ele>
        <time>2021-08-06T12:10:20.488Z</time>
      </trkpt>
      <trkpt lat="46.9384" lon="8.69986">
        <ele>1687</ele>
        <time>2021-08-06T12:10:21.488Z</time>
      </trkpt>
      <trkpt lat="46.93839" lon="8.69985">
        <ele>1687</ele>
        <time>2021-08-06T12:10:22.489Z</time>
      </trkpt>
      <trkpt lat="46.93839" lon="8.69984">
        <ele>1688</ele>
        <time>2021-08-06T12:10:23.489Z</time>
      </trkpt>
      <trkpt lat="46.93838" lon="8.69983">
        <ele>1688</ele>
        <time>2021-08-06T12:10:24.489Z</time>
      </trkpt>
      <trkpt lat="46.93838" lon="8.69982">
        <ele>1688</ele>
        <time>2021-08-06T12:10:25.488Z</time>
      </trkpt>
      <trkpt lat="46.93838" lon="8.69981">
        <ele>1689</ele>
        <time>2021-08-06T12:10:26.488Z</time>
      </trkpt>
      <trkpt lat="46.93837" lon="8.6998">
        <ele>1689</ele>
        <time>2021-08-06T12:10:27.489Z</time>
      </trkpt>
      <trkpt lat="46.93837" lon="8.69978">
        <ele>1690</ele>
        <time>2021-08-06T12:10:28.488Z</time>
      </trkpt>
      <trkpt lat="46.93837" lon="8.69976">
        <ele>1690</ele>
        <time>2021-08-06T12:10:29.489Z</time>
      </trkpt>
      <trkpt lat="46.93837" lon="8.69974">
        <ele>1690</ele>
        <time>2021-08-06T12:10:30.489Z</time>
      </trkpt>
      <trkpt lat="46.93837" lon="8.69972">
        <ele>1691</ele>
        <time>2021-08-06T12:10:31.489Z</time>
      </trkpt>
      <trkpt lat="46.93837" lon="8.6997">
        <ele>1691</ele>
        <time>2021-08-06T12:10:32.489Z</time>
      </trkpt>
      <trkpt lat="46.93837" lon="8.69969">
        <ele>1691</ele>
        <time>2021-08-06T12:10:33.489Z</time>
      </trkpt>
      <trkpt lat="46.93837" lon="8.69967">
        <ele>1690</ele>
        <time>2021-08-06T12:10:34.489Z</time>
      </trkpt>
      <trkpt lat="46.93837" lon="8.69966">
        <ele>1690</ele>
        <time>2021-08-06T12:10:35.489Z</time>
      </trkpt>
      <trkpt lat="46.93836" lon="8.69964">
        <ele>1690</ele>
        <time>2021-08-06T12:10:36.488Z</time>
      </trkpt>
      <trkpt lat="46.93836" lon="8.69963">
        <ele>1690</ele>
        <time>2021-08-06T12:10:37.488Z</time>
      </trkpt>
      <trkpt lat="46.93836" lon="8.69961">
        <ele>1689</ele>
        <time>2021-08-06T12:10:38.489Z</time>
      </trkpt>
      <trkpt lat="46.93837" lon="8.69959">
        <ele>1688</ele>
        <time>2021-08-06T12:10:39.489Z</time>
      </trkpt>
      <trkpt lat="46.93837" lon="8.69957">
        <ele>1688</ele>
        <time>2021-08-06T12:10:40.488Z</time>
      </trkpt>
      <trkpt lat="46.93837" lon="8.69955">
        <ele>1687</ele>
        <time>2021-08-06T12:10:41.488Z</time>
      </trkpt>
      <trkpt lat="46.93838" lon="8.69954">
        <ele>1687</ele>
        <time>2021-08-06T12:10:42.489Z</time>
      </trkpt>
      <trkpt lat="46.93838" lon="8.69953">
        <ele>1687</ele>
        <time>2021-08-06T12:10:43.489Z</time>
      </trkpt>
      <trkpt lat="46.93839" lon="8.69951">
        <ele>1687</ele>
        <time>2021-08-06T12:10:48.475Z</time>
      </trkpt>
      <trkpt lat="46.9384" lon="8.69949">
        <ele>1687</ele>
        <time>2021-08-06T12:10:49.474Z</time>
      </trkpt>
      <trkpt lat="46.9384" lon="8.69948">
        <ele>1686</ele>
        <time>2021-08-06T12:10:50.475Z</time>
      </trkpt>
      <trkpt lat="46.9384" lon="8.69946">
        <ele>1686</ele>
        <time>2021-08-06T12:10:58.650Z</time>
      </trkpt>
      <trkpt lat="46.9384" lon="8.69945">
        <ele>1686</ele>
        <time>2021-08-06T12:10:59.650Z</time>
      </trkpt>
      <trkpt lat="46.93841" lon="8.69943">
        <ele>1685</ele>
        <time>2021-08-06T12:11:00.650Z</time>
      </trkpt>
      <trkpt lat="46.93841" lon="8.69941">
        <ele>1685</ele>
        <time>2021-08-06T12:11:01.650Z</time>
      </trkpt>
      <trkpt lat="46.93842" lon="8.6994">
        <ele>1685</ele>
        <time>2021-08-06T12:11:02.649Z</time>
      </trkpt>
      <trkpt lat="46.93842" lon="8.69938">
        <ele>1685</ele>
        <time>2021-08-06T12:11:03.649Z</time>
      </trkpt>
      <trkpt lat="46.93842" lon="8.69936">
        <ele>1684</ele>
        <time>2021-08-06T12:11:04.650Z</time>
      </trkpt>
      <trkpt lat="46.93841" lon="8.69935">
        <ele>1684</ele>
        <time>2021-08-06T12:11:05.650Z</time>
      </trkpt>
      <trkpt lat="46.93841" lon="8.69933">
        <ele>1684</ele>
        <time>2021-08-06T12:11:06.650Z</time>
      </trkpt>
      <trkpt lat="46.93841" lon="8.69931">
        <ele>1683</ele>
        <time>2021-08-06T12:11:07.650Z</time>
      </trkpt>
      <trkpt lat="46.9384" lon="8.6993">
        <ele>1683</ele>
        <time>2021-08-06T12:11:08.650Z</time>
      </trkpt>
      <trkpt lat="46.9384" lon="8.69928">
        <ele>1683</ele>
        <time>2021-08-06T12:11:09.650Z</time>
      </trkpt>
      <trkpt lat="46.93839" lon="8.69927">
        <ele>1682</ele>
        <time>2021-08-06T12:11:10.650Z</time>
      </trkpt>
      <trkpt lat="46.93839" lon="8.69926">
        <ele>1681</ele>
        <time>2021-08-06T12:11:11.650Z</time>
      </trkpt>
      <trkpt lat="46.93838" lon="8.69924">
        <ele>1681</ele>
        <time>2021-08-06T12:11:12.650Z</time>
      </trkpt>
      <trkpt lat="46.93838" lon="8.69923">
        <ele>1681</ele>
        <time>2021-08-06T12:11:13.650Z</time>
      </trkpt>
      <trkpt lat="46.93837" lon="8.69922">
        <ele>1682</ele>
        <time>2021-08-06T12:11:14.649Z</time>
      </trkpt>
      <trkpt lat="46.93837" lon="8.69922">
        <ele>1682</ele>
        <time>2021-08-06T12:11:15.649Z</time>
      </trkpt>
      <trkpt lat="46.93836" lon="8.69922">
        <ele>1682</ele>
        <time>2021-08-06T12:11:16.649Z</time>
      </trkpt>
      <trkpt lat="46.93836" lon="8.6992">
        <ele>1680</ele>
        <time>2021-08-06T12:11:17.651Z</time>
      </trkpt>
      <trkpt lat="46.93836" lon="8.69918">
        <ele>1681</ele>
        <time>2021-08-06T12:11:18.650Z</time>
      </trkpt>
      <trkpt lat="46.93836" lon="8.69916">
        <ele>1681</ele>
        <time>2021-08-06T12:11:19.651Z</time>
      </trkpt>
      <trkpt lat="46.93836" lon="8.69914">
        <ele>1682</ele>
        <time>2021-08-06T12:11:20.650Z</time>
      </trkpt>
      <trkpt lat="46.93835" lon="8.69912">
        <ele>1682</ele>
        <time>2021-08-06T12:11:21.650Z</time>
      </trkpt>
      <trkpt lat="46.93835" lon="8.6991">
        <ele>1682</ele>
        <time>2021-08-06T12:11:22.651Z</time>
      </trkpt>
      <trkpt lat="46.93835" lon="8.69909">
        <ele>1682</ele>
        <time>2021-08-06T12:11:23.651Z</time>
      </trkpt>
      <trkpt lat="46.93835" lon="8.69907">
        <ele>1682</ele>
        <time>2021-08-06T12:11:24.651Z</time>
      </trkpt>
      <trkpt lat="46.93834" lon="8.69906">
        <ele>1681</ele>
        <time>2021-08-06T12:11:25.651Z</time>
      </trkpt>
      <trkpt lat="46.93834" lon="8.69905">
        <ele>1681</ele>
        <time>2021-08-06T12:11:26.651Z</time>
      </trkpt>
      <trkpt lat="46.93834" lon="8.69903">
        <ele>1681</ele>
        <time>2021-08-06T12:11:27.651Z</time>
      </trkpt>
      <trkpt lat="46.93833" lon="8.69902">
        <ele>1680</ele>
        <time>2021-08-06T12:11:28.651Z</time>
      </trkpt>
      <trkpt lat="46.93833" lon="8.69902">
        <ele>1680</ele>
        <time>2021-08-06T12:11:29.651Z</time>
      </trkpt>
      <trkpt lat="46.93832" lon="8.69901">
        <ele>1679</ele>
        <time>2021-08-06T12:11:30.650Z</time>
      </trkpt>
      <trkpt lat="46.93832" lon="8.69901">
        <ele>1678</ele>
        <time>2021-08-06T12:11:31.650Z</time>
      </trkpt>
      <trkpt lat="46.93831" lon="8.69901">
        <ele>1677</ele>
        <time>2021-08-06T12:11:32.650Z</time>
      </trkpt>
      <trkpt lat="46.9383" lon="8.69901">
        <ele>1676</ele>
        <time>2021-08-06T12:11:33.652Z</time>
      </trkpt>
      <trkpt lat="46.93829" lon="8.699">
        <ele>1676</ele>
        <time>2021-08-06T12:11:34.651Z</time>
      </trkpt>
      <trkpt lat="46.93828" lon="8.69898">
        <ele>1677</ele>
        <time>2021-08-06T12:11:35.651Z</time>
      </trkpt>
      <trkpt lat="46.93827" lon="8.69897">
        <ele>1677</ele>
        <time>2021-08-06T12:11:36.651Z</time>
      </trkpt>
      <trkpt lat="46.93826" lon="8.69895">
        <ele>1677</ele>
        <time>2021-08-06T12:11:37.652Z</time>
      </trkpt>
      <trkpt lat="46.93826" lon="8.69895">
        <ele>1678</ele>
        <time>2021-08-06T12:11:38.652Z</time>
      </trkpt>
      <trkpt lat="46.93825" lon="8.69894">
        <ele>1678</ele>
        <time>2021-08-06T12:11:39.652Z</time>
      </trkpt>
      <trkpt lat="46.93824" lon="8.69894">
        <ele>1678</ele>
        <time>2021-08-06T12:11:40.652Z</time>
      </trkpt>
      <trkpt lat="46.93823" lon="8.69893">
        <ele>1678</ele>
        <time>2021-08-06T12:11:41.652Z</time>
      </trkpt>
      <trkpt lat="46.93823" lon="8.69893">
        <ele>1678</ele>
        <time>2021-08-06T12:11:42.652Z</time>
      </trkpt>
      <trkpt lat="46.93823" lon="8.69893">
        <ele>1678</ele>
        <time>2021-08-06T12:11:43.651Z</time>
      </trkpt>
      <trkpt lat="46.93822" lon="8.69892">
        <ele>1678</ele>
        <time>2021-08-06T12:11:44.651Z</time>
      </trkpt>
      <trkpt lat="46.93822" lon="8.69891">
        <ele>1678</ele>
        <time>2021-08-06T12:11:45.651Z</time>
      </trkpt>
      <trkpt lat="46.93822" lon="8.6989">
        <ele>1678</ele>
        <time>2021-08-06T12:11:46.651Z</time>
      </trkpt>
      <trkpt lat="46.93822" lon="8.69889">
        <ele>1678</ele>
        <time>2021-08-06T12:11:47.652Z</time>
      </trkpt>
      <trkpt lat="46.93822" lon="8.69887">
        <ele>1678</ele>
        <time>2021-08-06T12:11:48.651Z</time>
      </trkpt>
      <trkpt lat="46.93822" lon="8.69886">
        <ele>1677</ele>
        <time>2021-08-06T12:11:49.652Z</time>
      </trkpt>
      <trkpt lat="46.93822" lon="8.69885">
        <ele>1677</ele>
        <time>2021-08-06T12:11:50.652Z</time>
      </trkpt>
      <trkpt lat="46.93822" lon="8.69883">
        <ele>1677</ele>
        <time>2021-08-06T12:11:51.652Z</time>
      </trkpt>
      <trkpt lat="46.93822" lon="8.69882">
        <ele>1676</ele>
        <time>2021-08-06T12:11:52.652Z</time>
      </trkpt>
      <trkpt lat="46.93821" lon="8.6988">
        <ele>1676</ele>
        <time>2021-08-06T12:11:53.652Z</time>
      </trkpt>
      <trkpt lat="46.93821" lon="8.69879">
        <ele>1676</ele>
        <time>2021-08-06T12:11:54.651Z</time>
      </trkpt>
      <trkpt lat="46.93821" lon="8.69877">
        <ele>1676</ele>
        <time>2021-08-06T12:11:55.651Z</time>
      </trkpt>
      <trkpt lat="46.9382" lon="8.69876">
        <ele>1676</ele>
        <time>2021-08-06T12:11:56.651Z</time>
      </trkpt>
      <trkpt lat="46.9382" lon="8.69875">
        <ele>1676</ele>
        <time>2021-08-06T12:11:57.651Z</time>
      </trkpt>
      <trkpt lat="46.93819" lon="8.69873">
        <ele>1676</ele>
        <time>2021-08-06T12:11:58.652Z</time>
      </trkpt>
      <trkpt lat="46.93819" lon="8.69871">
        <ele>1676</ele>
        <time>2021-08-06T12:11:59.651Z</time>
      </trkpt>
      <trkpt lat="46.93819" lon="8.6987">
        <ele>1676</ele>
        <time>2021-08-06T12:12:00.652Z</time>
      </trkpt>
      <trkpt lat="46.93818" lon="8.69868">
        <ele>1676</ele>
        <time>2021-08-06T12:12:01.651Z</time>
      </trkpt>
      <trkpt lat="46.93817" lon="8.69867">
        <ele>1676</ele>
        <time>2021-08-06T12:12:02.651Z</time>
      </trkpt>
      <trkpt lat="46.93816" lon="8.69865">
        <ele>1675</ele>
        <time>2021-08-06T12:12:03.651Z</time>
      </trkpt>
      <trkpt lat="46.93815" lon="8.69864">
        <ele>1675</ele>
        <time>2021-08-06T12:12:04.651Z</time>
      </trkpt>
      <trkpt lat="46.93815" lon="8.69862">
        <ele>1674</ele>
        <time>2021-08-06T12:12:05.651Z</time>
      </trkpt>
      <trkpt lat="46.93815" lon="8.69861">
        <ele>1673</ele>
        <time>2021-08-06T12:12:06.651Z</time>
      </trkpt>
      <trkpt lat="46.93814" lon="8.6986">
        <ele>1672</ele>
        <time>2021-08-06T12:12:07.651Z</time>
      </trkpt>
      <trkpt lat="46.93814" lon="8.69859">
        <ele>1672</ele>
        <time>2021-08-06T12:12:08.651Z</time>
      </trkpt>
      <trkpt lat="46.93813" lon="8.69858">
        <ele>1671</ele>
        <time>2021-08-06T12:12:09.651Z</time>
      </trkpt>
      <trkpt lat="46.93812" lon="8.69857">
        <ele>1671</ele>
        <time>2021-08-06T12:12:10.651Z</time>
      </trkpt>
      <trkpt lat="46.93811" lon="8.69856">
        <ele>1671</ele>
        <time>2021-08-06T12:12:11.651Z</time>
      </trkpt>
      <trkpt lat="46.93811" lon="8.69855">
        <ele>1670</ele>
        <time>2021-08-06T12:12:12.651Z</time>
      </trkpt>
      <trkpt lat="46.9381" lon="8.69855">
        <ele>1670</ele>
        <time>2021-08-06T12:12:13.652Z</time>
      </trkpt>
      <trkpt lat="46.93809" lon="8.69854">
        <ele>1670</ele>
        <time>2021-08-06T12:12:14.651Z</time>
      </trkpt>
      <trkpt lat="46.93808" lon="8.69853">
        <ele>1669</ele>
        <time>2021-08-06T12:12:15.651Z</time>
      </trkpt>
      <trkpt lat="46.93807" lon="8.69852">
        <ele>1669</ele>
        <time>2021-08-06T12:12:16.652Z</time>
      </trkpt>
      <trkpt lat="46.93806" lon="8.69851">
        <ele>1670</ele>
        <time>2021-08-06T12:12:17.651Z</time>
      </trkpt>
      <trkpt lat="46.93805" lon="8.6985">
        <ele>1669</ele>
        <time>2021-08-06T12:12:18.652Z</time>
      </trkpt>
      <trkpt lat="46.93805" lon="8.69849">
        <ele>1669</ele>
        <time>2021-08-06T12:12:19.652Z</time>
      </trkpt>
      <trkpt lat="46.93804" lon="8.69848">
        <ele>1668</ele>
        <time>2021-08-06T12:12:20.651Z</time>
      </trkpt>
      <trkpt lat="46.93804" lon="8.69847">
        <ele>1668</ele>
        <time>2021-08-06T12:12:21.651Z</time>
      </trkpt>
      <trkpt lat="46.93804" lon="8.69845">
        <ele>1668</ele>
        <time>2021-08-06T12:12:22.652Z</time>
      </trkpt>
      <trkpt lat="46.93804" lon="8.69843">
        <ele>1668</ele>
        <time>2021-08-06T12:12:23.652Z</time>
      </trkpt>
      <trkpt lat="46.93804" lon="8.69841">
        <ele>1668</ele>
        <time>2021-08-06T12:12:24.652Z</time>
      </trkpt>
      <trkpt lat="46.93804" lon="8.69839">
        <ele>1668</ele>
        <time>2021-08-06T12:12:25.651Z</time>
      </trkpt>
      <trkpt lat="46.93804" lon="8.69838">
        <ele>1668</ele>
        <time>2021-08-06T12:12:26.652Z</time>
      </trkpt>
      <trkpt lat="46.93804" lon="8.69836">
        <ele>1668</ele>
        <time>2021-08-06T12:12:27.652Z</time>
      </trkpt>
      <trkpt lat="46.93804" lon="8.69835">
        <ele>1668</ele>
        <time>2021-08-06T12:12:28.651Z</time>
      </trkpt>
      <trkpt lat="46.93804" lon="8.69835">
        <ele>1668</ele>
        <time>2021-08-06T12:12:29.652Z</time>
      </trkpt>
      <trkpt lat="46.93804" lon="8.69836">
        <ele>1668</ele>
        <time>2021-08-06T12:12:30.652Z</time>
      </trkpt>
      <trkpt lat="46.93805" lon="8.69838">
        <ele>1668</ele>
        <time>2021-08-06T12:12:31.652Z</time>
      </trkpt>
      <trkpt lat="46.93805" lon="8.6984">
        <ele>1667</ele>
        <time>2021-08-06T12:12:32.652Z</time>
      </trkpt>
      <trkpt lat="46.93805" lon="8.69841">
        <ele>1667</ele>
        <time>2021-08-06T12:12:33.652Z</time>
      </trkpt>
      <trkpt lat="46.93806" lon="8.6984">
        <ele>1667</ele>
        <time>2021-08-06T12:12:34.652Z</time>
      </trkpt>
      <trkpt lat="46.93807" lon="8.69839">
        <ele>1667</ele>
        <time>2021-08-06T12:12:35.651Z</time>
      </trkpt>
      <trkpt lat="46.93807" lon="8.69839">
        <ele>1667</ele>
        <time>2021-08-06T12:12:36.651Z</time>
      </trkpt>
      <trkpt lat="46.93807" lon="8.69839">
        <ele>1667</ele>
        <time>2021-08-06T12:12:37.652Z</time>
      </trkpt>
      <trkpt lat="46.93807" lon="8.69838">
        <ele>1667</ele>
        <time>2021-08-06T12:12:38.652Z</time>
      </trkpt>
      <trkpt lat="46.93807" lon="8.69838">
        <ele>1667</ele>
        <time>2021-08-06T12:12:39.652Z</time>
      </trkpt>
      <trkpt lat="46.93806" lon="8.69838">
        <ele>1667</ele>
        <time>2021-08-06T12:12:40.651Z</time>
      </trkpt>
      <trkpt lat="46.93806" lon="8.69838">
        <ele>1667</ele>
        <time>2021-08-06T12:12:41.652Z</time>
      </trkpt>
      <trkpt lat="46.93805" lon="8.69837">
        <ele>1668</ele>
        <time>2021-08-06T12:12:42.652Z</time>
      </trkpt>
      <trkpt lat="46.93805" lon="8.69836">
        <ele>1668</ele>
        <time>2021-08-06T12:12:43.651Z</time>
      </trkpt>
      <trkpt lat="46.93805" lon="8.69835">
        <ele>1668</ele>
        <time>2021-08-06T12:12:44.651Z</time>
      </trkpt>
      <trkpt lat="46.93805" lon="8.69833">
        <ele>1669</ele>
        <time>2021-08-06T12:12:45.652Z</time>
      </trkpt>
      <trkpt lat="46.93806" lon="8.69833">
        <ele>1669</ele>
        <time>2021-08-06T12:12:46.652Z</time>
      </trkpt>
      <trkpt lat="46.93805" lon="8.69831">
        <ele>1669</ele>
        <time>2021-08-06T12:12:47.651Z</time>
      </trkpt>
      <trkpt lat="46.93805" lon="8.6983">
        <ele>1669</ele>
        <time>2021-08-06T12:12:48.651Z</time>
      </trkpt>
      <trkpt lat="46.93806" lon="8.6983">
        <ele>1670</ele>
        <time>2021-08-06T12:12:49.652Z</time>
      </trkpt>
      <trkpt lat="46.93805" lon="8.69829">
        <ele>1670</ele>
        <time>2021-08-06T12:12:50.652Z</time>
      </trkpt>
      <trkpt lat="46.93805" lon="8.69828">
        <ele>1670</ele>
        <time>2021-08-06T12:12:51.651Z</time>
      </trkpt>
      <trkpt lat="46.93804" lon="8.69828">
        <ele>1670</ele>
        <time>2021-08-06T12:12:52.652Z</time>
      </trkpt>
      <trkpt lat="46.93803" lon="8.69827">
        <ele>1670</ele>
        <time>2021-08-06T12:12:53.652Z</time>
      </trkpt>
      <trkpt lat="46.93802" lon="8.69826">
        <ele>1670</ele>
        <time>2021-08-06T12:12:54.652Z</time>
      </trkpt>
      <trkpt lat="46.93801" lon="8.69824">
        <ele>1670</ele>
        <time>2021-08-06T12:12:55.652Z</time>
      </trkpt>
      <trkpt lat="46.93799" lon="8.69823">
        <ele>1670</ele>
        <time>2021-08-06T12:12:56.652Z</time>
      </trkpt>
      <trkpt lat="46.93799" lon="8.69823">
        <ele>1670</ele>
        <time>2021-08-06T12:12:57.651Z</time>
      </trkpt>
      <trkpt lat="46.93799" lon="8.69822">
        <ele>1671</ele>
        <time>2021-08-06T12:12:58.651Z</time>
      </trkpt>
      <trkpt lat="46.93798" lon="8.69821">
        <ele>1671</ele>
        <time>2021-08-06T12:12:59.652Z</time>
      </trkpt>
      <trkpt lat="46.93797" lon="8.69821">
        <ele>1671</ele>
        <time>2021-08-06T12:13:00.651Z</time>
      </trkpt>
      <trkpt lat="46.93796" lon="8.6982">
        <ele>1672</ele>
        <time>2021-08-06T12:13:01.651Z</time>
      </trkpt>
      <trkpt lat="46.93796" lon="8.6982">
        <ele>1672</ele>
        <time>2021-08-06T12:13:02.651Z</time>
      </trkpt>
      <trkpt lat="46.93795" lon="8.69819">
        <ele>1672</ele>
        <time>2021-08-06T12:13:03.652Z</time>
      </trkpt>
      <trkpt lat="46.93795" lon="8.69817">
        <ele>1671</ele>
        <time>2021-08-06T12:13:04.651Z</time>
      </trkpt>
      <trkpt lat="46.93794" lon="8.69817">
        <ele>1670</ele>
        <time>2021-08-06T12:13:05.651Z</time>
      </trkpt>
      <trkpt lat="46.93793" lon="8.69816">
        <ele>1670</ele>
        <time>2021-08-06T12:13:06.652Z</time>
      </trkpt>
      <trkpt lat="46.93793" lon="8.69815">
        <ele>1669</ele>
        <time>2021-08-06T12:13:07.652Z</time>
      </trkpt>
      <trkpt lat="46.93792" lon="8.69815">
        <ele>1669</ele>
        <time>2021-08-06T12:13:08.652Z</time>
      </trkpt>
      <trkpt lat="46.93792" lon="8.69816">
        <ele>1669</ele>
        <time>2021-08-06T12:13:09.652Z</time>
      </trkpt>
      <trkpt lat="46.93791" lon="8.69816">
        <ele>1669</ele>
        <time>2021-08-06T12:13:10.652Z</time>
      </trkpt>
      <trkpt lat="46.93791" lon="8.69815">
        <ele>1669</ele>
        <time>2021-08-06T12:13:11.652Z</time>
      </trkpt>
      <trkpt lat="46.93791" lon="8.69815">
        <ele>1669</ele>
        <time>2021-08-06T12:13:12.651Z</time>
      </trkpt>
      <trkpt lat="46.9379" lon="8.69814">
        <ele>1669</ele>
        <time>2021-08-06T12:13:13.652Z</time>
      </trkpt>
      <trkpt lat="46.93789" lon="8.69814">
        <ele>1669</ele>
        <time>2021-08-06T12:13:14.652Z</time>
      </trkpt>
      <trkpt lat="46.93789" lon="8.69813">
        <ele>1670</ele>
        <time>2021-08-06T12:13:15.651Z</time>
      </trkpt>
      <trkpt lat="46.93789" lon="8.69813">
        <ele>1669</ele>
        <time>2021-08-06T12:13:16.652Z</time>
      </trkpt>
      <trkpt lat="46.93788" lon="8.69813">
        <ele>1669</ele>
        <time>2021-08-06T12:13:17.651Z</time>
      </trkpt>
      <trkpt lat="46.93788" lon="8.69813">
        <ele>1669</ele>
        <time>2021-08-06T12:13:18.652Z</time>
      </trkpt>
      <trkpt lat="46.93787" lon="8.69813">
        <ele>1670</ele>
        <time>2021-08-06T12:13:19.651Z</time>
      </trkpt>
      <trkpt lat="46.93786" lon="8.69813">
        <ele>1670</ele>
        <time>2021-08-06T12:13:20.652Z</time>
      </trkpt>
      <trkpt lat="46.93786" lon="8.69813">
        <ele>1670</ele>
        <time>2021-08-06T12:13:21.652Z</time>
      </trkpt>
      <trkpt lat="46.93786" lon="8.69812">
        <ele>1670</ele>
        <time>2021-08-06T12:13:22.652Z</time>
      </trkpt>
      <trkpt lat="46.93785" lon="8.69812">
        <ele>1670</ele>
        <time>2021-08-06T12:13:23.651Z</time>
      </trkpt>
      <trkpt lat="46.93785" lon="8.69811">
        <ele>1670</ele>
        <time>2021-08-06T12:13:24.652Z</time>
      </trkpt>
      <trkpt lat="46.93786" lon="8.69811">
        <ele>1670</ele>
        <time>2021-08-06T12:13:25.651Z</time>
      </trkpt>
      <trkpt lat="46.93784" lon="8.69811">
        <ele>1670</ele>
        <time>2021-08-06T12:13:26.652Z</time>
      </trkpt>
      <trkpt lat="46.93784" lon="8.69811">
        <ele>1670</ele>
        <time>2021-08-06T12:13:27.652Z</time>
      </trkpt>
      <trkpt lat="46.93783" lon="8.69811">
        <ele>1670</ele>
        <time>2021-08-06T12:13:28.651Z</time>
      </trkpt>
      <trkpt lat="46.93783" lon="8.69811">
        <ele>1670</ele>
        <time>2021-08-06T12:13:29.652Z</time>
      </trkpt>
      <trkpt lat="46.93782" lon="8.69811">
        <ele>1670</ele>
        <time>2021-08-06T12:13:30.652Z</time>
      </trkpt>
      <trkpt lat="46.93782" lon="8.6981">
        <ele>1671</ele>
        <time>2021-08-06T12:13:31.652Z</time>
      </trkpt>
      <trkpt lat="46.93781" lon="8.6981">
        <ele>1671</ele>
        <time>2021-08-06T12:13:32.652Z</time>
      </trkpt>
      <trkpt lat="46.93781" lon="8.6981">
        <ele>1671</ele>
        <time>2021-08-06T12:13:33.652Z</time>
      </trkpt>
      <trkpt lat="46.9378" lon="8.6981">
        <ele>1672</ele>
        <time>2021-08-06T12:13:34.652Z</time>
      </trkpt>
      <trkpt lat="46.93779" lon="8.6981">
        <ele>1672</ele>
        <time>2021-08-06T12:13:35.652Z</time>
      </trkpt>
      <trkpt lat="46.93779" lon="8.6981">
        <ele>1672</ele>
        <time>2021-08-06T12:13:36.652Z</time>
      </trkpt>
      <trkpt lat="46.93778" lon="8.6981">
        <ele>1672</ele>
        <time>2021-08-06T12:13:37.652Z</time>
      </trkpt>
      <trkpt lat="46.93778" lon="8.69809">
        <ele>1672</ele>
        <time>2021-08-06T12:13:38.652Z</time>
      </trkpt>
      <trkpt lat="46.93778" lon="8.69809">
        <ele>1672</ele>
        <time>2021-08-06T12:13:39.652Z</time>
      </trkpt>
      <trkpt lat="46.93777" lon="8.69809">
        <ele>1672</ele>
        <time>2021-08-06T12:13:40.652Z</time>
      </trkpt>
      <trkpt lat="46.93777" lon="8.69809">
        <ele>1672</ele>
        <time>2021-08-06T12:13:41.651Z</time>
      </trkpt>
      <trkpt lat="46.93776" lon="8.6981">
        <ele>1672</ele>
        <time>2021-08-06T12:13:42.652Z</time>
      </trkpt>
      <trkpt lat="46.93775" lon="8.69811">
        <ele>1673</ele>
        <time>2021-08-06T12:13:43.651Z</time>
      </trkpt>
      <trkpt lat="46.93774" lon="8.6981">
        <ele>1673</ele>
        <time>2021-08-06T12:13:44.652Z</time>
      </trkpt>
      <trkpt lat="46.93773" lon="8.69811">
        <ele>1674</ele>
        <time>2021-08-06T12:13:45.652Z</time>
      </trkpt>
      <trkpt lat="46.93773" lon="8.69811">
        <ele>1674</ele>
        <time>2021-08-06T12:13:46.652Z</time>
      </trkpt>
      <trkpt lat="46.93772" lon="8.69811">
        <ele>1675</ele>
        <time>2021-08-06T12:13:47.651Z</time>
      </trkpt>
      <trkpt lat="46.93771" lon="8.69811">
        <ele>1675</ele>
        <time>2021-08-06T12:13:48.652Z</time>
      </trkpt>
      <trkpt lat="46.93771" lon="8.69811">
        <ele>1675</ele>
        <time>2021-08-06T12:13:49.651Z</time>
      </trkpt>
      <trkpt lat="46.93771" lon="8.69811">
        <ele>1675</ele>
        <time>2021-08-06T12:13:50.652Z</time>
      </trkpt>
      <trkpt lat="46.9377" lon="8.69812">
        <ele>1675</ele>
        <time>2021-08-06T12:13:51.652Z</time>
      </trkpt>
      <trkpt lat="46.93769" lon="8.69812">
        <ele>1674</ele>
        <time>2021-08-06T12:13:52.651Z</time>
      </trkpt>
      <trkpt lat="46.93769" lon="8.69812">
        <ele>1674</ele>
        <time>2021-08-06T12:13:53.652Z</time>
      </trkpt>
      <trkpt lat="46.93768" lon="8.69812">
        <ele>1673</ele>
        <time>2021-08-06T12:13:54.652Z</time>
      </trkpt>
      <trkpt lat="46.93768" lon="8.69812">
        <ele>1673</ele>
        <time>2021-08-06T12:13:55.652Z</time>
      </trkpt>
      <trkpt lat="46.93767" lon="8.69812">
        <ele>1672</ele>
        <time>2021-08-06T12:13:56.651Z</time>
      </trkpt>
      <trkpt lat="46.93767" lon="8.69811">
        <ele>1672</ele>
        <time>2021-08-06T12:13:57.652Z</time>
      </trkpt>
      <trkpt lat="46.93766" lon="8.69811">
        <ele>1672</ele>
        <time>2021-08-06T12:13:58.651Z</time>
      </trkpt>
      <trkpt lat="46.93766" lon="8.69811">
        <ele>1672</ele>
        <time>2021-08-06T12:13:59.652Z</time>
      </trkpt>
      <trkpt lat="46.93765" lon="8.6981">
        <ele>1673</ele>
        <time>2021-08-06T12:14:00.651Z</time>
      </trkpt>
      <trkpt lat="46.93765" lon="8.69809">
        <ele>1673</ele>
        <time>2021-08-06T12:14:01.652Z</time>
      </trkpt>
      <trkpt lat="46.93764" lon="8.69809">
        <ele>1673</ele>
        <time>2021-08-06T12:14:02.652Z</time>
      </trkpt>
      <trkpt lat="46.93764" lon="8.69808">
        <ele>1673</ele>
        <time>2021-08-06T12:14:03.652Z</time>
      </trkpt>
      <trkpt lat="46.93764" lon="8.69808">
        <ele>1674</ele>
        <time>2021-08-06T12:14:04.651Z</time>
      </trkpt>
      <trkpt lat="46.93764" lon="8.69808">
        <ele>1674</ele>
        <time>2021-08-06T12:14:05.652Z</time>
      </trkpt>
      <trkpt lat="46.93763" lon="8.69807">
        <ele>1674</ele>
        <time>2021-08-06T12:14:06.651Z</time>
      </trkpt>
      <trkpt lat="46.93763" lon="8.69807">
        <ele>1674</ele>
        <time>2021-08-06T12:14:07.652Z</time>
      </trkpt>
      <trkpt lat="46.93763" lon="8.69807">
        <ele>1674</ele>
        <time>2021-08-06T12:14:08.652Z</time>
      </trkpt>
      <trkpt lat="46.93763" lon="8.69806">
        <ele>1675</ele>
        <time>2021-08-06T12:14:09.652Z</time>
      </trkpt>
      <trkpt lat="46.93762" lon="8.69806">
        <ele>1675</ele>
        <time>2021-08-06T12:14:10.652Z</time>
      </trkpt>
      <trkpt lat="46.93762" lon="8.69805">
        <ele>1675</ele>
        <time>2021-08-06T12:14:11.652Z</time>
      </trkpt>
      <trkpt lat="46.93762" lon="8.69804">
        <ele>1675</ele>
        <time>2021-08-06T12:14:12.651Z</time>
      </trkpt>
      <trkpt lat="46.93761" lon="8.69804">
        <ele>1675</ele>
        <time>2021-08-06T12:14:13.652Z</time>
      </trkpt>
      <trkpt lat="46.93761" lon="8.69803">
        <ele>1675</ele>
        <time>2021-08-06T12:14:14.651Z</time>
      </trkpt>
      <trkpt lat="46.93761" lon="8.69803">
        <ele>1675</ele>
        <time>2021-08-06T12:14:15.651Z</time>
      </trkpt>
      <trkpt lat="46.9376" lon="8.69802">
        <ele>1675</ele>
        <time>2021-08-06T12:14:16.652Z</time>
      </trkpt>
      <trkpt lat="46.9376" lon="8.69801">
        <ele>1675</ele>
        <time>2021-08-06T12:14:17.652Z</time>
      </trkpt>
      <trkpt lat="46.93759" lon="8.698">
        <ele>1675</ele>
        <time>2021-08-06T12:14:18.651Z</time>
      </trkpt>
      <trkpt lat="46.93759" lon="8.69799">
        <ele>1675</ele>
        <time>2021-08-06T12:14:19.652Z</time>
      </trkpt>
      <trkpt lat="46.93759" lon="8.69799">
        <ele>1675</ele>
        <time>2021-08-06T12:14:20.651Z</time>
      </trkpt>
      <trkpt lat="46.93758" lon="8.69798">
        <ele>1675</ele>
        <time>2021-08-06T12:14:21.652Z</time>
      </trkpt>
      <trkpt lat="46.93758" lon="8.69798">
        <ele>1675</ele>
        <time>2021-08-06T12:14:22.651Z</time>
      </trkpt>
      <trkpt lat="46.93758" lon="8.69798">
        <ele>1675</ele>
        <time>2021-08-06T12:14:23.652Z</time>
      </trkpt>
      <trkpt lat="46.93757" lon="8.69797">
        <ele>1675</ele>
        <time>2021-08-06T12:14:24.651Z</time>
      </trkpt>
      <trkpt lat="46.93757" lon="8.69796">
        <ele>1676</ele>
        <time>2021-08-06T12:14:25.652Z</time>
      </trkpt>
      <trkpt lat="46.93757" lon="8.69795">
        <ele>1676</ele>
        <time>2021-08-06T12:14:26.651Z</time>
      </trkpt>
      <trkpt lat="46.93756" lon="8.69794">
        <ele>1677</ele>
        <time>2021-08-06T12:14:27.652Z</time>
      </trkpt>
      <trkpt lat="46.93756" lon="8.69792">
        <ele>1677</ele>
        <time>2021-08-06T12:14:28.652Z</time>
      </trkpt>
      <trkpt lat="46.93755" lon="8.69792">
        <ele>1678</ele>
        <time>2021-08-06T12:14:29.652Z</time>
      </trkpt>
      <trkpt lat="46.93755" lon="8.69791">
        <ele>1678</ele>
        <time>2021-08-06T12:14:30.651Z</time>
      </trkpt>
      <trkpt lat="46.93754" lon="8.6979">
        <ele>1678</ele>
        <time>2021-08-06T12:14:31.652Z</time>
      </trkpt>
      <trkpt lat="46.93754" lon="8.69789">
        <ele>1679</ele>
        <time>2021-08-06T12:14:32.652Z</time>
      </trkpt>
      <trkpt lat="46.93754" lon="8.69789">
        <ele>1679</ele>
        <time>2021-08-06T12:14:33.651Z</time>
      </trkpt>
      <trkpt lat="46.93753" lon="8.69787">
        <ele>1680</ele>
        <time>2021-08-06T12:14:34.651Z</time>
      </trkpt>
      <trkpt lat="46.93752" lon="8.69786">
        <ele>1680</ele>
        <time>2021-08-06T12:14:35.651Z</time>
      </trkpt>
      <trkpt lat="46.93752" lon="8.69786">
        <ele>1681</ele>
        <time>2021-08-06T12:14:36.651Z</time>
      </trkpt>
      <trkpt lat="46.93751" lon="8.69785">
        <ele>1681</ele>
        <time>2021-08-06T12:14:37.652Z</time>
      </trkpt>
      <trkpt lat="46.93751" lon="8.69784">
        <ele>1681</ele>
        <time>2021-08-06T12:14:38.651Z</time>
      </trkpt>
      <trkpt lat="46.93752" lon="8.69783">
        <ele>1682</ele>
        <time>2021-08-06T12:14:39.652Z</time>
      </trkpt>
      <trkpt lat="46.93752" lon="8.69781">
        <ele>1682</ele>
        <time>2021-08-06T12:14:40.652Z</time>
      </trkpt>
      <trkpt lat="46.93753" lon="8.6978">
        <ele>1683</ele>
        <time>2021-08-06T12:14:41.652Z</time>
      </trkpt>
      <trkpt lat="46.93754" lon="8.69778">
        <ele>1683</ele>
        <time>2021-08-06T12:14:42.652Z</time>
      </trkpt>
      <trkpt lat="46.93754" lon="8.69777">
        <ele>1683</ele>
        <time>2021-08-06T12:14:43.651Z</time>
      </trkpt>
      <trkpt lat="46.93755" lon="8.69775">
        <ele>1684</ele>
        <time>2021-08-06T12:14:44.652Z</time>
      </trkpt>
      <trkpt lat="46.93754" lon="8.69774">
        <ele>1684</ele>
        <time>2021-08-06T12:14:45.652Z</time>
      </trkpt>
      <trkpt lat="46.93754" lon="8.69773">
        <ele>1685</ele>
        <time>2021-08-06T12:14:46.652Z</time>
      </trkpt>
      <trkpt lat="46.93753" lon="8.69773">
        <ele>1685</ele>
        <time>2021-08-06T12:14:47.652Z</time>
      </trkpt>
      <trkpt lat="46.93752" lon="8.69772">
        <ele>1685</ele>
        <time>2021-08-06T12:14:48.652Z</time>
      </trkpt>
      <trkpt lat="46.93752" lon="8.69771">
        <ele>1685</ele>
        <time>2021-08-06T12:14:49.652Z</time>
      </trkpt>
      <trkpt lat="46.93751" lon="8.69771">
        <ele>1685</ele>
        <time>2021-08-06T12:14:50.651Z</time>
      </trkpt>
      <trkpt lat="46.9375" lon="8.6977">
        <ele>1685</ele>
        <time>2021-08-06T12:14:51.651Z</time>
      </trkpt>
      <trkpt lat="46.93749" lon="8.6977">
        <ele>1685</ele>
        <time>2021-08-06T12:14:52.651Z</time>
      </trkpt>
      <trkpt lat="46.93748" lon="8.69769">
        <ele>1685</ele>
        <time>2021-08-06T12:14:53.652Z</time>
      </trkpt>
      <trkpt lat="46.93747" lon="8.69769">
        <ele>1684</ele>
        <time>2021-08-06T12:14:54.651Z</time>
      </trkpt>
      <trkpt lat="46.93746" lon="8.69768">
        <ele>1684</ele>
        <time>2021-08-06T12:14:55.651Z</time>
      </trkpt>
      <trkpt lat="46.93746" lon="8.69768">
        <ele>1683</ele>
        <time>2021-08-06T12:14:56.651Z</time>
      </trkpt>
      <trkpt lat="46.93745" lon="8.69768">
        <ele>1683</ele>
        <time>2021-08-06T12:14:57.652Z</time>
      </trkpt>
      <trkpt lat="46.93745" lon="8.69767">
        <ele>1682</ele>
        <time>2021-08-06T12:14:58.652Z</time>
      </trkpt>
      <trkpt lat="46.93745" lon="8.69766">
        <ele>1682</ele>
        <time>2021-08-06T12:14:59.652Z</time>
      </trkpt>
      <trkpt lat="46.93744" lon="8.69765">
        <ele>1682</ele>
        <time>2021-08-06T12:15:00.652Z</time>
      </trkpt>
      <trkpt lat="46.93744" lon="8.69764">
        <ele>1682</ele>
        <time>2021-08-06T12:15:01.652Z</time>
      </trkpt>
      <trkpt lat="46.93744" lon="8.69763">
        <ele>1682</ele>
        <time>2021-08-06T12:15:02.652Z</time>
      </trkpt>
      <trkpt lat="46.93743" lon="8.69762">
        <ele>1681</ele>
        <time>2021-08-06T12:15:03.651Z</time>
      </trkpt>
      <trkpt lat="46.93743" lon="8.6976">
        <ele>1680</ele>
        <time>2021-08-06T12:15:04.651Z</time>
      </trkpt>
      <trkpt lat="46.93743" lon="8.69758">
        <ele>1680</ele>
        <time>2021-08-06T12:15:05.651Z</time>
      </trkpt>
      <trkpt lat="46.93743" lon="8.69757">
        <ele>1680</ele>
        <time>2021-08-06T12:15:06.652Z</time>
      </trkpt>
      <trkpt lat="46.93742" lon="8.69755">
        <ele>1679</ele>
        <time>2021-08-06T12:15:07.652Z</time>
      </trkpt>
      <trkpt lat="46.93742" lon="8.69753">
        <ele>1679</ele>
        <time>2021-08-06T12:15:08.651Z</time>
      </trkpt>
      <trkpt lat="46.93742" lon="8.69752">
        <ele>1679</ele>
        <time>2021-08-06T12:15:09.652Z</time>
      </trkpt>
      <trkpt lat="46.93742" lon="8.6975">
        <ele>1679</ele>
        <time>2021-08-06T12:15:10.651Z</time>
      </trkpt>
      <trkpt lat="46.93741" lon="8.69749">
        <ele>1679</ele>
        <time>2021-08-06T12:15:11.651Z</time>
      </trkpt>
      <trkpt lat="46.93742" lon="8.69748">
        <ele>1679</ele>
        <time>2021-08-06T12:15:12.652Z</time>
      </trkpt>
      <trkpt lat="46.93742" lon="8.69747">
        <ele>1679</ele>
        <time>2021-08-06T12:15:13.651Z</time>
      </trkpt>
      <trkpt lat="46.93742" lon="8.69745">
        <ele>1680</ele>
        <time>2021-08-06T12:15:14.651Z</time>
      </trkpt>
      <trkpt lat="46.93742" lon="8.69743">
        <ele>1679</ele>
        <time>2021-08-06T12:15:15.651Z</time>
      </trkpt>
      <trkpt lat="46.93742" lon="8.69742">
        <ele>1679</ele>
        <time>2021-08-06T12:15:16.651Z</time>
      </trkpt>
      <trkpt lat="46.93742" lon="8.6974">
        <ele>1680</ele>
        <time>2021-08-06T12:15:17.651Z</time>
      </trkpt>
      <trkpt lat="46.93742" lon="8.69739">
        <ele>1680</ele>
        <time>2021-08-06T12:15:18.652Z</time>
      </trkpt>
      <trkpt lat="46.93743" lon="8.69738">
        <ele>1680</ele>
        <time>2021-08-06T12:15:19.651Z</time>
      </trkpt>
      <trkpt lat="46.93743" lon="8.69737">
        <ele>1681</ele>
        <time>2021-08-06T12:15:20.651Z</time>
      </trkpt>
      <trkpt lat="46.93743" lon="8.69736">
        <ele>1681</ele>
        <time>2021-08-06T12:15:21.651Z</time>
      </trkpt>
      <trkpt lat="46.93743" lon="8.69734">
        <ele>1682</ele>
        <time>2021-08-06T12:15:22.651Z</time>
      </trkpt>
      <trkpt lat="46.93743" lon="8.69733">
        <ele>1682</ele>
        <time>2021-08-06T12:15:23.651Z</time>
      </trkpt>
      <trkpt lat="46.93743" lon="8.69732">
        <ele>1683</ele>
        <time>2021-08-06T12:15:24.651Z</time>
      </trkpt>
      <trkpt lat="46.93743" lon="8.69731">
        <ele>1683</ele>
        <time>2021-08-06T12:15:25.651Z</time>
      </trkpt>
      <trkpt lat="46.93743" lon="8.69729">
        <ele>1683</ele>
        <time>2021-08-06T12:15:26.651Z</time>
      </trkpt>
      <trkpt lat="46.93743" lon="8.69728">
        <ele>1683</ele>
        <time>2021-08-06T12:15:27.651Z</time>
      </trkpt>
      <trkpt lat="46.93743" lon="8.69727">
        <ele>1683</ele>
        <time>2021-08-06T12:15:28.651Z</time>
      </trkpt>
      <trkpt lat="46.93743" lon="8.69726">
        <ele>1684</ele>
        <time>2021-08-06T12:15:29.652Z</time>
      </trkpt>
      <trkpt lat="46.93743" lon="8.69724">
        <ele>1685</ele>
        <time>2021-08-06T12:15:30.651Z</time>
      </trkpt>
      <trkpt lat="46.93743" lon="8.69722">
        <ele>1686</ele>
        <time>2021-08-06T12:15:31.651Z</time>
      </trkpt>
      <trkpt lat="46.93743" lon="8.69721">
        <ele>1687</ele>
        <time>2021-08-06T12:15:32.651Z</time>
      </trkpt>
      <trkpt lat="46.93743" lon="8.69719">
        <ele>1688</ele>
        <time>2021-08-06T12:15:33.651Z</time>
      </trkpt>
      <trkpt lat="46.93742" lon="8.69718">
        <ele>1688</ele>
        <time>2021-08-06T12:15:34.651Z</time>
      </trkpt>
      <trkpt lat="46.93742" lon="8.69717">
        <ele>1689</ele>
        <time>2021-08-06T12:15:35.652Z</time>
      </trkpt>
      <trkpt lat="46.93741" lon="8.69715">
        <ele>1689</ele>
        <time>2021-08-06T12:15:36.651Z</time>
      </trkpt>
      <trkpt lat="46.9374" lon="8.69714">
        <ele>1690</ele>
        <time>2021-08-06T12:15:37.651Z</time>
      </trkpt>
      <trkpt lat="46.9374" lon="8.69713">
        <ele>1690</ele>
        <time>2021-08-06T12:15:38.651Z</time>
      </trkpt>
      <trkpt lat="46.93739" lon="8.69712">
        <ele>1691</ele>
        <time>2021-08-06T12:15:39.652Z</time>
      </trkpt>
      <trkpt lat="46.93739" lon="8.69711">
        <ele>1691</ele>
        <time>2021-08-06T12:15:40.651Z</time>
      </trkpt>
      <trkpt lat="46.93737" lon="8.69711">
        <ele>1691</ele>
        <time>2021-08-06T12:15:41.651Z</time>
      </trkpt>
      <trkpt lat="46.93737" lon="8.6971">
        <ele>1691</ele>
        <time>2021-08-06T12:15:42.652Z</time>
      </trkpt>
      <trkpt lat="46.93735" lon="8.69709">
        <ele>1691</ele>
        <time>2021-08-06T12:15:43.652Z</time>
      </trkpt>
      <trkpt lat="46.93735" lon="8.69708">
        <ele>1691</ele>
        <time>2021-08-06T12:15:44.652Z</time>
      </trkpt>
      <trkpt lat="46.93734" lon="8.69707">
        <ele>1690</ele>
        <time>2021-08-06T12:15:45.652Z</time>
      </trkpt>
      <trkpt lat="46.93733" lon="8.69706">
        <ele>1690</ele>
        <time>2021-08-06T12:15:46.652Z</time>
      </trkpt>
      <trkpt lat="46.93732" lon="8.69705">
        <ele>1690</ele>
        <time>2021-08-06T12:15:47.651Z</time>
      </trkpt>
      <trkpt lat="46.93731" lon="8.69704">
        <ele>1689</ele>
        <time>2021-08-06T12:15:48.651Z</time>
      </trkpt>
      <trkpt lat="46.9373" lon="8.69703">
        <ele>1689</ele>
        <time>2021-08-06T12:15:49.651Z</time>
      </trkpt>
      <trkpt lat="46.93729" lon="8.69702">
        <ele>1689</ele>
        <time>2021-08-06T12:15:50.651Z</time>
      </trkpt>
      <trkpt lat="46.93728" lon="8.69701">
        <ele>1689</ele>
        <time>2021-08-06T12:15:51.652Z</time>
      </trkpt>
      <trkpt lat="46.93727" lon="8.697">
        <ele>1689</ele>
        <time>2021-08-06T12:15:52.652Z</time>
      </trkpt>
      <trkpt lat="46.93726" lon="8.697">
        <ele>1689</ele>
        <time>2021-08-06T12:15:53.651Z</time>
      </trkpt>
      <trkpt lat="46.93725" lon="8.69699">
        <ele>1689</ele>
        <time>2021-08-06T12:15:54.651Z</time>
      </trkpt>
      <trkpt lat="46.93724" lon="8.69698">
        <ele>1689</ele>
        <time>2021-08-06T12:15:55.652Z</time>
      </trkpt>
      <trkpt lat="46.93723" lon="8.69698">
        <ele>1689</ele>
        <time>2021-08-06T12:15:56.651Z</time>
      </trkpt>
      <trkpt lat="46.93722" lon="8.69697">
        <ele>1689</ele>
        <time>2021-08-06T12:15:57.651Z</time>
      </trkpt>
      <trkpt lat="46.93721" lon="8.69698">
        <ele>1689</ele>
        <time>2021-08-06T12:15:58.652Z</time>
      </trkpt>
      <trkpt lat="46.93721" lon="8.69697">
        <ele>1689</ele>
        <time>2021-08-06T12:15:59.651Z</time>
      </trkpt>
      <trkpt lat="46.9372" lon="8.69696">
        <ele>1690</ele>
        <time>2021-08-06T12:16:00.652Z</time>
      </trkpt>
      <trkpt lat="46.93719" lon="8.69696">
        <ele>1690</ele>
        <time>2021-08-06T12:16:01.652Z</time>
      </trkpt>
      <trkpt lat="46.93718" lon="8.69694">
        <ele>1690</ele>
        <time>2021-08-06T12:16:02.652Z</time>
      </trkpt>
      <trkpt lat="46.93718" lon="8.69694">
        <ele>1690</ele>
        <time>2021-08-06T12:16:03.652Z</time>
      </trkpt>
      <trkpt lat="46.93717" lon="8.69693">
        <ele>1691</ele>
        <time>2021-08-06T12:16:04.651Z</time>
      </trkpt>
      <trkpt lat="46.93716" lon="8.69692">
        <ele>1691</ele>
        <time>2021-08-06T12:16:05.652Z</time>
      </trkpt>
      <trkpt lat="46.93715" lon="8.6969">
        <ele>1692</ele>
        <time>2021-08-06T12:16:06.652Z</time>
      </trkpt>
      <trkpt lat="46.93714" lon="8.69688">
        <ele>1692</ele>
        <time>2021-08-06T12:16:07.651Z</time>
      </trkpt>
      <trkpt lat="46.93714" lon="8.69687">
        <ele>1692</ele>
        <time>2021-08-06T12:16:08.652Z</time>
      </trkpt>
      <trkpt lat="46.93713" lon="8.69686">
        <ele>1693</ele>
        <time>2021-08-06T12:16:09.652Z</time>
      </trkpt>
      <trkpt lat="46.93713" lon="8.69686">
        <ele>1693</ele>
        <time>2021-08-06T12:16:10.651Z</time>
      </trkpt>
      <trkpt lat="46.93712" lon="8.69685">
        <ele>1693</ele>
        <time>2021-08-06T12:16:11.651Z</time>
      </trkpt>
      <trkpt lat="46.93711" lon="8.69684">
        <ele>1693</ele>
        <time>2021-08-06T12:16:12.652Z</time>
      </trkpt>
      <trkpt lat="46.93711" lon="8.69683">
        <ele>1693</ele>
        <time>2021-08-06T12:16:13.652Z</time>
      </trkpt>
      <trkpt lat="46.93711" lon="8.69682">
        <ele>1693</ele>
        <time>2021-08-06T12:16:14.651Z</time>
      </trkpt>
      <trkpt lat="46.93711" lon="8.69681">
        <ele>1693</ele>
        <time>2021-08-06T12:16:15.651Z</time>
      </trkpt>
      <trkpt lat="46.93711" lon="8.6968">
        <ele>1694</ele>
        <time>2021-08-06T12:16:16.651Z</time>
      </trkpt>
      <trkpt lat="46.93711" lon="8.69679">
        <ele>1694</ele>
        <time>2021-08-06T12:16:17.651Z</time>
      </trkpt>
      <trkpt lat="46.93711" lon="8.69679">
        <ele>1695</ele>
        <time>2021-08-06T12:16:18.652Z</time>
      </trkpt>
      <trkpt lat="46.93711" lon="8.69678">
        <ele>1695</ele>
        <time>2021-08-06T12:16:19.652Z</time>
      </trkpt>
      <trkpt lat="46.93711" lon="8.69678">
        <ele>1695</ele>
        <time>2021-08-06T12:16:20.652Z</time>
      </trkpt>
      <trkpt lat="46.9371" lon="8.69678">
        <ele>1695</ele>
        <time>2021-08-06T12:16:21.652Z</time>
      </trkpt>
      <trkpt lat="46.9371" lon="8.69677">
        <ele>1694</ele>
        <time>2021-08-06T12:16:22.651Z</time>
      </trkpt>
      <trkpt lat="46.93709" lon="8.69676">
        <ele>1694</ele>
        <time>2021-08-06T12:16:23.652Z</time>
      </trkpt>
      <trkpt lat="46.93709" lon="8.69675">
        <ele>1693</ele>
        <time>2021-08-06T12:16:24.652Z</time>
      </trkpt>
      <trkpt lat="46.93709" lon="8.69675">
        <ele>1693</ele>
        <time>2021-08-06T12:16:25.651Z</time>
      </trkpt>
      <trkpt lat="46.93708" lon="8.69674">
        <ele>1693</ele>
        <time>2021-08-06T12:16:26.652Z</time>
      </trkpt>
      <trkpt lat="46.93709" lon="8.69672">
        <ele>1693</ele>
        <time>2021-08-06T12:16:27.651Z</time>
      </trkpt>
      <trkpt lat="46.93708" lon="8.69671">
        <ele>1693</ele>
        <time>2021-08-06T12:16:28.651Z</time>
      </trkpt>
      <trkpt lat="46.93708" lon="8.69671">
        <ele>1693</ele>
        <time>2021-08-06T12:16:29.652Z</time>
      </trkpt>
      <trkpt lat="46.93708" lon="8.6967">
        <ele>1693</ele>
        <time>2021-08-06T12:16:30.651Z</time>
      </trkpt>
      <trkpt lat="46.93707" lon="8.6967">
        <ele>1693</ele>
        <time>2021-08-06T12:16:31.652Z</time>
      </trkpt>
      <trkpt lat="46.93706" lon="8.6967">
        <ele>1694</ele>
        <time>2021-08-06T12:16:32.652Z</time>
      </trkpt>
      <trkpt lat="46.93706" lon="8.6967">
        <ele>1694</ele>
        <time>2021-08-06T12:16:33.652Z</time>
      </trkpt>
      <trkpt lat="46.93706" lon="8.69669">
        <ele>1693</ele>
        <time>2021-08-06T12:16:34.651Z</time>
      </trkpt>
      <trkpt lat="46.93705" lon="8.69668">
        <ele>1693</ele>
        <time>2021-08-06T12:16:35.651Z</time>
      </trkpt>
      <trkpt lat="46.93704" lon="8.69667">
        <ele>1692</ele>
        <time>2021-08-06T12:16:36.652Z</time>
      </trkpt>
      <trkpt lat="46.93704" lon="8.69666">
        <ele>1692</ele>
        <time>2021-08-06T12:16:37.652Z</time>
      </trkpt>
      <trkpt lat="46.93703" lon="8.69666">
        <ele>1691</ele>
        <time>2021-08-06T12:16:38.652Z</time>
      </trkpt>
      <trkpt lat="46.93703" lon="8.69664">
        <ele>1691</ele>
        <time>2021-08-06T12:16:39.652Z</time>
      </trkpt>
      <trkpt lat="46.93703" lon="8.69664">
        <ele>1691</ele>
        <time>2021-08-06T12:16:40.651Z</time>
      </trkpt>
      <trkpt lat="46.93703" lon="8.69663">
        <ele>1691</ele>
        <time>2021-08-06T12:16:41.651Z</time>
      </trkpt>
      <trkpt lat="46.93702" lon="8.69662">
        <ele>1691</ele>
        <time>2021-08-06T12:16:42.652Z</time>
      </trkpt>
      <trkpt lat="46.93701" lon="8.69662">
        <ele>1690</ele>
        <time>2021-08-06T12:16:43.651Z</time>
      </trkpt>
      <trkpt lat="46.937" lon="8.69661">
        <ele>1690</ele>
        <time>2021-08-06T12:16:44.652Z</time>
      </trkpt>
      <trkpt lat="46.93699" lon="8.6966">
        <ele>1690</ele>
        <time>2021-08-06T12:16:45.651Z</time>
      </trkpt>
      <trkpt lat="46.93698" lon="8.69659">
        <ele>1690</ele>
        <time>2021-08-06T12:16:46.652Z</time>
      </trkpt>
      <trkpt lat="46.93698" lon="8.69658">
        <ele>1690</ele>
        <time>2021-08-06T12:16:47.652Z</time>
      </trkpt>
      <trkpt lat="46.93697" lon="8.69657">
        <ele>1690</ele>
        <time>2021-08-06T12:16:48.651Z</time>
      </trkpt>
      <trkpt lat="46.93696" lon="8.69657">
        <ele>1689</ele>
        <time>2021-08-06T12:16:49.652Z</time>
      </trkpt>
      <trkpt lat="46.93697" lon="8.69657">
        <ele>1690</ele>
        <time>2021-08-06T12:16:50.651Z</time>
      </trkpt>
      <trkpt lat="46.93697" lon="8.69656">
        <ele>1690</ele>
        <time>2021-08-06T12:16:51.651Z</time>
      </trkpt>
      <trkpt lat="46.93697" lon="8.69656">
        <ele>1691</ele>
        <time>2021-08-06T12:16:52.651Z</time>
      </trkpt>
      <trkpt lat="46.93696" lon="8.69655">
        <ele>1691</ele>
        <time>2021-08-06T12:16:53.651Z</time>
      </trkpt>
      <trkpt lat="46.93694" lon="8.69654">
        <ele>1692</ele>
        <time>2021-08-06T12:16:54.652Z</time>
      </trkpt>
      <trkpt lat="46.93693" lon="8.69654">
        <ele>1692</ele>
        <time>2021-08-06T12:16:55.652Z</time>
      </trkpt>
      <trkpt lat="46.93693" lon="8.69654">
        <ele>1692</ele>
        <time>2021-08-06T12:16:56.651Z</time>
      </trkpt>
      <trkpt lat="46.93692" lon="8.69654">
        <ele>1693</ele>
        <time>2021-08-06T12:16:57.652Z</time>
      </trkpt>
      <trkpt lat="46.93692" lon="8.69654">
        <ele>1693</ele>
        <time>2021-08-06T12:16:58.652Z</time>
      </trkpt>
      <trkpt lat="46.93691" lon="8.69654">
        <ele>1693</ele>
        <time>2021-08-06T12:16:59.651Z</time>
      </trkpt>
      <trkpt lat="46.9369" lon="8.69654">
        <ele>1693</ele>
        <time>2021-08-06T12:17:00.651Z</time>
      </trkpt>
      <trkpt lat="46.9369" lon="8.69654">
        <ele>1693</ele>
        <time>2021-08-06T12:17:01.651Z</time>
      </trkpt>
      <trkpt lat="46.93689" lon="8.69654">
        <ele>1693</ele>
        <time>2021-08-06T12:17:02.652Z</time>
      </trkpt>
      <trkpt lat="46.93689" lon="8.69654">
        <ele>1693</ele>
        <time>2021-08-06T12:17:03.651Z</time>
      </trkpt>
      <trkpt lat="46.93689" lon="8.69654">
        <ele>1693</ele>
        <time>2021-08-06T12:17:04.652Z</time>
      </trkpt>
      <trkpt lat="46.93688" lon="8.69654">
        <ele>1693</ele>
        <time>2021-08-06T12:17:05.651Z</time>
      </trkpt>
      <trkpt lat="46.93687" lon="8.69653">
        <ele>1693</ele>
        <time>2021-08-06T12:17:06.652Z</time>
      </trkpt>
      <trkpt lat="46.93687" lon="8.69653">
        <ele>1693</ele>
        <time>2021-08-06T12:17:07.652Z</time>
      </trkpt>
      <trkpt lat="46.93686" lon="8.69652">
        <ele>1694</ele>
        <time>2021-08-06T12:17:08.651Z</time>
      </trkpt>
      <trkpt lat="46.93685" lon="8.69651">
        <ele>1694</ele>
        <time>2021-08-06T12:17:09.651Z</time>
      </trkpt>
      <trkpt lat="46.93684" lon="8.6965">
        <ele>1694</ele>
        <time>2021-08-06T12:17:10.651Z</time>
      </trkpt>
      <trkpt lat="46.93683" lon="8.6965">
        <ele>1694</ele>
        <time>2021-08-06T12:17:11.652Z</time>
      </trkpt>
      <trkpt lat="46.93683" lon="8.69649">
        <ele>1695</ele>
        <time>2021-08-06T12:17:12.651Z</time>
      </trkpt>
      <trkpt lat="46.93683" lon="8.69649">
        <ele>1695</ele>
        <time>2021-08-06T12:17:13.651Z</time>
      </trkpt>
      <trkpt lat="46.93682" lon="8.69649">
        <ele>1695</ele>
        <time>2021-08-06T12:17:14.651Z</time>
      </trkpt>
      <trkpt lat="46.93686" lon="8.69647">
        <ele>1698</ele>
        <time>2021-08-06T12:17:15.652Z</time>
      </trkpt>
      <trkpt lat="46.93686" lon="8.69647">
        <ele>1699</ele>
        <time>2021-08-06T12:17:16.651Z</time>
      </trkpt>
      <trkpt lat="46.93685" lon="8.69646">
        <ele>1699</ele>
        <time>2021-08-06T12:17:17.651Z</time>
      </trkpt>
      <trkpt lat="46.93685" lon="8.69645">
        <ele>1699</ele>
        <time>2021-08-06T12:17:18.652Z</time>
      </trkpt>
      <trkpt lat="46.93684" lon="8.69644">
        <ele>1700</ele>
        <time>2021-08-06T12:17:19.652Z</time>
      </trkpt>
      <trkpt lat="46.93684" lon="8.69643">
        <ele>1700</ele>
        <time>2021-08-06T12:17:20.652Z</time>
      </trkpt>
      <trkpt lat="46.93682" lon="8.69642">
        <ele>1701</ele>
        <time>2021-08-06T12:17:21.652Z</time>
      </trkpt>
      <trkpt lat="46.93682" lon="8.69642">
        <ele>1701</ele>
        <time>2021-08-06T12:17:22.651Z</time>
      </trkpt>
      <trkpt lat="46.93681" lon="8.69641">
        <ele>1701</ele>
        <time>2021-08-06T12:17:23.652Z</time>
      </trkpt>
      <trkpt lat="46.93681" lon="8.6964">
        <ele>1702</ele>
        <time>2021-08-06T12:17:24.651Z</time>
      </trkpt>
      <trkpt lat="46.9368" lon="8.69639">
        <ele>1702</ele>
        <time>2021-08-06T12:17:25.652Z</time>
      </trkpt>
      <trkpt lat="46.93679" lon="8.69638">
        <ele>1702</ele>
        <time>2021-08-06T12:17:26.652Z</time>
      </trkpt>
      <trkpt lat="46.93678" lon="8.69638">
        <ele>1703</ele>
        <time>2021-08-06T12:17:27.652Z</time>
      </trkpt>
      <trkpt lat="46.93677" lon="8.69637">
        <ele>1703</ele>
        <time>2021-08-06T12:17:28.652Z</time>
      </trkpt>
      <trkpt lat="46.93676" lon="8.69636">
        <ele>1704</ele>
        <time>2021-08-06T12:17:29.651Z</time>
      </trkpt>
      <trkpt lat="46.93675" lon="8.69636">
        <ele>1704</ele>
        <time>2021-08-06T12:17:30.652Z</time>
      </trkpt>
      <trkpt lat="46.93675" lon="8.69635">
        <ele>1705</ele>
        <time>2021-08-06T12:17:31.652Z</time>
      </trkpt>
      <trkpt lat="46.93673" lon="8.69635">
        <ele>1705</ele>
        <time>2021-08-06T12:17:32.652Z</time>
      </trkpt>
      <trkpt lat="46.93672" lon="8.69633">
        <ele>1706</ele>
        <time>2021-08-06T12:17:33.652Z</time>
      </trkpt>
      <trkpt lat="46.93671" lon="8.69631">
        <ele>1707</ele>
        <time>2021-08-06T12:17:34.652Z</time>
      </trkpt>
      <trkpt lat="46.9367" lon="8.6963">
        <ele>1707</ele>
        <time>2021-08-06T12:17:35.652Z</time>
      </trkpt>
      <trkpt lat="46.93669" lon="8.6963">
        <ele>1708</ele>
        <time>2021-08-06T12:17:36.652Z</time>
      </trkpt>
      <trkpt lat="46.93669" lon="8.69629">
        <ele>1709</ele>
        <time>2021-08-06T12:17:37.652Z</time>
      </trkpt>
      <trkpt lat="46.93669" lon="8.69628">
        <ele>1709</ele>
        <time>2021-08-06T12:17:38.652Z</time>
      </trkpt>
      <trkpt lat="46.93668" lon="8.69627">
        <ele>1710</ele>
        <time>2021-08-06T12:17:39.652Z</time>
      </trkpt>
      <trkpt lat="46.93667" lon="8.69625">
        <ele>1711</ele>
        <time>2021-08-06T12:17:40.652Z</time>
      </trkpt>
      <trkpt lat="46.93667" lon="8.69624">
        <ele>1712</ele>
        <time>2021-08-06T12:17:41.652Z</time>
      </trkpt>
      <trkpt lat="46.93666" lon="8.69623">
        <ele>1712</ele>
        <time>2021-08-06T12:17:42.652Z</time>
      </trkpt>
      <trkpt lat="46.93665" lon="8.69621">
        <ele>1713</ele>
        <time>2021-08-06T12:17:43.652Z</time>
      </trkpt>
      <trkpt lat="46.93664" lon="8.69621">
        <ele>1713</ele>
        <time>2021-08-06T12:17:44.652Z</time>
      </trkpt>
      <trkpt lat="46.93664" lon="8.6962">
        <ele>1713</ele>
        <time>2021-08-06T12:17:45.652Z</time>
      </trkpt>
      <trkpt lat="46.93663" lon="8.69621">
        <ele>1714</ele>
        <time>2021-08-06T12:17:46.652Z</time>
      </trkpt>
      <trkpt lat="46.93663" lon="8.69621">
        <ele>1715</ele>
        <time>2021-08-06T12:17:47.652Z</time>
      </trkpt>
      <trkpt lat="46.93663" lon="8.69622">
        <ele>1715</ele>
        <time>2021-08-06T12:17:48.652Z</time>
      </trkpt>
      <trkpt lat="46.93663" lon="8.69621">
        <ele>1715</ele>
        <time>2021-08-06T12:17:49.652Z</time>
      </trkpt>
      <trkpt lat="46.93663" lon="8.6962">
        <ele>1715</ele>
        <time>2021-08-06T12:17:50.652Z</time>
      </trkpt>
      <trkpt lat="46.93663" lon="8.6962">
        <ele>1715</ele>
        <time>2021-08-06T12:17:51.652Z</time>
      </trkpt>
      <trkpt lat="46.93663" lon="8.6962">
        <ele>1714</ele>
        <time>2021-08-06T12:17:52.651Z</time>
      </trkpt>
      <trkpt lat="46.93663" lon="8.69619">
        <ele>1714</ele>
        <time>2021-08-06T12:17:53.652Z</time>
      </trkpt>
      <trkpt lat="46.93663" lon="8.69618">
        <ele>1713</ele>
        <time>2021-08-06T12:17:54.652Z</time>
      </trkpt>
      <trkpt lat="46.93663" lon="8.69617">
        <ele>1713</ele>
        <time>2021-08-06T12:17:55.652Z</time>
      </trkpt>
      <trkpt lat="46.93663" lon="8.69617">
        <ele>1713</ele>
        <time>2021-08-06T12:17:56.652Z</time>
      </trkpt>
      <trkpt lat="46.93662" lon="8.69617">
        <ele>1713</ele>
        <time>2021-08-06T12:17:57.651Z</time>
      </trkpt>
      <trkpt lat="46.93662" lon="8.69616">
        <ele>1712</ele>
        <time>2021-08-06T12:17:58.652Z</time>
      </trkpt>
      <trkpt lat="46.93661" lon="8.69616">
        <ele>1712</ele>
        <time>2021-08-06T12:17:59.651Z</time>
      </trkpt>
      <trkpt lat="46.9366" lon="8.69615">
        <ele>1712</ele>
        <time>2021-08-06T12:18:00.652Z</time>
      </trkpt>
      <trkpt lat="46.93659" lon="8.69615">
        <ele>1712</ele>
        <time>2021-08-06T12:18:01.652Z</time>
      </trkpt>
      <trkpt lat="46.93659" lon="8.69615">
        <ele>1713</ele>
        <time>2021-08-06T12:18:02.652Z</time>
      </trkpt>
      <trkpt lat="46.93658" lon="8.69615">
        <ele>1713</ele>
        <time>2021-08-06T12:18:03.652Z</time>
      </trkpt>
      <trkpt lat="46.93658" lon="8.69615">
        <ele>1713</ele>
        <time>2021-08-06T12:18:04.651Z</time>
      </trkpt>
      <trkpt lat="46.93658" lon="8.69615">
        <ele>1713</ele>
        <time>2021-08-06T12:18:05.652Z</time>
      </trkpt>
      <trkpt lat="46.93657" lon="8.69615">
        <ele>1713</ele>
        <time>2021-08-06T12:18:06.652Z</time>
      </trkpt>
      <trkpt lat="46.93656" lon="8.69616">
        <ele>1713</ele>
        <time>2021-08-06T12:18:07.651Z</time>
      </trkpt>
      <trkpt lat="46.93655" lon="8.69616">
        <ele>1713</ele>
        <time>2021-08-06T12:18:08.652Z</time>
      </trkpt>
      <trkpt lat="46.93655" lon="8.69616">
        <ele>1712</ele>
        <time>2021-08-06T12:18:09.652Z</time>
      </trkpt>
      <trkpt lat="46.93654" lon="8.69615">
        <ele>1712</ele>
        <time>2021-08-06T12:18:10.651Z</time>
      </trkpt>
      <trkpt lat="46.93654" lon="8.69616">
        <ele>1712</ele>
        <time>2021-08-06T12:18:11.651Z</time>
      </trkpt>
      <trkpt lat="46.93653" lon="8.69617">
        <ele>1712</ele>
        <time>2021-08-06T12:18:12.652Z</time>
      </trkpt>
      <trkpt lat="46.93652" lon="8.69617">
        <ele>1712</ele>
        <time>2021-08-06T12:18:13.651Z</time>
      </trkpt>
      <trkpt lat="46.93651" lon="8.69617">
        <ele>1712</ele>
        <time>2021-08-06T12:18:14.652Z</time>
      </trkpt>
      <trkpt lat="46.9365" lon="8.69618">
        <ele>1711</ele>
        <time>2021-08-06T12:18:15.652Z</time>
      </trkpt>
      <trkpt lat="46.9365" lon="8.69617">
        <ele>1710</ele>
        <time>2021-08-06T12:18:16.651Z</time>
      </trkpt>
      <trkpt lat="46.93649" lon="8.69617">
        <ele>1710</ele>
        <time>2021-08-06T12:18:17.652Z</time>
      </trkpt>
      <trkpt lat="46.93649" lon="8.69618">
        <ele>1709</ele>
        <time>2021-08-06T12:18:18.652Z</time>
      </trkpt>
      <trkpt lat="46.93648" lon="8.69618">
        <ele>1709</ele>
        <time>2021-08-06T12:18:19.652Z</time>
      </trkpt>
      <trkpt lat="46.93648" lon="8.69618">
        <ele>1709</ele>
        <time>2021-08-06T12:18:20.652Z</time>
      </trkpt>
      <trkpt lat="46.93648" lon="8.69617">
        <ele>1708</ele>
        <time>2021-08-06T12:18:21.652Z</time>
      </trkpt>
      <trkpt lat="46.93648" lon="8.69617">
        <ele>1708</ele>
        <time>2021-08-06T12:18:22.651Z</time>
      </trkpt>
      <trkpt lat="46.93647" lon="8.69616">
        <ele>1707</ele>
        <time>2021-08-06T12:18:23.652Z</time>
      </trkpt>
      <trkpt lat="46.93647" lon="8.69616">
        <ele>1706</ele>
        <time>2021-08-06T12:18:24.652Z</time>
      </trkpt>
      <trkpt lat="46.93647" lon="8.69616">
        <ele>1706</ele>
        <time>2021-08-06T12:18:25.652Z</time>
      </trkpt>
      <trkpt lat="46.93646" lon="8.69615">
        <ele>1705</ele>
        <time>2021-08-06T12:18:26.652Z</time>
      </trkpt>
      <trkpt lat="46.93645" lon="8.69615">
        <ele>1705</ele>
        <time>2021-08-06T12:18:27.652Z</time>
      </trkpt>
      <trkpt lat="46.93645" lon="8.69614">
        <ele>1704</ele>
        <time>2021-08-06T12:18:28.652Z</time>
      </trkpt>
      <trkpt lat="46.93644" lon="8.69613">
        <ele>1704</ele>
        <time>2021-08-06T12:18:29.652Z</time>
      </trkpt>
      <trkpt lat="46.93643" lon="8.69613">
        <ele>1704</ele>
        <time>2021-08-06T12:18:30.651Z</time>
      </trkpt>
      <trkpt lat="46.93643" lon="8.69612">
        <ele>1704</ele>
        <time>2021-08-06T12:18:31.652Z</time>
      </trkpt>
      <trkpt lat="46.93642" lon="8.69611">
        <ele>1704</ele>
        <time>2021-08-06T12:18:32.651Z</time>
      </trkpt>
      <trkpt lat="46.93641" lon="8.6961">
        <ele>1704</ele>
        <time>2021-08-06T12:18:33.652Z</time>
      </trkpt>
      <trkpt lat="46.9364" lon="8.69609">
        <ele>1704</ele>
        <time>2021-08-06T12:18:34.652Z</time>
      </trkpt>
      <trkpt lat="46.93639" lon="8.69609">
        <ele>1705</ele>
        <time>2021-08-06T12:18:35.652Z</time>
      </trkpt>
      <trkpt lat="46.93639" lon="8.69608">
        <ele>1705</ele>
        <time>2021-08-06T12:18:36.652Z</time>
      </trkpt>
      <trkpt lat="46.93638" lon="8.69607">
        <ele>1705</ele>
        <time>2021-08-06T12:18:37.651Z</time>
      </trkpt>
      <trkpt lat="46.93638" lon="8.69607">
        <ele>1706</ele>
        <time>2021-08-06T12:18:38.652Z</time>
      </trkpt>
      <trkpt lat="46.93637" lon="8.69606">
        <ele>1706</ele>
        <time>2021-08-06T12:18:39.652Z</time>
      </trkpt>
      <trkpt lat="46.93636" lon="8.69605">
        <ele>1707</ele>
        <time>2021-08-06T12:18:40.651Z</time>
      </trkpt>
      <trkpt lat="46.93636" lon="8.69604">
        <ele>1707</ele>
        <time>2021-08-06T12:18:41.652Z</time>
      </trkpt>
      <trkpt lat="46.93635" lon="8.69604">
        <ele>1707</ele>
        <time>2021-08-06T12:18:42.652Z</time>
      </trkpt>
      <trkpt lat="46.93634" lon="8.69603">
        <ele>1707</ele>
        <time>2021-08-06T12:18:43.652Z</time>
      </trkpt>
      <trkpt lat="46.93633" lon="8.69603">
        <ele>1707</ele>
        <time>2021-08-06T12:18:44.652Z</time>
      </trkpt>
      <trkpt lat="46.93632" lon="8.69604">
        <ele>1707</ele>
        <time>2021-08-06T12:18:45.652Z</time>
      </trkpt>
      <trkpt lat="46.93632" lon="8.69603">
        <ele>1707</ele>
        <time>2021-08-06T12:18:46.651Z</time>
      </trkpt>
      <trkpt lat="46.93632" lon="8.69602">
        <ele>1707</ele>
        <time>2021-08-06T12:18:47.652Z</time>
      </trkpt>
      <trkpt lat="46.93632" lon="8.69603">
        <ele>1707</ele>
        <time>2021-08-06T12:18:48.652Z</time>
      </trkpt>
      <trkpt lat="46.93634" lon="8.69608">
        <ele>1705</ele>
        <time>2021-08-06T12:18:49.651Z</time>
      </trkpt>
      <trkpt lat="46.93634" lon="8.69608">
        <ele>1704</ele>
        <time>2021-08-06T12:18:50.652Z</time>
      </trkpt>
      <trkpt lat="46.93633" lon="8.69608">
        <ele>1704</ele>
        <time>2021-08-06T12:18:51.651Z</time>
      </trkpt>
      <trkpt lat="46.93633" lon="8.69607">
        <ele>1704</ele>
        <time>2021-08-06T12:18:52.652Z</time>
      </trkpt>
      <trkpt lat="46.93633" lon="8.69606">
        <ele>1704</ele>
        <time>2021-08-06T12:18:53.652Z</time>
      </trkpt>
      <trkpt lat="46.93632" lon="8.69604">
        <ele>1704</ele>
        <time>2021-08-06T12:18:54.651Z</time>
      </trkpt>
      <trkpt lat="46.93632" lon="8.69603">
        <ele>1705</ele>
        <time>2021-08-06T12:18:55.651Z</time>
      </trkpt>
      <trkpt lat="46.93631" lon="8.69602">
        <ele>1705</ele>
        <time>2021-08-06T12:18:56.651Z</time>
      </trkpt>
      <trkpt lat="46.9363" lon="8.69601">
        <ele>1705</ele>
        <time>2021-08-06T12:18:57.651Z</time>
      </trkpt>
      <trkpt lat="46.93629" lon="8.696">
        <ele>1706</ele>
        <time>2021-08-06T12:18:58.651Z</time>
      </trkpt>
      <trkpt lat="46.93629" lon="8.69599">
        <ele>1706</ele>
        <time>2021-08-06T12:18:59.651Z</time>
      </trkpt>
      <trkpt lat="46.93628" lon="8.69598">
        <ele>1707</ele>
        <time>2021-08-06T12:19:00.651Z</time>
      </trkpt>
      <trkpt lat="46.93627" lon="8.69597">
        <ele>1707</ele>
        <time>2021-08-06T12:19:01.652Z</time>
      </trkpt>
      <trkpt lat="46.93626" lon="8.69596">
        <ele>1708</ele>
        <time>2021-08-06T12:19:02.652Z</time>
      </trkpt>
      <trkpt lat="46.93626" lon="8.69595">
        <ele>1708</ele>
        <time>2021-08-06T12:19:03.652Z</time>
      </trkpt>
      <trkpt lat="46.93626" lon="8.69595">
        <ele>1708</ele>
        <time>2021-08-06T12:19:04.652Z</time>
      </trkpt>
      <trkpt lat="46.93626" lon="8.69595">
        <ele>1708</ele>
        <time>2021-08-06T12:19:05.652Z</time>
      </trkpt>
      <trkpt lat="46.93625" lon="8.69595">
        <ele>1708</ele>
        <time>2021-08-06T12:19:06.652Z</time>
      </trkpt>
      <trkpt lat="46.93624" lon="8.69594">
        <ele>1708</ele>
        <time>2021-08-06T12:19:07.652Z</time>
      </trkpt>
      <trkpt lat="46.93624" lon="8.69594">
        <ele>1708</ele>
        <time>2021-08-06T12:19:08.651Z</time>
      </trkpt>
      <trkpt lat="46.93623" lon="8.69594">
        <ele>1708</ele>
        <time>2021-08-06T12:19:09.651Z</time>
      </trkpt>
      <trkpt lat="46.93622" lon="8.69594">
        <ele>1708</ele>
        <time>2021-08-06T12:19:10.652Z</time>
      </trkpt>
      <trkpt lat="46.93621" lon="8.69593">
        <ele>1708</ele>
        <time>2021-08-06T12:19:11.651Z</time>
      </trkpt>
      <trkpt lat="46.9362" lon="8.69593">
        <ele>1709</ele>
        <time>2021-08-06T12:19:12.652Z</time>
      </trkpt>
      <trkpt lat="46.9362" lon="8.69592">
        <ele>1709</ele>
        <time>2021-08-06T12:19:13.652Z</time>
      </trkpt>
      <trkpt lat="46.93619" lon="8.69591">
        <ele>1709</ele>
        <time>2021-08-06T12:19:14.652Z</time>
      </trkpt>
      <trkpt lat="46.93619" lon="8.6959">
        <ele>1708</ele>
        <time>2021-08-06T12:19:15.652Z</time>
      </trkpt>
      <trkpt lat="46.93618" lon="8.69589">
        <ele>1708</ele>
        <time>2021-08-06T12:19:16.651Z</time>
      </trkpt>
      <trkpt lat="46.93617" lon="8.69588">
        <ele>1708</ele>
        <time>2021-08-06T12:19:17.652Z</time>
      </trkpt>
      <trkpt lat="46.93616" lon="8.69587">
        <ele>1708</ele>
        <time>2021-08-06T12:19:18.652Z</time>
      </trkpt>
      <trkpt lat="46.93615" lon="8.69587">
        <ele>1708</ele>
        <time>2021-08-06T12:19:19.651Z</time>
      </trkpt>
      <trkpt lat="46.93614" lon="8.69586">
        <ele>1707</ele>
        <time>2021-08-06T12:19:20.651Z</time>
      </trkpt>
      <trkpt lat="46.93613" lon="8.69586">
        <ele>1707</ele>
        <time>2021-08-06T12:19:21.651Z</time>
      </trkpt>
      <trkpt lat="46.93612" lon="8.69586">
        <ele>1707</ele>
        <time>2021-08-06T12:19:22.652Z</time>
      </trkpt>
      <trkpt lat="46.93611" lon="8.69585">
        <ele>1707</ele>
        <time>2021-08-06T12:19:23.652Z</time>
      </trkpt>
      <trkpt lat="46.93611" lon="8.69584">
        <ele>1707</ele>
        <time>2021-08-06T12:19:24.651Z</time>
      </trkpt>
      <trkpt lat="46.93611" lon="8.69584">
        <ele>1707</ele>
        <time>2021-08-06T12:19:25.652Z</time>
      </trkpt>
      <trkpt lat="46.93611" lon="8.69583">
        <ele>1708</ele>
        <time>2021-08-06T12:19:26.651Z</time>
      </trkpt>
      <trkpt lat="46.9361" lon="8.69582">
        <ele>1708</ele>
        <time>2021-08-06T12:19:27.652Z</time>
      </trkpt>
      <trkpt lat="46.93609" lon="8.69582">
        <ele>1709</ele>
        <time>2021-08-06T12:19:28.652Z</time>
      </trkpt>
      <trkpt lat="46.93609" lon="8.69581">
        <ele>1708</ele>
        <time>2021-08-06T12:19:29.652Z</time>
      </trkpt>
      <trkpt lat="46.93608" lon="8.6958">
        <ele>1708</ele>
        <time>2021-08-06T12:19:30.652Z</time>
      </trkpt>
      <trkpt lat="46.93607" lon="8.69579">
        <ele>1708</ele>
        <time>2021-08-06T12:19:31.651Z</time>
      </trkpt>
      <trkpt lat="46.93605" lon="8.69579">
        <ele>1708</ele>
        <time>2021-08-06T12:19:32.651Z</time>
      </trkpt>
      <trkpt lat="46.93604" lon="8.69579">
        <ele>1708</ele>
        <time>2021-08-06T12:19:33.652Z</time>
      </trkpt>
      <trkpt lat="46.93604" lon="8.69578">
        <ele>1707</ele>
        <time>2021-08-06T12:19:34.652Z</time>
      </trkpt>
      <trkpt lat="46.93603" lon="8.69577">
        <ele>1707</ele>
        <time>2021-08-06T12:19:35.652Z</time>
      </trkpt>
      <trkpt lat="46.93602" lon="8.69577">
        <ele>1707</ele>
        <time>2021-08-06T12:19:36.651Z</time>
      </trkpt>
      <trkpt lat="46.93601" lon="8.69577">
        <ele>1708</ele>
        <time>2021-08-06T12:19:37.652Z</time>
      </trkpt>
      <trkpt lat="46.936" lon="8.69577">
        <ele>1708</ele>
        <time>2021-08-06T12:19:38.652Z</time>
      </trkpt>
      <trkpt lat="46.936" lon="8.69576">
        <ele>1708</ele>
        <time>2021-08-06T12:19:39.652Z</time>
      </trkpt>
      <trkpt lat="46.93599" lon="8.69576">
        <ele>1708</ele>
        <time>2021-08-06T12:19:40.651Z</time>
      </trkpt>
      <trkpt lat="46.93599" lon="8.69575">
        <ele>1708</ele>
        <time>2021-08-06T12:19:41.652Z</time>
      </trkpt>
      <trkpt lat="46.93598" lon="8.69575">
        <ele>1709</ele>
        <time>2021-08-06T12:19:42.652Z</time>
      </trkpt>
      <trkpt lat="46.93598" lon="8.69574">
        <ele>1709</ele>
        <time>2021-08-06T12:19:43.652Z</time>
      </trkpt>
      <trkpt lat="46.93597" lon="8.69574">
        <ele>1709</ele>
        <time>2021-08-06T12:19:44.652Z</time>
      </trkpt>
      <trkpt lat="46.93597" lon="8.69575">
        <ele>1709</ele>
        <time>2021-08-06T12:19:45.651Z</time>
      </trkpt>
      <trkpt lat="46.93596" lon="8.69575">
        <ele>1709</ele>
        <time>2021-08-06T12:19:46.652Z</time>
      </trkpt>
      <trkpt lat="46.93596" lon="8.69575">
        <ele>1709</ele>
        <time>2021-08-06T12:19:47.652Z</time>
      </trkpt>
      <trkpt lat="46.93595" lon="8.69576">
        <ele>1710</ele>
        <time>2021-08-06T12:19:48.652Z</time>
      </trkpt>
      <trkpt lat="46.93594" lon="8.69575">
        <ele>1710</ele>
        <time>2021-08-06T12:19:49.652Z</time>
      </trkpt>
      <trkpt lat="46.93593" lon="8.69574">
        <ele>1710</ele>
        <time>2021-08-06T12:19:50.651Z</time>
      </trkpt>
      <trkpt lat="46.93593" lon="8.69575">
        <ele>1711</ele>
        <time>2021-08-06T12:19:51.652Z</time>
      </trkpt>
      <trkpt lat="46.93592" lon="8.69575">
        <ele>1711</ele>
        <time>2021-08-06T12:19:52.651Z</time>
      </trkpt>
      <trkpt lat="46.93592" lon="8.69575">
        <ele>1711</ele>
        <time>2021-08-06T12:19:53.651Z</time>
      </trkpt>
      <trkpt lat="46.93591" lon="8.69575">
        <ele>1712</ele>
        <time>2021-08-06T12:19:54.652Z</time>
      </trkpt>
      <trkpt lat="46.9359" lon="8.69575">
        <ele>1712</ele>
        <time>2021-08-06T12:19:55.652Z</time>
      </trkpt>
      <trkpt lat="46.93589" lon="8.69575">
        <ele>1713</ele>
        <time>2021-08-06T12:19:56.652Z</time>
      </trkpt>
      <trkpt lat="46.93589" lon="8.69575">
        <ele>1713</ele>
        <time>2021-08-06T12:19:57.652Z</time>
      </trkpt>
      <trkpt lat="46.93588" lon="8.69575">
        <ele>1714</ele>
        <time>2021-08-06T12:19:58.652Z</time>
      </trkpt>
      <trkpt lat="46.93588" lon="8.69575">
        <ele>1714</ele>
        <time>2021-08-06T12:19:59.652Z</time>
      </trkpt>
      <trkpt lat="46.93587" lon="8.69575">
        <ele>1714</ele>
        <time>2021-08-06T12:20:00.652Z</time>
      </trkpt>
      <trkpt lat="46.93587" lon="8.69575">
        <ele>1715</ele>
        <time>2021-08-06T12:20:01.652Z</time>
      </trkpt>
      <trkpt lat="46.93587" lon="8.69575">
        <ele>1716</ele>
        <time>2021-08-06T12:20:02.652Z</time>
      </trkpt>
      <trkpt lat="46.93586" lon="8.69575">
        <ele>1716</ele>
        <time>2021-08-06T12:20:03.652Z</time>
      </trkpt>
      <trkpt lat="46.93586" lon="8.69575">
        <ele>1717</ele>
        <time>2021-08-06T12:20:04.651Z</time>
      </trkpt>
      <trkpt lat="46.93585" lon="8.69575">
        <ele>1717</ele>
        <time>2021-08-06T12:20:05.652Z</time>
      </trkpt>
      <trkpt lat="46.93585" lon="8.69576">
        <ele>1718</ele>
        <time>2021-08-06T12:20:06.652Z</time>
      </trkpt>
      <trkpt lat="46.93584" lon="8.69577">
        <ele>1718</ele>
        <time>2021-08-06T12:20:07.652Z</time>
      </trkpt>
      <trkpt lat="46.93583" lon="8.69578">
        <ele>1718</ele>
        <time>2021-08-06T12:20:08.652Z</time>
      </trkpt>
      <trkpt lat="46.93583" lon="8.69579">
        <ele>1717</ele>
        <time>2021-08-06T12:20:09.652Z</time>
      </trkpt>
      <trkpt lat="46.93582" lon="8.69579">
        <ele>1717</ele>
        <time>2021-08-06T12:20:10.652Z</time>
      </trkpt>
      <trkpt lat="46.93582" lon="8.69579">
        <ele>1717</ele>
        <time>2021-08-06T12:20:11.652Z</time>
      </trkpt>
      <trkpt lat="46.93582" lon="8.69579">
        <ele>1717</ele>
        <time>2021-08-06T12:20:12.652Z</time>
      </trkpt>
      <trkpt lat="46.93581" lon="8.69579">
        <ele>1717</ele>
        <time>2021-08-06T12:20:13.651Z</time>
      </trkpt>
      <trkpt lat="46.93581" lon="8.69579">
        <ele>1716</ele>
        <time>2021-08-06T12:20:14.652Z</time>
      </trkpt>
      <trkpt lat="46.93581" lon="8.69578">
        <ele>1716</ele>
        <time>2021-08-06T12:20:15.652Z</time>
      </trkpt>
      <trkpt lat="46.9358" lon="8.69578">
        <ele>1716</ele>
        <time>2021-08-06T12:20:16.651Z</time>
      </trkpt>
      <trkpt lat="46.9358" lon="8.69578">
        <ele>1716</ele>
        <time>2021-08-06T12:20:17.651Z</time>
      </trkpt>
      <trkpt lat="46.9358" lon="8.69577">
        <ele>1716</ele>
        <time>2021-08-06T12:20:18.652Z</time>
      </trkpt>
      <trkpt lat="46.9358" lon="8.69577">
        <ele>1717</ele>
        <time>2021-08-06T12:20:19.652Z</time>
      </trkpt>
      <trkpt lat="46.9358" lon="8.69576">
        <ele>1717</ele>
        <time>2021-08-06T12:20:20.652Z</time>
      </trkpt>
      <trkpt lat="46.9358" lon="8.69575">
        <ele>1717</ele>
        <time>2021-08-06T12:20:21.652Z</time>
      </trkpt>
      <trkpt lat="46.93579" lon="8.69575">
        <ele>1717</ele>
        <time>2021-08-06T12:20:22.652Z</time>
      </trkpt>
      <trkpt lat="46.93579" lon="8.69574">
        <ele>1717</ele>
        <time>2021-08-06T12:20:23.652Z</time>
      </trkpt>
      <trkpt lat="46.93579" lon="8.69573">
        <ele>1717</ele>
        <time>2021-08-06T12:20:24.651Z</time>
      </trkpt>
      <trkpt lat="46.93579" lon="8.69572">
        <ele>1718</ele>
        <time>2021-08-06T12:20:25.651Z</time>
      </trkpt>
      <trkpt lat="46.93579" lon="8.69572">
        <ele>1718</ele>
        <time>2021-08-06T12:20:26.652Z</time>
      </trkpt>
      <trkpt lat="46.93579" lon="8.69571">
        <ele>1718</ele>
        <time>2021-08-06T12:20:27.652Z</time>
      </trkpt>
      <trkpt lat="46.93579" lon="8.69571">
        <ele>1718</ele>
        <time>2021-08-06T12:20:28.652Z</time>
      </trkpt>
      <trkpt lat="46.93579" lon="8.6957">
        <ele>1718</ele>
        <time>2021-08-06T12:20:29.652Z</time>
      </trkpt>
      <trkpt lat="46.93579" lon="8.69569">
        <ele>1718</ele>
        <time>2021-08-06T12:20:30.652Z</time>
      </trkpt>
      <trkpt lat="46.93579" lon="8.69569">
        <ele>1718</ele>
        <time>2021-08-06T12:20:31.652Z</time>
      </trkpt>
      <trkpt lat="46.93579" lon="8.69569">
        <ele>1719</ele>
        <time>2021-08-06T12:20:32.651Z</time>
      </trkpt>
      <trkpt lat="46.9358" lon="8.69569">
        <ele>1719</ele>
        <time>2021-08-06T12:20:33.652Z</time>
      </trkpt>
      <trkpt lat="46.93581" lon="8.69568">
        <ele>1719</ele>
        <time>2021-08-06T12:20:34.652Z</time>
      </trkpt>
      <trkpt lat="46.93581" lon="8.69568">
        <ele>1719</ele>
        <time>2021-08-06T12:20:35.651Z</time>
      </trkpt>
      <trkpt lat="46.93581" lon="8.69567">
        <ele>1720</ele>
        <time>2021-08-06T12:20:36.652Z</time>
      </trkpt>
      <trkpt lat="46.93581" lon="8.69566">
        <ele>1720</ele>
        <time>2021-08-06T12:20:37.651Z</time>
      </trkpt>
      <trkpt lat="46.93581" lon="8.69565">
        <ele>1720</ele>
        <time>2021-08-06T12:20:38.651Z</time>
      </trkpt>
      <trkpt lat="46.93581" lon="8.69564">
        <ele>1720</ele>
        <time>2021-08-06T12:20:39.652Z</time>
      </trkpt>
      <trkpt lat="46.93581" lon="8.69563">
        <ele>1720</ele>
        <time>2021-08-06T12:20:40.651Z</time>
      </trkpt>
      <trkpt lat="46.93581" lon="8.69562">
        <ele>1721</ele>
        <time>2021-08-06T12:20:41.652Z</time>
      </trkpt>
      <trkpt lat="46.9358" lon="8.6956">
        <ele>1721</ele>
        <time>2021-08-06T12:20:42.651Z</time>
      </trkpt>
      <trkpt lat="46.9358" lon="8.69559">
        <ele>1721</ele>
        <time>2021-08-06T12:20:43.652Z</time>
      </trkpt>
      <trkpt lat="46.9358" lon="8.69558">
        <ele>1722</ele>
        <time>2021-08-06T12:20:44.652Z</time>
      </trkpt>
      <trkpt lat="46.9358" lon="8.69557">
        <ele>1722</ele>
        <time>2021-08-06T12:20:45.652Z</time>
      </trkpt>
      <trkpt lat="46.9358" lon="8.69557">
        <ele>1722</ele>
        <time>2021-08-06T12:20:46.652Z</time>
      </trkpt>
      <trkpt lat="46.9358" lon="8.69557">
        <ele>1722</ele>
        <time>2021-08-06T12:20:47.652Z</time>
      </trkpt>
      <trkpt lat="46.93579" lon="8.69558">
        <ele>1723</ele>
        <time>2021-08-06T12:20:48.652Z</time>
      </trkpt>
      <trkpt lat="46.93578" lon="8.69558">
        <ele>1723</ele>
        <time>2021-08-06T12:20:49.652Z</time>
      </trkpt>
      <trkpt lat="46.93577" lon="8.69558">
        <ele>1723</ele>
        <time>2021-08-06T12:20:50.652Z</time>
      </trkpt>
      <trkpt lat="46.93577" lon="8.69557">
        <ele>1723</ele>
        <time>2021-08-06T12:20:51.652Z</time>
      </trkpt>
      <trkpt lat="46.93576" lon="8.69556">
        <ele>1723</ele>
        <time>2021-08-06T12:20:52.651Z</time>
      </trkpt>
      <trkpt lat="46.93576" lon="8.69556">
        <ele>1723</ele>
        <time>2021-08-06T12:20:53.651Z</time>
      </trkpt>
      <trkpt lat="46.93575" lon="8.69555">
        <ele>1723</ele>
        <time>2021-08-06T12:20:54.651Z</time>
      </trkpt>
      <trkpt lat="46.93574" lon="8.69555">
        <ele>1723</ele>
        <time>2021-08-06T12:20:55.652Z</time>
      </trkpt>
      <trkpt lat="46.93574" lon="8.69556">
        <ele>1723</ele>
        <time>2021-08-06T12:20:56.651Z</time>
      </trkpt>
      <trkpt lat="46.93574" lon="8.69556">
        <ele>1723</ele>
        <time>2021-08-06T12:20:57.652Z</time>
      </trkpt>
      <trkpt lat="46.93573" lon="8.69556">
        <ele>1722</ele>
        <time>2021-08-06T12:20:58.653Z</time>
      </trkpt>
      <trkpt lat="46.93572" lon="8.69555">
        <ele>1722</ele>
        <time>2021-08-06T12:20:59.652Z</time>
      </trkpt>
      <trkpt lat="46.93571" lon="8.69554">
        <ele>1722</ele>
        <time>2021-08-06T12:21:00.652Z</time>
      </trkpt>
      <trkpt lat="46.9357" lon="8.69552">
        <ele>1722</ele>
        <time>2021-08-06T12:21:01.653Z</time>
      </trkpt>
      <trkpt lat="46.9357" lon="8.69551">
        <ele>1723</ele>
        <time>2021-08-06T12:21:02.652Z</time>
      </trkpt>
      <trkpt lat="46.93569" lon="8.69551">
        <ele>1723</ele>
        <time>2021-08-06T12:21:03.653Z</time>
      </trkpt>
      <trkpt lat="46.93569" lon="8.6955">
        <ele>1724</ele>
        <time>2021-08-06T12:21:04.653Z</time>
      </trkpt>
      <trkpt lat="46.93568" lon="8.69549">
        <ele>1724</ele>
        <time>2021-08-06T12:21:05.653Z</time>
      </trkpt>
      <trkpt lat="46.93567" lon="8.69548">
        <ele>1725</ele>
        <time>2021-08-06T12:21:06.652Z</time>
      </trkpt>
      <trkpt lat="46.93566" lon="8.69547">
        <ele>1725</ele>
        <time>2021-08-06T12:21:07.653Z</time>
      </trkpt>
      <trkpt lat="46.93566" lon="8.69546">
        <ele>1726</ele>
        <time>2021-08-06T12:21:08.653Z</time>
      </trkpt>
      <trkpt lat="46.93565" lon="8.69545">
        <ele>1726</ele>
        <time>2021-08-06T12:21:09.653Z</time>
      </trkpt>
      <trkpt lat="46.93564" lon="8.69544">
        <ele>1726</ele>
        <time>2021-08-06T12:21:10.653Z</time>
      </trkpt>
      <trkpt lat="46.93564" lon="8.69544">
        <ele>1726</ele>
        <time>2021-08-06T12:21:11.652Z</time>
      </trkpt>
      <trkpt lat="46.93563" lon="8.69543">
        <ele>1726</ele>
        <time>2021-08-06T12:21:12.653Z</time>
      </trkpt>
      <trkpt lat="46.93563" lon="8.69543">
        <ele>1726</ele>
        <time>2021-08-06T12:21:13.653Z</time>
      </trkpt>
      <trkpt lat="46.93562" lon="8.69543">
        <ele>1726</ele>
        <time>2021-08-06T12:21:14.652Z</time>
      </trkpt>
      <trkpt lat="46.93561" lon="8.69543">
        <ele>1726</ele>
        <time>2021-08-06T12:21:15.653Z</time>
      </trkpt>
      <trkpt lat="46.9356" lon="8.69542">
        <ele>1727</ele>
        <time>2021-08-06T12:21:16.652Z</time>
      </trkpt>
      <trkpt lat="46.93559" lon="8.69541">
        <ele>1727</ele>
        <time>2021-08-06T12:21:17.653Z</time>
      </trkpt>
      <trkpt lat="46.93559" lon="8.69541">
        <ele>1727</ele>
        <time>2021-08-06T12:21:18.653Z</time>
      </trkpt>
      <trkpt lat="46.93558" lon="8.69541">
        <ele>1728</ele>
        <time>2021-08-06T12:21:20.710Z</time>
      </trkpt>
      <trkpt lat="46.93557" lon="8.69541">
        <ele>1728</ele>
        <time>2021-08-06T12:21:21.711Z</time>
      </trkpt>
      <trkpt lat="46.93557" lon="8.6954">
        <ele>1728</ele>
        <time>2021-08-06T12:21:22.710Z</time>
      </trkpt>
      <trkpt lat="46.93556" lon="8.6954">
        <ele>1729</ele>
        <time>2021-08-06T12:21:23.710Z</time>
      </trkpt>
      <trkpt lat="46.93555" lon="8.69539">
        <ele>1729</ele>
        <time>2021-08-06T12:21:24.711Z</time>
      </trkpt>
      <trkpt lat="46.93554" lon="8.69538">
        <ele>1729</ele>
        <time>2021-08-06T12:21:25.710Z</time>
      </trkpt>
      <trkpt lat="46.93553" lon="8.69537">
        <ele>1730</ele>
        <time>2021-08-06T12:21:26.710Z</time>
      </trkpt>
      <trkpt lat="46.93552" lon="8.69537">
        <ele>1730</ele>
        <time>2021-08-06T12:21:27.710Z</time>
      </trkpt>
      <trkpt lat="46.93551" lon="8.69536">
        <ele>1730</ele>
        <time>2021-08-06T12:21:28.710Z</time>
      </trkpt>
      <trkpt lat="46.9355" lon="8.69535">
        <ele>1730</ele>
        <time>2021-08-06T12:21:29.711Z</time>
      </trkpt>
      <trkpt lat="46.9355" lon="8.69535">
        <ele>1730</ele>
        <time>2021-08-06T12:21:30.710Z</time>
      </trkpt>
      <trkpt lat="46.93549" lon="8.69534">
        <ele>1731</ele>
        <time>2021-08-06T12:21:31.710Z</time>
      </trkpt>
      <trkpt lat="46.93548" lon="8.69532">
        <ele>1731</ele>
        <time>2021-08-06T12:21:32.710Z</time>
      </trkpt>
      <trkpt lat="46.93547" lon="8.6953">
        <ele>1731</ele>
        <time>2021-08-06T12:21:33.710Z</time>
      </trkpt>
      <trkpt lat="46.93546" lon="8.69529">
        <ele>1732</ele>
        <time>2021-08-06T12:21:34.711Z</time>
      </trkpt>
      <trkpt lat="46.93545" lon="8.69528">
        <ele>1732</ele>
        <time>2021-08-06T12:21:35.710Z</time>
      </trkpt>
      <trkpt lat="46.93544" lon="8.69528">
        <ele>1733</ele>
        <time>2021-08-06T12:21:36.711Z</time>
      </trkpt>
      <trkpt lat="46.93544" lon="8.69527">
        <ele>1733</ele>
        <time>2021-08-06T12:21:37.710Z</time>
      </trkpt>
      <trkpt lat="46.93543" lon="8.69527">
        <ele>1733</ele>
        <time>2021-08-06T12:21:38.711Z</time>
      </trkpt>
      <trkpt lat="46.93542" lon="8.69526">
        <ele>1734</ele>
        <time>2021-08-06T12:21:39.711Z</time>
      </trkpt>
      <trkpt lat="46.93541" lon="8.69526">
        <ele>1734</ele>
        <time>2021-08-06T12:21:40.711Z</time>
      </trkpt>
      <trkpt lat="46.9354" lon="8.69526">
        <ele>1734</ele>
        <time>2021-08-06T12:21:41.710Z</time>
      </trkpt>
      <trkpt lat="46.9354" lon="8.69525">
        <ele>1734</ele>
        <time>2021-08-06T12:21:42.711Z</time>
      </trkpt>
      <trkpt lat="46.9354" lon="8.69524">
        <ele>1734</ele>
        <time>2021-08-06T12:21:43.711Z</time>
      </trkpt>
      <trkpt lat="46.93539" lon="8.69523">
        <ele>1734</ele>
        <time>2021-08-06T12:21:44.711Z</time>
      </trkpt>
      <trkpt lat="46.93539" lon="8.69523">
        <ele>1734</ele>
        <time>2021-08-06T12:21:45.711Z</time>
      </trkpt>
      <trkpt lat="46.93538" lon="8.69524">
        <ele>1734</ele>
        <time>2021-08-06T12:21:46.711Z</time>
      </trkpt>
      <trkpt lat="46.93537" lon="8.69523">
        <ele>1734</ele>
        <time>2021-08-06T12:21:47.710Z</time>
      </trkpt>
      <trkpt lat="46.93537" lon="8.69524">
        <ele>1734</ele>
        <time>2021-08-06T12:21:48.711Z</time>
      </trkpt>
      <trkpt lat="46.93536" lon="8.69524">
        <ele>1734</ele>
        <time>2021-08-06T12:21:49.710Z</time>
      </trkpt>
      <trkpt lat="46.93535" lon="8.69524">
        <ele>1734</ele>
        <time>2021-08-06T12:21:50.711Z</time>
      </trkpt>
      <trkpt lat="46.93534" lon="8.69523">
        <ele>1734</ele>
        <time>2021-08-06T12:21:51.711Z</time>
      </trkpt>
      <trkpt lat="46.93534" lon="8.69522">
        <ele>1734</ele>
        <time>2021-08-06T12:21:52.711Z</time>
      </trkpt>
      <trkpt lat="46.93534" lon="8.69521">
        <ele>1734</ele>
        <time>2021-08-06T12:21:53.711Z</time>
      </trkpt>
      <trkpt lat="46.93533" lon="8.69521">
        <ele>1734</ele>
        <time>2021-08-06T12:21:54.711Z</time>
      </trkpt>
      <trkpt lat="46.93534" lon="8.69521">
        <ele>1734</ele>
        <time>2021-08-06T12:21:55.711Z</time>
      </trkpt>
      <trkpt lat="46.93533" lon="8.69519">
        <ele>1735</ele>
        <time>2021-08-06T12:21:56.711Z</time>
      </trkpt>
      <trkpt lat="46.93532" lon="8.69517">
        <ele>1735</ele>
        <time>2021-08-06T12:21:57.711Z</time>
      </trkpt>
      <trkpt lat="46.93531" lon="8.69517">
        <ele>1735</ele>
        <time>2021-08-06T12:21:58.711Z</time>
      </trkpt>
      <trkpt lat="46.9353" lon="8.69516">
        <ele>1734</ele>
        <time>2021-08-06T12:21:59.710Z</time>
      </trkpt>
      <trkpt lat="46.93529" lon="8.69516">
        <ele>1734</ele>
        <time>2021-08-06T12:22:00.711Z</time>
      </trkpt>
      <trkpt lat="46.93528" lon="8.69516">
        <ele>1734</ele>
        <time>2021-08-06T12:22:01.711Z</time>
      </trkpt>
      <trkpt lat="46.93528" lon="8.69515">
        <ele>1734</ele>
        <time>2021-08-06T12:22:02.710Z</time>
      </trkpt>
      <trkpt lat="46.93527" lon="8.69515">
        <ele>1734</ele>
        <time>2021-08-06T12:22:03.711Z</time>
      </trkpt>
      <trkpt lat="46.93526" lon="8.69514">
        <ele>1734</ele>
        <time>2021-08-06T12:22:04.710Z</time>
      </trkpt>
      <trkpt lat="46.93526" lon="8.69513">
        <ele>1733</ele>
        <time>2021-08-06T12:22:05.711Z</time>
      </trkpt>
      <trkpt lat="46.93525" lon="8.69511">
        <ele>1733</ele>
        <time>2021-08-06T12:22:06.711Z</time>
      </trkpt>
      <trkpt lat="46.93525" lon="8.6951">
        <ele>1733</ele>
        <time>2021-08-06T12:22:07.710Z</time>
      </trkpt>
      <trkpt lat="46.93525" lon="8.69509">
        <ele>1733</ele>
        <time>2021-08-06T12:22:08.711Z</time>
      </trkpt>
      <trkpt lat="46.93524" lon="8.69508">
        <ele>1733</ele>
        <time>2021-08-06T12:22:09.711Z</time>
      </trkpt>
      <trkpt lat="46.93523" lon="8.69507">
        <ele>1733</ele>
        <time>2021-08-06T12:22:10.710Z</time>
      </trkpt>
      <trkpt lat="46.93523" lon="8.69506">
        <ele>1732</ele>
        <time>2021-08-06T12:22:11.711Z</time>
      </trkpt>
      <trkpt lat="46.93523" lon="8.69504">
        <ele>1732</ele>
        <time>2021-08-06T12:22:12.711Z</time>
      </trkpt>
      <trkpt lat="46.93523" lon="8.69503">
        <ele>1732</ele>
        <time>2021-08-06T12:22:13.711Z</time>
      </trkpt>
      <trkpt lat="46.93522" lon="8.69501">
        <ele>1732</ele>
        <time>2021-08-06T12:22:14.711Z</time>
      </trkpt>
      <trkpt lat="46.93522" lon="8.695">
        <ele>1732</ele>
        <time>2021-08-06T12:22:15.711Z</time>
      </trkpt>
      <trkpt lat="46.93521" lon="8.69499">
        <ele>1732</ele>
        <time>2021-08-06T12:22:16.711Z</time>
      </trkpt>
      <trkpt lat="46.93521" lon="8.69497">
        <ele>1732</ele>
        <time>2021-08-06T12:22:17.711Z</time>
      </trkpt>
      <trkpt lat="46.93521" lon="8.69494">
        <ele>1732</ele>
        <time>2021-08-06T12:22:18.711Z</time>
      </trkpt>
      <trkpt lat="46.9352" lon="8.69493">
        <ele>1732</ele>
        <time>2021-08-06T12:22:19.711Z</time>
      </trkpt>
      <trkpt lat="46.9352" lon="8.69492">
        <ele>1732</ele>
        <time>2021-08-06T12:22:20.711Z</time>
      </trkpt>
      <trkpt lat="46.9352" lon="8.69491">
        <ele>1732</ele>
        <time>2021-08-06T12:22:21.710Z</time>
      </trkpt>
      <trkpt lat="46.93521" lon="8.6949">
        <ele>1732</ele>
        <time>2021-08-06T12:22:22.711Z</time>
      </trkpt>
      <trkpt lat="46.9352" lon="8.69489">
        <ele>1732</ele>
        <time>2021-08-06T12:22:23.711Z</time>
      </trkpt>
      <trkpt lat="46.9352" lon="8.69489">
        <ele>1732</ele>
        <time>2021-08-06T12:22:24.710Z</time>
      </trkpt>
      <trkpt lat="46.93519" lon="8.69489">
        <ele>1732</ele>
        <time>2021-08-06T12:22:25.711Z</time>
      </trkpt>
      <trkpt lat="46.93519" lon="8.69489">
        <ele>1733</ele>
        <time>2021-08-06T12:22:26.711Z</time>
      </trkpt>
      <trkpt lat="46.93518" lon="8.69487">
        <ele>1733</ele>
        <time>2021-08-06T12:22:27.711Z</time>
      </trkpt>
      <trkpt lat="46.93517" lon="8.69484">
        <ele>1733</ele>
        <time>2021-08-06T12:22:28.711Z</time>
      </trkpt>
      <trkpt lat="46.93517" lon="8.69483">
        <ele>1733</ele>
        <time>2021-08-06T12:22:29.711Z</time>
      </trkpt>
      <trkpt lat="46.93517" lon="8.69481">
        <ele>1734</ele>
        <time>2021-08-06T12:22:30.711Z</time>
      </trkpt>
      <trkpt lat="46.93518" lon="8.6948">
        <ele>1734</ele>
        <time>2021-08-06T12:22:31.710Z</time>
      </trkpt>
      <trkpt lat="46.93517" lon="8.69479">
        <ele>1734</ele>
        <time>2021-08-06T12:22:32.710Z</time>
      </trkpt>
      <trkpt lat="46.93516" lon="8.69478">
        <ele>1734</ele>
        <time>2021-08-06T12:22:33.710Z</time>
      </trkpt>
      <trkpt lat="46.93515" lon="8.69477">
        <ele>1734</ele>
        <time>2021-08-06T12:22:34.711Z</time>
      </trkpt>
      <trkpt lat="46.93514" lon="8.69476">
        <ele>1733</ele>
        <time>2021-08-06T12:22:35.710Z</time>
      </trkpt>
      <trkpt lat="46.93513" lon="8.69475">
        <ele>1733</ele>
        <time>2021-08-06T12:22:36.710Z</time>
      </trkpt>
      <trkpt lat="46.93512" lon="8.69475">
        <ele>1733</ele>
        <time>2021-08-06T12:22:37.710Z</time>
      </trkpt>
      <trkpt lat="46.93512" lon="8.69474">
        <ele>1733</ele>
        <time>2021-08-06T12:22:38.710Z</time>
      </trkpt>
      <trkpt lat="46.93511" lon="8.69474">
        <ele>1733</ele>
        <time>2021-08-06T12:22:39.711Z</time>
      </trkpt>
      <trkpt lat="46.93511" lon="8.69473">
        <ele>1733</ele>
        <time>2021-08-06T12:22:40.710Z</time>
      </trkpt>
      <trkpt lat="46.9351" lon="8.69472">
        <ele>1733</ele>
        <time>2021-08-06T12:22:41.711Z</time>
      </trkpt>
      <trkpt lat="46.93509" lon="8.69472">
        <ele>1733</ele>
        <time>2021-08-06T12:22:42.711Z</time>
      </trkpt>
      <trkpt lat="46.93508" lon="8.69471">
        <ele>1733</ele>
        <time>2021-08-06T12:22:43.711Z</time>
      </trkpt>
      <trkpt lat="46.93507" lon="8.6947">
        <ele>1734</ele>
        <time>2021-08-06T12:22:44.710Z</time>
      </trkpt>
      <trkpt lat="46.93507" lon="8.6947">
        <ele>1734</ele>
        <time>2021-08-06T12:22:45.710Z</time>
      </trkpt>
      <trkpt lat="46.93506" lon="8.69469">
        <ele>1734</ele>
        <time>2021-08-06T12:22:46.711Z</time>
      </trkpt>
      <trkpt lat="46.93505" lon="8.69467">
        <ele>1734</ele>
        <time>2021-08-06T12:22:47.711Z</time>
      </trkpt>
      <trkpt lat="46.93505" lon="8.69466">
        <ele>1734</ele>
        <time>2021-08-06T12:22:48.711Z</time>
      </trkpt>
      <trkpt lat="46.93504" lon="8.69464">
        <ele>1734</ele>
        <time>2021-08-06T12:22:49.711Z</time>
      </trkpt>
      <trkpt lat="46.93503" lon="8.69462">
        <ele>1734</ele>
        <time>2021-08-06T12:22:50.711Z</time>
      </trkpt>
      <trkpt lat="46.93502" lon="8.69461">
        <ele>1734</ele>
        <time>2021-08-06T12:22:51.711Z</time>
      </trkpt>
      <trkpt lat="46.93502" lon="8.6946">
        <ele>1734</ele>
        <time>2021-08-06T12:22:52.711Z</time>
      </trkpt>
      <trkpt lat="46.93501" lon="8.69458">
        <ele>1734</ele>
        <time>2021-08-06T12:22:53.710Z</time>
      </trkpt>
      <trkpt lat="46.93501" lon="8.69456">
        <ele>1734</ele>
        <time>2021-08-06T12:22:54.711Z</time>
      </trkpt>
      <trkpt lat="46.93501" lon="8.69454">
        <ele>1734</ele>
        <time>2021-08-06T12:22:55.710Z</time>
      </trkpt>
      <trkpt lat="46.93502" lon="8.69453">
        <ele>1734</ele>
        <time>2021-08-06T12:22:56.711Z</time>
      </trkpt>
      <trkpt lat="46.93501" lon="8.69451">
        <ele>1734</ele>
        <time>2021-08-06T12:22:57.710Z</time>
      </trkpt>
      <trkpt lat="46.93499" lon="8.6945">
        <ele>1734</ele>
        <time>2021-08-06T12:22:58.710Z</time>
      </trkpt>
      <trkpt lat="46.93498" lon="8.6945">
        <ele>1734</ele>
        <time>2021-08-06T12:22:59.711Z</time>
      </trkpt>
      <trkpt lat="46.93498" lon="8.69449">
        <ele>1734</ele>
        <time>2021-08-06T12:23:00.711Z</time>
      </trkpt>
      <trkpt lat="46.93497" lon="8.69449">
        <ele>1734</ele>
        <time>2021-08-06T12:23:01.711Z</time>
      </trkpt>
      <trkpt lat="46.93497" lon="8.69448">
        <ele>1734</ele>
        <time>2021-08-06T12:23:02.710Z</time>
      </trkpt>
      <trkpt lat="46.93496" lon="8.69448">
        <ele>1734</ele>
        <time>2021-08-06T12:23:03.710Z</time>
      </trkpt>
      <trkpt lat="46.93495" lon="8.69447">
        <ele>1734</ele>
        <time>2021-08-06T12:23:04.711Z</time>
      </trkpt>
      <trkpt lat="46.93494" lon="8.69446">
        <ele>1733</ele>
        <time>2021-08-06T12:23:05.711Z</time>
      </trkpt>
      <trkpt lat="46.93493" lon="8.69444">
        <ele>1733</ele>
        <time>2021-08-06T12:23:06.711Z</time>
      </trkpt>
      <trkpt lat="46.93492" lon="8.69443">
        <ele>1733</ele>
        <time>2021-08-06T12:23:07.711Z</time>
      </trkpt>
      <trkpt lat="46.93492" lon="8.69442">
        <ele>1733</ele>
        <time>2021-08-06T12:23:08.711Z</time>
      </trkpt>
      <trkpt lat="46.93492" lon="8.6944">
        <ele>1732</ele>
        <time>2021-08-06T12:23:09.710Z</time>
      </trkpt>
      <trkpt lat="46.93492" lon="8.69439">
        <ele>1732</ele>
        <time>2021-08-06T12:23:10.711Z</time>
      </trkpt>
      <trkpt lat="46.93492" lon="8.69438">
        <ele>1732</ele>
        <time>2021-08-06T12:23:11.711Z</time>
      </trkpt>
      <trkpt lat="46.93493" lon="8.69436">
        <ele>1732</ele>
        <time>2021-08-06T12:23:12.711Z</time>
      </trkpt>
      <trkpt lat="46.93493" lon="8.69436">
        <ele>1732</ele>
        <time>2021-08-06T12:23:13.711Z</time>
      </trkpt>
      <trkpt lat="46.93493" lon="8.69435">
        <ele>1732</ele>
        <time>2021-08-06T12:23:14.710Z</time>
      </trkpt>
      <trkpt lat="46.93494" lon="8.69436">
        <ele>1732</ele>
        <time>2021-08-06T12:23:15.710Z</time>
      </trkpt>
      <trkpt lat="46.93494" lon="8.69435">
        <ele>1733</ele>
        <time>2021-08-06T12:23:16.712Z</time>
      </trkpt>
      <trkpt lat="46.93494" lon="8.69434">
        <ele>1733</ele>
        <time>2021-08-06T12:23:17.711Z</time>
      </trkpt>
      <trkpt lat="46.93493" lon="8.69433">
        <ele>1733</ele>
        <time>2021-08-06T12:23:18.711Z</time>
      </trkpt>
      <trkpt lat="46.93493" lon="8.69433">
        <ele>1733</ele>
        <time>2021-08-06T12:23:19.711Z</time>
      </trkpt>
      <trkpt lat="46.93492" lon="8.69433">
        <ele>1733</ele>
        <time>2021-08-06T12:23:20.712Z</time>
      </trkpt>
      <trkpt lat="46.93491" lon="8.69432">
        <ele>1733</ele>
        <time>2021-08-06T12:23:21.712Z</time>
      </trkpt>
      <trkpt lat="46.9349" lon="8.69431">
        <ele>1733</ele>
        <time>2021-08-06T12:23:22.711Z</time>
      </trkpt>
      <trkpt lat="46.9349" lon="8.6943">
        <ele>1733</ele>
        <time>2021-08-06T12:23:23.712Z</time>
      </trkpt>
      <trkpt lat="46.93489" lon="8.69428">
        <ele>1733</ele>
        <time>2021-08-06T12:23:24.712Z</time>
      </trkpt>
      <trkpt lat="46.93488" lon="8.69427">
        <ele>1733</ele>
        <time>2021-08-06T12:23:25.712Z</time>
      </trkpt>
      <trkpt lat="46.93488" lon="8.69426">
        <ele>1733</ele>
        <time>2021-08-06T12:23:26.711Z</time>
      </trkpt>
      <trkpt lat="46.93488" lon="8.69425">
        <ele>1733</ele>
        <time>2021-08-06T12:23:27.712Z</time>
      </trkpt>
      <trkpt lat="46.93488" lon="8.69423">
        <ele>1734</ele>
        <time>2021-08-06T12:23:28.712Z</time>
      </trkpt>
      <trkpt lat="46.93487" lon="8.69422">
        <ele>1734</ele>
        <time>2021-08-06T12:23:29.711Z</time>
      </trkpt>
      <trkpt lat="46.93487" lon="8.69421">
        <ele>1735</ele>
        <time>2021-08-06T12:23:30.712Z</time>
      </trkpt>
      <trkpt lat="46.93487" lon="8.69419">
        <ele>1735</ele>
        <time>2021-08-06T12:23:31.711Z</time>
      </trkpt>
      <trkpt lat="46.93486" lon="8.69417">
        <ele>1735</ele>
        <time>2021-08-06T12:23:32.712Z</time>
      </trkpt>
      <trkpt lat="46.93486" lon="8.69414">
        <ele>1735</ele>
        <time>2021-08-06T12:23:33.712Z</time>
      </trkpt>
      <trkpt lat="46.93485" lon="8.69412">
        <ele>1736</ele>
        <time>2021-08-06T12:23:34.711Z</time>
      </trkpt>
      <trkpt lat="46.93485" lon="8.69411">
        <ele>1736</ele>
        <time>2021-08-06T12:23:35.712Z</time>
      </trkpt>
      <trkpt lat="46.93485" lon="8.6941">
        <ele>1736</ele>
        <time>2021-08-06T12:23:36.711Z</time>
      </trkpt>
      <trkpt lat="46.93485" lon="8.69409">
        <ele>1735</ele>
        <time>2021-08-06T12:23:37.712Z</time>
      </trkpt>
      <trkpt lat="46.93485" lon="8.69408">
        <ele>1735</ele>
        <time>2021-08-06T12:23:38.712Z</time>
      </trkpt>
      <trkpt lat="46.93484" lon="8.69406">
        <ele>1735</ele>
        <time>2021-08-06T12:23:39.712Z</time>
      </trkpt>
      <trkpt lat="46.93484" lon="8.69404">
        <ele>1735</ele>
        <time>2021-08-06T12:23:40.711Z</time>
      </trkpt>
      <trkpt lat="46.93483" lon="8.69403">
        <ele>1734</ele>
        <time>2021-08-06T12:23:41.712Z</time>
      </trkpt>
      <trkpt lat="46.93482" lon="8.69402">
        <ele>1734</ele>
        <time>2021-08-06T12:23:42.712Z</time>
      </trkpt>
      <trkpt lat="46.93481" lon="8.694">
        <ele>1734</ele>
        <time>2021-08-06T12:23:43.711Z</time>
      </trkpt>
      <trkpt lat="46.93481" lon="8.69399">
        <ele>1733</ele>
        <time>2021-08-06T12:23:44.711Z</time>
      </trkpt>
      <trkpt lat="46.9348" lon="8.69397">
        <ele>1733</ele>
        <time>2021-08-06T12:23:45.712Z</time>
      </trkpt>
      <trkpt lat="46.9348" lon="8.69396">
        <ele>1732</ele>
        <time>2021-08-06T12:23:46.711Z</time>
      </trkpt>
      <trkpt lat="46.93479" lon="8.69394">
        <ele>1732</ele>
        <time>2021-08-06T12:23:47.712Z</time>
      </trkpt>
      <trkpt lat="46.93479" lon="8.69392">
        <ele>1732</ele>
        <time>2021-08-06T12:23:48.711Z</time>
      </trkpt>
      <trkpt lat="46.93478" lon="8.69391">
        <ele>1731</ele>
        <time>2021-08-06T12:23:49.711Z</time>
      </trkpt>
      <trkpt lat="46.93477" lon="8.6939">
        <ele>1731</ele>
        <time>2021-08-06T12:23:50.712Z</time>
      </trkpt>
      <trkpt lat="46.93477" lon="8.69389">
        <ele>1731</ele>
        <time>2021-08-06T12:23:51.711Z</time>
      </trkpt>
      <trkpt lat="46.93477" lon="8.69387">
        <ele>1730</ele>
        <time>2021-08-06T12:23:52.711Z</time>
      </trkpt>
      <trkpt lat="46.93477" lon="8.69386">
        <ele>1730</ele>
        <time>2021-08-06T12:23:53.712Z</time>
      </trkpt>
      <trkpt lat="46.93477" lon="8.69385">
        <ele>1730</ele>
        <time>2021-08-06T12:23:54.711Z</time>
      </trkpt>
      <trkpt lat="46.93477" lon="8.69384">
        <ele>1730</ele>
        <time>2021-08-06T12:23:55.712Z</time>
      </trkpt>
      <trkpt lat="46.93477" lon="8.69382">
        <ele>1730</ele>
        <time>2021-08-06T12:23:56.712Z</time>
      </trkpt>
      <trkpt lat="46.93478" lon="8.6938">
        <ele>1731</ele>
        <time>2021-08-06T12:23:57.712Z</time>
      </trkpt>
      <trkpt lat="46.93478" lon="8.69378">
        <ele>1731</ele>
        <time>2021-08-06T12:23:58.712Z</time>
      </trkpt>
      <trkpt lat="46.93479" lon="8.69377">
        <ele>1730</ele>
        <time>2021-08-06T12:23:59.712Z</time>
      </trkpt>
      <trkpt lat="46.93479" lon="8.69375">
        <ele>1730</ele>
        <time>2021-08-06T12:24:00.712Z</time>
      </trkpt>
      <trkpt lat="46.93479" lon="8.69374">
        <ele>1730</ele>
        <time>2021-08-06T12:24:01.712Z</time>
      </trkpt>
      <trkpt lat="46.93479" lon="8.69373">
        <ele>1729</ele>
        <time>2021-08-06T12:24:02.712Z</time>
      </trkpt>
      <trkpt lat="46.93479" lon="8.69371">
        <ele>1729</ele>
        <time>2021-08-06T12:24:03.712Z</time>
      </trkpt>
      <trkpt lat="46.9348" lon="8.6937">
        <ele>1729</ele>
        <time>2021-08-06T12:24:04.711Z</time>
      </trkpt>
      <trkpt lat="46.9348" lon="8.69369">
        <ele>1729</ele>
        <time>2021-08-06T12:24:05.712Z</time>
      </trkpt>
      <trkpt lat="46.93481" lon="8.69368">
        <ele>1729</ele>
        <time>2021-08-06T12:24:06.712Z</time>
      </trkpt>
      <trkpt lat="46.93482" lon="8.69367">
        <ele>1729</ele>
        <time>2021-08-06T12:24:07.712Z</time>
      </trkpt>
      <trkpt lat="46.93482" lon="8.69366">
        <ele>1729</ele>
        <time>2021-08-06T12:24:08.711Z</time>
      </trkpt>
      <trkpt lat="46.93482" lon="8.69364">
        <ele>1729</ele>
        <time>2021-08-06T12:24:09.712Z</time>
      </trkpt>
      <trkpt lat="46.93482" lon="8.69363">
        <ele>1729</ele>
        <time>2021-08-06T12:24:10.712Z</time>
      </trkpt>
      <trkpt lat="46.93482" lon="8.69361">
        <ele>1730</ele>
        <time>2021-08-06T12:24:11.712Z</time>
      </trkpt>
      <trkpt lat="46.93483" lon="8.6936">
        <ele>1730</ele>
        <time>2021-08-06T12:24:12.712Z</time>
      </trkpt>
      <trkpt lat="46.93483" lon="8.6936">
        <ele>1731</ele>
        <time>2021-08-06T12:24:13.712Z</time>
      </trkpt>
      <trkpt lat="46.93482" lon="8.69359">
        <ele>1731</ele>
        <time>2021-08-06T12:24:14.712Z</time>
      </trkpt>
      <trkpt lat="46.93481" lon="8.69357">
        <ele>1732</ele>
        <time>2021-08-06T12:24:15.712Z</time>
      </trkpt>
      <trkpt lat="46.93481" lon="8.69356">
        <ele>1732</ele>
        <time>2021-08-06T12:24:16.711Z</time>
      </trkpt>
      <trkpt lat="46.93482" lon="8.69354">
        <ele>1732</ele>
        <time>2021-08-06T12:24:17.712Z</time>
      </trkpt>
      <trkpt lat="46.93482" lon="8.69354">
        <ele>1732</ele>
        <time>2021-08-06T12:24:18.711Z</time>
      </trkpt>
      <trkpt lat="46.93482" lon="8.69352">
        <ele>1732</ele>
        <time>2021-08-06T12:24:19.712Z</time>
      </trkpt>
      <trkpt lat="46.93482" lon="8.69352">
        <ele>1733</ele>
        <time>2021-08-06T12:24:20.711Z</time>
      </trkpt>
      <trkpt lat="46.93483" lon="8.69351">
        <ele>1733</ele>
        <time>2021-08-06T12:24:21.712Z</time>
      </trkpt>
      <trkpt lat="46.93483" lon="8.6935">
        <ele>1733</ele>
        <time>2021-08-06T12:24:22.712Z</time>
      </trkpt>
      <trkpt lat="46.93483" lon="8.6935">
        <ele>1734</ele>
        <time>2021-08-06T12:24:23.712Z</time>
      </trkpt>
      <trkpt lat="46.93483" lon="8.69348">
        <ele>1734</ele>
        <time>2021-08-06T12:24:24.712Z</time>
      </trkpt>
      <trkpt lat="46.93483" lon="8.69347">
        <ele>1735</ele>
        <time>2021-08-06T12:24:25.712Z</time>
      </trkpt>
      <trkpt lat="46.93484" lon="8.69346">
        <ele>1735</ele>
        <time>2021-08-06T12:24:26.712Z</time>
      </trkpt>
      <trkpt lat="46.93485" lon="8.69345">
        <ele>1736</ele>
        <time>2021-08-06T12:24:27.712Z</time>
      </trkpt>
      <trkpt lat="46.93485" lon="8.69344">
        <ele>1736</ele>
        <time>2021-08-06T12:24:28.712Z</time>
      </trkpt>
      <trkpt lat="46.93486" lon="8.69343">
        <ele>1737</ele>
        <time>2021-08-06T12:24:29.711Z</time>
      </trkpt>
      <trkpt lat="46.93487" lon="8.69341">
        <ele>1737</ele>
        <time>2021-08-06T12:24:30.711Z</time>
      </trkpt>
      <trkpt lat="46.93487" lon="8.6934">
        <ele>1737</ele>
        <time>2021-08-06T12:24:31.711Z</time>
      </trkpt>
      <trkpt lat="46.93488" lon="8.69339">
        <ele>1738</ele>
        <time>2021-08-06T12:24:32.712Z</time>
      </trkpt>
      <trkpt lat="46.93489" lon="8.69338">
        <ele>1738</ele>
        <time>2021-08-06T12:24:33.712Z</time>
      </trkpt>
      <trkpt lat="46.9349" lon="8.69337">
        <ele>1738</ele>
        <time>2021-08-06T12:24:34.711Z</time>
      </trkpt>
      <trkpt lat="46.93491" lon="8.69335">
        <ele>1738</ele>
        <time>2021-08-06T12:24:35.712Z</time>
      </trkpt>
      <trkpt lat="46.93492" lon="8.69334">
        <ele>1738</ele>
        <time>2021-08-06T12:24:36.711Z</time>
      </trkpt>
      <trkpt lat="46.93494" lon="8.69333">
        <ele>1739</ele>
        <time>2021-08-06T12:24:37.712Z</time>
      </trkpt>
      <trkpt lat="46.93496" lon="8.69332">
        <ele>1739</ele>
        <time>2021-08-06T12:24:38.711Z</time>
      </trkpt>
      <trkpt lat="46.93496" lon="8.69331">
        <ele>1739</ele>
        <time>2021-08-06T12:24:39.712Z</time>
      </trkpt>
      <trkpt lat="46.93497" lon="8.6933">
        <ele>1740</ele>
        <time>2021-08-06T12:24:40.711Z</time>
      </trkpt>
      <trkpt lat="46.93497" lon="8.69329">
        <ele>1740</ele>
        <time>2021-08-06T12:24:41.712Z</time>
      </trkpt>
      <trkpt lat="46.93497" lon="8.69328">
        <ele>1740</ele>
        <time>2021-08-06T12:24:42.711Z</time>
      </trkpt>
      <trkpt lat="46.93497" lon="8.69328">
        <ele>1740</ele>
        <time>2021-08-06T12:24:43.712Z</time>
      </trkpt>
      <trkpt lat="46.93497" lon="8.69328">
        <ele>1740</ele>
        <time>2021-08-06T12:24:44.712Z</time>
      </trkpt>
      <trkpt lat="46.93498" lon="8.69328">
        <ele>1740</ele>
        <time>2021-08-06T12:24:45.712Z</time>
      </trkpt>
      <trkpt lat="46.93499" lon="8.69328">
        <ele>1740</ele>
        <time>2021-08-06T12:24:46.712Z</time>
      </trkpt>
      <trkpt lat="46.93499" lon="8.69327">
        <ele>1740</ele>
        <time>2021-08-06T12:24:47.712Z</time>
      </trkpt>
      <trkpt lat="46.935" lon="8.69326">
        <ele>1740</ele>
        <time>2021-08-06T12:24:48.712Z</time>
      </trkpt>
      <trkpt lat="46.93501" lon="8.69325">
        <ele>1740</ele>
        <time>2021-08-06T12:24:49.712Z</time>
      </trkpt>
      <trkpt lat="46.93501" lon="8.69324">
        <ele>1739</ele>
        <time>2021-08-06T12:24:50.711Z</time>
      </trkpt>
      <trkpt lat="46.93501" lon="8.69323">
        <ele>1739</ele>
        <time>2021-08-06T12:24:51.712Z</time>
      </trkpt>
      <trkpt lat="46.93502" lon="8.69322">
        <ele>1739</ele>
        <time>2021-08-06T12:24:52.712Z</time>
      </trkpt>
      <trkpt lat="46.93502" lon="8.69321">
        <ele>1739</ele>
        <time>2021-08-06T12:24:53.712Z</time>
      </trkpt>
      <trkpt lat="46.93503" lon="8.6932">
        <ele>1739</ele>
        <time>2021-08-06T12:24:54.712Z</time>
      </trkpt>
      <trkpt lat="46.93503" lon="8.69319">
        <ele>1739</ele>
        <time>2021-08-06T12:24:55.711Z</time>
      </trkpt>
      <trkpt lat="46.93503" lon="8.69318">
        <ele>1739</ele>
        <time>2021-08-06T12:24:56.712Z</time>
      </trkpt>
      <trkpt lat="46.93502" lon="8.69317">
        <ele>1738</ele>
        <time>2021-08-06T12:24:57.712Z</time>
      </trkpt>
      <trkpt lat="46.93502" lon="8.69315">
        <ele>1738</ele>
        <time>2021-08-06T12:24:58.711Z</time>
      </trkpt>
      <trkpt lat="46.93503" lon="8.69313">
        <ele>1737</ele>
        <time>2021-08-06T12:24:59.712Z</time>
      </trkpt>
      <trkpt lat="46.93504" lon="8.69312">
        <ele>1737</ele>
        <time>2021-08-06T12:25:00.711Z</time>
      </trkpt>
      <trkpt lat="46.93504" lon="8.6931">
        <ele>1737</ele>
        <time>2021-08-06T12:25:01.712Z</time>
      </trkpt>
      <trkpt lat="46.93505" lon="8.69309">
        <ele>1736</ele>
        <time>2021-08-06T12:25:02.712Z</time>
      </trkpt>
      <trkpt lat="46.93505" lon="8.69308">
        <ele>1736</ele>
        <time>2021-08-06T12:25:03.712Z</time>
      </trkpt>
      <trkpt lat="46.93505" lon="8.69306">
        <ele>1736</ele>
        <time>2021-08-06T12:25:04.712Z</time>
      </trkpt>
      <trkpt lat="46.93505" lon="8.69305">
        <ele>1735</ele>
        <time>2021-08-06T12:25:05.711Z</time>
      </trkpt>
      <trkpt lat="46.93505" lon="8.69303">
        <ele>1735</ele>
        <time>2021-08-06T12:25:06.712Z</time>
      </trkpt>
      <trkpt lat="46.93506" lon="8.69302">
        <ele>1735</ele>
        <time>2021-08-06T12:25:07.712Z</time>
      </trkpt>
      <trkpt lat="46.93506" lon="8.69301">
        <ele>1735</ele>
        <time>2021-08-06T12:25:08.712Z</time>
      </trkpt>
      <trkpt lat="46.93506" lon="8.693">
        <ele>1735</ele>
        <time>2021-08-06T12:25:09.712Z</time>
      </trkpt>
      <trkpt lat="46.93506" lon="8.69298">
        <ele>1735</ele>
        <time>2021-08-06T12:25:10.712Z</time>
      </trkpt>
      <trkpt lat="46.93506" lon="8.69297">
        <ele>1735</ele>
        <time>2021-08-06T12:25:11.712Z</time>
      </trkpt>
      <trkpt lat="46.93506" lon="8.69296">
        <ele>1734</ele>
        <time>2021-08-06T12:25:12.711Z</time>
      </trkpt>
      <trkpt lat="46.93507" lon="8.69296">
        <ele>1734</ele>
        <time>2021-08-06T12:25:13.712Z</time>
      </trkpt>
      <trkpt lat="46.93507" lon="8.69295">
        <ele>1734</ele>
        <time>2021-08-06T12:25:14.711Z</time>
      </trkpt>
      <trkpt lat="46.93507" lon="8.69294">
        <ele>1734</ele>
        <time>2021-08-06T12:25:15.712Z</time>
      </trkpt>
      <trkpt lat="46.93507" lon="8.69293">
        <ele>1734</ele>
        <time>2021-08-06T12:25:16.711Z</time>
      </trkpt>
      <trkpt lat="46.93508" lon="8.69292">
        <ele>1734</ele>
        <time>2021-08-06T12:25:17.712Z</time>
      </trkpt>
      <trkpt lat="46.93508" lon="8.69292">
        <ele>1735</ele>
        <time>2021-08-06T12:25:18.712Z</time>
      </trkpt>
      <trkpt lat="46.93508" lon="8.69292">
        <ele>1735</ele>
        <time>2021-08-06T12:25:19.712Z</time>
      </trkpt>
      <trkpt lat="46.93507" lon="8.69291">
        <ele>1735</ele>
        <time>2021-08-06T12:25:20.711Z</time>
      </trkpt>
      <trkpt lat="46.93507" lon="8.69291">
        <ele>1735</ele>
        <time>2021-08-06T12:25:21.711Z</time>
      </trkpt>
      <trkpt lat="46.93507" lon="8.6929">
        <ele>1736</ele>
        <time>2021-08-06T12:25:22.711Z</time>
      </trkpt>
      <trkpt lat="46.93507" lon="8.6929">
        <ele>1736</ele>
        <time>2021-08-06T12:25:23.712Z</time>
      </trkpt>
      <trkpt lat="46.93507" lon="8.69289">
        <ele>1736</ele>
        <time>2021-08-06T12:25:24.711Z</time>
      </trkpt>
      <trkpt lat="46.93507" lon="8.69287">
        <ele>1735</ele>
        <time>2021-08-06T12:25:25.712Z</time>
      </trkpt>
      <trkpt lat="46.93508" lon="8.69287">
        <ele>1735</ele>
        <time>2021-08-06T12:25:26.711Z</time>
      </trkpt>
    </trkseg>
  </trk>
</gpx>